<?xml version='1.0' encoding='UTF-8'?><gpx version="1.1" creator="JPX - https://github.com/jenetics/jpx" xmlns="http://www.topografix.com/GPX/1/1"><trk><trkseg><trkpt lat="42.186196454143555" lon="12.994571115954404"><ele>576.0</ele><time>2026-05-01T08:40:27Z</time></trkpt><trkpt lat="42.18606497708945" lon="12.994618691120802"><ele>576.0</ele><time>2026-05-01T08:40:28Z</time></trkpt><trkpt lat="42.18593051136629" lon="12.994668506846955"><ele>576.0</ele><time>2026-05-01T08:40:29Z</time></trkpt><trkpt lat="42.18579873540156" lon="12.994717326097605"><ele>576.0</ele><time>2026-05-01T08:40:30Z</time></trkpt><trkpt lat="42.185661313532165" lon="12.994768237012806"><ele>575.0</ele><time>2026-05-01T08:40:31Z</time></trkpt><trkpt lat="42.18552949501746" lon="12.994817072027981"><ele>574.0</ele><time>2026-05-01T08:40:32Z</time></trkpt><trkpt lat="42.18538433590192" lon="12.9948708493648"><ele>573.0</ele><time>2026-05-01T08:40:33Z</time></trkpt><trkpt lat="42.185237394887935" lon="12.994925200301548"><ele>572.0</ele><time>2026-05-01T08:40:34Z</time></trkpt><trkpt lat="42.18509652226933" lon="12.994998096193985"><ele>580.0</ele><time>2026-05-01T08:40:35Z</time></trkpt><trkpt lat="42.184942228704784" lon="12.995029953037978"><ele>588.0</ele><time>2026-05-01T08:40:36Z</time></trkpt><trkpt lat="42.18479145902256" lon="12.99508384720933"><ele>596.0</ele><time>2026-05-01T08:40:37Z</time></trkpt><trkpt lat="42.18464293149726" lon="12.995155068093997"><ele>596.0</ele><time>2026-05-01T08:40:38Z</time></trkpt><trkpt lat="42.184501858937644" lon="12.995209872134996"><ele>596.0</ele><time>2026-05-01T08:40:39Z</time></trkpt><trkpt lat="42.184350445464574" lon="12.99524422934977"><ele>596.0</ele><time>2026-05-01T08:40:40Z</time></trkpt><trkpt lat="42.184211938443234" lon="12.99528993319296"><ele>596.0</ele><time>2026-05-01T08:40:41Z</time></trkpt><trkpt lat="42.18406399052499" lon="12.995326422737023"><ele>591.3333333333333</ele><time>2026-05-01T08:40:42Z</time></trkpt><trkpt lat="42.183921781150154" lon="12.9953703000512"><ele>586.6666666666666</ele><time>2026-05-01T08:40:43Z</time></trkpt><trkpt lat="42.183785710361846" lon="12.995421153781287"><ele>582.0</ele><time>2026-05-01T08:40:44Z</time></trkpt><trkpt lat="42.18361690368351" lon="12.995486244738089"><ele>582.0</ele><time>2026-05-01T08:40:45Z</time></trkpt><trkpt lat="42.18346021467764" lon="12.995538201916863"><ele>582.0</ele><time>2026-05-01T08:40:46Z</time></trkpt><trkpt lat="42.18332434447981" lon="12.995606645668603"><ele>582.0</ele><time>2026-05-01T08:40:47Z</time></trkpt><trkpt lat="42.183194255747736" lon="12.99566726354152"><ele>582.0</ele><time>2026-05-01T08:40:48Z</time></trkpt><trkpt lat="42.183062251452256" lon="12.995707902466624"><ele>578.0</ele><time>2026-05-01T08:40:49Z</time></trkpt><trkpt lat="42.18292589643517" lon="12.995740116227639"><ele>574.0</ele><time>2026-05-01T08:40:50Z</time></trkpt><trkpt lat="42.18278715653738" lon="12.99582087443815"><ele>570.0</ele><time>2026-05-01T08:40:51Z</time></trkpt><trkpt lat="42.18264234305229" lon="12.995849835964693"><ele>566.0</ele><time>2026-05-01T08:40:52Z</time></trkpt><trkpt lat="42.18249646922344" lon="12.995878414694921"><ele>572.6666666666666</ele><time>2026-05-01T08:40:53Z</time></trkpt><trkpt lat="42.18230519064156" lon="12.99595232834722"><ele>579.3333333333334</ele><time>2026-05-01T08:40:54Z</time></trkpt><trkpt lat="42.18214180674879" lon="12.996020143712434"><ele>586.0</ele><time>2026-05-01T08:40:55Z</time></trkpt><trkpt lat="42.18198743802637" lon="12.996071978297394"><ele>586.0</ele><time>2026-05-01T08:40:56Z</time></trkpt><trkpt lat="42.18184986335518" lon="12.996114032453711"><ele>586.0</ele><time>2026-05-01T08:40:57Z</time></trkpt><trkpt lat="42.18172377275766" lon="12.996204749278625"><ele>586.0</ele><time>2026-05-01T08:40:58Z</time></trkpt><trkpt lat="42.18157393153909" lon="12.99624571655801"><ele>586.0</ele><time>2026-05-01T08:40:59Z</time></trkpt><trkpt lat="42.18143076448325" lon="12.99628321993686"><ele>578.5</ele><time>2026-05-01T08:41:00Z</time></trkpt><trkpt lat="42.18131441736483" lon="12.99632683122216"><ele>571.0</ele><time>2026-05-01T08:41:01Z</time></trkpt><trkpt lat="42.181146030027115" lon="12.996355198692994"><ele>563.5</ele><time>2026-05-01T08:41:02Z</time></trkpt><trkpt lat="42.181053456728534" lon="12.996470939989997"><ele>556.0</ele><time>2026-05-01T08:41:03Z</time></trkpt><trkpt lat="42.18099815982948" lon="12.996632658321126"><ele>559.75</ele><time>2026-05-01T08:41:04Z</time></trkpt><trkpt lat="42.180953520606806" lon="12.996800030270713"><ele>563.5</ele><time>2026-05-01T08:41:05Z</time></trkpt><trkpt lat="42.18091412725684" lon="12.996929815944362"><ele>567.25</ele><time>2026-05-01T08:41:06Z</time></trkpt><trkpt lat="42.18085853176066" lon="12.997064476071312"><ele>571.0</ele><time>2026-05-01T08:41:07Z</time></trkpt><trkpt lat="42.180797114414624" lon="12.997193900512492"><ele>571.0</ele><time>2026-05-01T08:41:08Z</time></trkpt><trkpt lat="42.180784542499325" lon="12.997327571334138"><ele>571.0</ele><time>2026-05-01T08:41:09Z</time></trkpt><trkpt lat="42.18073516001327" lon="12.997455983865853"><ele>571.0</ele><time>2026-05-01T08:41:10Z</time></trkpt><trkpt lat="42.18068325338999" lon="12.997581870199879"><ele>571.0</ele><time>2026-05-01T08:41:11Z</time></trkpt><trkpt lat="42.18063544945419" lon="12.99770221145179"><ele>571.0</ele><time>2026-05-01T08:41:12Z</time></trkpt><trkpt lat="42.180574350532275" lon="12.997852414336036"><ele>568.25</ele><time>2026-05-01T08:41:13Z</time></trkpt><trkpt lat="42.18052535617098" lon="12.997984913422943"><ele>565.5</ele><time>2026-05-01T08:41:14Z</time></trkpt><trkpt lat="42.180430459997055" lon="12.998103457607918"><ele>562.75</ele><time>2026-05-01T08:41:15Z</time></trkpt><trkpt lat="42.18030813894246" lon="12.998198766260181"><ele>560.0</ele><time>2026-05-01T08:41:16Z</time></trkpt><trkpt lat="42.18020662310712" lon="12.998306287449171"><ele>560.75</ele><time>2026-05-01T08:41:17Z</time></trkpt><trkpt lat="42.180110495498774" lon="12.998415779689028"><ele>561.5</ele><time>2026-05-01T08:41:18Z</time></trkpt><trkpt lat="42.180006916832475" lon="12.998492476870819"><ele>562.25</ele><time>2026-05-01T08:41:19Z</time></trkpt><trkpt lat="42.17988902491891" lon="12.998558400841503"><ele>563.0</ele><time>2026-05-01T08:41:20Z</time></trkpt><trkpt lat="42.17977046995335" lon="12.998674420766573"><ele>563.0</ele><time>2026-05-01T08:41:21Z</time></trkpt><trkpt lat="42.17966328490306" lon="12.998749337548563"><ele>563.0</ele><time>2026-05-01T08:41:22Z</time></trkpt><trkpt lat="42.17957086601628" lon="12.998884473055629"><ele>563.0</ele><time>2026-05-01T08:41:23Z</time></trkpt><trkpt lat="42.179472812533874" lon="12.999014884447611"><ele>563.0</ele><time>2026-05-01T08:41:24Z</time></trkpt><trkpt lat="42.17929645245251" lon="12.99914363595545"><ele>565.5</ele><time>2026-05-01T08:41:25Z</time></trkpt><trkpt lat="42.17921804461272" lon="12.999226242363696"><ele>568.0</ele><time>2026-05-01T08:41:26Z</time></trkpt><trkpt lat="42.179121597616245" lon="12.999314361932454"><ele>570.5</ele><time>2026-05-01T08:41:27Z</time></trkpt><trkpt lat="42.17899973476481" lon="12.999345044954788"><ele>573.0</ele><time>2026-05-01T08:41:28Z</time></trkpt><trkpt lat="42.178876959513474" lon="12.99939634212355"><ele>573.0</ele><time>2026-05-01T08:41:29Z</time></trkpt><trkpt lat="42.17876259981756" lon="12.99942755005116"><ele>573.0</ele><time>2026-05-01T08:41:30Z</time></trkpt><trkpt lat="42.17864067319927" lon="12.999466070096958"><ele>573.0</ele><time>2026-05-01T08:41:31Z</time></trkpt><trkpt lat="42.17850566770541" lon="12.999529640953028"><ele>573.0</ele><time>2026-05-01T08:41:32Z</time></trkpt><trkpt lat="42.17838560577148" lon="12.999605690062063"><ele>573.0</ele><time>2026-05-01T08:41:33Z</time></trkpt><trkpt lat="42.17827743580983" lon="12.999677104066357"><ele>573.0</ele><time>2026-05-01T08:41:34Z</time></trkpt><trkpt lat="42.178171458860824" lon="12.999796300900835"><ele>573.0</ele><time>2026-05-01T08:41:35Z</time></trkpt><trkpt lat="42.178080734437245" lon="12.999917730950111"><ele>573.0</ele><time>2026-05-01T08:41:36Z</time></trkpt><trkpt lat="42.177960878408875" lon="13.000027801309518"><ele>568.5</ele><time>2026-05-01T08:41:37Z</time></trkpt><trkpt lat="42.17783661415751" lon="13.000133092772327"><ele>564.0</ele><time>2026-05-01T08:41:38Z</time></trkpt><trkpt lat="42.17773244761891" lon="13.000238036652108"><ele>559.5</ele><time>2026-05-01T08:41:39Z</time></trkpt><trkpt lat="42.17761359510085" lon="13.000350020777082"><ele>555.0</ele><time>2026-05-01T08:41:40Z</time></trkpt><trkpt lat="42.17748878358205" lon="13.00045156720391"><ele>555.0</ele><time>2026-05-01T08:41:41Z</time></trkpt><trkpt lat="42.17737641650654" lon="13.000557193820015"><ele>555.0</ele><time>2026-05-01T08:41:42Z</time></trkpt><trkpt lat="42.17726083657485" lon="13.000658255072373"><ele>555.0</ele><time>2026-05-01T08:41:43Z</time></trkpt><trkpt lat="42.17713603539742" lon="13.000762706376024"><ele>555.0</ele><time>2026-05-01T08:41:44Z</time></trkpt><trkpt lat="42.1770150251308" lon="13.000856246176378"><ele>554.75</ele><time>2026-05-01T08:41:45Z</time></trkpt><trkpt lat="42.17689010193952" lon="13.000968156163994"><ele>554.5</ele><time>2026-05-01T08:41:46Z</time></trkpt><trkpt lat="42.17676853054905" lon="13.001077149244454"><ele>554.25</ele><time>2026-05-01T08:41:47Z</time></trkpt><trkpt lat="42.176644389914486" lon="13.001184755548273"><ele>554.0</ele><time>2026-05-01T08:41:48Z</time></trkpt><trkpt lat="42.17652202404854" lon="13.001292450479083"><ele>554.5</ele><time>2026-05-01T08:41:49Z</time></trkpt><trkpt lat="42.17640012136499" lon="13.001399699473437"><ele>555.0</ele><time>2026-05-01T08:41:50Z</time></trkpt><trkpt lat="42.17628029149951" lon="13.001505597816424"><ele>555.5</ele><time>2026-05-01T08:41:51Z</time></trkpt><trkpt lat="42.17616063890521" lon="13.001612789789439"><ele>556.0</ele><time>2026-05-01T08:41:52Z</time></trkpt><trkpt lat="42.1760422090582" lon="13.001731851463507"><ele>556.0</ele><time>2026-05-01T08:41:53Z</time></trkpt><trkpt lat="42.17591263619319" lon="13.001841116655934"><ele>556.0</ele><time>2026-05-01T08:41:54Z</time></trkpt><trkpt lat="42.17579398173571" lon="13.001935935126465"><ele>556.0</ele><time>2026-05-01T08:41:55Z</time></trkpt><trkpt lat="42.17567892857721" lon="13.002041270202575"><ele>556.0</ele><time>2026-05-01T08:41:56Z</time></trkpt><trkpt lat="42.17555022153804" lon="13.002139104118244"><ele>553.0</ele><time>2026-05-01T08:41:57Z</time></trkpt><trkpt lat="42.17541616699889" lon="13.002210115175362"><ele>550.0</ele><time>2026-05-01T08:41:58Z</time></trkpt><trkpt lat="42.175285142964874" lon="13.00227536502997"><ele>547.0</ele><time>2026-05-01T08:41:58.999Z</time></trkpt><trkpt lat="42.17515608674906" lon="13.002327628109347"><ele>544.0</ele><time>2026-05-01T08:41:59.999Z</time></trkpt><trkpt lat="42.17503409197532" lon="13.002364062876095"><ele>544.0</ele><time>2026-05-01T08:42:00.999Z</time></trkpt><trkpt lat="42.17487510786989" lon="13.002404980333143"><ele>544.0</ele><time>2026-05-01T08:42:01.999Z</time></trkpt><trkpt lat="42.174725366687504" lon="13.002446684145514"><ele>544.0</ele><time>2026-05-01T08:42:02.999Z</time></trkpt><trkpt lat="42.17458992455492" lon="13.002484405511861"><ele>549.0</ele><time>2026-05-01T08:42:03.999Z</time></trkpt><trkpt lat="42.1744581404583" lon="13.002519341981843"><ele>554.0</ele><time>2026-05-01T08:42:04.999Z</time></trkpt><trkpt lat="42.17431385970013" lon="13.002556922113287"><ele>559.0</ele><time>2026-05-01T08:42:05.999Z</time></trkpt><trkpt lat="42.17417199106345" lon="13.002593873672707"><ele>564.0</ele><time>2026-05-01T08:42:06.999Z</time></trkpt><trkpt lat="42.17402832405791" lon="13.002630825881898"><ele>562.0</ele><time>2026-05-01T08:42:07.999Z</time></trkpt><trkpt lat="42.17388655210516" lon="13.002671033292897"><ele>560.0</ele><time>2026-05-01T08:42:08.999Z</time></trkpt><trkpt lat="42.17374551866908" lon="13.002716438216291"><ele>558.0</ele><time>2026-05-01T08:42:09.999Z</time></trkpt><trkpt lat="42.173606975006855" lon="13.002782453964349"><ele>556.0</ele><time>2026-05-01T08:42:10.999Z</time></trkpt><trkpt lat="42.173476273123086" lon="13.00286434959855"><ele>556.0</ele><time>2026-05-01T08:42:11.999Z</time></trkpt><trkpt lat="42.17335127779435" lon="13.002939498066963"><ele>556.0</ele><time>2026-05-01T08:42:13.001Z</time></trkpt><trkpt lat="42.173222016052705" lon="13.003011035994113"><ele>556.0</ele><time>2026-05-01T08:42:14.001Z</time></trkpt><trkpt lat="42.173090923357265" lon="13.003045704088295"><ele>556.0</ele><time>2026-05-01T08:42:15.001Z</time></trkpt><trkpt lat="42.17296252401471" lon="13.003059133618782"><ele>553.0</ele><time>2026-05-01T08:42:16.001Z</time></trkpt><trkpt lat="42.17284158459422" lon="13.003046295705117"><ele>550.0</ele><time>2026-05-01T08:42:17.001Z</time></trkpt><trkpt lat="42.172704212403836" lon="13.003054387077487"><ele>547.0</ele><time>2026-05-01T08:42:18.001Z</time></trkpt><trkpt lat="42.172584079895636" lon="13.003097578166221"><ele>544.0</ele><time>2026-05-01T08:42:19.001Z</time></trkpt><trkpt lat="42.17247261828752" lon="13.003204261552487"><ele>544.0</ele><time>2026-05-01T08:42:20.001Z</time></trkpt><trkpt lat="42.17236085062575" lon="13.003312340710814"><ele>544.0</ele><time>2026-05-01T08:42:21.001Z</time></trkpt><trkpt lat="42.17226534112589" lon="13.003417136148911"><ele>544.0</ele><time>2026-05-01T08:42:22.001Z</time></trkpt><trkpt lat="42.172181598611566" lon="13.003533088949368"><ele>544.0</ele><time>2026-05-01T08:42:23.001Z</time></trkpt><trkpt lat="42.172103708209114" lon="13.00368330459482"><ele>543.5</ele><time>2026-05-01T08:42:24.001Z</time></trkpt><trkpt lat="42.172017678833654" lon="13.003846565346635"><ele>543.0</ele><time>2026-05-01T08:42:25.001Z</time></trkpt><trkpt lat="42.17193678937127" lon="13.003998615972385"><ele>542.5</ele><time>2026-05-01T08:42:26.001Z</time></trkpt><trkpt lat="42.171850530334346" lon="13.004151214293355"><ele>542.0</ele><time>2026-05-01T08:42:27.001Z</time></trkpt><trkpt lat="42.17174432522953" lon="13.004287365820522"><ele>544.0</ele><time>2026-05-01T08:42:28.001Z</time></trkpt><trkpt lat="42.171638374649305" lon="13.004400065876661"><ele>546.0</ele><time>2026-05-01T08:42:29.001Z</time></trkpt><trkpt lat="42.171531521661706" lon="13.004510738406521"><ele>548.0</ele><time>2026-05-01T08:42:30.001Z</time></trkpt><trkpt lat="42.17141414233326" lon="13.004597441313395"><ele>550.0</ele><time>2026-05-01T08:42:31.001Z</time></trkpt><trkpt lat="42.17130046685758" lon="13.004667056002347"><ele>550.0</ele><time>2026-05-01T08:42:32.001Z</time></trkpt><trkpt lat="42.17118137355679" lon="13.004732770956863"><ele>550.0</ele><time>2026-05-01T08:42:33.001Z</time></trkpt><trkpt lat="42.17106421881419" lon="13.004811480308355"><ele>550.0</ele><time>2026-05-01T08:42:34.001Z</time></trkpt><trkpt lat="42.17093866789405" lon="13.00489765326207"><ele>550.0</ele><time>2026-05-01T08:42:35.001Z</time></trkpt><trkpt lat="42.17080694949838" lon="13.004954785246985"><ele>549.75</ele><time>2026-05-01T08:42:36.001Z</time></trkpt><trkpt lat="42.170668609220805" lon="13.004980040059909"><ele>549.5</ele><time>2026-05-01T08:42:37.001Z</time></trkpt><trkpt lat="42.170540229214176" lon="13.004980879320648"><ele>549.25</ele><time>2026-05-01T08:42:38.001Z</time></trkpt><trkpt lat="42.17039597208828" lon="13.004967583915302"><ele>549.0</ele><time>2026-05-01T08:42:39.001Z</time></trkpt><trkpt lat="42.17025530600792" lon="13.004956703221632"><ele>549.0</ele><time>2026-05-01T08:42:40.001Z</time></trkpt><trkpt lat="42.170107347405036" lon="13.004956809134557"><ele>549.0</ele><time>2026-05-01T08:42:41.001Z</time></trkpt><trkpt lat="42.169979707636294" lon="13.004940443673828"><ele>549.0</ele><time>2026-05-01T08:42:42.001Z</time></trkpt><trkpt lat="42.169866668456656" lon="13.004871954271644"><ele>549.0</ele><time>2026-05-01T08:42:43.001Z</time></trkpt><trkpt lat="42.1697687119658" lon="13.004797123300637"><ele>550.5</ele><time>2026-05-01T08:42:44.001Z</time></trkpt><trkpt lat="42.16965080808729" lon="13.004679140900587"><ele>552.0</ele><time>2026-05-01T08:42:45.001Z</time></trkpt><trkpt lat="42.169537552585034" lon="13.00456985583879"><ele>553.5</ele><time>2026-05-01T08:42:46.001Z</time></trkpt><trkpt lat="42.16941665496792" lon="13.004494259577696"><ele>555.0</ele><time>2026-05-01T08:42:47.001Z</time></trkpt><trkpt lat="42.16927403217333" lon="13.004470552252407"><ele>555.0</ele><time>2026-05-01T08:42:48.001Z</time></trkpt><trkpt lat="42.1691565882602" lon="13.004482164100967"><ele>555.0</ele><time>2026-05-01T08:42:49.001Z</time></trkpt><trkpt lat="42.16899865731096" lon="13.004550194968774"><ele>555.0</ele><time>2026-05-01T08:42:50.001Z</time></trkpt><trkpt lat="42.16886030032462" lon="13.004630696940964"><ele>555.0</ele><time>2026-05-01T08:42:51.001Z</time></trkpt><trkpt lat="42.168697154458634" lon="13.004712276954935"><ele>553.25</ele><time>2026-05-01T08:42:52.001Z</time></trkpt><trkpt lat="42.16857829099662" lon="13.004820480271576"><ele>551.5</ele><time>2026-05-01T08:42:53.001Z</time></trkpt><trkpt lat="42.16845591220478" lon="13.004908930520985"><ele>549.75</ele><time>2026-05-01T08:42:54.001Z</time></trkpt><trkpt lat="42.16832829603397" lon="13.005030134738984"><ele>548.0</ele><time>2026-05-01T08:42:55.001Z</time></trkpt><trkpt lat="42.1682091937223" lon="13.005159828591157"><ele>550.0</ele><time>2026-05-01T08:42:56.001Z</time></trkpt><trkpt lat="42.16809242461467" lon="13.005297654647048"><ele>552.0</ele><time>2026-05-01T08:42:57.001Z</time></trkpt><trkpt lat="42.16798616368415" lon="13.00545046606657"><ele>554.0</ele><time>2026-05-01T08:42:58.001Z</time></trkpt><trkpt lat="42.167877569208976" lon="13.005603366860871"><ele>554.0</ele><time>2026-05-01T08:42:59Z</time></trkpt><trkpt lat="42.16776719853738" lon="13.00573507320479"><ele>554.0</ele><time>2026-05-01T08:43:00Z</time></trkpt><trkpt lat="42.167634464819535" lon="13.005858926851753"><ele>554.0</ele><time>2026-05-01T08:43:01Z</time></trkpt><trkpt lat="42.167497625492146" lon="13.005955714815975"><ele>554.6666666666666</ele><time>2026-05-01T08:43:02Z</time></trkpt><trkpt lat="42.16735662871886" lon="13.006035610174651"><ele>555.3333333333334</ele><time>2026-05-01T08:43:03Z</time></trkpt><trkpt lat="42.16721302599074" lon="13.006122520295028"><ele>556.0</ele><time>2026-05-01T08:43:04Z</time></trkpt><trkpt lat="42.16707290356326" lon="13.006213201561023"><ele>556.0</ele><time>2026-05-01T08:43:05Z</time></trkpt><trkpt lat="42.1669424326902" lon="13.006291591762198"><ele>556.0</ele><time>2026-05-01T08:43:06Z</time></trkpt><trkpt lat="42.16679812875636" lon="13.006341573488806"><ele>556.0</ele><time>2026-05-01T08:43:07Z</time></trkpt><trkpt lat="42.16665169220053" lon="13.006346849284844"><ele>556.0</ele><time>2026-05-01T08:43:08Z</time></trkpt><trkpt lat="42.166502393377684" lon="13.006322757176168"><ele>556.3333333333334</ele><time>2026-05-01T08:43:09Z</time></trkpt><trkpt lat="42.16635426356213" lon="13.006305698757087"><ele>556.6666666666666</ele><time>2026-05-01T08:43:10Z</time></trkpt><trkpt lat="42.166197205356" lon="13.006288338070533"><ele>557.0</ele><time>2026-05-01T08:43:11Z</time></trkpt><trkpt lat="42.16604508651603" lon="13.006279892950516"><ele>557.0</ele><time>2026-05-01T08:43:12Z</time></trkpt><trkpt lat="42.165884928020205" lon="13.006308610767856"><ele>557.0</ele><time>2026-05-01T08:43:13Z</time></trkpt><trkpt lat="42.16573078341806" lon="13.006372540522767"><ele>557.0</ele><time>2026-05-01T08:43:14Z</time></trkpt><trkpt lat="42.16558702436453" lon="13.006442193333875"><ele>555.3333333333333</ele><time>2026-05-01T08:43:15Z</time></trkpt><trkpt lat="42.16542966504287" lon="13.006508228250835"><ele>553.6666666666666</ele><time>2026-05-01T08:43:16Z</time></trkpt><trkpt lat="42.165261861140095" lon="13.006568201143882"><ele>552.0</ele><time>2026-05-01T08:43:17Z</time></trkpt><trkpt lat="42.165111836046435" lon="13.006649594506989"><ele>555.0</ele><time>2026-05-01T08:43:18Z</time></trkpt><trkpt lat="42.164967246287794" lon="13.006741402478097"><ele>558.0</ele><time>2026-05-01T08:43:19Z</time></trkpt><trkpt lat="42.1648245582393" lon="13.006827659963575"><ele>561.0</ele><time>2026-05-01T08:43:20Z</time></trkpt><trkpt lat="42.16468864133787" lon="13.00690186284481"><ele>561.0</ele><time>2026-05-01T08:43:21Z</time></trkpt><trkpt lat="42.164562748081494" lon="13.006941354619581"><ele>561.0</ele><time>2026-05-01T08:43:22Z</time></trkpt><trkpt lat="42.16442975460232" lon="13.006952773535074"><ele>561.0</ele><time>2026-05-01T08:43:23Z</time></trkpt><trkpt lat="42.16428495248227" lon="13.0069428209096"><ele>561.0</ele><time>2026-05-01T08:43:24Z</time></trkpt><trkpt lat="42.164135641417964" lon="13.006926378369327"><ele>560.6666666666666</ele><time>2026-05-01T08:43:25Z</time></trkpt><trkpt lat="42.1639895225242" lon="13.006904030468048"><ele>560.3333333333333</ele><time>2026-05-01T08:43:26Z</time></trkpt><trkpt lat="42.163835985897634" lon="13.006932585945128"><ele>560.0</ele><time>2026-05-01T08:43:27Z</time></trkpt><trkpt lat="42.16365988507958" lon="13.006951360019674"><ele>560.0</ele><time>2026-05-01T08:43:28Z</time></trkpt><trkpt lat="42.16348792939252" lon="13.006960941867527"><ele>560.0</ele><time>2026-05-01T08:43:29Z</time></trkpt><trkpt lat="42.16332063252506" lon="13.006965975039018"><ele>560.0</ele><time>2026-05-01T08:43:30Z</time></trkpt><trkpt lat="42.16314686040188" lon="13.006980222364335"><ele>559.0</ele><time>2026-05-01T08:43:31Z</time></trkpt><trkpt lat="42.162984582720206" lon="13.007021731595735"><ele>558.0</ele><time>2026-05-01T08:43:32Z</time></trkpt><trkpt lat="42.162816722380846" lon="13.007068135710094"><ele>557.0</ele><time>2026-05-01T08:43:33Z</time></trkpt><trkpt lat="42.16262979171085" lon="13.007110757282222"><ele>557.0</ele><time>2026-05-01T08:43:34Z</time></trkpt><trkpt lat="42.16244099997893" lon="13.007151865948629"><ele>557.0</ele><time>2026-05-01T08:43:35Z</time></trkpt><trkpt lat="42.16226747134955" lon="13.007193002031206"><ele>557.0</ele><time>2026-05-01T08:43:36Z</time></trkpt><trkpt lat="42.16209238224101" lon="13.007224162373454"><ele>555.0</ele><time>2026-05-01T08:43:37Z</time></trkpt><trkpt lat="42.16191715021336" lon="13.007252188544935"><ele>553.0</ele><time>2026-05-01T08:43:38Z</time></trkpt><trkpt lat="42.161742290343234" lon="13.007290271695133"><ele>551.0</ele><time>2026-05-01T08:43:39Z</time></trkpt><trkpt lat="42.16157554731852" lon="13.007345059574485"><ele>549.3333333333333</ele><time>2026-05-01T08:43:40Z</time></trkpt><trkpt lat="42.16141675600271" lon="13.007420039715932"><ele>547.6666666666666</ele><time>2026-05-01T08:43:41Z</time></trkpt><trkpt lat="42.161269855405386" lon="13.007503990878362"><ele>546.0</ele><time>2026-05-01T08:43:42Z</time></trkpt><trkpt lat="42.16111906929467" lon="13.00758673899953"><ele>550.3333333333334</ele><time>2026-05-01T08:43:43Z</time></trkpt><trkpt lat="42.16097085984778" lon="13.007664936136026"><ele>554.6666666666667</ele><time>2026-05-01T08:43:44Z</time></trkpt><trkpt lat="42.1608349535357" lon="13.00775419167146"><ele>559.0</ele><time>2026-05-01T08:43:45Z</time></trkpt><trkpt lat="42.160703787857" lon="13.00784568736544"><ele>555.3333333333334</ele><time>2026-05-01T08:43:46Z</time></trkpt><trkpt lat="42.16056373508862" lon="13.007922250397849"><ele>551.6666666666666</ele><time>2026-05-01T08:43:47Z</time></trkpt><trkpt lat="42.160417557944776" lon="13.008004904134005"><ele>548.0</ele><time>2026-05-01T08:43:48Z</time></trkpt><trkpt lat="42.16027254499339" lon="13.008095448333489"><ele>548.0</ele><time>2026-05-01T08:43:49Z</time></trkpt><trkpt lat="42.16012472357809" lon="13.008183444131431"><ele>548.0</ele><time>2026-05-01T08:43:50Z</time></trkpt><trkpt lat="42.159975263662076" lon="13.00827150062879"><ele>548.0</ele><time>2026-05-01T08:43:51Z</time></trkpt><trkpt lat="42.15982179292171" lon="13.008361292581997"><ele>551.6666666666666</ele><time>2026-05-01T08:43:52Z</time></trkpt><trkpt lat="42.15966520107011" lon="13.008453274412608"><ele>555.3333333333334</ele><time>2026-05-01T08:43:53Z</time></trkpt><trkpt lat="42.15950896163111" lon="13.008544026546154"><ele>559.0</ele><time>2026-05-01T08:43:54Z</time></trkpt><trkpt lat="42.159352211153134" lon="13.008637374208192"><ele>559.0</ele><time>2026-05-01T08:43:55Z</time></trkpt><trkpt lat="42.15919400081624" lon="13.008732611186106"><ele>559.0</ele><time>2026-05-01T08:43:56Z</time></trkpt><trkpt lat="42.15903655552774" lon="13.00882485833567"><ele>559.0</ele><time>2026-05-01T08:43:57Z</time></trkpt><trkpt lat="42.15887674121318" lon="13.00891493856187"><ele>560.0</ele><time>2026-05-01T08:43:58Z</time></trkpt><trkpt lat="42.15872631595329" lon="13.009005407281151"><ele>561.0</ele><time>2026-05-01T08:43:59Z</time></trkpt><trkpt lat="42.15857442779776" lon="13.009106505813799"><ele>562.0</ele><time>2026-05-01T08:44:00Z</time></trkpt><trkpt lat="42.158427220532595" lon="13.00923210341138"><ele>562.0</ele><time>2026-05-01T08:44:01Z</time></trkpt><trkpt lat="42.15830489826453" lon="13.009389302776599"><ele>562.0</ele><time>2026-05-01T08:44:02Z</time></trkpt><trkpt lat="42.158200515647536" lon="13.009541417470144"><ele>562.0</ele><time>2026-05-01T08:44:03Z</time></trkpt><trkpt lat="42.15807830206083" lon="13.00966533495372"><ele>561.5</ele><time>2026-05-01T08:44:04Z</time></trkpt><trkpt lat="42.15794906996315" lon="13.009733685783765"><ele>561.0</ele><time>2026-05-01T08:44:05Z</time></trkpt><trkpt lat="42.157822042605396" lon="13.009730624752104"><ele>560.5</ele><time>2026-05-01T08:44:06Z</time></trkpt><trkpt lat="42.15769489133634" lon="13.009660405486487"><ele>560.0</ele><time>2026-05-01T08:44:07Z</time></trkpt><trkpt lat="42.15757776640272" lon="13.009568466196722"><ele>560.0</ele><time>2026-05-01T08:44:08Z</time></trkpt><trkpt lat="42.157455095748965" lon="13.009500001116225"><ele>560.0</ele><time>2026-05-01T08:44:09Z</time></trkpt><trkpt lat="42.15732134912545" lon="13.009473716334398"><ele>560.0</ele><time>2026-05-01T08:44:10Z</time></trkpt><trkpt lat="42.15719330754988" lon="13.009491806495742"><ele>560.0</ele><time>2026-05-01T08:44:11Z</time></trkpt><trkpt lat="42.157069689646086" lon="13.009554808862834"><ele>559.5</ele><time>2026-05-01T08:44:12Z</time></trkpt><trkpt lat="42.15694867227814" lon="13.009675698595201"><ele>559.0</ele><time>2026-05-01T08:44:13Z</time></trkpt><trkpt lat="42.15684867172104" lon="13.009806937328362"><ele>558.5</ele><time>2026-05-01T08:44:14Z</time></trkpt><trkpt lat="42.156758919263694" lon="13.009940215804416"><ele>558.0</ele><time>2026-05-01T08:44:15Z</time></trkpt><trkpt lat="42.15664615249838" lon="13.010072027439787"><ele>556.6666666666666</ele><time>2026-05-01T08:44:16Z</time></trkpt><trkpt lat="42.15653219514153" lon="13.010200945122959"><ele>555.3333333333333</ele><time>2026-05-01T08:44:17Z</time></trkpt><trkpt lat="42.15641643853632" lon="13.010352082878773"><ele>554.0</ele><time>2026-05-01T08:44:18Z</time></trkpt><trkpt lat="42.15629048347157" lon="13.01054360541075"><ele>554.0</ele><time>2026-05-01T08:44:19.002Z</time></trkpt><trkpt lat="42.156177480484" lon="13.010708090849835"><ele>554.0</ele><time>2026-05-01T08:44:20.002Z</time></trkpt><trkpt lat="42.15606390993583" lon="13.010878842918508"><ele>554.0</ele><time>2026-05-01T08:44:21.002Z</time></trkpt><trkpt lat="42.15591155669244" lon="13.011040106969226"><ele>552.6666666666666</ele><time>2026-05-01T08:44:22.002Z</time></trkpt><trkpt lat="42.155805542256815" lon="13.011221534478988"><ele>551.3333333333334</ele><time>2026-05-01T08:44:23.002Z</time></trkpt><trkpt lat="42.155684434036615" lon="13.011393364682014"><ele>550.0</ele><time>2026-05-01T08:44:24.002Z</time></trkpt><trkpt lat="42.155569991499725" lon="13.01156206382154"><ele>554.0</ele><time>2026-05-01T08:44:25.002Z</time></trkpt><trkpt lat="42.155452815673534" lon="13.011713367562262"><ele>558.0</ele><time>2026-05-01T08:44:26.002Z</time></trkpt><trkpt lat="42.15533397229236" lon="13.011843396897744"><ele>562.0</ele><time>2026-05-01T08:44:27.002Z</time></trkpt><trkpt lat="42.15521027420304" lon="13.011949078742322"><ele>562.0</ele><time>2026-05-01T08:44:28.002Z</time></trkpt><trkpt lat="42.155072538718194" lon="13.012026210637284"><ele>562.0</ele><time>2026-05-01T08:44:29.002Z</time></trkpt><trkpt lat="42.15491989841776" lon="13.012071810914433"><ele>562.0</ele><time>2026-05-01T08:44:30.002Z</time></trkpt><trkpt lat="42.154760791498795" lon="13.012089835732464"><ele>559.0</ele><time>2026-05-01T08:44:31.002Z</time></trkpt><trkpt lat="42.154601559107626" lon="13.012106888786171"><ele>556.0</ele><time>2026-05-01T08:44:32.002Z</time></trkpt><trkpt lat="42.15443643855454" lon="13.012126076056797"><ele>553.0</ele><time>2026-05-01T08:44:33.001Z</time></trkpt><trkpt lat="42.154271579809496" lon="13.01214128364938"><ele>553.0</ele><time>2026-05-01T08:44:34.001Z</time></trkpt><trkpt lat="42.154101190214384" lon="13.012158311478327"><ele>553.0</ele><time>2026-05-01T08:44:35.001Z</time></trkpt><trkpt lat="42.15393601130875" lon="13.01217526068371"><ele>553.0</ele><time>2026-05-01T08:44:36.001Z</time></trkpt><trkpt lat="42.15377332361001" lon="13.012194827492479"><ele>552.3333333333334</ele><time>2026-05-01T08:44:37.001Z</time></trkpt><trkpt lat="42.15360777039833" lon="13.012208485517215"><ele>551.6666666666666</ele><time>2026-05-01T08:44:38.001Z</time></trkpt><trkpt lat="42.1534415093919" lon="13.012220943176033"><ele>551.0</ele><time>2026-05-01T08:44:39.001Z</time></trkpt><trkpt lat="42.153278403919344" lon="13.012237284483632"><ele>550.6666666666666</ele><time>2026-05-01T08:44:40.001Z</time></trkpt><trkpt lat="42.153114756847046" lon="13.012267050160647"><ele>550.3333333333334</ele><time>2026-05-01T08:44:41.001Z</time></trkpt><trkpt lat="42.15295422476962" lon="13.012323535970955"><ele>550.0</ele><time>2026-05-01T08:44:42.001Z</time></trkpt><trkpt lat="42.15280229054508" lon="13.012409429391054"><ele>551.0</ele><time>2026-05-01T08:44:43.001Z</time></trkpt><trkpt lat="42.15265213149034" lon="13.012494416358"><ele>552.0</ele><time>2026-05-01T08:44:44.001Z</time></trkpt><trkpt lat="42.1525060966162" lon="13.012571682454688"><ele>553.0</ele><time>2026-05-01T08:44:45.001Z</time></trkpt><trkpt lat="42.1523670057697" lon="13.012645459827205"><ele>553.0</ele><time>2026-05-01T08:44:46.001Z</time></trkpt><trkpt lat="42.15223186091238" lon="13.012728071993115"><ele>553.0</ele><time>2026-05-01T08:44:47.001Z</time></trkpt><trkpt lat="42.15210579261431" lon="13.012817944410674"><ele>553.0</ele><time>2026-05-01T08:44:48.001Z</time></trkpt><trkpt lat="42.1519976702654" lon="13.012906207432598"><ele>553.0</ele><time>2026-05-01T08:44:49.001Z</time></trkpt><trkpt lat="42.151898657055376" lon="13.013005906896241"><ele>553.0</ele><time>2026-05-01T08:44:50.001Z</time></trkpt><trkpt lat="42.151823465906695" lon="13.013125871364757"><ele>553.0</ele><time>2026-05-01T08:44:51.001Z</time></trkpt><trkpt lat="42.15175820949763" lon="13.013231161093294"><ele>553.0</ele><time>2026-05-01T08:44:52.001Z</time></trkpt><trkpt lat="42.151685966956286" lon="13.013345344249016"><ele>553.0</ele><time>2026-05-01T08:44:53.001Z</time></trkpt><trkpt lat="42.15161127611671" lon="13.013451703030666"><ele>553.0</ele><time>2026-05-01T08:44:54.001Z</time></trkpt><trkpt lat="42.15153179589808" lon="13.013552838766042"><ele>552.5</ele><time>2026-05-01T08:44:55.001Z</time></trkpt><trkpt lat="42.151443910467" lon="13.013654732366433"><ele>552.0</ele><time>2026-05-01T08:44:56.001Z</time></trkpt><trkpt lat="42.15135986279204" lon="13.01374639927766"><ele>551.5</ele><time>2026-05-01T08:44:57.001Z</time></trkpt><trkpt lat="42.15125606304318" lon="13.01380928749309"><ele>551.0</ele><time>2026-05-01T08:44:58.001Z</time></trkpt><trkpt lat="42.15115167555657" lon="13.013875588951702"><ele>551.0</ele><time>2026-05-01T08:44:59.001Z</time></trkpt><trkpt lat="42.151042563130595" lon="13.013942337927107"><ele>551.0</ele><time>2026-05-01T08:45:00.001Z</time></trkpt><trkpt lat="42.150937901297134" lon="13.014005888150171"><ele>551.0</ele><time>2026-05-01T08:45:01.001Z</time></trkpt><trkpt lat="42.15083470424198" lon="13.014082556967926"><ele>551.0</ele><time>2026-05-01T08:45:02.001Z</time></trkpt><trkpt lat="42.15072650533109" lon="13.014141176259367"><ele>552.8</ele><time>2026-05-01T08:45:03.001Z</time></trkpt><trkpt lat="42.15061972527036" lon="13.014190184094856"><ele>554.6</ele><time>2026-05-01T08:45:04.001Z</time></trkpt><trkpt lat="42.150515029139335" lon="13.014225658899338"><ele>556.4</ele><time>2026-05-01T08:45:05.001Z</time></trkpt><trkpt lat="42.15042073802119" lon="13.01425874660123"><ele>558.2</ele><time>2026-05-01T08:45:06.001Z</time></trkpt><trkpt lat="42.15032729025328" lon="13.0143014418653"><ele>560.0</ele><time>2026-05-01T08:45:07.001Z</time></trkpt><trkpt lat="42.15024361060016" lon="13.014359490681032"><ele>560.0</ele><time>2026-05-01T08:45:08.001Z</time></trkpt><trkpt lat="42.150160695762075" lon="13.014430881828483"><ele>560.0</ele><time>2026-05-01T08:45:09Z</time></trkpt><trkpt lat="42.150099425176855" lon="13.01452038751488"><ele>560.0</ele><time>2026-05-01T08:45:10Z</time></trkpt><trkpt lat="42.15003068040847" lon="13.014631161955254"><ele>560.0</ele><time>2026-05-01T08:45:11Z</time></trkpt><trkpt lat="42.14999107754946" lon="13.014769962547296"><ele>560.0</ele><time>2026-05-01T08:45:12Z</time></trkpt><trkpt lat="42.149961258819864" lon="13.014916384899706"><ele>562.0</ele><time>2026-05-01T08:45:13Z</time></trkpt><trkpt lat="42.14993849023575" lon="13.01507731873795"><ele>564.0</ele><time>2026-05-01T08:45:14Z</time></trkpt><trkpt lat="42.149901562747885" lon="13.015223340942912"><ele>566.0</ele><time>2026-05-01T08:45:15Z</time></trkpt><trkpt lat="42.149893053558664" lon="13.015374007059393"><ele>568.0</ele><time>2026-05-01T08:45:16Z</time></trkpt><trkpt lat="42.149878735960456" lon="13.01553019279144"><ele>565.4</ele><time>2026-05-01T08:45:17Z</time></trkpt><trkpt lat="42.149857470346404" lon="13.015687571323674"><ele>562.8</ele><time>2026-05-01T08:45:18Z</time></trkpt><trkpt lat="42.14984123072062" lon="13.015840572975254"><ele>560.2</ele><time>2026-05-01T08:45:19Z</time></trkpt><trkpt lat="42.14982327302577" lon="13.015988668610014"><ele>557.6</ele><time>2026-05-01T08:45:20Z</time></trkpt><trkpt lat="42.14980528158972" lon="13.016127167594073"><ele>555.0</ele><time>2026-05-01T08:45:21Z</time></trkpt><trkpt lat="42.14978775955936" lon="13.01626565101985"><ele>555.0</ele><time>2026-05-01T08:45:22Z</time></trkpt><trkpt lat="42.14976464019215" lon="13.016403315347747"><ele>555.0</ele><time>2026-05-01T08:45:23Z</time></trkpt><trkpt lat="42.14973919499827" lon="13.01654134302119"><ele>555.0</ele><time>2026-05-01T08:45:24Z</time></trkpt><trkpt lat="42.14971440079036" lon="13.016677168865943"><ele>555.0</ele><time>2026-05-01T08:45:25Z</time></trkpt><trkpt lat="42.149696803961945" lon="13.016812268328584"><ele>555.0</ele><time>2026-05-01T08:45:26Z</time></trkpt><trkpt lat="42.14969690792274" lon="13.016950718273705"><ele>555.0</ele><time>2026-05-01T08:45:27Z</time></trkpt><trkpt lat="42.149715512428926" lon="13.01708326160112"><ele>555.0</ele><time>2026-05-01T08:45:28Z</time></trkpt><trkpt lat="42.149735399062465" lon="13.017212129712963"><ele>555.0</ele><time>2026-05-01T08:45:29Z</time></trkpt><trkpt lat="42.14975910328412" lon="13.017332207638118"><ele>555.0</ele><time>2026-05-01T08:45:30Z</time></trkpt><trkpt lat="42.14977703208257" lon="13.017444143323287"><ele>555.0</ele><time>2026-05-01T08:45:31Z</time></trkpt><trkpt lat="42.1497792248898" lon="13.017545172301379"><ele>555.0</ele><time>2026-05-01T08:45:32Z</time></trkpt><trkpt lat="42.14977194636634" lon="13.017638429521744"><ele>555.0</ele><time>2026-05-01T08:45:33Z</time></trkpt><trkpt lat="42.14974599785876" lon="13.017731393548305"><ele>555.0</ele><time>2026-05-01T08:45:34Z</time></trkpt><trkpt lat="42.14970591573011" lon="13.017832426805297"><ele>555.0</ele><time>2026-05-01T08:45:35Z</time></trkpt><trkpt lat="42.149647046142164" lon="13.017926063437484"><ele>555.0</ele><time>2026-05-01T08:45:36Z</time></trkpt><trkpt lat="42.149586129349935" lon="13.01800955617975"><ele>555.0</ele><time>2026-05-01T08:45:37Z</time></trkpt><trkpt lat="42.14952455245115" lon="13.018097912331912"><ele>555.0</ele><time>2026-05-01T08:45:38Z</time></trkpt><trkpt lat="42.14945449516749" lon="13.018167193913735"><ele>555.0</ele><time>2026-05-01T08:45:39Z</time></trkpt><trkpt lat="42.14939124649843" lon="13.018245781371814"><ele>555.0</ele><time>2026-05-01T08:45:40Z</time></trkpt><trkpt lat="42.149318013980604" lon="13.01832273737938"><ele>555.0</ele><time>2026-05-01T08:45:41Z</time></trkpt><trkpt lat="42.14923563764655" lon="13.018376648168703"><ele>555.0</ele><time>2026-05-01T08:45:42Z</time></trkpt><trkpt lat="42.14914625955377" lon="13.018433776212147"><ele>557.6</ele><time>2026-05-01T08:45:43Z</time></trkpt><trkpt lat="42.14903934742639" lon="13.018445707866363"><ele>560.2</ele><time>2026-05-01T08:45:44Z</time></trkpt><trkpt lat="42.148930626656025" lon="13.01844032482016"><ele>562.8</ele><time>2026-05-01T08:45:45Z</time></trkpt><trkpt lat="42.1488222237036" lon="13.018413537710959"><ele>565.4</ele><time>2026-05-01T08:45:46Z</time></trkpt><trkpt lat="42.148729097272785" lon="13.01837210383821"><ele>568.0</ele><time>2026-05-01T08:45:47Z</time></trkpt><trkpt lat="42.148650793118165" lon="13.018318513868511"><ele>565.6</ele><time>2026-05-01T08:45:48Z</time></trkpt><trkpt lat="42.148568456260094" lon="13.018247572905077"><ele>563.1999999999999</ele><time>2026-05-01T08:45:49Z</time></trkpt><trkpt lat="42.14848023160791" lon="13.018157808834431"><ele>560.8</ele><time>2026-05-01T08:45:50Z</time></trkpt><trkpt lat="42.14839897380524" lon="13.018059372341627"><ele>558.4</ele><time>2026-05-01T08:45:51Z</time></trkpt><trkpt lat="42.148304077271966" lon="13.017950589424727"><ele>556.0</ele><time>2026-05-01T08:45:52Z</time></trkpt><trkpt lat="42.14821515007901" lon="13.017852104915521"><ele>557.75</ele><time>2026-05-01T08:45:53Z</time></trkpt><trkpt lat="42.14811953770061" lon="13.01776654962149"><ele>559.5</ele><time>2026-05-01T08:45:54Z</time></trkpt><trkpt lat="42.14801514587784" lon="13.017691787925752"><ele>561.25</ele><time>2026-05-01T08:45:55Z</time></trkpt><trkpt lat="42.14789890607026" lon="13.017631773030145"><ele>563.0</ele><time>2026-05-01T08:45:56Z</time></trkpt><trkpt lat="42.14777404310713" lon="13.01758811095507"><ele>563.0</ele><time>2026-05-01T08:45:57Z</time></trkpt><trkpt lat="42.14764688427836" lon="13.017570318952004"><ele>563.0</ele><time>2026-05-01T08:45:58Z</time></trkpt><trkpt lat="42.14751738305789" lon="13.017560889854698"><ele>563.0</ele><time>2026-05-01T08:45:59Z</time></trkpt><trkpt lat="42.14738544505827" lon="13.017556127004447"><ele>563.0</ele><time>2026-05-01T08:46:00Z</time></trkpt><trkpt lat="42.14727766258823" lon="13.017557677990967"><ele>563.6</ele><time>2026-05-01T08:46:01Z</time></trkpt><trkpt lat="42.14716708472072" lon="13.017545754815979"><ele>564.1999999999999</ele><time>2026-05-01T08:46:02Z</time></trkpt><trkpt lat="42.147056352789406" lon="13.017556267561037"><ele>564.8</ele><time>2026-05-01T08:46:03Z</time></trkpt><trkpt lat="42.14695171456392" lon="13.017591619500017"><ele>565.4</ele><time>2026-05-01T08:46:04Z</time></trkpt><trkpt lat="42.14684102818898" lon="13.017644996689691"><ele>566.0</ele><time>2026-05-01T08:46:05Z</time></trkpt><trkpt lat="42.14674182273205" lon="13.017733148802666"><ele>566.0</ele><time>2026-05-01T08:46:06Z</time></trkpt><trkpt lat="42.14665786680926" lon="13.017865270016246"><ele>566.0</ele><time>2026-05-01T08:46:07Z</time></trkpt><trkpt lat="42.146559107001394" lon="13.018009358947586"><ele>566.0</ele><time>2026-05-01T08:46:08Z</time></trkpt><trkpt lat="42.146485716217846" lon="13.018215462220478"><ele>566.0</ele><time>2026-05-01T08:46:09Z</time></trkpt><trkpt lat="42.14637573979084" lon="13.018398335083445"><ele>569.0</ele><time>2026-05-01T08:46:10Z</time></trkpt><trkpt lat="42.14624482806567" lon="13.018566062799696"><ele>572.0</ele><time>2026-05-01T08:46:11Z</time></trkpt><trkpt lat="42.146108992021574" lon="13.018727726134832"><ele>575.0</ele><time>2026-05-01T08:46:12Z</time></trkpt><trkpt lat="42.14597065648521" lon="13.018898391164166"><ele>575.0</ele><time>2026-05-01T08:46:13Z</time></trkpt><trkpt lat="42.14583625630456" lon="13.019084947462696"><ele>575.0</ele><time>2026-05-01T08:46:14Z</time></trkpt><trkpt lat="42.145695179811185" lon="13.01928274051367"><ele>575.0</ele><time>2026-05-01T08:46:15Z</time></trkpt><trkpt lat="42.145556229444146" lon="13.019476155559843"><ele>576.3333333333333</ele><time>2026-05-01T08:46:16Z</time></trkpt><trkpt lat="42.145412573990775" lon="13.019667490958318"><ele>577.6666666666666</ele><time>2026-05-01T08:46:17Z</time></trkpt><trkpt lat="42.1452696383803" lon="13.019854607376462"><ele>579.0</ele><time>2026-05-01T08:46:18Z</time></trkpt><trkpt lat="42.14513217084594" lon="13.020041189621809"><ele>579.0</ele><time>2026-05-01T08:46:19Z</time></trkpt><trkpt lat="42.14499373525768" lon="13.020220554909574"><ele>579.0</ele><time>2026-05-01T08:46:20Z</time></trkpt><trkpt lat="42.14484664939834" lon="13.020390653726052"><ele>579.0</ele><time>2026-05-01T08:46:21Z</time></trkpt><trkpt lat="42.14469482211638" lon="13.020556499362986"><ele>579.3333333333334</ele><time>2026-05-01T08:46:22Z</time></trkpt><trkpt lat="42.144537704858905" lon="13.020719150806594"><ele>579.6666666666667</ele><time>2026-05-01T08:46:23Z</time></trkpt><trkpt lat="42.14437218308278" lon="13.020876833052961"><ele>580.0</ele><time>2026-05-01T08:46:24Z</time></trkpt><trkpt lat="42.144209215833584" lon="13.021030737290838"><ele>581.0</ele><time>2026-05-01T08:46:25.002Z</time></trkpt><trkpt lat="42.144046045294104" lon="13.021193288958449"><ele>582.0</ele><time>2026-05-01T08:46:26.002Z</time></trkpt><trkpt lat="42.14387846847124" lon="13.021354164846999"><ele>583.0</ele><time>2026-05-01T08:46:27.002Z</time></trkpt><trkpt lat="42.14371161039134" lon="13.021515374060789"><ele>583.0</ele><time>2026-05-01T08:46:28.002Z</time></trkpt><trkpt lat="42.1435430148369" lon="13.02167934624571"><ele>583.0</ele><time>2026-05-01T08:46:29.002Z</time></trkpt><trkpt lat="42.14337346371905" lon="13.021844563658759"><ele>583.0</ele><time>2026-05-01T08:46:30.001Z</time></trkpt><trkpt lat="42.143203242083494" lon="13.022004224703815"><ele>582.3333333333334</ele><time>2026-05-01T08:46:31.001Z</time></trkpt><trkpt lat="42.143032028359514" lon="13.022161560967389"><ele>581.6666666666666</ele><time>2026-05-01T08:46:32.001Z</time></trkpt><trkpt lat="42.14286360900044" lon="13.022316799739396"><ele>581.0</ele><time>2026-05-01T08:46:33.001Z</time></trkpt><trkpt lat="42.142703609142934" lon="13.022477319711673"><ele>582.6666666666666</ele><time>2026-05-01T08:46:34.001Z</time></trkpt><trkpt lat="42.142554445668345" lon="13.022645865938452"><ele>584.3333333333334</ele><time>2026-05-01T08:46:35.001Z</time></trkpt><trkpt lat="42.14242445275171" lon="13.022828312961517"><ele>586.0</ele><time>2026-05-01T08:46:36.001Z</time></trkpt><trkpt lat="42.142319512444224" lon="13.023027887879685"><ele>582.3333333333334</ele><time>2026-05-01T08:46:37.001Z</time></trkpt><trkpt lat="42.142228931596186" lon="13.023233195444154"><ele>578.6666666666666</ele><time>2026-05-01T08:46:38.001Z</time></trkpt><trkpt lat="42.142136142208294" lon="13.023438405358883"><ele>575.0</ele><time>2026-05-01T08:46:39.001Z</time></trkpt><trkpt lat="42.142034037175186" lon="13.023632538057784"><ele>575.0</ele><time>2026-05-01T08:46:40.001Z</time></trkpt><trkpt lat="42.14191728950883" lon="13.023795852139449"><ele>575.0</ele><time>2026-05-01T08:46:41.001Z</time></trkpt><trkpt lat="42.14178245882898" lon="13.023929334206445"><ele>575.0</ele><time>2026-05-01T08:46:42.001Z</time></trkpt><trkpt lat="42.141631434117635" lon="13.024039146184695"><ele>574.6666666666666</ele><time>2026-05-01T08:46:43.001Z</time></trkpt><trkpt lat="42.14147514399059" lon="13.024153495936615"><ele>574.3333333333334</ele><time>2026-05-01T08:46:44.001Z</time></trkpt><trkpt lat="42.141330131612385" lon="13.024277001339977"><ele>574.0</ele><time>2026-05-01T08:46:45.001Z</time></trkpt><trkpt lat="42.141173491514124" lon="13.024363701766566"><ele>574.0</ele><time>2026-05-01T08:46:46.001Z</time></trkpt><trkpt lat="42.141021677196754" lon="13.02447196096948"><ele>574.0</ele><time>2026-05-01T08:46:47.001Z</time></trkpt><trkpt lat="42.140874653681664" lon="13.02460215968359"><ele>574.0</ele><time>2026-05-01T08:46:48.001Z</time></trkpt><trkpt lat="42.14072193302614" lon="13.024712465120809"><ele>573.6666666666667</ele><time>2026-05-01T08:46:49.001Z</time></trkpt><trkpt lat="42.14057016726898" lon="13.024821076058922"><ele>573.3333333333334</ele><time>2026-05-01T08:46:50.001Z</time></trkpt><trkpt lat="42.14041873944501" lon="13.024934099030718"><ele>573.0</ele><time>2026-05-01T08:46:51.001Z</time></trkpt><trkpt lat="42.140256970821824" lon="13.025043161343694"><ele>573.0</ele><time>2026-05-01T08:46:52.001Z</time></trkpt><trkpt lat="42.14010666833251" lon="13.02515741552898"><ele>573.0</ele><time>2026-05-01T08:46:53.001Z</time></trkpt><trkpt lat="42.13995678783137" lon="13.025286513846291"><ele>573.0</ele><time>2026-05-01T08:46:54.001Z</time></trkpt><trkpt lat="42.13979915119031" lon="13.025426873671321"><ele>572.6666666666666</ele><time>2026-05-01T08:46:55.001Z</time></trkpt><trkpt lat="42.13964813175013" lon="13.025564121412692"><ele>572.3333333333333</ele><time>2026-05-01T08:46:56.001Z</time></trkpt><trkpt lat="42.13949531708162" lon="13.025707758316667"><ele>572.0</ele><time>2026-05-01T08:46:57.001Z</time></trkpt><trkpt lat="42.13935621568863" lon="13.0258530205184"><ele>572.0</ele><time>2026-05-01T08:46:58.001Z</time></trkpt><trkpt lat="42.13920438490797" lon="13.025996036875966"><ele>572.0</ele><time>2026-05-01T08:46:59.001Z</time></trkpt><trkpt lat="42.139051884852236" lon="13.026144961704388"><ele>572.0</ele><time>2026-05-01T08:47:00.001Z</time></trkpt><trkpt lat="42.13890045682896" lon="13.026289300366203"><ele>570.6666666666666</ele><time>2026-05-01T08:47:01.001Z</time></trkpt><trkpt lat="42.13875318142252" lon="13.026432728019296"><ele>569.3333333333334</ele><time>2026-05-01T08:47:02.001Z</time></trkpt><trkpt lat="42.13860540772527" lon="13.026564014921561"><ele>568.0</ele><time>2026-05-01T08:47:03.001Z</time></trkpt><trkpt lat="42.13844612751439" lon="13.026676887876846"><ele>568.0</ele><time>2026-05-01T08:47:04.001Z</time></trkpt><trkpt lat="42.138282096439795" lon="13.026760914479864"><ele>568.0</ele><time>2026-05-01T08:47:05.001Z</time></trkpt><trkpt lat="42.1381138741766" lon="13.026819289570355"><ele>568.0</ele><time>2026-05-01T08:47:06.001Z</time></trkpt><trkpt lat="42.137937232255986" lon="13.026810186294673"><ele>567.0</ele><time>2026-05-01T08:47:07Z</time></trkpt><trkpt lat="42.13775732515618" lon="13.02680791430454"><ele>566.0</ele><time>2026-05-01T08:47:08Z</time></trkpt><trkpt lat="42.13756864941315" lon="13.026806417497642"><ele>565.0</ele><time>2026-05-01T08:47:09Z</time></trkpt><trkpt lat="42.13738746310436" lon="13.026826251123312"><ele>564.6666666666667</ele><time>2026-05-01T08:47:10Z</time></trkpt><trkpt lat="42.13719676684088" lon="13.026803459848155"><ele>564.3333333333334</ele><time>2026-05-01T08:47:11Z</time></trkpt><trkpt lat="42.1370062898873" lon="13.026802992898334"><ele>564.0</ele><time>2026-05-01T08:47:12Z</time></trkpt><trkpt lat="42.13681499472488" lon="13.026803820739168"><ele>564.0</ele><time>2026-05-01T08:47:13Z</time></trkpt><trkpt lat="42.13662102408711" lon="13.026808258561784"><ele>564.0</ele><time>2026-05-01T08:47:14Z</time></trkpt><trkpt lat="42.136423706173176" lon="13.02681161959988"><ele>564.0</ele><time>2026-05-01T08:47:15Z</time></trkpt><trkpt lat="42.13622360757023" lon="13.026832623567465"><ele>563.0</ele><time>2026-05-01T08:47:16Z</time></trkpt><trkpt lat="42.136023742816825" lon="13.026831631058453"><ele>562.0</ele><time>2026-05-01T08:47:17Z</time></trkpt><trkpt lat="42.135817912394884" lon="13.026832687557487"><ele>561.0</ele><time>2026-05-01T08:47:18Z</time></trkpt><trkpt lat="42.13560965621284" lon="13.02681382866019"><ele>561.0</ele><time>2026-05-01T08:47:19Z</time></trkpt><trkpt lat="42.13540173316183" lon="13.026814305655224"><ele>561.0</ele><time>2026-05-01T08:47:20Z</time></trkpt><trkpt lat="42.1351918921414" lon="13.026814787051286"><ele>561.0</ele><time>2026-05-01T08:47:21Z</time></trkpt><trkpt lat="42.13498518243245" lon="13.02681526126404"><ele>561.3333333333334</ele><time>2026-05-01T08:47:22Z</time></trkpt><trkpt lat="42.134781158703525" lon="13.02681573102862"><ele>561.6666666666667</ele><time>2026-05-01T08:47:23Z</time></trkpt><trkpt lat="42.134573153015666" lon="13.026815777805012"><ele>562.0</ele><time>2026-05-01T08:47:24Z</time></trkpt><trkpt lat="42.13436710160216" lon="13.026815137082796"><ele>562.0</ele><time>2026-05-01T08:47:25Z</time></trkpt><trkpt lat="42.134157827925605" lon="13.026814486339383"><ele>562.0</ele><time>2026-05-01T08:47:26Z</time></trkpt><trkpt lat="42.133950174989124" lon="13.026832985029348"><ele>562.0</ele><time>2026-05-01T08:47:27Z</time></trkpt><trkpt lat="42.13374242744364" lon="13.026830766244178"><ele>561.6666666666667</ele><time>2026-05-01T08:47:28Z</time></trkpt><trkpt lat="42.13353606179962" lon="13.026832248271786"><ele>561.3333333333334</ele><time>2026-05-01T08:47:29Z</time></trkpt><trkpt lat="42.13333592832493" lon="13.026838001056968"><ele>561.0</ele><time>2026-05-01T08:47:30Z</time></trkpt><trkpt lat="42.13313697478191" lon="13.026835882631637"><ele>561.0</ele><time>2026-05-01T08:47:31Z</time></trkpt><trkpt lat="42.13294617554388" lon="13.026919095438624"><ele>561.0</ele><time>2026-05-01T08:47:32Z</time></trkpt><trkpt lat="42.132769694094755" lon="13.027022809648503"><ele>561.0</ele><time>2026-05-01T08:47:33Z</time></trkpt><trkpt lat="42.13259105812804" lon="13.027130691402355"><ele>561.0</ele><time>2026-05-01T08:47:34Z</time></trkpt><trkpt lat="42.13241141234773" lon="13.027256727705074"><ele>561.0</ele><time>2026-05-01T08:47:35Z</time></trkpt><trkpt lat="42.13222545618867" lon="13.027364669584284"><ele>561.0</ele><time>2026-05-01T08:47:36Z</time></trkpt><trkpt lat="42.132036726287666" lon="13.027473814138286"><ele>561.3333333333334</ele><time>2026-05-01T08:47:37Z</time></trkpt><trkpt lat="42.131847672126185" lon="13.027586233877336"><ele>561.6666666666667</ele><time>2026-05-01T08:47:38Z</time></trkpt><trkpt lat="42.13165573367196" lon="13.027698881144728"><ele>562.0</ele><time>2026-05-01T08:47:39Z</time></trkpt><trkpt lat="42.131462672310846" lon="13.027810407905854"><ele>560.6666666666667</ele><time>2026-05-01T08:47:40Z</time></trkpt><trkpt lat="42.13126733587341" lon="13.027924166729052"><ele>559.3333333333334</ele><time>2026-05-01T08:47:41Z</time></trkpt><trkpt lat="42.13107399599126" lon="13.028031647874093"><ele>558.0</ele><time>2026-05-01T08:47:42Z</time></trkpt><trkpt lat="42.13088170509352" lon="13.028145600913088"><ele>557.3333333333334</ele><time>2026-05-01T08:47:43Z</time></trkpt><trkpt lat="42.130706036618314" lon="13.028279409799818"><ele>556.6666666666667</ele><time>2026-05-01T08:47:44Z</time></trkpt><trkpt lat="42.13052657941767" lon="13.028420866775717"><ele>556.0</ele><time>2026-05-01T08:47:45Z</time></trkpt><trkpt lat="42.13035570627593" lon="13.028577574076765"><ele>555.6666666666667</ele><time>2026-05-01T08:47:46Z</time></trkpt><trkpt lat="42.13017691538995" lon="13.028748084145171"><ele>555.3333333333334</ele><time>2026-05-01T08:47:47Z</time></trkpt><trkpt lat="42.13002005544214" lon="13.028937885478774"><ele>555.0</ele><time>2026-05-01T08:47:48Z</time></trkpt><trkpt lat="42.1298643495647" lon="13.02914375722369"><ele>555.6666666666666</ele><time>2026-05-01T08:47:49Z</time></trkpt><trkpt lat="42.12972934797472" lon="13.02934562426148"><ele>556.3333333333333</ele><time>2026-05-01T08:47:50Z</time></trkpt><trkpt lat="42.12959956321359" lon="13.029542038362536"><ele>557.0</ele><time>2026-05-01T08:47:51Z</time></trkpt><trkpt lat="42.12949771707859" lon="13.029742781213947"><ele>557.0</ele><time>2026-05-01T08:47:52Z</time></trkpt><trkpt lat="42.12941537974431" lon="13.029950574192904"><ele>557.0</ele><time>2026-05-01T08:47:53Z</time></trkpt><trkpt lat="42.12936097557832" lon="13.03017736936998"><ele>557.0</ele><time>2026-05-01T08:47:54Z</time></trkpt><trkpt lat="42.12932134709992" lon="13.030406114319215"><ele>557.3333333333333</ele><time>2026-05-01T08:47:55Z</time></trkpt><trkpt lat="42.129259003360694" lon="13.030634517065948"><ele>557.6666666666666</ele><time>2026-05-01T08:47:56Z</time></trkpt><trkpt lat="42.1291662796005" lon="13.03083713722871"><ele>558.0</ele><time>2026-05-01T08:47:57Z</time></trkpt><trkpt lat="42.129050810366216" lon="13.031027937128226"><ele>558.0</ele><time>2026-05-01T08:47:58Z</time></trkpt><trkpt lat="42.12892298923802" lon="13.03120135759006"><ele>558.0</ele><time>2026-05-01T08:47:59Z</time></trkpt><trkpt lat="42.128798702875834" lon="13.03138003596341"><ele>558.0</ele><time>2026-05-01T08:48:00Z</time></trkpt><trkpt lat="42.128657454452544" lon="13.031555525571447"><ele>559.0</ele><time>2026-05-01T08:48:01Z</time></trkpt><trkpt lat="42.12852300654164" lon="13.031738578702953"><ele>560.0</ele><time>2026-05-01T08:48:02Z</time></trkpt><trkpt lat="42.128381659839484" lon="13.031911493012842"><ele>561.0</ele><time>2026-05-01T08:48:03Z</time></trkpt><trkpt lat="42.12823495388566" lon="13.032080850876772"><ele>560.6666666666666</ele><time>2026-05-01T08:48:04Z</time></trkpt><trkpt lat="42.128090266392576" lon="13.032259394189376"><ele>560.3333333333333</ele><time>2026-05-01T08:48:05Z</time></trkpt><trkpt lat="42.12794772082015" lon="13.032436023686047"><ele>560.0</ele><time>2026-05-01T08:48:06Z</time></trkpt><trkpt lat="42.127801638365966" lon="13.032607349524367"><ele>560.0</ele><time>2026-05-01T08:48:07Z</time></trkpt><trkpt lat="42.12765518228649" lon="13.03277775874892"><ele>560.0</ele><time>2026-05-01T08:48:08Z</time></trkpt><trkpt lat="42.127511844572346" lon="13.03294686872723"><ele>560.0</ele><time>2026-05-01T08:48:09Z</time></trkpt><trkpt lat="42.12736293303742" lon="13.033117993902902"><ele>559.6666666666666</ele><time>2026-05-01T08:48:09.999Z</time></trkpt><trkpt lat="42.12720936281331" lon="13.033260654160854"><ele>559.3333333333334</ele><time>2026-05-01T08:48:10.999Z</time></trkpt><trkpt lat="42.12704565921141" lon="13.033371392672368"><ele>559.0</ele><time>2026-05-01T08:48:11.999Z</time></trkpt><trkpt lat="42.126872825585764" lon="13.033413365974438"><ele>559.3333333333334</ele><time>2026-05-01T08:48:12.999Z</time></trkpt><trkpt lat="42.12671509767375" lon="13.03341699736661"><ele>559.6666666666666</ele><time>2026-05-01T08:48:13.999Z</time></trkpt><trkpt lat="42.12653893139433" lon="13.03340399944539"><ele>560.0</ele><time>2026-05-01T08:48:14.999Z</time></trkpt><trkpt lat="42.126353693638876" lon="13.033373489751492"><ele>560.0</ele><time>2026-05-01T08:48:15.999Z</time></trkpt><trkpt lat="42.126141689155" lon="13.033334394340436"><ele>560.0</ele><time>2026-05-01T08:48:16.999Z</time></trkpt><trkpt lat="42.12595161385312" lon="13.033296835831125"><ele>560.0</ele><time>2026-05-01T08:48:17.999Z</time></trkpt><trkpt lat="42.12576543022128" lon="13.033260046352671"><ele>561.0</ele><time>2026-05-01T08:48:18.999Z</time></trkpt><trkpt lat="42.1255769045425" lon="13.033222794061947"><ele>562.0</ele><time>2026-05-01T08:48:19.999Z</time></trkpt><trkpt lat="42.125376966688954" lon="13.033184245428153"><ele>563.0</ele><time>2026-05-01T08:48:20.999Z</time></trkpt><trkpt lat="42.12518313559106" lon="13.033147470364302"><ele>563.0</ele><time>2026-05-01T08:48:21.999Z</time></trkpt><trkpt lat="42.12498718763814" lon="13.033110293652378"><ele>563.0</ele><time>2026-05-01T08:48:22.999Z</time></trkpt><trkpt lat="42.12478776204094" lon="13.03307245886766"><ele>563.0</ele><time>2026-05-01T08:48:23.999Z</time></trkpt><trkpt lat="42.12458891227974" lon="13.033055800783085"><ele>562.6666666666666</ele><time>2026-05-01T08:48:24.999Z</time></trkpt><trkpt lat="42.1243876564021" lon="13.03301408961693"><ele>562.3333333333334</ele><time>2026-05-01T08:48:25.999Z</time></trkpt><trkpt lat="42.124187561742254" lon="13.032972185225097"><ele>562.0</ele><time>2026-05-01T08:48:26.999Z</time></trkpt><trkpt lat="42.12398942445094" lon="13.032926415053593"><ele>561.3333333333334</ele><time>2026-05-01T08:48:27.999Z</time></trkpt><trkpt lat="42.12379379560888" lon="13.032892251696632"><ele>560.6666666666666</ele><time>2026-05-01T08:48:28.999Z</time></trkpt><trkpt lat="42.12360161738018" lon="13.032858711971066"><ele>560.0</ele><time>2026-05-01T08:48:29.999Z</time></trkpt><trkpt lat="42.12340800826106" lon="13.032824740404156"><ele>560.0</ele><time>2026-05-01T08:48:31.001Z</time></trkpt><trkpt lat="42.12321633433792" lon="13.032795468682403"><ele>560.0</ele><time>2026-05-01T08:48:32.001Z</time></trkpt><trkpt lat="42.12302356407671" lon="13.032738677281506"><ele>560.0</ele><time>2026-05-01T08:48:33.001Z</time></trkpt><trkpt lat="42.1228360059034" lon="13.0327200208668"><ele>560.0</ele><time>2026-05-01T08:48:34.001Z</time></trkpt><trkpt lat="42.122652142206725" lon="13.032647941164711"><ele>560.0</ele><time>2026-05-01T08:48:35.001Z</time></trkpt><trkpt lat="42.12247202888198" lon="13.032553904030383"><ele>560.0</ele><time>2026-05-01T08:48:36.001Z</time></trkpt><trkpt lat="42.122306587420326" lon="13.03243425297578"><ele>560.0</ele><time>2026-05-01T08:48:37.001Z</time></trkpt><trkpt lat="42.12214838105458" lon="13.032294915925824"><ele>560.0</ele><time>2026-05-01T08:48:38.001Z</time></trkpt><trkpt lat="42.121974192561055" lon="13.032185158019447"><ele>560.0</ele><time>2026-05-01T08:48:39.001Z</time></trkpt><trkpt lat="42.12180551353613" lon="13.032064648226047"><ele>560.0</ele><time>2026-05-01T08:48:40.001Z</time></trkpt><trkpt lat="42.12163293169003" lon="13.031950104467601"><ele>560.0</ele><time>2026-05-01T08:48:41.001Z</time></trkpt><trkpt lat="42.121461167466855" lon="13.031830485315464"><ele>560.0</ele><time>2026-05-01T08:48:42.001Z</time></trkpt><trkpt lat="42.12129225126381" lon="13.0317082916954"><ele>561.0</ele><time>2026-05-01T08:48:43.001Z</time></trkpt><trkpt lat="42.12112900440414" lon="13.031587554311216"><ele>562.0</ele><time>2026-05-01T08:48:44.001Z</time></trkpt><trkpt lat="42.12096690425097" lon="13.03147020544531"><ele>563.0</ele><time>2026-05-01T08:48:45.001Z</time></trkpt><trkpt lat="42.120807131658395" lon="13.031356787493596"><ele>563.0</ele><time>2026-05-01T08:48:46.001Z</time></trkpt><trkpt lat="42.12064932857763" lon="13.031248333864829"><ele>563.0</ele><time>2026-05-01T08:48:47.001Z</time></trkpt><trkpt lat="42.120504863079326" lon="13.031143683523805"><ele>563.0</ele><time>2026-05-01T08:48:48.001Z</time></trkpt><trkpt lat="42.12039231562931" lon="13.031029043450367"><ele>563.0</ele><time>2026-05-01T08:48:49.001Z</time></trkpt><trkpt lat="42.120309801536486" lon="13.03089470052063"><ele>563.0</ele><time>2026-05-01T08:48:50.001Z</time></trkpt><trkpt lat="42.12024356822723" lon="13.030755120114693"><ele>563.0</ele><time>2026-05-01T08:48:51.001Z</time></trkpt><trkpt lat="42.120193071699504" lon="13.0306105106857"><ele>563.0</ele><time>2026-05-01T08:48:52.001Z</time></trkpt><trkpt lat="42.12013857646709" lon="13.030453620758"><ele>563.25</ele><time>2026-05-01T08:48:53.001Z</time></trkpt><trkpt lat="42.12008212153249" lon="13.030295581467612"><ele>563.5</ele><time>2026-05-01T08:48:54.001Z</time></trkpt><trkpt lat="42.120019035937354" lon="13.030130145670189"><ele>563.75</ele><time>2026-05-01T08:48:55.001Z</time></trkpt><trkpt lat="42.11995176467354" lon="13.029955542128262"><ele>564.0</ele><time>2026-05-01T08:48:56.001Z</time></trkpt><trkpt lat="42.11987174702818" lon="13.029775235044557"><ele>563.3333333333334</ele><time>2026-05-01T08:48:57.001Z</time></trkpt><trkpt lat="42.11978112669904" lon="13.029603917869572"><ele>562.6666666666667</ele><time>2026-05-01T08:48:58.001Z</time></trkpt><trkpt lat="42.11966774862182" lon="13.029460920031884"><ele>562.0</ele><time>2026-05-01T08:48:59.001Z</time></trkpt><trkpt lat="42.11954732037601" lon="13.029335609018247"><ele>562.0</ele><time>2026-05-01T08:49:00.001Z</time></trkpt><trkpt lat="42.11941416826325" lon="13.029224523361874"><ele>562.0</ele><time>2026-05-01T08:49:01.001Z</time></trkpt><trkpt lat="42.11927288720926" lon="13.029133809392853"><ele>562.0</ele><time>2026-05-01T08:49:02Z</time></trkpt><trkpt lat="42.11912956280998" lon="13.029059890935109"><ele>563.3333333333334</ele><time>2026-05-01T08:49:03Z</time></trkpt><trkpt lat="42.118978835155175" lon="13.02901548617744"><ele>564.6666666666666</ele><time>2026-05-01T08:49:04Z</time></trkpt><trkpt lat="42.11882240950738" lon="13.029012423727252"><ele>566.0</ele><time>2026-05-01T08:49:05Z</time></trkpt><trkpt lat="42.11866557060376" lon="13.029026140604037"><ele>566.0</ele><time>2026-05-01T08:49:06Z</time></trkpt><trkpt lat="42.118512342556826" lon="13.029035145853367"><ele>566.0</ele><time>2026-05-01T08:49:07Z</time></trkpt><trkpt lat="42.118357387089056" lon="13.029051792958125"><ele>566.0</ele><time>2026-05-01T08:49:08Z</time></trkpt><trkpt lat="42.11820070814153" lon="13.02907293031553"><ele>566.6666666666666</ele><time>2026-05-01T08:49:09Z</time></trkpt><trkpt lat="42.11804364408667" lon="13.029086896384147"><ele>567.3333333333334</ele><time>2026-05-01T08:49:10Z</time></trkpt><trkpt lat="42.11788465101014" lon="13.029097222122155"><ele>568.0</ele><time>2026-05-01T08:49:11Z</time></trkpt><trkpt lat="42.11772220353557" lon="13.02911074914678"><ele>568.0</ele><time>2026-05-01T08:49:12Z</time></trkpt><trkpt lat="42.11756212203126" lon="13.029127778960268"><ele>568.0</ele><time>2026-05-01T08:49:13Z</time></trkpt><trkpt lat="42.11739954875975" lon="13.029142627618588"><ele>568.0</ele><time>2026-05-01T08:49:14Z</time></trkpt><trkpt lat="42.11723276680831" lon="13.029157112162029"><ele>567.0</ele><time>2026-05-01T08:49:15Z</time></trkpt><trkpt lat="42.11706256548823" lon="13.029172119717433"><ele>566.0</ele><time>2026-05-01T08:49:16Z</time></trkpt><trkpt lat="42.1168893530676" lon="13.029182506225403"><ele>565.0</ele><time>2026-05-01T08:49:17Z</time></trkpt><trkpt lat="42.11671608690576" lon="13.029197111192245"><ele>565.0</ele><time>2026-05-01T08:49:18Z</time></trkpt><trkpt lat="42.11654073290769" lon="13.029214068831692"><ele>565.0</ele><time>2026-05-01T08:49:19Z</time></trkpt><trkpt lat="42.11636644494758" lon="13.02923363639058"><ele>565.0</ele><time>2026-05-01T08:49:20Z</time></trkpt><trkpt lat="42.11618758595104" lon="13.02925071894879"><ele>565.0</ele><time>2026-05-01T08:49:21Z</time></trkpt><trkpt lat="42.1160065693141" lon="13.029269601892342"><ele>565.0</ele><time>2026-05-01T08:49:22Z</time></trkpt><trkpt lat="42.11582522207821" lon="13.029287581268239"><ele>565.0</ele><time>2026-05-01T08:49:23Z</time></trkpt><trkpt lat="42.115642359885825" lon="13.029310813530074"><ele>565.3333333333334</ele><time>2026-05-01T08:49:24Z</time></trkpt><trkpt lat="42.1154571591163" lon="13.029329176667463"><ele>565.6666666666666</ele><time>2026-05-01T08:49:25Z</time></trkpt><trkpt lat="42.11527380415337" lon="13.029344029100479"><ele>566.0</ele><time>2026-05-01T08:49:26Z</time></trkpt><trkpt lat="42.115089118490204" lon="13.029362570885771"><ele>566.3333333333333</ele><time>2026-05-01T08:49:27Z</time></trkpt><trkpt lat="42.11490238742268" lon="13.029379080457357"><ele>566.6666666666666</ele><time>2026-05-01T08:49:28Z</time></trkpt><trkpt lat="42.114714448839024" lon="13.029393354582128"><ele>567.0</ele><time>2026-05-01T08:49:29Z</time></trkpt><trkpt lat="42.11452144941007" lon="13.029409001648135"><ele>567.0</ele><time>2026-05-01T08:49:30Z</time></trkpt><trkpt lat="42.114327449940134" lon="13.029427689463184"><ele>567.0</ele><time>2026-05-01T08:49:31Z</time></trkpt><trkpt lat="42.11412998095455" lon="13.029445172897848"><ele>567.0</ele><time>2026-05-01T08:49:32Z</time></trkpt><trkpt lat="42.113930158457414" lon="13.029463833569181"><ele>566.3333333333334</ele><time>2026-05-01T08:49:33Z</time></trkpt><trkpt lat="42.11373035545175" lon="13.029480374189694"><ele>565.6666666666667</ele><time>2026-05-01T08:49:34Z</time></trkpt><trkpt lat="42.1135253763652" lon="13.029490867584808"><ele>565.0</ele><time>2026-05-01T08:49:35Z</time></trkpt><trkpt lat="42.11332474284294" lon="13.029514150975212"><ele>565.6666666666667</ele><time>2026-05-01T08:49:36Z</time></trkpt><trkpt lat="42.113118189731686" lon="13.029529181489474"><ele>566.3333333333334</ele><time>2026-05-01T08:49:37Z</time></trkpt><trkpt lat="42.11290918032273" lon="13.029543123417984"><ele>567.0</ele><time>2026-05-01T08:49:38Z</time></trkpt><trkpt lat="42.112701503069154" lon="13.029555387526193"><ele>567.0</ele><time>2026-05-01T08:49:39Z</time></trkpt><trkpt lat="42.11249416848037" lon="13.029571490242267"><ele>567.0</ele><time>2026-05-01T08:49:40Z</time></trkpt><trkpt lat="42.11228732587146" lon="13.029589792774187"><ele>567.0</ele><time>2026-05-01T08:49:41Z</time></trkpt><trkpt lat="42.11208524700565" lon="13.029605511997147"><ele>568.3333333333334</ele><time>2026-05-01T08:49:42Z</time></trkpt><trkpt lat="42.11188776461046" lon="13.029623128664813"><ele>569.6666666666667</ele><time>2026-05-01T08:49:43Z</time></trkpt><trkpt lat="42.11169498909429" lon="13.029654507788665"><ele>571.0</ele><time>2026-05-01T08:49:44Z</time></trkpt><trkpt lat="42.11150313014438" lon="13.029716252167365"><ele>572.0</ele><time>2026-05-01T08:49:45Z</time></trkpt><trkpt lat="42.11132674020586" lon="13.029811760777395"><ele>573.0</ele><time>2026-05-01T08:49:46Z</time></trkpt><trkpt lat="42.11116214423478" lon="13.029936167094789"><ele>574.0</ele><time>2026-05-01T08:49:47Z</time></trkpt><trkpt lat="42.11100758553191" lon="13.030112538942852"><ele>571.3333333333334</ele><time>2026-05-01T08:49:48Z</time></trkpt><trkpt lat="42.11086731843268" lon="13.030309378700357"><ele>568.6666666666666</ele><time>2026-05-01T08:49:49Z</time></trkpt><trkpt lat="42.11075111135015" lon="13.03052936848121"><ele>566.0</ele><time>2026-05-01T08:49:50Z</time></trkpt><trkpt lat="42.11065766432081" lon="13.03076794147409"><ele>565.6666666666666</ele><time>2026-05-01T08:49:51Z</time></trkpt><trkpt lat="42.11058234931217" lon="13.031010116399548"><ele>565.3333333333334</ele><time>2026-05-01T08:49:52Z</time></trkpt><trkpt lat="42.11051581650579" lon="13.031244967076525"><ele>565.0</ele><time>2026-05-01T08:49:53Z</time></trkpt><trkpt lat="42.110440893973525" lon="13.03146897225049"><ele>564.6666666666667</ele><time>2026-05-01T08:49:54Z</time></trkpt><trkpt lat="42.11035318183023" lon="13.031682431197208"><ele>564.3333333333334</ele><time>2026-05-01T08:49:54.999Z</time></trkpt><trkpt lat="42.11027700111985" lon="13.031906713432292"><ele>564.0</ele><time>2026-05-01T08:49:55.999Z</time></trkpt><trkpt lat="42.11020051518132" lon="13.032128620877979"><ele>564.0</ele><time>2026-05-01T08:49:56.999Z</time></trkpt><trkpt lat="42.110134880660496" lon="13.032363334721307"><ele>564.0</ele><time>2026-05-01T08:49:57.999Z</time></trkpt><trkpt lat="42.110031377073476" lon="13.032574629993206"><ele>564.0</ele><time>2026-05-01T08:49:58.999Z</time></trkpt><trkpt lat="42.10988951886185" lon="13.032732071154912"><ele>564.6666666666666</ele><time>2026-05-01T08:49:59.999Z</time></trkpt><trkpt lat="42.10972819444848" lon="13.032878194839586"><ele>565.3333333333333</ele><time>2026-05-01T08:50:00.999Z</time></trkpt><trkpt lat="42.109563367316476" lon="13.03302711447062"><ele>566.0</ele><time>2026-05-01T08:50:01.999Z</time></trkpt><trkpt lat="42.10938652901412" lon="13.033148701949687"><ele>566.0</ele><time>2026-05-01T08:50:02.999Z</time></trkpt><trkpt lat="42.10920725143863" lon="13.033279902834598"><ele>566.0</ele><time>2026-05-01T08:50:03.999Z</time></trkpt><trkpt lat="42.109026420186915" lon="13.033412615787011"><ele>566.0</ele><time>2026-05-01T08:50:04.999Z</time></trkpt><trkpt lat="42.10884188543835" lon="13.033547207366682"><ele>566.3333333333333</ele><time>2026-05-01T08:50:05.999Z</time></trkpt><trkpt lat="42.10866070302761" lon="13.033684969888334"><ele>566.6666666666666</ele><time>2026-05-01T08:50:06.999Z</time></trkpt><trkpt lat="42.10847505494469" lon="13.033821619089906"><ele>567.0</ele><time>2026-05-01T08:50:07.999Z</time></trkpt><trkpt lat="42.10828806072649" lon="13.033960780536697"><ele>567.3333333333334</ele><time>2026-05-01T08:50:08.999Z</time></trkpt><trkpt lat="42.10810087735031" lon="13.034099418030895"><ele>567.6666666666667</ele><time>2026-05-01T08:50:09.999Z</time></trkpt><trkpt lat="42.107915413657075" lon="13.03423412544324"><ele>568.0</ele><time>2026-05-01T08:50:10.999Z</time></trkpt><trkpt lat="42.10773329044876" lon="13.034367770572825"><ele>568.0</ele><time>2026-05-01T08:50:11.999Z</time></trkpt><trkpt lat="42.10756018877246" lon="13.03451742910135"><ele>568.0</ele><time>2026-05-01T08:50:12.999Z</time></trkpt><trkpt lat="42.10740432136906" lon="13.034690133878703"><ele>568.0</ele><time>2026-05-01T08:50:13.999Z</time></trkpt><trkpt lat="42.10726127081703" lon="13.03487847480018"><ele>568.3333333333334</ele><time>2026-05-01T08:50:14.999Z</time></trkpt><trkpt lat="42.10711073423216" lon="13.035075086202788"><ele>568.6666666666666</ele><time>2026-05-01T08:50:15.999Z</time></trkpt><trkpt lat="42.106939409627394" lon="13.035266247179399"><ele>569.0</ele><time>2026-05-01T08:50:16.999Z</time></trkpt><trkpt lat="42.10678932873842" lon="13.03545919544782"><ele>569.0</ele><time>2026-05-01T08:50:17.999Z</time></trkpt><trkpt lat="42.10662665497889" lon="13.035657684748491"><ele>569.0</ele><time>2026-05-01T08:50:18.999Z</time></trkpt><trkpt lat="42.10648368128076" lon="13.035865076341189"><ele>569.0</ele><time>2026-05-01T08:50:19.999Z</time></trkpt><trkpt lat="42.106355536088046" lon="13.036095696193001"><ele>569.3333333333333</ele><time>2026-05-01T08:50:20.999Z</time></trkpt><trkpt lat="42.10622281499361" lon="13.036312054806958"><ele>569.6666666666666</ele><time>2026-05-01T08:50:21.999Z</time></trkpt><trkpt lat="42.10608476099288" lon="13.036521912194345"><ele>570.0</ele><time>2026-05-01T08:50:22.999Z</time></trkpt><trkpt lat="42.10594432810459" lon="13.036732008096893"><ele>570.0</ele><time>2026-05-01T08:50:23.999Z</time></trkpt><trkpt lat="42.10580001307066" lon="13.036936586928801"><ele>570.0</ele><time>2026-05-01T08:50:24.999Z</time></trkpt><trkpt lat="42.1056648472139" lon="13.037151521441448"><ele>570.0</ele><time>2026-05-01T08:50:25.999Z</time></trkpt><trkpt lat="42.10554381855532" lon="13.03738085695643"><ele>569.6666666666666</ele><time>2026-05-01T08:50:26.999Z</time></trkpt><trkpt lat="42.10543444441738" lon="13.037624456518007"><ele>569.3333333333333</ele><time>2026-05-01T08:50:27.999Z</time></trkpt><trkpt lat="42.10532826851741" lon="13.037876520326861"><ele>569.0</ele><time>2026-05-01T08:50:28.999Z</time></trkpt><trkpt lat="42.10523074939055" lon="13.03813705645528"><ele>569.3333333333333</ele><time>2026-05-01T08:50:29.999Z</time></trkpt><trkpt lat="42.10515094681144" lon="13.03840308817844"><ele>569.6666666666666</ele><time>2026-05-01T08:50:30.999Z</time></trkpt><trkpt lat="42.10508328038183" lon="13.038674078211331"><ele>570.0</ele><time>2026-05-01T08:50:31.999Z</time></trkpt><trkpt lat="42.1050197156431" lon="13.038953178466494"><ele>569.3333333333334</ele><time>2026-05-01T08:50:32.999Z</time></trkpt><trkpt lat="42.10495836481518" lon="13.039230304443347"><ele>568.6666666666667</ele><time>2026-05-01T08:50:33.999Z</time></trkpt><trkpt lat="42.10489249138349" lon="13.03951229412748"><ele>568.0</ele><time>2026-05-01T08:50:34.999Z</time></trkpt><trkpt lat="42.104830402686126" lon="13.039789583813544"><ele>568.3333333333334</ele><time>2026-05-01T08:50:36.001Z</time></trkpt><trkpt lat="42.10477179405066" lon="13.040063453054254"><ele>568.6666666666666</ele><time>2026-05-01T08:50:37.001Z</time></trkpt><trkpt lat="42.10470822630834" lon="13.040334323269827"><ele>569.0</ele><time>2026-05-01T08:50:38.001Z</time></trkpt><trkpt lat="42.10465024406035" lon="13.04060357941495"><ele>570.3333333333333</ele><time>2026-05-01T08:50:39.001Z</time></trkpt><trkpt lat="42.10459196534591" lon="13.040877800168413"><ele>571.6666666666666</ele><time>2026-05-01T08:50:40.001Z</time></trkpt><trkpt lat="42.10453272339555" lon="13.04114135867527"><ele>573.0</ele><time>2026-05-01T08:50:41.001Z</time></trkpt><trkpt lat="42.104476929933874" lon="13.041405997715016"><ele>573.6666666666666</ele><time>2026-05-01T08:50:42.001Z</time></trkpt><trkpt lat="42.10442653058469" lon="13.041665190470473"><ele>574.3333333333333</ele><time>2026-05-01T08:50:43.001Z</time></trkpt><trkpt lat="42.10437546975037" lon="13.041922008787067"><ele>575.0</ele><time>2026-05-01T08:50:44.001Z</time></trkpt><trkpt lat="42.104320335212535" lon="13.042175212830347"><ele>575.0</ele><time>2026-05-01T08:50:45.001Z</time></trkpt><trkpt lat="42.10426214927625" lon="13.042428397400851"><ele>575.0</ele><time>2026-05-01T08:50:46.001Z</time></trkpt><trkpt lat="42.10418564826889" lon="13.042675935008653"><ele>575.0</ele><time>2026-05-01T08:50:47.001Z</time></trkpt><trkpt lat="42.104093099062695" lon="13.04291404756556"><ele>575.0</ele><time>2026-05-01T08:50:48.001Z</time></trkpt><trkpt lat="42.10398938962255" lon="13.043144349127113"><ele>575.0</ele><time>2026-05-01T08:50:49.001Z</time></trkpt><trkpt lat="42.103871185180665" lon="13.043364688042285"><ele>575.0</ele><time>2026-05-01T08:50:50.001Z</time></trkpt><trkpt lat="42.10375598820386" lon="13.043581847841798"><ele>575.3333333333333</ele><time>2026-05-01T08:50:51.001Z</time></trkpt><trkpt lat="42.10364121609743" lon="13.043795964453729"><ele>575.6666666666666</ele><time>2026-05-01T08:50:52.001Z</time></trkpt><trkpt lat="42.10352236870834" lon="13.04401555118521"><ele>576.0</ele><time>2026-05-01T08:50:53.001Z</time></trkpt><trkpt lat="42.10340016586601" lon="13.044233758786044"><ele>575.3333333333334</ele><time>2026-05-01T08:50:54.001Z</time></trkpt><trkpt lat="42.10327852289565" lon="13.044452452954014"><ele>574.6666666666667</ele><time>2026-05-01T08:50:55.001Z</time></trkpt><trkpt lat="42.10314376429017" lon="13.044664222352823"><ele>574.0</ele><time>2026-05-01T08:50:56.001Z</time></trkpt><trkpt lat="42.10300378483827" lon="13.044857000542592"><ele>575.3333333333334</ele><time>2026-05-01T08:50:57.001Z</time></trkpt><trkpt lat="42.10286061724765" lon="13.045044590850216"><ele>576.6666666666666</ele><time>2026-05-01T08:50:58Z</time></trkpt><trkpt lat="42.10271311372737" lon="13.045230868786877"><ele>578.0</ele><time>2026-05-01T08:50:59Z</time></trkpt><trkpt lat="42.1025719507299" lon="13.045421555301612"><ele>578.0</ele><time>2026-05-01T08:51:00Z</time></trkpt><trkpt lat="42.10242988478817" lon="13.045609526952052"><ele>578.0</ele><time>2026-05-01T08:51:01Z</time></trkpt><trkpt lat="42.10229002812416" lon="13.045794867907759"><ele>578.0</ele><time>2026-05-01T08:51:02Z</time></trkpt><trkpt lat="42.10216525905058" lon="13.045990754908448"><ele>577.6666666666666</ele><time>2026-05-01T08:51:03Z</time></trkpt><trkpt lat="42.10206244681774" lon="13.046201157927412"><ele>577.3333333333334</ele><time>2026-05-01T08:51:04Z</time></trkpt><trkpt lat="42.10198207360403" lon="13.046441466320204"><ele>577.0</ele><time>2026-05-01T08:51:05Z</time></trkpt><trkpt lat="42.1019247576239" lon="13.0466947260182"><ele>577.0</ele><time>2026-05-01T08:51:06Z</time></trkpt><trkpt lat="42.10186607289789" lon="13.046953082651212"><ele>577.0</ele><time>2026-05-01T08:51:07Z</time></trkpt><trkpt lat="42.10179782586118" lon="13.047214276139156"><ele>577.0</ele><time>2026-05-01T08:51:08Z</time></trkpt><trkpt lat="42.101727175075254" lon="13.04747650250746"><ele>576.6666666666667</ele><time>2026-05-01T08:51:09Z</time></trkpt><trkpt lat="42.10165781759534" lon="13.047742161506754"><ele>576.3333333333334</ele><time>2026-05-01T08:51:10Z</time></trkpt><trkpt lat="42.10158780414216" lon="13.0480065075906"><ele>576.0</ele><time>2026-05-01T08:51:11Z</time></trkpt><trkpt lat="42.10151246211608" lon="13.048266593735216"><ele>575.6666666666666</ele><time>2026-05-01T08:51:12Z</time></trkpt><trkpt lat="42.10142246701643" lon="13.048520259660405"><ele>575.3333333333333</ele><time>2026-05-01T08:51:13Z</time></trkpt><trkpt lat="42.101320665516006" lon="13.048762433008509"><ele>575.0</ele><time>2026-05-01T08:51:14Z</time></trkpt><trkpt lat="42.101213717764566" lon="13.04900672716024"><ele>575.0</ele><time>2026-05-01T08:51:15Z</time></trkpt><trkpt lat="42.10111182700543" lon="13.049251142108341"><ele>575.0</ele><time>2026-05-01T08:51:16Z</time></trkpt><trkpt lat="42.101006740300825" lon="13.049497073302064"><ele>575.0</ele><time>2026-05-01T08:51:17Z</time></trkpt><trkpt lat="42.10089920541953" lon="13.049751923055922"><ele>575.3333333333333</ele><time>2026-05-01T08:51:18Z</time></trkpt><trkpt lat="42.100792560379794" lon="13.050002412507245"><ele>575.6666666666666</ele><time>2026-05-01T08:51:19Z</time></trkpt><trkpt lat="42.1006837390963" lon="13.050250698795477"><ele>576.0</ele><time>2026-05-01T08:51:20Z</time></trkpt><trkpt lat="42.10057754536083" lon="13.050494069916217"><ele>576.0</ele><time>2026-05-01T08:51:21Z</time></trkpt><trkpt lat="42.10047194330497" lon="13.050736620147491"><ele>576.0</ele><time>2026-05-01T08:51:22Z</time></trkpt><trkpt lat="42.10037125593491" lon="13.050970297915827"><ele>576.0</ele><time>2026-05-01T08:51:23Z</time></trkpt><trkpt lat="42.100276991305165" lon="13.051197202533459"><ele>576.0</ele><time>2026-05-01T08:51:24Z</time></trkpt><trkpt lat="42.10018774803101" lon="13.051412212440328"><ele>576.0</ele><time>2026-05-01T08:51:25Z</time></trkpt><trkpt lat="42.100105654258705" lon="13.05160741208355"><ele>576.0</ele><time>2026-05-01T08:51:26Z</time></trkpt><trkpt lat="42.10002295081674" lon="13.051796610586214"><ele>575.5</ele><time>2026-05-01T08:51:27Z</time></trkpt><trkpt lat="42.09994469058557" lon="13.051979039900996"><ele>575.0</ele><time>2026-05-01T08:51:28Z</time></trkpt><trkpt lat="42.099867466137944" lon="13.052139085047607"><ele>574.5</ele><time>2026-05-01T08:51:29Z</time></trkpt><trkpt lat="42.09979276806865" lon="13.052274698330114"><ele>574.0</ele><time>2026-05-01T08:51:30Z</time></trkpt><trkpt lat="42.099718851334956" lon="13.052400444472365"><ele>574.8333333333334</ele><time>2026-05-01T08:51:31Z</time></trkpt><trkpt lat="42.099654230406955" lon="13.052504034247512"><ele>575.6666666666667</ele><time>2026-05-01T08:51:32Z</time></trkpt><trkpt lat="42.09959317370217" lon="13.052593396728968"><ele>576.5</ele><time>2026-05-01T08:51:33Z</time></trkpt><trkpt lat="42.09954628862964" lon="13.052673285065598"><ele>577.3333333333334</ele><time>2026-05-01T08:51:34Z</time></trkpt><trkpt lat="42.09950428346242" lon="13.052751983221894"><ele>578.1666666666666</ele><time>2026-05-01T08:51:35Z</time></trkpt><trkpt lat="42.09943331501519" lon="13.052859885298894"><ele>579.0</ele><time>2026-05-01T08:51:37Z</time></trkpt><trkpt lat="42.09935612687363" lon="13.052911955340187"><ele>579.0</ele><time>2026-05-01T08:51:39Z</time></trkpt><trkpt lat="42.09932638424389" lon="13.05300534166671"><ele>579.0</ele><time>2026-05-01T08:51:43Z</time></trkpt><trkpt lat="42.09926632502947" lon="13.053086167851104"><ele>579.0</ele><time>2026-05-01T08:51:46.999Z</time></trkpt><trkpt lat="42.09921270386941" lon="13.05316576218195"><ele>579.0</ele><time>2026-05-01T08:51:48.999Z</time></trkpt><trkpt lat="42.099133903910875" lon="13.05327375995964"><ele>579.0</ele><time>2026-05-01T08:51:50.999Z</time></trkpt><trkpt lat="42.099085665675155" lon="13.053344851753875"><ele>579.0</ele><time>2026-05-01T08:51:51.999Z</time></trkpt><trkpt lat="42.09902430924522" lon="13.05342819451257"><ele>578.5</ele><time>2026-05-01T08:51:52.999Z</time></trkpt><trkpt lat="42.09895257149202" lon="13.053529100774"><ele>578.0</ele><time>2026-05-01T08:51:53.999Z</time></trkpt><trkpt lat="42.098878285445856" lon="13.053634266587894"><ele>577.5</ele><time>2026-05-01T08:51:54.999Z</time></trkpt><trkpt lat="42.09880238607273" lon="13.053741791341533"><ele>577.0</ele><time>2026-05-01T08:51:55.999Z</time></trkpt><trkpt lat="42.098711128581655" lon="13.053865420406263"><ele>577.0</ele><time>2026-05-01T08:51:56.999Z</time></trkpt><trkpt lat="42.098610897803006" lon="13.054010612837217"><ele>577.0</ele><time>2026-05-01T08:51:57.999Z</time></trkpt><trkpt lat="42.098496868663325" lon="13.054185990612202"><ele>577.0</ele><time>2026-05-01T08:51:58.999Z</time></trkpt><trkpt lat="42.09837577179593" lon="13.05437477383497"><ele>578.3333333333334</ele><time>2026-05-01T08:51:59.999Z</time></trkpt><trkpt lat="42.098261588045546" lon="13.054573795877857"><ele>579.6666666666666</ele><time>2026-05-01T08:52:00.999Z</time></trkpt><trkpt lat="42.098130870827575" lon="13.054793034989933"><ele>581.0</ele><time>2026-05-01T08:52:01.999Z</time></trkpt><trkpt lat="42.09798562738222" lon="13.055001467320704"><ele>581.6666666666666</ele><time>2026-05-01T08:52:02.999Z</time></trkpt><trkpt lat="42.09783349403935" lon="13.05519635156744"><ele>582.3333333333334</ele><time>2026-05-01T08:52:03.999Z</time></trkpt><trkpt lat="42.09767936467058" lon="13.055399091585203"><ele>583.0</ele><time>2026-05-01T08:52:04.999Z</time></trkpt><trkpt lat="42.097528773226664" lon="13.055614111610856"><ele>582.6666666666667</ele><time>2026-05-01T08:52:05.999Z</time></trkpt><trkpt lat="42.097382269772005" lon="13.055831108075083"><ele>582.3333333333334</ele><time>2026-05-01T08:52:06.999Z</time></trkpt><trkpt lat="42.097237454456234" lon="13.056040117172156"><ele>582.0</ele><time>2026-05-01T08:52:07.999Z</time></trkpt><trkpt lat="42.09709471137471" lon="13.056249329350727"><ele>582.0</ele><time>2026-05-01T08:52:08.999Z</time></trkpt><trkpt lat="42.09695871004378" lon="13.056455185715555"><ele>582.0</ele><time>2026-05-01T08:52:09.999Z</time></trkpt><trkpt lat="42.09683053231296" lon="13.056677007152974"><ele>582.0</ele><time>2026-05-01T08:52:10.999Z</time></trkpt><trkpt lat="42.09671846760163" lon="13.05691348199069"><ele>583.0</ele><time>2026-05-01T08:52:11.999Z</time></trkpt><trkpt lat="42.09660900679716" lon="13.057187079802585"><ele>584.0</ele><time>2026-05-01T08:52:12.999Z</time></trkpt><trkpt lat="42.09651099468924" lon="13.057462599446989"><ele>584.5</ele><time>2026-05-01T08:52:13.999Z</time></trkpt><trkpt lat="42.09641260022009" lon="13.057740255163372"><ele>585.0</ele><time>2026-05-01T08:52:14.999Z</time></trkpt><trkpt lat="42.09630622029385" lon="13.058021270769638"><ele>586.0</ele><time>2026-05-01T08:52:15.999Z</time></trkpt><trkpt lat="42.0962035136937" lon="13.058306299076119"><ele>587.0</ele><time>2026-05-01T08:52:16.999Z</time></trkpt><trkpt lat="42.096103399614066" lon="13.058585649781232"><ele>587.0</ele><time>2026-05-01T08:52:17.999Z</time></trkpt><trkpt lat="42.09600300469187" lon="13.058865850827022"><ele>587.0</ele><time>2026-05-01T08:52:18.999Z</time></trkpt><trkpt lat="42.095902551787304" lon="13.059140608942824"><ele>588.0</ele><time>2026-05-01T08:52:19.999Z</time></trkpt><trkpt lat="42.09580438093824" lon="13.059414886809064"><ele>589.0</ele><time>2026-05-01T08:52:20.999Z</time></trkpt><trkpt lat="42.09570478736553" lon="13.05969081374197"><ele>586.0</ele><time>2026-05-01T08:52:21.999Z</time></trkpt><trkpt lat="42.095602283078186" lon="13.05996910887507"><ele>583.0</ele><time>2026-05-01T08:52:22.999Z</time></trkpt><trkpt lat="42.09549868068928" lon="13.060248373060404"><ele>583.0</ele><time>2026-05-01T08:52:23.999Z</time></trkpt><trkpt lat="42.09539302413197" lon="13.06053131853373"><ele>583.0</ele><time>2026-05-01T08:52:24.999Z</time></trkpt><trkpt lat="42.09529057095169" lon="13.060814355804105"><ele>583.5</ele><time>2026-05-01T08:52:25.999Z</time></trkpt><trkpt lat="42.09519285259153" lon="13.061094344751385"><ele>584.0</ele><time>2026-05-01T08:52:26.999Z</time></trkpt><trkpt lat="42.0950920546608" lon="13.061377300888914"><ele>585.0</ele><time>2026-05-01T08:52:27.999Z</time></trkpt><trkpt lat="42.09498962711397" lon="13.061661773935311"><ele>586.0</ele><time>2026-05-01T08:52:28.999Z</time></trkpt><trkpt lat="42.09488986668249" lon="13.061947613903593"><ele>584.5</ele><time>2026-05-01T08:52:29.999Z</time></trkpt><trkpt lat="42.09478852846415" lon="13.062234238323088"><ele>583.0</ele><time>2026-05-01T08:52:30.999Z</time></trkpt><trkpt lat="42.09468780744294" lon="13.062518722636133"><ele>583.0</ele><time>2026-05-01T08:52:31.999Z</time></trkpt><trkpt lat="42.094584742109596" lon="13.062805366833375"><ele>583.0</ele><time>2026-05-01T08:52:32.999Z</time></trkpt><trkpt lat="42.09446561790841" lon="13.063078746181198"><ele>584.0</ele><time>2026-05-01T08:52:33.999Z</time></trkpt><trkpt lat="42.09438149519788" lon="13.06337388785171"><ele>585.0</ele><time>2026-05-01T08:52:34.999Z</time></trkpt><trkpt lat="42.09428006567551" lon="13.063654267092973"><ele>585.0</ele><time>2026-05-01T08:52:35.999Z</time></trkpt><trkpt lat="42.09418294606685" lon="13.06393813363778"><ele>585.0</ele><time>2026-05-01T08:52:36.999Z</time></trkpt><trkpt lat="42.0940964232009" lon="13.064228837611754"><ele>584.5</ele><time>2026-05-01T08:52:37.999Z</time></trkpt><trkpt lat="42.094028394870264" lon="13.064524303362571"><ele>584.0</ele><time>2026-05-01T08:52:38.999Z</time></trkpt><trkpt lat="42.093964381515065" lon="13.064826456448213"><ele>585.5</ele><time>2026-05-01T08:52:39.999Z</time></trkpt><trkpt lat="42.09390624274242" lon="13.065126186017666"><ele>587.0</ele><time>2026-05-01T08:52:41.001Z</time></trkpt><trkpt lat="42.093856038970536" lon="13.065420877990425"><ele>587.0</ele><time>2026-05-01T08:52:42.001Z</time></trkpt><trkpt lat="42.09380580552169" lon="13.065709653038587"><ele>587.0</ele><time>2026-05-01T08:52:43.001Z</time></trkpt><trkpt lat="42.093752564817414" lon="13.065991275394161"><ele>587.0</ele><time>2026-05-01T08:52:44.001Z</time></trkpt><trkpt lat="42.09370344769166" lon="13.06626502430751"><ele>587.3333333333333</ele><time>2026-05-01T08:52:45.001Z</time></trkpt><trkpt lat="42.09365671809705" lon="13.066540416062793"><ele>587.6666666666666</ele><time>2026-05-01T08:52:46.001Z</time></trkpt><trkpt lat="42.09361428653734" lon="13.066813513827396"><ele>588.0</ele><time>2026-05-01T08:52:47.001Z</time></trkpt><trkpt lat="42.093575134444826" lon="13.067086754129408"><ele>588.3333333333334</ele><time>2026-05-01T08:52:48.001Z</time></trkpt><trkpt lat="42.09354067390417" lon="13.067362480775378"><ele>588.6666666666667</ele><time>2026-05-01T08:52:49.001Z</time></trkpt><trkpt lat="42.0935090629962" lon="13.06763736969835"><ele>589.0</ele><time>2026-05-01T08:52:50.001Z</time></trkpt><trkpt lat="42.09347908586797" lon="13.067913970661309"><ele>589.0</ele><time>2026-05-01T08:52:51.001Z</time></trkpt><trkpt lat="42.093439558093486" lon="13.068197799444585"><ele>589.0</ele><time>2026-05-01T08:52:52.001Z</time></trkpt><trkpt lat="42.09340236328303" lon="13.068484326119012"><ele>589.0</ele><time>2026-05-01T08:52:53.001Z</time></trkpt><trkpt lat="42.09337341088761" lon="13.068766836149713"><ele>589.3333333333334</ele><time>2026-05-01T08:52:54.001Z</time></trkpt><trkpt lat="42.093353541918795" lon="13.069055676475255"><ele>589.6666666666666</ele><time>2026-05-01T08:52:55Z</time></trkpt><trkpt lat="42.09334485805435" lon="13.069327773624273"><ele>590.0</ele><time>2026-05-01T08:52:56Z</time></trkpt><trkpt lat="42.093380129405816" lon="13.069611318977016"><ele>591.0</ele><time>2026-05-01T08:52:57Z</time></trkpt><trkpt lat="42.093408937074834" lon="13.069887092816465"><ele>592.0</ele><time>2026-05-01T08:52:58Z</time></trkpt><trkpt lat="42.09343643901698" lon="13.070150992836592"><ele>593.0</ele><time>2026-05-01T08:52:59Z</time></trkpt><trkpt lat="42.093460312156154" lon="13.070403053706178"><ele>593.3333333333333</ele><time>2026-05-01T08:53:00Z</time></trkpt><trkpt lat="42.0934760577157" lon="13.070641027775476"><ele>593.6666666666666</ele><time>2026-05-01T08:53:01Z</time></trkpt><trkpt lat="42.09349134874989" lon="13.07086326894557"><ele>594.0</ele><time>2026-05-01T08:53:02Z</time></trkpt><trkpt lat="42.09351351099766" lon="13.071060590948552"><ele>594.4</ele><time>2026-05-01T08:53:03Z</time></trkpt><trkpt lat="42.09353536395382" lon="13.071235838533516"><ele>594.8</ele><time>2026-05-01T08:53:04Z</time></trkpt><trkpt lat="42.0935484206098" lon="13.07137528969484"><ele>595.2</ele><time>2026-05-01T08:53:05Z</time></trkpt><trkpt lat="42.09355443835045" lon="13.071474368177318"><ele>595.6</ele><time>2026-05-01T08:53:06Z</time></trkpt><trkpt lat="42.093532208281495" lon="13.071618282002762"><ele>596.0</ele><time>2026-05-01T08:53:08Z</time></trkpt><trkpt lat="42.09345554903135" lon="13.071691148500207"><ele>596.1666666666666</ele><time>2026-05-01T08:53:10Z</time></trkpt><trkpt lat="42.09337611520042" lon="13.071693433039641"><ele>596.3333333333333</ele><time>2026-05-01T08:53:12Z</time></trkpt><trkpt lat="42.0933041606818" lon="13.071693006729207"><ele>596.5</ele><time>2026-05-01T08:53:14Z</time></trkpt><trkpt lat="42.093254461809906" lon="13.071602005896775"><ele>596.6666666666666</ele><time>2026-05-01T08:53:15Z</time></trkpt><trkpt lat="42.09321225362963" lon="13.07152733357557"><ele>596.8333333333334</ele><time>2026-05-01T08:53:16Z</time></trkpt><trkpt lat="42.09316404920992" lon="13.071443165627402"><ele>597.0</ele><time>2026-05-01T08:53:17Z</time></trkpt><trkpt lat="42.093108404628666" lon="13.071350805541353"><ele>596.0</ele><time>2026-05-01T08:53:18Z</time></trkpt><trkpt lat="42.093045234299275" lon="13.071255036956204"><ele>595.0</ele><time>2026-05-01T08:53:19Z</time></trkpt><trkpt lat="42.09298271411486" lon="13.07115811486455"><ele>594.0</ele><time>2026-05-01T08:53:20Z</time></trkpt><trkpt lat="42.092919581792934" lon="13.071062953924363"><ele>593.0</ele><time>2026-05-01T08:53:21Z</time></trkpt><trkpt lat="42.0928543549288" lon="13.070964129252149"><ele>592.0</ele><time>2026-05-01T08:53:22Z</time></trkpt><trkpt lat="42.09278985889154" lon="13.070868474528757"><ele>591.6666666666667</ele><time>2026-05-01T08:53:23Z</time></trkpt><trkpt lat="42.09272454172173" lon="13.07076988778045"><ele>591.3333333333334</ele><time>2026-05-01T08:53:24Z</time></trkpt><trkpt lat="42.09266089651179" lon="13.07066867154626"><ele>591.0</ele><time>2026-05-01T08:53:25Z</time></trkpt><trkpt lat="42.092599743924275" lon="13.07057409780702"><ele>590.6666666666666</ele><time>2026-05-01T08:53:26Z</time></trkpt><trkpt lat="42.09254401631702" lon="13.07049575759289"><ele>590.3333333333333</ele><time>2026-05-01T08:53:27Z</time></trkpt><trkpt lat="42.0924972906802" lon="13.070425683671337"><ele>590.0</ele><time>2026-05-01T08:53:28Z</time></trkpt><trkpt lat="42.092457062447195" lon="13.070345575987677"><ele>589.6666666666666</ele><time>2026-05-01T08:53:29Z</time></trkpt><trkpt lat="42.092413185052116" lon="13.07026751104939"><ele>589.3333333333333</ele><time>2026-05-01T08:53:30Z</time></trkpt><trkpt lat="42.092355098913" lon="13.070217974839938"><ele>589.0</ele><time>2026-05-01T08:53:31Z</time></trkpt><trkpt lat="42.09224471176728" lon="13.070188692903354"><ele>588.6666666666666</ele><time>2026-05-01T08:53:33Z</time></trkpt><trkpt lat="42.09215780553905" lon="13.070275459503446"><ele>588.3333333333334</ele><time>2026-05-01T08:53:34.999Z</time></trkpt><trkpt lat="42.09214107998788" lon="13.070369884089256"><ele>588.0</ele><time>2026-05-01T08:53:35.999Z</time></trkpt><trkpt lat="42.092149190077734" lon="13.070457374839997"><ele>588.0</ele><time>2026-05-01T08:53:36.999Z</time></trkpt><trkpt lat="42.09218006653035" lon="13.070531580614436"><ele>588.0</ele><time>2026-05-01T08:53:37.999Z</time></trkpt><trkpt lat="42.0923079553802" lon="13.070589717595105"><ele>588.0</ele><time>2026-05-01T08:53:39.999Z</time></trkpt><trkpt lat="42.092391829773156" lon="13.070583940753734"><ele>588.0</ele><time>2026-05-01T08:53:40.999Z</time></trkpt><trkpt lat="42.09247150307855" lon="13.070593598498704"><ele>588.0</ele><time>2026-05-01T08:53:41.999Z</time></trkpt><trkpt lat="42.092533783272415" lon="13.070638658238098"><ele>588.0</ele><time>2026-05-01T08:53:42.999Z</time></trkpt><trkpt lat="42.09258700232497" lon="13.070724612026812"><ele>589.0</ele><time>2026-05-01T08:53:43.999Z</time></trkpt><trkpt lat="42.0926563047098" lon="13.07082104520189"><ele>590.0</ele><time>2026-05-01T08:53:44.999Z</time></trkpt><trkpt lat="42.09275703908095" lon="13.070945953894217"><ele>591.0</ele><time>2026-05-01T08:53:45.999Z</time></trkpt><trkpt lat="42.09283565293115" lon="13.07105687724748"><ele>592.0</ele><time>2026-05-01T08:53:46.999Z</time></trkpt><trkpt lat="42.09291676491611" lon="13.071179988391554"><ele>592.0</ele><time>2026-05-01T08:53:47.999Z</time></trkpt><trkpt lat="42.09299945854332" lon="13.071310654324877"><ele>592.0</ele><time>2026-05-01T08:53:48.999Z</time></trkpt><trkpt lat="42.09308234777645" lon="13.071442011634037"><ele>592.0</ele><time>2026-05-01T08:53:49.999Z</time></trkpt><trkpt lat="42.09316304666646" lon="13.071571204895633"><ele>592.0</ele><time>2026-05-01T08:53:50.999Z</time></trkpt><trkpt lat="42.093243602647675" lon="13.071703420897848"><ele>593.25</ele><time>2026-05-01T08:53:51.999Z</time></trkpt><trkpt lat="42.09332446852954" lon="13.071835556771143"><ele>594.5</ele><time>2026-05-01T08:53:52.999Z</time></trkpt><trkpt lat="42.09339973615499" lon="13.071973305393795"><ele>595.75</ele><time>2026-05-01T08:53:53.999Z</time></trkpt><trkpt lat="42.093469173643044" lon="13.072112095117337"><ele>597.0</ele><time>2026-05-01T08:53:54.999Z</time></trkpt><trkpt lat="42.09352873211471" lon="13.072249162600922"><ele>597.0</ele><time>2026-05-01T08:53:55.999Z</time></trkpt><trkpt lat="42.09357309168914" lon="13.072391924386398"><ele>597.0</ele><time>2026-05-01T08:53:56.999Z</time></trkpt><trkpt lat="42.09360697423731" lon="13.07254244659739"><ele>597.0</ele><time>2026-05-01T08:53:57.999Z</time></trkpt><trkpt lat="42.093638883132506" lon="13.072701271940488"><ele>597.0</ele><time>2026-05-01T08:53:58.999Z</time></trkpt><trkpt lat="42.09366783773157" lon="13.072870417298983"><ele>597.0</ele><time>2026-05-01T08:53:59.999Z</time></trkpt><trkpt lat="42.09369093525816" lon="13.0730465110669"><ele>597.0</ele><time>2026-05-01T08:54:00.999Z</time></trkpt><trkpt lat="42.09370895568146" lon="13.07322332072866"><ele>597.0</ele><time>2026-05-01T08:54:01.999Z</time></trkpt><trkpt lat="42.09371889000937" lon="13.073408021786243"><ele>597.0</ele><time>2026-05-01T08:54:02.999Z</time></trkpt><trkpt lat="42.09371808295071" lon="13.073605204252202"><ele>597.0</ele><time>2026-05-01T08:54:03.999Z</time></trkpt><trkpt lat="42.09370752840745" lon="13.073810784373656"><ele>597.0</ele><time>2026-05-01T08:54:04.999Z</time></trkpt><trkpt lat="42.0936948830443" lon="13.07402654647567"><ele>597.0</ele><time>2026-05-01T08:54:05.999Z</time></trkpt><trkpt lat="42.09368336027296" lon="13.074251175149515"><ele>597.6666666666666</ele><time>2026-05-01T08:54:06.999Z</time></trkpt><trkpt lat="42.09367199196798" lon="13.074485675358503"><ele>598.3333333333333</ele><time>2026-05-01T08:54:07.999Z</time></trkpt><trkpt lat="42.09365649075251" lon="13.074727566101355"><ele>599.0</ele><time>2026-05-01T08:54:08.999Z</time></trkpt><trkpt lat="42.093640406632545" lon="13.074970456003006"><ele>599.0</ele><time>2026-05-01T08:54:09.999Z</time></trkpt><trkpt lat="42.09362801472199" lon="13.075210823709794"><ele>599.0</ele><time>2026-05-01T08:54:10.999Z</time></trkpt><trkpt lat="42.09361502565306" lon="13.075458666301108"><ele>599.0</ele><time>2026-05-01T08:54:11.999Z</time></trkpt><trkpt lat="42.093605625821525" lon="13.075708130321068"><ele>599.6666666666666</ele><time>2026-05-01T08:54:12.999Z</time></trkpt><trkpt lat="42.09360413306522" lon="13.075959696535389"><ele>600.3333333333334</ele><time>2026-05-01T08:54:13.999Z</time></trkpt><trkpt lat="42.093615245472805" lon="13.07621346798309"><ele>601.0</ele><time>2026-05-01T08:54:14.999Z</time></trkpt><trkpt lat="42.09364027693782" lon="13.076465169473419"><ele>601.3333333333334</ele><time>2026-05-01T08:54:15.999Z</time></trkpt><trkpt lat="42.09368371497125" lon="13.076714614822729"><ele>601.6666666666666</ele><time>2026-05-01T08:54:16.999Z</time></trkpt><trkpt lat="42.09374868946376" lon="13.076957346499668"><ele>602.0</ele><time>2026-05-01T08:54:17.999Z</time></trkpt><trkpt lat="42.09383245153818" lon="13.0771935308507"><ele>602.0</ele><time>2026-05-01T08:54:18.999Z</time></trkpt><trkpt lat="42.09393054381146" lon="13.077422151568715"><ele>602.0</ele><time>2026-05-01T08:54:19.999Z</time></trkpt><trkpt lat="42.09404763726821" lon="13.077637616827142"><ele>602.0</ele><time>2026-05-01T08:54:20.999Z</time></trkpt><trkpt lat="42.09417321346637" lon="13.077845890700662"><ele>602.6666666666666</ele><time>2026-05-01T08:54:21.999Z</time></trkpt><trkpt lat="42.09430991242646" lon="13.07804762892848"><ele>603.3333333333334</ele><time>2026-05-01T08:54:22.999Z</time></trkpt><trkpt lat="42.09445926105643" lon="13.0782359656332"><ele>604.0</ele><time>2026-05-01T08:54:23.999Z</time></trkpt><trkpt lat="42.094622154708" lon="13.078403201299771"><ele>604.0</ele><time>2026-05-01T08:54:24.999Z</time></trkpt><trkpt lat="42.09480132995724" lon="13.078555370750506"><ele>604.0</ele><time>2026-05-01T08:54:25.999Z</time></trkpt><trkpt lat="42.094982014882696" lon="13.078701707495247"><ele>604.0</ele><time>2026-05-01T08:54:26.999Z</time></trkpt><trkpt lat="42.09515995851693" lon="13.078833810483076"><ele>603.3333333333334</ele><time>2026-05-01T08:54:27.999Z</time></trkpt><trkpt lat="42.09533905140239" lon="13.078955521967476"><ele>602.6666666666666</ele><time>2026-05-01T08:54:28.998Z</time></trkpt><trkpt lat="42.09550427459023" lon="13.079081763687116"><ele>602.0</ele><time>2026-05-01T08:54:29.998Z</time></trkpt><trkpt lat="42.095653474512986" lon="13.079205239921357"><ele>603.5</ele><time>2026-05-01T08:54:30.998Z</time></trkpt><trkpt lat="42.09577915200749" lon="13.07931136039786"><ele>605.0</ele><time>2026-05-01T08:54:31.998Z</time></trkpt><trkpt lat="42.095893689512934" lon="13.079412130085817"><ele>606.5</ele><time>2026-05-01T08:54:32.998Z</time></trkpt><trkpt lat="42.096000512756035" lon="13.079516101514834"><ele>608.0</ele><time>2026-05-01T08:54:33.998Z</time></trkpt><trkpt lat="42.09609603399966" lon="13.079627207621092"><ele>608.0</ele><time>2026-05-01T08:54:34.998Z</time></trkpt><trkpt lat="42.09618815267686" lon="13.079733335607585"><ele>608.0</ele><time>2026-05-01T08:54:35.998Z</time></trkpt><trkpt lat="42.09626636943394" lon="13.079836623096723"><ele>608.0</ele><time>2026-05-01T08:54:36.998Z</time></trkpt><trkpt lat="42.096340972272856" lon="13.079940284869485"><ele>608.0</ele><time>2026-05-01T08:54:37.998Z</time></trkpt><trkpt lat="42.09640634132674" lon="13.080048425348473"><ele>608.0</ele><time>2026-05-01T08:54:38.998Z</time></trkpt><trkpt lat="42.09647008953042" lon="13.080155908796453"><ele>607.8</ele><time>2026-05-01T08:54:39.998Z</time></trkpt><trkpt lat="42.09653721688651" lon="13.080271799403379"><ele>607.5999999999999</ele><time>2026-05-01T08:54:40.998Z</time></trkpt><trkpt lat="42.09660782048913" lon="13.08039063401619"><ele>607.4000000000001</ele><time>2026-05-01T08:54:41.998Z</time></trkpt><trkpt lat="42.096677507236905" lon="13.080509567878469"><ele>607.2</ele><time>2026-05-01T08:54:42.998Z</time></trkpt><trkpt lat="42.0967471840829" lon="13.080630656034536"><ele>607.0</ele><time>2026-05-01T08:54:43.998Z</time></trkpt><trkpt lat="42.09681745287785" lon="13.080754469703837"><ele>605.75</ele><time>2026-05-01T08:54:44.998Z</time></trkpt><trkpt lat="42.09689335184312" lon="13.080891775744105"><ele>604.5</ele><time>2026-05-01T08:54:45.998Z</time></trkpt><trkpt lat="42.09697585382828" lon="13.08103406193644"><ele>603.25</ele><time>2026-05-01T08:54:47Z</time></trkpt><trkpt lat="42.09706498799884" lon="13.081177078039431"><ele>602.0</ele><time>2026-05-01T08:54:48Z</time></trkpt><trkpt lat="42.097161212989604" lon="13.081314151729003"><ele>602.0</ele><time>2026-05-01T08:54:49Z</time></trkpt><trkpt lat="42.097265736627264" lon="13.081443519332412"><ele>602.0</ele><time>2026-05-01T08:54:50Z</time></trkpt><trkpt lat="42.09737861125721" lon="13.081560907254397"><ele>602.0</ele><time>2026-05-01T08:54:51Z</time></trkpt><trkpt lat="42.09748371896535" lon="13.08169510435789"><ele>602.0</ele><time>2026-05-01T08:54:52Z</time></trkpt><trkpt lat="42.097600041207016" lon="13.081812958030348"><ele>602.0</ele><time>2026-05-01T08:54:53Z</time></trkpt><trkpt lat="42.097716963259764" lon="13.081932952535093"><ele>602.0</ele><time>2026-05-01T08:54:54Z</time></trkpt><trkpt lat="42.09783651943247" lon="13.082055650412727"><ele>602.0</ele><time>2026-05-01T08:54:55Z</time></trkpt><trkpt lat="42.09795564295619" lon="13.082177904329722"><ele>602.0</ele><time>2026-05-01T08:54:56Z</time></trkpt><trkpt lat="42.098077540440464" lon="13.082298277373173"><ele>602.0</ele><time>2026-05-01T08:54:57Z</time></trkpt><trkpt lat="42.098199042472075" lon="13.082420900053238"><ele>602.0</ele><time>2026-05-01T08:54:58Z</time></trkpt><trkpt lat="42.09832614812904" lon="13.082528769155013"><ele>602.0</ele><time>2026-05-01T08:54:59Z</time></trkpt><trkpt lat="42.09844585321651" lon="13.082654326259464"><ele>603.3333333333333</ele><time>2026-05-01T08:55:00Z</time></trkpt><trkpt lat="42.09856313789487" lon="13.082777262668797"><ele>604.6666666666666</ele><time>2026-05-01T08:55:01Z</time></trkpt><trkpt lat="42.098685439779274" lon="13.082895399608002"><ele>606.0</ele><time>2026-05-01T08:55:02Z</time></trkpt><trkpt lat="42.098807160483794" lon="13.08301946220338"><ele>606.0</ele><time>2026-05-01T08:55:03Z</time></trkpt><trkpt lat="42.09892383981076" lon="13.08313852919015"><ele>606.0</ele><time>2026-05-01T08:55:04Z</time></trkpt><trkpt lat="42.0990384685842" lon="13.083261762857607"><ele>606.0</ele><time>2026-05-01T08:55:05Z</time></trkpt><trkpt lat="42.099144390246614" lon="13.083388421514341"><ele>606.0</ele><time>2026-05-01T08:55:06Z</time></trkpt><trkpt lat="42.099255741339206" lon="13.083508404940929"><ele>606.75</ele><time>2026-05-01T08:55:07Z</time></trkpt><trkpt lat="42.09937133218602" lon="13.083620280762814"><ele>607.5</ele><time>2026-05-01T08:55:08Z</time></trkpt><trkpt lat="42.09949247600196" lon="13.083721963913948"><ele>608.25</ele><time>2026-05-01T08:55:09Z</time></trkpt><trkpt lat="42.099618161385656" lon="13.083812537423382"><ele>609.0</ele><time>2026-05-01T08:55:10Z</time></trkpt><trkpt lat="42.09974906946356" lon="13.083896975290468"><ele>609.0</ele><time>2026-05-01T08:55:11Z</time></trkpt><trkpt lat="42.09988467311708" lon="13.083973751345438"><ele>609.0</ele><time>2026-05-01T08:55:12Z</time></trkpt><trkpt lat="42.10002590181461" lon="13.084029481345597"><ele>609.0</ele><time>2026-05-01T08:55:13Z</time></trkpt><trkpt lat="42.100172051140554" lon="13.084063897908596"><ele>609.0</ele><time>2026-05-01T08:55:14Z</time></trkpt><trkpt lat="42.10031524045765" lon="13.0840812330375"><ele>611.25</ele><time>2026-05-01T08:55:15Z</time></trkpt><trkpt lat="42.10046638262475" lon="13.08408300773183"><ele>613.5</ele><time>2026-05-01T08:55:16Z</time></trkpt><trkpt lat="42.100604171659" lon="13.084074960819406"><ele>615.75</ele><time>2026-05-01T08:55:17Z</time></trkpt><trkpt lat="42.10074123820066" lon="13.084072649171459"><ele>618.0</ele><time>2026-05-01T08:55:18Z</time></trkpt><trkpt lat="42.10088011919466" lon="13.084080474843166"><ele>618.5</ele><time>2026-05-01T08:55:19Z</time></trkpt><trkpt lat="42.10102371395019" lon="13.084076237468457"><ele>619.0</ele><time>2026-05-01T08:55:20Z</time></trkpt><trkpt lat="42.10115881301607" lon="13.084067511850929"><ele>619.5</ele><time>2026-05-01T08:55:21Z</time></trkpt><trkpt lat="42.10129110293389" lon="13.084061798006479"><ele>620.0</ele><time>2026-05-01T08:55:22Z</time></trkpt><trkpt lat="42.10142464704219" lon="13.084068931047941"><ele>620.0</ele><time>2026-05-01T08:55:23Z</time></trkpt><trkpt lat="42.101556162467084" lon="13.084083618935653"><ele>620.0</ele><time>2026-05-01T08:55:24Z</time></trkpt><trkpt lat="42.10168398694661" lon="13.084114256935468"><ele>620.0</ele><time>2026-05-01T08:55:25Z</time></trkpt><trkpt lat="42.10181422635271" lon="13.084153714268343"><ele>620.0</ele><time>2026-05-01T08:55:26Z</time></trkpt><trkpt lat="42.10194333463849" lon="13.084203929743557"><ele>619.75</ele><time>2026-05-01T08:55:27Z</time></trkpt><trkpt lat="42.10207527597062" lon="13.084262615958442"><ele>619.5</ele><time>2026-05-01T08:55:28Z</time></trkpt><trkpt lat="42.102205360286646" lon="13.084334414182132"><ele>619.25</ele><time>2026-05-01T08:55:29Z</time></trkpt><trkpt lat="42.102334293470506" lon="13.084414926218239"><ele>619.0</ele><time>2026-05-01T08:55:30Z</time></trkpt><trkpt lat="42.10246471176126" lon="13.084493474513717"><ele>619.0</ele><time>2026-05-01T08:55:31Z</time></trkpt><trkpt lat="42.10259790459652" lon="13.08456095204309"><ele>619.0</ele><time>2026-05-01T08:55:32Z</time></trkpt><trkpt lat="42.10274011823555" lon="13.084619818706795"><ele>619.0</ele><time>2026-05-01T08:55:33Z</time></trkpt><trkpt lat="42.102885419022435" lon="13.084665589469466"><ele>619.0</ele><time>2026-05-01T08:55:34Z</time></trkpt><trkpt lat="42.10303071104059" lon="13.084703721481313"><ele>619.0</ele><time>2026-05-01T08:55:35Z</time></trkpt><trkpt lat="42.103177171150506" lon="13.084732248182704"><ele>619.0</ele><time>2026-05-01T08:55:36Z</time></trkpt><trkpt lat="42.10332464655012" lon="13.084748935603146"><ele>619.0</ele><time>2026-05-01T08:55:37Z</time></trkpt><trkpt lat="42.10347772655319" lon="13.084743320460593"><ele>619.0</ele><time>2026-05-01T08:55:38Z</time></trkpt><trkpt lat="42.10362185276475" lon="13.084709851694216"><ele>621.0</ele><time>2026-05-01T08:55:39Z</time></trkpt><trkpt lat="42.10377019473754" lon="13.084677054040021"><ele>623.0</ele><time>2026-05-01T08:55:40Z</time></trkpt><trkpt lat="42.10392048829672" lon="13.0846444681898"><ele>625.0</ele><time>2026-05-01T08:55:41Z</time></trkpt><trkpt lat="42.10407107753323" lon="13.08460187650699"><ele>624.6666666666667</ele><time>2026-05-01T08:55:42Z</time></trkpt><trkpt lat="42.10422257205409" lon="13.08454159885718"><ele>624.3333333333334</ele><time>2026-05-01T08:55:43Z</time></trkpt><trkpt lat="42.10437228292514" lon="13.084468269950495"><ele>624.0</ele><time>2026-05-01T08:55:44Z</time></trkpt><trkpt lat="42.104517040076225" lon="13.084376340111648"><ele>624.0</ele><time>2026-05-01T08:55:44.999Z</time></trkpt><trkpt lat="42.1046631732633" lon="13.084275545208907"><ele>624.0</ele><time>2026-05-01T08:55:45.999Z</time></trkpt><trkpt lat="42.104811726187876" lon="13.084166756784727"><ele>624.0</ele><time>2026-05-01T08:55:46.999Z</time></trkpt><trkpt lat="42.104960923761205" lon="13.084061081396067"><ele>627.3333333333334</ele><time>2026-05-01T08:55:47.999Z</time></trkpt><trkpt lat="42.10511162572757" lon="13.083955057912542"><ele>630.6666666666667</ele><time>2026-05-01T08:55:48.999Z</time></trkpt><trkpt lat="42.105267319949796" lon="13.083847172894568"><ele>634.0</ele><time>2026-05-01T08:55:49.999Z</time></trkpt><trkpt lat="42.105428285728394" lon="13.08374479418965"><ele>634.0</ele><time>2026-05-01T08:55:50.999Z</time></trkpt><trkpt lat="42.10559096770132" lon="13.083660713970161"><ele>634.0</ele><time>2026-05-01T08:55:51.999Z</time></trkpt><trkpt lat="42.10576113013507" lon="13.083582046061649"><ele>634.0</ele><time>2026-05-01T08:55:52.999Z</time></trkpt><trkpt lat="42.10593403437424" lon="13.083513509567569"><ele>630.0</ele><time>2026-05-01T08:55:53.999Z</time></trkpt><trkpt lat="42.106110282714326" lon="13.083456050785475"><ele>626.0</ele><time>2026-05-01T08:55:54.999Z</time></trkpt><trkpt lat="42.10628592063296" lon="13.083408592426872"><ele>622.0</ele><time>2026-05-01T08:55:55.999Z</time></trkpt><trkpt lat="42.10646916525816" lon="13.083393891701286"><ele>621.0</ele><time>2026-05-01T08:55:56.999Z</time></trkpt><trkpt lat="42.10665203300818" lon="13.083370534165597"><ele>620.0</ele><time>2026-05-01T08:55:57.999Z</time></trkpt><trkpt lat="42.10683322621236" lon="13.083345012522084"><ele>619.0</ele><time>2026-05-01T08:55:58.999Z</time></trkpt><trkpt lat="42.10701460341334" lon="13.083294914207732"><ele>619.0</ele><time>2026-05-01T08:55:59.999Z</time></trkpt><trkpt lat="42.1072014381266" lon="13.083309341494411"><ele>619.0</ele><time>2026-05-01T08:56:00.999Z</time></trkpt><trkpt lat="42.10739074463939" lon="13.083343778837849"><ele>619.0</ele><time>2026-05-01T08:56:01.999Z</time></trkpt><trkpt lat="42.107580208616554" lon="13.083390098115299"><ele>619.6666666666667</ele><time>2026-05-01T08:56:02.999Z</time></trkpt><trkpt lat="42.10776548752795" lon="13.08345663647296"><ele>620.3333333333334</ele><time>2026-05-01T08:56:03.999Z</time></trkpt><trkpt lat="42.10795596710833" lon="13.083500678438442"><ele>621.0</ele><time>2026-05-01T08:56:04.999Z</time></trkpt><trkpt lat="42.10814504815157" lon="13.08353933871961"><ele>621.3333333333334</ele><time>2026-05-01T08:56:05.999Z</time></trkpt><trkpt lat="42.10834407562332" lon="13.083565412182185"><ele>621.6666666666667</ele><time>2026-05-01T08:56:06.999Z</time></trkpt><trkpt lat="42.108539167610665" lon="13.083544366280986"><ele>622.0</ele><time>2026-05-01T08:56:07.999Z</time></trkpt><trkpt lat="42.10874011614539" lon="13.083546090601116"><ele>622.0</ele><time>2026-05-01T08:56:08.999Z</time></trkpt><trkpt lat="42.1089411759114" lon="13.0835243203939"><ele>622.0</ele><time>2026-05-01T08:56:09.999Z</time></trkpt><trkpt lat="42.10914091577121" lon="13.08349241029952"><ele>622.0</ele><time>2026-05-01T08:56:10.999Z</time></trkpt><trkpt lat="42.10934358745479" lon="13.083473243980801"><ele>621.3333333333334</ele><time>2026-05-01T08:56:11.999Z</time></trkpt><trkpt lat="42.109536723471884" lon="13.083445024441396"><ele>620.6666666666666</ele><time>2026-05-01T08:56:12.999Z</time></trkpt><trkpt lat="42.10973012135699" lon="13.083420277097028"><ele>620.0</ele><time>2026-05-01T08:56:13.999Z</time></trkpt><trkpt lat="42.10992714444433" lon="13.083397416993687"><ele>622.0</ele><time>2026-05-01T08:56:14.999Z</time></trkpt><trkpt lat="42.1101174045721" lon="13.083398003977125"><ele>624.0</ele><time>2026-05-01T08:56:15.999Z</time></trkpt><trkpt lat="42.11030856559267" lon="13.083389487232127"><ele>626.0</ele><time>2026-05-01T08:56:16.999Z</time></trkpt><trkpt lat="42.11049675519776" lon="13.083398343012572"><ele>626.0</ele><time>2026-05-01T08:56:17.999Z</time></trkpt><trkpt lat="42.110682739507546" lon="13.083413539069292"><ele>626.0</ele><time>2026-05-01T08:56:18.999Z</time></trkpt><trkpt lat="42.11087561660352" lon="13.08341779241098"><ele>626.0</ele><time>2026-05-01T08:56:19.999Z</time></trkpt><trkpt lat="42.111073041107815" lon="13.083412558336653"><ele>626.0</ele><time>2026-05-01T08:56:20.999Z</time></trkpt><trkpt lat="42.11126935258071" lon="13.083400807593987"><ele>626.0</ele><time>2026-05-01T08:56:21.999Z</time></trkpt><trkpt lat="42.11147276464027" lon="13.08338029473588"><ele>626.0</ele><time>2026-05-01T08:56:22.999Z</time></trkpt><trkpt lat="42.111670827753144" lon="13.083364617665426"><ele>625.0</ele><time>2026-05-01T08:56:23.999Z</time></trkpt><trkpt lat="42.11187311209872" lon="13.083359218945242"><ele>624.0</ele><time>2026-05-01T08:56:24.999Z</time></trkpt><trkpt lat="42.11206840304003" lon="13.083345660130052"><ele>623.0</ele><time>2026-05-01T08:56:25.999Z</time></trkpt><trkpt lat="42.112268500464175" lon="13.08333093430081"><ele>622.6666666666666</ele><time>2026-05-01T08:56:26.999Z</time></trkpt><trkpt lat="42.11247058207307" lon="13.08331353027763"><ele>622.3333333333334</ele><time>2026-05-01T08:56:27.999Z</time></trkpt><trkpt lat="42.11267132086738" lon="13.083295657165115"><ele>622.0</ele><time>2026-05-01T08:56:28.999Z</time></trkpt><trkpt lat="42.11286901779642" lon="13.083284235146998"><ele>622.0</ele><time>2026-05-01T08:56:29.999Z</time></trkpt><trkpt lat="42.113065566785544" lon="13.083284839982399"><ele>622.0</ele><time>2026-05-01T08:56:30.999Z</time></trkpt><trkpt lat="42.11325439308889" lon="13.083290680188826"><ele>622.0</ele><time>2026-05-01T08:56:31.999Z</time></trkpt><trkpt lat="42.11342810922859" lon="13.083307908778224"><ele>620.25</ele><time>2026-05-01T08:56:32.999Z</time></trkpt><trkpt lat="42.113572090048976" lon="13.083367002716955"><ele>618.5</ele><time>2026-05-01T08:56:33.999Z</time></trkpt><trkpt lat="42.113721730348715" lon="13.083402491676168"><ele>616.75</ele><time>2026-05-01T08:56:34.999Z</time></trkpt><trkpt lat="42.11386016861809" lon="13.083462853493089"><ele>615.0</ele><time>2026-05-01T08:56:35.999Z</time></trkpt><trkpt lat="42.11400149917222" lon="13.083530878873688"><ele>616.6666666666666</ele><time>2026-05-01T08:56:36.999Z</time></trkpt><trkpt lat="42.114141962109876" lon="13.083606331720766"><ele>618.3333333333333</ele><time>2026-05-01T08:56:37.999Z</time></trkpt><trkpt lat="42.114287670937436" lon="13.083695210470605"><ele>620.0</ele><time>2026-05-01T08:56:38.999Z</time></trkpt><trkpt lat="42.11442075192844" lon="13.08380680470398"><ele>620.0</ele><time>2026-05-01T08:56:39.998Z</time></trkpt><trkpt lat="42.11456701732749" lon="13.083911144739066"><ele>620.0</ele><time>2026-05-01T08:56:40.998Z</time></trkpt><trkpt lat="42.11472271705079" lon="13.084024423101056"><ele>620.0</ele><time>2026-05-01T08:56:41.998Z</time></trkpt><trkpt lat="42.11487926091583" lon="13.084138295435537"><ele>620.6666666666666</ele><time>2026-05-01T08:56:42.998Z</time></trkpt><trkpt lat="42.1150369566698" lon="13.084253003807714"><ele>621.3333333333334</ele><time>2026-05-01T08:56:43.998Z</time></trkpt><trkpt lat="42.11518251277871" lon="13.08436937362156"><ele>622.0</ele><time>2026-05-01T08:56:44.998Z</time></trkpt><trkpt lat="42.11532827975051" lon="13.084505015599074"><ele>622.0</ele><time>2026-05-01T08:56:45.998Z</time></trkpt><trkpt lat="42.115465088078736" lon="13.084651532212588"><ele>622.0</ele><time>2026-05-01T08:56:46.998Z</time></trkpt><trkpt lat="42.1155961157481" lon="13.084820214369865"><ele>622.0</ele><time>2026-05-01T08:56:47.998Z</time></trkpt><trkpt lat="42.11571776471514" lon="13.08500104437593"><ele>624.0</ele><time>2026-05-01T08:56:48.998Z</time></trkpt><trkpt lat="42.11583021544756" lon="13.085179740802367"><ele>626.0</ele><time>2026-05-01T08:56:49.998Z</time></trkpt><trkpt lat="42.11593836100206" lon="13.085384321304936"><ele>628.0</ele><time>2026-05-01T08:56:50.998Z</time></trkpt><trkpt lat="42.11603492082197" lon="13.085616392307381"><ele>626.0</ele><time>2026-05-01T08:56:52Z</time></trkpt><trkpt lat="42.116122493555864" lon="13.085841724912726"><ele>624.0</ele><time>2026-05-01T08:56:53Z</time></trkpt><trkpt lat="42.11620973158345" lon="13.086066829345764"><ele>622.0</ele><time>2026-05-01T08:56:54Z</time></trkpt><trkpt lat="42.11629705221303" lon="13.086292146713145"><ele>622.0</ele><time>2026-05-01T08:56:55Z</time></trkpt><trkpt lat="42.116383296227674" lon="13.086514800114198"><ele>622.0</ele><time>2026-05-01T08:56:56Z</time></trkpt><trkpt lat="42.11647054377339" lon="13.08674027768553"><ele>622.0</ele><time>2026-05-01T08:56:57Z</time></trkpt><trkpt lat="42.116561576446145" lon="13.086975537422449"><ele>621.6666666666667</ele><time>2026-05-01T08:56:58Z</time></trkpt><trkpt lat="42.11665100507516" lon="13.087206651734498"><ele>621.3333333333334</ele><time>2026-05-01T08:56:59Z</time></trkpt><trkpt lat="42.11674312782148" lon="13.087444726172004"><ele>621.0</ele><time>2026-05-01T08:57:00Z</time></trkpt><trkpt lat="42.116834064855865" lon="13.087679167961394"><ele>621.0</ele><time>2026-05-01T08:57:01Z</time></trkpt><trkpt lat="42.11692530108629" lon="13.087914560833573"><ele>621.0</ele><time>2026-05-01T08:57:02Z</time></trkpt><trkpt lat="42.11701705343673" lon="13.08815128530883"><ele>621.0</ele><time>2026-05-01T08:57:03Z</time></trkpt><trkpt lat="42.11710688199915" lon="13.08838304624066"><ele>620.6666666666666</ele><time>2026-05-01T08:57:04Z</time></trkpt><trkpt lat="42.11719761650784" lon="13.088619463328799"><ele>620.3333333333333</ele><time>2026-05-01T08:57:05Z</time></trkpt><trkpt lat="42.11728722288991" lon="13.088854308157224"><ele>620.0</ele><time>2026-05-01T08:57:06Z</time></trkpt><trkpt lat="42.11737957218679" lon="13.089096340624087"><ele>621.6666666666666</ele><time>2026-05-01T08:57:07Z</time></trkpt><trkpt lat="42.11747861413864" lon="13.089334911075136"><ele>623.3333333333334</ele><time>2026-05-01T08:57:08Z</time></trkpt><trkpt lat="42.11757367690125" lon="13.08957831502078"><ele>625.0</ele><time>2026-05-01T08:57:09Z</time></trkpt><trkpt lat="42.117674456811656" lon="13.089839428962623"><ele>623.3333333333334</ele><time>2026-05-01T08:57:10Z</time></trkpt><trkpt lat="42.117771529577055" lon="13.090089723059803"><ele>621.6666666666666</ele><time>2026-05-01T08:57:11Z</time></trkpt><trkpt lat="42.11786231482916" lon="13.090353847972736"><ele>620.0</ele><time>2026-05-01T08:57:12Z</time></trkpt><trkpt lat="42.117949220943544" lon="13.090637477857019"><ele>620.5</ele><time>2026-05-01T08:57:13Z</time></trkpt><trkpt lat="42.11801389093109" lon="13.090931520511926"><ele>621.0</ele><time>2026-05-01T08:57:14Z</time></trkpt><trkpt lat="42.118068406558415" lon="13.09123097942215"><ele>621.0</ele><time>2026-05-01T08:57:15Z</time></trkpt><trkpt lat="42.11813131209949" lon="13.091539965118585"><ele>621.0</ele><time>2026-05-01T08:57:16Z</time></trkpt><trkpt lat="42.11819294942373" lon="13.091851360768212"><ele>626.5</ele><time>2026-05-01T08:57:17Z</time></trkpt><trkpt lat="42.118253545881544" lon="13.092166413076532"><ele>632.0</ele><time>2026-05-01T08:57:18Z</time></trkpt><trkpt lat="42.11831272245871" lon="13.092485285686001"><ele>632.0</ele><time>2026-05-01T08:57:19Z</time></trkpt><trkpt lat="42.11837178289656" lon="13.092803897333045"><ele>632.0</ele><time>2026-05-01T08:57:20Z</time></trkpt><trkpt lat="42.118432815340014" lon="13.093127275995714"><ele>631.5</ele><time>2026-05-01T08:57:21Z</time></trkpt><trkpt lat="42.118494076449466" lon="13.093449205887318"><ele>631.0</ele><time>2026-05-01T08:57:22Z</time></trkpt><trkpt lat="42.11855500936572" lon="13.093773474058095"><ele>629.5</ele><time>2026-05-01T08:57:23Z</time></trkpt><trkpt lat="42.11861151224922" lon="13.094094093631737"><ele>628.0</ele><time>2026-05-01T08:57:24Z</time></trkpt><trkpt lat="42.1186718646765" lon="13.094416957875243"><ele>628.0</ele><time>2026-05-01T08:57:25Z</time></trkpt><trkpt lat="42.11873274191957" lon="13.094740652840704"><ele>628.0</ele><time>2026-05-01T08:57:26Z</time></trkpt><trkpt lat="42.11879048556291" lon="13.095064527432756"><ele>626.5</ele><time>2026-05-01T08:57:27Z</time></trkpt><trkpt lat="42.118830311768235" lon="13.095392357541638"><ele>625.0</ele><time>2026-05-01T08:57:28Z</time></trkpt><trkpt lat="42.1188404093605" lon="13.095725237224872"><ele>624.5</ele><time>2026-05-01T08:57:29Z</time></trkpt><trkpt lat="42.1188421043864" lon="13.096063684621349"><ele>624.0</ele><time>2026-05-01T08:57:30Z</time></trkpt><trkpt lat="42.11883544035656" lon="13.096400767647483"><ele>623.5</ele><time>2026-05-01T08:57:31Z</time></trkpt><trkpt lat="42.11882616799851" lon="13.096732873032925"><ele>623.0</ele><time>2026-05-01T08:57:32Z</time></trkpt><trkpt lat="42.11881024071738" lon="13.097065454900223"><ele>623.0</ele><time>2026-05-01T08:57:33Z</time></trkpt><trkpt lat="42.11878653046811" lon="13.097396898252356"><ele>623.0</ele><time>2026-05-01T08:57:34Z</time></trkpt><trkpt lat="42.11874269413643" lon="13.097723683140817"><ele>623.5</ele><time>2026-05-01T08:57:35Z</time></trkpt><trkpt lat="42.118679426809905" lon="13.098045319789344"><ele>624.0</ele><time>2026-05-01T08:57:36Z</time></trkpt><trkpt lat="42.118597249587204" lon="13.098358735045228"><ele>624.5</ele><time>2026-05-01T08:57:37Z</time></trkpt><trkpt lat="42.11849464635203" lon="13.098658328356244"><ele>625.0</ele><time>2026-05-01T08:57:38Z</time></trkpt><trkpt lat="42.11837562087241" lon="13.098943172652994"><ele>626.5</ele><time>2026-05-01T08:57:39Z</time></trkpt><trkpt lat="42.11823783130585" lon="13.099213910680056"><ele>628.0</ele><time>2026-05-01T08:57:40Z</time></trkpt><trkpt lat="42.11809497605294" lon="13.099475159524951"><ele>628.0</ele><time>2026-05-01T08:57:41Z</time></trkpt><trkpt lat="42.11794853978835" lon="13.099735134010798"><ele>628.0</ele><time>2026-05-01T08:57:42Z</time></trkpt><trkpt lat="42.11781808587774" lon="13.100000265805374"><ele>629.0</ele><time>2026-05-01T08:57:43Z</time></trkpt><trkpt lat="42.11769253565265" lon="13.100286888589808"><ele>630.0</ele><time>2026-05-01T08:57:44Z</time></trkpt><trkpt lat="42.11758898862759" lon="13.100571953531022"><ele>631.0</ele><time>2026-05-01T08:57:45Z</time></trkpt><trkpt lat="42.11751666652174" lon="13.100869120629087"><ele>632.0</ele><time>2026-05-01T08:57:45.999Z</time></trkpt><trkpt lat="42.11747455534547" lon="13.101190592716671"><ele>632.0</ele><time>2026-05-01T08:57:46.999Z</time></trkpt><trkpt lat="42.11745836204824" lon="13.101533990163144"><ele>632.0</ele><time>2026-05-01T08:57:47.999Z</time></trkpt><trkpt lat="42.11745702564431" lon="13.101871412597138"><ele>633.5</ele><time>2026-05-01T08:57:48.999Z</time></trkpt><trkpt lat="42.11747091687437" lon="13.102208674855436"><ele>635.0</ele><time>2026-05-01T08:57:49.999Z</time></trkpt><trkpt lat="42.11748504691679" lon="13.102547118287038"><ele>635.0</ele><time>2026-05-01T08:57:50.999Z</time></trkpt><trkpt lat="42.117491882038294" lon="13.102886142840232"><ele>635.0</ele><time>2026-05-01T08:57:51.999Z</time></trkpt><trkpt lat="42.11749335956889" lon="13.10322059010639"><ele>635.0</ele><time>2026-05-01T08:57:52.999Z</time></trkpt><trkpt lat="42.11749562855937" lon="13.103553205176496"><ele>635.0</ele><time>2026-05-01T08:57:53.999Z</time></trkpt><trkpt lat="42.11748768729514" lon="13.103883272691437"><ele>635.0</ele><time>2026-05-01T08:57:54.999Z</time></trkpt><trkpt lat="42.11745694325883" lon="13.104208337236523"><ele>635.0</ele><time>2026-05-01T08:57:55.999Z</time></trkpt><trkpt lat="42.11740402983192" lon="13.104531894744134"><ele>636.0</ele><time>2026-05-01T08:57:56.999Z</time></trkpt><trkpt lat="42.11734574680216" lon="13.10484963176568"><ele>637.0</ele><time>2026-05-01T08:57:57.999Z</time></trkpt><trkpt lat="42.11728768341916" lon="13.105176399674155"><ele>637.0</ele><time>2026-05-01T08:57:58.999Z</time></trkpt><trkpt lat="42.11723374763267" lon="13.105504194475978"><ele>637.0</ele><time>2026-05-01T08:57:59.999Z</time></trkpt><trkpt lat="42.117184823617485" lon="13.105831888190599"><ele>637.0</ele><time>2026-05-01T08:58:00.999Z</time></trkpt><trkpt lat="42.11714438893755" lon="13.106158299860713"><ele>637.0</ele><time>2026-05-01T08:58:01.999Z</time></trkpt><trkpt lat="42.11712074705033" lon="13.106488387888621"><ele>637.5</ele><time>2026-05-01T08:58:02.999Z</time></trkpt><trkpt lat="42.1171103598873" lon="13.10682224381981"><ele>638.0</ele><time>2026-05-01T08:58:03.999Z</time></trkpt><trkpt lat="42.117100205995136" lon="13.107152174228"><ele>638.5</ele><time>2026-05-01T08:58:04.999Z</time></trkpt><trkpt lat="42.117088158344444" lon="13.107478263972986"><ele>639.0</ele><time>2026-05-01T08:58:05.999Z</time></trkpt><trkpt lat="42.11709094256748" lon="13.107795754733008"><ele>639.0</ele><time>2026-05-01T08:58:06.999Z</time></trkpt><trkpt lat="42.11712333360772" lon="13.10810968171685"><ele>639.0</ele><time>2026-05-01T08:58:07.999Z</time></trkpt><trkpt lat="42.117192103710074" lon="13.108415319179556"><ele>639.5</ele><time>2026-05-01T08:58:08.999Z</time></trkpt><trkpt lat="42.11728869591306" lon="13.108705619808642"><ele>640.0</ele><time>2026-05-01T08:58:09.999Z</time></trkpt><trkpt lat="42.11738199681329" lon="13.109000776014685"><ele>650.0</ele><time>2026-05-01T08:58:10.999Z</time></trkpt><trkpt lat="42.11746601068941" lon="13.109302708042629"><ele>660.0</ele><time>2026-05-01T08:58:11.999Z</time></trkpt><trkpt lat="42.11755556006904" lon="13.109615751436232"><ele>657.0</ele><time>2026-05-01T08:58:12.999Z</time></trkpt><trkpt lat="42.11764120151529" lon="13.109933593402232"><ele>654.0</ele><time>2026-05-01T08:58:13.999Z</time></trkpt><trkpt lat="42.117733158213966" lon="13.110244674556187"><ele>654.0</ele><time>2026-05-01T08:58:14.999Z</time></trkpt><trkpt lat="42.11782505042328" lon="13.110558302816045"><ele>654.0</ele><time>2026-05-01T08:58:15.999Z</time></trkpt><trkpt lat="42.11793015075221" lon="13.110866143204362"><ele>652.5</ele><time>2026-05-01T08:58:16.999Z</time></trkpt><trkpt lat="42.11805353900616" lon="13.111148787927092"><ele>651.0</ele><time>2026-05-01T08:58:17.999Z</time></trkpt><trkpt lat="42.11819202081746" lon="13.11140086462803"><ele>654.5</ele><time>2026-05-01T08:58:18.999Z</time></trkpt><trkpt lat="42.11836775554948" lon="13.111598605839497"><ele>658.0</ele><time>2026-05-01T08:58:19.999Z</time></trkpt><trkpt lat="42.1185703302446" lon="13.111744262137387"><ele>658.0</ele><time>2026-05-01T08:58:20.999Z</time></trkpt><trkpt lat="42.11879004954406" lon="13.111843778501045"><ele>658.0</ele><time>2026-05-01T08:58:21.999Z</time></trkpt><trkpt lat="42.11901334351408" lon="13.111948786501499"><ele>665.5</ele><time>2026-05-01T08:58:22.999Z</time></trkpt><trkpt lat="42.119238397504226" lon="13.11205562627547"><ele>673.0</ele><time>2026-05-01T08:58:23.999Z</time></trkpt><trkpt lat="42.119459002030005" lon="13.112158433812283"><ele>673.0</ele><time>2026-05-01T08:58:24.999Z</time></trkpt><trkpt lat="42.11969021943313" lon="13.112244172241803"><ele>673.0</ele><time>2026-05-01T08:58:25.999Z</time></trkpt><trkpt lat="42.119921977179565" lon="13.112316325891536"><ele>680.5</ele><time>2026-05-01T08:58:26.999Z</time></trkpt><trkpt lat="42.12016409103111" lon="13.112309888314643"><ele>688.0</ele><time>2026-05-01T08:58:27.999Z</time></trkpt><trkpt lat="42.1204129493597" lon="13.112279320282337"><ele>688.0</ele><time>2026-05-01T08:58:28.999Z</time></trkpt><trkpt lat="42.1206607363898" lon="13.112239682087788"><ele>688.0</ele><time>2026-05-01T08:58:29.999Z</time></trkpt><trkpt lat="42.12090569336211" lon="13.11221607806893"><ele>691.0</ele><time>2026-05-01T08:58:30.999Z</time></trkpt><trkpt lat="42.121143520467335" lon="13.112177951768194"><ele>694.0</ele><time>2026-05-01T08:58:31.999Z</time></trkpt><trkpt lat="42.12138326335424" lon="13.112100215484146"><ele>692.5</ele><time>2026-05-01T08:58:32.999Z</time></trkpt><trkpt lat="42.12161547358129" lon="13.111989045651782"><ele>691.0</ele><time>2026-05-01T08:58:33.999Z</time></trkpt><trkpt lat="42.121856234580754" lon="13.111846715808726"><ele>691.0</ele><time>2026-05-01T08:58:34.999Z</time></trkpt><trkpt lat="42.122064946071085" lon="13.11167191153469"><ele>691.0</ele><time>2026-05-01T08:58:35.999Z</time></trkpt><trkpt lat="42.122272885279855" lon="13.11150548264896"><ele>695.5</ele><time>2026-05-01T08:58:36.999Z</time></trkpt><trkpt lat="42.122489744561676" lon="13.111359788747471"><ele>700.0</ele><time>2026-05-01T08:58:37.999Z</time></trkpt><trkpt lat="42.12271711578999" lon="13.11124358034481"><ele>700.0</ele><time>2026-05-01T08:58:38.999Z</time></trkpt><trkpt lat="42.12294852756891" lon="13.111157301524102"><ele>700.0</ele><time>2026-05-01T08:58:39.999Z</time></trkpt><trkpt lat="42.12318615390796" lon="13.111104089352494"><ele>697.0</ele><time>2026-05-01T08:58:40.999Z</time></trkpt><trkpt lat="42.12343018454482" lon="13.111069310197623"><ele>694.0</ele><time>2026-05-01T08:58:41.998Z</time></trkpt><trkpt lat="42.12366488349183" lon="13.11105336070008"><ele>694.0</ele><time>2026-05-01T08:58:42.998Z</time></trkpt><trkpt lat="42.12390454429629" lon="13.111044638834063"><ele>694.0</ele><time>2026-05-01T08:58:43.998Z</time></trkpt><trkpt lat="42.124152504935715" lon="13.11105514380552"><ele>695.0</ele><time>2026-05-01T08:58:44.998Z</time></trkpt><trkpt lat="42.124394850429915" lon="13.111053470410234"><ele>696.0</ele><time>2026-05-01T08:58:45.998Z</time></trkpt><trkpt lat="42.12463766969159" lon="13.11105347040915"><ele>696.0</ele><time>2026-05-01T08:58:46.998Z</time></trkpt><trkpt lat="42.12488997762118" lon="13.111033061514773"><ele>696.0</ele><time>2026-05-01T08:58:47.998Z</time></trkpt><trkpt lat="42.12514534988775" lon="13.111038347557495"><ele>702.0</ele><time>2026-05-01T08:58:48.998Z</time></trkpt><trkpt lat="42.12539166765674" lon="13.11103539012982"><ele>708.0</ele><time>2026-05-01T08:58:49.998Z</time></trkpt><trkpt lat="42.12563807612154" lon="13.111032974670495"><ele>707.5</ele><time>2026-05-01T08:58:50.998Z</time></trkpt><trkpt lat="42.12588783046288" lon="13.111037396233728"><ele>707.0</ele><time>2026-05-01T08:58:51.998Z</time></trkpt><trkpt lat="42.12613130202521" lon="13.111038620309824"><ele>707.0</ele><time>2026-05-01T08:58:52.998Z</time></trkpt><trkpt lat="42.12637388613399" lon="13.11104113843536"><ele>707.0</ele><time>2026-05-01T08:58:53.998Z</time></trkpt><trkpt lat="42.126622067312056" lon="13.11103684269268"><ele>706.5</ele><time>2026-05-01T08:58:54.998Z</time></trkpt><trkpt lat="42.12686980442478" lon="13.111032257978795"><ele>706.0</ele><time>2026-05-01T08:58:55.998Z</time></trkpt><trkpt lat="42.12712103072654" lon="13.111035817232409"><ele>706.0</ele><time>2026-05-01T08:58:56.998Z</time></trkpt><trkpt lat="42.12736479331932" lon="13.111034724203964"><ele>706.0</ele><time>2026-05-01T08:58:58Z</time></trkpt><trkpt lat="42.12760963713893" lon="13.11103439597371"><ele>708.5</ele><time>2026-05-01T08:58:59Z</time></trkpt><trkpt lat="42.12785752628616" lon="13.111031759255912"><ele>711.0</ele><time>2026-05-01T08:59:00Z</time></trkpt><trkpt lat="42.12810615809588" lon="13.111021245134664"><ele>713.0</ele><time>2026-05-01T08:59:01Z</time></trkpt><trkpt lat="42.12836137205501" lon="13.111004075162622"><ele>715.0</ele><time>2026-05-01T08:59:02Z</time></trkpt><trkpt lat="42.12861399883999" lon="13.110970533748128"><ele>715.0</ele><time>2026-05-01T08:59:03Z</time></trkpt><trkpt lat="42.12886842773475" lon="13.110925643650992"><ele>715.0</ele><time>2026-05-01T08:59:04Z</time></trkpt><trkpt lat="42.12910462202314" lon="13.110873492762146"><ele>714.6666666666667</ele><time>2026-05-01T08:59:05Z</time></trkpt><trkpt lat="42.12932237120075" lon="13.110820255490644"><ele>714.3333333333334</ele><time>2026-05-01T08:59:06Z</time></trkpt><trkpt lat="42.12952824877653" lon="13.110784780796921"><ele>714.0</ele><time>2026-05-01T08:59:07Z</time></trkpt><trkpt lat="42.12971997223524" lon="13.110761875886695"><ele>716.0</ele><time>2026-05-01T08:59:08Z</time></trkpt><trkpt lat="42.12989616970571" lon="13.110772670505341"><ele>718.0</ele><time>2026-05-01T08:59:09Z</time></trkpt><trkpt lat="42.130051590629336" lon="13.110854963632963"><ele>720.0</ele><time>2026-05-01T08:59:10Z</time></trkpt><trkpt lat="42.130181305291664" lon="13.110972805130732"><ele>720.0</ele><time>2026-05-01T08:59:11Z</time></trkpt><trkpt lat="42.13028231104447" lon="13.111132308923157"><ele>720.0</ele><time>2026-05-01T08:59:12Z</time></trkpt><trkpt lat="42.13035654858816" lon="13.111312299047427"><ele>720.0</ele><time>2026-05-01T08:59:13Z</time></trkpt><trkpt lat="42.130396741879075" lon="13.111494918512198"><ele>718.0</ele><time>2026-05-01T08:59:14Z</time></trkpt><trkpt lat="42.13040748976211" lon="13.111697354939729"><ele>716.0</ele><time>2026-05-01T08:59:15Z</time></trkpt><trkpt lat="42.130398880471986" lon="13.111935007913303"><ele>714.0</ele><time>2026-05-01T08:59:16Z</time></trkpt><trkpt lat="42.130392846614384" lon="13.112174576985204"><ele>714.0</ele><time>2026-05-01T08:59:17Z</time></trkpt><trkpt lat="42.13041724019325" lon="13.112430604718869"><ele>714.0</ele><time>2026-05-01T08:59:18Z</time></trkpt><trkpt lat="42.13048805423073" lon="13.11267756893968"><ele>714.0</ele><time>2026-05-01T08:59:19Z</time></trkpt><trkpt lat="42.13060933116853" lon="13.112891103450544"><ele>718.6666666666666</ele><time>2026-05-01T08:59:20Z</time></trkpt><trkpt lat="42.1307619615895" lon="13.113059543197394"><ele>723.3333333333333</ele><time>2026-05-01T08:59:21Z</time></trkpt><trkpt lat="42.13091484448372" lon="13.113216416603109"><ele>728.0</ele><time>2026-05-01T08:59:22Z</time></trkpt><trkpt lat="42.13106917109215" lon="13.113375740258887"><ele>728.0</ele><time>2026-05-01T08:59:23Z</time></trkpt><trkpt lat="42.13120694345719" lon="13.113542479329993"><ele>728.0</ele><time>2026-05-01T08:59:24Z</time></trkpt><trkpt lat="42.131324384327506" lon="13.11374891670267"><ele>728.0</ele><time>2026-05-01T08:59:25Z</time></trkpt><trkpt lat="42.13140628176112" lon="13.11398364943039"><ele>724.3333333333333</ele><time>2026-05-01T08:59:26Z</time></trkpt><trkpt lat="42.13145437458882" lon="13.11424718901548"><ele>720.6666666666666</ele><time>2026-05-01T08:59:27Z</time></trkpt><trkpt lat="42.13149316197019" lon="13.11452255987042"><ele>717.0</ele><time>2026-05-01T08:59:28Z</time></trkpt><trkpt lat="42.13150942320824" lon="13.114806957101797"><ele>715.6666666666666</ele><time>2026-05-01T08:59:29Z</time></trkpt><trkpt lat="42.131539371321146" lon="13.115088674748447"><ele>714.3333333333333</ele><time>2026-05-01T08:59:30Z</time></trkpt><trkpt lat="42.13157206914254" lon="13.11537239033333"><ele>713.0</ele><time>2026-05-01T08:59:31Z</time></trkpt><trkpt lat="42.13163670345199" lon="13.115654675635295"><ele>724.6666666666666</ele><time>2026-05-01T08:59:32Z</time></trkpt><trkpt lat="42.131717977217846" lon="13.115912433327292"><ele>736.3333333333334</ele><time>2026-05-01T08:59:33Z</time></trkpt><trkpt lat="42.13180438037238" lon="13.116168393290035"><ele>748.0</ele><time>2026-05-01T08:59:34Z</time></trkpt><trkpt lat="42.13186399036173" lon="13.116434888026527"><ele>745.0</ele><time>2026-05-01T08:59:35Z</time></trkpt><trkpt lat="42.1318916848603" lon="13.11671294628067"><ele>742.0</ele><time>2026-05-01T08:59:36Z</time></trkpt><trkpt lat="42.13189044090517" lon="13.117000878337643"><ele>739.0</ele><time>2026-05-01T08:59:37Z</time></trkpt><trkpt lat="42.13187808085449" lon="13.117274935017878"><ele>739.6666666666667</ele><time>2026-05-01T08:59:38Z</time></trkpt><trkpt lat="42.1318606873164" lon="13.117566812936275"><ele>740.3333333333334</ele><time>2026-05-01T08:59:39Z</time></trkpt><trkpt lat="42.13184722493571" lon="13.117858977842564"><ele>741.0</ele><time>2026-05-01T08:59:40Z</time></trkpt><trkpt lat="42.13183460953236" lon="13.118155449423494"><ele>741.5</ele><time>2026-05-01T08:59:41Z</time></trkpt><trkpt lat="42.13182193502569" lon="13.11845330999833"><ele>742.0</ele><time>2026-05-01T08:59:42Z</time></trkpt><trkpt lat="42.13196442443789" lon="13.118752881240802"><ele>742.0</ele><time>2026-05-01T08:59:43Z</time></trkpt><trkpt lat="42.132017886997005" lon="13.119032764480416"><ele>742.0</ele><time>2026-05-01T08:59:44Z</time></trkpt><trkpt lat="42.132064654566626" lon="13.119318680313455"><ele>742.0</ele><time>2026-05-01T08:59:45Z</time></trkpt><trkpt lat="42.13210342311776" lon="13.119606935382555"><ele>740.0</ele><time>2026-05-01T08:59:46Z</time></trkpt><trkpt lat="42.13214155500841" lon="13.119898106087252"><ele>738.0</ele><time>2026-05-01T08:59:47Z</time></trkpt><trkpt lat="42.13218157618768" lon="13.120188787092792"><ele>736.0</ele><time>2026-05-01T08:59:48Z</time></trkpt><trkpt lat="42.132222999233576" lon="13.120479056963989"><ele>735.0</ele><time>2026-05-01T08:59:49Z</time></trkpt><trkpt lat="42.1322667815038" lon="13.120763376460816"><ele>734.0</ele><time>2026-05-01T08:59:50Z</time></trkpt><trkpt lat="42.13233304738274" lon="13.121039751489207"><ele>733.0</ele><time>2026-05-01T08:59:51Z</time></trkpt><trkpt lat="42.132433872985885" lon="13.121292587218381"><ele>741.6666666666667</ele><time>2026-05-01T08:59:51.999Z</time></trkpt><trkpt lat="42.1325620890104" lon="13.121514217740419"><ele>750.3333333333334</ele><time>2026-05-01T08:59:52.999Z</time></trkpt><trkpt lat="42.13269341253106" lon="13.121722644184388"><ele>759.0</ele><time>2026-05-01T08:59:53.999Z</time></trkpt><trkpt lat="42.13281493509028" lon="13.12191437095152"><ele>759.0</ele><time>2026-05-01T08:59:54.999Z</time></trkpt><trkpt lat="42.13292562376798" lon="13.12212695071966"><ele>759.0</ele><time>2026-05-01T08:59:55.999Z</time></trkpt><trkpt lat="42.13299806218779" lon="13.12235654611058"><ele>759.0</ele><time>2026-05-01T08:59:56.999Z</time></trkpt><trkpt lat="42.13303190427912" lon="13.122598149736339"><ele>761.6666666666666</ele><time>2026-05-01T08:59:57.999Z</time></trkpt><trkpt lat="42.13303557202542" lon="13.122847561814519"><ele>764.3333333333333</ele><time>2026-05-01T08:59:58.999Z</time></trkpt><trkpt lat="42.133004786189474" lon="13.123091563152292"><ele>767.0</ele><time>2026-05-01T08:59:59.999Z</time></trkpt><trkpt lat="42.132939164653614" lon="13.123321994409059"><ele>767.0</ele><time>2026-05-01T09:00:00.999Z</time></trkpt><trkpt lat="42.132829259518" lon="13.123545082007842"><ele>767.0</ele><time>2026-05-01T09:00:01.999Z</time></trkpt><trkpt lat="42.132716784479356" lon="13.12377696909069"><ele>767.0</ele><time>2026-05-01T09:00:02.999Z</time></trkpt><trkpt lat="42.132619919584684" lon="13.124008036305444"><ele>765.3333333333333</ele><time>2026-05-01T09:00:03.999Z</time></trkpt><trkpt lat="42.13250734721293" lon="13.124218793365504"><ele>763.6666666666666</ele><time>2026-05-01T09:00:04.999Z</time></trkpt><trkpt lat="42.13236389224635" lon="13.124406537713284"><ele>762.0</ele><time>2026-05-01T09:00:05.999Z</time></trkpt><trkpt lat="42.13220122194643" lon="13.124561506374585"><ele>762.0</ele><time>2026-05-01T09:00:06.999Z</time></trkpt><trkpt lat="42.132030585747515" lon="13.124700518009437"><ele>762.0</ele><time>2026-05-01T09:00:07.999Z</time></trkpt><trkpt lat="42.131847999662675" lon="13.124816426789073"><ele>762.0</ele><time>2026-05-01T09:00:08.999Z</time></trkpt><trkpt lat="42.13165230484997" lon="13.124899818494377"><ele>770.6666666666667</ele><time>2026-05-01T09:00:09.999Z</time></trkpt><trkpt lat="42.13145178558298" lon="13.124944019553576"><ele>779.3333333333334</ele><time>2026-05-01T09:00:10.999Z</time></trkpt><trkpt lat="42.13125390391273" lon="13.124942634016989"><ele>788.0</ele><time>2026-05-01T09:00:11.999Z</time></trkpt><trkpt lat="42.13105250451514" lon="13.124909963099931"><ele>789.0</ele><time>2026-05-01T09:00:12.999Z</time></trkpt><trkpt lat="42.130855644475226" lon="13.124848891943309"><ele>790.0</ele><time>2026-05-01T09:00:13.999Z</time></trkpt><trkpt lat="42.13066464670108" lon="13.124750899687228"><ele>791.0</ele><time>2026-05-01T09:00:14.999Z</time></trkpt><trkpt lat="42.130474351686395" lon="13.124644732462276"><ele>791.0</ele><time>2026-05-01T09:00:15.999Z</time></trkpt><trkpt lat="42.130279547445404" lon="13.124544835789727"><ele>791.0</ele><time>2026-05-01T09:00:16.999Z</time></trkpt><trkpt lat="42.130083105876096" lon="13.12446139314251"><ele>791.0</ele><time>2026-05-01T09:00:17.999Z</time></trkpt><trkpt lat="42.12990257438143" lon="13.124383856064151"><ele>793.0</ele><time>2026-05-01T09:00:18.999Z</time></trkpt><trkpt lat="42.12972290208589" lon="13.124311318787715"><ele>795.0</ele><time>2026-05-01T09:00:19.999Z</time></trkpt><trkpt lat="42.12955496288528" lon="13.124240312447885"><ele>797.0</ele><time>2026-05-01T09:00:20.999Z</time></trkpt><trkpt lat="42.12936687390307" lon="13.1241779208664"><ele>797.0</ele><time>2026-05-01T09:00:21.999Z</time></trkpt><trkpt lat="42.12917216244148" lon="13.124104468619317"><ele>797.0</ele><time>2026-05-01T09:00:22.999Z</time></trkpt><trkpt lat="42.128972717539" lon="13.124023664577113"><ele>797.0</ele><time>2026-05-01T09:00:23.999Z</time></trkpt><trkpt lat="42.1287719660814" lon="13.123936893011775"><ele>800.3333333333334</ele><time>2026-05-01T09:00:24.999Z</time></trkpt><trkpt lat="42.12857041732357" lon="13.123846240711005"><ele>803.6666666666667</ele><time>2026-05-01T09:00:25.999Z</time></trkpt><trkpt lat="42.128378076930616" lon="13.123742908120382"><ele>807.0</ele><time>2026-05-01T09:00:26.999Z</time></trkpt><trkpt lat="42.128198411131095" lon="13.123618471791984"><ele>807.0</ele><time>2026-05-01T09:00:27.999Z</time></trkpt><trkpt lat="42.12802313733132" lon="13.123473838964943"><ele>807.0</ele><time>2026-05-01T09:00:28.999Z</time></trkpt><trkpt lat="42.12786137616411" lon="13.123305727643084"><ele>807.0</ele><time>2026-05-01T09:00:29.999Z</time></trkpt><trkpt lat="42.12771530987748" lon="13.123107490519837"><ele>808.6666666666667</ele><time>2026-05-01T09:00:30.999Z</time></trkpt><trkpt lat="42.12757316704202" lon="13.122883567114636"><ele>810.3333333333334</ele><time>2026-05-01T09:00:31.999Z</time></trkpt><trkpt lat="42.12743102284601" lon="13.122673638421034"><ele>812.0</ele><time>2026-05-01T09:00:32.999Z</time></trkpt><trkpt lat="42.12728849420822" lon="13.122461960761985"><ele>809.6666666666667</ele><time>2026-05-01T09:00:33.999Z</time></trkpt><trkpt lat="42.12714777065618" lon="13.122250290292195"><ele>807.3333333333333</ele><time>2026-05-01T09:00:34.999Z</time></trkpt><trkpt lat="42.12701216893962" lon="13.122038194821407"><ele>805.0</ele><time>2026-05-01T09:00:35.999Z</time></trkpt><trkpt lat="42.126880453084794" lon="13.121828864253002"><ele>805.0</ele><time>2026-05-01T09:00:36.999Z</time></trkpt><trkpt lat="42.12675358251945" lon="13.121628686510313"><ele>805.0</ele><time>2026-05-01T09:00:37.999Z</time></trkpt><trkpt lat="42.126624909879254" lon="13.121460285029"><ele>805.0</ele><time>2026-05-01T09:00:38.999Z</time></trkpt><trkpt lat="42.126488612127986" lon="13.121330980404297"><ele>803.3333333333333</ele><time>2026-05-01T09:00:39.999Z</time></trkpt><trkpt lat="42.12633708888379" lon="13.121254124329388"><ele>801.6666666666667</ele><time>2026-05-01T09:00:40.999Z</time></trkpt><trkpt lat="42.12617413944735" lon="13.121226061035081"><ele>800.0</ele><time>2026-05-01T09:00:41.999Z</time></trkpt><trkpt lat="42.126015611568555" lon="13.121247994315384"><ele>800.0</ele><time>2026-05-01T09:00:42.999Z</time></trkpt><trkpt lat="42.12587470563457" lon="13.121326663577518"><ele>800.0</ele><time>2026-05-01T09:00:43.999Z</time></trkpt><trkpt lat="42.12575411294578" lon="13.121418168221656"><ele>800.0</ele><time>2026-05-01T09:00:44.999Z</time></trkpt><trkpt lat="42.1256660498623" lon="13.121579852766853"><ele>800.0</ele><time>2026-05-01T09:00:45.999Z</time></trkpt><trkpt lat="42.125600696473605" lon="13.121804840815939"><ele>811.0</ele><time>2026-05-01T09:00:46.999Z</time></trkpt><trkpt lat="42.12556845567356" lon="13.122053125682198"><ele>822.0</ele><time>2026-05-01T09:00:47.999Z</time></trkpt><trkpt lat="42.12556003420891" lon="13.122318551338653"><ele>833.0</ele><time>2026-05-01T09:00:48.998Z</time></trkpt><trkpt lat="42.125618378513714" lon="13.12257407007614"><ele>833.0</ele><time>2026-05-01T09:00:49.998Z</time></trkpt><trkpt lat="42.1257217545748" lon="13.12282065008025"><ele>833.0</ele><time>2026-05-01T09:00:50.998Z</time></trkpt><trkpt lat="42.12583403491266" lon="13.123057694720128"><ele>833.0</ele><time>2026-05-01T09:00:51.998Z</time></trkpt><trkpt lat="42.125941142470246" lon="13.123288305984033"><ele>833.0</ele><time>2026-05-01T09:00:52.998Z</time></trkpt><trkpt lat="42.1260506828341" lon="13.123521895760804"><ele>833.0</ele><time>2026-05-01T09:00:53.998Z</time></trkpt><trkpt lat="42.12615806209233" lon="13.123747713622258"><ele>833.0</ele><time>2026-05-01T09:00:54.998Z</time></trkpt><trkpt lat="42.12627254572751" lon="13.123987361154155"><ele>830.6666666666667</ele><time>2026-05-01T09:00:55.998Z</time></trkpt><trkpt lat="42.12637644550027" lon="13.124206469906929"><ele>828.3333333333333</ele><time>2026-05-01T09:00:56.998Z</time></trkpt><trkpt lat="42.12649139616017" lon="13.124449593893123"><ele>826.0</ele><time>2026-05-01T09:00:57.998Z</time></trkpt><trkpt lat="42.126611324460455" lon="13.12470325404969"><ele>830.0</ele><time>2026-05-01T09:00:58.998Z</time></trkpt><trkpt lat="42.126729155404945" lon="13.124953907957044"><ele>834.0</ele><time>2026-05-01T09:00:59.998Z</time></trkpt><trkpt lat="42.12686291951889" lon="13.125199835427221"><ele>838.0</ele><time>2026-05-01T09:01:00.998Z</time></trkpt><trkpt lat="42.1269828664282" lon="13.125457505674248"><ele>838.0</ele><time>2026-05-01T09:01:01.998Z</time></trkpt><trkpt lat="42.12710187327168" lon="13.125718277268327"><ele>838.0</ele><time>2026-05-01T09:01:02.998Z</time></trkpt><trkpt lat="42.127221256473675" lon="13.12597987918202"><ele>834.5</ele><time>2026-05-01T09:01:04Z</time></trkpt><trkpt lat="42.12734155047912" lon="13.126241784433258"><ele>831.0</ele><time>2026-05-01T09:01:05Z</time></trkpt><trkpt lat="42.12746119699974" lon="13.126504693368576"><ele>833.5</ele><time>2026-05-01T09:01:06Z</time></trkpt><trkpt lat="42.12757714777814" lon="13.126767649171493"><ele>836.0</ele><time>2026-05-01T09:01:07Z</time></trkpt><trkpt lat="42.127704041496095" lon="13.127031652490567"><ele>836.0</ele><time>2026-05-01T09:01:08Z</time></trkpt><trkpt lat="42.12785183823433" lon="13.127276007550774"><ele>836.0</ele><time>2026-05-01T09:01:09Z</time></trkpt><trkpt lat="42.12801853030085" lon="13.127488894907192"><ele>835.0</ele><time>2026-05-01T09:01:10Z</time></trkpt><trkpt lat="42.12820659730595" lon="13.127668556664883"><ele>834.0</ele><time>2026-05-01T09:01:11Z</time></trkpt><trkpt lat="42.128404418554794" lon="13.127819979705974"><ele>834.0</ele><time>2026-05-01T09:01:12Z</time></trkpt><trkpt lat="42.12861073254526" lon="13.127945672819147"><ele>834.0</ele><time>2026-05-01T09:01:13Z</time></trkpt><trkpt lat="42.128823642204125" lon="13.128035177938985"><ele>834.0</ele><time>2026-05-01T09:01:14Z</time></trkpt><trkpt lat="42.12904042903001" lon="13.128108193239603"><ele>836.0</ele><time>2026-05-01T09:01:15Z</time></trkpt><trkpt lat="42.12926007156251" lon="13.128177245767178"><ele>838.0</ele><time>2026-05-01T09:01:16Z</time></trkpt><trkpt lat="42.12948736974577" lon="13.128258671457337"><ele>844.5</ele><time>2026-05-01T09:01:17Z</time></trkpt><trkpt lat="42.12971055875982" lon="13.128335154452285"><ele>851.0</ele><time>2026-05-01T09:01:18Z</time></trkpt><trkpt lat="42.12993254755473" lon="13.12840963522425"><ele>851.5</ele><time>2026-05-01T09:01:19Z</time></trkpt><trkpt lat="42.13015796940836" lon="13.128490833861992"><ele>852.0</ele><time>2026-05-01T09:01:20Z</time></trkpt><trkpt lat="42.13037785483505" lon="13.128566950197078"><ele>852.0</ele><time>2026-05-01T09:01:21Z</time></trkpt><trkpt lat="42.13059395349159" lon="13.128639641013379"><ele>852.0</ele><time>2026-05-01T09:01:22Z</time></trkpt><trkpt lat="42.1308083509357" lon="13.128724675092627"><ele>852.0</ele><time>2026-05-01T09:01:23Z</time></trkpt><trkpt lat="42.13101881170045" lon="13.128823994482444"><ele>852.6666666666667</ele><time>2026-05-01T09:01:24Z</time></trkpt><trkpt lat="42.13121972748164" lon="13.128946825861382"><ele>853.3333333333334</ele><time>2026-05-01T09:01:25Z</time></trkpt><trkpt lat="42.1314103356228" lon="13.129095569672213"><ele>854.0</ele><time>2026-05-01T09:01:26Z</time></trkpt><trkpt lat="42.131591156848046" lon="13.12926945003608"><ele>854.0</ele><time>2026-05-01T09:01:27Z</time></trkpt><trkpt lat="42.131761011226" lon="13.129459062479606"><ele>854.0</ele><time>2026-05-01T09:01:28Z</time></trkpt><trkpt lat="42.13190913913063" lon="13.129673551686809"><ele>854.0</ele><time>2026-05-01T09:01:29Z</time></trkpt><trkpt lat="42.132071063466675" lon="13.129873470456252"><ele>857.6666666666667</ele><time>2026-05-01T09:01:30Z</time></trkpt><trkpt lat="42.132229665141104" lon="13.130069268673466"><ele>861.3333333333333</ele><time>2026-05-01T09:01:31Z</time></trkpt><trkpt lat="42.13238439938594" lon="13.130260294544117"><ele>865.0</ele><time>2026-05-01T09:01:32Z</time></trkpt><trkpt lat="42.13253457792621" lon="13.130445695899368"><ele>865.0</ele><time>2026-05-01T09:01:33Z</time></trkpt><trkpt lat="42.13268275539274" lon="13.130628626999838"><ele>865.0</ele><time>2026-05-01T09:01:34Z</time></trkpt><trkpt lat="42.1328346848366" lon="13.130786613514193"><ele>865.0</ele><time>2026-05-01T09:01:35Z</time></trkpt><trkpt lat="42.132971905755205" lon="13.130959545615317"><ele>863.3333333333333</ele><time>2026-05-01T09:01:36Z</time></trkpt><trkpt lat="42.13309577161882" lon="13.131141316091794"><ele>861.6666666666667</ele><time>2026-05-01T09:01:37Z</time></trkpt><trkpt lat="42.133224990240684" lon="13.131305232840443"><ele>860.0</ele><time>2026-05-01T09:01:38Z</time></trkpt><trkpt lat="42.13334726760084" lon="13.13147432174141"><ele>864.3333333333334</ele><time>2026-05-01T09:01:39Z</time></trkpt><trkpt lat="42.13345057869755" lon="13.131665914702758"><ele>868.6666666666667</ele><time>2026-05-01T09:01:40Z</time></trkpt><trkpt lat="42.13355157838822" lon="13.1318683455829"><ele>873.0</ele><time>2026-05-01T09:01:41Z</time></trkpt><trkpt lat="42.13367647351544" lon="13.132056031294486"><ele>873.0</ele><time>2026-05-01T09:01:42Z</time></trkpt><trkpt lat="42.13377866270238" lon="13.132270974672076"><ele>873.0</ele><time>2026-05-01T09:01:43Z</time></trkpt><trkpt lat="42.133884545902234" lon="13.132490329215619"><ele>873.0</ele><time>2026-05-01T09:01:44Z</time></trkpt><trkpt lat="42.133993722657706" lon="13.132712073967332"><ele>874.0</ele><time>2026-05-01T09:01:45Z</time></trkpt><trkpt lat="42.13410495747398" lon="13.1329369359596"><ele>875.0</ele><time>2026-05-01T09:01:46Z</time></trkpt><trkpt lat="42.13419305263749" lon="13.133182947659302"><ele>876.0</ele><time>2026-05-01T09:01:47Z</time></trkpt><trkpt lat="42.13430144528778" lon="13.133412377170787"><ele>878.6666666666667</ele><time>2026-05-01T09:01:48Z</time></trkpt><trkpt lat="42.134413072226714" lon="13.13363790578868"><ele>881.3333333333334</ele><time>2026-05-01T09:01:49Z</time></trkpt><trkpt lat="42.13454129020269" lon="13.133850314559615"><ele>884.0</ele><time>2026-05-01T09:01:50Z</time></trkpt><trkpt lat="42.13462945183954" lon="13.134096920036919"><ele>887.6666666666667</ele><time>2026-05-01T09:01:51Z</time></trkpt><trkpt lat="42.13469467574101" lon="13.134359299684265"><ele>891.3333333333333</ele><time>2026-05-01T09:01:52Z</time></trkpt><trkpt lat="42.13473767375521" lon="13.13462786686845"><ele>895.0</ele><time>2026-05-01T09:01:53Z</time></trkpt><trkpt lat="42.13475963875494" lon="13.13489959450306"><ele>898.0</ele><time>2026-05-01T09:01:54Z</time></trkpt><trkpt lat="42.13474868262662" lon="13.135175402906736"><ele>901.0</ele><time>2026-05-01T09:01:55Z</time></trkpt><trkpt lat="42.13471063928715" lon="13.13544341178082"><ele>904.0</ele><time>2026-05-01T09:01:56Z</time></trkpt><trkpt lat="42.13464736224345" lon="13.135700077456113"><ele>903.6666666666666</ele><time>2026-05-01T09:01:57Z</time></trkpt><trkpt lat="42.13454488598976" lon="13.13593410289974"><ele>903.3333333333333</ele><time>2026-05-01T09:01:58Z</time></trkpt><trkpt lat="42.134467270504416" lon="13.136190589814358"><ele>903.0</ele><time>2026-05-01T09:01:59Z</time></trkpt><trkpt lat="42.13437490105014" lon="13.136450021520446"><ele>901.3333333333333</ele><time>2026-05-01T09:01:59.999Z</time></trkpt><trkpt lat="42.134267738142995" lon="13.136702772343249"><ele>899.6666666666666</ele><time>2026-05-01T09:02:00.999Z</time></trkpt><trkpt lat="42.13417183905783" lon="13.136965548116994"><ele>898.0</ele><time>2026-05-01T09:02:01.999Z</time></trkpt><trkpt lat="42.13407599991835" lon="13.137227047678559"><ele>904.6666666666666</ele><time>2026-05-01T09:02:02.999Z</time></trkpt><trkpt lat="42.133980259210475" lon="13.137487765568755"><ele>911.3333333333333</ele><time>2026-05-01T09:02:03.999Z</time></trkpt><trkpt lat="42.13388360104138" lon="13.137742379538912"><ele>918.0</ele><time>2026-05-01T09:02:04.999Z</time></trkpt><trkpt lat="42.133768458562656" lon="13.13797649799897"><ele>918.0</ele><time>2026-05-01T09:02:05.999Z</time></trkpt><trkpt lat="42.13362517344373" lon="13.138189552198059"><ele>918.0</ele><time>2026-05-01T09:02:06.999Z</time></trkpt><trkpt lat="42.13346239450905" lon="13.138381387487913"><ele>918.0</ele><time>2026-05-01T09:02:07.999Z</time></trkpt><trkpt lat="42.13329983625414" lon="13.13857156181883"><ele>920.6666666666667</ele><time>2026-05-01T09:02:08.999Z</time></trkpt><trkpt lat="42.133131422779336" lon="13.1387685857738"><ele>923.3333333333334</ele><time>2026-05-01T09:02:09.999Z</time></trkpt><trkpt lat="42.13296247243362" lon="13.13896623776178"><ele>926.0</ele><time>2026-05-01T09:02:10.999Z</time></trkpt><trkpt lat="42.132793428428066" lon="13.139163768120477"><ele>928.6666666666667</ele><time>2026-05-01T09:02:11.999Z</time></trkpt><trkpt lat="42.132627848559196" lon="13.139356211130286"><ele>931.3333333333333</ele><time>2026-05-01T09:02:12.999Z</time></trkpt><trkpt lat="42.132464201894315" lon="13.13954640725885"><ele>934.0</ele><time>2026-05-01T09:02:13.999Z</time></trkpt><trkpt lat="42.13230233625899" lon="13.139733890367232"><ele>926.0</ele><time>2026-05-01T09:02:14.999Z</time></trkpt><trkpt lat="42.1321395240191" lon="13.139921936530175"><ele>918.0</ele><time>2026-05-01T09:02:15.999Z</time></trkpt><trkpt lat="42.131979442193014" lon="13.140117239143189"><ele>910.0</ele><time>2026-05-01T09:02:16.999Z</time></trkpt><trkpt lat="42.13182948439617" lon="13.140324125044495"><ele>910.0</ele><time>2026-05-01T09:02:17.999Z</time></trkpt><trkpt lat="42.131683730759455" lon="13.140544982270939"><ele>910.0</ele><time>2026-05-01T09:02:18.999Z</time></trkpt><trkpt lat="42.13158025231997" lon="13.140807063161047"><ele>910.0</ele><time>2026-05-01T09:02:19.999Z</time></trkpt><trkpt lat="42.131489801667364" lon="13.141077676055286"><ele>911.0</ele><time>2026-05-01T09:02:20.999Z</time></trkpt><trkpt lat="42.131421318877926" lon="13.141368352302203"><ele>912.0</ele><time>2026-05-01T09:02:21.999Z</time></trkpt><trkpt lat="42.13134383999616" lon="13.141657374862175"><ele>912.0</ele><time>2026-05-01T09:02:22.999Z</time></trkpt><trkpt lat="42.131273285789554" lon="13.141948019589812"><ele>912.0</ele><time>2026-05-01T09:02:23.999Z</time></trkpt><trkpt lat="42.13120330264911" lon="13.1422374041295"><ele>911.0</ele><time>2026-05-01T09:02:24.999Z</time></trkpt><trkpt lat="42.13112603373222" lon="13.14251061469208"><ele>910.0</ele><time>2026-05-01T09:02:25.999Z</time></trkpt><trkpt lat="42.131015164356604" lon="13.14275785255108"><ele>909.0</ele><time>2026-05-01T09:02:26.999Z</time></trkpt><trkpt lat="42.1308823489481" lon="13.142962473420544"><ele>909.0</ele><time>2026-05-01T09:02:27.999Z</time></trkpt><trkpt lat="42.130728870123605" lon="13.143129576732585"><ele>909.0</ele><time>2026-05-01T09:02:28.999Z</time></trkpt><trkpt lat="42.13056111444318" lon="13.14326154707471"><ele>909.0</ele><time>2026-05-01T09:02:29.999Z</time></trkpt><trkpt lat="42.13037613293662" lon="13.143391549758464"><ele>910.6666666666667</ele><time>2026-05-01T09:02:30.999Z</time></trkpt><trkpt lat="42.13019195420875" lon="13.143520965150046"><ele>912.3333333333334</ele><time>2026-05-01T09:02:31.999Z</time></trkpt><trkpt lat="42.13000245231913" lon="13.143657165096682"><ele>914.0</ele><time>2026-05-01T09:02:32.999Z</time></trkpt><trkpt lat="42.129817077014245" lon="13.143791134841646"><ele>913.0</ele><time>2026-05-01T09:02:33.999Z</time></trkpt><trkpt lat="42.129622268077895" lon="13.143931923578702"><ele>912.0</ele><time>2026-05-01T09:02:34.999Z</time></trkpt><trkpt lat="42.12942798685854" lon="13.144071181699667"><ele>911.0</ele><time>2026-05-01T09:02:35.999Z</time></trkpt><trkpt lat="42.12923479258973" lon="13.144208590512578"><ele>921.0</ele><time>2026-05-01T09:02:36.999Z</time></trkpt><trkpt lat="42.129044045355755" lon="13.14434966653881"><ele>931.0</ele><time>2026-05-01T09:02:37.999Z</time></trkpt><trkpt lat="42.128866382503304" lon="13.14450996815637"><ele>941.0</ele><time>2026-05-01T09:02:38.999Z</time></trkpt><trkpt lat="42.12871297751692" lon="13.14471709569355"><ele>931.0</ele><time>2026-05-01T09:02:39.999Z</time></trkpt><trkpt lat="42.12858304166796" lon="13.14496099434789"><ele>921.0</ele><time>2026-05-01T09:02:40.999Z</time></trkpt><trkpt lat="42.12847629546282" lon="13.145243513445118"><ele>921.0</ele><time>2026-05-01T09:02:41.999Z</time></trkpt><trkpt lat="42.12838038644316" lon="13.145525779419897"><ele>921.0</ele><time>2026-05-01T09:02:42.999Z</time></trkpt><trkpt lat="42.12828437677084" lon="13.145809898031482"><ele>931.0</ele><time>2026-05-01T09:02:43.999Z</time></trkpt><trkpt lat="42.12818902919452" lon="13.146093130245305"><ele>941.0</ele><time>2026-05-01T09:02:44.999Z</time></trkpt><trkpt lat="42.128092913815685" lon="13.146371777004854"><ele>937.0</ele><time>2026-05-01T09:02:45.999Z</time></trkpt><trkpt lat="42.12799328958952" lon="13.146641470218563"><ele>933.0</ele><time>2026-05-01T09:02:46.999Z</time></trkpt><trkpt lat="42.127876655749034" lon="13.146903126606812"><ele>933.0</ele><time>2026-05-01T09:02:47.999Z</time></trkpt><trkpt lat="42.127738944233826" lon="13.147142531301448"><ele>933.0</ele><time>2026-05-01T09:02:48.999Z</time></trkpt><trkpt lat="42.12758770322535" lon="13.14737142463185"><ele>927.0</ele><time>2026-05-01T09:02:49.999Z</time></trkpt><trkpt lat="42.12743773775916" lon="13.147596198544443"><ele>921.0</ele><time>2026-05-01T09:02:50.999Z</time></trkpt><trkpt lat="42.12728708783383" lon="13.147823287880493"><ele>925.6666666666667</ele><time>2026-05-01T09:02:51.999Z</time></trkpt><trkpt lat="42.12713690513921" lon="13.14805319772449"><ele>930.3333333333334</ele><time>2026-05-01T09:02:52.999Z</time></trkpt><trkpt lat="42.12698872180281" lon="13.148276379586804"><ele>935.0</ele><time>2026-05-01T09:02:53.999Z</time></trkpt><trkpt lat="42.12684039889262" lon="13.148496185281756"><ele>935.0</ele><time>2026-05-01T09:02:54.999Z</time></trkpt><trkpt lat="42.12669080310619" lon="13.1487135877605"><ele>935.0</ele><time>2026-05-01T09:02:55.999Z</time></trkpt><trkpt lat="42.126529427984494" lon="13.148906283278826"><ele>935.0</ele><time>2026-05-01T09:02:56.999Z</time></trkpt><trkpt lat="42.126345943597094" lon="13.149061140108794"><ele>935.0</ele><time>2026-05-01T09:02:57.999Z</time></trkpt><trkpt lat="42.12615312248145" lon="13.149219196187117"><ele>935.0</ele><time>2026-05-01T09:02:58.998Z</time></trkpt><trkpt lat="42.12597346397994" lon="13.1494008572101"><ele>935.0</ele><time>2026-05-01T09:02:59.998Z</time></trkpt><trkpt lat="42.12581070726681" lon="13.149611022065287"><ele>935.0</ele><time>2026-05-01T09:03:00.998Z</time></trkpt><trkpt lat="42.125653965871464" lon="13.14983030803764"><ele>943.0</ele><time>2026-05-01T09:03:01.998Z</time></trkpt><trkpt lat="42.12549991305812" lon="13.150051862274005"><ele>951.0</ele><time>2026-05-01T09:03:02.998Z</time></trkpt><trkpt lat="42.12534660298472" lon="13.150277742595877"><ele>951.0</ele><time>2026-05-01T09:03:03.998Z</time></trkpt><trkpt lat="42.12520019650502" lon="13.150521088651795"><ele>951.0</ele><time>2026-05-01T09:03:04.998Z</time></trkpt><trkpt lat="42.12505940705191" lon="13.150771801917623"><ele>956.5</ele><time>2026-05-01T09:03:05.998Z</time></trkpt><trkpt lat="42.124917054563255" lon="13.151025302545465"><ele>962.0</ele><time>2026-05-01T09:03:06.998Z</time></trkpt><trkpt lat="42.12477609607671" lon="13.151276320749016"><ele>950.0</ele><time>2026-05-01T09:03:07.998Z</time></trkpt><trkpt lat="42.12467166183591" lon="13.151576268636274"><ele>938.0</ele><time>2026-05-01T09:03:08.998Z</time></trkpt><trkpt lat="42.124532614071676" lon="13.151846158541368"><ele>938.0</ele><time>2026-05-01T09:03:10Z</time></trkpt><trkpt lat="42.12439270252768" lon="13.152111240797852"><ele>938.0</ele><time>2026-05-01T09:03:11Z</time></trkpt><trkpt lat="42.12425578988702" lon="13.152378422128445"><ele>937.5</ele><time>2026-05-01T09:03:12Z</time></trkpt><trkpt lat="42.12411181562493" lon="13.152657218709491"><ele>937.0</ele><time>2026-05-01T09:03:13Z</time></trkpt><trkpt lat="42.12397111516704" lon="13.152936090331927"><ele>927.5</ele><time>2026-05-01T09:03:14Z</time></trkpt><trkpt lat="42.12383212402878" lon="13.153209372126744"><ele>918.0</ele><time>2026-05-01T09:03:15Z</time></trkpt><trkpt lat="42.123695940673244" lon="13.153488520944201"><ele>918.0</ele><time>2026-05-01T09:03:16Z</time></trkpt><trkpt lat="42.12356223685576" lon="13.153763200687202"><ele>918.0</ele><time>2026-05-01T09:03:17Z</time></trkpt><trkpt lat="42.12342691424106" lon="13.15403068764339"><ele>917.0</ele><time>2026-05-01T09:03:18Z</time></trkpt><trkpt lat="42.123289318622966" lon="13.154289525002053"><ele>916.0</ele><time>2026-05-01T09:03:19Z</time></trkpt><trkpt lat="42.123150332042655" lon="13.154535536513142"><ele>916.0</ele><time>2026-05-01T09:03:20Z</time></trkpt><trkpt lat="42.12302152386555" lon="13.15477503067817"><ele>916.0</ele><time>2026-05-01T09:03:21Z</time></trkpt><trkpt lat="42.12290078840891" lon="13.155014741512584"><ele>916.0</ele><time>2026-05-01T09:03:22Z</time></trkpt><trkpt lat="42.122792919550264" lon="13.155255795080974"><ele>915.0</ele><time>2026-05-01T09:03:23Z</time></trkpt><trkpt lat="42.12270986402584" lon="13.155498032481654"><ele>914.0</ele><time>2026-05-01T09:03:24Z</time></trkpt><trkpt lat="42.12263340877323" lon="13.1557377078453"><ele>913.0</ele><time>2026-05-01T09:03:25Z</time></trkpt><trkpt lat="42.12255230368385" lon="13.155968725187599"><ele>913.0</ele><time>2026-05-01T09:03:26Z</time></trkpt><trkpt lat="42.12247274883786" lon="13.156187351895932"><ele>913.0</ele><time>2026-05-01T09:03:27Z</time></trkpt><trkpt lat="42.122399120732524" lon="13.15640208288183"><ele>913.0</ele><time>2026-05-01T09:03:28Z</time></trkpt><trkpt lat="42.12233883714769" lon="13.156614554845637"><ele>910.6666666666666</ele><time>2026-05-01T09:03:29Z</time></trkpt><trkpt lat="42.12229755551135" lon="13.156837542103606"><ele>908.3333333333333</ele><time>2026-05-01T09:03:30Z</time></trkpt><trkpt lat="42.12229065690446" lon="13.157074978542157"><ele>906.0</ele><time>2026-05-01T09:03:31Z</time></trkpt><trkpt lat="42.12231225369535" lon="13.157319879815102"><ele>905.6666666666667</ele><time>2026-05-01T09:03:32Z</time></trkpt><trkpt lat="42.12233864565842" lon="13.157558815198893"><ele>905.3333333333334</ele><time>2026-05-01T09:03:33Z</time></trkpt><trkpt lat="42.12236482812895" lon="13.157804680618757"><ele>905.0</ele><time>2026-05-01T09:03:34Z</time></trkpt><trkpt lat="42.12239005173643" lon="13.158060295627266"><ele>906.0</ele><time>2026-05-01T09:03:35Z</time></trkpt><trkpt lat="42.122411749896955" lon="13.158329945014057"><ele>907.0</ele><time>2026-05-01T09:03:36Z</time></trkpt><trkpt lat="42.1224376791764" lon="13.158608575340828"><ele>908.0</ele><time>2026-05-01T09:03:37Z</time></trkpt><trkpt lat="42.12246902515896" lon="13.158899674461875"><ele>907.5</ele><time>2026-05-01T09:03:38Z</time></trkpt><trkpt lat="42.122508388287066" lon="13.159201408168794"><ele>907.0</ele><time>2026-05-01T09:03:39Z</time></trkpt><trkpt lat="42.12254548844504" lon="13.159513758073771"><ele>907.0</ele><time>2026-05-01T09:03:40Z</time></trkpt><trkpt lat="42.122581136575185" lon="13.159831181967773"><ele>907.0</ele><time>2026-05-01T09:03:41Z</time></trkpt><trkpt lat="42.12261625578277" lon="13.160151482678383"><ele>907.0</ele><time>2026-05-01T09:03:42Z</time></trkpt><trkpt lat="42.1226478717852" lon="13.160475903816689"><ele>907.0</ele><time>2026-05-01T09:03:43Z</time></trkpt><trkpt lat="42.12267784503717" lon="13.160798669777677"><ele>907.0</ele><time>2026-05-01T09:03:44Z</time></trkpt><trkpt lat="42.12270278502335" lon="13.161112697734369"><ele>907.0</ele><time>2026-05-01T09:03:45Z</time></trkpt><trkpt lat="42.122728753340105" lon="13.161412230626231"><ele>906.6666666666666</ele><time>2026-05-01T09:03:46Z</time></trkpt><trkpt lat="42.122751941457686" lon="13.161696946448409"><ele>906.3333333333333</ele><time>2026-05-01T09:03:47Z</time></trkpt><trkpt lat="42.12277651792101" lon="13.161956222031868"><ele>906.0</ele><time>2026-05-01T09:03:48Z</time></trkpt><trkpt lat="42.12279959878814" lon="13.162212227645105"><ele>906.0</ele><time>2026-05-01T09:03:49Z</time></trkpt><trkpt lat="42.122810774587" lon="13.162483005554332"><ele>906.0</ele><time>2026-05-01T09:03:50Z</time></trkpt><trkpt lat="42.12279475193898" lon="13.162759416126267"><ele>906.0</ele><time>2026-05-01T09:03:51Z</time></trkpt><trkpt lat="42.12274394396618" lon="13.163033356296683"><ele>906.6666666666667</ele><time>2026-05-01T09:03:52Z</time></trkpt><trkpt lat="42.1226713888865" lon="13.163305681213263"><ele>907.3333333333334</ele><time>2026-05-01T09:03:53Z</time></trkpt><trkpt lat="42.12260957499729" lon="13.163583287642169"><ele>908.0</ele><time>2026-05-01T09:03:54Z</time></trkpt><trkpt lat="42.12254964370036" lon="13.163869124210924"><ele>910.5</ele><time>2026-05-01T09:03:55Z</time></trkpt><trkpt lat="42.12248592318215" lon="13.164171429493074"><ele>913.0</ele><time>2026-05-01T09:03:56Z</time></trkpt><trkpt lat="42.12241957248321" lon="13.164465883103837"><ele>911.6666666666666</ele><time>2026-05-01T09:03:57Z</time></trkpt><trkpt lat="42.122351671363155" lon="13.164754379905697"><ele>910.3333333333333</ele><time>2026-05-01T09:03:58Z</time></trkpt><trkpt lat="42.12228587565296" lon="13.16504105311857"><ele>909.0</ele><time>2026-05-01T09:03:59Z</time></trkpt><trkpt lat="42.122222853895074" lon="13.165333755924797"><ele>908.5</ele><time>2026-05-01T09:04:00Z</time></trkpt><trkpt lat="42.12216299520755" lon="13.165632055803153"><ele>908.0</ele><time>2026-05-01T09:04:01Z</time></trkpt><trkpt lat="42.12211433889725" lon="13.165938529085157"><ele>908.0</ele><time>2026-05-01T09:04:02Z</time></trkpt><trkpt lat="42.12208226635409" lon="13.166253810606419"><ele>908.0</ele><time>2026-05-01T09:04:03Z</time></trkpt><trkpt lat="42.12206979929574" lon="13.166573486118114"><ele>908.0</ele><time>2026-05-01T09:04:04Z</time></trkpt><trkpt lat="42.122070101282944" lon="13.166901832589641"><ele>908.0</ele><time>2026-05-01T09:04:05Z</time></trkpt><trkpt lat="42.122072573438054" lon="13.167233161795615"><ele>908.5</ele><time>2026-05-01T09:04:05.999Z</time></trkpt><trkpt lat="42.1220793677454" lon="13.167567199372252"><ele>909.0</ele><time>2026-05-01T09:04:06.999Z</time></trkpt><trkpt lat="42.122087209163766" lon="13.167901393854535"><ele>909.5</ele><time>2026-05-01T09:04:07.999Z</time></trkpt><trkpt lat="42.122095731701414" lon="13.168235509823846"><ele>910.0</ele><time>2026-05-01T09:04:08.999Z</time></trkpt><trkpt lat="42.1221087964902" lon="13.168568159696028"><ele>910.0</ele><time>2026-05-01T09:04:09.999Z</time></trkpt><trkpt lat="42.122125384389435" lon="13.1688997846189"><ele>910.0</ele><time>2026-05-01T09:04:10.999Z</time></trkpt><trkpt lat="42.12216462519008" lon="13.169226655525375"><ele>910.0</ele><time>2026-05-01T09:04:11.999Z</time></trkpt><trkpt lat="42.12223663890379" lon="13.169543788696341"><ele>910.0</ele><time>2026-05-01T09:04:12.999Z</time></trkpt><trkpt lat="42.12233398384331" lon="13.169850661106468"><ele>917.5</ele><time>2026-05-01T09:04:13.999Z</time></trkpt><trkpt lat="42.12245300133532" lon="13.170148580539502"><ele>925.0</ele><time>2026-05-01T09:04:14.999Z</time></trkpt><trkpt lat="42.122571407643974" lon="13.170450771795895"><ele>922.5</ele><time>2026-05-01T09:04:15.999Z</time></trkpt><trkpt lat="42.12268041352237" lon="13.170758481651225"><ele>920.0</ele><time>2026-05-01T09:04:16.999Z</time></trkpt><trkpt lat="42.122786725797745" lon="13.171069635514202"><ele>920.0</ele><time>2026-05-01T09:04:17.999Z</time></trkpt><trkpt lat="42.12288871149484" lon="13.171383060558544"><ele>920.0</ele><time>2026-05-01T09:04:18.999Z</time></trkpt><trkpt lat="42.12298582742834" lon="13.171701259430359"><ele>918.5</ele><time>2026-05-01T09:04:19.999Z</time></trkpt><trkpt lat="42.12307925412623" lon="13.172022294408888"><ele>917.0</ele><time>2026-05-01T09:04:20.999Z</time></trkpt><trkpt lat="42.123168130629026" lon="13.172345372041702"><ele>921.0</ele><time>2026-05-01T09:04:21.999Z</time></trkpt><trkpt lat="42.123257910070734" lon="13.172667565435583"><ele>925.0</ele><time>2026-05-01T09:04:22.999Z</time></trkpt><trkpt lat="42.12335023970031" lon="13.17298780015217"><ele>921.0</ele><time>2026-05-01T09:04:23.999Z</time></trkpt><trkpt lat="42.12343753980173" lon="13.173312833432346"><ele>917.0</ele><time>2026-05-01T09:04:24.999Z</time></trkpt><trkpt lat="42.12352738574141" lon="13.17362827029293"><ele>917.0</ele><time>2026-05-01T09:04:25.999Z</time></trkpt><trkpt lat="42.12361262306435" lon="13.173944805633434"><ele>917.0</ele><time>2026-05-01T09:04:26.999Z</time></trkpt><trkpt lat="42.123696239699356" lon="13.174261742175366"><ele>917.5</ele><time>2026-05-01T09:04:27.999Z</time></trkpt><trkpt lat="42.12378066221694" lon="13.174562201496693"><ele>918.0</ele><time>2026-05-01T09:04:28.999Z</time></trkpt><trkpt lat="42.12385855277733" lon="13.174848533495716"><ele>918.3333333333333</ele><time>2026-05-01T09:04:29.999Z</time></trkpt><trkpt lat="42.12392979413354" lon="13.175122558862562"><ele>918.6666666666666</ele><time>2026-05-01T09:04:30.999Z</time></trkpt><trkpt lat="42.123991726904805" lon="13.175385458819823"><ele>919.0</ele><time>2026-05-01T09:04:31.999Z</time></trkpt><trkpt lat="42.124036690087216" lon="13.175649578397406"><ele>918.0</ele><time>2026-05-01T09:04:32.999Z</time></trkpt><trkpt lat="42.1240504520324" lon="13.175927470627457"><ele>917.0</ele><time>2026-05-01T09:04:33.999Z</time></trkpt><trkpt lat="42.12403821138372" lon="13.176185868613526"><ele>916.0</ele><time>2026-05-01T09:04:34.999Z</time></trkpt><trkpt lat="42.123995661511316" lon="13.176444344946834"><ele>916.6666666666666</ele><time>2026-05-01T09:04:35.999Z</time></trkpt><trkpt lat="42.12391968801103" lon="13.176706523652486"><ele>917.3333333333333</ele><time>2026-05-01T09:04:36.999Z</time></trkpt><trkpt lat="42.12382279408699" lon="13.176971089789836"><ele>918.0</ele><time>2026-05-01T09:04:37.999Z</time></trkpt><trkpt lat="42.12371129375188" lon="13.177242006062276"><ele>920.5</ele><time>2026-05-01T09:04:38.999Z</time></trkpt><trkpt lat="42.12360870181025" lon="13.177530417963979"><ele>923.0</ele><time>2026-05-01T09:04:39.999Z</time></trkpt><trkpt lat="42.123507528309" lon="13.177834440455086"><ele>923.0</ele><time>2026-05-01T09:04:40.999Z</time></trkpt><trkpt lat="42.12340176908569" lon="13.178149056163047"><ele>923.0</ele><time>2026-05-01T09:04:41.999Z</time></trkpt><trkpt lat="42.12328936146856" lon="13.178479842844515"><ele>923.0</ele><time>2026-05-01T09:04:42.999Z</time></trkpt><trkpt lat="42.123172758038024" lon="13.178823348268454"><ele>923.0</ele><time>2026-05-01T09:04:43.999Z</time></trkpt><trkpt lat="42.12305169102825" lon="13.179167536305323"><ele>923.0</ele><time>2026-05-01T09:04:44.999Z</time></trkpt><trkpt lat="42.1229250884573" lon="13.179513654733604"><ele>923.0</ele><time>2026-05-01T09:04:45.999Z</time></trkpt><trkpt lat="42.12279170615257" lon="13.179852902841077"><ele>923.0</ele><time>2026-05-01T09:04:46.999Z</time></trkpt><trkpt lat="42.12265594732398" lon="13.180187276655905"><ele>923.0</ele><time>2026-05-01T09:04:47.999Z</time></trkpt><trkpt lat="42.12252715402196" lon="13.180520769897397"><ele>924.0</ele><time>2026-05-01T09:04:48.999Z</time></trkpt><trkpt lat="42.122406844277116" lon="13.18085308556643"><ele>925.0</ele><time>2026-05-01T09:04:49.999Z</time></trkpt><trkpt lat="42.12228753181412" lon="13.181178302297942"><ele>925.0</ele><time>2026-05-01T09:04:50.999Z</time></trkpt><trkpt lat="42.12217062006843" lon="13.18149527385703"><ele>925.0</ele><time>2026-05-01T09:04:51.999Z</time></trkpt><trkpt lat="42.122065127395715" lon="13.181807511130495"><ele>925.0</ele><time>2026-05-01T09:04:52.999Z</time></trkpt><trkpt lat="42.12198835515588" lon="13.182122621663371"><ele>925.0</ele><time>2026-05-01T09:04:53.999Z</time></trkpt><trkpt lat="42.121966613311415" lon="13.182419712899954"><ele>925.3333333333333</ele><time>2026-05-01T09:04:54.999Z</time></trkpt><trkpt lat="42.12198771710631" lon="13.182715498190483"><ele>925.6666666666667</ele><time>2026-05-01T09:04:55.999Z</time></trkpt><trkpt lat="42.12205737176549" lon="13.182995886253941"><ele>926.0</ele><time>2026-05-01T09:04:56.999Z</time></trkpt><trkpt lat="42.1221619139683" lon="13.183258390393977"><ele>927.0</ele><time>2026-05-01T09:04:57.999Z</time></trkpt><trkpt lat="42.12226634213154" lon="13.183532554638722"><ele>928.0</ele><time>2026-05-01T09:04:58.999Z</time></trkpt><trkpt lat="42.122353139727416" lon="13.183795271503175"><ele>929.0</ele><time>2026-05-01T09:04:59.999Z</time></trkpt><trkpt lat="42.122434826858424" lon="13.184051481987092"><ele>930.25</ele><time>2026-05-01T09:05:00.999Z</time></trkpt><trkpt lat="42.122502438668995" lon="13.184264902564538"><ele>931.5</ele><time>2026-05-01T09:05:01.999Z</time></trkpt><trkpt lat="42.12255503238178" lon="13.184456206202114"><ele>932.75</ele><time>2026-05-01T09:05:02.999Z</time></trkpt><trkpt lat="42.12259661446221" lon="13.184612207387847"><ele>934.0</ele><time>2026-05-01T09:05:03.999Z</time></trkpt><trkpt lat="42.12263033298626" lon="13.18474338740953"><ele>934.2</ele><time>2026-05-01T09:05:04.999Z</time></trkpt><trkpt lat="42.122685317717284" lon="13.184847247401947"><ele>934.4000000000001</ele><time>2026-05-01T09:05:05.999Z</time></trkpt><trkpt lat="42.12276117837704" lon="13.18489743443339"><ele>934.6</ele><time>2026-05-01T09:05:06.998Z</time></trkpt><trkpt lat="42.122853835615466" lon="13.184927532378362"><ele>934.8</ele><time>2026-05-01T09:05:07.998Z</time></trkpt><trkpt lat="42.12296168348738" lon="13.184925342433374"><ele>935.0</ele><time>2026-05-01T09:05:08.998Z</time></trkpt><trkpt lat="42.123079366249456" lon="13.184928467811417"><ele>935.0</ele><time>2026-05-01T09:05:09.998Z</time></trkpt><trkpt lat="42.12320462233108" lon="13.18495620389048"><ele>935.0</ele><time>2026-05-01T09:05:10.998Z</time></trkpt><trkpt lat="42.1233346283317" lon="13.185000773448062"><ele>935.0</ele><time>2026-05-01T09:05:11.998Z</time></trkpt><trkpt lat="42.12347190200653" lon="13.18504617353283"><ele>935.0</ele><time>2026-05-01T09:05:12.998Z</time></trkpt><trkpt lat="42.12361556911042" lon="13.185092776723284"><ele>937.3333333333334</ele><time>2026-05-01T09:05:13.998Z</time></trkpt><trkpt lat="42.123765474427636" lon="13.185149683870755"><ele>939.6666666666667</ele><time>2026-05-01T09:05:14.998Z</time></trkpt><trkpt lat="42.1239213319118" lon="13.185197671042042"><ele>942.0</ele><time>2026-05-01T09:05:16Z</time></trkpt><trkpt lat="42.12408335308855" lon="13.185244777351826"><ele>944.0</ele><time>2026-05-01T09:05:17Z</time></trkpt><trkpt lat="42.12424935203697" lon="13.185291550377492"><ele>946.0</ele><time>2026-05-01T09:05:18Z</time></trkpt><trkpt lat="42.12441692103371" lon="13.185346283302936"><ele>948.0</ele><time>2026-05-01T09:05:19Z</time></trkpt><trkpt lat="42.12458058212876" lon="13.185396682072097"><ele>948.0</ele><time>2026-05-01T09:05:20Z</time></trkpt><trkpt lat="42.12473464510899" lon="13.185442357160627"><ele>948.0</ele><time>2026-05-01T09:05:21Z</time></trkpt><trkpt lat="42.124876102152214" lon="13.185506719064453"><ele>948.0</ele><time>2026-05-01T09:05:22Z</time></trkpt><trkpt lat="42.124995516097165" lon="13.185591939509857"><ele>948.0</ele><time>2026-05-01T09:05:23Z</time></trkpt><trkpt lat="42.12507133695321" lon="13.185711626256092"><ele>948.0</ele><time>2026-05-01T09:05:24Z</time></trkpt><trkpt lat="42.12513212706524" lon="13.185856620110966"><ele>948.0</ele><time>2026-05-01T09:05:25Z</time></trkpt><trkpt lat="42.12517486384193" lon="13.186033981335687"><ele>948.0</ele><time>2026-05-01T09:05:26Z</time></trkpt><trkpt lat="42.125204732332854" lon="13.186227474101182"><ele>948.0</ele><time>2026-05-01T09:05:27Z</time></trkpt><trkpt lat="42.125249402538124" lon="13.186420632070288"><ele>950.3333333333333</ele><time>2026-05-01T09:05:28Z</time></trkpt><trkpt lat="42.125294999969135" lon="13.186613030316074"><ele>952.6666666666666</ele><time>2026-05-01T09:05:29Z</time></trkpt><trkpt lat="42.125338844874676" lon="13.186813560260598"><ele>955.0</ele><time>2026-05-01T09:05:30Z</time></trkpt><trkpt lat="42.12538597107345" lon="13.187017017635347"><ele>955.0</ele><time>2026-05-01T09:05:31Z</time></trkpt><trkpt lat="42.125434979865055" lon="13.18721723965916"><ele>955.0</ele><time>2026-05-01T09:05:32Z</time></trkpt><trkpt lat="42.125486032832384" lon="13.187406464660581"><ele>955.0</ele><time>2026-05-01T09:05:33Z</time></trkpt><trkpt lat="42.12553905884739" lon="13.187584885062808"><ele>955.0</ele><time>2026-05-01T09:05:34Z</time></trkpt><trkpt lat="42.1255742466232" lon="13.18776377508473"><ele>957.1666666666666</ele><time>2026-05-01T09:05:35Z</time></trkpt><trkpt lat="42.125613853843184" lon="13.18789247533866"><ele>959.3333333333333</ele><time>2026-05-01T09:05:36Z</time></trkpt><trkpt lat="42.12566420378108" lon="13.187984588027945"><ele>961.5</ele><time>2026-05-01T09:05:37Z</time></trkpt><trkpt lat="42.12572406083497" lon="13.188019366600747"><ele>963.6666666666667</ele><time>2026-05-01T09:05:38Z</time></trkpt><trkpt lat="42.12579125551745" lon="13.188007726390842"><ele>965.8333333333334</ele><time>2026-05-01T09:05:39Z</time></trkpt><trkpt lat="42.125849234948895" lon="13.18793307766663"><ele>968.0</ele><time>2026-05-01T09:05:40Z</time></trkpt><trkpt lat="42.12586591621742" lon="13.187815901594888"><ele>968.0</ele><time>2026-05-01T09:05:41Z</time></trkpt><trkpt lat="42.12584098954066" lon="13.187696001280136"><ele>968.0</ele><time>2026-05-01T09:05:42Z</time></trkpt><trkpt lat="42.12578780373398" lon="13.187575965011428"><ele>968.0</ele><time>2026-05-01T09:05:43Z</time></trkpt><trkpt lat="42.12573301130946" lon="13.187454003060068"><ele>968.0</ele><time>2026-05-01T09:05:44Z</time></trkpt><trkpt lat="42.12565829130545" lon="13.187320046276344"><ele>968.0</ele><time>2026-05-01T09:05:45Z</time></trkpt><trkpt lat="42.125586070830785" lon="13.187164085576773"><ele>965.4</ele><time>2026-05-01T09:05:46Z</time></trkpt><trkpt lat="42.125560861416645" lon="13.186999755731604"><ele>962.8</ele><time>2026-05-01T09:05:47Z</time></trkpt><trkpt lat="42.1255558363532" lon="13.186841440572113"><ele>960.2</ele><time>2026-05-01T09:05:48Z</time></trkpt><trkpt lat="42.12557979500416" lon="13.186707389300564"><ele>957.6</ele><time>2026-05-01T09:05:49Z</time></trkpt><trkpt lat="42.12562647316608" lon="13.186582993730191"><ele>955.0</ele><time>2026-05-01T09:05:50Z</time></trkpt><trkpt lat="42.12567702744551" lon="13.186508661712312"><ele>954.9999999999999</ele><time>2026-05-01T09:05:51Z</time></trkpt><trkpt lat="42.12575126262839" lon="13.1864586247878"><ele>955.0</ele><time>2026-05-01T09:05:52Z</time></trkpt><trkpt lat="42.12581768343992" lon="13.186448224497276"><ele>955.0</ele><time>2026-05-01T09:05:53Z</time></trkpt><trkpt lat="42.12579315473221" lon="13.186595895913674"><ele>955.0</ele><time>2026-05-01T09:05:55Z</time></trkpt><trkpt lat="42.125740016810845" lon="13.186688687303871"><ele>954.9999999999999</ele><time>2026-05-01T09:05:56Z</time></trkpt><trkpt lat="42.12572791196708" lon="13.186780648383516"><ele>955.0</ele><time>2026-05-01T09:05:57Z</time></trkpt><trkpt lat="42.12575019139008" lon="13.18692161565038"><ele>957.0</ele><time>2026-05-01T09:05:58Z</time></trkpt><trkpt lat="42.12576788926592" lon="13.187061021930202"><ele>959.0</ele><time>2026-05-01T09:05:59Z</time></trkpt><trkpt lat="42.12581215469652" lon="13.187190941417768"><ele>961.0</ele><time>2026-05-01T09:06:00Z</time></trkpt><trkpt lat="42.12587506884385" lon="13.187372518681867"><ele>963.0</ele><time>2026-05-01T09:06:01Z</time></trkpt><trkpt lat="42.125927319531336" lon="13.187545385037616"><ele>964.25</ele><time>2026-05-01T09:06:02Z</time></trkpt><trkpt lat="42.12596979285975" lon="13.187708343678795"><ele>965.5</ele><time>2026-05-01T09:06:03Z</time></trkpt><trkpt lat="42.12604405962982" lon="13.18788751267121"><ele>966.75</ele><time>2026-05-01T09:06:04Z</time></trkpt><trkpt lat="42.12611773513316" lon="13.188031850849589"><ele>968.0</ele><time>2026-05-01T09:06:05Z</time></trkpt><trkpt lat="42.12620658149356" lon="13.188177215567855"><ele>968.25</ele><time>2026-05-01T09:06:06Z</time></trkpt><trkpt lat="42.12631245766674" lon="13.188287624489218"><ele>968.5</ele><time>2026-05-01T09:06:07Z</time></trkpt><trkpt lat="42.126398397628975" lon="13.188409520394254"><ele>968.75</ele><time>2026-05-01T09:06:08Z</time></trkpt><trkpt lat="42.12647921289392" lon="13.188534209978524"><ele>969.0</ele><time>2026-05-01T09:06:09Z</time></trkpt><trkpt lat="42.1265556993302" lon="13.188661478065978"><ele>971.75</ele><time>2026-05-01T09:06:10Z</time></trkpt><trkpt lat="42.12662495868637" lon="13.188789325460043"><ele>974.5</ele><time>2026-05-01T09:06:11Z</time></trkpt><trkpt lat="42.12669262425971" lon="13.188915745908854"><ele>977.25</ele><time>2026-05-01T09:06:12Z</time></trkpt><trkpt lat="42.126790155602635" lon="13.189003214095283"><ele>980.0</ele><time>2026-05-01T09:06:13Z</time></trkpt><trkpt lat="42.12690091597622" lon="13.189072672640455"><ele>980.0</ele><time>2026-05-01T09:06:13.999Z</time></trkpt><trkpt lat="42.12701821095591" lon="13.189144185081298"><ele>980.0</ele><time>2026-05-01T09:06:14.999Z</time></trkpt><trkpt lat="42.12713238782521" lon="13.18924534816771"><ele>980.0</ele><time>2026-05-01T09:06:15.999Z</time></trkpt><trkpt lat="42.12724764360459" lon="13.189354815379437"><ele>980.0</ele><time>2026-05-01T09:06:16.999Z</time></trkpt><trkpt lat="42.12736976333488" lon="13.189464668178639"><ele>983.0</ele><time>2026-05-01T09:06:17.999Z</time></trkpt><trkpt lat="42.12748241463466" lon="13.189576438936756"><ele>986.0</ele><time>2026-05-01T09:06:18.999Z</time></trkpt><trkpt lat="42.12760243499396" lon="13.18966459520336"><ele>989.0</ele><time>2026-05-01T09:06:19.999Z</time></trkpt><trkpt lat="42.1277289853996" lon="13.189721145490124"><ele>992.0</ele><time>2026-05-01T09:06:20.999Z</time></trkpt><trkpt lat="42.12785099279994" lon="13.189700564990327"><ele>992.0</ele><time>2026-05-01T09:06:21.999Z</time></trkpt><trkpt lat="42.1279796209298" lon="13.189647426303653"><ele>992.0</ele><time>2026-05-01T09:06:22.999Z</time></trkpt><trkpt lat="42.1281052468014" lon="13.189578577722624"><ele>992.0</ele><time>2026-05-01T09:06:23.999Z</time></trkpt><trkpt lat="42.12823522812237" lon="13.189524156475336"><ele>992.0</ele><time>2026-05-01T09:06:24.999Z</time></trkpt><trkpt lat="42.12836560204129" lon="13.189471679317611"><ele>991.5</ele><time>2026-05-01T09:06:25.999Z</time></trkpt><trkpt lat="42.12849246951978" lon="13.189419501972397"><ele>991.0</ele><time>2026-05-01T09:06:26.999Z</time></trkpt><trkpt lat="42.12861806789" lon="13.189377578116455"><ele>990.5</ele><time>2026-05-01T09:06:27.999Z</time></trkpt><trkpt lat="42.128746704324044" lon="13.189360333990253"><ele>990.0</ele><time>2026-05-01T09:06:28.999Z</time></trkpt><trkpt lat="42.12886054420396" lon="13.189360052424417"><ele>990.0</ele><time>2026-05-01T09:06:29.999Z</time></trkpt><trkpt lat="42.12896949726578" lon="13.189390070180234"><ele>990.0</ele><time>2026-05-01T09:06:30.999Z</time></trkpt><trkpt lat="42.129080479665525" lon="13.189475521338162"><ele>990.0</ele><time>2026-05-01T09:06:31.999Z</time></trkpt><trkpt lat="42.12917954927593" lon="13.189580780662803"><ele>990.0</ele><time>2026-05-01T09:06:32.999Z</time></trkpt><trkpt lat="42.129286410945824" lon="13.189678542879747"><ele>991.0</ele><time>2026-05-01T09:06:33.999Z</time></trkpt><trkpt lat="42.129407428482615" lon="13.189771542362887"><ele>992.0</ele><time>2026-05-01T09:06:34.999Z</time></trkpt><trkpt lat="42.12952473702721" lon="13.189872587961954"><ele>993.0</ele><time>2026-05-01T09:06:35.999Z</time></trkpt><trkpt lat="42.12963022005346" lon="13.190002796909518"><ele>994.0</ele><time>2026-05-01T09:06:36.999Z</time></trkpt><trkpt lat="42.129719591346536" lon="13.190157145170541"><ele>989.5</ele><time>2026-05-01T09:06:37.999Z</time></trkpt><trkpt lat="42.129797834885025" lon="13.190306877745801"><ele>985.0</ele><time>2026-05-01T09:06:38.999Z</time></trkpt><trkpt lat="42.12986315048471" lon="13.190468465440405"><ele>980.5</ele><time>2026-05-01T09:06:39.999Z</time></trkpt><trkpt lat="42.12991910960569" lon="13.190618589225547"><ele>976.0</ele><time>2026-05-01T09:06:40.999Z</time></trkpt><trkpt lat="42.129955358213486" lon="13.19077679983653"><ele>976.0</ele><time>2026-05-01T09:06:41.999Z</time></trkpt><trkpt lat="42.1299674916686" lon="13.190935714516122"><ele>976.0</ele><time>2026-05-01T09:06:42.999Z</time></trkpt><trkpt lat="42.129974024639544" lon="13.191076256394346"><ele>976.0</ele><time>2026-05-01T09:06:43.999Z</time></trkpt><trkpt lat="42.13000045226308" lon="13.191225120587195"><ele>976.0</ele><time>2026-05-01T09:06:44.999Z</time></trkpt><trkpt lat="42.13004090419074" lon="13.191385861970485"><ele>976.75</ele><time>2026-05-01T09:06:45.999Z</time></trkpt><trkpt lat="42.130104033274755" lon="13.191534980240927"><ele>977.5</ele><time>2026-05-01T09:06:46.999Z</time></trkpt><trkpt lat="42.130170948925006" lon="13.191676131237138"><ele>978.25</ele><time>2026-05-01T09:06:47.999Z</time></trkpt><trkpt lat="42.13021828930403" lon="13.191815001979228"><ele>979.0</ele><time>2026-05-01T09:06:48.999Z</time></trkpt><trkpt lat="42.13025232520498" lon="13.191969182078711"><ele>979.0</ele><time>2026-05-01T09:06:49.999Z</time></trkpt><trkpt lat="42.13027402971564" lon="13.192127513115189"><ele>979.0</ele><time>2026-05-01T09:06:50.999Z</time></trkpt><trkpt lat="42.13030596477406" lon="13.192280760374269"><ele>979.0</ele><time>2026-05-01T09:06:51.999Z</time></trkpt><trkpt lat="42.13036648750221" lon="13.192405673647814"><ele>979.0</ele><time>2026-05-01T09:06:52.999Z</time></trkpt><trkpt lat="42.13044892261231" lon="13.192517847962291"><ele>979.0</ele><time>2026-05-01T09:06:53.999Z</time></trkpt><trkpt lat="42.13053107980739" lon="13.192636810906182"><ele>979.0</ele><time>2026-05-01T09:06:54.999Z</time></trkpt><trkpt lat="42.13062851024024" lon="13.19274578095374"><ele>979.0</ele><time>2026-05-01T09:06:55.999Z</time></trkpt><trkpt lat="42.13074418859672" lon="13.192825375351564"><ele>979.0</ele><time>2026-05-01T09:06:56.999Z</time></trkpt><trkpt lat="42.13085598664483" lon="13.192913065883541"><ele>979.0</ele><time>2026-05-01T09:06:57.999Z</time></trkpt><trkpt lat="42.13096322739139" lon="13.193003902848268"><ele>979.0</ele><time>2026-05-01T09:06:58.999Z</time></trkpt><trkpt lat="42.13107472945497" lon="13.193109682465622"><ele>979.0</ele><time>2026-05-01T09:06:59.999Z</time></trkpt><trkpt lat="42.13120771916535" lon="13.19317655267311"><ele>979.0</ele><time>2026-05-01T09:07:00.999Z</time></trkpt><trkpt lat="42.13132683288864" lon="13.193254923614916"><ele>979.75</ele><time>2026-05-01T09:07:01.999Z</time></trkpt><trkpt lat="42.131455997966064" lon="13.193351284125297"><ele>980.5</ele><time>2026-05-01T09:07:02.999Z</time></trkpt><trkpt lat="42.131586401626066" lon="13.193461578127419"><ele>981.25</ele><time>2026-05-01T09:07:03.999Z</time></trkpt><trkpt lat="42.131682199109875" lon="13.19359397754663"><ele>982.0</ele><time>2026-05-01T09:07:04.999Z</time></trkpt><trkpt lat="42.131772693077835" lon="13.193742802273059"><ele>983.25</ele><time>2026-05-01T09:07:05.999Z</time></trkpt><trkpt lat="42.13189023715214" lon="13.193859724491737"><ele>984.5</ele><time>2026-05-01T09:07:06.999Z</time></trkpt><trkpt lat="42.13201079713836" lon="13.193962428212824"><ele>985.75</ele><time>2026-05-01T09:07:07.999Z</time></trkpt><trkpt lat="42.132116278726244" lon="13.194062624394267"><ele>987.0</ele><time>2026-05-01T09:07:08.999Z</time></trkpt><trkpt lat="42.132199709196485" lon="13.194173913536515"><ele>984.6</ele><time>2026-05-01T09:07:09.999Z</time></trkpt><trkpt lat="42.13225563428372" lon="13.194302257444466"><ele>982.2</ele><time>2026-05-01T09:07:10.999Z</time></trkpt><trkpt lat="42.13228468398509" lon="13.194431979383905"><ele>979.8</ele><time>2026-05-01T09:07:11.999Z</time></trkpt><trkpt lat="42.13228163763888" lon="13.194568752351072"><ele>977.4</ele><time>2026-05-01T09:07:12.999Z</time></trkpt><trkpt lat="42.13224787213746" lon="13.194678898547428"><ele>975.0</ele><time>2026-05-01T09:07:13.999Z</time></trkpt><trkpt lat="42.13217543087698" lon="13.19478064704033"><ele>977.0</ele><time>2026-05-01T09:07:14.999Z</time></trkpt><trkpt lat="42.13206910881665" lon="13.194855964295442"><ele>979.0</ele><time>2026-05-01T09:07:15.999Z</time></trkpt><trkpt lat="42.131962848595265" lon="13.194914726526374"><ele>981.0</ele><time>2026-05-01T09:07:16.999Z</time></trkpt><trkpt lat="42.13185608930487" lon="13.194999014511964"><ele>983.0</ele><time>2026-05-01T09:07:17.999Z</time></trkpt><trkpt lat="42.13174493785437" lon="13.195058814987513"><ele>983.0</ele><time>2026-05-01T09:07:18.999Z</time></trkpt><trkpt lat="42.1316311300884" lon="13.195179870338226"><ele>983.0</ele><time>2026-05-01T09:07:19.999Z</time></trkpt><trkpt lat="42.13154259913676" lon="13.195351106110245"><ele>983.0</ele><time>2026-05-01T09:07:20.998Z</time></trkpt><trkpt lat="42.1314796797596" lon="13.195495284435067"><ele>983.0</ele><time>2026-05-01T09:07:22Z</time></trkpt><trkpt lat="42.1314135351225" lon="13.19563757940601"><ele>979.75</ele><time>2026-05-01T09:07:23Z</time></trkpt><trkpt lat="42.13134152329152" lon="13.195826177500738"><ele>976.5</ele><time>2026-05-01T09:07:24Z</time></trkpt><trkpt lat="42.131308584169915" lon="13.196008980755115"><ele>973.25</ele><time>2026-05-01T09:07:25Z</time></trkpt><trkpt lat="42.13127091801142" lon="13.196138724973657"><ele>970.0</ele><time>2026-05-01T09:07:26Z</time></trkpt><trkpt lat="42.13121730553504" lon="13.196228528349906"><ele>970.0</ele><time>2026-05-01T09:07:27Z</time></trkpt><trkpt lat="42.1311462333711" lon="13.196286808099016"><ele>970.0</ele><time>2026-05-01T09:07:28Z</time></trkpt><trkpt lat="42.13102926583405" lon="13.196343326020093"><ele>970.0</ele><time>2026-05-01T09:07:29Z</time></trkpt><trkpt lat="42.13089491425411" lon="13.196354780738556"><ele>970.0</ele><time>2026-05-01T09:07:30Z</time></trkpt><trkpt lat="42.1307782656278" lon="13.196414127222132"><ele>971.25</ele><time>2026-05-01T09:07:31Z</time></trkpt><trkpt lat="42.130666258393404" lon="13.19643837416694"><ele>972.5</ele><time>2026-05-01T09:07:32Z</time></trkpt><trkpt lat="42.130534377661455" lon="13.19648389028402"><ele>973.75</ele><time>2026-05-01T09:07:33Z</time></trkpt><trkpt lat="42.13041496657109" lon="13.196519140977083"><ele>975.0</ele><time>2026-05-01T09:07:34Z</time></trkpt><trkpt lat="42.13027303595909" lon="13.19656695589342"><ele>975.0</ele><time>2026-05-01T09:07:35Z</time></trkpt><trkpt lat="42.13015604593332" lon="13.196643045229985"><ele>975.0</ele><time>2026-05-01T09:07:36Z</time></trkpt><trkpt lat="42.13002939192043" lon="13.196702641248388"><ele>975.0</ele><time>2026-05-01T09:07:37Z</time></trkpt><trkpt lat="42.12990834784934" lon="13.196780496305427"><ele>975.0</ele><time>2026-05-01T09:07:38Z</time></trkpt><trkpt lat="42.12980274791062" lon="13.196851040181597"><ele>971.0</ele><time>2026-05-01T09:07:39Z</time></trkpt><trkpt lat="42.129706179165694" lon="13.19692668257949"><ele>967.0</ele><time>2026-05-01T09:07:40Z</time></trkpt><trkpt lat="42.12961104703766" lon="13.196992939967744"><ele>963.0</ele><time>2026-05-01T09:07:41Z</time></trkpt><trkpt lat="42.12951390790023" lon="13.197062821224169"><ele>959.0</ele><time>2026-05-01T09:07:42Z</time></trkpt><trkpt lat="42.129417519134314" lon="13.197141702716161"><ele>955.0</ele><time>2026-05-01T09:07:43Z</time></trkpt><trkpt lat="42.129331493409964" lon="13.197235567159174"><ele>959.75</ele><time>2026-05-01T09:07:44Z</time></trkpt><trkpt lat="42.12926390020532" lon="13.197350826037164"><ele>964.5</ele><time>2026-05-01T09:07:45Z</time></trkpt><trkpt lat="42.129240047044235" lon="13.197511344563976"><ele>969.25</ele><time>2026-05-01T09:07:46Z</time></trkpt><trkpt lat="42.12923394727563" lon="13.197683489732198"><ele>974.0</ele><time>2026-05-01T09:07:47Z</time></trkpt><trkpt lat="42.129227454721395" lon="13.197867965506559"><ele>974.0</ele><time>2026-05-01T09:07:48Z</time></trkpt><trkpt lat="42.12920615745714" lon="13.198054348865991"><ele>974.0</ele><time>2026-05-01T09:07:49Z</time></trkpt><trkpt lat="42.129179748526276" lon="13.198234186016604"><ele>974.0</ele><time>2026-05-01T09:07:50Z</time></trkpt><trkpt lat="42.12915655458974" lon="13.198399776891108"><ele>974.0</ele><time>2026-05-01T09:07:51Z</time></trkpt><trkpt lat="42.12912217265484" lon="13.198550846044148"><ele>973.6</ele><time>2026-05-01T09:07:52Z</time></trkpt><trkpt lat="42.12909286250778" lon="13.198702987658098"><ele>973.2</ele><time>2026-05-01T09:07:53Z</time></trkpt><trkpt lat="42.12906653636896" lon="13.1988470890387"><ele>972.8000000000001</ele><time>2026-05-01T09:07:54Z</time></trkpt><trkpt lat="42.12903563046567" lon="13.198975086786808"><ele>972.4000000000001</ele><time>2026-05-01T09:07:55Z</time></trkpt><trkpt lat="42.12900992480534" lon="13.199087651068623"><ele>972.0</ele><time>2026-05-01T09:07:56Z</time></trkpt><trkpt lat="42.129002301003126" lon="13.199181442615053"><ele>971.0</ele><time>2026-05-01T09:07:57Z</time></trkpt><trkpt lat="42.12902404928499" lon="13.199261532367307"><ele>970.0</ele><time>2026-05-01T09:07:58Z</time></trkpt><trkpt lat="42.12908411738204" lon="13.199296777607954"><ele>969.0</ele><time>2026-05-01T09:07:59Z</time></trkpt><trkpt lat="42.12916345120804" lon="13.199277527270642"><ele>968.0</ele><time>2026-05-01T09:08:00Z</time></trkpt><trkpt lat="42.12924065290209" lon="13.199218973315764"><ele>967.0</ele><time>2026-05-01T09:08:01Z</time></trkpt><trkpt lat="42.129326431116894" lon="13.19920340739458"><ele>966.0</ele><time>2026-05-01T09:08:02Z</time></trkpt><trkpt lat="42.12940726038775" lon="13.199166581378217"><ele>966.0</ele><time>2026-05-01T09:08:03Z</time></trkpt><trkpt lat="42.129474541217355" lon="13.199164001990459"><ele>965.9999999999999</ele><time>2026-05-01T09:08:04Z</time></trkpt><trkpt lat="42.12960364311693" lon="13.19924293508442"><ele>965.9999999999999</ele><time>2026-05-01T09:08:06Z</time></trkpt><trkpt lat="42.12963415612368" lon="13.199334780415606"><ele>966.0</ele><time>2026-05-01T09:08:07Z</time></trkpt><trkpt lat="42.129620892683775" lon="13.199501535634104"><ele>966.0</ele><time>2026-05-01T09:08:09Z</time></trkpt><trkpt lat="42.129595240707346" lon="13.199609209560375"><ele>966.0</ele><time>2026-05-01T09:08:10Z</time></trkpt><trkpt lat="42.12957584362725" lon="13.199716181280788"><ele>965.9999999999999</ele><time>2026-05-01T09:08:11Z</time></trkpt><trkpt lat="42.12953076134259" lon="13.199832990960982"><ele>965.9999999999999</ele><time>2026-05-01T09:08:12Z</time></trkpt><trkpt lat="42.12950521762341" lon="13.199969471600669"><ele>966.0</ele><time>2026-05-01T09:08:13Z</time></trkpt><trkpt lat="42.12949060376316" lon="13.20011258064957"><ele>966.0</ele><time>2026-05-01T09:08:14Z</time></trkpt><trkpt lat="42.12948249444614" lon="13.200261406579008"><ele>964.8</ele><time>2026-05-01T09:08:15Z</time></trkpt><trkpt lat="42.12949344126997" lon="13.200396508520335"><ele>963.5999999999999</ele><time>2026-05-01T09:08:16Z</time></trkpt><trkpt lat="42.129485594304576" lon="13.200542634107467"><ele>962.4</ele><time>2026-05-01T09:08:17Z</time></trkpt><trkpt lat="42.12949228993813" lon="13.200690681020575"><ele>961.2</ele><time>2026-05-01T09:08:18Z</time></trkpt><trkpt lat="42.12950164534903" lon="13.20084159334835"><ele>960.0</ele><time>2026-05-01T09:08:19Z</time></trkpt><trkpt lat="42.12956008177501" lon="13.200963511592128"><ele>958.6</ele><time>2026-05-01T09:08:20Z</time></trkpt><trkpt lat="42.129603191160996" lon="13.201079617607686"><ele>957.2</ele><time>2026-05-01T09:08:21Z</time></trkpt><trkpt lat="42.1296492659219" lon="13.201190669756798"><ele>955.8</ele><time>2026-05-01T09:08:22Z</time></trkpt><trkpt lat="42.12971114421942" lon="13.201288380674873"><ele>954.4</ele><time>2026-05-01T09:08:23Z</time></trkpt><trkpt lat="42.1297869685751" lon="13.201363116604263"><ele>953.0</ele><time>2026-05-01T09:08:24Z</time></trkpt><trkpt lat="42.129868194027985" lon="13.201404613325138"><ele>955.3333333333334</ele><time>2026-05-01T09:08:24.999Z</time></trkpt><trkpt lat="42.12995097990763" lon="13.201422847417312"><ele>957.6666666666667</ele><time>2026-05-01T09:08:25.999Z</time></trkpt><trkpt lat="42.130020273520216" lon="13.20142436852592"><ele>960.0</ele><time>2026-05-01T09:08:26.999Z</time></trkpt><trkpt lat="42.13008899731504" lon="13.201421991125763"><ele>962.3333333333333</ele><time>2026-05-01T09:08:27.999Z</time></trkpt><trkpt lat="42.13016418267801" lon="13.201409531141314"><ele>964.6666666666666</ele><time>2026-05-01T09:08:28.999Z</time></trkpt><trkpt lat="42.13023658987223" lon="13.201384648289"><ele>967.0</ele><time>2026-05-01T09:08:29.999Z</time></trkpt><trkpt lat="42.1303273661117" lon="13.201345959956866"><ele>967.0</ele><time>2026-05-01T09:08:30.999Z</time></trkpt><trkpt lat="42.130432485122796" lon="13.201278047449561"><ele>967.0</ele><time>2026-05-01T09:08:31.999Z</time></trkpt><trkpt lat="42.13052173635694" lon="13.201218794382344"><ele>967.0</ele><time>2026-05-01T09:08:32.999Z</time></trkpt><trkpt lat="42.13059858521532" lon="13.201178065119288"><ele>967.0</ele><time>2026-05-01T09:08:33.999Z</time></trkpt><trkpt lat="42.130679128427715" lon="13.201158142718183"><ele>967.0</ele><time>2026-05-01T09:08:34.999Z</time></trkpt><trkpt lat="42.13077042794079" lon="13.20118949115988"><ele>966.9999999999999</ele><time>2026-05-01T09:08:35.999Z</time></trkpt><trkpt lat="42.13080910201764" lon="13.201258355087084"><ele>967.0</ele><time>2026-05-01T09:08:36.999Z</time></trkpt><trkpt lat="42.13079703853163" lon="13.201369396316949"><ele>967.0</ele><time>2026-05-01T09:08:37.999Z</time></trkpt><trkpt lat="42.130752719672856" lon="13.201455011330312"><ele>967.0</ele><time>2026-05-01T09:08:38.999Z</time></trkpt><trkpt lat="42.13073381376668" lon="13.201575729620654"><ele>966.9999999999999</ele><time>2026-05-01T09:08:39.999Z</time></trkpt><trkpt lat="42.130690690072" lon="13.201724164259385"><ele>967.0</ele><time>2026-05-01T09:08:40.999Z</time></trkpt><trkpt lat="42.130628448959015" lon="13.201884231003062"><ele>961.5</ele><time>2026-05-01T09:08:41.999Z</time></trkpt><trkpt lat="42.130590242058275" lon="13.20208106533653"><ele>956.0</ele><time>2026-05-01T09:08:42.999Z</time></trkpt><trkpt lat="42.13057488648402" lon="13.202269175495207"><ele>950.5</ele><time>2026-05-01T09:08:43.999Z</time></trkpt><trkpt lat="42.13054933341278" lon="13.202448275978165"><ele>945.0</ele><time>2026-05-01T09:08:44.999Z</time></trkpt><trkpt lat="42.1305437162214" lon="13.202624568354697"><ele>942.25</ele><time>2026-05-01T09:08:45.999Z</time></trkpt><trkpt lat="42.13053113290158" lon="13.202808069924995"><ele>939.5</ele><time>2026-05-01T09:08:46.999Z</time></trkpt><trkpt lat="42.130491570966186" lon="13.20296129932703"><ele>936.75</ele><time>2026-05-01T09:08:47.999Z</time></trkpt><trkpt lat="42.130454781594416" lon="13.203116596946966"><ele>934.0</ele><time>2026-05-01T09:08:48.999Z</time></trkpt><trkpt lat="42.13042745708264" lon="13.203240593820942"><ele>931.8000000000001</ele><time>2026-05-01T09:08:49.999Z</time></trkpt><trkpt lat="42.130420165332694" lon="13.203389140118603"><ele>929.6000000000001</ele><time>2026-05-01T09:08:50.999Z</time></trkpt><trkpt lat="42.1304173156789" lon="13.2035366980578"><ele>927.4</ele><time>2026-05-01T09:08:51.999Z</time></trkpt><trkpt lat="42.13043914876073" lon="13.203674105560898"><ele>925.2</ele><time>2026-05-01T09:08:52.999Z</time></trkpt><trkpt lat="42.13049250901051" lon="13.203781497920595"><ele>923.0</ele><time>2026-05-01T09:08:53.999Z</time></trkpt><trkpt lat="42.13056546816607" lon="13.203856895867485"><ele>923.0</ele><time>2026-05-01T09:08:54.999Z</time></trkpt><trkpt lat="42.130667800360506" lon="13.203887221793968"><ele>923.0</ele><time>2026-05-01T09:08:55.999Z</time></trkpt><trkpt lat="42.13077075528554" lon="13.20392026018159"><ele>923.0</ele><time>2026-05-01T09:08:56.999Z</time></trkpt><trkpt lat="42.130876328330125" lon="13.203918927355538"><ele>923.0</ele><time>2026-05-01T09:08:57.999Z</time></trkpt><trkpt lat="42.130951740736094" lon="13.20398182970038"><ele>923.0</ele><time>2026-05-01T09:08:58.999Z</time></trkpt><trkpt lat="42.13100046865224" lon="13.204076603291588"><ele>924.0000000000001</ele><time>2026-05-01T09:08:59.999Z</time></trkpt><trkpt lat="42.13102409338393" lon="13.204177934179494"><ele>925.0</ele><time>2026-05-01T09:09:00.999Z</time></trkpt><trkpt lat="42.130996194996065" lon="13.20428437841552"><ele>926.0</ele><time>2026-05-01T09:09:01.999Z</time></trkpt><trkpt lat="42.13089870039733" lon="13.204365345392784"><ele>927.0</ele><time>2026-05-01T09:09:03.999Z</time></trkpt><trkpt lat="42.1308206093859" lon="13.204371160223616"><ele>928.0000000000001</ele><time>2026-05-01T09:09:04.999Z</time></trkpt><trkpt lat="42.13074273863671" lon="13.20432654235242"><ele>929.0</ele><time>2026-05-01T09:09:05.999Z</time></trkpt><trkpt lat="42.130661243634364" lon="13.204252196675858"><ele>926.2</ele><time>2026-05-01T09:09:06.999Z</time></trkpt><trkpt lat="42.130573539945324" lon="13.204182024009294"><ele>923.4000000000001</ele><time>2026-05-01T09:09:07.999Z</time></trkpt><trkpt lat="42.130490622727706" lon="13.204120644128313"><ele>920.6</ele><time>2026-05-01T09:09:08.999Z</time></trkpt><trkpt lat="42.130408337590396" lon="13.204066965146186"><ele>917.8</ele><time>2026-05-01T09:09:09.999Z</time></trkpt><trkpt lat="42.13032086616577" lon="13.204038671675184"><ele>915.0</ele><time>2026-05-01T09:09:10.999Z</time></trkpt><trkpt lat="42.13024581138245" lon="13.204000390272768"><ele>915.0</ele><time>2026-05-01T09:09:11.999Z</time></trkpt><trkpt lat="42.13015859610757" lon="13.204002431038758"><ele>915.0</ele><time>2026-05-01T09:09:12.999Z</time></trkpt><trkpt lat="42.130084349862884" lon="13.20402221126917"><ele>915.0</ele><time>2026-05-01T09:09:13.999Z</time></trkpt><trkpt lat="42.12996605342905" lon="13.204105125926702"><ele>915.0</ele><time>2026-05-01T09:09:14.999Z</time></trkpt><trkpt lat="42.12989109514712" lon="13.204230212318645"><ele>915.0</ele><time>2026-05-01T09:09:15.999Z</time></trkpt><trkpt lat="42.12983941957396" lon="13.204322644289887"><ele>914.8333333333334</ele><time>2026-05-01T09:09:16.999Z</time></trkpt><trkpt lat="42.129794969106264" lon="13.204437173489238"><ele>914.6666666666667</ele><time>2026-05-01T09:09:17.999Z</time></trkpt><trkpt lat="42.12973288783892" lon="13.204510701533472"><ele>914.5</ele><time>2026-05-01T09:09:18.999Z</time></trkpt><trkpt lat="42.129666680082025" lon="13.204593476957067"><ele>914.3333333333334</ele><time>2026-05-01T09:09:20.999Z</time></trkpt><trkpt lat="42.12966463406035" lon="13.204688870144741"><ele>914.1666666666667</ele><time>2026-05-01T09:09:22.999Z</time></trkpt><trkpt lat="42.12968383812025" lon="13.204824123412385"><ele>914.0</ele><time>2026-05-01T09:09:24.999Z</time></trkpt><trkpt lat="42.12974445318635" lon="13.204964655517553"><ele>914.0000000000001</ele><time>2026-05-01T09:09:27Z</time></trkpt><trkpt lat="42.12979845792853" lon="13.205025283932402"><ele>914.0</ele><time>2026-05-01T09:09:29Z</time></trkpt><trkpt lat="42.1298464835166" lon="13.205132190952735"><ele>914.0</ele><time>2026-05-01T09:10:02Z</time></trkpt><trkpt lat="42.12990301245142" lon="13.205200832821445"><ele>914.0</ele><time>2026-05-01T09:10:05Z</time></trkpt><trkpt lat="42.12996722212896" lon="13.205265381981445"><ele>914.0000000000001</ele><time>2026-05-01T09:10:07Z</time></trkpt><trkpt lat="42.130022192776714" lon="13.20531663513151"><ele>914.0</ele><time>2026-05-01T09:10:08Z</time></trkpt><trkpt lat="42.13007035573932" lon="13.205391481014212"><ele>913.8000000000001</ele><time>2026-05-01T09:10:09Z</time></trkpt><trkpt lat="42.13012755849951" lon="13.205479330553452"><ele>913.6000000000001</ele><time>2026-05-01T09:10:10Z</time></trkpt><trkpt lat="42.13018356711332" lon="13.20556458054612"><ele>913.4</ele><time>2026-05-01T09:10:11Z</time></trkpt><trkpt lat="42.13024818728402" lon="13.205648625693495"><ele>913.2</ele><time>2026-05-01T09:10:12Z</time></trkpt><trkpt lat="42.130313485469365" lon="13.205732389447986"><ele>913.0</ele><time>2026-05-01T09:10:13Z</time></trkpt><trkpt lat="42.13039313755465" lon="13.20585224186015"><ele>913.0</ele><time>2026-05-01T09:10:14Z</time></trkpt><trkpt lat="42.13046248473202" lon="13.205959445672347"><ele>913.0</ele><time>2026-05-01T09:10:15Z</time></trkpt><trkpt lat="42.130530775687205" lon="13.206070493029658"><ele>913.0</ele><time>2026-05-01T09:10:16Z</time></trkpt><trkpt lat="42.13059781176373" lon="13.206186004701172"><ele>913.0</ele><time>2026-05-01T09:10:17Z</time></trkpt><trkpt lat="42.1306751015031" lon="13.20631072019188"><ele>913.0</ele><time>2026-05-01T09:10:18Z</time></trkpt><trkpt lat="42.13075989897922" lon="13.20641679127472"><ele>917.0</ele><time>2026-05-01T09:10:19Z</time></trkpt><trkpt lat="42.13084963632145" lon="13.206515532887991"><ele>921.0</ele><time>2026-05-01T09:10:20Z</time></trkpt><trkpt lat="42.130962346704635" lon="13.20663290037763"><ele>925.0</ele><time>2026-05-01T09:10:21Z</time></trkpt><trkpt lat="42.131064860469515" lon="13.20673595289116"><ele>929.0</ele><time>2026-05-01T09:10:22Z</time></trkpt><trkpt lat="42.1311424573334" lon="13.206835406064288"><ele>929.0</ele><time>2026-05-01T09:10:23Z</time></trkpt><trkpt lat="42.131253591527255" lon="13.206956714074233"><ele>929.0</ele><time>2026-05-01T09:10:24Z</time></trkpt><trkpt lat="42.131379338496316" lon="13.207073089792859"><ele>929.0</ele><time>2026-05-01T09:10:25Z</time></trkpt><trkpt lat="42.1314613505724" lon="13.207175256784415"><ele>929.0</ele><time>2026-05-01T09:10:26Z</time></trkpt><trkpt lat="42.13155008460486" lon="13.207317947801526"><ele>923.6666666666667</ele><time>2026-05-01T09:10:27Z</time></trkpt><trkpt lat="42.13163126365646" lon="13.207498764017602"><ele>918.3333333333333</ele><time>2026-05-01T09:10:28Z</time></trkpt><trkpt lat="42.13172544062926" lon="13.207646079483204"><ele>913.0</ele><time>2026-05-01T09:10:29Z</time></trkpt><trkpt lat="42.13181336622793" lon="13.207817357394228"><ele>913.0</ele><time>2026-05-01T09:10:30Z</time></trkpt><trkpt lat="42.131925851531385" lon="13.207965708221021"><ele>913.0</ele><time>2026-05-01T09:10:31Z</time></trkpt><trkpt lat="42.1320304455544" lon="13.20812947796071"><ele>913.0</ele><time>2026-05-01T09:10:32Z</time></trkpt><trkpt lat="42.13212094331423" lon="13.208289981815748"><ele>910.25</ele><time>2026-05-01T09:10:33Z</time></trkpt><trkpt lat="42.13219328490132" lon="13.208474020682294"><ele>907.5</ele><time>2026-05-01T09:10:33.999Z</time></trkpt><trkpt lat="42.13224055928581" lon="13.208660901068107"><ele>904.75</ele><time>2026-05-01T09:10:34.999Z</time></trkpt><trkpt lat="42.132288515606014" lon="13.208833327412622"><ele>902.0</ele><time>2026-05-01T09:10:35.999Z</time></trkpt><trkpt lat="42.132384950638524" lon="13.208960508277485"><ele>906.3333333333334</ele><time>2026-05-01T09:10:36.999Z</time></trkpt><trkpt lat="42.132512454856055" lon="13.209050865455575"><ele>910.6666666666667</ele><time>2026-05-01T09:10:37.999Z</time></trkpt><trkpt lat="42.132684417424784" lon="13.209133904687299"><ele>915.0</ele><time>2026-05-01T09:10:38.999Z</time></trkpt><trkpt lat="42.132822507171056" lon="13.20922753943583"><ele>915.0</ele><time>2026-05-01T09:10:39.999Z</time></trkpt><trkpt lat="42.13294722004458" lon="13.209312307933914"><ele>915.0</ele><time>2026-05-01T09:10:40.998Z</time></trkpt><trkpt lat="42.13303934212094" lon="13.209406253168444"><ele>915.0</ele><time>2026-05-01T09:10:41.998Z</time></trkpt><trkpt lat="42.13310754515886" lon="13.20956525666815"><ele>915.0</ele><time>2026-05-01T09:10:42.998Z</time></trkpt><trkpt lat="42.1331784201747" lon="13.209736316547628"><ele>917.3333333333333</ele><time>2026-05-01T09:10:43.998Z</time></trkpt><trkpt lat="42.1332505547751" lon="13.209910188423"><ele>919.6666666666666</ele><time>2026-05-01T09:10:44.998Z</time></trkpt><trkpt lat="42.133320104488014" lon="13.210107475572745"><ele>922.0</ele><time>2026-05-01T09:10:45.998Z</time></trkpt><trkpt lat="42.13336389792558" lon="13.210294231934897"><ele>922.0</ele><time>2026-05-01T09:10:46.998Z</time></trkpt><trkpt lat="42.13337772870303" lon="13.210503270306548"><ele>922.0</ele><time>2026-05-01T09:10:47.998Z</time></trkpt><trkpt lat="42.13338053882984" lon="13.210712952260483"><ele>922.0</ele><time>2026-05-01T09:10:48.998Z</time></trkpt><trkpt lat="42.1333767164575" lon="13.210910751125184"><ele>922.25</ele><time>2026-05-01T09:10:49.998Z</time></trkpt><trkpt lat="42.13333834742298" lon="13.211094027803712"><ele>922.5</ele><time>2026-05-01T09:10:50.998Z</time></trkpt><trkpt lat="42.13327029357764" lon="13.211276569173197"><ele>922.75</ele><time>2026-05-01T09:10:51.998Z</time></trkpt><trkpt lat="42.13319834371599" lon="13.211464254287963"><ele>923.0</ele><time>2026-05-01T09:10:52.998Z</time></trkpt><trkpt lat="42.133128648844426" lon="13.211648618731525"><ele>919.0</ele><time>2026-05-01T09:10:53.998Z</time></trkpt><trkpt lat="42.13305915104094" lon="13.211837554985458"><ele>915.0</ele><time>2026-05-01T09:10:54.998Z</time></trkpt><trkpt lat="42.132989163393596" lon="13.212019699550298"><ele>911.0</ele><time>2026-05-01T09:10:55.998Z</time></trkpt><trkpt lat="42.13290794301975" lon="13.212204623288637"><ele>916.0</ele><time>2026-05-01T09:10:56.998Z</time></trkpt><trkpt lat="42.13281998912914" lon="13.212379796261876"><ele>921.0</ele><time>2026-05-01T09:10:57.998Z</time></trkpt><trkpt lat="42.13272128755171" lon="13.212555638588787"><ele>926.0</ele><time>2026-05-01T09:10:58.998Z</time></trkpt><trkpt lat="42.132639605611864" lon="13.212738274738733"><ele>926.0</ele><time>2026-05-01T09:10:59.998Z</time></trkpt><trkpt lat="42.13257943241874" lon="13.212937139090759"><ele>926.0</ele><time>2026-05-01T09:11:00.998Z</time></trkpt><trkpt lat="42.13254590895825" lon="13.213165353156949"><ele>926.0</ele><time>2026-05-01T09:11:01.998Z</time></trkpt><trkpt lat="42.13252224415512" lon="13.213390117904426"><ele>928.6666666666667</ele><time>2026-05-01T09:11:02.998Z</time></trkpt><trkpt lat="42.13249788139907" lon="13.213605192835193"><ele>931.3333333333333</ele><time>2026-05-01T09:11:03.998Z</time></trkpt><trkpt lat="42.13247309430973" lon="13.213812002048625"><ele>934.0</ele><time>2026-05-01T09:11:04.998Z</time></trkpt><trkpt lat="42.13244897963254" lon="13.213999210105337"><ele>934.4000000000001</ele><time>2026-05-01T09:11:05.998Z</time></trkpt><trkpt lat="42.13241720533731" lon="13.214139293536794"><ele>934.8000000000001</ele><time>2026-05-01T09:11:06.998Z</time></trkpt><trkpt lat="42.13236218531675" lon="13.214253730879644"><ele>935.1999999999999</ele><time>2026-05-01T09:11:07.998Z</time></trkpt><trkpt lat="42.13226629787134" lon="13.21431282312044"><ele>935.5999999999999</ele><time>2026-05-01T09:11:08.998Z</time></trkpt><trkpt lat="42.132142552549865" lon="13.21431124549928"><ele>936.0</ele><time>2026-05-01T09:11:09.998Z</time></trkpt><trkpt lat="42.13201853298671" lon="13.214339289645315"><ele>936.0</ele><time>2026-05-01T09:11:10.998Z</time></trkpt><trkpt lat="42.131891583086045" lon="13.214352996171044"><ele>936.0</ele><time>2026-05-01T09:11:11.998Z</time></trkpt><trkpt lat="42.131763168342374" lon="13.214378547146483"><ele>936.0</ele><time>2026-05-01T09:11:12.998Z</time></trkpt><trkpt lat="42.13163776738753" lon="13.214410510194542"><ele>936.0</ele><time>2026-05-01T09:11:13.998Z</time></trkpt><trkpt lat="42.13152888074545" lon="13.214481509356887"><ele>935.75</ele><time>2026-05-01T09:11:14.998Z</time></trkpt><trkpt lat="42.13141775445341" lon="13.214583972151592"><ele>935.5</ele><time>2026-05-01T09:11:15.998Z</time></trkpt><trkpt lat="42.131339630299934" lon="13.214734496101288"><ele>935.25</ele><time>2026-05-01T09:11:16.998Z</time></trkpt><trkpt lat="42.13129859998881" lon="13.214920838706062"><ele>935.0</ele><time>2026-05-01T09:11:17.998Z</time></trkpt><trkpt lat="42.131248771985284" lon="13.21510589469835"><ele>935.0</ele><time>2026-05-01T09:11:18.998Z</time></trkpt><trkpt lat="42.13122949079888" lon="13.215299704667762"><ele>935.0</ele><time>2026-05-01T09:11:19.998Z</time></trkpt><trkpt lat="42.13120389478359" lon="13.215490942010815"><ele>935.0</ele><time>2026-05-01T09:11:20.998Z</time></trkpt><trkpt lat="42.131179305832426" lon="13.215671899361222"><ele>935.0</ele><time>2026-05-01T09:11:21.998Z</time></trkpt><trkpt lat="42.13110239801627" lon="13.215827258648472"><ele>935.25</ele><time>2026-05-01T09:11:22.998Z</time></trkpt><trkpt lat="42.13099580251721" lon="13.215963583552712"><ele>935.5</ele><time>2026-05-01T09:11:23.998Z</time></trkpt><trkpt lat="42.13089428767669" lon="13.216082958279724"><ele>935.75</ele><time>2026-05-01T09:11:24.998Z</time></trkpt><trkpt lat="42.13077477990397" lon="13.216173989513488"><ele>936.0</ele><time>2026-05-01T09:11:25.998Z</time></trkpt><trkpt lat="42.13064474756336" lon="13.216258216803359"><ele>936.0</ele><time>2026-05-01T09:11:26.998Z</time></trkpt><trkpt lat="42.13049755200891" lon="13.216293054078173"><ele>936.0</ele><time>2026-05-01T09:11:27.998Z</time></trkpt><trkpt lat="42.13034877216181" lon="13.216351152617758"><ele>936.0</ele><time>2026-05-01T09:11:28.998Z</time></trkpt><trkpt lat="42.13020005247363" lon="13.216374782136128"><ele>936.0</ele><time>2026-05-01T09:11:29.998Z</time></trkpt><trkpt lat="42.1300778569151" lon="13.216420545664759"><ele>936.0</ele><time>2026-05-01T09:11:30.998Z</time></trkpt><trkpt lat="42.12997314910809" lon="13.216478977991859"><ele>936.0</ele><time>2026-05-01T09:11:31.999Z</time></trkpt><trkpt lat="42.12992316818779" lon="13.216604918053577"><ele>936.0</ele><time>2026-05-01T09:11:32.999Z</time></trkpt><trkpt lat="42.129919347230135" lon="13.216760776185973"><ele>940.5</ele><time>2026-05-01T09:11:33.999Z</time></trkpt><trkpt lat="42.12996657751142" lon="13.216902698625972"><ele>945.0</ele><time>2026-05-01T09:11:34.999Z</time></trkpt><trkpt lat="42.130031992533304" lon="13.217028817560083"><ele>949.5</ele><time>2026-05-01T09:11:35.999Z</time></trkpt><trkpt lat="42.130086385522034" lon="13.217166887906192"><ele>954.0</ele><time>2026-05-01T09:11:36.999Z</time></trkpt><trkpt lat="42.13012772153239" lon="13.217299990496112"><ele>955.25</ele><time>2026-05-01T09:11:37.999Z</time></trkpt><trkpt lat="42.130162654100765" lon="13.2174617040905"><ele>956.5</ele><time>2026-05-01T09:11:38.999Z</time></trkpt><trkpt lat="42.1301751136221" lon="13.217657977442402"><ele>957.75</ele><time>2026-05-01T09:11:39.999Z</time></trkpt><trkpt lat="42.130157097660614" lon="13.217837332793199"><ele>959.0</ele><time>2026-05-01T09:11:40.999Z</time></trkpt><trkpt lat="42.13012030323976" lon="13.21800977235551"><ele>961.25</ele><time>2026-05-01T09:11:41.999Z</time></trkpt><trkpt lat="42.13007642956677" lon="13.218161431487298"><ele>963.5</ele><time>2026-05-01T09:11:42.999Z</time></trkpt><trkpt lat="42.13000996028967" lon="13.218319450282381"><ele>965.75</ele><time>2026-05-01T09:11:43.999Z</time></trkpt><trkpt lat="42.129955375623005" lon="13.218472033404314"><ele>968.0</ele><time>2026-05-01T09:11:44.999Z</time></trkpt><trkpt lat="42.129894234579275" lon="13.218623641157667"><ele>969.5</ele><time>2026-05-01T09:11:45.999Z</time></trkpt><trkpt lat="42.12983124928716" lon="13.218773993524994"><ele>971.0</ele><time>2026-05-01T09:11:46.999Z</time></trkpt><trkpt lat="42.12973073883898" lon="13.218885624858604"><ele>972.5</ele><time>2026-05-01T09:11:47.999Z</time></trkpt><trkpt lat="42.12961731392854" lon="13.218979813077999"><ele>974.0</ele><time>2026-05-01T09:11:48.999Z</time></trkpt><trkpt lat="42.12949572397542" lon="13.219042537020648"><ele>974.0</ele><time>2026-05-01T09:11:49.999Z</time></trkpt><trkpt lat="42.129371147497274" lon="13.21909387262549"><ele>974.0</ele><time>2026-05-01T09:11:50.999Z</time></trkpt><trkpt lat="42.12924620004976" lon="13.219137694944749"><ele>974.0</ele><time>2026-05-01T09:11:51.999Z</time></trkpt><trkpt lat="42.129120286816324" lon="13.219173347282307"><ele>974.0</ele><time>2026-05-01T09:11:52.999Z</time></trkpt><trkpt lat="42.12901137863631" lon="13.219201777765802"><ele>969.5</ele><time>2026-05-01T09:11:53.999Z</time></trkpt><trkpt lat="42.12890848359472" lon="13.219255562968037"><ele>965.0</ele><time>2026-05-01T09:11:54.999Z</time></trkpt><trkpt lat="42.12880396972871" lon="13.219298132835245"><ele>960.5</ele><time>2026-05-01T09:11:55.999Z</time></trkpt><trkpt lat="42.12869915831712" lon="13.219359856513575"><ele>956.0</ele><time>2026-05-01T09:11:56.999Z</time></trkpt><trkpt lat="42.128625052202054" lon="13.219495839784289"><ele>956.0</ele><time>2026-05-01T09:11:57.999Z</time></trkpt><trkpt lat="42.1285524187334" lon="13.21964133988309"><ele>956.0</ele><time>2026-05-01T09:11:58.999Z</time></trkpt><trkpt lat="42.12848316717606" lon="13.219790536530617"><ele>956.0</ele><time>2026-05-01T09:11:59.999Z</time></trkpt><trkpt lat="42.12839740104858" lon="13.219946840245655"><ele>956.0</ele><time>2026-05-01T09:12:00.999Z</time></trkpt><trkpt lat="42.12830878835104" lon="13.22008003213255"><ele>957.25</ele><time>2026-05-01T09:12:01.999Z</time></trkpt><trkpt lat="42.12817734697651" lon="13.220161140219702"><ele>958.5</ele><time>2026-05-01T09:12:02.999Z</time></trkpt><trkpt lat="42.12804789052919" lon="13.220239188472547"><ele>959.75</ele><time>2026-05-01T09:12:03.999Z</time></trkpt><trkpt lat="42.1279045960814" lon="13.220330472138"><ele>961.0</ele><time>2026-05-01T09:12:04.999Z</time></trkpt><trkpt lat="42.127771585321604" lon="13.220437363263779"><ele>961.0</ele><time>2026-05-01T09:12:05.999Z</time></trkpt><trkpt lat="42.12764172526099" lon="13.22055705516059"><ele>961.0</ele><time>2026-05-01T09:12:06.999Z</time></trkpt><trkpt lat="42.12750956677015" lon="13.22069051640681"><ele>961.0</ele><time>2026-05-01T09:12:07.999Z</time></trkpt><trkpt lat="42.12738227108237" lon="13.220828020354693"><ele>964.6666666666666</ele><time>2026-05-01T09:12:08.999Z</time></trkpt><trkpt lat="42.127253804454185" lon="13.220970667051049"><ele>968.3333333333333</ele><time>2026-05-01T09:12:09.999Z</time></trkpt><trkpt lat="42.12712631641819" lon="13.221109920525477"><ele>972.0</ele><time>2026-05-01T09:12:10.999Z</time></trkpt><trkpt lat="42.127004560256474" lon="13.221228187432864"><ele>972.0</ele><time>2026-05-01T09:12:11.999Z</time></trkpt><trkpt lat="42.12688431519267" lon="13.221324571406763"><ele>972.0</ele><time>2026-05-01T09:12:12.999Z</time></trkpt><trkpt lat="42.1267620997631" lon="13.221407862361877"><ele>972.0</ele><time>2026-05-01T09:12:13.999Z</time></trkpt><trkpt lat="42.12663900846485" lon="13.221460513107301"><ele>972.0</ele><time>2026-05-01T09:12:14.999Z</time></trkpt><trkpt lat="42.126508642667595" lon="13.221505251550704"><ele>976.5</ele><time>2026-05-01T09:12:15.999Z</time></trkpt><trkpt lat="42.12637951048147" lon="13.221547428279997"><ele>981.0</ele><time>2026-05-01T09:12:16.999Z</time></trkpt><trkpt lat="42.12624367539954" lon="13.221591794215241"><ele>985.5</ele><time>2026-05-01T09:12:17.999Z</time></trkpt><trkpt lat="42.12610283119182" lon="13.221638620473582"><ele>990.0</ele><time>2026-05-01T09:12:18.999Z</time></trkpt><trkpt lat="42.12596238884034" lon="13.221686754739066"><ele>990.0</ele><time>2026-05-01T09:12:19.999Z</time></trkpt><trkpt lat="42.12582415293917" lon="13.221734132910203"><ele>990.0</ele><time>2026-05-01T09:12:20.999Z</time></trkpt><trkpt lat="42.12569091287726" lon="13.221798281309384"><ele>990.0</ele><time>2026-05-01T09:12:21.999Z</time></trkpt><trkpt lat="42.12556514314714" lon="13.221845291309943"><ele>990.0</ele><time>2026-05-01T09:12:22.999Z</time></trkpt><trkpt lat="42.12544383483987" lon="13.221885587928456"><ele>990.75</ele><time>2026-05-01T09:12:23.999Z</time></trkpt><trkpt lat="42.125325172253554" lon="13.221921489794621"><ele>991.5</ele><time>2026-05-01T09:12:24.999Z</time></trkpt><trkpt lat="42.12520635033555" lon="13.2219308214524"><ele>992.25</ele><time>2026-05-01T09:12:25.999Z</time></trkpt><trkpt lat="42.125092590597895" lon="13.221878622860828"><ele>993.0</ele><time>2026-05-01T09:12:26.999Z</time></trkpt><trkpt lat="42.124985638975026" lon="13.221818066341815"><ele>993.5</ele><time>2026-05-01T09:12:27.999Z</time></trkpt><trkpt lat="42.12486683779529" lon="13.221783212612964"><ele>994.0</ele><time>2026-05-01T09:12:28.999Z</time></trkpt><trkpt lat="42.1247626551115" lon="13.221706175839715"><ele>994.5</ele><time>2026-05-01T09:12:29.999Z</time></trkpt><trkpt lat="42.12464035326388" lon="13.221663786432575"><ele>995.0</ele><time>2026-05-01T09:12:30.999Z</time></trkpt><trkpt lat="42.12452314968952" lon="13.22170202064942"><ele>995.0</ele><time>2026-05-01T09:12:31.999Z</time></trkpt><trkpt lat="42.124411830790045" lon="13.221735220001362"><ele>995.0</ele><time>2026-05-01T09:12:32.999Z</time></trkpt><trkpt lat="42.12430042371134" lon="13.221774938889578"><ele>995.0</ele><time>2026-05-01T09:12:33.999Z</time></trkpt><trkpt lat="42.124174166241275" lon="13.221804798174027"><ele>995.0</ele><time>2026-05-01T09:12:34.999Z</time></trkpt><trkpt lat="42.12404726770307" lon="13.221828955102701"><ele>997.25</ele><time>2026-05-01T09:12:35.999Z</time></trkpt><trkpt lat="42.12391627447798" lon="13.22184195109415"><ele>999.5</ele><time>2026-05-01T09:12:36.999Z</time></trkpt><trkpt lat="42.12377419948948" lon="13.221849511827044"><ele>1001.75</ele><time>2026-05-01T09:12:37.999Z</time></trkpt><trkpt lat="42.12363084818503" lon="13.221840536006583"><ele>1004.0</ele><time>2026-05-01T09:12:38.999Z</time></trkpt><trkpt lat="42.123513894654415" lon="13.221772722760866"><ele>1004.0</ele><time>2026-05-01T09:12:39.999Z</time></trkpt><trkpt lat="42.12339357049556" lon="13.221720261979305"><ele>1004.0000000000001</ele><time>2026-05-01T09:12:40.999Z</time></trkpt><trkpt lat="42.123304208417245" lon="13.221664156635766"><ele>1004.0000000000001</ele><time>2026-05-01T09:12:41.999Z</time></trkpt><trkpt lat="42.12323693207491" lon="13.22157265205759"><ele>1004.0</ele><time>2026-05-01T09:12:42.999Z</time></trkpt><trkpt lat="42.12321279327071" lon="13.221421556498461"><ele>1004.0</ele><time>2026-05-01T09:12:43.999Z</time></trkpt><trkpt lat="42.123172576034605" lon="13.221253600297029"><ele>1003.75</ele><time>2026-05-01T09:12:44.999Z</time></trkpt><trkpt lat="42.123144631377166" lon="13.221081150592878"><ele>1003.5</ele><time>2026-05-01T09:12:45.999Z</time></trkpt><trkpt lat="42.1231326646477" lon="13.220915704345478"><ele>1003.25</ele><time>2026-05-01T09:12:46.999Z</time></trkpt><trkpt lat="42.123084775500224" lon="13.220766084237594"><ele>1003.0</ele><time>2026-05-01T09:12:47.999Z</time></trkpt><trkpt lat="42.12300303493742" lon="13.220689363776152"><ele>1003.0</ele><time>2026-05-01T09:12:48.999Z</time></trkpt><trkpt lat="42.12289752245269" lon="13.220697049104444"><ele>1003.0</ele><time>2026-05-01T09:12:49.999Z</time></trkpt><trkpt lat="42.12279010879091" lon="13.2207136022907"><ele>1003.0</ele><time>2026-05-01T09:12:50.999Z</time></trkpt><trkpt lat="42.12266915714584" lon="13.220717565581749"><ele>1003.0</ele><time>2026-05-01T09:12:51.998Z</time></trkpt><trkpt lat="42.12256954445076" lon="13.220758499995807"><ele>1003.0</ele><time>2026-05-01T09:12:52.998Z</time></trkpt><trkpt lat="42.12247977200895" lon="13.22077810775822"><ele>998.5999999999999</ele><time>2026-05-01T09:12:53.998Z</time></trkpt><trkpt lat="42.122387279346576" lon="13.22080155139851"><ele>994.1999999999999</ele><time>2026-05-01T09:12:54.998Z</time></trkpt><trkpt lat="42.122314131787924" lon="13.220848977422389"><ele>989.8</ele><time>2026-05-01T09:12:55.998Z</time></trkpt><trkpt lat="42.12225065658139" lon="13.220906362103658"><ele>985.4</ele><time>2026-05-01T09:12:56.998Z</time></trkpt><trkpt lat="42.1221988938248" lon="13.221072464816272"><ele>981.0</ele><time>2026-05-01T09:12:57.998Z</time></trkpt><trkpt lat="42.122196198695846" lon="13.221251785092274"><ele>981.0</ele><time>2026-05-01T09:12:58.998Z</time></trkpt><trkpt lat="42.12220282995126" lon="13.221450851752019"><ele>981.0</ele><time>2026-05-01T09:12:59.998Z</time></trkpt><trkpt lat="42.12219204146406" lon="13.221640263040092"><ele>981.0</ele><time>2026-05-01T09:13:00.998Z</time></trkpt><trkpt lat="42.122164515748885" lon="13.221830303224596"><ele>981.0</ele><time>2026-05-01T09:13:01.998Z</time></trkpt><trkpt lat="42.12212180722969" lon="13.222002820899382"><ele>983.0</ele><time>2026-05-01T09:13:02.998Z</time></trkpt><trkpt lat="42.12207722614643" lon="13.222178684171688"><ele>985.0</ele><time>2026-05-01T09:13:03.998Z</time></trkpt><trkpt lat="42.12203006613936" lon="13.222367934148503"><ele>987.0</ele><time>2026-05-01T09:13:04.998Z</time></trkpt><trkpt lat="42.12197558447273" lon="13.222547572167713"><ele>989.0</ele><time>2026-05-01T09:13:05.998Z</time></trkpt><trkpt lat="42.12194466795437" lon="13.222731576141866"><ele>990.0</ele><time>2026-05-01T09:13:06.998Z</time></trkpt><trkpt lat="42.12193424733958" lon="13.222923561809749"><ele>991.0</ele><time>2026-05-01T09:13:07.998Z</time></trkpt><trkpt lat="42.12195564949669" lon="13.223134992928848"><ele>992.0</ele><time>2026-05-01T09:13:08.998Z</time></trkpt><trkpt lat="42.121998204518945" lon="13.223328176254846"><ele>993.0</ele><time>2026-05-01T09:13:09.998Z</time></trkpt><trkpt lat="42.122058819755374" lon="13.223516715025266"><ele>994.0</ele><time>2026-05-01T09:13:10.998Z</time></trkpt><trkpt lat="42.1221350371663" lon="13.223686477075447"><ele>995.0</ele><time>2026-05-01T09:13:11.998Z</time></trkpt><trkpt lat="42.12221291661342" lon="13.223842454782417"><ele>996.0</ele><time>2026-05-01T09:13:12.998Z</time></trkpt><trkpt lat="42.12228789686745" lon="13.22399154449886"><ele>996.0</ele><time>2026-05-01T09:13:13.998Z</time></trkpt><trkpt lat="42.12234188863543" lon="13.22412801194968"><ele>995.9999999999999</ele><time>2026-05-01T09:13:14.998Z</time></trkpt><trkpt lat="42.12236522178161" lon="13.22426693796531"><ele>995.9999999999999</ele><time>2026-05-01T09:13:15.998Z</time></trkpt><trkpt lat="42.122341211147265" lon="13.224388444741072"><ele>996.0</ele><time>2026-05-01T09:13:16.998Z</time></trkpt><trkpt lat="42.12230313205218" lon="13.224519941097752"><ele>996.0</ele><time>2026-05-01T09:13:17.998Z</time></trkpt><trkpt lat="42.12222872736829" lon="13.224632092928355"><ele>996.0</ele><time>2026-05-01T09:13:18.998Z</time></trkpt><trkpt lat="42.12216386486602" lon="13.22476893019531"><ele>996.0</ele><time>2026-05-01T09:13:19.998Z</time></trkpt><trkpt lat="42.122099842231485" lon="13.224908742472545"><ele>996.0</ele><time>2026-05-01T09:13:20.998Z</time></trkpt><trkpt lat="42.12203079008379" lon="13.2250595381203"><ele>996.0</ele><time>2026-05-01T09:13:21.998Z</time></trkpt><trkpt lat="42.12196483116742" lon="13.225203578813106"><ele>998.75</ele><time>2026-05-01T09:13:22.998Z</time></trkpt><trkpt lat="42.121899214387454" lon="13.22534519105298"><ele>1001.5</ele><time>2026-05-01T09:13:23.998Z</time></trkpt><trkpt lat="42.121831361629155" lon="13.225489088025302"><ele>1004.25</ele><time>2026-05-01T09:13:24.998Z</time></trkpt><trkpt lat="42.12176687446533" lon="13.225638594440328"><ele>1007.0</ele><time>2026-05-01T09:13:25.998Z</time></trkpt><trkpt lat="42.12167638897379" lon="13.225762609422503"><ele>1006.75</ele><time>2026-05-01T09:13:26.998Z</time></trkpt><trkpt lat="42.12156321152755" lon="13.225837776477304"><ele>1006.5</ele><time>2026-05-01T09:13:27.998Z</time></trkpt><trkpt lat="42.1214534099177" lon="13.225910774799665"><ele>1006.25</ele><time>2026-05-01T09:13:28.998Z</time></trkpt><trkpt lat="42.12134511893836" lon="13.225982559329417"><ele>1006.0</ele><time>2026-05-01T09:13:29.998Z</time></trkpt><trkpt lat="42.1212339734453" lon="13.226053121461675"><ele>1006.0</ele><time>2026-05-01T09:13:30.998Z</time></trkpt><trkpt lat="42.121124211765384" lon="13.226125665986919"><ele>1006.0</ele><time>2026-05-01T09:13:31.998Z</time></trkpt><trkpt lat="42.12101396620525" lon="13.226199800577021"><ele>1006.0</ele><time>2026-05-01T09:13:32.998Z</time></trkpt><trkpt lat="42.120910889118306" lon="13.226295957905478"><ele>1006.0</ele><time>2026-05-01T09:13:33.998Z</time></trkpt><trkpt lat="42.120796485240035" lon="13.226365255260179"><ele>1007.5</ele><time>2026-05-01T09:13:34.998Z</time></trkpt><trkpt lat="42.12069228629434" lon="13.226441160260135"><ele>1009.0</ele><time>2026-05-01T09:13:35.998Z</time></trkpt><trkpt lat="42.120588143557484" lon="13.226504561868431"><ele>1010.5</ele><time>2026-05-01T09:13:36.998Z</time></trkpt><trkpt lat="42.12048068142668" lon="13.226565401157792"><ele>1012.0</ele><time>2026-05-01T09:13:37.999Z</time></trkpt><trkpt lat="42.12038574429036" lon="13.226629341374732"><ele>1012.0</ele><time>2026-05-01T09:13:39Z</time></trkpt><trkpt lat="42.120299435562295" lon="13.22669725938011"><ele>1012.0</ele><time>2026-05-01T09:13:39.999Z</time></trkpt><trkpt lat="42.12023283659542" lon="13.226775658934459"><ele>1012.0</ele><time>2026-05-01T09:13:40.999Z</time></trkpt><trkpt lat="42.120172877249566" lon="13.22687874624665"><ele>1012.0</ele><time>2026-05-01T09:13:42Z</time></trkpt><trkpt lat="42.1201048191181" lon="13.227003684244684"><ele>1012.0</ele><time>2026-05-01T09:13:42.999Z</time></trkpt><trkpt lat="42.12001889765807" lon="13.227099744844613"><ele>1012.0</ele><time>2026-05-01T09:13:43.999Z</time></trkpt><trkpt lat="42.119940532744444" lon="13.227215673678971"><ele>1012.0</ele><time>2026-05-01T09:13:45Z</time></trkpt><trkpt lat="42.11987223571408" lon="13.227346269454607"><ele>1012.0</ele><time>2026-05-01T09:13:45.999Z</time></trkpt><trkpt lat="42.119804063186955" lon="13.227483490895395"><ele>1012.0</ele><time>2026-05-01T09:13:47Z</time></trkpt><trkpt lat="42.11973996773642" lon="13.227633547009319"><ele>1009.75</ele><time>2026-05-01T09:13:48Z</time></trkpt><trkpt lat="42.119687920591765" lon="13.227775945366034"><ele>1007.5</ele><time>2026-05-01T09:13:48.999Z</time></trkpt><trkpt lat="42.11963879404416" lon="13.227909656161037"><ele>1005.25</ele><time>2026-05-01T09:13:50Z</time></trkpt><trkpt lat="42.119601361308845" lon="13.22806525469533"><ele>1003.0</ele><time>2026-05-01T09:13:51Z</time></trkpt><trkpt lat="42.119521310932775" lon="13.2281961726529"><ele>1003.0</ele><time>2026-05-01T09:13:52Z</time></trkpt><trkpt lat="42.119467971091005" lon="13.228354962082886"><ele>1003.0</ele><time>2026-05-01T09:13:52.999Z</time></trkpt><trkpt lat="42.11941463018146" lon="13.228520029552673"><ele>1003.0</ele><time>2026-05-01T09:13:53.999Z</time></trkpt><trkpt lat="42.11936303544804" lon="13.228694028001629"><ele>1003.0</ele><time>2026-05-01T09:13:54.999Z</time></trkpt><trkpt lat="42.119292290503026" lon="13.228861847586105"><ele>1005.25</ele><time>2026-05-01T09:13:55.999Z</time></trkpt><trkpt lat="42.11919904938024" lon="13.229012804242673"><ele>1007.5</ele><time>2026-05-01T09:13:56.999Z</time></trkpt><trkpt lat="42.119088706270965" lon="13.22914197600081"><ele>1009.75</ele><time>2026-05-01T09:13:57.999Z</time></trkpt><trkpt lat="42.11898044390752" lon="13.229276317302041"><ele>1012.0</ele><time>2026-05-01T09:13:58.999Z</time></trkpt><trkpt lat="42.11887094354362" lon="13.229410302036552"><ele>1008.6666666666666</ele><time>2026-05-01T09:13:59.999Z</time></trkpt><trkpt lat="42.11877529031974" lon="13.229580577878831"><ele>1005.3333333333333</ele><time>2026-05-01T09:14:00.999Z</time></trkpt><trkpt lat="42.11869632685591" lon="13.229755232796318"><ele>1002.0</ele><time>2026-05-01T09:14:01.999Z</time></trkpt><trkpt lat="42.11858728553246" lon="13.22989127720836"><ele>1002.0</ele><time>2026-05-01T09:14:02.999Z</time></trkpt><trkpt lat="42.11845415501009" lon="13.229952315096112"><ele>1002.0</ele><time>2026-05-01T09:14:03.999Z</time></trkpt><trkpt lat="42.11832651799742" lon="13.230021189216982"><ele>1002.0</ele><time>2026-05-01T09:14:04.999Z</time></trkpt><trkpt lat="42.11820168079623" lon="13.23011976089524"><ele>1002.0</ele><time>2026-05-01T09:14:05.999Z</time></trkpt><trkpt lat="42.118079107969194" lon="13.230284989472809"><ele>997.6666666666667</ele><time>2026-05-01T09:14:06.999Z</time></trkpt><trkpt lat="42.117968799690274" lon="13.230455319240827"><ele>993.3333333333334</ele><time>2026-05-01T09:14:07.999Z</time></trkpt><trkpt lat="42.117854172828146" lon="13.230630596762273"><ele>989.0</ele><time>2026-05-01T09:14:08.999Z</time></trkpt><trkpt lat="42.11774045537327" lon="13.230804301072627"><ele>989.0</ele><time>2026-05-01T09:14:09.999Z</time></trkpt><trkpt lat="42.11762838651835" lon="13.230977807315533"><ele>989.0</ele><time>2026-05-01T09:14:10.999Z</time></trkpt><trkpt lat="42.117515217061616" lon="13.231150701964978"><ele>989.0</ele><time>2026-05-01T09:14:11.999Z</time></trkpt><trkpt lat="42.117400033856775" lon="13.231328393170843"><ele>984.3333333333334</ele><time>2026-05-01T09:14:12.999Z</time></trkpt><trkpt lat="42.11728852972727" lon="13.231500283194181"><ele>979.6666666666667</ele><time>2026-05-01T09:14:13.999Z</time></trkpt><trkpt lat="42.11717806242551" lon="13.231672071283056"><ele>975.0</ele><time>2026-05-01T09:14:14.999Z</time></trkpt><trkpt lat="42.11708309929344" lon="13.23185720394936"><ele>975.0</ele><time>2026-05-01T09:14:15.999Z</time></trkpt><trkpt lat="42.11699707005602" lon="13.2320382103618"><ele>975.0</ele><time>2026-05-01T09:14:16.999Z</time></trkpt><trkpt lat="42.11689565190137" lon="13.23219804587967"><ele>975.0</ele><time>2026-05-01T09:14:17.999Z</time></trkpt><trkpt lat="42.11677292007036" lon="13.232336710260105"><ele>972.0</ele><time>2026-05-01T09:14:18.999Z</time></trkpt><trkpt lat="42.116645645485306" lon="13.23246561951689"><ele>969.0</ele><time>2026-05-01T09:14:19.999Z</time></trkpt><trkpt lat="42.11651695938127" lon="13.232577266970162"><ele>966.0</ele><time>2026-05-01T09:14:20.999Z</time></trkpt><trkpt lat="42.11637555968857" lon="13.232660224206366"><ele>966.0</ele><time>2026-05-01T09:14:21.999Z</time></trkpt><trkpt lat="42.11623898680921" lon="13.23274386356144"><ele>966.0</ele><time>2026-05-01T09:14:22.999Z</time></trkpt><trkpt lat="42.11610199477197" lon="13.23280488453999"><ele>966.0</ele><time>2026-05-01T09:14:23.999Z</time></trkpt><trkpt lat="42.11598357503047" lon="13.232815458113304"><ele>966.0</ele><time>2026-05-01T09:14:24.999Z</time></trkpt><trkpt lat="42.1158767457823" lon="13.232812807601283"><ele>963.6666666666667</ele><time>2026-05-01T09:14:25.999Z</time></trkpt><trkpt lat="42.11571426357489" lon="13.232885847292579"><ele>961.3333333333334</ele><time>2026-05-01T09:14:26.999Z</time></trkpt><trkpt lat="42.11568137513465" lon="13.233108408472482"><ele>959.0</ele><time>2026-05-01T09:14:27.999Z</time></trkpt><trkpt lat="42.11565241257633" lon="13.233277709292866"><ele>959.0</ele><time>2026-05-01T09:14:28.999Z</time></trkpt><trkpt lat="42.1156243717115" lon="13.233435681692562"><ele>959.0</ele><time>2026-05-01T09:14:29.999Z</time></trkpt><trkpt lat="42.11556728163747" lon="13.23359125972413"><ele>959.0</ele><time>2026-05-01T09:14:30.999Z</time></trkpt><trkpt lat="42.115503903230284" lon="13.23373707984988"><ele>959.0</ele><time>2026-05-01T09:14:31.999Z</time></trkpt><trkpt lat="42.11539969409538" lon="13.233814061907864"><ele>959.0</ele><time>2026-05-01T09:14:32.999Z</time></trkpt><trkpt lat="42.11527493152329" lon="13.233908940544232"><ele>959.0</ele><time>2026-05-01T09:14:33.999Z</time></trkpt><trkpt lat="42.115162412407784" lon="13.233979682664975"><ele>959.0</ele><time>2026-05-01T09:14:34.999Z</time></trkpt><trkpt lat="42.11504075149727" lon="13.234014765182454"><ele>959.0</ele><time>2026-05-01T09:14:35.999Z</time></trkpt><trkpt lat="42.114926124626415" lon="13.234018208511424"><ele>959.3333333333334</ele><time>2026-05-01T09:14:36.999Z</time></trkpt><trkpt lat="42.11478015392619" lon="13.234046996723128"><ele>959.6666666666667</ele><time>2026-05-01T09:14:37.999Z</time></trkpt><trkpt lat="42.11464881023899" lon="13.234199583045687"><ele>960.0</ele><time>2026-05-01T09:14:38.999Z</time></trkpt><trkpt lat="42.114575893503556" lon="13.23436889053856"><ele>960.0</ele><time>2026-05-01T09:14:39.999Z</time></trkpt><trkpt lat="42.114503806643704" lon="13.234489197903264"><ele>960.0</ele><time>2026-05-01T09:14:40.999Z</time></trkpt><trkpt lat="42.11442768333755" lon="13.234568164032881"><ele>960.0</ele><time>2026-05-01T09:14:41.999Z</time></trkpt><trkpt lat="42.11434932843121" lon="13.234569161767913"><ele>960.0</ele><time>2026-05-01T09:14:42.999Z</time></trkpt><trkpt lat="42.11432291393493" lon="13.234476287498735"><ele>960.0</ele><time>2026-05-01T09:14:44.999Z</time></trkpt><trkpt lat="42.114235941553865" lon="13.234697325307275"><ele>960.0</ele><time>2026-05-01T09:14:46.999Z</time></trkpt><trkpt lat="42.114196966320854" lon="13.234764624164987"><ele>960.0</ele><time>2026-05-01T09:14:48.999Z</time></trkpt><trkpt lat="42.11414051943261" lon="13.23481934625886"><ele>960.0</ele><time>2026-05-01T09:14:53.999Z</time></trkpt><trkpt lat="42.11418454580575" lon="13.234750072864392"><ele>960.0</ele><time>2026-05-01T09:15:08.998Z</time></trkpt><trkpt lat="42.1142121658264" lon="13.234667590242301"><ele>960.0</ele><time>2026-05-01T09:15:13.998Z</time></trkpt><trkpt lat="42.11423395251565" lon="13.234562586489707"><ele>960.0</ele><time>2026-05-01T09:15:15.998Z</time></trkpt><trkpt lat="42.11429415385347" lon="13.234443832847488"><ele>960.0</ele><time>2026-05-01T09:15:16.998Z</time></trkpt><trkpt lat="42.11434609524456" lon="13.234307997154062"><ele>960.0</ele><time>2026-05-01T09:15:17.998Z</time></trkpt><trkpt lat="42.114379652473694" lon="13.234189041269076"><ele>960.0</ele><time>2026-05-01T09:15:18.998Z</time></trkpt><trkpt lat="42.11442735792018" lon="13.23410163589311"><ele>960.0</ele><time>2026-05-01T09:15:19.998Z</time></trkpt><trkpt lat="42.11447526245506" lon="13.233990190581796"><ele>960.0</ele><time>2026-05-01T09:15:20.998Z</time></trkpt><trkpt lat="42.114550731514065" lon="13.233908417340917"><ele>959.8</ele><time>2026-05-01T09:15:21.998Z</time></trkpt><trkpt lat="42.114617681310534" lon="13.23381301181156"><ele>959.6</ele><time>2026-05-01T09:15:22.998Z</time></trkpt><trkpt lat="42.1147132698189" lon="13.233775492951244"><ele>959.4000000000001</ele><time>2026-05-01T09:15:23.998Z</time></trkpt><trkpt lat="42.11482418143149" lon="13.233760800913265"><ele>959.2</ele><time>2026-05-01T09:15:24.998Z</time></trkpt><trkpt lat="42.11492041289231" lon="13.23375434116215"><ele>959.0</ele><time>2026-05-01T09:15:25.998Z</time></trkpt><trkpt lat="42.11501003998852" lon="13.233671621848528"><ele>959.0</ele><time>2026-05-01T09:15:26.998Z</time></trkpt><trkpt lat="42.11507236843975" lon="13.233555541037743"><ele>959.0</ele><time>2026-05-01T09:15:27.998Z</time></trkpt><trkpt lat="42.115111027688386" lon="13.233417987128536"><ele>959.0</ele><time>2026-05-01T09:15:28.998Z</time></trkpt><trkpt lat="42.11515149338551" lon="13.23325209148886"><ele>959.0</ele><time>2026-05-01T09:15:29.998Z</time></trkpt><trkpt lat="42.11517567608756" lon="13.233055075455836"><ele>956.25</ele><time>2026-05-01T09:15:30.998Z</time></trkpt><trkpt lat="42.11519664553013" lon="13.232874392693725"><ele>953.5</ele><time>2026-05-01T09:15:31.998Z</time></trkpt><trkpt lat="42.1152172736627" lon="13.232709053289506"><ele>950.75</ele><time>2026-05-01T09:15:32.998Z</time></trkpt><trkpt lat="42.11523923748095" lon="13.232533007951737"><ele>948.0</ele><time>2026-05-01T09:15:33.998Z</time></trkpt><trkpt lat="42.115263460618806" lon="13.232346626725285"><ele>946.5</ele><time>2026-05-01T09:15:34.998Z</time></trkpt><trkpt lat="42.11528864085179" lon="13.232178380420141"><ele>945.0</ele><time>2026-05-01T09:15:35.998Z</time></trkpt><trkpt lat="42.11531231982465" lon="13.232008978926974"><ele>943.5</ele><time>2026-05-01T09:15:36.998Z</time></trkpt><trkpt lat="42.1153317526725" lon="13.231850270179297"><ele>942.0</ele><time>2026-05-01T09:15:37.998Z</time></trkpt><trkpt lat="42.11536598482023" lon="13.231716147806205"><ele>942.0</ele><time>2026-05-01T09:15:38.998Z</time></trkpt><trkpt lat="42.115457744547" lon="13.23159714933884"><ele>942.0</ele><time>2026-05-01T09:15:39.998Z</time></trkpt><trkpt lat="42.1155713792223" lon="13.231484610340551"><ele>942.0</ele><time>2026-05-01T09:15:40.998Z</time></trkpt><trkpt lat="42.115701458594074" lon="13.231419620544628"><ele>942.0</ele><time>2026-05-01T09:15:41.998Z</time></trkpt><trkpt lat="42.11582078967977" lon="13.231293671797285"><ele>943.3333333333333</ele><time>2026-05-01T09:15:42.998Z</time></trkpt><trkpt lat="42.11592945521473" lon="13.23115522142777"><ele>944.6666666666666</ele><time>2026-05-01T09:15:44Z</time></trkpt><trkpt lat="42.116043118184" lon="13.231015431352445"><ele>946.0</ele><time>2026-05-01T09:15:45Z</time></trkpt><trkpt lat="42.11616468059891" lon="13.230869421311166"><ele>946.0</ele><time>2026-05-01T09:15:46Z</time></trkpt><trkpt lat="42.11628688650457" lon="13.230723900746547"><ele>946.0</ele><time>2026-05-01T09:15:47Z</time></trkpt><trkpt lat="42.11640093447575" lon="13.230584633809672"><ele>946.0</ele><time>2026-05-01T09:15:48Z</time></trkpt><trkpt lat="42.11650705033982" lon="13.23043901715668"><ele>947.0</ele><time>2026-05-01T09:15:49Z</time></trkpt><trkpt lat="42.116590932064334" lon="13.230266199174203"><ele>948.0</ele><time>2026-05-01T09:15:50Z</time></trkpt><trkpt lat="42.11663967751814" lon="13.230070285171324"><ele>949.0</ele><time>2026-05-01T09:15:51Z</time></trkpt><trkpt lat="42.11662180096359" lon="13.229879593789317"><ele>950.0</ele><time>2026-05-01T09:15:52Z</time></trkpt><trkpt lat="42.11659491068561" lon="13.22969974891434"><ele>945.75</ele><time>2026-05-01T09:15:53Z</time></trkpt><trkpt lat="42.11653723796561" lon="13.229511599740132"><ele>941.5</ele><time>2026-05-01T09:15:54Z</time></trkpt><trkpt lat="42.11647959328163" lon="13.229326400175143"><ele>937.25</ele><time>2026-05-01T09:15:55Z</time></trkpt><trkpt lat="42.116423560046044" lon="13.229151791438094"><ele>933.0</ele><time>2026-05-01T09:15:56Z</time></trkpt><trkpt lat="42.11637637425654" lon="13.22898606629454"><ele>929.8</ele><time>2026-05-01T09:15:57Z</time></trkpt><trkpt lat="42.11631882954563" lon="13.228853254909344"><ele>926.5999999999999</ele><time>2026-05-01T09:15:58Z</time></trkpt><trkpt lat="42.116217431064335" lon="13.228793299826153"><ele>923.4000000000001</ele><time>2026-05-01T09:15:59Z</time></trkpt><trkpt lat="42.116104774659355" lon="13.228767168846476"><ele>920.2</ele><time>2026-05-01T09:16:00Z</time></trkpt><trkpt lat="42.115997710993675" lon="13.22875223032809"><ele>917.0</ele><time>2026-05-01T09:16:01Z</time></trkpt><trkpt lat="42.11591388417758" lon="13.228777073045828"><ele>917.0000000000001</ele><time>2026-05-01T09:16:02Z</time></trkpt><trkpt lat="42.11584205695631" lon="13.228834486180707"><ele>917.0</ele><time>2026-05-01T09:16:03Z</time></trkpt><trkpt lat="42.115799329811864" lon="13.228924152080486"><ele>917.0</ele><time>2026-05-01T09:16:03.999Z</time></trkpt><trkpt lat="42.1157755476523" lon="13.229040225885589"><ele>917.0</ele><time>2026-05-01T09:16:04.999Z</time></trkpt><trkpt lat="42.11578573973971" lon="13.229151634468492"><ele>917.0000000000001</ele><time>2026-05-01T09:16:05.999Z</time></trkpt><trkpt lat="42.11581601522574" lon="13.229279845093503"><ele>917.0</ele><time>2026-05-01T09:16:06.999Z</time></trkpt><trkpt lat="42.115874790393" lon="13.229424911420775"><ele>915.0</ele><time>2026-05-01T09:16:07.999Z</time></trkpt><trkpt lat="42.11589420681272" lon="13.229556375005973"><ele>913.0</ele><time>2026-05-01T09:16:08.999Z</time></trkpt><trkpt lat="42.11583556958228" lon="13.229760940333074"><ele>911.0</ele><time>2026-05-01T09:16:09.999Z</time></trkpt><trkpt lat="42.11580231118575" lon="13.229867322325395"><ele>909.0</ele><time>2026-05-01T09:16:10.999Z</time></trkpt><trkpt lat="42.11571643398092" lon="13.229980805113994"><ele>909.0</ele><time>2026-05-01T09:16:11.999Z</time></trkpt><trkpt lat="42.11558434266596" lon="13.230059849491477"><ele>909.0</ele><time>2026-05-01T09:16:12.999Z</time></trkpt><trkpt lat="42.11544800368876" lon="13.230119303169646"><ele>909.0</ele><time>2026-05-01T09:16:13.999Z</time></trkpt><trkpt lat="42.11531853992981" lon="13.230221897640055"><ele>909.0</ele><time>2026-05-01T09:16:14.999Z</time></trkpt><trkpt lat="42.11514406324425" lon="13.23025666616552"><ele>909.0</ele><time>2026-05-01T09:16:15.999Z</time></trkpt><trkpt lat="42.115009274910165" lon="13.230339571482387"><ele>909.0</ele><time>2026-05-01T09:16:16.999Z</time></trkpt><trkpt lat="42.114869285492986" lon="13.230404080145846"><ele>909.0</ele><time>2026-05-01T09:16:17.999Z</time></trkpt><trkpt lat="42.114719078653046" lon="13.230450835536892"><ele>907.0</ele><time>2026-05-01T09:16:18.999Z</time></trkpt><trkpt lat="42.114584655978526" lon="13.230481613330566"><ele>905.0</ele><time>2026-05-01T09:16:19.999Z</time></trkpt><trkpt lat="42.11446162034381" lon="13.230535292058432"><ele>903.0</ele><time>2026-05-01T09:16:20.999Z</time></trkpt><trkpt lat="42.11435534816725" lon="13.230630002809999"><ele>901.0</ele><time>2026-05-01T09:16:21.999Z</time></trkpt><trkpt lat="42.11428525925381" lon="13.230769638852468"><ele>901.0</ele><time>2026-05-01T09:16:22.999Z</time></trkpt><trkpt lat="42.11421164289632" lon="13.230947196579338"><ele>901.0</ele><time>2026-05-01T09:16:23.999Z</time></trkpt><trkpt lat="42.114193349675325" lon="13.231064610895423"><ele>901.0</ele><time>2026-05-01T09:16:24.999Z</time></trkpt><trkpt lat="42.1141869047629" lon="13.231234156463294"><ele>901.0</ele><time>2026-05-01T09:16:25.999Z</time></trkpt><trkpt lat="42.11419670807716" lon="13.231403048652671"><ele>903.1999999999999</ele><time>2026-05-01T09:16:26.999Z</time></trkpt><trkpt lat="42.114215629719425" lon="13.231567428747233"><ele>905.3999999999999</ele><time>2026-05-01T09:16:27.999Z</time></trkpt><trkpt lat="42.114214866466554" lon="13.231723256365113"><ele>907.6</ele><time>2026-05-01T09:16:28.999Z</time></trkpt><trkpt lat="42.11420803076445" lon="13.231854829447382"><ele>909.8</ele><time>2026-05-01T09:16:29.999Z</time></trkpt><trkpt lat="42.11416742862797" lon="13.231971777417758"><ele>912.0</ele><time>2026-05-01T09:16:30.999Z</time></trkpt><trkpt lat="42.114104425687174" lon="13.231975153218691"><ele>905.0</ele><time>2026-05-01T09:16:31.999Z</time></trkpt><trkpt lat="42.11400012523865" lon="13.231987159962332"><ele>898.0</ele><time>2026-05-01T09:16:32.999Z</time></trkpt><trkpt lat="42.11389311375684" lon="13.231994614446785"><ele>891.0</ele><time>2026-05-01T09:16:33.999Z</time></trkpt><trkpt lat="42.113770957048246" lon="13.23200272458112"><ele>884.0</ele><time>2026-05-01T09:16:34.999Z</time></trkpt><trkpt lat="42.11364892891353" lon="13.232008288819191"><ele>884.0</ele><time>2026-05-01T09:16:35.999Z</time></trkpt><trkpt lat="42.11351961806034" lon="13.232018945855486"><ele>884.0</ele><time>2026-05-01T09:16:36.999Z</time></trkpt><trkpt lat="42.11339136433078" lon="13.232050715100394"><ele>884.0</ele><time>2026-05-01T09:16:37.999Z</time></trkpt><trkpt lat="42.113283190010016" lon="13.232093205194051"><ele>884.0</ele><time>2026-05-01T09:16:38.999Z</time></trkpt><trkpt lat="42.11317267181789" lon="13.232130651104205"><ele>884.25</ele><time>2026-05-01T09:16:39.999Z</time></trkpt><trkpt lat="42.11306158498388" lon="13.232158550401449"><ele>884.5</ele><time>2026-05-01T09:16:40.999Z</time></trkpt><trkpt lat="42.1129544107956" lon="13.232093703060634"><ele>884.75</ele><time>2026-05-01T09:16:41.999Z</time></trkpt><trkpt lat="42.112868034401245" lon="13.231971717540619"><ele>885.0</ele><time>2026-05-01T09:16:42.999Z</time></trkpt><trkpt lat="42.112711063197146" lon="13.231913678480467"><ele>885.0</ele><time>2026-05-01T09:16:43.999Z</time></trkpt><trkpt lat="42.11258093758538" lon="13.231888903727178"><ele>885.0</ele><time>2026-05-01T09:16:44.999Z</time></trkpt><trkpt lat="42.11244433273207" lon="13.23186499591723"><ele>885.0</ele><time>2026-05-01T09:16:45.999Z</time></trkpt><trkpt lat="42.11232789932258" lon="13.231813107911478"><ele>885.0</ele><time>2026-05-01T09:16:46.999Z</time></trkpt><trkpt lat="42.11222350297955" lon="13.231730562582054"><ele>882.75</ele><time>2026-05-01T09:16:47.999Z</time></trkpt><trkpt lat="42.11216310063509" lon="13.23156158836885"><ele>880.5</ele><time>2026-05-01T09:16:48.999Z</time></trkpt><trkpt lat="42.11205972509654" lon="13.231462963016586"><ele>878.25</ele><time>2026-05-01T09:16:49.999Z</time></trkpt><trkpt lat="42.11195651917103" lon="13.231424219401983"><ele>876.0</ele><time>2026-05-01T09:16:50.999Z</time></trkpt><trkpt lat="42.11186132245871" lon="13.231468218382155"><ele>876.0</ele><time>2026-05-01T09:16:51.999Z</time></trkpt><trkpt lat="42.111783026714036" lon="13.231622431526246"><ele>876.0</ele><time>2026-05-01T09:16:52.999Z</time></trkpt><trkpt lat="42.111767850434084" lon="13.231735589597902"><ele>876.0</ele><time>2026-05-01T09:16:53.999Z</time></trkpt><trkpt lat="42.11171605647529" lon="13.231815700914625"><ele>876.0</ele><time>2026-05-01T09:16:54.999Z</time></trkpt><trkpt lat="42.11182527597883" lon="13.232075322836337"><ele>876.0</ele><time>2026-05-01T09:16:55.999Z</time></trkpt><trkpt lat="42.11173818913077" lon="13.232200432584145"><ele>876.0</ele><time>2026-05-01T09:16:56.999Z</time></trkpt><trkpt lat="42.11168135798537" lon="13.232271981166843"><ele>876.0</ele><time>2026-05-01T09:16:57.999Z</time></trkpt><trkpt lat="42.11153841004613" lon="13.232348809193597"><ele>876.0</ele><time>2026-05-01T09:16:59.999Z</time></trkpt><trkpt lat="42.111441595171826" lon="13.232410086003473"><ele>875.5</ele><time>2026-05-01T09:17:00.999Z</time></trkpt><trkpt lat="42.11134603752044" lon="13.232496044355289"><ele>875.0</ele><time>2026-05-01T09:17:01.999Z</time></trkpt><trkpt lat="42.111214994738795" lon="13.232496534532633"><ele>874.5</ele><time>2026-05-01T09:17:02.999Z</time></trkpt><trkpt lat="42.111021921066836" lon="13.232486986595458"><ele>874.0</ele><time>2026-05-01T09:17:03.999Z</time></trkpt><trkpt lat="42.11089909345252" lon="13.232611768269763"><ele>874.0</ele><time>2026-05-01T09:17:04.999Z</time></trkpt><trkpt lat="42.11078295066239" lon="13.232732088691678"><ele>874.0</ele><time>2026-05-01T09:17:05.999Z</time></trkpt><trkpt lat="42.11068149428359" lon="13.232831308717454"><ele>874.0</ele><time>2026-05-01T09:17:06.999Z</time></trkpt><trkpt lat="42.11057195654814" lon="13.23293941542189"><ele>874.0</ele><time>2026-05-01T09:17:07.999Z</time></trkpt><trkpt lat="42.11046902786157" lon="13.233049572311003"><ele>871.75</ele><time>2026-05-01T09:17:08.999Z</time></trkpt><trkpt lat="42.110356127270045" lon="13.233150513401446"><ele>869.5</ele><time>2026-05-01T09:17:09.999Z</time></trkpt><trkpt lat="42.11025809792097" lon="13.233254030938626"><ele>867.25</ele><time>2026-05-01T09:17:10.999Z</time></trkpt><trkpt lat="42.1101267864237" lon="13.233222143587001"><ele>865.0</ele><time>2026-05-01T09:17:11.999Z</time></trkpt><trkpt lat="42.11001816417305" lon="13.233245183163955"><ele>861.4</ele><time>2026-05-01T09:17:12.999Z</time></trkpt><trkpt lat="42.10989882433609" lon="13.233308916722226"><ele>857.8</ele><time>2026-05-01T09:17:13.998Z</time></trkpt><trkpt lat="42.10982045050326" lon="13.233382054764146"><ele>854.2</ele><time>2026-05-01T09:17:14.998Z</time></trkpt><trkpt lat="42.10975892810937" lon="13.233500549038178"><ele>850.6</ele><time>2026-05-01T09:17:15.998Z</time></trkpt><trkpt lat="42.10975684959853" lon="13.233613267559337"><ele>847.0</ele><time>2026-05-01T09:17:16.998Z</time></trkpt><trkpt lat="42.10982410342997" lon="13.233664099184114"><ele>847.0</ele><time>2026-05-01T09:17:17.998Z</time></trkpt><trkpt lat="42.10983548026914" lon="13.233772745276086"><ele>847.0</ele><time>2026-05-01T09:17:18.998Z</time></trkpt><trkpt lat="42.10984595418468" lon="13.233877936608103"><ele>847.0</ele><time>2026-05-01T09:17:19.998Z</time></trkpt><trkpt lat="42.10986485626897" lon="13.23419562668342"><ele>847.0</ele><time>2026-05-01T09:17:21.998Z</time></trkpt><trkpt lat="42.10984273526008" lon="13.234341482527732"><ele>846.0</ele><time>2026-05-01T09:17:22.998Z</time></trkpt><trkpt lat="42.10979951850631" lon="13.23448282302165"><ele>845.0</ele><time>2026-05-01T09:17:23.998Z</time></trkpt><trkpt lat="42.10975387750135" lon="13.234589533988272"><ele>844.0</ele><time>2026-05-01T09:17:24.998Z</time></trkpt><trkpt lat="42.10967474206174" lon="13.234729393505761"><ele>843.0</ele><time>2026-05-01T09:17:25.998Z</time></trkpt><trkpt lat="42.10959542378503" lon="13.234837835874874"><ele>842.0</ele><time>2026-05-01T09:17:26.998Z</time></trkpt><trkpt lat="42.10949131840374" lon="13.234946651226515"><ele>844.0</ele><time>2026-05-01T09:17:27.998Z</time></trkpt><trkpt lat="42.10937116649943" lon="13.235030294048256"><ele>846.0</ele><time>2026-05-01T09:17:28.998Z</time></trkpt><trkpt lat="42.109219231573576" lon="13.23507938185081"><ele>848.0</ele><time>2026-05-01T09:17:29.998Z</time></trkpt><trkpt lat="42.10909422557012" lon="13.235102821727983"><ele>850.0</ele><time>2026-05-01T09:17:30.998Z</time></trkpt><trkpt lat="42.108971434488005" lon="13.235092308190524"><ele>850.0</ele><time>2026-05-01T09:17:31.998Z</time></trkpt><trkpt lat="42.10883819327751" lon="13.235075087767004"><ele>850.0</ele><time>2026-05-01T09:17:32.998Z</time></trkpt><trkpt lat="42.1087054801365" lon="13.235050172888636"><ele>850.0</ele><time>2026-05-01T09:17:33.998Z</time></trkpt><trkpt lat="42.108565733089655" lon="13.235045497997085"><ele>850.0</ele><time>2026-05-01T09:17:34.998Z</time></trkpt><trkpt lat="42.1084225486107" lon="13.234993065452935"><ele>850.0</ele><time>2026-05-01T09:17:35.998Z</time></trkpt><trkpt lat="42.10827977269942" lon="13.234960550436638"><ele>850.0</ele><time>2026-05-01T09:17:36.998Z</time></trkpt><trkpt lat="42.10815496069452" lon="13.234928277008448"><ele>850.0</ele><time>2026-05-01T09:17:37.998Z</time></trkpt><trkpt lat="42.108023770380385" lon="13.23490616454696"><ele>850.0</ele><time>2026-05-01T09:17:38.998Z</time></trkpt><trkpt lat="42.107907353091946" lon="13.23484019632998"><ele>849.0</ele><time>2026-05-01T09:17:39.998Z</time></trkpt><trkpt lat="42.10780143255078" lon="13.234916122700184"><ele>848.0</ele><time>2026-05-01T09:17:40.998Z</time></trkpt><trkpt lat="42.10772937094657" lon="13.234990216769482"><ele>847.0</ele><time>2026-05-01T09:17:41.998Z</time></trkpt><trkpt lat="42.10767708863993" lon="13.23507316733601"><ele>846.0</ele><time>2026-05-01T09:17:42.998Z</time></trkpt><trkpt lat="42.10763456081915" lon="13.235153568564915"><ele>845.0</ele><time>2026-05-01T09:17:43.998Z</time></trkpt><trkpt lat="42.10758204815887" lon="13.235268222756456"><ele>845.0</ele><time>2026-05-01T09:17:44.998Z</time></trkpt><trkpt lat="42.1075421768661" lon="13.235385677846686"><ele>845.0</ele><time>2026-05-01T09:17:45.998Z</time></trkpt><trkpt lat="42.10751027761563" lon="13.235522468741342"><ele>845.0</ele><time>2026-05-01T09:17:46.998Z</time></trkpt><trkpt lat="42.10751024205491" lon="13.23566884324186"><ele>845.0</ele><time>2026-05-01T09:17:47.998Z</time></trkpt><trkpt lat="42.10756662638876" lon="13.235800461609807"><ele>845.0</ele><time>2026-05-01T09:17:48.998Z</time></trkpt><trkpt lat="42.107620147172696" lon="13.235944873653649"><ele>845.75</ele><time>2026-05-01T09:17:50Z</time></trkpt><trkpt lat="42.107666853274075" lon="13.236123140810925"><ele>846.5</ele><time>2026-05-01T09:17:51Z</time></trkpt><trkpt lat="42.107700028925464" lon="13.236273593008649"><ele>847.25</ele><time>2026-05-01T09:17:52Z</time></trkpt><trkpt lat="42.1077486114761" lon="13.236440183239104"><ele>848.0</ele><time>2026-05-01T09:17:53Z</time></trkpt><trkpt lat="42.107801807481955" lon="13.236624487967939"><ele>846.25</ele><time>2026-05-01T09:17:54Z</time></trkpt><trkpt lat="42.107829550972816" lon="13.236787857266071"><ele>844.5</ele><time>2026-05-01T09:17:55Z</time></trkpt><trkpt lat="42.10778933435595" lon="13.23696504203339"><ele>842.75</ele><time>2026-05-01T09:17:56Z</time></trkpt><trkpt lat="42.107769834514926" lon="13.23710602279567"><ele>841.0</ele><time>2026-05-01T09:17:57Z</time></trkpt><trkpt lat="42.107716355564456" lon="13.237235536663304"><ele>842.75</ele><time>2026-05-01T09:17:58Z</time></trkpt><trkpt lat="42.107664834104426" lon="13.237375074729295"><ele>844.5</ele><time>2026-05-01T09:17:59Z</time></trkpt><trkpt lat="42.10761237654665" lon="13.23752669510488"><ele>846.25</ele><time>2026-05-01T09:18:00Z</time></trkpt><trkpt lat="42.107548435722094" lon="13.23768085543045"><ele>848.0</ele><time>2026-05-01T09:18:01Z</time></trkpt><trkpt lat="42.107490626402516" lon="13.237827930050878"><ele>848.0</ele><time>2026-05-01T09:18:02Z</time></trkpt><trkpt lat="42.10742136398277" lon="13.23795318671648"><ele>848.0</ele><time>2026-05-01T09:18:03Z</time></trkpt><trkpt lat="42.107347719753704" lon="13.238045913153897"><ele>848.0</ele><time>2026-05-01T09:18:04Z</time></trkpt><trkpt lat="42.10724808715486" lon="13.23815076460337"><ele>848.0</ele><time>2026-05-01T09:18:05Z</time></trkpt><trkpt lat="42.10714063409263" lon="13.238307246768786"><ele>845.75</ele><time>2026-05-01T09:18:06Z</time></trkpt><trkpt lat="42.10705607878156" lon="13.238458835947064"><ele>843.5</ele><time>2026-05-01T09:18:07Z</time></trkpt><trkpt lat="42.1069971982014" lon="13.23860937636423"><ele>841.25</ele><time>2026-05-01T09:18:08Z</time></trkpt><trkpt lat="42.10697293531135" lon="13.23875658840654"><ele>839.0</ele><time>2026-05-01T09:18:09Z</time></trkpt><trkpt lat="42.10702755413632" lon="13.238924537765271"><ele>841.0</ele><time>2026-05-01T09:18:10Z</time></trkpt><trkpt lat="42.1070940429781" lon="13.239047676713414"><ele>843.0</ele><time>2026-05-01T09:18:11Z</time></trkpt><trkpt lat="42.10712005126409" lon="13.239196748781747"><ele>845.0</ele><time>2026-05-01T09:18:12Z</time></trkpt><trkpt lat="42.10711118715326" lon="13.239354202448594"><ele>847.0</ele><time>2026-05-01T09:18:13Z</time></trkpt><trkpt lat="42.10707646938829" lon="13.239518674157017"><ele>847.0</ele><time>2026-05-01T09:18:14Z</time></trkpt><trkpt lat="42.10701341984931" lon="13.239616165917411"><ele>847.0</ele><time>2026-05-01T09:18:15Z</time></trkpt><trkpt lat="42.106930833590646" lon="13.239689208041405"><ele>847.0</ele><time>2026-05-01T09:18:16Z</time></trkpt><trkpt lat="42.10683069786432" lon="13.239744257110607"><ele>847.0</ele><time>2026-05-01T09:18:17Z</time></trkpt><trkpt lat="42.10670582374494" lon="13.239789435122898"><ele>847.0</ele><time>2026-05-01T09:18:17.999Z</time></trkpt><trkpt lat="42.1066067342528" lon="13.239910757201482"><ele>846.75</ele><time>2026-05-01T09:18:18.999Z</time></trkpt><trkpt lat="42.10654004938239" lon="13.2400596223992"><ele>846.5</ele><time>2026-05-01T09:18:19.999Z</time></trkpt><trkpt lat="42.10647731179648" lon="13.240196452674546"><ele>846.25</ele><time>2026-05-01T09:18:20.999Z</time></trkpt><trkpt lat="42.10644475322896" lon="13.240355558348961"><ele>846.0</ele><time>2026-05-01T09:18:21.999Z</time></trkpt><trkpt lat="42.10638970946595" lon="13.240547508866149"><ele>848.25</ele><time>2026-05-01T09:18:22.999Z</time></trkpt><trkpt lat="42.106342792567524" lon="13.240711120060048"><ele>850.5</ele><time>2026-05-01T09:18:23.999Z</time></trkpt><trkpt lat="42.10629478995666" lon="13.240878453125925"><ele>852.75</ele><time>2026-05-01T09:18:24.999Z</time></trkpt><trkpt lat="42.10623511705154" lon="13.241038279735932"><ele>855.0</ele><time>2026-05-01T09:18:25.999Z</time></trkpt><trkpt lat="42.10619728100187" lon="13.241218361318767"><ele>855.0</ele><time>2026-05-01T09:18:26.999Z</time></trkpt><trkpt lat="42.10613670332159" lon="13.241399008452749"><ele>855.0</ele><time>2026-05-01T09:18:27.999Z</time></trkpt><trkpt lat="42.106085770408434" lon="13.241581349430103"><ele>855.0</ele><time>2026-05-01T09:18:28.999Z</time></trkpt><trkpt lat="42.10602608044664" lon="13.241755748666694"><ele>855.0</ele><time>2026-05-01T09:18:29.999Z</time></trkpt><trkpt lat="42.105983576053575" lon="13.241934147480984"><ele>857.75</ele><time>2026-05-01T09:18:30.999Z</time></trkpt><trkpt lat="42.10596441571573" lon="13.242114699071674"><ele>860.5</ele><time>2026-05-01T09:18:31.999Z</time></trkpt><trkpt lat="42.105987188515115" lon="13.24231035874861"><ele>863.25</ele><time>2026-05-01T09:18:32.999Z</time></trkpt><trkpt lat="42.10602118528804" lon="13.242507251854736"><ele>866.0</ele><time>2026-05-01T09:18:33.999Z</time></trkpt><trkpt lat="42.10608826883015" lon="13.242689753082521"><ele>866.6666666666667</ele><time>2026-05-01T09:18:34.999Z</time></trkpt><trkpt lat="42.10615499157103" lon="13.242867505590732"><ele>867.3333333333333</ele><time>2026-05-01T09:18:35.999Z</time></trkpt><trkpt lat="42.10623090343899" lon="13.243045796505843"><ele>868.0</ele><time>2026-05-01T09:18:36.999Z</time></trkpt><trkpt lat="42.10629336573551" lon="13.24323187280264"><ele>866.3333333333333</ele><time>2026-05-01T09:18:37.999Z</time></trkpt><trkpt lat="42.1063576823983" lon="13.243415728998444"><ele>864.6666666666667</ele><time>2026-05-01T09:18:38.999Z</time></trkpt><trkpt lat="42.106390191266904" lon="13.243614892881004"><ele>863.0</ele><time>2026-05-01T09:18:39.999Z</time></trkpt><trkpt lat="42.1064054791096" lon="13.243815128465817"><ele>865.3333333333334</ele><time>2026-05-01T09:18:40.999Z</time></trkpt><trkpt lat="42.10641666381219" lon="13.24402076487894"><ele>867.6666666666667</ele><time>2026-05-01T09:18:41.999Z</time></trkpt><trkpt lat="42.10642518716671" lon="13.24421858020561"><ele>870.0</ele><time>2026-05-01T09:18:42.999Z</time></trkpt><trkpt lat="42.10642667443396" lon="13.24442507700072"><ele>870.0</ele><time>2026-05-01T09:18:43.999Z</time></trkpt><trkpt lat="42.10641724325795" lon="13.244628015325166"><ele>870.0</ele><time>2026-05-01T09:18:44.999Z</time></trkpt><trkpt lat="42.106418117948344" lon="13.244843275841992"><ele>870.0</ele><time>2026-05-01T09:18:45.999Z</time></trkpt><trkpt lat="42.106437003677115" lon="13.245057839771993"><ele>870.3333333333333</ele><time>2026-05-01T09:18:46.999Z</time></trkpt><trkpt lat="42.10645798468898" lon="13.24528501591366"><ele>870.6666666666666</ele><time>2026-05-01T09:18:47.999Z</time></trkpt><trkpt lat="42.10648229331851" lon="13.245499677350448"><ele>871.0</ele><time>2026-05-01T09:18:48.999Z</time></trkpt><trkpt lat="42.10650948679761" lon="13.245715902455883"><ele>871.25</ele><time>2026-05-01T09:18:49.999Z</time></trkpt><trkpt lat="42.106530622742405" lon="13.245915348529532"><ele>871.5</ele><time>2026-05-01T09:18:50.999Z</time></trkpt><trkpt lat="42.10654167363444" lon="13.24610004340697"><ele>871.75</ele><time>2026-05-01T09:18:51.999Z</time></trkpt><trkpt lat="42.106546916966224" lon="13.246313168563162"><ele>872.0</ele><time>2026-05-01T09:18:52.999Z</time></trkpt><trkpt lat="42.106533819683264" lon="13.2465155603359"><ele>872.6666666666667</ele><time>2026-05-01T09:18:53.999Z</time></trkpt><trkpt lat="42.10650799721911" lon="13.246728709349933"><ele>873.3333333333333</ele><time>2026-05-01T09:18:54.999Z</time></trkpt><trkpt lat="42.10647697461857" lon="13.24695890630919"><ele>874.0</ele><time>2026-05-01T09:18:55.999Z</time></trkpt><trkpt lat="42.10643626926981" lon="13.247169783347378"><ele>874.25</ele><time>2026-05-01T09:18:56.999Z</time></trkpt><trkpt lat="42.10644241970535" lon="13.247384275581876"><ele>874.5</ele><time>2026-05-01T09:18:57.999Z</time></trkpt><trkpt lat="42.10643654267639" lon="13.247581523523637"><ele>874.75</ele><time>2026-05-01T09:18:58.999Z</time></trkpt><trkpt lat="42.10642780220509" lon="13.247773650515393"><ele>875.0</ele><time>2026-05-01T09:18:59.999Z</time></trkpt><trkpt lat="42.10643222059085" lon="13.247966629292051"><ele>876.25</ele><time>2026-05-01T09:19:00.999Z</time></trkpt><trkpt lat="42.10643482694383" lon="13.248167002886033"><ele>877.5</ele><time>2026-05-01T09:19:01.999Z</time></trkpt><trkpt lat="42.10643290412608" lon="13.248359667144001"><ele>878.75</ele><time>2026-05-01T09:19:02.999Z</time></trkpt><trkpt lat="42.10642334899156" lon="13.248545090100864"><ele>880.0</ele><time>2026-05-01T09:19:03.999Z</time></trkpt><trkpt lat="42.10642677769021" lon="13.248719093259748"><ele>880.0</ele><time>2026-05-01T09:19:04.999Z</time></trkpt><trkpt lat="42.106438906997276" lon="13.24889013413342"><ele>880.0</ele><time>2026-05-01T09:19:05.999Z</time></trkpt><trkpt lat="42.10642875116196" lon="13.249054876487314"><ele>880.0</ele><time>2026-05-01T09:19:06.999Z</time></trkpt><trkpt lat="42.10644499677806" lon="13.249216681580775"><ele>880.0</ele><time>2026-05-01T09:19:07.999Z</time></trkpt><trkpt lat="42.10635319430745" lon="13.249354204237344"><ele>882.4</ele><time>2026-05-01T09:19:08.999Z</time></trkpt><trkpt lat="42.10626674517715" lon="13.249453693842241"><ele>884.8</ele><time>2026-05-01T09:19:09.999Z</time></trkpt><trkpt lat="42.106182387173575" lon="13.249547952812792"><ele>887.2</ele><time>2026-05-01T09:19:10.999Z</time></trkpt><trkpt lat="42.10608948158499" lon="13.249602933485663"><ele>889.6</ele><time>2026-05-01T09:19:11.999Z</time></trkpt><trkpt lat="42.105988880799416" lon="13.249646367957546"><ele>892.0</ele><time>2026-05-01T09:19:12.999Z</time></trkpt><trkpt lat="42.10589491443192" lon="13.24968092312923"><ele>892.0</ele><time>2026-05-01T09:19:13.999Z</time></trkpt><trkpt lat="42.105823160463345" lon="13.249716237186785"><ele>892.0</ele><time>2026-05-01T09:19:14.999Z</time></trkpt><trkpt lat="42.10576018122699" lon="13.249742101506882"><ele>892.0</ele><time>2026-05-01T09:19:15.999Z</time></trkpt><trkpt lat="42.10567289372054" lon="13.249831685571397"><ele>892.0</ele><time>2026-05-01T09:19:17.999Z</time></trkpt><trkpt lat="42.10559074757693" lon="13.249940390459129"><ele>892.0</ele><time>2026-05-01T09:19:19.999Z</time></trkpt><trkpt lat="42.105573772142726" lon="13.25007234884948"><ele>893.3333333333333</ele><time>2026-05-01T09:19:21.999Z</time></trkpt><trkpt lat="42.1056023253865" lon="13.250168682755529"><ele>894.6666666666666</ele><time>2026-05-01T09:19:23.999Z</time></trkpt><trkpt lat="42.10563142771592" lon="13.250296887975832"><ele>896.0</ele><time>2026-05-01T09:19:26.998Z</time></trkpt><trkpt lat="42.105639014690034" lon="13.250396227997115"><ele>897.3333333333333</ele><time>2026-05-01T09:19:28.998Z</time></trkpt><trkpt lat="42.10566677040227" lon="13.250511826267521"><ele>898.6666666666666</ele><time>2026-05-01T09:19:30.998Z</time></trkpt><trkpt lat="42.10573746144711" lon="13.250580109906192"><ele>900.0</ele><time>2026-05-01T09:19:32.998Z</time></trkpt><trkpt lat="42.10580855417418" lon="13.250652355281003"><ele>900.0</ele><time>2026-05-01T09:19:34.998Z</time></trkpt><trkpt lat="42.10592315641195" lon="13.250721727452312"><ele>900.0</ele><time>2026-05-01T09:19:36.998Z</time></trkpt><trkpt lat="42.10599671143563" lon="13.25077158713151"><ele>900.0</ele><time>2026-05-01T09:19:37.998Z</time></trkpt><trkpt lat="42.106058714381135" lon="13.25082088307195"><ele>900.0</ele><time>2026-05-01T09:19:38.998Z</time></trkpt><trkpt lat="42.106113436378415" lon="13.25087177298405"><ele>900.0</ele><time>2026-05-01T09:19:39.998Z</time></trkpt><trkpt lat="42.10616327491807" lon="13.250927467401773"><ele>900.0</ele><time>2026-05-01T09:19:40.998Z</time></trkpt><trkpt lat="42.10621052899823" lon="13.250990572308826"><ele>900.0</ele><time>2026-05-01T09:19:41.998Z</time></trkpt><trkpt lat="42.10625381025282" lon="13.251056408893557"><ele>900.0</ele><time>2026-05-01T09:19:42.998Z</time></trkpt><trkpt lat="42.1062934441844" lon="13.251127721628382"><ele>900.0</ele><time>2026-05-01T09:19:43.998Z</time></trkpt><trkpt lat="42.106366846463395" lon="13.251262267893086"><ele>900.0</ele><time>2026-05-01T09:19:45.998Z</time></trkpt><trkpt lat="42.10644332394397" lon="13.251400162202525"><ele>900.0</ele><time>2026-05-01T09:19:47.998Z</time></trkpt><trkpt lat="42.10646698322154" lon="13.25149343535319"><ele>898.0</ele><time>2026-05-01T09:19:48.998Z</time></trkpt><trkpt lat="42.10648257767991" lon="13.251596591299856"><ele>896.0</ele><time>2026-05-01T09:19:49.998Z</time></trkpt><trkpt lat="42.10649310257473" lon="13.251705098366525"><ele>894.0</ele><time>2026-05-01T09:19:50.998Z</time></trkpt><trkpt lat="42.10649160651883" lon="13.251820441339262"><ele>892.0</ele><time>2026-05-01T09:19:51.998Z</time></trkpt><trkpt lat="42.10648708877053" lon="13.251941827904986"><ele>890.0</ele><time>2026-05-01T09:19:52.998Z</time></trkpt><trkpt lat="42.10646245826522" lon="13.252061359108565"><ele>888.0</ele><time>2026-05-01T09:19:53.998Z</time></trkpt><trkpt lat="42.10644122014422" lon="13.252189213550528"><ele>887.5999999999999</ele><time>2026-05-01T09:19:55Z</time></trkpt><trkpt lat="42.10641899032326" lon="13.252310952193405"><ele>887.1999999999999</ele><time>2026-05-01T09:19:56Z</time></trkpt><trkpt lat="42.1064061456095" lon="13.25245031716287"><ele>886.8</ele><time>2026-05-01T09:19:57Z</time></trkpt><trkpt lat="42.10638835891716" lon="13.252594547017564"><ele>886.4</ele><time>2026-05-01T09:19:58Z</time></trkpt><trkpt lat="42.106374020184674" lon="13.252736830864091"><ele>886.0</ele><time>2026-05-01T09:19:59Z</time></trkpt><trkpt lat="42.10633991903397" lon="13.252890971091151"><ele>886.0</ele><time>2026-05-01T09:20:00Z</time></trkpt><trkpt lat="42.106297847495654" lon="13.253047186869743"><ele>886.0</ele><time>2026-05-01T09:20:01Z</time></trkpt><trkpt lat="42.10624826079183" lon="13.25321098628029"><ele>886.0</ele><time>2026-05-01T09:20:02Z</time></trkpt><trkpt lat="42.10619957329011" lon="13.253367182279367"><ele>886.0</ele><time>2026-05-01T09:20:03Z</time></trkpt><trkpt lat="42.10614710167116" lon="13.25352692183209"><ele>886.5</ele><time>2026-05-01T09:20:04Z</time></trkpt><trkpt lat="42.10608197055762" lon="13.253685117315479"><ele>887.0</ele><time>2026-05-01T09:20:05Z</time></trkpt><trkpt lat="42.10599528976797" lon="13.253822740579203"><ele>887.5</ele><time>2026-05-01T09:20:06Z</time></trkpt><trkpt lat="42.10591110014499" lon="13.253945931893126"><ele>888.0</ele><time>2026-05-01T09:20:07Z</time></trkpt><trkpt lat="42.105838509500025" lon="13.254085722188261"><ele>889.6666666666667</ele><time>2026-05-01T09:20:08Z</time></trkpt><trkpt lat="42.10579213873918" lon="13.254280899238879"><ele>891.3333333333334</ele><time>2026-05-01T09:20:09Z</time></trkpt><trkpt lat="42.105768336598345" lon="13.254471811937867"><ele>893.0</ele><time>2026-05-01T09:20:10Z</time></trkpt><trkpt lat="42.10574341830372" lon="13.254686523595357"><ele>881.6666666666667</ele><time>2026-05-01T09:20:11Z</time></trkpt><trkpt lat="42.105718606068734" lon="13.254913031549393"><ele>870.3333333333333</ele><time>2026-05-01T09:20:12Z</time></trkpt><trkpt lat="42.10570179741336" lon="13.255145235618897"><ele>859.0</ele><time>2026-05-01T09:20:13Z</time></trkpt><trkpt lat="42.105667065600606" lon="13.255348845181363"><ele>859.0</ele><time>2026-05-01T09:20:14Z</time></trkpt><trkpt lat="42.105624907474684" lon="13.255553978819371"><ele>859.0</ele><time>2026-05-01T09:20:15Z</time></trkpt><trkpt lat="42.10558089923447" lon="13.25574535207678"><ele>859.0</ele><time>2026-05-01T09:20:16Z</time></trkpt><trkpt lat="42.105553697418394" lon="13.25593322535802"><ele>859.0</ele><time>2026-05-01T09:20:17Z</time></trkpt><trkpt lat="42.10550559419069" lon="13.25609978199454"><ele>860.6666666666666</ele><time>2026-05-01T09:20:18Z</time></trkpt><trkpt lat="42.10547952036509" lon="13.256282175937024"><ele>862.3333333333333</ele><time>2026-05-01T09:20:19Z</time></trkpt><trkpt lat="42.105462838792114" lon="13.256483668788578"><ele>864.0</ele><time>2026-05-01T09:20:20Z</time></trkpt><trkpt lat="42.10545521119957" lon="13.256720531966662"><ele>867.0</ele><time>2026-05-01T09:20:21Z</time></trkpt><trkpt lat="42.105425972702506" lon="13.256927987875594"><ele>870.0</ele><time>2026-05-01T09:20:22Z</time></trkpt><trkpt lat="42.10535580988505" lon="13.257137708134339"><ele>873.0</ele><time>2026-05-01T09:20:23Z</time></trkpt><trkpt lat="42.10530042543937" lon="13.257351023716943"><ele>874.0</ele><time>2026-05-01T09:20:23.999Z</time></trkpt><trkpt lat="42.10524770354007" lon="13.257541589456277"><ele>875.0</ele><time>2026-05-01T09:20:24.999Z</time></trkpt><trkpt lat="42.10518669217035" lon="13.257724506854327"><ele>876.0</ele><time>2026-05-01T09:20:25.999Z</time></trkpt><trkpt lat="42.10509491585616" lon="13.257889823102687"><ele>876.0</ele><time>2026-05-01T09:20:26.999Z</time></trkpt><trkpt lat="42.1049819831065" lon="13.258039846568844"><ele>876.0</ele><time>2026-05-01T09:20:27.999Z</time></trkpt><trkpt lat="42.10483158297684" lon="13.258156114701078"><ele>876.0</ele><time>2026-05-01T09:20:28.999Z</time></trkpt><trkpt lat="42.10471756404532" lon="13.258289841789487"><ele>872.0</ele><time>2026-05-01T09:20:29.999Z</time></trkpt><trkpt lat="42.104615202036186" lon="13.258433330416239"><ele>868.0</ele><time>2026-05-01T09:20:30.999Z</time></trkpt><trkpt lat="42.104544844183394" lon="13.258579820163224"><ele>864.0</ele><time>2026-05-01T09:20:31.999Z</time></trkpt><trkpt lat="42.104509035330814" lon="13.258758827928396"><ele>860.0</ele><time>2026-05-01T09:20:32.999Z</time></trkpt><trkpt lat="42.104512199871" lon="13.258950790513664"><ele>861.0</ele><time>2026-05-01T09:20:33.999Z</time></trkpt><trkpt lat="42.104515529950454" lon="13.259124563624015"><ele>862.0</ele><time>2026-05-01T09:20:34.999Z</time></trkpt><trkpt lat="42.10449980622053" lon="13.259310773382175"><ele>863.0</ele><time>2026-05-01T09:20:35.999Z</time></trkpt><trkpt lat="42.10444844972291" lon="13.259470711455497"><ele>864.0</ele><time>2026-05-01T09:20:36.999Z</time></trkpt><trkpt lat="42.10436885665845" lon="13.259612585315558"><ele>864.0</ele><time>2026-05-01T09:20:37.999Z</time></trkpt><trkpt lat="42.104286457863246" lon="13.259738696212215"><ele>864.0</ele><time>2026-05-01T09:20:38.999Z</time></trkpt><trkpt lat="42.10421600730039" lon="13.259868308199293"><ele>864.0</ele><time>2026-05-01T09:20:39.999Z</time></trkpt><trkpt lat="42.104149458915714" lon="13.260011187195772"><ele>864.0</ele><time>2026-05-01T09:20:40.999Z</time></trkpt><trkpt lat="42.10406865941788" lon="13.260152882854852"><ele>863.75</ele><time>2026-05-01T09:20:41.999Z</time></trkpt><trkpt lat="42.1039559512073" lon="13.260298559342036"><ele>863.5</ele><time>2026-05-01T09:20:42.999Z</time></trkpt><trkpt lat="42.103856062317135" lon="13.260450547363117"><ele>863.25</ele><time>2026-05-01T09:20:43.999Z</time></trkpt><trkpt lat="42.1037584429617" lon="13.26059034382176"><ele>863.0</ele><time>2026-05-01T09:20:44.999Z</time></trkpt><trkpt lat="42.10364317850818" lon="13.260675393010787"><ele>863.0</ele><time>2026-05-01T09:20:45.999Z</time></trkpt><trkpt lat="42.10354106407022" lon="13.260809981271487"><ele>863.0</ele><time>2026-05-01T09:20:46.999Z</time></trkpt><trkpt lat="42.103429691654306" lon="13.260933714839213"><ele>863.0</ele><time>2026-05-01T09:20:47.999Z</time></trkpt><trkpt lat="42.1033102038757" lon="13.261076521349143"><ele>863.0</ele><time>2026-05-01T09:20:48.999Z</time></trkpt><trkpt lat="42.10319416215704" lon="13.261220200584685"><ele>861.3333333333334</ele><time>2026-05-01T09:20:49.999Z</time></trkpt><trkpt lat="42.10305970658743" lon="13.261364527108533"><ele>859.6666666666667</ele><time>2026-05-01T09:20:50.999Z</time></trkpt><trkpt lat="42.10291350838275" lon="13.26150369017604"><ele>858.0</ele><time>2026-05-01T09:20:51.999Z</time></trkpt><trkpt lat="42.10277027978062" lon="13.261629499723368"><ele>858.0</ele><time>2026-05-01T09:20:52.999Z</time></trkpt><trkpt lat="42.10262844613393" lon="13.261754120638331"><ele>858.0</ele><time>2026-05-01T09:20:53.999Z</time></trkpt><trkpt lat="42.10249217177773" lon="13.261871352364155"><ele>858.0</ele><time>2026-05-01T09:20:54.999Z</time></trkpt><trkpt lat="42.10236800593628" lon="13.261999311044526"><ele>856.5</ele><time>2026-05-01T09:20:55.999Z</time></trkpt><trkpt lat="42.1022155766459" lon="13.261996843243564"><ele>855.0</ele><time>2026-05-01T09:20:56.999Z</time></trkpt><trkpt lat="42.10207329880636" lon="13.26194530010741"><ele>853.5</ele><time>2026-05-01T09:20:57.999Z</time></trkpt><trkpt lat="42.10194144487605" lon="13.261954668131338"><ele>852.0</ele><time>2026-05-01T09:20:58.999Z</time></trkpt><trkpt lat="42.10180184230845" lon="13.261977693156503"><ele>852.0</ele><time>2026-05-01T09:20:59.999Z</time></trkpt><trkpt lat="42.10167148438258" lon="13.262081204174663"><ele>852.0</ele><time>2026-05-01T09:21:00.999Z</time></trkpt><trkpt lat="42.101556616057174" lon="13.262184064217745"><ele>852.0</ele><time>2026-05-01T09:21:01.999Z</time></trkpt><trkpt lat="42.101486710841954" lon="13.262351169034957"><ele>852.0</ele><time>2026-05-01T09:21:02.999Z</time></trkpt><trkpt lat="42.10142786867999" lon="13.262518398546426"><ele>848.3333333333333</ele><time>2026-05-01T09:21:03.999Z</time></trkpt><trkpt lat="42.101339973000464" lon="13.262711829039981"><ele>844.6666666666666</ele><time>2026-05-01T09:21:04.999Z</time></trkpt><trkpt lat="42.10120575432908" lon="13.262901244863835"><ele>841.0</ele><time>2026-05-01T09:21:05.999Z</time></trkpt><trkpt lat="42.101064939181256" lon="13.263051896951458"><ele>839.6666666666666</ele><time>2026-05-01T09:21:06.999Z</time></trkpt><trkpt lat="42.100925760246234" lon="13.263180018268667"><ele>838.3333333333333</ele><time>2026-05-01T09:21:07.999Z</time></trkpt><trkpt lat="42.10079770238834" lon="13.263303946600502"><ele>837.0</ele><time>2026-05-01T09:21:08.999Z</time></trkpt><trkpt lat="42.100687817897175" lon="13.263436522479136"><ele>837.0</ele><time>2026-05-01T09:21:09.999Z</time></trkpt><trkpt lat="42.10055130799414" lon="13.263548680854486"><ele>837.0</ele><time>2026-05-01T09:21:10.999Z</time></trkpt><trkpt lat="42.10041013047305" lon="13.263652694421477"><ele>837.0</ele><time>2026-05-01T09:21:11.999Z</time></trkpt><trkpt lat="42.10027727758519" lon="13.263761135954232"><ele>837.0</ele><time>2026-05-01T09:21:12.999Z</time></trkpt><trkpt lat="42.100167599404145" lon="13.263886553856329"><ele>837.0</ele><time>2026-05-01T09:21:13.999Z</time></trkpt><trkpt lat="42.10005579644837" lon="13.263998771882662"><ele>837.0</ele><time>2026-05-01T09:21:14.999Z</time></trkpt><trkpt lat="42.09994576022714" lon="13.264088811360626"><ele>837.0</ele><time>2026-05-01T09:21:15.999Z</time></trkpt><trkpt lat="42.099835303099304" lon="13.264196337927098"><ele>837.0</ele><time>2026-05-01T09:21:16.999Z</time></trkpt><trkpt lat="42.099733672443165" lon="13.264315376182068"><ele>837.0</ele><time>2026-05-01T09:21:17.999Z</time></trkpt><trkpt lat="42.0996349338665" lon="13.26444902802804"><ele>837.0</ele><time>2026-05-01T09:21:18.999Z</time></trkpt><trkpt lat="42.099539142176745" lon="13.264573735165458"><ele>837.0</ele><time>2026-05-01T09:21:19.999Z</time></trkpt><trkpt lat="42.099418415622885" lon="13.264691818592643"><ele>839.5</ele><time>2026-05-01T09:21:20.999Z</time></trkpt><trkpt lat="42.09928995382415" lon="13.264795812837498"><ele>842.0</ele><time>2026-05-01T09:21:21.999Z</time></trkpt><trkpt lat="42.09915593563468" lon="13.264886596559254"><ele>844.5</ele><time>2026-05-01T09:21:22.999Z</time></trkpt><trkpt lat="42.099025679426035" lon="13.264979227877687"><ele>847.0</ele><time>2026-05-01T09:21:23.999Z</time></trkpt><trkpt lat="42.09889366293854" lon="13.265058221418869"><ele>847.0</ele><time>2026-05-01T09:21:24.999Z</time></trkpt><trkpt lat="42.09877548929132" lon="13.265160580771099"><ele>847.0</ele><time>2026-05-01T09:21:25.999Z</time></trkpt><trkpt lat="42.09866643991283" lon="13.26525267963327"><ele>847.0</ele><time>2026-05-01T09:21:26.999Z</time></trkpt><trkpt lat="42.098563036885004" lon="13.265331608051843"><ele>847.0</ele><time>2026-05-01T09:21:27.999Z</time></trkpt><trkpt lat="42.09846503525377" lon="13.265398465288966"><ele>846.9999999999999</ele><time>2026-05-01T09:21:28.999Z</time></trkpt><trkpt lat="42.09836975977633" lon="13.265448591065104"><ele>847.0</ele><time>2026-05-01T09:21:29.998Z</time></trkpt><trkpt lat="42.09827573168878" lon="13.265419504958976"><ele>847.0</ele><time>2026-05-01T09:21:30.998Z</time></trkpt><trkpt lat="42.098198664227404" lon="13.265390174303691"><ele>847.0</ele><time>2026-05-01T09:21:31.998Z</time></trkpt><trkpt lat="42.098120977988636" lon="13.265344039978123"><ele>846.9999999999999</ele><time>2026-05-01T09:21:32.998Z</time></trkpt><trkpt lat="42.098048116666604" lon="13.265302662288386"><ele>847.0</ele><time>2026-05-01T09:21:33.998Z</time></trkpt><trkpt lat="42.097978199377394" lon="13.265264246917239"><ele>846.6</ele><time>2026-05-01T09:21:34.998Z</time></trkpt><trkpt lat="42.097909654257585" lon="13.265226585476723"><ele>846.2</ele><time>2026-05-01T09:21:35.998Z</time></trkpt><trkpt lat="42.09780363650689" lon="13.265168335054872"><ele>845.8</ele><time>2026-05-01T09:21:37.998Z</time></trkpt><trkpt lat="42.097733579950294" lon="13.265129843934055"><ele>845.4</ele><time>2026-05-01T09:21:39.998Z</time></trkpt><trkpt lat="42.0976697895705" lon="13.265094796189713"><ele>845.0</ele><time>2026-05-01T09:21:46.998Z</time></trkpt><trkpt lat="42.097633552392054" lon="13.265452437740644"><ele>845.0</ele><time>2026-05-01T09:22:01Z</time></trkpt><trkpt lat="42.09757425846033" lon="13.26554490617225"><ele>845.0</ele><time>2026-05-01T09:22:02Z</time></trkpt><trkpt lat="42.0974990457496" lon="13.265648690407534"><ele>845.0</ele><time>2026-05-01T09:22:04Z</time></trkpt><trkpt lat="42.09741277187554" lon="13.265740824639304"><ele>845.0</ele><time>2026-05-01T09:22:06Z</time></trkpt><trkpt lat="42.097343925968524" lon="13.265807118540506"><ele>845.0</ele><time>2026-05-01T09:22:08Z</time></trkpt><trkpt lat="42.09720913789251" lon="13.265919590366476"><ele>844.8</ele><time>2026-05-01T09:22:10Z</time></trkpt><trkpt lat="42.097111045503645" lon="13.265986558731534"><ele>844.6</ele><time>2026-05-01T09:22:11Z</time></trkpt><trkpt lat="42.09702542657697" lon="13.266033718185813"><ele>844.4000000000001</ele><time>2026-05-01T09:22:12Z</time></trkpt><trkpt lat="42.09696560442268" lon="13.266081984319802"><ele>844.2</ele><time>2026-05-01T09:22:13Z</time></trkpt><trkpt lat="42.096850744190384" lon="13.266111017944239"><ele>844.0</ele><time>2026-05-01T09:22:15Z</time></trkpt><trkpt lat="42.09678202850619" lon="13.266152572216043"><ele>844.0</ele><time>2026-05-01T09:22:16Z</time></trkpt><trkpt lat="42.096705170618876" lon="13.266174904634036"><ele>844.0</ele><time>2026-05-01T09:22:17Z</time></trkpt><trkpt lat="42.09659594194167" lon="13.266269324720074"><ele>844.0</ele><time>2026-05-01T09:22:19Z</time></trkpt><trkpt lat="42.09653321085399" lon="13.266355890868889"><ele>844.0</ele><time>2026-05-01T09:22:20Z</time></trkpt><trkpt lat="42.096584542289904" lon="13.266281216570569"><ele>844.0</ele><time>2026-05-01T09:22:52.999Z</time></trkpt><trkpt lat="42.09665346798433" lon="13.266209862407658"><ele>844.0</ele><time>2026-05-01T09:22:54.999Z</time></trkpt><trkpt lat="42.09675653429786" lon="13.26634901292216"><ele>844.0</ele><time>2026-05-01T09:22:55.999Z</time></trkpt><trkpt lat="42.09682851947459" lon="13.266355776382836"><ele>844.0</ele><time>2026-05-01T09:22:56.999Z</time></trkpt><trkpt lat="42.09706400447162" lon="13.266370991516457"><ele>844.0</ele><time>2026-05-01T09:22:58.999Z</time></trkpt><trkpt lat="42.09713557991804" lon="13.266343592423798"><ele>844.0</ele><time>2026-05-01T09:22:59.999Z</time></trkpt><trkpt lat="42.09725065717667" lon="13.26622720287076"><ele>844.0</ele><time>2026-05-01T09:23:00.999Z</time></trkpt><trkpt lat="42.09721836974374" lon="13.265977852147953"><ele>844.0</ele><time>2026-05-01T09:23:01.999Z</time></trkpt><trkpt lat="42.09728976723421" lon="13.265915753756367"><ele>843.9999999999999</ele><time>2026-05-01T09:23:02.999Z</time></trkpt><trkpt lat="42.09736074126752" lon="13.265855106563935"><ele>844.0</ele><time>2026-05-01T09:23:03.999Z</time></trkpt><trkpt lat="42.09742606988663" lon="13.265790570959494"><ele>844.0</ele><time>2026-05-01T09:23:04.999Z</time></trkpt><trkpt lat="42.09749230606104" lon="13.265722118744145"><ele>844.0</ele><time>2026-05-01T09:23:05.999Z</time></trkpt><trkpt lat="42.09755019531928" lon="13.265647211103445"><ele>843.9999999999999</ele><time>2026-05-01T09:23:06.999Z</time></trkpt><trkpt lat="42.097609136276326" lon="13.265568806061987"><ele>844.0</ele><time>2026-05-01T09:23:07.999Z</time></trkpt><trkpt lat="42.097656195337414" lon="13.265480790338309"><ele>844.1666666666666</ele><time>2026-05-01T09:23:08.999Z</time></trkpt><trkpt lat="42.097695677329384" lon="13.265388501889607"><ele>844.3333333333333</ele><time>2026-05-01T09:23:09.999Z</time></trkpt><trkpt lat="42.09772594502563" lon="13.265306169780711"><ele>844.5</ele><time>2026-05-01T09:23:10.999Z</time></trkpt><trkpt lat="42.09777350194747" lon="13.265235376347977"><ele>844.6666666666667</ele><time>2026-05-01T09:23:12.999Z</time></trkpt><trkpt lat="42.097790374012156" lon="13.265152149724079"><ele>844.8333333333334</ele><time>2026-05-01T09:23:16.999Z</time></trkpt><trkpt lat="42.097789331131025" lon="13.265037435399423"><ele>845.0</ele><time>2026-05-01T09:23:51.998Z</time></trkpt><trkpt lat="42.097767661475395" lon="13.264897102669297"><ele>845.0000000000001</ele><time>2026-05-01T09:23:53.998Z</time></trkpt><trkpt lat="42.097733653674936" lon="13.264794055278413"><ele>845.0</ele><time>2026-05-01T09:23:55.998Z</time></trkpt><trkpt lat="42.09768287608595" lon="13.264725102628962"><ele>845.0</ele><time>2026-05-01T09:23:57.998Z</time></trkpt><trkpt lat="42.097607492356204" lon="13.264732719979929"><ele>845.0</ele><time>2026-05-01T09:23:59.998Z</time></trkpt><trkpt lat="42.09752108574715" lon="13.264835969835508"><ele>845.0000000000001</ele><time>2026-05-01T09:24:01.998Z</time></trkpt><trkpt lat="42.09746418250941" lon="13.264872441999229"><ele>845.0</ele><time>2026-05-01T09:24:02.998Z</time></trkpt><trkpt lat="42.09740776744918" lon="13.26493839310433"><ele>842.2</ele><time>2026-05-01T09:24:03.998Z</time></trkpt><trkpt lat="42.09734582261129" lon="13.26501631223215"><ele>839.4</ele><time>2026-05-01T09:24:04.998Z</time></trkpt><trkpt lat="42.0972962707948" lon="13.265121435190506"><ele>836.5999999999999</ele><time>2026-05-01T09:24:06Z</time></trkpt><trkpt lat="42.09723984511888" lon="13.26520927648736"><ele>833.8</ele><time>2026-05-01T09:24:07Z</time></trkpt><trkpt lat="42.09716854411915" lon="13.265282609403496"><ele>831.0</ele><time>2026-05-01T09:24:08Z</time></trkpt><trkpt lat="42.0970740428999" lon="13.265333547262017"><ele>831.0</ele><time>2026-05-01T09:24:09Z</time></trkpt><trkpt lat="42.09696473848853" lon="13.26536211184912"><ele>831.0</ele><time>2026-05-01T09:24:10Z</time></trkpt><trkpt lat="42.096856897188616" lon="13.265380737355947"><ele>831.0</ele><time>2026-05-01T09:24:11Z</time></trkpt><trkpt lat="42.09675009664245" lon="13.265392132069474"><ele>831.0</ele><time>2026-05-01T09:24:12Z</time></trkpt><trkpt lat="42.096652171875924" lon="13.265407136544507"><ele>831.0</ele><time>2026-05-01T09:24:13Z</time></trkpt><trkpt lat="42.09656496530004" lon="13.2654322260323"><ele>831.8</ele><time>2026-05-01T09:24:14Z</time></trkpt><trkpt lat="42.096484226300056" lon="13.265485478151902"><ele>832.5999999999999</ele><time>2026-05-01T09:24:15Z</time></trkpt><trkpt lat="42.09640923283108" lon="13.265568976940642"><ele>833.4</ele><time>2026-05-01T09:24:16Z</time></trkpt><trkpt lat="42.096327370946746" lon="13.265653269151969"><ele>834.2</ele><time>2026-05-01T09:24:17Z</time></trkpt><trkpt lat="42.09623935423689" lon="13.265730434234085"><ele>835.0</ele><time>2026-05-01T09:24:18Z</time></trkpt><trkpt lat="42.09614172923459" lon="13.265791478291536"><ele>835.0</ele><time>2026-05-01T09:24:19Z</time></trkpt><trkpt lat="42.09603657626374" lon="13.265826801389274"><ele>835.0</ele><time>2026-05-01T09:24:20Z</time></trkpt><trkpt lat="42.095928896199624" lon="13.26583409894291"><ele>835.0</ele><time>2026-05-01T09:24:21Z</time></trkpt><trkpt lat="42.0958367673815" lon="13.265792144989828"><ele>835.0</ele><time>2026-05-01T09:24:22Z</time></trkpt><trkpt lat="42.09572924442979" lon="13.26573830243062"><ele>835.0</ele><time>2026-05-01T09:24:23Z</time></trkpt><trkpt lat="42.09558434056577" lon="13.265721555333387"><ele>832.6</ele><time>2026-05-01T09:24:24Z</time></trkpt><trkpt lat="42.095470484444945" lon="13.26575151350951"><ele>830.2</ele><time>2026-05-01T09:24:25Z</time></trkpt><trkpt lat="42.09537887669083" lon="13.265783688379965"><ele>827.8</ele><time>2026-05-01T09:24:26Z</time></trkpt><trkpt lat="42.0952875953549" lon="13.265815748518802"><ele>825.4</ele><time>2026-05-01T09:24:27Z</time></trkpt><trkpt lat="42.095171310864" lon="13.26592439399435"><ele>823.0</ele><time>2026-05-01T09:24:28Z</time></trkpt><trkpt lat="42.095066935467095" lon="13.26593129833013"><ele>823.0</ele><time>2026-05-01T09:24:29Z</time></trkpt><trkpt lat="42.09497212748751" lon="13.265972499855192"><ele>823.0</ele><time>2026-05-01T09:24:30Z</time></trkpt><trkpt lat="42.09488225705451" lon="13.266001688981815"><ele>823.0</ele><time>2026-05-01T09:24:31Z</time></trkpt><trkpt lat="42.09481630793318" lon="13.266061327206922"><ele>823.0</ele><time>2026-05-01T09:24:32Z</time></trkpt><trkpt lat="42.09477385701179" lon="13.266158383904916"><ele>823.0</ele><time>2026-05-01T09:24:33Z</time></trkpt><trkpt lat="42.09474641562351" lon="13.266333235912176"><ele>819.3333333333333</ele><time>2026-05-01T09:24:34Z</time></trkpt><trkpt lat="42.09468672996706" lon="13.266533187692714"><ele>815.6666666666667</ele><time>2026-05-01T09:24:35Z</time></trkpt><trkpt lat="42.09471115338278" lon="13.266820671313216"><ele>812.0</ele><time>2026-05-01T09:24:36Z</time></trkpt><trkpt lat="42.0945910222342" lon="13.266973348961836"><ele>812.0</ele><time>2026-05-01T09:24:37Z</time></trkpt><trkpt lat="42.09452120862854" lon="13.267078861314666"><ele>812.0</ele><time>2026-05-01T09:24:38Z</time></trkpt><trkpt lat="42.09437789785586" lon="13.267170261328465"><ele>812.0</ele><time>2026-05-01T09:24:39Z</time></trkpt><trkpt lat="42.09424160804049" lon="13.26724837163643"><ele>812.0</ele><time>2026-05-01T09:24:40Z</time></trkpt><trkpt lat="42.09412220797201" lon="13.267318193674283"><ele>813.0</ele><time>2026-05-01T09:24:42Z</time></trkpt><trkpt lat="42.0940318532747" lon="13.267354321932848"><ele>814.0</ele><time>2026-05-01T09:24:42.999Z</time></trkpt><trkpt lat="42.093968393182465" lon="13.267369381873586"><ele>815.0</ele><time>2026-05-01T09:24:43.999Z</time></trkpt><trkpt lat="42.093885897971674" lon="13.267378556905463"><ele>816.0</ele><time>2026-05-01T09:24:44.999Z</time></trkpt><trkpt lat="42.093759834563194" lon="13.267335529014959"><ele>817.0</ele><time>2026-05-01T09:24:46.999Z</time></trkpt><trkpt lat="42.09367213969117" lon="13.267298813332072"><ele>813.8</ele><time>2026-05-01T09:24:47.999Z</time></trkpt><trkpt lat="42.093609798316685" lon="13.26726377621244"><ele>810.6</ele><time>2026-05-01T09:24:48.999Z</time></trkpt><trkpt lat="42.09353395914173" lon="13.267137950606532"><ele>807.4</ele><time>2026-05-01T09:24:50.999Z</time></trkpt><trkpt lat="42.093455488449244" lon="13.267063835853426"><ele>804.1999999999999</ele><time>2026-05-01T09:24:51.999Z</time></trkpt><trkpt lat="42.09336896434352" lon="13.267012018961525"><ele>801.0</ele><time>2026-05-01T09:24:52.999Z</time></trkpt><trkpt lat="42.09329359978498" lon="13.266966885220754"><ele>797.8</ele><time>2026-05-01T09:24:53.999Z</time></trkpt><trkpt lat="42.09323542833861" lon="13.266932048128712"><ele>794.5999999999999</ele><time>2026-05-01T09:24:54.999Z</time></trkpt><trkpt lat="42.09307596745789" lon="13.26697112307697"><ele>791.4</ele><time>2026-05-01T09:24:56.999Z</time></trkpt><trkpt lat="42.092978031684076" lon="13.266963584459548"><ele>788.2</ele><time>2026-05-01T09:24:57.999Z</time></trkpt><trkpt lat="42.09287558448041" lon="13.266993940803372"><ele>785.0</ele><time>2026-05-01T09:24:58.999Z</time></trkpt><trkpt lat="42.092821964758286" lon="13.267105845532301"><ele>789.6666666666667</ele><time>2026-05-01T09:24:59.999Z</time></trkpt><trkpt lat="42.09277114722454" lon="13.26731139073853"><ele>794.3333333333333</ele><time>2026-05-01T09:25:00.999Z</time></trkpt><trkpt lat="42.09280231858502" lon="13.267533965479412"><ele>799.0</ele><time>2026-05-01T09:25:01.999Z</time></trkpt><trkpt lat="42.09269941514592" lon="13.267680552013058"><ele>799.0</ele><time>2026-05-01T09:25:02.999Z</time></trkpt><trkpt lat="42.09258626183056" lon="13.267787343229205"><ele>799.0</ele><time>2026-05-01T09:25:03.999Z</time></trkpt><trkpt lat="42.0924643651143" lon="13.267819784903331"><ele>799.0</ele><time>2026-05-01T09:25:04.999Z</time></trkpt><trkpt lat="42.09237093406943" lon="13.267822378249882"><ele>799.0</ele><time>2026-05-01T09:25:05.999Z</time></trkpt><trkpt lat="42.0923368007771" lon="13.267687512248923"><ele>799.0</ele><time>2026-05-01T09:25:06.999Z</time></trkpt><trkpt lat="42.09222676078992" lon="13.267608578258253"><ele>799.0</ele><time>2026-05-01T09:25:07.999Z</time></trkpt><trkpt lat="42.092153969698735" lon="13.26753645689056"><ele>799.0</ele><time>2026-05-01T09:25:08.999Z</time></trkpt><trkpt lat="42.092381747295725" lon="13.267568085701564"><ele>799.0</ele><time>2026-05-01T09:25:10.999Z</time></trkpt><trkpt lat="42.09247191769724" lon="13.267424749641894"><ele>800.6666666666666</ele><time>2026-05-01T09:25:13.999Z</time></trkpt><trkpt lat="42.09257211008172" lon="13.267207178813925"><ele>802.3333333333333</ele><time>2026-05-01T09:25:14.999Z</time></trkpt><trkpt lat="42.092665094142944" lon="13.266972395181929"><ele>804.0</ele><time>2026-05-01T09:25:15.999Z</time></trkpt><trkpt lat="42.09233758881776" lon="13.267820209786677"><ele>801.5</ele><time>2026-05-01T09:25:16.999Z</time></trkpt><trkpt lat="42.09249326744275" lon="13.267426427562118"><ele>799.0</ele><time>2026-05-01T09:25:17.999Z</time></trkpt><trkpt lat="42.092573243108205" lon="13.26725845095782"><ele>794.3333333333333</ele><time>2026-05-01T09:25:18.999Z</time></trkpt><trkpt lat="42.09263200208828" lon="13.267100373987907"><ele>789.6666666666667</ele><time>2026-05-01T09:25:19.999Z</time></trkpt><trkpt lat="42.09272405671978" lon="13.266882665935379"><ele>785.0</ele><time>2026-05-01T09:25:20.999Z</time></trkpt><trkpt lat="42.09288495583872" lon="13.266619053902717"><ele>785.6666666666667</ele><time>2026-05-01T09:25:21.999Z</time></trkpt><trkpt lat="42.093050184359" lon="13.266376273239628"><ele>786.3333333333333</ele><time>2026-05-01T09:25:23.999Z</time></trkpt><trkpt lat="42.09314227546721" lon="13.266140578716774"><ele>787.0</ele><time>2026-05-01T09:25:25.999Z</time></trkpt><trkpt lat="42.093273655984085" lon="13.265874424172393"><ele>762.0</ele><time>2026-05-01T09:25:27.999Z</time></trkpt><trkpt lat="42.09310740314662" lon="13.264177604282915"><ele>762.0</ele><time>2026-05-01T09:25:30.999Z</time></trkpt><trkpt lat="42.09308203793086" lon="13.264034076753125"><ele>762.0</ele><time>2026-05-01T09:25:32.999Z</time></trkpt><trkpt lat="42.09290910625815" lon="13.26399625779957"><ele>762.0</ele><time>2026-05-01T09:25:35.999Z</time></trkpt><trkpt lat="42.09280249251971" lon="13.264071753989239"><ele>762.0</ele><time>2026-05-01T09:25:36.999Z</time></trkpt><trkpt lat="42.09280674350802" lon="13.264267595947622"><ele>762.0</ele><time>2026-05-01T09:25:38.999Z</time></trkpt><trkpt lat="42.09272026900549" lon="13.264345721700389"><ele>762.0</ele><time>2026-05-01T09:25:39.999Z</time></trkpt><trkpt lat="42.09265209451419" lon="13.264380882549279"><ele>762.0</ele><time>2026-05-01T09:25:40.999Z</time></trkpt><trkpt lat="42.092502582353696" lon="13.264421609758239"><ele>762.0</ele><time>2026-05-01T09:25:42.999Z</time></trkpt><trkpt lat="42.09236492803885" lon="13.26441111474298"><ele>759.0</ele><time>2026-05-01T09:25:43.999Z</time></trkpt><trkpt lat="42.09225934812101" lon="13.264397737065734"><ele>756.0</ele><time>2026-05-01T09:25:45.999Z</time></trkpt><trkpt lat="42.09218585971124" lon="13.264391191381758"><ele>753.0</ele><time>2026-05-01T09:25:49.039Z</time></trkpt><trkpt lat="42.09060583856727" lon="13.264767991811633"><ele>748.5</ele><time>2026-05-01T09:25:59.998Z</time></trkpt><trkpt lat="42.09075210875649" lon="13.264497156287225"><ele>744.0</ele><time>2026-05-01T09:26:00.998Z</time></trkpt><trkpt lat="42.09070712000305" lon="13.264413837270203"><ele>739.5</ele><time>2026-05-01T09:26:01.998Z</time></trkpt><trkpt lat="42.090651235909526" lon="13.264310340300232"><ele>735.0</ele><time>2026-05-01T09:26:02.998Z</time></trkpt><trkpt lat="42.09048368502769" lon="13.26398414169468"><ele>735.0</ele><time>2026-05-01T09:26:03.998Z</time></trkpt><trkpt lat="42.09040946155319" lon="13.26383400872989"><ele>735.0</ele><time>2026-05-01T09:26:04.998Z</time></trkpt><trkpt lat="42.090313596084755" lon="13.263658805212744"><ele>735.0</ele><time>2026-05-01T09:26:05.998Z</time></trkpt><trkpt lat="42.09018110705498" lon="13.263547963495295"><ele>735.0</ele><time>2026-05-01T09:26:06.998Z</time></trkpt><trkpt lat="42.090078754811366" lon="13.263495511925852"><ele>735.0</ele><time>2026-05-01T09:26:07.998Z</time></trkpt><trkpt lat="42.089941578551695" lon="13.263449980026742"><ele>735.0</ele><time>2026-05-01T09:26:09.998Z</time></trkpt><trkpt lat="42.08982671771215" lon="13.263017659939205"><ele>734.0</ele><time>2026-05-01T09:26:12Z</time></trkpt><trkpt lat="42.08983626888067" lon="13.262877444068996"><ele>733.0</ele><time>2026-05-01T09:26:14Z</time></trkpt><trkpt lat="42.089091127290935" lon="13.263160293456007"><ele>734.0</ele><time>2026-05-01T09:26:17Z</time></trkpt><trkpt lat="42.0885372187401" lon="13.26292620496762"><ele>734.0</ele><time>2026-05-01T09:26:18Z</time></trkpt><trkpt lat="42.08834138059738" lon="13.262829205198475"><ele>734.0</ele><time>2026-05-01T09:26:19Z</time></trkpt><trkpt lat="42.08815309299745" lon="13.262737631608958"><ele>734.0</ele><time>2026-05-01T09:26:20Z</time></trkpt><trkpt lat="42.08796975252671" lon="13.26262252496465"><ele>734.3333333333333</ele><time>2026-05-01T09:26:21Z</time></trkpt><trkpt lat="42.08781008250604" lon="13.262527240434183"><ele>734.6666666666666</ele><time>2026-05-01T09:26:22Z</time></trkpt><trkpt lat="42.08769067247204" lon="13.262433554354333"><ele>735.0</ele><time>2026-05-01T09:26:23Z</time></trkpt><trkpt lat="42.087547688785655" lon="13.262340194497591"><ele>735.0</ele><time>2026-05-01T09:26:24Z</time></trkpt><trkpt lat="42.087411059854595" lon="13.262289798379117"><ele>735.0</ele><time>2026-05-01T09:26:25Z</time></trkpt><trkpt lat="42.08725668159481" lon="13.262277932733339"><ele>735.0</ele><time>2026-05-01T09:26:26Z</time></trkpt><trkpt lat="42.08711458936441" lon="13.26228494101667"><ele>735.0</ele><time>2026-05-01T09:26:27Z</time></trkpt><trkpt lat="42.086964494470294" lon="13.262246553467229"><ele>735.3333333333334</ele><time>2026-05-01T09:26:28Z</time></trkpt><trkpt lat="42.086805553135804" lon="13.262203695801649"><ele>735.6666666666667</ele><time>2026-05-01T09:26:29Z</time></trkpt><trkpt lat="42.08667928294784" lon="13.262142507902457"><ele>736.0</ele><time>2026-05-01T09:26:30Z</time></trkpt><trkpt lat="42.08648533547539" lon="13.26206977123974"><ele>736.5</ele><time>2026-05-01T09:26:31Z</time></trkpt><trkpt lat="42.086373112609074" lon="13.262053147708253"><ele>737.0</ele><time>2026-05-01T09:26:32Z</time></trkpt><trkpt lat="42.08625658887634" lon="13.262035568118682"><ele>737.5</ele><time>2026-05-01T09:26:33Z</time></trkpt><trkpt lat="42.08615527433936" lon="13.262025306060957"><ele>738.0</ele><time>2026-05-01T09:26:34Z</time></trkpt><trkpt lat="42.085971410718116" lon="13.261922316126387"><ele>738.0</ele><time>2026-05-01T09:26:35Z</time></trkpt><trkpt lat="42.085838485041066" lon="13.26178338556673"><ele>738.0</ele><time>2026-05-01T09:26:36Z</time></trkpt><trkpt lat="42.085589108721024" lon="13.261593209565115"><ele>739.25</ele><time>2026-05-01T09:26:37Z</time></trkpt><trkpt lat="42.08544367041717" lon="13.261537765724448"><ele>740.5</ele><time>2026-05-01T09:26:38Z</time></trkpt><trkpt lat="42.085284974606594" lon="13.261573194660373"><ele>741.75</ele><time>2026-05-01T09:26:39Z</time></trkpt><trkpt lat="42.08516261755693" lon="13.261507649554035"><ele>743.0</ele><time>2026-05-01T09:26:40Z</time></trkpt><trkpt lat="42.085073695518815" lon="13.26142581279388"><ele>744.0</ele><time>2026-05-01T09:26:41Z</time></trkpt><trkpt lat="42.08496578156144" lon="13.261336764751096"><ele>745.0</ele><time>2026-05-01T09:26:42.059Z</time></trkpt><trkpt lat="42.08486469490894" lon="13.261261764399865"><ele>746.0</ele><time>2026-05-01T09:26:43.032Z</time></trkpt><trkpt lat="42.08141100322904" lon="13.264022270448619"><ele>752.3333333333333</ele><time>2026-05-01T09:27:11.999Z</time></trkpt><trkpt lat="42.08129325055902" lon="13.26412961674273"><ele>758.6666666666666</ele><time>2026-05-01T09:27:12.999Z</time></trkpt><trkpt lat="42.08099921858436" lon="13.264245145241167"><ele>765.0</ele><time>2026-05-01T09:27:13.999Z</time></trkpt><trkpt lat="42.08087900675757" lon="13.264335376160268"><ele>764.25</ele><time>2026-05-01T09:27:14.999Z</time></trkpt><trkpt lat="42.080703117152204" lon="13.26435942344232"><ele>763.5</ele><time>2026-05-01T09:27:15.999Z</time></trkpt><trkpt lat="42.08054254882828" lon="13.264334869612833"><ele>762.75</ele><time>2026-05-01T09:27:16.999Z</time></trkpt><trkpt lat="42.080453102181394" lon="13.26426006264865"><ele>762.0</ele><time>2026-05-01T09:27:17.999Z</time></trkpt><trkpt lat="42.080374008663455" lon="13.264145585264854"><ele>762.0</ele><time>2026-05-01T09:27:18.999Z</time></trkpt><trkpt lat="42.080259696473206" lon="13.264021554188338"><ele>762.0</ele><time>2026-05-01T09:27:19.999Z</time></trkpt><trkpt lat="42.08016922700532" lon="13.263889528041416"><ele>762.0</ele><time>2026-05-01T09:27:20.999Z</time></trkpt><trkpt lat="42.08004671190498" lon="13.263825866049489"><ele>762.0</ele><time>2026-05-01T09:27:21.999Z</time></trkpt><trkpt lat="42.07990904598799" lon="13.263799573822183"><ele>761.75</ele><time>2026-05-01T09:27:22.999Z</time></trkpt><trkpt lat="42.07977555527449" lon="13.263780338941931"><ele>761.5</ele><time>2026-05-01T09:27:23.999Z</time></trkpt><trkpt lat="42.0796341843555" lon="13.26375858980078"><ele>761.25</ele><time>2026-05-01T09:27:24.999Z</time></trkpt><trkpt lat="42.07947703203725" lon="13.263739786530493"><ele>761.0</ele><time>2026-05-01T09:27:25.999Z</time></trkpt><trkpt lat="42.079321006120466" lon="13.26373766405349"><ele>761.0</ele><time>2026-05-01T09:27:26.999Z</time></trkpt><trkpt lat="42.0791869835671" lon="13.263734154600522"><ele>761.0</ele><time>2026-05-01T09:27:27.999Z</time></trkpt><trkpt lat="42.07904021479592" lon="13.263747989970518"><ele>761.0</ele><time>2026-05-01T09:27:28.999Z</time></trkpt><trkpt lat="42.07888698200401" lon="13.263751868645796"><ele>761.0</ele><time>2026-05-01T09:27:29.999Z</time></trkpt><trkpt lat="42.07873504759426" lon="13.26379986837115"><ele>761.0</ele><time>2026-05-01T09:27:30.999Z</time></trkpt><trkpt lat="42.07858955511402" lon="13.26386967449401"><ele>761.0</ele><time>2026-05-01T09:27:31.999Z</time></trkpt><trkpt lat="42.078452884908096" lon="13.263933725741545"><ele>761.0</ele><time>2026-05-01T09:27:32.999Z</time></trkpt><trkpt lat="42.078300127259666" lon="13.26402990159908"><ele>766.0</ele><time>2026-05-01T09:27:33.999Z</time></trkpt><trkpt lat="42.07816067034605" lon="13.264134286843422"><ele>771.0</ele><time>2026-05-01T09:27:34.999Z</time></trkpt><trkpt lat="42.078012386897065" lon="13.264219828173973"><ele>776.0</ele><time>2026-05-01T09:27:35.999Z</time></trkpt><trkpt lat="42.07787350070956" lon="13.264285068815955"><ele>776.0</ele><time>2026-05-01T09:27:36.999Z</time></trkpt><trkpt lat="42.077714073513896" lon="13.264346968382926"><ele>776.0</ele><time>2026-05-01T09:27:37.999Z</time></trkpt><trkpt lat="42.07755962216372" lon="13.264443579794657"><ele>776.0</ele><time>2026-05-01T09:27:38.999Z</time></trkpt><trkpt lat="42.07740312385481" lon="13.26453660098482"><ele>775.6666666666667</ele><time>2026-05-01T09:27:39.999Z</time></trkpt><trkpt lat="42.07727333864136" lon="13.264627432680108"><ele>775.3333333333333</ele><time>2026-05-01T09:27:40.999Z</time></trkpt><trkpt lat="42.077135430055286" lon="13.264736832342626"><ele>775.0</ele><time>2026-05-01T09:27:41.999Z</time></trkpt><trkpt lat="42.07698548096592" lon="13.26482694200569"><ele>771.6666666666666</ele><time>2026-05-01T09:27:42.999Z</time></trkpt><trkpt lat="42.07684445352599" lon="13.264906646596332"><ele>768.3333333333333</ele><time>2026-05-01T09:27:43.999Z</time></trkpt><trkpt lat="42.07670153040694" lon="13.26496311328885"><ele>765.0</ele><time>2026-05-01T09:27:44.999Z</time></trkpt><trkpt lat="42.07654823502784" lon="13.265039168517076"><ele>763.75</ele><time>2026-05-01T09:27:45.999Z</time></trkpt><trkpt lat="42.07641303188454" lon="13.265083474866632"><ele>762.5</ele><time>2026-05-01T09:27:46.999Z</time></trkpt><trkpt lat="42.0762963779688" lon="13.265141943561474"><ele>761.25</ele><time>2026-05-01T09:27:47.999Z</time></trkpt><trkpt lat="42.07619541680087" lon="13.26518168094942"><ele>760.0</ele><time>2026-05-01T09:27:48.999Z</time></trkpt><trkpt lat="42.07606124216276" lon="13.265238204148064"><ele>760.0</ele><time>2026-05-01T09:27:49.999Z</time></trkpt><trkpt lat="42.07591325157962" lon="13.265293056086895"><ele>760.0</ele><time>2026-05-01T09:27:50.999Z</time></trkpt><trkpt lat="42.075780083540074" lon="13.265339897450277"><ele>760.0</ele><time>2026-05-01T09:27:51.999Z</time></trkpt><trkpt lat="42.07565347085558" lon="13.265420665118766"><ele>760.0</ele><time>2026-05-01T09:27:52.998Z</time></trkpt><trkpt lat="42.075519663986626" lon="13.265527430851806"><ele>758.3333333333334</ele><time>2026-05-01T09:27:53.998Z</time></trkpt><trkpt lat="42.07537830763764" lon="13.265662149439292"><ele>756.6666666666666</ele><time>2026-05-01T09:27:54.998Z</time></trkpt><trkpt lat="42.07522356248464" lon="13.26581154345428"><ele>755.0</ele><time>2026-05-01T09:27:55.998Z</time></trkpt><trkpt lat="42.07506504176116" lon="13.265958065113363"><ele>759.6666666666666</ele><time>2026-05-01T09:27:56.998Z</time></trkpt><trkpt lat="42.0749026516784" lon="13.266114418787586"><ele>764.3333333333333</ele><time>2026-05-01T09:27:57.998Z</time></trkpt><trkpt lat="42.074750133928305" lon="13.26628123294195"><ele>769.0</ele><time>2026-05-01T09:27:58.998Z</time></trkpt><trkpt lat="42.07460466648427" lon="13.266425668917906"><ele>765.6666666666666</ele><time>2026-05-01T09:27:59.998Z</time></trkpt><trkpt lat="42.074464605614104" lon="13.266541296925876"><ele>762.3333333333333</ele><time>2026-05-01T09:28:00.998Z</time></trkpt><trkpt lat="42.07431331498686" lon="13.266622141123145"><ele>759.0</ele><time>2026-05-01T09:28:01.998Z</time></trkpt><trkpt lat="42.07415229162226" lon="13.266690937402547"><ele>760.6666666666666</ele><time>2026-05-01T09:28:02.998Z</time></trkpt><trkpt lat="42.07399322268285" lon="13.26674437684235"><ele>762.3333333333333</ele><time>2026-05-01T09:28:03.998Z</time></trkpt><trkpt lat="42.07383196436594" lon="13.266795554418513"><ele>764.0</ele><time>2026-05-01T09:28:04.998Z</time></trkpt><trkpt lat="42.073660750754144" lon="13.26681244996882"><ele>764.0</ele><time>2026-05-01T09:28:05.998Z</time></trkpt><trkpt lat="42.07351999683006" lon="13.266815242655078"><ele>764.0</ele><time>2026-05-01T09:28:06.998Z</time></trkpt><trkpt lat="42.073409287415735" lon="13.266843224432703"><ele>764.0</ele><time>2026-05-01T09:28:07.998Z</time></trkpt><trkpt lat="42.07327689191425" lon="13.266909411911875"><ele>764.0</ele><time>2026-05-01T09:28:08.998Z</time></trkpt><trkpt lat="42.07314038431859" lon="13.267006084191713"><ele>763.6666666666666</ele><time>2026-05-01T09:28:09.998Z</time></trkpt><trkpt lat="42.0730009751911" lon="13.267112605216294"><ele>763.3333333333334</ele><time>2026-05-01T09:28:10.998Z</time></trkpt><trkpt lat="42.072869533972074" lon="13.267228047246443"><ele>763.0</ele><time>2026-05-01T09:28:11.998Z</time></trkpt><trkpt lat="42.07274553438549" lon="13.267360492271111"><ele>763.0</ele><time>2026-05-01T09:28:12.998Z</time></trkpt><trkpt lat="42.072666355374125" lon="13.26758234463263"><ele>763.0</ele><time>2026-05-01T09:28:13.998Z</time></trkpt><trkpt lat="42.07255899591301" lon="13.26775274863023"><ele>763.0</ele><time>2026-05-01T09:28:14.998Z</time></trkpt><trkpt lat="42.07244155655324" lon="13.267882514218346"><ele>762.25</ele><time>2026-05-01T09:28:15.998Z</time></trkpt><trkpt lat="42.07234569898233" lon="13.26800501205037"><ele>761.5</ele><time>2026-05-01T09:28:17Z</time></trkpt><trkpt lat="42.07224620528205" lon="13.268123232286579"><ele>760.75</ele><time>2026-05-01T09:28:18Z</time></trkpt><trkpt lat="42.07212855435251" lon="13.268199400835236"><ele>760.0</ele><time>2026-05-01T09:28:19Z</time></trkpt><trkpt lat="42.07199459231956" lon="13.268257393570334"><ele>758.75</ele><time>2026-05-01T09:28:20Z</time></trkpt><trkpt lat="42.07184393657713" lon="13.268331503184932"><ele>757.5</ele><time>2026-05-01T09:28:21Z</time></trkpt><trkpt lat="42.07172100904956" lon="13.268383287490705"><ele>756.25</ele><time>2026-05-01T09:28:22Z</time></trkpt><trkpt lat="42.07159971978176" lon="13.268432574181547"><ele>755.0</ele><time>2026-05-01T09:28:23Z</time></trkpt><trkpt lat="42.07148125459229" lon="13.268469367390674"><ele>754.25</ele><time>2026-05-01T09:28:24Z</time></trkpt><trkpt lat="42.0713802922672" lon="13.268494601544006"><ele>753.5</ele><time>2026-05-01T09:28:25Z</time></trkpt><trkpt lat="42.07125001263972" lon="13.268500513262703"><ele>752.75</ele><time>2026-05-01T09:28:26Z</time></trkpt><trkpt lat="42.07112169588116" lon="13.268460675764143"><ele>752.0</ele><time>2026-05-01T09:28:27Z</time></trkpt><trkpt lat="42.07099372438524" lon="13.268361783995674"><ele>752.0</ele><time>2026-05-01T09:28:28Z</time></trkpt><trkpt lat="42.070892477897054" lon="13.268245265046502"><ele>752.0</ele><time>2026-05-01T09:28:29Z</time></trkpt><trkpt lat="42.07079166447618" lon="13.26812780839274"><ele>752.0</ele><time>2026-05-01T09:28:30Z</time></trkpt><trkpt lat="42.07069898737126" lon="13.268032581240195"><ele>752.0</ele><time>2026-05-01T09:28:31Z</time></trkpt><trkpt lat="42.07060864978081" lon="13.267976954111495"><ele>748.6666666666666</ele><time>2026-05-01T09:28:32Z</time></trkpt><trkpt lat="42.07049060302723" lon="13.26789315988343"><ele>745.3333333333334</ele><time>2026-05-01T09:28:33Z</time></trkpt><trkpt lat="42.070333075588245" lon="13.267819903769922"><ele>742.0</ele><time>2026-05-01T09:28:34Z</time></trkpt><trkpt lat="42.07020521819358" lon="13.267698517768343"><ele>742.0</ele><time>2026-05-01T09:28:35Z</time></trkpt><trkpt lat="42.07010583202895" lon="13.26759937443764"><ele>742.0</ele><time>2026-05-01T09:28:36Z</time></trkpt><trkpt lat="42.07007097054447" lon="13.26745651674183"><ele>742.0</ele><time>2026-05-01T09:28:37Z</time></trkpt><trkpt lat="42.069976645367234" lon="13.2673395219144"><ele>742.0</ele><time>2026-05-01T09:28:38Z</time></trkpt><trkpt lat="42.06988083680706" lon="13.267207926292675"><ele>739.5</ele><time>2026-05-01T09:28:39Z</time></trkpt><trkpt lat="42.06976122410163" lon="13.267137314208298"><ele>737.0</ele><time>2026-05-01T09:28:40Z</time></trkpt><trkpt lat="42.06963728618054" lon="13.267118307748651"><ele>734.5</ele><time>2026-05-01T09:28:41Z</time></trkpt><trkpt lat="42.069547070034155" lon="13.26703153317817"><ele>732.0</ele><time>2026-05-01T09:28:42Z</time></trkpt><trkpt lat="42.069449255471575" lon="13.266988337747282"><ele>732.0</ele><time>2026-05-01T09:28:43Z</time></trkpt><trkpt lat="42.06938387089797" lon="13.266927060153433"><ele>732.0</ele><time>2026-05-01T09:28:44Z</time></trkpt><trkpt lat="42.069321230058044" lon="13.266835985643148"><ele>732.0</ele><time>2026-05-01T09:28:45Z</time></trkpt><trkpt lat="42.069277236517735" lon="13.266708537344895"><ele>732.0</ele><time>2026-05-01T09:28:46Z</time></trkpt><trkpt lat="42.069255106712724" lon="13.26658130155609"><ele>732.0</ele><time>2026-05-01T09:28:47Z</time></trkpt><trkpt lat="42.0692367869923" lon="13.266447063677857"><ele>732.5</ele><time>2026-05-01T09:28:48Z</time></trkpt><trkpt lat="42.069216162933714" lon="13.266280558145995"><ele>733.0</ele><time>2026-05-01T09:28:49Z</time></trkpt><trkpt lat="42.06919935289359" lon="13.266097885986289"><ele>733.5</ele><time>2026-05-01T09:28:50Z</time></trkpt><trkpt lat="42.069185740350235" lon="13.265927476363313"><ele>734.0</ele><time>2026-05-01T09:28:51Z</time></trkpt><trkpt lat="42.06917287669822" lon="13.26574221031542"><ele>733.6666666666666</ele><time>2026-05-01T09:28:52Z</time></trkpt><trkpt lat="42.06915299893687" lon="13.265464404603641"><ele>733.3333333333334</ele><time>2026-05-01T09:28:53Z</time></trkpt><trkpt lat="42.06911646271579" lon="13.265220120938128"><ele>733.0</ele><time>2026-05-01T09:28:54Z</time></trkpt><trkpt lat="42.069098129858425" lon="13.264992698214613"><ele>731.8</ele><time>2026-05-01T09:28:55Z</time></trkpt><trkpt lat="42.06908844912069" lon="13.2648251766619"><ele>730.5999999999999</ele><time>2026-05-01T09:28:56Z</time></trkpt><trkpt lat="42.06905722918596" lon="13.264707734434118"><ele>729.4000000000001</ele><time>2026-05-01T09:28:56.999Z</time></trkpt><trkpt lat="42.06901145544875" lon="13.264618978823323"><ele>728.2</ele><time>2026-05-01T09:28:57.999Z</time></trkpt><trkpt lat="42.06898596395398" lon="13.264502140733676"><ele>727.0</ele><time>2026-05-01T09:28:59.999Z</time></trkpt><trkpt lat="42.06888460509448" lon="13.264559769465567"><ele>727.0</ele><time>2026-05-01T09:29:03.999Z</time></trkpt><trkpt lat="42.06884951894479" lon="13.264669851865705"><ele>727.0</ele><time>2026-05-01T09:29:04.999Z</time></trkpt><trkpt lat="42.068818143241344" lon="13.26478812240463"><ele>727.0</ele><time>2026-05-01T09:29:05.999Z</time></trkpt><trkpt lat="42.06877549607747" lon="13.264882388022894"><ele>727.0</ele><time>2026-05-01T09:29:06.999Z</time></trkpt><trkpt lat="42.06876770878721" lon="13.265047364768368"><ele>727.0</ele><time>2026-05-01T09:29:07.999Z</time></trkpt><trkpt lat="42.06878092963498" lon="13.265211991455136"><ele>727.0</ele><time>2026-05-01T09:29:08.999Z</time></trkpt><trkpt lat="42.06878897399087" lon="13.265355533812697"><ele>727.0</ele><time>2026-05-01T09:29:09.999Z</time></trkpt><trkpt lat="42.06875241197997" lon="13.26552970676468"><ele>727.0</ele><time>2026-05-01T09:29:10.999Z</time></trkpt><trkpt lat="42.068726402910805" lon="13.265739647466003"><ele>727.0</ele><time>2026-05-01T09:29:11.999Z</time></trkpt><trkpt lat="42.06869831839871" lon="13.265966340752245"><ele>727.0</ele><time>2026-05-01T09:29:12.999Z</time></trkpt><trkpt lat="42.06868324850031" lon="13.266203676425748"><ele>727.0</ele><time>2026-05-01T09:29:13.999Z</time></trkpt><trkpt lat="42.06863495784342" lon="13.266478438789164"><ele>727.0</ele><time>2026-05-01T09:29:14.999Z</time></trkpt><trkpt lat="42.068603138093195" lon="13.2667548992949"><ele>726.3333333333334</ele><time>2026-05-01T09:29:15.999Z</time></trkpt><trkpt lat="42.068568656366935" lon="13.267034580779796"><ele>725.6666666666666</ele><time>2026-05-01T09:29:16.999Z</time></trkpt><trkpt lat="42.06853129817334" lon="13.267312348525916"><ele>725.0</ele><time>2026-05-01T09:29:17.999Z</time></trkpt><trkpt lat="42.06849515070383" lon="13.267591959435322"><ele>725.0</ele><time>2026-05-01T09:29:18.999Z</time></trkpt><trkpt lat="42.06845663904889" lon="13.267869212442639"><ele>725.0</ele><time>2026-05-01T09:29:19.999Z</time></trkpt><trkpt lat="42.06842049905039" lon="13.26815545628511"><ele>725.0</ele><time>2026-05-01T09:29:20.999Z</time></trkpt><trkpt lat="42.0683870762809" lon="13.2684428488618"><ele>724.6666666666666</ele><time>2026-05-01T09:29:21.999Z</time></trkpt><trkpt lat="42.06835042774624" lon="13.26873824842722"><ele>724.3333333333334</ele><time>2026-05-01T09:29:22.999Z</time></trkpt><trkpt lat="42.06830936925257" lon="13.269032945735328"><ele>724.0</ele><time>2026-05-01T09:29:23.999Z</time></trkpt><trkpt lat="42.06826840582448" lon="13.26932922736406"><ele>723.6666666666667</ele><time>2026-05-01T09:29:24.999Z</time></trkpt><trkpt lat="42.06822751972837" lon="13.269626212042892"><ele>723.3333333333334</ele><time>2026-05-01T09:29:25.999Z</time></trkpt><trkpt lat="42.068194064063036" lon="13.26992558189259"><ele>723.0</ele><time>2026-05-01T09:29:26.999Z</time></trkpt><trkpt lat="42.06815914707906" lon="13.2702251577887"><ele>723.5</ele><time>2026-05-01T09:29:27.999Z</time></trkpt><trkpt lat="42.06812215718801" lon="13.270524572951901"><ele>724.0</ele><time>2026-05-01T09:29:28.999Z</time></trkpt><trkpt lat="42.06808384604967" lon="13.270824360281177"><ele>724.0</ele><time>2026-05-01T09:29:29.999Z</time></trkpt><trkpt lat="42.06804529861363" lon="13.271122894988425"><ele>724.0</ele><time>2026-05-01T09:29:30.999Z</time></trkpt><trkpt lat="42.06800618747702" lon="13.271419431573285"><ele>724.0</ele><time>2026-05-01T09:29:31.999Z</time></trkpt><trkpt lat="42.067967310072476" lon="13.27171548972581"><ele>724.0</ele><time>2026-05-01T09:29:32.999Z</time></trkpt><trkpt lat="42.067931579132804" lon="13.272009273640588"><ele>724.0</ele><time>2026-05-01T09:29:33.999Z</time></trkpt><trkpt lat="42.06789841190354" lon="13.272304855245844"><ele>724.0</ele><time>2026-05-01T09:29:34.999Z</time></trkpt><trkpt lat="42.067863915745164" lon="13.272597205949333"><ele>724.0</ele><time>2026-05-01T09:29:35.999Z</time></trkpt><trkpt lat="42.06782566542324" lon="13.272883950583417"><ele>724.0</ele><time>2026-05-01T09:29:36.999Z</time></trkpt><trkpt lat="42.067791057411455" lon="13.273162386497285"><ele>724.0</ele><time>2026-05-01T09:29:37.999Z</time></trkpt><trkpt lat="42.067757123201375" lon="13.27341680062349"><ele>724.0</ele><time>2026-05-01T09:29:38.999Z</time></trkpt><trkpt lat="42.067730317746296" lon="13.273643680289803"><ele>724.0</ele><time>2026-05-01T09:29:39.999Z</time></trkpt><trkpt lat="42.06770218925788" lon="13.273866321316737"><ele>724.0</ele><time>2026-05-01T09:29:40.999Z</time></trkpt><trkpt lat="42.067673402756604" lon="13.274073935109879"><ele>724.0</ele><time>2026-05-01T09:29:41.999Z</time></trkpt><trkpt lat="42.06764413319175" lon="13.274295187332909"><ele>724.0</ele><time>2026-05-01T09:29:42.999Z</time></trkpt><trkpt lat="42.067616766392774" lon="13.27454114196735"><ele>724.0</ele><time>2026-05-01T09:29:43.999Z</time></trkpt><trkpt lat="42.06759900600358" lon="13.274803104735268"><ele>724.0</ele><time>2026-05-01T09:29:44.999Z</time></trkpt><trkpt lat="42.06757643436142" lon="13.275075077117771"><ele>724.0</ele><time>2026-05-01T09:29:45.999Z</time></trkpt><trkpt lat="42.06753915574551" lon="13.275365149244976"><ele>724.0</ele><time>2026-05-01T09:29:46.999Z</time></trkpt><trkpt lat="42.067501622165835" lon="13.275652770798239"><ele>723.5</ele><time>2026-05-01T09:29:47.999Z</time></trkpt><trkpt lat="42.067446509096754" lon="13.275951980196728"><ele>723.0</ele><time>2026-05-01T09:29:48.999Z</time></trkpt><trkpt lat="42.06740150511627" lon="13.276250993804386"><ele>723.5</ele><time>2026-05-01T09:29:49.999Z</time></trkpt><trkpt lat="42.0673651935488" lon="13.2765525230929"><ele>724.0</ele><time>2026-05-01T09:29:50.999Z</time></trkpt><trkpt lat="42.067326823878034" lon="13.27685918111357"><ele>724.0</ele><time>2026-05-01T09:29:51.999Z</time></trkpt><trkpt lat="42.06728890409351" lon="13.277124633379506"><ele>724.0</ele><time>2026-05-01T09:29:52.999Z</time></trkpt><trkpt lat="42.06722727586068" lon="13.27737838784322"><ele>724.0</ele><time>2026-05-01T09:29:53.999Z</time></trkpt><trkpt lat="42.067128073561534" lon="13.277587541844815"><ele>724.6666666666667</ele><time>2026-05-01T09:29:54.999Z</time></trkpt><trkpt lat="42.06700801484087" lon="13.277736391886414"><ele>725.3333333333334</ele><time>2026-05-01T09:29:55.998Z</time></trkpt><trkpt lat="42.06685559910308" lon="13.27787462212947"><ele>726.0</ele><time>2026-05-01T09:29:56.998Z</time></trkpt><trkpt lat="42.06670024665824" lon="13.27802063777325"><ele>726.6666666666666</ele><time>2026-05-01T09:29:57.998Z</time></trkpt><trkpt lat="42.06651841090024" lon="13.278112668274852"><ele>727.3333333333333</ele><time>2026-05-01T09:29:58.998Z</time></trkpt><trkpt lat="42.06636171498936" lon="13.27825567184231"><ele>728.0</ele><time>2026-05-01T09:29:59.998Z</time></trkpt><trkpt lat="42.06622891029399" lon="13.27843007948097"><ele>728.0</ele><time>2026-05-01T09:30:00.998Z</time></trkpt><trkpt lat="42.06613711505561" lon="13.278652320368337"><ele>728.0</ele><time>2026-05-01T09:30:01.998Z</time></trkpt><trkpt lat="42.0660441330098" lon="13.278880356118576"><ele>728.0</ele><time>2026-05-01T09:30:02.998Z</time></trkpt><trkpt lat="42.065969533398835" lon="13.279131642840662"><ele>729.3333333333333</ele><time>2026-05-01T09:30:03.998Z</time></trkpt><trkpt lat="42.065889414323735" lon="13.279377023824402"><ele>730.6666666666666</ele><time>2026-05-01T09:30:04.998Z</time></trkpt><trkpt lat="42.06580810453071" lon="13.279612527406298"><ele>732.0</ele><time>2026-05-01T09:30:05.998Z</time></trkpt><trkpt lat="42.065723731640496" lon="13.279830484912235"><ele>732.0</ele><time>2026-05-01T09:30:06.998Z</time></trkpt><trkpt lat="42.0656512796319" lon="13.280055291224992"><ele>732.0</ele><time>2026-05-01T09:30:07.998Z</time></trkpt><trkpt lat="42.06556511268221" lon="13.280252916340514"><ele>732.0</ele><time>2026-05-01T09:30:08.998Z</time></trkpt><trkpt lat="42.06547558137548" lon="13.28043804377867"><ele>732.0</ele><time>2026-05-01T09:30:09.998Z</time></trkpt><trkpt lat="42.065386948681514" lon="13.280596883083735"><ele>732.0</ele><time>2026-05-01T09:30:10.998Z</time></trkpt><trkpt lat="42.06528546844225" lon="13.280733968748939"><ele>732.0</ele><time>2026-05-01T09:30:11.998Z</time></trkpt><trkpt lat="42.06518439363086" lon="13.280853908383463"><ele>732.0</ele><time>2026-05-01T09:30:12.998Z</time></trkpt><trkpt lat="42.06508554693261" lon="13.280961699755487"><ele>732.0</ele><time>2026-05-01T09:30:13.998Z</time></trkpt><trkpt lat="42.0649899930383" lon="13.281085544062607"><ele>732.0</ele><time>2026-05-01T09:30:14.998Z</time></trkpt><trkpt lat="42.06489163446732" lon="13.281203772092816"><ele>732.0</ele><time>2026-05-01T09:30:15.998Z</time></trkpt><trkpt lat="42.0647871875411" lon="13.281319019779557"><ele>732.0</ele><time>2026-05-01T09:30:16.998Z</time></trkpt><trkpt lat="42.06468104537407" lon="13.281428982959747"><ele>731.75</ele><time>2026-05-01T09:30:17.998Z</time></trkpt><trkpt lat="42.06456817245444" lon="13.281526569308399"><ele>731.5</ele><time>2026-05-01T09:30:18.998Z</time></trkpt><trkpt lat="42.06445778099643" lon="13.281640090526928"><ele>731.25</ele><time>2026-05-01T09:30:19.998Z</time></trkpt><trkpt lat="42.06434746608249" lon="13.2817588721349"><ele>731.0</ele><time>2026-05-01T09:30:20.998Z</time></trkpt><trkpt lat="42.064232446275234" lon="13.281879135703019"><ele>731.0</ele><time>2026-05-01T09:30:22Z</time></trkpt><trkpt lat="42.064115148785355" lon="13.282000870641534"><ele>731.0</ele><time>2026-05-01T09:30:23Z</time></trkpt><trkpt lat="42.06400028399643" lon="13.282122872009824"><ele>731.0</ele><time>2026-05-01T09:30:24Z</time></trkpt><trkpt lat="42.06388501151054" lon="13.28224594286105"><ele>731.0</ele><time>2026-05-01T09:30:25Z</time></trkpt><trkpt lat="42.06377694860365" lon="13.282376228460715"><ele>730.5</ele><time>2026-05-01T09:30:26Z</time></trkpt><trkpt lat="42.06367261635147" lon="13.282513443734578"><ele>730.0</ele><time>2026-05-01T09:30:27Z</time></trkpt><trkpt lat="42.06357021823025" lon="13.282655644536446"><ele>729.5</ele><time>2026-05-01T09:30:28Z</time></trkpt><trkpt lat="42.063473553796605" lon="13.28279808936614"><ele>729.0</ele><time>2026-05-01T09:30:29Z</time></trkpt><trkpt lat="42.06338695578524" lon="13.282935661943673"><ele>729.0</ele><time>2026-05-01T09:30:30Z</time></trkpt><trkpt lat="42.063301589173896" lon="13.283068158722731"><ele>729.0</ele><time>2026-05-01T09:30:31Z</time></trkpt><trkpt lat="42.06321664935792" lon="13.28319773939814"><ele>729.0</ele><time>2026-05-01T09:30:32Z</time></trkpt><trkpt lat="42.06313641351848" lon="13.283322506815075"><ele>729.0</ele><time>2026-05-01T09:30:33Z</time></trkpt><trkpt lat="42.06306070874" lon="13.283439648305114"><ele>728.5</ele><time>2026-05-01T09:30:34Z</time></trkpt><trkpt lat="42.062984478025854" lon="13.28354481960547"><ele>728.0</ele><time>2026-05-01T09:30:35Z</time></trkpt><trkpt lat="42.06290764352697" lon="13.28365966780144"><ele>727.5</ele><time>2026-05-01T09:30:36Z</time></trkpt><trkpt lat="42.062836008664306" lon="13.283777271992994"><ele>727.0</ele><time>2026-05-01T09:30:37Z</time></trkpt><trkpt lat="42.06275854451373" lon="13.283918874496639"><ele>727.0</ele><time>2026-05-01T09:30:38Z</time></trkpt><trkpt lat="42.06268232040748" lon="13.284045410564648"><ele>727.0</ele><time>2026-05-01T09:30:39Z</time></trkpt><trkpt lat="42.06261794400394" lon="13.284141154182741"><ele>727.0</ele><time>2026-05-01T09:30:40Z</time></trkpt><trkpt lat="42.062559489034435" lon="13.284223389409151"><ele>727.0</ele><time>2026-05-01T09:30:41Z</time></trkpt><trkpt lat="42.06250758580901" lon="13.284304206733209"><ele>727.0</ele><time>2026-05-01T09:30:42Z</time></trkpt><trkpt lat="42.06246267681805" lon="13.28437678306707"><ele>726.25</ele><time>2026-05-01T09:30:43Z</time></trkpt><trkpt lat="42.06240680889356" lon="13.284469113695593"><ele>725.5</ele><time>2026-05-01T09:30:44Z</time></trkpt><trkpt lat="42.06233969712827" lon="13.284595369955198"><ele>724.75</ele><time>2026-05-01T09:30:45Z</time></trkpt><trkpt lat="42.06224899606969" lon="13.284735403561495"><ele>724.0</ele><time>2026-05-01T09:30:46Z</time></trkpt><trkpt lat="42.06213737535985" lon="13.284871073211317"><ele>724.0</ele><time>2026-05-01T09:30:47Z</time></trkpt><trkpt lat="42.062024471651874" lon="13.285025148502344"><ele>724.0</ele><time>2026-05-01T09:30:48Z</time></trkpt><trkpt lat="42.06191379413798" lon="13.285185745252223"><ele>724.0</ele><time>2026-05-01T09:30:49Z</time></trkpt><trkpt lat="42.061793201663875" lon="13.28535858443441"><ele>724.0</ele><time>2026-05-01T09:30:50Z</time></trkpt><trkpt lat="42.06167514802225" lon="13.285586519682488"><ele>724.0</ele><time>2026-05-01T09:30:51Z</time></trkpt><trkpt lat="42.06153933517491" lon="13.285791617664497"><ele>724.0</ele><time>2026-05-01T09:30:52Z</time></trkpt><trkpt lat="42.06140118827051" lon="13.286003657475744"><ele>723.3333333333334</ele><time>2026-05-01T09:30:53Z</time></trkpt><trkpt lat="42.0612679616932" lon="13.286211572904962"><ele>722.6666666666666</ele><time>2026-05-01T09:30:54Z</time></trkpt><trkpt lat="42.06113013373143" lon="13.286427996984921"><ele>722.0</ele><time>2026-05-01T09:30:55Z</time></trkpt><trkpt lat="42.060990806575575" lon="13.28664679660016"><ele>722.0</ele><time>2026-05-01T09:30:56Z</time></trkpt><trkpt lat="42.06085243942168" lon="13.286870064500533"><ele>722.0</ele><time>2026-05-01T09:30:56.999Z</time></trkpt><trkpt lat="42.06071329914516" lon="13.287097682000521"><ele>722.0</ele><time>2026-05-01T09:30:57.999Z</time></trkpt><trkpt lat="42.06056727521516" lon="13.28732130087862"><ele>720.0</ele><time>2026-05-01T09:30:58.999Z</time></trkpt><trkpt lat="42.06041791723386" lon="13.28754647637792"><ele>718.0</ele><time>2026-05-01T09:30:59.999Z</time></trkpt><trkpt lat="42.06026469239224" lon="13.287786769202691"><ele>718.0</ele><time>2026-05-01T09:31:00.999Z</time></trkpt><trkpt lat="42.06010694459511" lon="13.288049914922846"><ele>718.0</ele><time>2026-05-01T09:31:01.999Z</time></trkpt><trkpt lat="42.059942255831764" lon="13.288323218188562"><ele>719.0</ele><time>2026-05-01T09:31:02.999Z</time></trkpt><trkpt lat="42.05977710898895" lon="13.288603816038513"><ele>720.0</ele><time>2026-05-01T09:31:03.999Z</time></trkpt><trkpt lat="42.05960391358315" lon="13.288870863213008"><ele>719.0</ele><time>2026-05-01T09:31:04.999Z</time></trkpt><trkpt lat="42.05942225285657" lon="13.289123228406282"><ele>718.0</ele><time>2026-05-01T09:31:05.999Z</time></trkpt><trkpt lat="42.059248778184404" lon="13.289379763595685"><ele>717.5</ele><time>2026-05-01T09:31:06.999Z</time></trkpt><trkpt lat="42.05908468805217" lon="13.289639527099133"><ele>717.0</ele><time>2026-05-01T09:31:07.999Z</time></trkpt><trkpt lat="42.0589219362071" lon="13.289900198901345"><ele>717.0</ele><time>2026-05-01T09:31:08.999Z</time></trkpt><trkpt lat="42.05875729017067" lon="13.290153361320128"><ele>717.0</ele><time>2026-05-01T09:31:09.999Z</time></trkpt><trkpt lat="42.05859728216393" lon="13.290407630147712"><ele>717.5</ele><time>2026-05-01T09:31:10.999Z</time></trkpt><trkpt lat="42.05844056613287" lon="13.29065963376403"><ele>718.0</ele><time>2026-05-01T09:31:11.999Z</time></trkpt><trkpt lat="42.05828501349828" lon="13.290902249274753"><ele>717.5</ele><time>2026-05-01T09:31:12.999Z</time></trkpt><trkpt lat="42.05812829677593" lon="13.291145828116033"><ele>717.0</ele><time>2026-05-01T09:31:13.999Z</time></trkpt><trkpt lat="42.05798141608231" lon="13.29139322577729"><ele>717.5</ele><time>2026-05-01T09:31:14.999Z</time></trkpt><trkpt lat="42.05784264822353" lon="13.291642814786066"><ele>718.0</ele><time>2026-05-01T09:31:15.999Z</time></trkpt><trkpt lat="42.057690960438364" lon="13.291874042055376"><ele>718.0</ele><time>2026-05-01T09:31:16.999Z</time></trkpt><trkpt lat="42.057532571436425" lon="13.292099440947945"><ele>718.0</ele><time>2026-05-01T09:31:17.999Z</time></trkpt><trkpt lat="42.05738065194962" lon="13.292335597830819"><ele>717.0</ele><time>2026-05-01T09:31:18.999Z</time></trkpt><trkpt lat="42.05723160750425" lon="13.292572781706184"><ele>716.0</ele><time>2026-05-01T09:31:19.999Z</time></trkpt><trkpt lat="42.057082294198636" lon="13.292810486564058"><ele>716.0</ele><time>2026-05-01T09:31:20.999Z</time></trkpt><trkpt lat="42.056931794099306" lon="13.293038736008672"><ele>716.0</ele><time>2026-05-01T09:31:21.999Z</time></trkpt><trkpt lat="42.05678012138977" lon="13.293264481357479"><ele>716.6666666666666</ele><time>2026-05-01T09:31:22.999Z</time></trkpt><trkpt lat="42.05663407736272" lon="13.293497255682821"><ele>717.3333333333334</ele><time>2026-05-01T09:31:23.999Z</time></trkpt><trkpt lat="42.05650070567058" lon="13.293737046430584"><ele>718.0</ele><time>2026-05-01T09:31:24.999Z</time></trkpt><trkpt lat="42.05639624541994" lon="13.294001753858316"><ele>718.5</ele><time>2026-05-01T09:31:25.999Z</time></trkpt><trkpt lat="42.05631585504333" lon="13.29428345949604"><ele>719.0</ele><time>2026-05-01T09:31:26.999Z</time></trkpt><trkpt lat="42.056247047231665" lon="13.294585306746095"><ele>719.5</ele><time>2026-05-01T09:31:27.999Z</time></trkpt><trkpt lat="42.05617428840645" lon="13.294884614027485"><ele>720.0</ele><time>2026-05-01T09:31:28.999Z</time></trkpt><trkpt lat="42.056098319473335" lon="13.295181660130833"><ele>720.0</ele><time>2026-05-01T09:31:29.999Z</time></trkpt><trkpt lat="42.05601541358515" lon="13.29547842368412"><ele>720.0</ele><time>2026-05-01T09:31:30.999Z</time></trkpt><trkpt lat="42.05592035631339" lon="13.295765081301912"><ele>719.5</ele><time>2026-05-01T09:31:31.999Z</time></trkpt><trkpt lat="42.055804269254125" lon="13.296046455215292"><ele>719.0</ele><time>2026-05-01T09:31:32.999Z</time></trkpt><trkpt lat="42.05568741384163" lon="13.296326719107622"><ele>718.5</ele><time>2026-05-01T09:31:33.999Z</time></trkpt><trkpt lat="42.0555720114257" lon="13.296607773331766"><ele>718.0</ele><time>2026-05-01T09:31:34.999Z</time></trkpt><trkpt lat="42.05545732663586" lon="13.296880246769764"><ele>718.0</ele><time>2026-05-01T09:31:35.999Z</time></trkpt><trkpt lat="42.055345138641826" lon="13.297143482607021"><ele>718.0</ele><time>2026-05-01T09:31:36.999Z</time></trkpt><trkpt lat="42.05523735433138" lon="13.297409552436005"><ele>718.0</ele><time>2026-05-01T09:31:37.999Z</time></trkpt><trkpt lat="42.05513128209511" lon="13.297660630678683"><ele>718.0</ele><time>2026-05-01T09:31:38.999Z</time></trkpt><trkpt lat="42.05502693391707" lon="13.29790709474324"><ele>718.0</ele><time>2026-05-01T09:31:39.999Z</time></trkpt><trkpt lat="42.05492944095521" lon="13.298147792593404"><ele>718.0</ele><time>2026-05-01T09:31:40.999Z</time></trkpt><trkpt lat="42.05483188445911" lon="13.298392837762519"><ele>718.0</ele><time>2026-05-01T09:31:41.999Z</time></trkpt><trkpt lat="42.05473685095021" lon="13.298640130242317"><ele>718.0</ele><time>2026-05-01T09:31:42.999Z</time></trkpt><trkpt lat="42.054643519453855" lon="13.298878901134266"><ele>718.3333333333334</ele><time>2026-05-01T09:31:43.999Z</time></trkpt><trkpt lat="42.054550757004804" lon="13.29911267640689"><ele>718.6666666666666</ele><time>2026-05-01T09:31:44.999Z</time></trkpt><trkpt lat="42.05445409882686" lon="13.299333281133418"><ele>719.0</ele><time>2026-05-01T09:31:45.999Z</time></trkpt><trkpt lat="42.054360436985704" lon="13.299557704776124"><ele>719.3333333333333</ele><time>2026-05-01T09:31:46.999Z</time></trkpt><trkpt lat="42.05426687512467" lon="13.299782804553109"><ele>719.6666666666666</ele><time>2026-05-01T09:31:47.999Z</time></trkpt><trkpt lat="42.054170160446404" lon="13.300007439548654"><ele>720.0</ele><time>2026-05-01T09:31:48.999Z</time></trkpt><trkpt lat="42.054076398220715" lon="13.30024618324837"><ele>720.0</ele><time>2026-05-01T09:31:49.999Z</time></trkpt><trkpt lat="42.053979650563875" lon="13.300489126799174"><ele>720.0</ele><time>2026-05-01T09:31:50.999Z</time></trkpt><trkpt lat="42.05388414129348" lon="13.300732331565415"><ele>720.0</ele><time>2026-05-01T09:31:51.999Z</time></trkpt><trkpt lat="42.05379341106457" lon="13.300983116860595"><ele>720.0</ele><time>2026-05-01T09:31:52.999Z</time></trkpt><trkpt lat="42.05369895640834" lon="13.301234645886986"><ele>720.0</ele><time>2026-05-01T09:31:53.999Z</time></trkpt><trkpt lat="42.05360312519074" lon="13.301480923378296"><ele>720.0</ele><time>2026-05-01T09:31:54.998Z</time></trkpt><trkpt lat="42.053497332113814" lon="13.301714272135634"><ele>720.3333333333334</ele><time>2026-05-01T09:31:55.998Z</time></trkpt><trkpt lat="42.05339461181074" lon="13.301942416913967"><ele>720.6666666666667</ele><time>2026-05-01T09:31:56.998Z</time></trkpt><trkpt lat="42.05329956267801" lon="13.302175165706295"><ele>721.0</ele><time>2026-05-01T09:31:57.998Z</time></trkpt><trkpt lat="42.053205849682264" lon="13.302396911394018"><ele>720.3333333333334</ele><time>2026-05-01T09:31:58.998Z</time></trkpt><trkpt lat="42.053107079438774" lon="13.30260772516854"><ele>719.6666666666666</ele><time>2026-05-01T09:31:59.998Z</time></trkpt><trkpt lat="42.053010730578904" lon="13.30281436568356"><ele>719.0</ele><time>2026-05-01T09:32:00.998Z</time></trkpt><trkpt lat="42.052918803783086" lon="13.303028635527113"><ele>719.0</ele><time>2026-05-01T09:32:01.998Z</time></trkpt><trkpt lat="42.0528231925" lon="13.303238973947954"><ele>719.0</ele><time>2026-05-01T09:32:02.998Z</time></trkpt><trkpt lat="42.0527309267969" lon="13.303452776518997"><ele>719.0</ele><time>2026-05-01T09:32:03.998Z</time></trkpt><trkpt lat="42.052638366344574" lon="13.303667076756287"><ele>719.0</ele><time>2026-05-01T09:32:04.998Z</time></trkpt><trkpt lat="42.05254801855933" lon="13.303880646434461"><ele>719.0</ele><time>2026-05-01T09:32:05.998Z</time></trkpt><trkpt lat="42.05245760992789" lon="13.304094583985265"><ele>719.0</ele><time>2026-05-01T09:32:06.998Z</time></trkpt><trkpt lat="42.052367049196214" lon="13.304306050235981"><ele>719.0</ele><time>2026-05-01T09:32:07.998Z</time></trkpt><trkpt lat="42.05227650561273" lon="13.304514414859659"><ele>719.0</ele><time>2026-05-01T09:32:08.998Z</time></trkpt><trkpt lat="42.05219424706924" lon="13.304718199797625"><ele>719.0</ele><time>2026-05-01T09:32:09.998Z</time></trkpt><trkpt lat="42.05211157825276" lon="13.30492118036764"><ele>719.3333333333333</ele><time>2026-05-01T09:32:10.998Z</time></trkpt><trkpt lat="42.052026096031355" lon="13.30512297894008"><ele>719.6666666666666</ele><time>2026-05-01T09:32:11.998Z</time></trkpt><trkpt lat="42.0519413151068" lon="13.305326491271819"><ele>720.0</ele><time>2026-05-01T09:32:12.998Z</time></trkpt><trkpt lat="42.05185776024051" lon="13.305528573243258"><ele>719.6666666666666</ele><time>2026-05-01T09:32:13.998Z</time></trkpt><trkpt lat="42.051774823533435" lon="13.305730795928133"><ele>719.3333333333333</ele><time>2026-05-01T09:32:14.998Z</time></trkpt><trkpt lat="42.05169150744001" lon="13.305931926960945"><ele>719.0</ele><time>2026-05-01T09:32:15.998Z</time></trkpt><trkpt lat="42.051606680261074" lon="13.306130640586977"><ele>719.0</ele><time>2026-05-01T09:32:16.998Z</time></trkpt><trkpt lat="42.051520493832136" lon="13.30632498941436"><ele>719.0</ele><time>2026-05-01T09:32:17.998Z</time></trkpt><trkpt lat="42.05143629704031" lon="13.30652126608209"><ele>719.0</ele><time>2026-05-01T09:32:18.998Z</time></trkpt><trkpt lat="42.05135264002619" lon="13.306716190215113"><ele>718.6666666666666</ele><time>2026-05-01T09:32:19.998Z</time></trkpt><trkpt lat="42.051264679010664" lon="13.30691239109776"><ele>718.3333333333334</ele><time>2026-05-01T09:32:20.998Z</time></trkpt><trkpt lat="42.05117552544136" lon="13.307109420304084"><ele>718.0</ele><time>2026-05-01T09:32:21.998Z</time></trkpt><trkpt lat="42.05108891009724" lon="13.30730587550518"><ele>719.0</ele><time>2026-05-01T09:32:22.998Z</time></trkpt><trkpt lat="42.051006511025925" lon="13.307504415071508"><ele>720.0</ele><time>2026-05-01T09:32:23.998Z</time></trkpt><trkpt lat="42.05093221098265" lon="13.307708814298538"><ele>721.0</ele><time>2026-05-01T09:32:24.998Z</time></trkpt><trkpt lat="42.05087516279943" lon="13.307922275179184"><ele>722.3333333333334</ele><time>2026-05-01T09:32:25.998Z</time></trkpt><trkpt lat="42.05083789399634" lon="13.308142392400457"><ele>723.6666666666666</ele><time>2026-05-01T09:32:26.998Z</time></trkpt><trkpt lat="42.05082000145131" lon="13.308370683901092"><ele>725.0</ele><time>2026-05-01T09:32:28Z</time></trkpt><trkpt lat="42.050825777377156" lon="13.30860858272633"><ele>725.0</ele><time>2026-05-01T09:32:29Z</time></trkpt><trkpt lat="42.050855799001624" lon="13.308844002043715"><ele>725.0</ele><time>2026-05-01T09:32:30Z</time></trkpt><trkpt lat="42.050913777124535" lon="13.309069648781092"><ele>725.0</ele><time>2026-05-01T09:32:31Z</time></trkpt><trkpt lat="42.050978455972945" lon="13.309290007569457"><ele>725.0</ele><time>2026-05-01T09:32:32Z</time></trkpt><trkpt lat="42.051057248211386" lon="13.309494902647465"><ele>725.0</ele><time>2026-05-01T09:32:33Z</time></trkpt><trkpt lat="42.05113251133951" lon="13.30968460528507"><ele>725.0</ele><time>2026-05-01T09:32:34Z</time></trkpt><trkpt lat="42.05119785269595" lon="13.309861540631083"><ele>724.75</ele><time>2026-05-01T09:32:35Z</time></trkpt><trkpt lat="42.051264010247735" lon="13.310027640922637"><ele>724.5</ele><time>2026-05-01T09:32:36Z</time></trkpt><trkpt lat="42.05133427061144" lon="13.310192161476586"><ele>724.25</ele><time>2026-05-01T09:32:37Z</time></trkpt><trkpt lat="42.05140459382529" lon="13.310352270027437"><ele>724.0</ele><time>2026-05-01T09:32:38Z</time></trkpt><trkpt lat="42.051477453278146" lon="13.31051196011657"><ele>723.6666666666667</ele><time>2026-05-01T09:32:39Z</time></trkpt><trkpt lat="42.05155181939352" lon="13.3106799323707"><ele>723.3333333333334</ele><time>2026-05-01T09:32:40Z</time></trkpt><trkpt lat="42.051625425798015" lon="13.310858299231349"><ele>723.0</ele><time>2026-05-01T09:32:41Z</time></trkpt><trkpt lat="42.05170189705974" lon="13.311047314055457"><ele>724.0</ele><time>2026-05-01T09:32:42Z</time></trkpt><trkpt lat="42.05178310476775" lon="13.311240897003895"><ele>725.0</ele><time>2026-05-01T09:32:43Z</time></trkpt><trkpt lat="42.05186665892979" lon="13.311444327619048"><ele>726.0</ele><time>2026-05-01T09:32:44Z</time></trkpt><trkpt lat="42.05195090703246" lon="13.311652513188909"><ele>726.0</ele><time>2026-05-01T09:32:45Z</time></trkpt><trkpt lat="42.05203784485761" lon="13.31186737211099"><ele>726.0</ele><time>2026-05-01T09:32:46Z</time></trkpt><trkpt lat="42.05212411432476" lon="13.312075465554178"><ele>726.0</ele><time>2026-05-01T09:32:47Z</time></trkpt><trkpt lat="42.052209035765934" lon="13.31228591498535"><ele>727.0</ele><time>2026-05-01T09:32:48Z</time></trkpt><trkpt lat="42.05229457117535" lon="13.312501392920728"><ele>728.0</ele><time>2026-05-01T09:32:49Z</time></trkpt><trkpt lat="42.05238225618541" lon="13.312719996118739"><ele>729.0</ele><time>2026-05-01T09:32:50Z</time></trkpt><trkpt lat="42.05247392055882" lon="13.312941115920093"><ele>728.6666666666666</ele><time>2026-05-01T09:32:51Z</time></trkpt><trkpt lat="42.052568209316064" lon="13.313163828391213"><ele>728.3333333333333</ele><time>2026-05-01T09:32:52Z</time></trkpt><trkpt lat="42.052661736499246" lon="13.31339103456697"><ele>728.0</ele><time>2026-05-01T09:32:53Z</time></trkpt><trkpt lat="42.05275344861687" lon="13.313620170353017"><ele>728.0</ele><time>2026-05-01T09:32:54Z</time></trkpt><trkpt lat="42.0528432613341" lon="13.313850237401777"><ele>728.0</ele><time>2026-05-01T09:32:55Z</time></trkpt><trkpt lat="42.052936184437186" lon="13.314082934852761"><ele>728.0</ele><time>2026-05-01T09:32:56Z</time></trkpt><trkpt lat="42.05302834512142" lon="13.314315389567046"><ele>728.0</ele><time>2026-05-01T09:32:57Z</time></trkpt><trkpt lat="42.053120975689524" lon="13.314545274139185"><ele>728.0</ele><time>2026-05-01T09:32:58Z</time></trkpt><trkpt lat="42.05321506744642" lon="13.314778493663486"><ele>728.0</ele><time>2026-05-01T09:32:59Z</time></trkpt><trkpt lat="42.05331058722757" lon="13.315019926426107"><ele>727.6666666666666</ele><time>2026-05-01T09:33:00Z</time></trkpt><trkpt lat="42.053404452924305" lon="13.315270723050917"><ele>727.3333333333334</ele><time>2026-05-01T09:33:01Z</time></trkpt><trkpt lat="42.053504028325825" lon="13.315523682100244"><ele>727.0</ele><time>2026-05-01T09:33:02Z</time></trkpt><trkpt lat="42.05361055234379" lon="13.315782710952488"><ele>727.0</ele><time>2026-05-01T09:33:02.999Z</time></trkpt><trkpt lat="42.05371769579312" lon="13.316043430573812"><ele>727.0</ele><time>2026-05-01T09:33:03.999Z</time></trkpt><trkpt lat="42.0538296231732" lon="13.31630964788601"><ele>727.0</ele><time>2026-05-01T09:33:04.999Z</time></trkpt><trkpt lat="42.05393754846235" lon="13.316582989594956"><ele>725.0</ele><time>2026-05-01T09:33:05.999Z</time></trkpt><trkpt lat="42.054047333819035" lon="13.316855194067065"><ele>723.0</ele><time>2026-05-01T09:33:06.999Z</time></trkpt><trkpt lat="42.05415620098987" lon="13.317129900010382"><ele>721.5</ele><time>2026-05-01T09:33:07.999Z</time></trkpt><trkpt lat="42.05426523664987" lon="13.317400794480019"><ele>720.0</ele><time>2026-05-01T09:33:08.999Z</time></trkpt><trkpt lat="42.05437359553955" lon="13.317666418458577"><ele>720.0</ele><time>2026-05-01T09:33:09.999Z</time></trkpt><trkpt lat="42.05447720183474" lon="13.317922901472004"><ele>720.0</ele><time>2026-05-01T09:33:10.999Z</time></trkpt><trkpt lat="42.05457823595464" lon="13.318167760372068"><ele>720.0</ele><time>2026-05-01T09:33:11.999Z</time></trkpt><trkpt lat="42.054675468152844" lon="13.318402502229272"><ele>720.0</ele><time>2026-05-01T09:33:12.999Z</time></trkpt><trkpt lat="42.054766294421796" lon="13.318624370847889"><ele>720.0</ele><time>2026-05-01T09:33:13.999Z</time></trkpt><trkpt lat="42.05485402717989" lon="13.318840513444195"><ele>720.0</ele><time>2026-05-01T09:33:14.999Z</time></trkpt><trkpt lat="42.05494079635705" lon="13.31905348127998"><ele>721.6666666666666</ele><time>2026-05-01T09:33:15.999Z</time></trkpt><trkpt lat="42.055027547544185" lon="13.31926981362176"><ele>723.3333333333333</ele><time>2026-05-01T09:33:16.999Z</time></trkpt><trkpt lat="42.05511552572603" lon="13.319491378689383"><ele>725.0</ele><time>2026-05-01T09:33:17.999Z</time></trkpt><trkpt lat="42.05521097460808" lon="13.3197176765508"><ele>724.6666666666666</ele><time>2026-05-01T09:33:18.999Z</time></trkpt><trkpt lat="42.055295240391125" lon="13.319962986309317"><ele>724.3333333333334</ele><time>2026-05-01T09:33:19.999Z</time></trkpt><trkpt lat="42.05539492575916" lon="13.32021254297655"><ele>724.0</ele><time>2026-05-01T09:33:20.999Z</time></trkpt><trkpt lat="42.0555011088049" lon="13.3204775015636"><ele>722.0</ele><time>2026-05-01T09:33:21.999Z</time></trkpt><trkpt lat="42.055610348380114" lon="13.320748693620372"><ele>720.0</ele><time>2026-05-01T09:33:22.999Z</time></trkpt><trkpt lat="42.0557185064321" lon="13.321019247800768"><ele>721.0</ele><time>2026-05-01T09:33:23.999Z</time></trkpt><trkpt lat="42.05583400163186" lon="13.321282745051128"><ele>722.0</ele><time>2026-05-01T09:33:24.999Z</time></trkpt><trkpt lat="42.0559369106896" lon="13.321559635395904"><ele>722.0</ele><time>2026-05-01T09:33:25.999Z</time></trkpt><trkpt lat="42.05604750919377" lon="13.321835746922236"><ele>722.0</ele><time>2026-05-01T09:33:26.999Z</time></trkpt><trkpt lat="42.056160270191114" lon="13.322113192675534"><ele>720.5</ele><time>2026-05-01T09:33:27.999Z</time></trkpt><trkpt lat="42.05627432097514" lon="13.322388910511117"><ele>719.0</ele><time>2026-05-01T09:33:28.999Z</time></trkpt><trkpt lat="42.056387946024856" lon="13.322664686587137"><ele>719.0</ele><time>2026-05-01T09:33:29.999Z</time></trkpt><trkpt lat="42.05650089131914" lon="13.322938116992413"><ele>719.0</ele><time>2026-05-01T09:33:30.999Z</time></trkpt><trkpt lat="42.05661114216307" lon="13.323208143038432"><ele>722.0</ele><time>2026-05-01T09:33:31.999Z</time></trkpt><trkpt lat="42.056716450544" lon="13.323477450413383"><ele>725.0</ele><time>2026-05-01T09:33:32.999Z</time></trkpt><trkpt lat="42.05682174768814" lon="13.323745707636172"><ele>723.0</ele><time>2026-05-01T09:33:33.999Z</time></trkpt><trkpt lat="42.05692877960497" lon="13.324011992465666"><ele>721.0</ele><time>2026-05-01T09:33:34.999Z</time></trkpt><trkpt lat="42.05703594967007" lon="13.324278219936973"><ele>721.0</ele><time>2026-05-01T09:33:35.999Z</time></trkpt><trkpt lat="42.05714557304228" lon="13.324547161756053"><ele>721.0</ele><time>2026-05-01T09:33:36.999Z</time></trkpt><trkpt lat="42.05725427810834" lon="13.324819671064184"><ele>720.5</ele><time>2026-05-01T09:33:37.999Z</time></trkpt><trkpt lat="42.05736136999089" lon="13.325095450623056"><ele>720.0</ele><time>2026-05-01T09:33:38.999Z</time></trkpt><trkpt lat="42.05746928471314" lon="13.32537295799544"><ele>720.5</ele><time>2026-05-01T09:33:39.999Z</time></trkpt><trkpt lat="42.05757978416945" lon="13.325650028686526"><ele>721.0</ele><time>2026-05-01T09:33:40.999Z</time></trkpt><trkpt lat="42.0576931599748" lon="13.325930118017368"><ele>721.0</ele><time>2026-05-01T09:33:41.999Z</time></trkpt><trkpt lat="42.05780711185623" lon="13.326213729778177"><ele>721.0</ele><time>2026-05-01T09:33:42.999Z</time></trkpt><trkpt lat="42.057923568187526" lon="13.326499272832804"><ele>719.0</ele><time>2026-05-01T09:33:43.999Z</time></trkpt><trkpt lat="42.05804056505193" lon="13.326785624232468"><ele>717.0</ele><time>2026-05-01T09:33:44.999Z</time></trkpt><trkpt lat="42.05814498878346" lon="13.327088043753836"><ele>716.5</ele><time>2026-05-01T09:33:45.999Z</time></trkpt><trkpt lat="42.058268401438674" lon="13.327380983896186"><ele>716.0</ele><time>2026-05-01T09:33:46.999Z</time></trkpt><trkpt lat="42.05841049790495" lon="13.327661468855261"><ele>715.5</ele><time>2026-05-01T09:33:47.999Z</time></trkpt><trkpt lat="42.058541233080845" lon="13.327954895376575"><ele>715.0</ele><time>2026-05-01T09:33:48.999Z</time></trkpt><trkpt lat="42.05867646875949" lon="13.328240862813288"><ele>713.5</ele><time>2026-05-01T09:33:49.999Z</time></trkpt><trkpt lat="42.05880885320463" lon="13.328513454243698"><ele>712.0</ele><time>2026-05-01T09:33:50.999Z</time></trkpt><trkpt lat="42.05893217030847" lon="13.328778970853016"><ele>712.0</ele><time>2026-05-01T09:33:51.999Z</time></trkpt><trkpt lat="42.05904404407061" lon="13.32903312852541"><ele>712.0</ele><time>2026-05-01T09:33:52.999Z</time></trkpt><trkpt lat="42.05914279658017" lon="13.329271976677335"><ele>712.0</ele><time>2026-05-01T09:33:53.999Z</time></trkpt><trkpt lat="42.05923421797283" lon="13.329494110247214"><ele>712.0</ele><time>2026-05-01T09:33:54.999Z</time></trkpt><trkpt lat="42.05931644159948" lon="13.329698112476773"><ele>712.0</ele><time>2026-05-01T09:33:55.999Z</time></trkpt><trkpt lat="42.05938987029071" lon="13.329894739667793"><ele>712.0</ele><time>2026-05-01T09:33:56.999Z</time></trkpt><trkpt lat="42.05946803553289" lon="13.330098750690018"><ele>712.0</ele><time>2026-05-01T09:33:57.999Z</time></trkpt><trkpt lat="42.05954945660885" lon="13.330301986787465"><ele>712.0</ele><time>2026-05-01T09:33:58.999Z</time></trkpt><trkpt lat="42.05962608213505" lon="13.330508578820819"><ele>712.0</ele><time>2026-05-01T09:33:59.999Z</time></trkpt><trkpt lat="42.059702146181685" lon="13.330712870122856"><ele>713.0</ele><time>2026-05-01T09:34:00.998Z</time></trkpt><trkpt lat="42.05977747269338" lon="13.330912732070447"><ele>714.0</ele><time>2026-05-01T09:34:01.998Z</time></trkpt><trkpt lat="42.05985528191169" lon="13.331106092803173"><ele>715.0</ele><time>2026-05-01T09:34:02.998Z</time></trkpt><trkpt lat="42.05993578219974" lon="13.3312993785246"><ele>717.0</ele><time>2026-05-01T09:34:03.998Z</time></trkpt><trkpt lat="42.060017004999544" lon="13.331495369312053"><ele>719.0</ele><time>2026-05-01T09:34:04.998Z</time></trkpt><trkpt lat="42.06009872510164" lon="13.331696296283068"><ele>721.0</ele><time>2026-05-01T09:34:05.998Z</time></trkpt><trkpt lat="42.06017915461109" lon="13.331905179755537"><ele>721.0</ele><time>2026-05-01T09:34:06.998Z</time></trkpt><trkpt lat="42.06026421261132" lon="13.332120963780659"><ele>721.0</ele><time>2026-05-01T09:34:07.998Z</time></trkpt><trkpt lat="42.06035123944345" lon="13.332336326818298"><ele>721.0</ele><time>2026-05-01T09:34:08.998Z</time></trkpt><trkpt lat="42.06043969877767" lon="13.332559196572713"><ele>719.3333333333334</ele><time>2026-05-01T09:34:09.998Z</time></trkpt><trkpt lat="42.060527812843354" lon="13.332785835715434"><ele>717.6666666666666</ele><time>2026-05-01T09:34:10.998Z</time></trkpt><trkpt lat="42.06061935023586" lon="13.333016973374924"><ele>716.0</ele><time>2026-05-01T09:34:11.998Z</time></trkpt><trkpt lat="42.06071243359717" lon="13.333252970649474"><ele>714.6666666666666</ele><time>2026-05-01T09:34:12.998Z</time></trkpt><trkpt lat="42.06080453160528" lon="13.333491982498408"><ele>713.3333333333334</ele><time>2026-05-01T09:34:13.998Z</time></trkpt><trkpt lat="42.060897521844325" lon="13.33373610272971"><ele>712.0</ele><time>2026-05-01T09:34:14.998Z</time></trkpt><trkpt lat="42.060991724825634" lon="13.333982345275148"><ele>710.6666666666667</ele><time>2026-05-01T09:34:15.998Z</time></trkpt><trkpt lat="42.0610910406248" lon="13.334224616121952"><ele>709.3333333333334</ele><time>2026-05-01T09:34:16.998Z</time></trkpt><trkpt lat="42.061189079655705" lon="13.334473666414128"><ele>708.0</ele><time>2026-05-01T09:34:17.998Z</time></trkpt><trkpt lat="42.061289893905226" lon="13.334714330821734"><ele>706.3333333333334</ele><time>2026-05-01T09:34:18.998Z</time></trkpt><trkpt lat="42.061389744034" lon="13.334956410544592"><ele>704.6666666666667</ele><time>2026-05-01T09:34:19.998Z</time></trkpt><trkpt lat="42.061486270377806" lon="13.335200682404354"><ele>703.0</ele><time>2026-05-01T09:34:20.998Z</time></trkpt><trkpt lat="42.061582660254174" lon="13.335443563172564"><ele>702.6666666666667</ele><time>2026-05-01T09:34:21.998Z</time></trkpt><trkpt lat="42.06168098235553" lon="13.335685080988652"><ele>702.3333333333334</ele><time>2026-05-01T09:34:22.998Z</time></trkpt><trkpt lat="42.061776184328544" lon="13.33592240609617"><ele>702.0</ele><time>2026-05-01T09:34:23.998Z</time></trkpt><trkpt lat="42.06186716168375" lon="13.33615853612068"><ele>701.6666666666666</ele><time>2026-05-01T09:34:24.998Z</time></trkpt><trkpt lat="42.06195503180575" lon="13.336386850790317"><ele>701.3333333333333</ele><time>2026-05-01T09:34:25.998Z</time></trkpt><trkpt lat="42.06204001257504" lon="13.33660383127742"><ele>701.0</ele><time>2026-05-01T09:34:26.998Z</time></trkpt><trkpt lat="42.06212150104418" lon="13.336813139604956"><ele>701.0</ele><time>2026-05-01T09:34:27.998Z</time></trkpt><trkpt lat="42.06220463485811" lon="13.337020623012313"><ele>701.0</ele><time>2026-05-01T09:34:28.998Z</time></trkpt><trkpt lat="42.062285884898124" lon="13.337226555228035"><ele>701.0</ele><time>2026-05-01T09:34:29.998Z</time></trkpt><trkpt lat="42.062369854850765" lon="13.337434673958509"><ele>700.3333333333333</ele><time>2026-05-01T09:34:30.998Z</time></trkpt><trkpt lat="42.06245483792961" lon="13.337642376891147"><ele>699.6666666666666</ele><time>2026-05-01T09:34:31.998Z</time></trkpt><trkpt lat="42.06253950288919" lon="13.337851425603398"><ele>699.0</ele><time>2026-05-01T09:34:32.998Z</time></trkpt><trkpt lat="42.06262521245032" lon="13.338061999467824"><ele>699.0</ele><time>2026-05-01T09:34:34Z</time></trkpt><trkpt lat="42.06271306868304" lon="13.338276487080602"><ele>699.0</ele><time>2026-05-01T09:34:35Z</time></trkpt><trkpt lat="42.06279997614606" lon="13.338489628778191"><ele>699.0</ele><time>2026-05-01T09:34:36Z</time></trkpt><trkpt lat="42.06288738749648" lon="13.33870283933222"><ele>699.0</ele><time>2026-05-01T09:34:37Z</time></trkpt><trkpt lat="42.06297184090097" lon="13.338915352444978"><ele>699.0</ele><time>2026-05-01T09:34:38Z</time></trkpt><trkpt lat="42.063054973007844" lon="13.339125984276778"><ele>699.0</ele><time>2026-05-01T09:34:39Z</time></trkpt><trkpt lat="42.06313822832377" lon="13.339334575484447"><ele>699.0</ele><time>2026-05-01T09:34:40Z</time></trkpt><trkpt lat="42.063218766163146" lon="13.339534808517664"><ele>699.0</ele><time>2026-05-01T09:34:41Z</time></trkpt><trkpt lat="42.06329480606875" lon="13.339727261725598"><ele>699.0</ele><time>2026-05-01T09:34:42Z</time></trkpt><trkpt lat="42.063366560890685" lon="13.339905150514642"><ele>699.5</ele><time>2026-05-01T09:34:43Z</time></trkpt><trkpt lat="42.063436703508955" lon="13.340076055090156"><ele>700.0</ele><time>2026-05-01T09:34:44Z</time></trkpt><trkpt lat="42.063505702828614" lon="13.340239866708814"><ele>700.5</ele><time>2026-05-01T09:34:45Z</time></trkpt><trkpt lat="42.063562836601065" lon="13.340410385633232"><ele>701.0</ele><time>2026-05-01T09:34:46Z</time></trkpt><trkpt lat="42.06360587007591" lon="13.34058494622657"><ele>701.0</ele><time>2026-05-01T09:34:47Z</time></trkpt><trkpt lat="42.06361943023672" lon="13.340769563251401"><ele>701.0</ele><time>2026-05-01T09:34:48Z</time></trkpt><trkpt lat="42.06368133389503" lon="13.340938440926214"><ele>701.0</ele><time>2026-05-01T09:34:49Z</time></trkpt><trkpt lat="42.063710514892534" lon="13.341120280997611"><ele>701.0</ele><time>2026-05-01T09:34:50Z</time></trkpt><trkpt lat="42.06374138832825" lon="13.34130428852472"><ele>700.75</ele><time>2026-05-01T09:34:51Z</time></trkpt><trkpt lat="42.06378000131834" lon="13.341472568330587"><ele>700.5</ele><time>2026-05-01T09:34:52Z</time></trkpt><trkpt lat="42.06382388548659" lon="13.341632561516006"><ele>700.25</ele><time>2026-05-01T09:34:53Z</time></trkpt><trkpt lat="42.06386158236188" lon="13.341795221458396"><ele>700.0</ele><time>2026-05-01T09:34:54Z</time></trkpt><trkpt lat="42.06393511291463" lon="13.341924498251093"><ele>700.0</ele><time>2026-05-01T09:34:55Z</time></trkpt><trkpt lat="42.06399337368227" lon="13.342056134075781"><ele>700.0</ele><time>2026-05-01T09:34:56Z</time></trkpt><trkpt lat="42.06404682123993" lon="13.342181159377006"><ele>700.0</ele><time>2026-05-01T09:34:57Z</time></trkpt><trkpt lat="42.06411112600216" lon="13.342305826216148"><ele>700.0</ele><time>2026-05-01T09:34:58Z</time></trkpt><trkpt lat="42.064169228390114" lon="13.342417723504912"><ele>700.0</ele><time>2026-05-01T09:34:59Z</time></trkpt><trkpt lat="42.064218824590434" lon="13.342529099557623"><ele>700.4</ele><time>2026-05-01T09:35:00Z</time></trkpt><trkpt lat="42.06427225277328" lon="13.34264427605384"><ele>700.8</ele><time>2026-05-01T09:35:01Z</time></trkpt><trkpt lat="42.06432901180627" lon="13.34275689207896"><ele>701.2</ele><time>2026-05-01T09:35:02Z</time></trkpt><trkpt lat="42.06438478199077" lon="13.342875534632924"><ele>701.6</ele><time>2026-05-01T09:35:03Z</time></trkpt><trkpt lat="42.06444300213702" lon="13.342997709243955"><ele>702.0</ele><time>2026-05-01T09:35:04Z</time></trkpt><trkpt lat="42.064486167057794" lon="13.343141041284452"><ele>702.25</ele><time>2026-05-01T09:35:05Z</time></trkpt><trkpt lat="42.06454894968607" lon="13.343276943869752"><ele>702.5</ele><time>2026-05-01T09:35:06Z</time></trkpt><trkpt lat="42.06461235029893" lon="13.343412004485133"><ele>702.75</ele><time>2026-05-01T09:35:07Z</time></trkpt><trkpt lat="42.064682259052425" lon="13.343550743595886"><ele>703.0</ele><time>2026-05-01T09:35:07.999Z</time></trkpt><trkpt lat="42.06476674987772" lon="13.343676127933373"><ele>703.0</ele><time>2026-05-01T09:35:08.999Z</time></trkpt><trkpt lat="42.06483641678831" lon="13.34381725878751"><ele>703.0</ele><time>2026-05-01T09:35:09.999Z</time></trkpt><trkpt lat="42.06490441407964" lon="13.343954053316999"><ele>703.0</ele><time>2026-05-01T09:35:10.999Z</time></trkpt><trkpt lat="42.064970765789354" lon="13.344091963825607"><ele>703.0</ele><time>2026-05-01T09:35:11.999Z</time></trkpt><trkpt lat="42.06504460229569" lon="13.344225365705642"><ele>702.5</ele><time>2026-05-01T09:35:12.999Z</time></trkpt><trkpt lat="42.06512349659182" lon="13.344358290992044"><ele>702.0</ele><time>2026-05-01T09:35:13.999Z</time></trkpt><trkpt lat="42.06519845811259" lon="13.344494201658488"><ele>701.5</ele><time>2026-05-01T09:35:14.999Z</time></trkpt><trkpt lat="42.06527244000323" lon="13.34463636599355"><ele>701.0</ele><time>2026-05-01T09:35:15.999Z</time></trkpt><trkpt lat="42.06534259250253" lon="13.344790296292544"><ele>700.75</ele><time>2026-05-01T09:35:16.999Z</time></trkpt><trkpt lat="42.065415340529434" lon="13.344951238262256"><ele>700.5</ele><time>2026-05-01T09:35:17.999Z</time></trkpt><trkpt lat="42.06548935672929" lon="13.345114343905522"><ele>700.25</ele><time>2026-05-01T09:35:18.999Z</time></trkpt><trkpt lat="42.06555380732948" lon="13.345279010240043"><ele>700.0</ele><time>2026-05-01T09:35:19.999Z</time></trkpt><trkpt lat="42.06562023175405" lon="13.34544104737795"><ele>699.75</ele><time>2026-05-01T09:35:20.999Z</time></trkpt><trkpt lat="42.065688782496196" lon="13.34560781894786"><ele>699.5</ele><time>2026-05-01T09:35:21.999Z</time></trkpt><trkpt lat="42.06575694402323" lon="13.345779518038498"><ele>699.25</ele><time>2026-05-01T09:35:22.999Z</time></trkpt><trkpt lat="42.0658210458508" lon="13.345946059313631"><ele>699.0</ele><time>2026-05-01T09:35:23.999Z</time></trkpt><trkpt lat="42.06588771936091" lon="13.346110356968241"><ele>699.0</ele><time>2026-05-01T09:35:24.999Z</time></trkpt><trkpt lat="42.06595703059509" lon="13.346279185090834"><ele>699.0</ele><time>2026-05-01T09:35:25.999Z</time></trkpt><trkpt lat="42.06602527085447" lon="13.346453715287263"><ele>699.0</ele><time>2026-05-01T09:35:26.999Z</time></trkpt><trkpt lat="42.066091145169615" lon="13.346625488474487"><ele>699.0</ele><time>2026-05-01T09:35:27.999Z</time></trkpt><trkpt lat="42.066159318087415" lon="13.346798304635914"><ele>698.3333333333334</ele><time>2026-05-01T09:35:28.999Z</time></trkpt><trkpt lat="42.06622063487323" lon="13.346985223754197"><ele>697.6666666666667</ele><time>2026-05-01T09:35:29.999Z</time></trkpt><trkpt lat="42.06630088321629" lon="13.347188014414568"><ele>697.0</ele><time>2026-05-01T09:35:30.999Z</time></trkpt><trkpt lat="42.0663867323486" lon="13.347404923599864"><ele>697.0</ele><time>2026-05-01T09:35:31.999Z</time></trkpt><trkpt lat="42.066474340105266" lon="13.347626251732827"><ele>697.0</ele><time>2026-05-01T09:35:32.999Z</time></trkpt><trkpt lat="42.0665621538955" lon="13.347847076812034"><ele>697.0</ele><time>2026-05-01T09:35:33.999Z</time></trkpt><trkpt lat="42.06666265256645" lon="13.348061238555617"><ele>696.6666666666667</ele><time>2026-05-01T09:35:34.999Z</time></trkpt><trkpt lat="42.06674557771883" lon="13.348278932931626"><ele>696.3333333333334</ele><time>2026-05-01T09:35:35.999Z</time></trkpt><trkpt lat="42.06682892791277" lon="13.348491515664154"><ele>696.0</ele><time>2026-05-01T09:35:36.999Z</time></trkpt><trkpt lat="42.06691287564207" lon="13.34870143566108"><ele>696.0</ele><time>2026-05-01T09:35:37.999Z</time></trkpt><trkpt lat="42.066998426079564" lon="13.348914320493556"><ele>696.0</ele><time>2026-05-01T09:35:38.999Z</time></trkpt><trkpt lat="42.06708398389773" lon="13.349126909009883"><ele>696.0</ele><time>2026-05-01T09:35:39.999Z</time></trkpt><trkpt lat="42.06717129482089" lon="13.349340997715641"><ele>696.0</ele><time>2026-05-01T09:35:40.999Z</time></trkpt><trkpt lat="42.06725656611186" lon="13.349555829413791"><ele>696.0</ele><time>2026-05-01T09:35:41.999Z</time></trkpt><trkpt lat="42.06734191664805" lon="13.349770781232078"><ele>696.0</ele><time>2026-05-01T09:35:42.999Z</time></trkpt><trkpt lat="42.067428876318175" lon="13.349984161152664"><ele>696.0</ele><time>2026-05-01T09:35:43.999Z</time></trkpt><trkpt lat="42.06758904123132" lon="13.350419795437581"><ele>696.0</ele><time>2026-05-01T09:35:45.999Z</time></trkpt><trkpt lat="42.06767574152949" lon="13.350637369190942"><ele>696.3333333333334</ele><time>2026-05-01T09:35:46.999Z</time></trkpt><trkpt lat="42.06776634124563" lon="13.35086251067751"><ele>696.6666666666667</ele><time>2026-05-01T09:35:47.999Z</time></trkpt><trkpt lat="42.067859769163434" lon="13.351094418934244"><ele>697.0</ele><time>2026-05-01T09:35:48.999Z</time></trkpt><trkpt lat="42.06795857004261" lon="13.351339664036633"><ele>697.0</ele><time>2026-05-01T09:35:49.999Z</time></trkpt><trkpt lat="42.068063386388125" lon="13.351596801941794"><ele>697.0</ele><time>2026-05-01T09:35:50.999Z</time></trkpt><trkpt lat="42.06817062599737" lon="13.351857616221013"><ele>697.0</ele><time>2026-05-01T09:35:51.999Z</time></trkpt><trkpt lat="42.06827870951852" lon="13.35212048296711"><ele>696.6666666666667</ele><time>2026-05-01T09:35:52.999Z</time></trkpt><trkpt lat="42.06838567063134" lon="13.352380619938753"><ele>696.3333333333334</ele><time>2026-05-01T09:35:53.999Z</time></trkpt><trkpt lat="42.06849132139758" lon="13.352637570736656"><ele>696.0</ele><time>2026-05-01T09:35:54.999Z</time></trkpt><trkpt lat="42.06859332026909" lon="13.35288664882511"><ele>696.3333333333334</ele><time>2026-05-01T09:35:55.999Z</time></trkpt><trkpt lat="42.0686908725218" lon="13.353128179112765"><ele>696.6666666666667</ele><time>2026-05-01T09:35:56.999Z</time></trkpt><trkpt lat="42.06879572791099" lon="13.353334384696383"><ele>697.0</ele><time>2026-05-01T09:35:57.999Z</time></trkpt><trkpt lat="42.068891314354914" lon="13.353540951781534"><ele>697.0</ele><time>2026-05-01T09:35:58.999Z</time></trkpt><trkpt lat="42.06899772216665" lon="13.353768052913848"><ele>697.0</ele><time>2026-05-01T09:35:59.999Z</time></trkpt><trkpt lat="42.069099468150405" lon="13.354018417148835"><ele>697.0</ele><time>2026-05-01T09:36:00.999Z</time></trkpt><trkpt lat="42.069200382013655" lon="13.354277702130604"><ele>696.6666666666667</ele><time>2026-05-01T09:36:01.999Z</time></trkpt><trkpt lat="42.069301390192024" lon="13.354541633964304"><ele>696.3333333333334</ele><time>2026-05-01T09:36:02.999Z</time></trkpt><trkpt lat="42.069399469408026" lon="13.354806471290182"><ele>696.0</ele><time>2026-05-01T09:36:03.999Z</time></trkpt><trkpt lat="42.06949608347151" lon="13.355066426096569"><ele>696.0</ele><time>2026-05-01T09:36:04.999Z</time></trkpt><trkpt lat="42.06960120233793" lon="13.355328766182874"><ele>696.0</ele><time>2026-05-01T09:36:05.998Z</time></trkpt><trkpt lat="42.06971476887893" lon="13.355591420058596"><ele>696.0</ele><time>2026-05-01T09:36:06.998Z</time></trkpt><trkpt lat="42.069829192882644" lon="13.355853112845786"><ele>695.6666666666666</ele><time>2026-05-01T09:36:07.998Z</time></trkpt><trkpt lat="42.06994039403823" lon="13.356110546530612"><ele>695.3333333333333</ele><time>2026-05-01T09:36:08.998Z</time></trkpt><trkpt lat="42.070047438798085" lon="13.356370400926485"><ele>695.0</ele><time>2026-05-01T09:36:09.998Z</time></trkpt><trkpt lat="42.07015309811782" lon="13.356629487971421"><ele>696.0</ele><time>2026-05-01T09:36:10.998Z</time></trkpt><trkpt lat="42.07025874464463" lon="13.356882743138577"><ele>697.0</ele><time>2026-05-01T09:36:11.998Z</time></trkpt><trkpt lat="42.07036357820892" lon="13.357129228789246"><ele>698.0</ele><time>2026-05-01T09:36:12.998Z</time></trkpt><trkpt lat="42.070464117367706" lon="13.357370176203558"><ele>698.0</ele><time>2026-05-01T09:36:13.998Z</time></trkpt><trkpt lat="42.0705625811355" lon="13.357608577823786"><ele>698.0</ele><time>2026-05-01T09:36:14.998Z</time></trkpt><trkpt lat="42.07065819251277" lon="13.357849601936481"><ele>698.0</ele><time>2026-05-01T09:36:15.998Z</time></trkpt><trkpt lat="42.070742805989916" lon="13.35809630970521"><ele>698.3333333333333</ele><time>2026-05-01T09:36:16.998Z</time></trkpt><trkpt lat="42.07081100236625" lon="13.358351984276206"><ele>698.6666666666666</ele><time>2026-05-01T09:36:17.998Z</time></trkpt><trkpt lat="42.0708604007627" lon="13.358615250224597"><ele>699.0</ele><time>2026-05-01T09:36:18.998Z</time></trkpt><trkpt lat="42.0708871698082" lon="13.358882643144259"><ele>699.0</ele><time>2026-05-01T09:36:19.998Z</time></trkpt><trkpt lat="42.07089530535531" lon="13.359152650603791"><ele>699.0</ele><time>2026-05-01T09:36:20.998Z</time></trkpt><trkpt lat="42.07088425134322" lon="13.359427668671044"><ele>699.0</ele><time>2026-05-01T09:36:21.998Z</time></trkpt><trkpt lat="42.07085566431821" lon="13.359703731408231"><ele>699.0</ele><time>2026-05-01T09:36:22.998Z</time></trkpt><trkpt lat="42.07080897764325" lon="13.359975544406533"><ele>699.0</ele><time>2026-05-01T09:36:23.998Z</time></trkpt><trkpt lat="42.07073749431429" lon="13.360228025668576"><ele>699.0</ele><time>2026-05-01T09:36:24.998Z</time></trkpt><trkpt lat="42.070675931836476" lon="13.360492157435226"><ele>698.6666666666666</ele><time>2026-05-01T09:36:25.998Z</time></trkpt><trkpt lat="42.07061124833163" lon="13.360764578965416"><ele>698.3333333333333</ele><time>2026-05-01T09:36:26.998Z</time></trkpt><trkpt lat="42.070545245883075" lon="13.361042555380903"><ele>698.0</ele><time>2026-05-01T09:36:27.998Z</time></trkpt><trkpt lat="42.070478122621886" lon="13.361325252190229"><ele>698.3333333333333</ele><time>2026-05-01T09:36:28.998Z</time></trkpt><trkpt lat="42.07041076489633" lon="13.361608936430015"><ele>698.6666666666666</ele><time>2026-05-01T09:36:29.998Z</time></trkpt><trkpt lat="42.07034262970901" lon="13.361895090954727"><ele>699.0</ele><time>2026-05-01T09:36:30.998Z</time></trkpt><trkpt lat="42.070281812047135" lon="13.362181316530236"><ele>698.6666666666666</ele><time>2026-05-01T09:36:31.998Z</time></trkpt><trkpt lat="42.07021112628893" lon="13.362469210608657"><ele>698.3333333333333</ele><time>2026-05-01T09:36:32.998Z</time></trkpt><trkpt lat="42.0701431281048" lon="13.362755616538733"><ele>698.0</ele><time>2026-05-01T09:36:33.998Z</time></trkpt><trkpt lat="42.07007324661534" lon="13.363043906709375"><ele>698.0</ele><time>2026-05-01T09:36:34.998Z</time></trkpt><trkpt lat="42.07000142165083" lon="13.363330454936929"><ele>698.0</ele><time>2026-05-01T09:36:35.998Z</time></trkpt><trkpt lat="42.069929721353084" lon="13.363619372228683"><ele>698.0</ele><time>2026-05-01T09:36:36.998Z</time></trkpt><trkpt lat="42.06985751080619" lon="13.36390810223391"><ele>698.0</ele><time>2026-05-01T09:36:37.998Z</time></trkpt><trkpt lat="42.069776923165705" lon="13.364200139360571"><ele>698.0</ele><time>2026-05-01T09:36:38.998Z</time></trkpt><trkpt lat="42.0697170400043" lon="13.364495218688772"><ele>698.0</ele><time>2026-05-01T09:36:40Z</time></trkpt><trkpt lat="42.06965166786304" lon="13.364796397600065"><ele>698.0</ele><time>2026-05-01T09:36:41Z</time></trkpt><trkpt lat="42.06958403625891" lon="13.365089998708832"><ele>698.0</ele><time>2026-05-01T09:36:42Z</time></trkpt><trkpt lat="42.06951401179009" lon="13.365383650682858"><ele>698.5</ele><time>2026-05-01T09:36:43Z</time></trkpt><trkpt lat="42.06944495100202" lon="13.365680467205005"><ele>699.0</ele><time>2026-05-01T09:36:44Z</time></trkpt><trkpt lat="42.06937796383845" lon="13.365975850355877"><ele>699.0</ele><time>2026-05-01T09:36:45Z</time></trkpt><trkpt lat="42.069306553015544" lon="13.366270090906056"><ele>699.0</ele><time>2026-05-01T09:36:46Z</time></trkpt><trkpt lat="42.06923335643938" lon="13.366561902721424"><ele>699.0</ele><time>2026-05-01T09:36:47Z</time></trkpt><trkpt lat="42.069160633107025" lon="13.366858558459397"><ele>699.0</ele><time>2026-05-01T09:36:48Z</time></trkpt><trkpt lat="42.06908938593243" lon="13.367155703737579"><ele>696.5</ele><time>2026-05-01T09:36:49Z</time></trkpt><trkpt lat="42.0690201169715" lon="13.367452693840143"><ele>694.0</ele><time>2026-05-01T09:36:50Z</time></trkpt><trkpt lat="42.06895109614345" lon="13.367750811088698"><ele>694.5</ele><time>2026-05-01T09:36:51Z</time></trkpt><trkpt lat="42.068878677903044" lon="13.368045151632199"><ele>695.0</ele><time>2026-05-01T09:36:52Z</time></trkpt><trkpt lat="42.068806655059106" lon="13.368337662818973"><ele>695.0</ele><time>2026-05-01T09:36:53Z</time></trkpt><trkpt lat="42.068737702226166" lon="13.368633656100636"><ele>695.0</ele><time>2026-05-01T09:36:54Z</time></trkpt><trkpt lat="42.06866547080398" lon="13.368929197357652"><ele>696.5</ele><time>2026-05-01T09:36:55Z</time></trkpt><trkpt lat="42.068593074657265" lon="13.369225010237423"><ele>698.0</ele><time>2026-05-01T09:36:56Z</time></trkpt><trkpt lat="42.06852007562841" lon="13.3695183006443"><ele>698.5</ele><time>2026-05-01T09:36:57Z</time></trkpt><trkpt lat="42.06844923259784" lon="13.369813393646957"><ele>699.0</ele><time>2026-05-01T09:36:58Z</time></trkpt><trkpt lat="42.06837884505107" lon="13.37010767806971"><ele>699.0</ele><time>2026-05-01T09:36:59Z</time></trkpt><trkpt lat="42.06830785903089" lon="13.370399935004064"><ele>699.0</ele><time>2026-05-01T09:37:00Z</time></trkpt><trkpt lat="42.06823788397042" lon="13.370689214399178"><ele>699.3333333333334</ele><time>2026-05-01T09:37:01Z</time></trkpt><trkpt lat="42.06817177618885" lon="13.37097212581655"><ele>699.6666666666667</ele><time>2026-05-01T09:37:02Z</time></trkpt><trkpt lat="42.068109996878434" lon="13.371246112636504"><ele>700.0</ele><time>2026-05-01T09:37:03Z</time></trkpt><trkpt lat="42.06805050626109" lon="13.371504839087756"><ele>699.3333333333334</ele><time>2026-05-01T09:37:04Z</time></trkpt><trkpt lat="42.06799317861659" lon="13.371747962611911"><ele>698.6666666666666</ele><time>2026-05-01T09:37:05Z</time></trkpt><trkpt lat="42.067937116207034" lon="13.371975115742329"><ele>698.0</ele><time>2026-05-01T09:37:06Z</time></trkpt><trkpt lat="42.067888023012436" lon="13.372181667453553"><ele>698.2</ele><time>2026-05-01T09:37:07Z</time></trkpt><trkpt lat="42.06784325704656" lon="13.372359356289566"><ele>698.4</ele><time>2026-05-01T09:37:08Z</time></trkpt><trkpt lat="42.06780705341239" lon="13.372504279752663"><ele>698.6</ele><time>2026-05-01T09:37:09Z</time></trkpt><trkpt lat="42.06776379908529" lon="13.372604303124698"><ele>698.8000000000001</ele><time>2026-05-01T09:37:10Z</time></trkpt><trkpt lat="42.06770253423368" lon="13.372650368518775"><ele>699.0</ele><time>2026-05-01T09:37:11Z</time></trkpt><trkpt lat="42.06759673284256" lon="13.372683083518837"><ele>699.0</ele><time>2026-05-01T09:37:13Z</time></trkpt><trkpt lat="42.06751262674672" lon="13.372714584566014"><ele>699.0</ele><time>2026-05-01T09:37:16Z</time></trkpt><trkpt lat="42.067451036064696" lon="13.372786451249468"><ele>699.0</ele><time>2026-05-01T09:37:18.999Z</time></trkpt><trkpt lat="42.06753668723232" lon="13.37279870453783"><ele>699.0</ele><time>2026-05-01T09:38:03.999Z</time></trkpt><trkpt lat="42.06755032441563" lon="13.372904486158092"><ele>699.0</ele><time>2026-05-01T09:38:05.999Z</time></trkpt><trkpt lat="42.0675680120599" lon="13.373047280163691"><ele>699.0</ele><time>2026-05-01T09:38:07.999Z</time></trkpt><trkpt lat="42.067573275525824" lon="13.373136911173438"><ele>699.6666666666666</ele><time>2026-05-01T09:38:08.999Z</time></trkpt><trkpt lat="42.06756881434279" lon="13.373238996991034"><ele>700.3333333333334</ele><time>2026-05-01T09:38:09.999Z</time></trkpt><trkpt lat="42.06754785253205" lon="13.373350260370025"><ele>701.0</ele><time>2026-05-01T09:38:10.999Z</time></trkpt><trkpt lat="42.06752277160978" lon="13.373461216294022"><ele>701.6666666666667</ele><time>2026-05-01T09:38:11.999Z</time></trkpt><trkpt lat="42.067498172666404" lon="13.373579822549733"><ele>702.3333333333334</ele><time>2026-05-01T09:38:12.999Z</time></trkpt><trkpt lat="42.067474350452905" lon="13.373697344310502"><ele>703.0</ele><time>2026-05-01T09:38:13.999Z</time></trkpt><trkpt lat="42.06744910912246" lon="13.373827590311796"><ele>703.25</ele><time>2026-05-01T09:38:14.999Z</time></trkpt><trkpt lat="42.06742143486924" lon="13.373964174578381"><ele>703.5</ele><time>2026-05-01T09:38:15.998Z</time></trkpt><trkpt lat="42.06738961088483" lon="13.37410932980228"><ele>703.75</ele><time>2026-05-01T09:38:16.998Z</time></trkpt><trkpt lat="42.06735570960276" lon="13.374268435167817"><ele>704.0</ele><time>2026-05-01T09:38:17.998Z</time></trkpt><trkpt lat="42.06731927501878" lon="13.37443751314991"><ele>704.0</ele><time>2026-05-01T09:38:18.998Z</time></trkpt><trkpt lat="42.067273705794335" lon="13.374614812132679"><ele>704.0</ele><time>2026-05-01T09:38:19.998Z</time></trkpt><trkpt lat="42.06723430457425" lon="13.374790278942886"><ele>704.0</ele><time>2026-05-01T09:38:20.998Z</time></trkpt><trkpt lat="42.067193751507574" lon="13.374976224182706"><ele>704.0</ele><time>2026-05-01T09:38:21.998Z</time></trkpt><trkpt lat="42.06715250439199" lon="13.375167111775983"><ele>704.3333333333333</ele><time>2026-05-01T09:38:22.998Z</time></trkpt><trkpt lat="42.06710694705455" lon="13.37536166533686"><ele>704.6666666666666</ele><time>2026-05-01T09:38:23.998Z</time></trkpt><trkpt lat="42.0670593268717" lon="13.37556011754905"><ele>705.0</ele><time>2026-05-01T09:38:24.998Z</time></trkpt><trkpt lat="42.06701525999224" lon="13.375758564001236"><ele>705.3333333333334</ele><time>2026-05-01T09:38:25.998Z</time></trkpt><trkpt lat="42.06696980974698" lon="13.375962373990586"><ele>705.6666666666667</ele><time>2026-05-01T09:38:26.998Z</time></trkpt><trkpt lat="42.06692219492189" lon="13.376167701118542"><ele>706.0</ele><time>2026-05-01T09:38:27.998Z</time></trkpt><trkpt lat="42.06687456932789" lon="13.376374473137691"><ele>706.3333333333334</ele><time>2026-05-01T09:38:28.998Z</time></trkpt><trkpt lat="42.06682529857394" lon="13.37658151174056"><ele>706.6666666666666</ele><time>2026-05-01T09:38:29.998Z</time></trkpt><trkpt lat="42.06677558333631" lon="13.376786967266339"><ele>707.0</ele><time>2026-05-01T09:38:30.998Z</time></trkpt><trkpt lat="42.06672757400819" lon="13.376992720666532"><ele>707.0</ele><time>2026-05-01T09:38:31.998Z</time></trkpt><trkpt lat="42.066682217280054" lon="13.377193428988566"><ele>707.0</ele><time>2026-05-01T09:38:32.998Z</time></trkpt><trkpt lat="42.06663568056651" lon="13.377390937640197"><ele>707.0</ele><time>2026-05-01T09:38:33.998Z</time></trkpt><trkpt lat="42.066594982406656" lon="13.377582041414348"><ele>707.0</ele><time>2026-05-01T09:38:34.998Z</time></trkpt><trkpt lat="42.06655412921656" lon="13.37776421354421"><ele>707.0</ele><time>2026-05-01T09:38:35.998Z</time></trkpt><trkpt lat="42.0665143561983" lon="13.377939127976255"><ele>707.0</ele><time>2026-05-01T09:38:36.998Z</time></trkpt><trkpt lat="42.06647313144512" lon="13.378114488486112"><ele>707.0</ele><time>2026-05-01T09:38:37.998Z</time></trkpt><trkpt lat="42.06643052866832" lon="13.378289741639078"><ele>707.25</ele><time>2026-05-01T09:38:38.998Z</time></trkpt><trkpt lat="42.066385903373934" lon="13.378466548093312"><ele>707.5</ele><time>2026-05-01T09:38:39.998Z</time></trkpt><trkpt lat="42.06634568951354" lon="13.378639751611331"><ele>707.75</ele><time>2026-05-01T09:38:40.998Z</time></trkpt><trkpt lat="42.06630729097144" lon="13.378814442099486"><ele>708.0</ele><time>2026-05-01T09:38:41.998Z</time></trkpt><trkpt lat="42.06626487641024" lon="13.378986082212645"><ele>708.0</ele><time>2026-05-01T09:38:42.998Z</time></trkpt><trkpt lat="42.06622211269856" lon="13.379157235684172"><ele>708.0</ele><time>2026-05-01T09:38:43.998Z</time></trkpt><trkpt lat="42.06618144854251" lon="13.37932307337858"><ele>708.0</ele><time>2026-05-01T09:38:44.998Z</time></trkpt><trkpt lat="42.06614074924347" lon="13.379488396119003"><ele>708.0</ele><time>2026-05-01T09:38:46Z</time></trkpt><trkpt lat="42.06610325052489" lon="13.37964857010264"><ele>708.5</ele><time>2026-05-01T09:38:47Z</time></trkpt><trkpt lat="42.06606493412807" lon="13.379803520977587"><ele>709.0</ele><time>2026-05-01T09:38:48Z</time></trkpt><trkpt lat="42.066030299193365" lon="13.379951514121267"><ele>709.5</ele><time>2026-05-01T09:38:49Z</time></trkpt><trkpt lat="42.06599555448101" lon="13.380096684729919"><ele>710.0</ele><time>2026-05-01T09:38:50Z</time></trkpt><trkpt lat="42.06596162472666" lon="13.38023628289238"><ele>710.0</ele><time>2026-05-01T09:38:51Z</time></trkpt><trkpt lat="42.065929315014245" lon="13.380371547673265"><ele>710.0</ele><time>2026-05-01T09:38:52Z</time></trkpt><trkpt lat="42.06589649250583" lon="13.380508723888719"><ele>710.0</ele><time>2026-05-01T09:38:53Z</time></trkpt><trkpt lat="42.06586149938225" lon="13.38064475702111"><ele>710.0</ele><time>2026-05-01T09:38:54Z</time></trkpt><trkpt lat="42.06582940022519" lon="13.380779673101204"><ele>710.0</ele><time>2026-05-01T09:38:55Z</time></trkpt><trkpt lat="42.06581026305708" lon="13.38091641394231"><ele>710.2</ele><time>2026-05-01T09:38:56Z</time></trkpt><trkpt lat="42.0658032223375" lon="13.381056180265166"><ele>710.4</ele><time>2026-05-01T09:38:57Z</time></trkpt><trkpt lat="42.06580407839348" lon="13.381197111951533"><ele>710.5999999999999</ele><time>2026-05-01T09:38:58Z</time></trkpt><trkpt lat="42.06580469111174" lon="13.38134142244092"><ele>710.8</ele><time>2026-05-01T09:38:59Z</time></trkpt><trkpt lat="42.065811352330165" lon="13.38148933456301"><ele>711.0</ele><time>2026-05-01T09:39:00Z</time></trkpt><trkpt lat="42.065826763772584" lon="13.381635617523719"><ele>711.0</ele><time>2026-05-01T09:39:01Z</time></trkpt><trkpt lat="42.06584134939619" lon="13.381782535178434"><ele>711.0</ele><time>2026-05-01T09:39:02Z</time></trkpt><trkpt lat="42.06585186576762" lon="13.381922364469537"><ele>711.0</ele><time>2026-05-01T09:39:03Z</time></trkpt><trkpt lat="42.06585742511655" lon="13.382047655599248"><ele>711.0</ele><time>2026-05-01T09:39:04Z</time></trkpt><trkpt lat="42.06585847543212" lon="13.382149921983888"><ele>711.0</ele><time>2026-05-01T09:39:05Z</time></trkpt><trkpt lat="42.06583661968856" lon="13.382290313328356"><ele>711.0</ele><time>2026-05-01T09:39:07Z</time></trkpt><trkpt lat="42.06580015366596" lon="13.382392796011766"><ele>711.0</ele><time>2026-05-01T09:39:10Z</time></trkpt><trkpt lat="42.06575099613097" lon="13.382473210176377"><ele>711.0</ele><time>2026-05-01T09:39:14Z</time></trkpt><trkpt lat="42.06569690634322" lon="13.382525639355073"><ele>711.0</ele><time>2026-05-01T09:39:17Z</time></trkpt><trkpt lat="42.065645314919735" lon="13.38258766646474"><ele>711.0</ele><time>2026-05-01T09:39:20Z</time></trkpt><trkpt lat="42.06558572408137" lon="13.382658457622025"><ele>711.0</ele><time>2026-05-01T09:39:22Z</time></trkpt><trkpt lat="42.06551469282297" lon="13.382759616031487"><ele>711.0</ele><time>2026-05-01T09:39:24Z</time></trkpt><trkpt lat="42.06545175398528" lon="13.382868094639823"><ele>711.0</ele><time>2026-05-01T09:39:25.999Z</time></trkpt><trkpt lat="42.06539187796534" lon="13.38295583843453"><ele>711.0</ele><time>2026-05-01T09:39:27.999Z</time></trkpt><trkpt lat="42.06532727060771" lon="13.383048446253147"><ele>711.0</ele><time>2026-05-01T09:39:29.999Z</time></trkpt><trkpt lat="42.06527934360464" lon="13.383104270993904"><ele>711.0</ele><time>2026-05-01T09:39:30.999Z</time></trkpt><trkpt lat="42.065221803285255" lon="13.38317041891868"><ele>711.0</ele><time>2026-05-01T09:39:31.999Z</time></trkpt><trkpt lat="42.06516132808637" lon="13.383252985260878"><ele>710.8</ele><time>2026-05-01T09:39:32.999Z</time></trkpt><trkpt lat="42.065096185525434" lon="13.383340889437669"><ele>710.5999999999999</ele><time>2026-05-01T09:39:33.999Z</time></trkpt><trkpt lat="42.06503006190679" lon="13.383427255658457"><ele>710.4</ele><time>2026-05-01T09:39:34.999Z</time></trkpt><trkpt lat="42.06495918476423" lon="13.38352524585305"><ele>710.2</ele><time>2026-05-01T09:39:35.999Z</time></trkpt><trkpt lat="42.064884967725085" lon="13.38362917834541"><ele>710.0</ele><time>2026-05-01T09:39:36.999Z</time></trkpt><trkpt lat="42.06480567054786" lon="13.383735489372066"><ele>709.5</ele><time>2026-05-01T09:39:37.999Z</time></trkpt><trkpt lat="42.06472204775777" lon="13.383848081946718"><ele>709.0</ele><time>2026-05-01T09:39:38.999Z</time></trkpt><trkpt lat="42.064636562572915" lon="13.383963268252915"><ele>708.5</ele><time>2026-05-01T09:39:39.999Z</time></trkpt><trkpt lat="42.064546450866075" lon="13.384073015454938"><ele>708.0</ele><time>2026-05-01T09:39:40.999Z</time></trkpt><trkpt lat="42.06446419506704" lon="13.384184874595226"><ele>708.0</ele><time>2026-05-01T09:39:41.999Z</time></trkpt><trkpt lat="42.06438297868264" lon="13.38429162035228"><ele>708.0</ele><time>2026-05-01T09:39:42.999Z</time></trkpt><trkpt lat="42.06430258978581" lon="13.384394434359487"><ele>708.0</ele><time>2026-05-01T09:39:43.999Z</time></trkpt><trkpt lat="42.06422799834529" lon="13.384492840699782"><ele>708.0</ele><time>2026-05-01T09:39:44.999Z</time></trkpt><trkpt lat="42.06416691761635" lon="13.384586298598268"><ele>708.0</ele><time>2026-05-01T09:39:45.999Z</time></trkpt><trkpt lat="42.06410173773551" lon="13.38464871359359"><ele>707.8333333333334</ele><time>2026-05-01T09:39:46.999Z</time></trkpt><trkpt lat="42.06402530264042" lon="13.384748591113867"><ele>707.6666666666666</ele><time>2026-05-01T09:39:48.999Z</time></trkpt><trkpt lat="42.06407500738637" lon="13.384927518246519"><ele>707.5</ele><time>2026-05-01T09:39:50.999Z</time></trkpt><trkpt lat="42.06406774403905" lon="13.385018977797495"><ele>707.3333333333333</ele><time>2026-05-01T09:39:53.999Z</time></trkpt><trkpt lat="42.06403357908472" lon="13.385093372408711"><ele>707.1666666666666</ele><time>2026-05-01T09:39:56.999Z</time></trkpt><trkpt lat="42.06399805145749" lon="13.385163796959935"><ele>707.0</ele><time>2026-05-01T09:45:10Z</time></trkpt><trkpt lat="42.06389198774499" lon="13.385210046803463"><ele>707.0</ele><time>2026-05-01T09:46:47.998Z</time></trkpt><trkpt lat="42.06382640555264" lon="13.385191343316372"><ele>707.0</ele><time>2026-05-01T09:46:52.998Z</time></trkpt><trkpt lat="42.06376210231103" lon="13.385177065559045"><ele>707.0</ele><time>2026-05-01T09:46:56.998Z</time></trkpt><trkpt lat="42.063677312837854" lon="13.385252675024992"><ele>707.0</ele><time>2026-05-01T09:46:58.998Z</time></trkpt><trkpt lat="42.06357385476117" lon="13.385378293790458"><ele>707.0</ele><time>2026-05-01T09:47:00.998Z</time></trkpt><trkpt lat="42.06351550313953" lon="13.385444350894145"><ele>707.0</ele><time>2026-05-01T09:47:01.998Z</time></trkpt><trkpt lat="42.063458638243404" lon="13.38551086539769"><ele>707.0</ele><time>2026-05-01T09:47:02.998Z</time></trkpt><trkpt lat="42.06339865422259" lon="13.38558329237378"><ele>707.0</ele><time>2026-05-01T09:47:03.998Z</time></trkpt><trkpt lat="42.063335796194046" lon="13.385664988325832"><ele>707.0</ele><time>2026-05-01T09:47:04.998Z</time></trkpt><trkpt lat="42.0632734784512" lon="13.385746435679616"><ele>707.0</ele><time>2026-05-01T09:47:05.998Z</time></trkpt><trkpt lat="42.06320187027126" lon="13.38583168214662"><ele>707.0</ele><time>2026-05-01T09:47:06.998Z</time></trkpt><trkpt lat="42.06312203469377" lon="13.385939360297813"><ele>707.0</ele><time>2026-05-01T09:47:07.998Z</time></trkpt><trkpt lat="42.06305389449067" lon="13.386033553067783"><ele>707.0</ele><time>2026-05-01T09:47:09Z</time></trkpt><trkpt lat="42.06297153258066" lon="13.386139275941595"><ele>707.0</ele><time>2026-05-01T09:47:10Z</time></trkpt><trkpt lat="42.062888635504635" lon="13.386241478936853"><ele>707.0</ele><time>2026-05-01T09:47:11Z</time></trkpt><trkpt lat="42.06280898988485" lon="13.386341466274063"><ele>707.0</ele><time>2026-05-01T09:47:12Z</time></trkpt><trkpt lat="42.06272474609958" lon="13.386454938038986"><ele>707.0</ele><time>2026-05-01T09:47:13Z</time></trkpt><trkpt lat="42.062638627071756" lon="13.386571120686993"><ele>707.0</ele><time>2026-05-01T09:47:14Z</time></trkpt><trkpt lat="42.06255169869075" lon="13.386682229401465"><ele>707.0</ele><time>2026-05-01T09:47:15Z</time></trkpt><trkpt lat="42.06245484110766" lon="13.386803519612615"><ele>707.0</ele><time>2026-05-01T09:47:16Z</time></trkpt><trkpt lat="42.062358469208995" lon="13.386925732138232"><ele>707.5</ele><time>2026-05-01T09:47:17Z</time></trkpt><trkpt lat="42.062263694934806" lon="13.387051335080217"><ele>708.0</ele><time>2026-05-01T09:47:18Z</time></trkpt><trkpt lat="42.06216912163754" lon="13.387176708434259"><ele>708.5</ele><time>2026-05-01T09:47:19Z</time></trkpt><trkpt lat="42.062071292003736" lon="13.387304634107029"><ele>709.0</ele><time>2026-05-01T09:47:20Z</time></trkpt><trkpt lat="42.06196864479894" lon="13.387433331122756"><ele>709.0</ele><time>2026-05-01T09:47:21Z</time></trkpt><trkpt lat="42.061869107022076" lon="13.387560792313675"><ele>709.0</ele><time>2026-05-01T09:47:22Z</time></trkpt><trkpt lat="42.06176954409203" lon="13.387689219009"><ele>709.0</ele><time>2026-05-01T09:47:23Z</time></trkpt><trkpt lat="42.06167621550264" lon="13.38781865302736"><ele>709.0</ele><time>2026-05-01T09:47:24Z</time></trkpt><trkpt lat="42.061579918583185" lon="13.387946847214158"><ele>708.75</ele><time>2026-05-01T09:47:25Z</time></trkpt><trkpt lat="42.06148025498736" lon="13.388079446304218"><ele>708.5</ele><time>2026-05-01T09:47:26Z</time></trkpt><trkpt lat="42.06137902416047" lon="13.388214803214202"><ele>708.25</ele><time>2026-05-01T09:47:27Z</time></trkpt><trkpt lat="42.06127472599862" lon="13.388344590711446"><ele>708.0</ele><time>2026-05-01T09:47:28Z</time></trkpt><trkpt lat="42.06117517691456" lon="13.38847168115907"><ele>708.0</ele><time>2026-05-01T09:47:29Z</time></trkpt><trkpt lat="42.06107266507626" lon="13.38860363323915"><ele>708.0</ele><time>2026-05-01T09:47:30Z</time></trkpt><trkpt lat="42.06096915631865" lon="13.38873605712539"><ele>708.0</ele><time>2026-05-01T09:47:31Z</time></trkpt><trkpt lat="42.06086469440637" lon="13.388872869560256"><ele>708.0</ele><time>2026-05-01T09:47:32Z</time></trkpt><trkpt lat="42.0607621012401" lon="13.389008154337072"><ele>708.0</ele><time>2026-05-01T09:47:33Z</time></trkpt><trkpt lat="42.060653815961594" lon="13.389145979272321"><ele>708.0</ele><time>2026-05-01T09:47:34Z</time></trkpt><trkpt lat="42.06054585391091" lon="13.389287965043161"><ele>708.0</ele><time>2026-05-01T09:47:35Z</time></trkpt><trkpt lat="42.06044069904682" lon="13.389429707240149"><ele>708.0</ele><time>2026-05-01T09:47:36Z</time></trkpt><trkpt lat="42.06033673455312" lon="13.389569653429962"><ele>708.5</ele><time>2026-05-01T09:47:37Z</time></trkpt><trkpt lat="42.060230576840354" lon="13.38971033240703"><ele>709.0</ele><time>2026-05-01T09:47:38Z</time></trkpt><trkpt lat="42.06012295297828" lon="13.389850803853502"><ele>709.5</ele><time>2026-05-01T09:47:39Z</time></trkpt><trkpt lat="42.060014916370015" lon="13.389992048005809"><ele>710.0</ele><time>2026-05-01T09:47:40Z</time></trkpt><trkpt lat="42.05991062670231" lon="13.390127917636272"><ele>710.25</ele><time>2026-05-01T09:47:41Z</time></trkpt><trkpt lat="42.05981894535457" lon="13.39024289180815"><ele>710.5</ele><time>2026-05-01T09:47:42Z</time></trkpt><trkpt lat="42.05972218377034" lon="13.39036524596916"><ele>710.75</ele><time>2026-05-01T09:47:43Z</time></trkpt><trkpt lat="42.05962860652592" lon="13.390482832628157"><ele>711.0</ele><time>2026-05-01T09:47:44Z</time></trkpt><trkpt lat="42.059540308506016" lon="13.390602867098597"><ele>711.5</ele><time>2026-05-01T09:47:45Z</time></trkpt><trkpt lat="42.05944832298964" lon="13.390724465499659"><ele>712.0</ele><time>2026-05-01T09:47:46Z</time></trkpt><trkpt lat="42.059356419752596" lon="13.39084261105199"><ele>712.5</ele><time>2026-05-01T09:47:47Z</time></trkpt><trkpt lat="42.05926425926754" lon="13.390961950628357"><ele>713.0</ele><time>2026-05-01T09:47:48Z</time></trkpt><trkpt lat="42.05917293392978" lon="13.391082158122488"><ele>712.8</ele><time>2026-05-01T09:47:49Z</time></trkpt><trkpt lat="42.059087984966304" lon="13.391194759250798"><ele>712.5999999999999</ele><time>2026-05-01T09:47:50Z</time></trkpt><trkpt lat="42.059009094273314" lon="13.391295116955963"><ele>712.4000000000001</ele><time>2026-05-01T09:47:51Z</time></trkpt><trkpt lat="42.058934353357294" lon="13.391390765020272"><ele>712.2</ele><time>2026-05-01T09:47:52Z</time></trkpt><trkpt lat="42.05886422043687" lon="13.391479440577218"><ele>712.0</ele><time>2026-05-01T09:47:53Z</time></trkpt><trkpt lat="42.05880124967694" lon="13.39156361306192"><ele>712.0</ele><time>2026-05-01T09:47:54Z</time></trkpt><trkpt lat="42.05873807712641" lon="13.391646359113142"><ele>712.0</ele><time>2026-05-01T09:47:55Z</time></trkpt><trkpt lat="42.05867245690131" lon="13.391734532592684"><ele>712.0</ele><time>2026-05-01T09:47:56Z</time></trkpt><trkpt lat="42.05860543296926" lon="13.391822249922567"><ele>712.0</ele><time>2026-05-01T09:47:56.999Z</time></trkpt><trkpt lat="42.05853990646511" lon="13.39191033229464"><ele>712.0</ele><time>2026-05-01T09:47:57.999Z</time></trkpt><trkpt lat="42.058471316921676" lon="13.391999281377618"><ele>712.0</ele><time>2026-05-01T09:47:58.999Z</time></trkpt><trkpt lat="42.05840134298343" lon="13.392090749248329"><ele>712.0</ele><time>2026-05-01T09:47:59.999Z</time></trkpt><trkpt lat="42.058332523856365" lon="13.392182315160442"><ele>712.0</ele><time>2026-05-01T09:48:00.999Z</time></trkpt><trkpt lat="42.05826137761531" lon="13.392278042449547"><ele>712.0</ele><time>2026-05-01T09:48:01.999Z</time></trkpt><trkpt lat="42.05818712575954" lon="13.39237713664893"><ele>712.0</ele><time>2026-05-01T09:48:02.999Z</time></trkpt><trkpt lat="42.058111551524654" lon="13.392478412635212"><ele>712.0</ele><time>2026-05-01T09:48:03.999Z</time></trkpt><trkpt lat="42.05803193825477" lon="13.392578893331168"><ele>712.0</ele><time>2026-05-01T09:48:04.999Z</time></trkpt><trkpt lat="42.057950038787446" lon="13.392680353917711"><ele>712.0</ele><time>2026-05-01T09:48:05.999Z</time></trkpt><trkpt lat="42.05786734229879" lon="13.392786994829493"><ele>712.0</ele><time>2026-05-01T09:48:06.999Z</time></trkpt><trkpt lat="42.05778490631274" lon="13.392895994040186"><ele>712.0</ele><time>2026-05-01T09:48:07.999Z</time></trkpt><trkpt lat="42.057695873915385" lon="13.393020268501242"><ele>712.0</ele><time>2026-05-01T09:48:08.999Z</time></trkpt><trkpt lat="42.05760584252722" lon="13.393153696620816"><ele>712.0</ele><time>2026-05-01T09:48:09.999Z</time></trkpt><trkpt lat="42.057513600535785" lon="13.393285776752915"><ele>712.0</ele><time>2026-05-01T09:48:10.999Z</time></trkpt><trkpt lat="42.05741802583035" lon="13.393418280754652"><ele>712.0</ele><time>2026-05-01T09:48:11.999Z</time></trkpt><trkpt lat="42.0573189763653" lon="13.393552895699832"><ele>712.0</ele><time>2026-05-01T09:48:12.999Z</time></trkpt><trkpt lat="42.05721715993697" lon="13.393687526195768"><ele>712.0</ele><time>2026-05-01T09:48:13.999Z</time></trkpt><trkpt lat="42.057113675816574" lon="13.39382262535332"><ele>712.0</ele><time>2026-05-01T09:48:14.999Z</time></trkpt><trkpt lat="42.05700715709923" lon="13.39396241181851"><ele>713.3333333333334</ele><time>2026-05-01T09:48:15.999Z</time></trkpt><trkpt lat="42.056903327864944" lon="13.394105062023687"><ele>714.6666666666666</ele><time>2026-05-01T09:48:16.999Z</time></trkpt><trkpt lat="42.05679721831143" lon="13.394252094349955"><ele>716.0</ele><time>2026-05-01T09:48:17.999Z</time></trkpt><trkpt lat="42.05668774721066" lon="13.394409680578626"><ele>717.3333333333333</ele><time>2026-05-01T09:48:18.999Z</time></trkpt><trkpt lat="42.05656813075042" lon="13.394575298141614"><ele>718.6666666666666</ele><time>2026-05-01T09:48:19.999Z</time></trkpt><trkpt lat="42.0564376067595" lon="13.39473896313796"><ele>720.0</ele><time>2026-05-01T09:48:20.999Z</time></trkpt><trkpt lat="42.0563027815088" lon="13.394903719154177"><ele>720.0</ele><time>2026-05-01T09:48:21.999Z</time></trkpt><trkpt lat="42.05616585936522" lon="13.395072551683324"><ele>720.0</ele><time>2026-05-01T09:48:22.999Z</time></trkpt><trkpt lat="42.056028872877874" lon="13.395247546386393"><ele>720.0</ele><time>2026-05-01T09:48:23.999Z</time></trkpt><trkpt lat="42.05589235508515" lon="13.395422579487686"><ele>721.3333333333334</ele><time>2026-05-01T09:48:24.999Z</time></trkpt><trkpt lat="42.05575786835556" lon="13.395594070856916"><ele>722.6666666666667</ele><time>2026-05-01T09:48:25.999Z</time></trkpt><trkpt lat="42.05562206308163" lon="13.395768689426298"><ele>724.0</ele><time>2026-05-01T09:48:26.999Z</time></trkpt><trkpt lat="42.055484966840616" lon="13.395949865834542"><ele>724.0</ele><time>2026-05-01T09:48:27.999Z</time></trkpt><trkpt lat="42.05534496162356" lon="13.396133797598266"><ele>724.0</ele><time>2026-05-01T09:48:28.999Z</time></trkpt><trkpt lat="42.05520131851147" lon="13.396319487340556"><ele>724.0</ele><time>2026-05-01T09:48:29.999Z</time></trkpt><trkpt lat="42.055058593674154" lon="13.396505642222825"><ele>726.0</ele><time>2026-05-01T09:48:30.999Z</time></trkpt><trkpt lat="42.05491362326023" lon="13.396691605178363"><ele>728.0</ele><time>2026-05-01T09:48:31.999Z</time></trkpt><trkpt lat="42.05476673643905" lon="13.396879890718173"><ele>730.0</ele><time>2026-05-01T09:48:32.999Z</time></trkpt><trkpt lat="42.05461784160426" lon="13.397072944518529"><ele>726.3333333333334</ele><time>2026-05-01T09:48:33.999Z</time></trkpt><trkpt lat="42.05446889783481" lon="13.397264690322482"><ele>722.6666666666666</ele><time>2026-05-01T09:48:34.999Z</time></trkpt><trkpt lat="42.05431714482016" lon="13.397455241135312"><ele>719.0</ele><time>2026-05-01T09:48:35.999Z</time></trkpt><trkpt lat="42.05416273211582" lon="13.397644134567953"><ele>719.6666666666666</ele><time>2026-05-01T09:48:36.999Z</time></trkpt><trkpt lat="42.05400890301961" lon="13.39782585554439"><ele>720.3333333333334</ele><time>2026-05-01T09:48:37.999Z</time></trkpt><trkpt lat="42.0538449624201" lon="13.39800572458921"><ele>721.0</ele><time>2026-05-01T09:48:38.999Z</time></trkpt><trkpt lat="42.053685539028315" lon="13.398174703484722"><ele>721.0</ele><time>2026-05-01T09:48:39.999Z</time></trkpt><trkpt lat="42.05352777479636" lon="13.398340109042431"><ele>721.0</ele><time>2026-05-01T09:48:40.999Z</time></trkpt><trkpt lat="42.05337450536838" lon="13.398504148871824"><ele>721.0</ele><time>2026-05-01T09:48:41.999Z</time></trkpt><trkpt lat="42.05322531778183" lon="13.398662687660048"><ele>721.0</ele><time>2026-05-01T09:48:42.999Z</time></trkpt><trkpt lat="42.05307958560898" lon="13.39881648969793"><ele>721.0</ele><time>2026-05-01T09:48:43.999Z</time></trkpt><trkpt lat="42.05293687061492" lon="13.398964385069998"><ele>721.0</ele><time>2026-05-01T09:48:44.999Z</time></trkpt><trkpt lat="42.05280416065009" lon="13.399104562538795"><ele>719.6666666666667</ele><time>2026-05-01T09:48:45.999Z</time></trkpt><trkpt lat="42.05267142904946" lon="13.39924858934336"><ele>718.3333333333334</ele><time>2026-05-01T09:48:46.999Z</time></trkpt><trkpt lat="42.05254248634814" lon="13.399384997093225"><ele>717.0</ele><time>2026-05-01T09:48:47.999Z</time></trkpt><trkpt lat="42.052415348968395" lon="13.399521363741584"><ele>716.75</ele><time>2026-05-01T09:48:48.999Z</time></trkpt><trkpt lat="42.052294378528146" lon="13.399650621870643"><ele>716.5</ele><time>2026-05-01T09:48:49.999Z</time></trkpt><trkpt lat="42.052174681168076" lon="13.399775162376207"><ele>716.25</ele><time>2026-05-01T09:48:50.999Z</time></trkpt><trkpt lat="42.052060376358384" lon="13.399889183922335"><ele>716.0</ele><time>2026-05-01T09:48:51.999Z</time></trkpt><trkpt lat="42.051960762127194" lon="13.399989619823305"><ele>716.3333333333333</ele><time>2026-05-01T09:48:52.999Z</time></trkpt><trkpt lat="42.051871564656985" lon="13.400086439063749"><ele>716.6666666666666</ele><time>2026-05-01T09:48:53.998Z</time></trkpt><trkpt lat="42.05179625312858" lon="13.400168559406985"><ele>717.0</ele><time>2026-05-01T09:48:54.998Z</time></trkpt><trkpt lat="42.05173089789701" lon="13.400230372755365"><ele>717.3333333333334</ele><time>2026-05-01T09:48:55.998Z</time></trkpt><trkpt lat="42.05168047083971" lon="13.400285568971123"><ele>717.6666666666667</ele><time>2026-05-01T09:48:56.998Z</time></trkpt><trkpt lat="42.05161080051438" lon="13.400361030696896"><ele>718.0</ele><time>2026-05-01T09:48:58.998Z</time></trkpt><trkpt lat="42.05153340821075" lon="13.400434026128995"><ele>717.6666666666667</ele><time>2026-05-01T09:49:00.998Z</time></trkpt><trkpt lat="42.051452140202564" lon="13.400526688839546"><ele>717.3333333333334</ele><time>2026-05-01T09:49:02.998Z</time></trkpt><trkpt lat="42.051356930304536" lon="13.400633700640249"><ele>717.0</ele><time>2026-05-01T09:49:04.998Z</time></trkpt><trkpt lat="42.051307206221765" lon="13.400688126991184"><ele>716.6666666666666</ele><time>2026-05-01T09:49:05.998Z</time></trkpt><trkpt lat="42.051250987331414" lon="13.400742596249913"><ele>716.3333333333333</ele><time>2026-05-01T09:49:06.998Z</time></trkpt><trkpt lat="42.051190534030674" lon="13.400802351362449"><ele>716.0</ele><time>2026-05-01T09:49:07.998Z</time></trkpt><trkpt lat="42.05113096988068" lon="13.400868708089902"><ele>716.0</ele><time>2026-05-01T09:49:08.998Z</time></trkpt><trkpt lat="42.05106670550869" lon="13.400942204539549"><ele>716.0</ele><time>2026-05-01T09:49:09.998Z</time></trkpt><trkpt lat="42.0510020104148" lon="13.40101357268958"><ele>716.0</ele><time>2026-05-01T09:49:10.998Z</time></trkpt><trkpt lat="42.050933905571746" lon="13.401089654685947"><ele>716.0</ele><time>2026-05-01T09:49:11.998Z</time></trkpt><trkpt lat="42.0508669199052" lon="13.401159887203258"><ele>716.0</ele><time>2026-05-01T09:49:12.998Z</time></trkpt><trkpt lat="42.050802934392685" lon="13.401223817724162"><ele>716.0</ele><time>2026-05-01T09:49:13.998Z</time></trkpt><trkpt lat="42.050727961541206" lon="13.40129926183776"><ele>716.4</ele><time>2026-05-01T09:49:15Z</time></trkpt><trkpt lat="42.05065823563401" lon="13.40137546948948"><ele>716.8</ele><time>2026-05-01T09:49:16Z</time></trkpt><trkpt lat="42.05057296611574" lon="13.401465706483055"><ele>717.1999999999999</ele><time>2026-05-01T09:49:17Z</time></trkpt><trkpt lat="42.0504974028264" lon="13.401540819236915"><ele>717.5999999999999</ele><time>2026-05-01T09:49:18Z</time></trkpt><trkpt lat="42.05042652205166" lon="13.40161448464861"><ele>718.0</ele><time>2026-05-01T09:49:19Z</time></trkpt><trkpt lat="42.050357451751786" lon="13.401695248568759"><ele>718.0</ele><time>2026-05-01T09:49:20Z</time></trkpt><trkpt lat="42.0502842551456" lon="13.401776518799965"><ele>718.0</ele><time>2026-05-01T09:49:21Z</time></trkpt><trkpt lat="42.050209654882224" lon="13.40185503726668"><ele>718.0</ele><time>2026-05-01T09:49:22Z</time></trkpt><trkpt lat="42.05013216673629" lon="13.401930877638065"><ele>718.0</ele><time>2026-05-01T09:49:23Z</time></trkpt><trkpt lat="42.05005710466341" lon="13.402005604418337"><ele>718.0</ele><time>2026-05-01T09:49:24Z</time></trkpt><trkpt lat="42.04998659597684" lon="13.402075929668195"><ele>718.0</ele><time>2026-05-01T09:49:25Z</time></trkpt><trkpt lat="42.04991661135993" lon="13.402149043042625"><ele>718.0</ele><time>2026-05-01T09:49:26Z</time></trkpt><trkpt lat="42.04984646406872" lon="13.402228621030876"><ele>718.0</ele><time>2026-05-01T09:49:27Z</time></trkpt><trkpt lat="42.0497729955914" lon="13.402309314820254"><ele>718.0</ele><time>2026-05-01T09:49:28Z</time></trkpt><trkpt lat="42.049694523633356" lon="13.402387045314674"><ele>718.0</ele><time>2026-05-01T09:49:29Z</time></trkpt><trkpt lat="42.04961587929284" lon="13.402468596060755"><ele>718.0</ele><time>2026-05-01T09:49:30Z</time></trkpt><trkpt lat="42.0495363730103" lon="13.40255710004597"><ele>718.0</ele><time>2026-05-01T09:49:31Z</time></trkpt><trkpt lat="42.04945718596735" lon="13.402643866349468"><ele>718.0</ele><time>2026-05-01T09:49:32Z</time></trkpt><trkpt lat="42.049373458901876" lon="13.402732385215566"><ele>718.0</ele><time>2026-05-01T09:49:33Z</time></trkpt><trkpt lat="42.04928864998556" lon="13.402819878077636"><ele>718.0</ele><time>2026-05-01T09:49:34Z</time></trkpt><trkpt lat="42.04920349238803" lon="13.402908305754867"><ele>718.0</ele><time>2026-05-01T09:49:35Z</time></trkpt><trkpt lat="42.04911636558163" lon="13.4029992648422"><ele>718.0</ele><time>2026-05-01T09:49:36Z</time></trkpt><trkpt lat="42.04902862207277" lon="13.403093352790789"><ele>718.0</ele><time>2026-05-01T09:49:37Z</time></trkpt><trkpt lat="42.04893841971959" lon="13.403189869916877"><ele>718.0</ele><time>2026-05-01T09:49:38Z</time></trkpt><trkpt lat="42.048849999592335" lon="13.403283279893165"><ele>718.0</ele><time>2026-05-01T09:49:39Z</time></trkpt><trkpt lat="42.0487623334855" lon="13.403377340076041"><ele>718.0</ele><time>2026-05-01T09:49:40Z</time></trkpt><trkpt lat="42.0486758928351" lon="13.403471338839378"><ele>718.0</ele><time>2026-05-01T09:49:41Z</time></trkpt><trkpt lat="42.0485920121716" lon="13.40356014145586"><ele>718.0</ele><time>2026-05-01T09:49:42Z</time></trkpt><trkpt lat="42.048511054790886" lon="13.403645493969169"><ele>718.0</ele><time>2026-05-01T09:49:43Z</time></trkpt><trkpt lat="42.0484331663751" lon="13.403726619299043"><ele>718.0</ele><time>2026-05-01T09:49:44Z</time></trkpt><trkpt lat="42.04835777707278" lon="13.403805208324318"><ele>718.0</ele><time>2026-05-01T09:49:45Z</time></trkpt><trkpt lat="42.04828072162731" lon="13.403884523324624"><ele>718.0</ele><time>2026-05-01T09:49:46Z</time></trkpt><trkpt lat="42.04820476098367" lon="13.403968360141658"><ele>718.0</ele><time>2026-05-01T09:49:47Z</time></trkpt><trkpt lat="42.04812995570606" lon="13.404054741430137"><ele>718.0</ele><time>2026-05-01T09:49:48Z</time></trkpt><trkpt lat="42.04805223851388" lon="13.404142493506159"><ele>716.8</ele><time>2026-05-01T09:49:49Z</time></trkpt><trkpt lat="42.04796989035949" lon="13.404224648265496"><ele>715.5999999999999</ele><time>2026-05-01T09:49:50Z</time></trkpt><trkpt lat="42.04789206515064" lon="13.404306679508124"><ele>714.4000000000001</ele><time>2026-05-01T09:49:51Z</time></trkpt><trkpt lat="42.04781747226233" lon="13.40438158100741"><ele>713.2</ele><time>2026-05-01T09:49:52Z</time></trkpt><trkpt lat="42.04773982622877" lon="13.404458879983265"><ele>712.0</ele><time>2026-05-01T09:49:53Z</time></trkpt><trkpt lat="42.04766362889417" lon="13.404538153541353"><ele>712.0</ele><time>2026-05-01T09:49:54Z</time></trkpt><trkpt lat="42.047588322478894" lon="13.404619408525347"><ele>712.0</ele><time>2026-05-01T09:49:55Z</time></trkpt><trkpt lat="42.04751330913235" lon="13.404697628830775"><ele>712.0</ele><time>2026-05-01T09:49:56Z</time></trkpt><trkpt lat="42.04744134198761" lon="13.40477367678589"><ele>712.0</ele><time>2026-05-01T09:49:57Z</time></trkpt><trkpt lat="42.04737014374464" lon="13.404848907569589"><ele>712.0</ele><time>2026-05-01T09:49:58Z</time></trkpt><trkpt lat="42.04729457516281" lon="13.404924133907027"><ele>712.5</ele><time>2026-05-01T09:49:59Z</time></trkpt><trkpt lat="42.047223102302496" lon="13.404995658413238"><ele>713.0</ele><time>2026-05-01T09:50:00Z</time></trkpt><trkpt lat="42.04716018001074" lon="13.405062044635539"><ele>713.5</ele><time>2026-05-01T09:50:00.999Z</time></trkpt><trkpt lat="42.047099128683556" lon="13.405125313368659"><ele>714.0</ele><time>2026-05-01T09:50:01.999Z</time></trkpt><trkpt lat="42.04703662038208" lon="13.405185998654993"><ele>714.5</ele><time>2026-05-01T09:50:02.999Z</time></trkpt><trkpt lat="42.046973384315066" lon="13.405245285019152"><ele>715.0</ele><time>2026-05-01T09:50:03.999Z</time></trkpt><trkpt lat="42.04691835246558" lon="13.405302502913393"><ele>715.0</ele><time>2026-05-01T09:50:04.999Z</time></trkpt><trkpt lat="42.04683199392827" lon="13.40539324605566"><ele>715.0</ele><time>2026-05-01T09:50:06.999Z</time></trkpt><trkpt lat="42.0467491965391" lon="13.405461435473663"><ele>715.0</ele><time>2026-05-01T09:50:08.999Z</time></trkpt><trkpt lat="42.04662388717008" lon="13.405496075693227"><ele>715.0</ele><time>2026-05-01T09:50:10.999Z</time></trkpt><trkpt lat="42.04655053024447" lon="13.405508313997549"><ele>715.0</ele><time>2026-05-01T09:50:11.999Z</time></trkpt><trkpt lat="42.04648632447219" lon="13.40555784946224"><ele>714.8333333333334</ele><time>2026-05-01T09:50:12.999Z</time></trkpt><trkpt lat="42.04642009641381" lon="13.405639832205017"><ele>714.6666666666667</ele><time>2026-05-01T09:50:13.999Z</time></trkpt><trkpt lat="42.04638211125929" lon="13.405739893225988"><ele>714.5</ele><time>2026-05-01T09:50:14.999Z</time></trkpt><trkpt lat="42.0463282411511" lon="13.405845307179055"><ele>714.3333333333334</ele><time>2026-05-01T09:50:15.999Z</time></trkpt><trkpt lat="42.04628145445359" lon="13.405927750389715"><ele>714.1666666666666</ele><time>2026-05-01T09:50:16.999Z</time></trkpt><trkpt lat="42.04625915532036" lon="13.406029489454998"><ele>714.0</ele><time>2026-05-01T09:50:17.999Z</time></trkpt><trkpt lat="42.04618676841757" lon="13.4060805763755"><ele>714.0</ele><time>2026-05-01T09:50:18.999Z</time></trkpt><trkpt lat="42.04612688253018" lon="13.406150227466965"><ele>714.0</ele><time>2026-05-01T09:50:19.999Z</time></trkpt><trkpt lat="42.04606200050143" lon="13.406225092040467"><ele>714.0</ele><time>2026-05-01T09:50:20.999Z</time></trkpt><trkpt lat="42.04599679545959" lon="13.406295246740019"><ele>714.0</ele><time>2026-05-01T09:50:21.999Z</time></trkpt><trkpt lat="42.04593321526494" lon="13.406362730911704"><ele>714.0</ele><time>2026-05-01T09:50:22.999Z</time></trkpt><trkpt lat="42.045874856882655" lon="13.406424644564256"><ele>714.0</ele><time>2026-05-01T09:50:23.999Z</time></trkpt><trkpt lat="42.045826300489864" lon="13.406484377377787"><ele>713.6666666666666</ele><time>2026-05-01T09:50:24.999Z</time></trkpt><trkpt lat="42.04573008309197" lon="13.406582864746829"><ele>713.3333333333334</ele><time>2026-05-01T09:50:26.999Z</time></trkpt><trkpt lat="42.045632436367946" lon="13.406680015191059"><ele>713.0</ele><time>2026-05-01T09:50:28.999Z</time></trkpt><trkpt lat="42.04558077962785" lon="13.406733926736282"><ele>712.6666666666667</ele><time>2026-05-01T09:50:29.999Z</time></trkpt><trkpt lat="42.04552836305363" lon="13.406787320736665"><ele>712.3333333333334</ele><time>2026-05-01T09:50:30.999Z</time></trkpt><trkpt lat="42.045473746068396" lon="13.406846886338053"><ele>712.0</ele><time>2026-05-01T09:50:31.999Z</time></trkpt><trkpt lat="42.04541668937597" lon="13.406910636684536"><ele>712.0</ele><time>2026-05-01T09:50:32.999Z</time></trkpt><trkpt lat="42.045362858474405" lon="13.406966843430682"><ele>712.0</ele><time>2026-05-01T09:50:33.999Z</time></trkpt><trkpt lat="42.04526519306343" lon="13.40706679065996"><ele>712.0</ele><time>2026-05-01T09:50:35.999Z</time></trkpt><trkpt lat="42.04518313853845" lon="13.407153555435215"><ele>712.0</ele><time>2026-05-01T09:50:37.999Z</time></trkpt><trkpt lat="42.045097275164274" lon="13.40722842007398"><ele>712.0</ele><time>2026-05-01T09:50:39.999Z</time></trkpt><trkpt lat="42.045001842881646" lon="13.407268840689992"><ele>711.6</ele><time>2026-05-01T09:50:41.999Z</time></trkpt><trkpt lat="42.0448908795821" lon="13.407266031790433"><ele>711.2</ele><time>2026-05-01T09:50:43.999Z</time></trkpt><trkpt lat="42.04478753351862" lon="13.407301837158169"><ele>710.8</ele><time>2026-05-01T09:50:45.999Z</time></trkpt><trkpt lat="42.04470809531125" lon="13.40739208617651"><ele>710.4</ele><time>2026-05-01T09:50:47.999Z</time></trkpt><trkpt lat="42.04471608652737" lon="13.407556185365292"><ele>710.0</ele><time>2026-05-01T09:50:49.999Z</time></trkpt><trkpt lat="42.04462659232753" lon="13.407648665429203"><ele>710.0</ele><time>2026-05-01T09:50:50.999Z</time></trkpt><trkpt lat="42.04456739029386" lon="13.407712738303864"><ele>710.0</ele><time>2026-05-01T09:50:51.999Z</time></trkpt><trkpt lat="42.04450380380421" lon="13.407782711126387"><ele>710.0</ele><time>2026-05-01T09:50:52.999Z</time></trkpt><trkpt lat="42.04445209333531" lon="13.407864864169262"><ele>710.0</ele><time>2026-05-01T09:50:53.999Z</time></trkpt><trkpt lat="42.044388389580476" lon="13.407941261109473"><ele>710.0</ele><time>2026-05-01T09:50:54.999Z</time></trkpt><trkpt lat="42.04431990229429" lon="13.408027405750337"><ele>710.0</ele><time>2026-05-01T09:50:55.998Z</time></trkpt><trkpt lat="42.04425742050586" lon="13.408107355281453"><ele>710.1666666666666</ele><time>2026-05-01T09:50:56.998Z</time></trkpt><trkpt lat="42.04419404577897" lon="13.408187347800345"><ele>710.3333333333333</ele><time>2026-05-01T09:50:57.998Z</time></trkpt><trkpt lat="42.044128372393864" lon="13.408270657743705"><ele>710.5</ele><time>2026-05-01T09:50:58.998Z</time></trkpt><trkpt lat="42.04405914140865" lon="13.408344867912897"><ele>710.6666666666666</ele><time>2026-05-01T09:50:59.998Z</time></trkpt><trkpt lat="42.04399251336917" lon="13.408424634708267"><ele>710.8333333333334</ele><time>2026-05-01T09:51:00.998Z</time></trkpt><trkpt lat="42.04392870790919" lon="13.408498280380224"><ele>711.0</ele><time>2026-05-01T09:51:01.998Z</time></trkpt><trkpt lat="42.043880042730876" lon="13.408557491194513"><ele>711.0</ele><time>2026-05-01T09:51:02.998Z</time></trkpt><trkpt lat="42.04381769713439" lon="13.4086389977003"><ele>711.0</ele><time>2026-05-01T09:51:04.998Z</time></trkpt><trkpt lat="42.04376228214723" lon="13.408713964711213"><ele>711.0</ele><time>2026-05-01T09:51:08.998Z</time></trkpt><trkpt lat="42.04369066176339" lon="13.408774841530409"><ele>711.0</ele><time>2026-05-01T09:51:11.998Z</time></trkpt><trkpt lat="42.04372292736049" lon="13.408970752097488"><ele>711.0</ele><time>2026-05-01T09:51:13.998Z</time></trkpt><trkpt lat="42.043790139625315" lon="13.409110025531392"><ele>711.3333333333334</ele><time>2026-05-01T09:51:15.998Z</time></trkpt><trkpt lat="42.043841055894084" lon="13.409188577726136"><ele>711.6666666666666</ele><time>2026-05-01T09:51:16.998Z</time></trkpt><trkpt lat="42.04391806480273" lon="13.409251184263628"><ele>712.0</ele><time>2026-05-01T09:51:17.998Z</time></trkpt><trkpt lat="42.043950888593756" lon="13.409375847177554"><ele>712.3333333333333</ele><time>2026-05-01T09:51:18.998Z</time></trkpt><trkpt lat="42.04400368116813" lon="13.409479922097693"><ele>712.6666666666666</ele><time>2026-05-01T09:51:20Z</time></trkpt><trkpt lat="42.04403979828886" lon="13.409590794217394"><ele>713.0</ele><time>2026-05-01T09:51:21Z</time></trkpt><trkpt lat="42.04406773657491" lon="13.409710792470305"><ele>713.0</ele><time>2026-05-01T09:51:22Z</time></trkpt><trkpt lat="42.044077358226886" lon="13.409830184037025"><ele>713.0</ele><time>2026-05-01T09:51:23Z</time></trkpt><trkpt lat="42.04406879326398" lon="13.409943211201979"><ele>713.0</ele><time>2026-05-01T09:51:24Z</time></trkpt><trkpt lat="42.04406390578942" lon="13.410070767936425"><ele>713.0</ele><time>2026-05-01T09:51:25Z</time></trkpt><trkpt lat="42.04400388296463" lon="13.410159170032308"><ele>713.0</ele><time>2026-05-01T09:51:26Z</time></trkpt><trkpt lat="42.04395463318329" lon="13.410263552480092"><ele>713.0</ele><time>2026-05-01T09:51:27Z</time></trkpt><trkpt lat="42.04389257630092" lon="13.410345801153674"><ele>713.0</ele><time>2026-05-01T09:51:28Z</time></trkpt><trkpt lat="42.04382150767656" lon="13.4104081936078"><ele>713.0</ele><time>2026-05-01T09:51:29Z</time></trkpt><trkpt lat="42.043741871215126" lon="13.410418568539379"><ele>713.0</ele><time>2026-05-01T09:51:30Z</time></trkpt><trkpt lat="42.043658724915694" lon="13.410430787902406"><ele>713.0</ele><time>2026-05-01T09:51:31Z</time></trkpt><trkpt lat="42.04357668172488" lon="13.410446592910837"><ele>713.0</ele><time>2026-05-01T09:51:32Z</time></trkpt><trkpt lat="42.04348960972741" lon="13.410470940154221"><ele>713.0</ele><time>2026-05-01T09:51:33Z</time></trkpt><trkpt lat="42.043393522414846" lon="13.410457641446055"><ele>713.0</ele><time>2026-05-01T09:51:34Z</time></trkpt><trkpt lat="42.04329503317432" lon="13.410429640699613"><ele>713.0</ele><time>2026-05-01T09:51:35Z</time></trkpt><trkpt lat="42.04317127448919" lon="13.41040423097479"><ele>713.0</ele><time>2026-05-01T09:51:36Z</time></trkpt><trkpt lat="42.04303053443615" lon="13.410375092285244"><ele>713.0</ele><time>2026-05-01T09:51:37Z</time></trkpt><trkpt lat="42.04288966629698" lon="13.410349262515908"><ele>713.0</ele><time>2026-05-01T09:51:38Z</time></trkpt><trkpt lat="42.042741270462685" lon="13.410322621748604"><ele>713.0</ele><time>2026-05-01T09:51:39Z</time></trkpt><trkpt lat="42.04258894059299" lon="13.410296192900208"><ele>713.0</ele><time>2026-05-01T09:51:40Z</time></trkpt><trkpt lat="42.042432791637786" lon="13.410264415632295"><ele>713.0</ele><time>2026-05-01T09:51:41Z</time></trkpt><trkpt lat="42.0422718278764" lon="13.41022811383452"><ele>713.0</ele><time>2026-05-01T09:51:42Z</time></trkpt><trkpt lat="42.04211188747007" lon="13.41019769180877"><ele>713.0</ele><time>2026-05-01T09:51:43Z</time></trkpt><trkpt lat="42.04194693251045" lon="13.41016706464642"><ele>713.0</ele><time>2026-05-01T09:51:44Z</time></trkpt><trkpt lat="42.04178597223188" lon="13.410135773184914"><ele>713.0</ele><time>2026-05-01T09:51:45Z</time></trkpt><trkpt lat="42.0416308569588" lon="13.41010218673144"><ele>713.0</ele><time>2026-05-01T09:51:46Z</time></trkpt><trkpt lat="42.041477794414284" lon="13.410072537384544"><ele>713.0</ele><time>2026-05-01T09:51:47Z</time></trkpt><trkpt lat="42.04132164568436" lon="13.410047205950576"><ele>713.0</ele><time>2026-05-01T09:51:48Z</time></trkpt><trkpt lat="42.041154593260245" lon="13.410030482814639"><ele>713.0</ele><time>2026-05-01T09:51:49Z</time></trkpt><trkpt lat="42.04097306081133" lon="13.410018806561764"><ele>713.0</ele><time>2026-05-01T09:51:50Z</time></trkpt><trkpt lat="42.040790093498664" lon="13.41001552876503"><ele>713.0</ele><time>2026-05-01T09:51:51Z</time></trkpt><trkpt lat="42.04060792837565" lon="13.41001047959894"><ele>713.0</ele><time>2026-05-01T09:51:52Z</time></trkpt><trkpt lat="42.04043463825007" lon="13.41000081881214"><ele>713.0</ele><time>2026-05-01T09:51:53Z</time></trkpt><trkpt lat="42.04026510047727" lon="13.409993726112065"><ele>713.0</ele><time>2026-05-01T09:51:54Z</time></trkpt><trkpt lat="42.04009706567558" lon="13.409989465300795"><ele>713.0</ele><time>2026-05-01T09:51:55Z</time></trkpt><trkpt lat="42.03993494588336" lon="13.409993575958753"><ele>712.6666666666666</ele><time>2026-05-01T09:51:56Z</time></trkpt><trkpt lat="42.039763455655596" lon="13.41001827305917"><ele>712.3333333333334</ele><time>2026-05-01T09:51:57Z</time></trkpt><trkpt lat="42.039593182495615" lon="13.410033954451608"><ele>712.0</ele><time>2026-05-01T09:51:58Z</time></trkpt><trkpt lat="42.03941013535763" lon="13.410047390832052"><ele>712.0</ele><time>2026-05-01T09:51:59Z</time></trkpt><trkpt lat="42.03922811034133" lon="13.410060746141635"><ele>712.0</ele><time>2026-05-01T09:52:00Z</time></trkpt><trkpt lat="42.03903403091761" lon="13.410076821391199"><ele>712.0</ele><time>2026-05-01T09:52:01Z</time></trkpt><trkpt lat="42.038841068036874" lon="13.410101947817367"><ele>713.0</ele><time>2026-05-01T09:52:02Z</time></trkpt><trkpt lat="42.038626566238975" lon="13.410143901048242"><ele>714.0</ele><time>2026-05-01T09:52:03Z</time></trkpt><trkpt lat="42.0384082523982" lon="13.410197317165897"><ele>715.0</ele><time>2026-05-01T09:52:04Z</time></trkpt><trkpt lat="42.038178581112454" lon="13.410228805256196"><ele>715.5</ele><time>2026-05-01T09:52:04.999Z</time></trkpt><trkpt lat="42.037942111611926" lon="13.41026838296187"><ele>716.0</ele><time>2026-05-01T09:52:05.999Z</time></trkpt><trkpt lat="42.03769838882337" lon="13.410296377446048"><ele>719.0</ele><time>2026-05-01T09:52:06.999Z</time></trkpt><trkpt lat="42.037453453339005" lon="13.410315978883766"><ele>722.0</ele><time>2026-05-01T09:52:07.999Z</time></trkpt><trkpt lat="42.037210319600476" lon="13.410334837173817"><ele>722.0</ele><time>2026-05-01T09:52:08.999Z</time></trkpt><trkpt lat="42.03696082633633" lon="13.410353513565301"><ele>722.0</ele><time>2026-05-01T09:52:09.999Z</time></trkpt><trkpt lat="42.036720159671745" lon="13.410374593172893"><ele>723.5</ele><time>2026-05-01T09:52:10.999Z</time></trkpt><trkpt lat="42.03647768109782" lon="13.410399984975689"><ele>725.0</ele><time>2026-05-01T09:52:11.999Z</time></trkpt><trkpt lat="42.03623219559511" lon="13.41042680002193"><ele>725.0</ele><time>2026-05-01T09:52:12.999Z</time></trkpt><trkpt lat="42.03598271162531" lon="13.410458933516335"><ele>725.0</ele><time>2026-05-01T09:52:13.999Z</time></trkpt><trkpt lat="42.035729000992966" lon="13.41048663526385"><ele>724.0</ele><time>2026-05-01T09:52:14.999Z</time></trkpt><trkpt lat="42.03547366123439" lon="13.410515419756083"><ele>723.0</ele><time>2026-05-01T09:52:15.999Z</time></trkpt><trkpt lat="42.0352160219884" lon="13.41054134099969"><ele>726.5</ele><time>2026-05-01T09:52:16.999Z</time></trkpt><trkpt lat="42.034957967950376" lon="13.410564873361572"><ele>730.0</ele><time>2026-05-01T09:52:17.999Z</time></trkpt><trkpt lat="42.03470053260376" lon="13.410586202826323"><ele>730.0</ele><time>2026-05-01T09:52:18.999Z</time></trkpt><trkpt lat="42.034443942309935" lon="13.410617104082398"><ele>730.0</ele><time>2026-05-01T09:52:19.999Z</time></trkpt><trkpt lat="42.034189017336296" lon="13.410648407693767"><ele>735.0</ele><time>2026-05-01T09:52:20.999Z</time></trkpt><trkpt lat="42.03393856344143" lon="13.41067907816747"><ele>740.0</ele><time>2026-05-01T09:52:21.999Z</time></trkpt><trkpt lat="42.03368889242113" lon="13.410712047834155"><ele>740.0</ele><time>2026-05-01T09:52:22.999Z</time></trkpt><trkpt lat="42.03343653112893" lon="13.410744153634083"><ele>740.0</ele><time>2026-05-01T09:52:23.999Z</time></trkpt><trkpt lat="42.0331843182471" lon="13.410773760686274"><ele>742.5</ele><time>2026-05-01T09:52:24.999Z</time></trkpt><trkpt lat="42.03292741269604" lon="13.410801300265248"><ele>745.0</ele><time>2026-05-01T09:52:25.999Z</time></trkpt><trkpt lat="42.03267130231374" lon="13.41083345732561"><ele>745.0</ele><time>2026-05-01T09:52:26.999Z</time></trkpt><trkpt lat="42.03241427412405" lon="13.410860944467577"><ele>745.0</ele><time>2026-05-01T09:52:27.999Z</time></trkpt><trkpt lat="42.032159951486065" lon="13.410893977909057"><ele>745.0</ele><time>2026-05-01T09:52:28.999Z</time></trkpt><trkpt lat="42.0318989561464" lon="13.410926722510235"><ele>745.0</ele><time>2026-05-01T09:52:29.999Z</time></trkpt><trkpt lat="42.03164240760129" lon="13.410958352394657"><ele>745.5</ele><time>2026-05-01T09:52:30.999Z</time></trkpt><trkpt lat="42.031383265333154" lon="13.410991377270173"><ele>746.0</ele><time>2026-05-01T09:52:31.999Z</time></trkpt><trkpt lat="42.03112444481389" lon="13.411023344876742"><ele>746.0</ele><time>2026-05-01T09:52:32.999Z</time></trkpt><trkpt lat="42.03086468180949" lon="13.41105962757048"><ele>746.0</ele><time>2026-05-01T09:52:33.999Z</time></trkpt><trkpt lat="42.030605874671515" lon="13.411089440242165"><ele>746.0</ele><time>2026-05-01T09:52:34.999Z</time></trkpt><trkpt lat="42.03034686801136" lon="13.411119177748235"><ele>746.0</ele><time>2026-05-01T09:52:35.999Z</time></trkpt><trkpt lat="42.030087936672565" lon="13.41114744650809"><ele>744.0</ele><time>2026-05-01T09:52:36.999Z</time></trkpt><trkpt lat="42.02982449587373" lon="13.411171981114217"><ele>742.0</ele><time>2026-05-01T09:52:37.999Z</time></trkpt><trkpt lat="42.02955654852318" lon="13.411203222268712"><ele>742.0</ele><time>2026-05-01T09:52:38.999Z</time></trkpt><trkpt lat="42.02928908272535" lon="13.411230580094712"><ele>742.0</ele><time>2026-05-01T09:52:39.999Z</time></trkpt><trkpt lat="42.0290158421471" lon="13.411264994358245"><ele>740.0</ele><time>2026-05-01T09:52:40.999Z</time></trkpt><trkpt lat="42.028743595451324" lon="13.411295048108837"><ele>738.0</ele><time>2026-05-01T09:52:41.999Z</time></trkpt><trkpt lat="42.028469296754444" lon="13.411331716185234"><ele>730.0</ele><time>2026-05-01T09:52:42.999Z</time></trkpt><trkpt lat="42.028194825067146" lon="13.41136744224154"><ele>722.0</ele><time>2026-05-01T09:52:43.999Z</time></trkpt><trkpt lat="42.02792133606439" lon="13.411398024992485"><ele>722.0</ele><time>2026-05-01T09:52:44.999Z</time></trkpt><trkpt lat="42.02765011753411" lon="13.411430259742529"><ele>722.0</ele><time>2026-05-01T09:52:45.999Z</time></trkpt><trkpt lat="42.02737652710582" lon="13.411458885399599"><ele>721.0</ele><time>2026-05-01T09:52:46.999Z</time></trkpt><trkpt lat="42.027105794346625" lon="13.411491648190369"><ele>720.0</ele><time>2026-05-01T09:52:47.999Z</time></trkpt><trkpt lat="42.02683224984069" lon="13.41152756626557"><ele>721.0</ele><time>2026-05-01T09:52:48.999Z</time></trkpt><trkpt lat="42.02655996751157" lon="13.411582574999935"><ele>722.0</ele><time>2026-05-01T09:52:49.999Z</time></trkpt><trkpt lat="42.02629016117069" lon="13.411662637923047"><ele>722.0</ele><time>2026-05-01T09:52:50.999Z</time></trkpt><trkpt lat="42.02601494833162" lon="13.411748778049041"><ele>722.0</ele><time>2026-05-01T09:52:51.999Z</time></trkpt><trkpt lat="42.02573075514697" lon="13.41183134096896"><ele>721.5</ele><time>2026-05-01T09:52:52.999Z</time></trkpt><trkpt lat="42.02545227530567" lon="13.411920757985671"><ele>721.0</ele><time>2026-05-01T09:52:53.999Z</time></trkpt><trkpt lat="42.025185441020966" lon="13.412054575372888"><ele>721.0</ele><time>2026-05-01T09:52:54.999Z</time></trkpt><trkpt lat="42.024916425005244" lon="13.412164228614644"><ele>721.0</ele><time>2026-05-01T09:52:55.999Z</time></trkpt><trkpt lat="42.02465333906568" lon="13.412289819993035"><ele>721.0</ele><time>2026-05-01T09:52:56.999Z</time></trkpt><trkpt lat="42.02442035640331" lon="13.412422353353293"><ele>721.0</ele><time>2026-05-01T09:52:57.999Z</time></trkpt><trkpt lat="42.024169993218486" lon="13.412552376919063"><ele>726.5</ele><time>2026-05-01T09:52:58.998Z</time></trkpt><trkpt lat="42.02392785338578" lon="13.41267360695701"><ele>732.0</ele><time>2026-05-01T09:52:59.998Z</time></trkpt><trkpt lat="42.023682379594206" lon="13.412799362257521"><ele>732.0</ele><time>2026-05-01T09:53:00.998Z</time></trkpt><trkpt lat="42.02342948704298" lon="13.412919447539329"><ele>732.0</ele><time>2026-05-01T09:53:01.998Z</time></trkpt><trkpt lat="42.0231764038713" lon="13.413042272951289"><ele>719.5</ele><time>2026-05-01T09:53:02.998Z</time></trkpt><trkpt lat="42.02291838159573" lon="13.41316309736347"><ele>707.0</ele><time>2026-05-01T09:53:03.998Z</time></trkpt><trkpt lat="42.02266572919432" lon="13.413289666002578"><ele>706.0</ele><time>2026-05-01T09:53:04.998Z</time></trkpt><trkpt lat="42.02240779138224" lon="13.413408747150783"><ele>705.0</ele><time>2026-05-01T09:53:05.998Z</time></trkpt><trkpt lat="42.02215077742793" lon="13.413529948927119"><ele>705.0</ele><time>2026-05-01T09:53:06.998Z</time></trkpt><trkpt lat="42.02189160053355" lon="13.413655055564632"><ele>705.0</ele><time>2026-05-01T09:53:07.998Z</time></trkpt><trkpt lat="42.02163189797831" lon="13.413773880909643"><ele>704.0</ele><time>2026-05-01T09:53:08.998Z</time></trkpt><trkpt lat="42.02137751973181" lon="13.4138944479778"><ele>703.0</ele><time>2026-05-01T09:53:09.998Z</time></trkpt><trkpt lat="42.02112373945912" lon="13.414011818805752"><ele>703.0</ele><time>2026-05-01T09:53:10.998Z</time></trkpt><trkpt lat="42.02086518407747" lon="13.41413000634365"><ele>703.0</ele><time>2026-05-01T09:53:11.998Z</time></trkpt><trkpt lat="42.02060743252162" lon="13.414249330036787"><ele>702.5</ele><time>2026-05-01T09:53:12.998Z</time></trkpt><trkpt lat="42.02035087767829" lon="13.414372144961739"><ele>702.0</ele><time>2026-05-01T09:53:13.998Z</time></trkpt><trkpt lat="42.02009705630787" lon="13.414495453621708"><ele>700.0</ele><time>2026-05-01T09:53:14.998Z</time></trkpt><trkpt lat="42.0198407337456" lon="13.414612650087372"><ele>698.0</ele><time>2026-05-01T09:53:15.998Z</time></trkpt><trkpt lat="42.019585170836244" lon="13.414734123465296"><ele>697.5</ele><time>2026-05-01T09:53:16.998Z</time></trkpt><trkpt lat="42.01932918899241" lon="13.414858176343033"><ele>697.0</ele><time>2026-05-01T09:53:17.998Z</time></trkpt><trkpt lat="42.019072213342504" lon="13.414983773338585"><ele>697.0</ele><time>2026-05-01T09:53:18.998Z</time></trkpt><trkpt lat="42.01881394952086" lon="13.415103358923888"><ele>697.0</ele><time>2026-05-01T09:53:19.998Z</time></trkpt><trkpt lat="42.01855224474701" lon="13.415224387041881"><ele>697.5</ele><time>2026-05-01T09:53:20.998Z</time></trkpt><trkpt lat="42.01828932362945" lon="13.415345441593038"><ele>698.0</ele><time>2026-05-01T09:53:21.998Z</time></trkpt><trkpt lat="42.01803027472843" lon="13.415468157700825"><ele>698.0</ele><time>2026-05-01T09:53:22.998Z</time></trkpt><trkpt lat="42.01777363081021" lon="13.415588758972218"><ele>698.0</ele><time>2026-05-01T09:53:23.998Z</time></trkpt><trkpt lat="42.01751682364853" lon="13.41570655368947"><ele>697.0</ele><time>2026-05-01T09:53:24.998Z</time></trkpt><trkpt lat="42.01725859250317" lon="13.415831649787348"><ele>696.0</ele><time>2026-05-01T09:53:26Z</time></trkpt><trkpt lat="42.01700046417188" lon="13.415958086494202"><ele>696.0</ele><time>2026-05-01T09:53:27Z</time></trkpt><trkpt lat="42.01674450305747" lon="13.416082640102632"><ele>696.0</ele><time>2026-05-01T09:53:28Z</time></trkpt><trkpt lat="42.01648673020347" lon="13.416204327262804"><ele>696.0</ele><time>2026-05-01T09:53:29Z</time></trkpt><trkpt lat="42.01622843109826" lon="13.416327233253467"><ele>696.0</ele><time>2026-05-01T09:53:30Z</time></trkpt><trkpt lat="42.01597124252316" lon="13.41645144021353"><ele>695.5</ele><time>2026-05-01T09:53:31Z</time></trkpt><trkpt lat="42.015708705310516" lon="13.416574876719013"><ele>695.0</ele><time>2026-05-01T09:53:32Z</time></trkpt><trkpt lat="42.015448356034916" lon="13.416695168620747"><ele>695.0</ele><time>2026-05-01T09:53:33Z</time></trkpt><trkpt lat="42.015189799065396" lon="13.416813929562764"><ele>695.0</ele><time>2026-05-01T09:53:34Z</time></trkpt><trkpt lat="42.014933092724974" lon="13.416933226922117"><ele>695.5</ele><time>2026-05-01T09:53:35Z</time></trkpt><trkpt lat="42.014678393918" lon="13.417050512696129"><ele>696.0</ele><time>2026-05-01T09:53:36Z</time></trkpt><trkpt lat="42.01442326102296" lon="13.417172532015561"><ele>696.0</ele><time>2026-05-01T09:53:37Z</time></trkpt><trkpt lat="42.01416944231524" lon="13.417292979356908"><ele>696.0</ele><time>2026-05-01T09:53:38Z</time></trkpt><trkpt lat="42.01391668076822" lon="13.417412611752862"><ele>697.0</ele><time>2026-05-01T09:53:39Z</time></trkpt><trkpt lat="42.01366553449905" lon="13.417532380092068"><ele>698.0</ele><time>2026-05-01T09:53:40Z</time></trkpt><trkpt lat="42.01341412214672" lon="13.417651070822497"><ele>697.0</ele><time>2026-05-01T09:53:41Z</time></trkpt><trkpt lat="42.0131642483577" lon="13.417769702002603"><ele>696.0</ele><time>2026-05-01T09:53:42Z</time></trkpt><trkpt lat="42.01291448333233" lon="13.417885563492732"><ele>695.5</ele><time>2026-05-01T09:53:43Z</time></trkpt><trkpt lat="42.01266449522032" lon="13.41800276650594"><ele>695.0</ele><time>2026-05-01T09:53:44Z</time></trkpt><trkpt lat="42.01241758490904" lon="13.418118778616597"><ele>695.0</ele><time>2026-05-01T09:53:45Z</time></trkpt><trkpt lat="42.01216899655109" lon="13.418234376026476"><ele>695.0</ele><time>2026-05-01T09:53:46Z</time></trkpt><trkpt lat="42.01191898316778" lon="13.418351202804542"><ele>695.0</ele><time>2026-05-01T09:53:47Z</time></trkpt><trkpt lat="42.01166908464482" lon="13.418469985106585"><ele>695.0</ele><time>2026-05-01T09:53:48Z</time></trkpt><trkpt lat="42.01142055207067" lon="13.41858875442331"><ele>695.0</ele><time>2026-05-01T09:53:49Z</time></trkpt><trkpt lat="42.01117798098472" lon="13.418705961665399"><ele>695.0</ele><time>2026-05-01T09:53:50Z</time></trkpt><trkpt lat="42.01094107616664" lon="13.418819945026186"><ele>693.5</ele><time>2026-05-01T09:53:51Z</time></trkpt><trkpt lat="42.01071301745962" lon="13.418930706266904"><ele>692.0</ele><time>2026-05-01T09:53:52Z</time></trkpt><trkpt lat="42.010491055626126" lon="13.419039762387476"><ele>692.0</ele><time>2026-05-01T09:53:53Z</time></trkpt><trkpt lat="42.0102605201111" lon="13.41915868437078"><ele>692.0</ele><time>2026-05-01T09:53:54Z</time></trkpt><trkpt lat="42.010020609377655" lon="13.419284740951046"><ele>691.5</ele><time>2026-05-01T09:53:55Z</time></trkpt><trkpt lat="42.00977681764163" lon="13.419394653327139"><ele>691.0</ele><time>2026-05-01T09:53:56Z</time></trkpt><trkpt lat="42.0095327508061" lon="13.419492850596418"><ele>691.0</ele><time>2026-05-01T09:53:57Z</time></trkpt><trkpt lat="42.00929618870774" lon="13.419594634094416"><ele>691.0</ele><time>2026-05-01T09:53:58Z</time></trkpt><trkpt lat="42.009069540896334" lon="13.419700635477554"><ele>690.6666666666667</ele><time>2026-05-01T09:53:59Z</time></trkpt><trkpt lat="42.00885666735637" lon="13.419802543921113"><ele>690.3333333333334</ele><time>2026-05-01T09:54:00Z</time></trkpt><trkpt lat="42.008644195169545" lon="13.419893098005918"><ele>690.0</ele><time>2026-05-01T09:54:01Z</time></trkpt><trkpt lat="42.00843797855382" lon="13.419967511889034"><ele>690.6666666666666</ele><time>2026-05-01T09:54:02Z</time></trkpt><trkpt lat="42.008232304638305" lon="13.420022828112227"><ele>691.3333333333333</ele><time>2026-05-01T09:54:03Z</time></trkpt><trkpt lat="42.00802612905738" lon="13.420063098096664"><ele>692.0</ele><time>2026-05-01T09:54:04Z</time></trkpt><trkpt lat="42.00782165922655" lon="13.420087614084473"><ele>692.0</ele><time>2026-05-01T09:54:05Z</time></trkpt><trkpt lat="42.00760993797052" lon="13.42009984121577"><ele>692.0</ele><time>2026-05-01T09:54:06Z</time></trkpt><trkpt lat="42.007398047292746" lon="13.420079450955855"><ele>692.0</ele><time>2026-05-01T09:54:07Z</time></trkpt><trkpt lat="42.007192445454365" lon="13.420083506053682"><ele>693.3333333333333</ele><time>2026-05-01T09:54:08Z</time></trkpt><trkpt lat="42.00698840820171" lon="13.420109114969303"><ele>694.6666666666666</ele><time>2026-05-01T09:54:09Z</time></trkpt><trkpt lat="42.00678211620558" lon="13.420093686820866"><ele>696.0</ele><time>2026-05-01T09:54:10Z</time></trkpt><trkpt lat="42.006580845950204" lon="13.420098680580047"><ele>696.0</ele><time>2026-05-01T09:54:11Z</time></trkpt><trkpt lat="42.00637856489163" lon="13.420099412371249"><ele>696.0</ele><time>2026-05-01T09:54:11.999Z</time></trkpt><trkpt lat="42.00618182000223" lon="13.420099740668789"><ele>696.0</ele><time>2026-05-01T09:54:12.999Z</time></trkpt><trkpt lat="42.00598309357487" lon="13.420098787718935"><ele>696.6666666666666</ele><time>2026-05-01T09:54:13.999Z</time></trkpt><trkpt lat="42.00578444463248" lon="13.420096792897027"><ele>697.3333333333333</ele><time>2026-05-01T09:54:14.999Z</time></trkpt><trkpt lat="42.0055810513484" lon="13.42010394531793"><ele>698.0</ele><time>2026-05-01T09:54:15.999Z</time></trkpt><trkpt lat="42.00538438485782" lon="13.420104735526133"><ele>698.0</ele><time>2026-05-01T09:54:16.999Z</time></trkpt><trkpt lat="42.00519386738536" lon="13.420113993091473"><ele>698.0</ele><time>2026-05-01T09:54:17.999Z</time></trkpt><trkpt lat="42.0050070213644" lon="13.420145418152671"><ele>698.0</ele><time>2026-05-01T09:54:18.999Z</time></trkpt><trkpt lat="42.004835447627094" lon="13.420175764285421"><ele>698.25</ele><time>2026-05-01T09:54:19.999Z</time></trkpt><trkpt lat="42.00467953885538" lon="13.420209710784546"><ele>698.5</ele><time>2026-05-01T09:54:20.999Z</time></trkpt><trkpt lat="42.00455170756394" lon="13.420276909197222"><ele>698.75</ele><time>2026-05-01T09:54:21.999Z</time></trkpt><trkpt lat="42.00442706723101" lon="13.420343093657083"><ele>699.0</ele><time>2026-05-01T09:54:22.999Z</time></trkpt><trkpt lat="42.00428335238503" lon="13.420323924175271"><ele>699.0</ele><time>2026-05-01T09:54:23.999Z</time></trkpt><trkpt lat="42.004166530154045" lon="13.420359638283152"><ele>699.0</ele><time>2026-05-01T09:54:24.999Z</time></trkpt><trkpt lat="42.004095839997014" lon="13.42051585633384"><ele>699.0</ele><time>2026-05-01T09:54:25.999Z</time></trkpt><trkpt lat="42.0039867794619" lon="13.420558247516542"><ele>699.0</ele><time>2026-05-01T09:54:26.999Z</time></trkpt><trkpt lat="42.00385104996246" lon="13.420598514179508"><ele>698.25</ele><time>2026-05-01T09:54:27.999Z</time></trkpt><trkpt lat="42.00373308883422" lon="13.420651474866782"><ele>697.5</ele><time>2026-05-01T09:54:28.999Z</time></trkpt><trkpt lat="42.003610118824156" lon="13.420723737783506"><ele>696.75</ele><time>2026-05-01T09:54:29.999Z</time></trkpt><trkpt lat="42.00348987226696" lon="13.42081898028152"><ele>696.0</ele><time>2026-05-01T09:54:30.999Z</time></trkpt><trkpt lat="42.00337674851926" lon="13.420926733792955"><ele>697.0</ele><time>2026-05-01T09:54:31.999Z</time></trkpt><trkpt lat="42.00326072574983" lon="13.421054086431504"><ele>698.0</ele><time>2026-05-01T09:54:32.999Z</time></trkpt><trkpt lat="42.00315102975691" lon="13.42118382328935"><ele>699.0</ele><time>2026-05-01T09:54:33.999Z</time></trkpt><trkpt lat="42.00301652632571" lon="13.421330312139588"><ele>699.0</ele><time>2026-05-01T09:54:34.999Z</time></trkpt><trkpt lat="42.00290289779123" lon="13.421511458925224"><ele>699.0</ele><time>2026-05-01T09:54:35.999Z</time></trkpt><trkpt lat="42.00279458746853" lon="13.421709442640784"><ele>699.0</ele><time>2026-05-01T09:54:36.999Z</time></trkpt><trkpt lat="42.00268526930574" lon="13.42191399772227"><ele>699.0</ele><time>2026-05-01T09:54:37.999Z</time></trkpt><trkpt lat="42.00256437400342" lon="13.422130300643582"><ele>699.0</ele><time>2026-05-01T09:54:38.999Z</time></trkpt><trkpt lat="42.00244415821352" lon="13.422347773011465"><ele>699.0</ele><time>2026-05-01T09:54:39.999Z</time></trkpt><trkpt lat="42.00232370618837" lon="13.42256368423479"><ele>699.0</ele><time>2026-05-01T09:54:40.999Z</time></trkpt><trkpt lat="42.00220725065166" lon="13.422780290652625"><ele>699.0</ele><time>2026-05-01T09:54:41.999Z</time></trkpt><trkpt lat="42.00208517438026" lon="13.422996810512114"><ele>699.0</ele><time>2026-05-01T09:54:42.999Z</time></trkpt><trkpt lat="42.00197104979557" lon="13.423204816618142"><ele>699.0</ele><time>2026-05-01T09:54:43.999Z</time></trkpt><trkpt lat="42.00186224869283" lon="13.423412526540128"><ele>699.0</ele><time>2026-05-01T09:54:44.999Z</time></trkpt><trkpt lat="42.00175063316274" lon="13.423637682835688"><ele>699.0</ele><time>2026-05-01T09:54:45.999Z</time></trkpt><trkpt lat="42.001636884309576" lon="13.423859712595366"><ele>699.0</ele><time>2026-05-01T09:54:46.999Z</time></trkpt><trkpt lat="42.00152592217775" lon="13.424079133290501"><ele>699.0</ele><time>2026-05-01T09:54:47.999Z</time></trkpt><trkpt lat="42.00141764078285" lon="13.424293359937915"><ele>699.0</ele><time>2026-05-01T09:54:48.999Z</time></trkpt><trkpt lat="42.00131270539142" lon="13.424499146854583"><ele>698.0</ele><time>2026-05-01T09:54:49.999Z</time></trkpt><trkpt lat="42.00122436452797" lon="13.424688970183912"><ele>697.0</ele><time>2026-05-01T09:54:50.999Z</time></trkpt><trkpt lat="42.001139582671655" lon="13.42486454795283"><ele>696.0</ele><time>2026-05-01T09:54:51.999Z</time></trkpt><trkpt lat="42.001051260809646" lon="13.425041877990216"><ele>696.0</ele><time>2026-05-01T09:54:52.999Z</time></trkpt><trkpt lat="42.000959696401914" lon="13.42522686888299"><ele>696.0</ele><time>2026-05-01T09:54:53.999Z</time></trkpt><trkpt lat="42.00087108557423" lon="13.425417060150982"><ele>696.0</ele><time>2026-05-01T09:54:54.999Z</time></trkpt><trkpt lat="42.0007933456334" lon="13.425608641842036"><ele>695.5</ele><time>2026-05-01T09:54:55.999Z</time></trkpt><trkpt lat="42.00072921857593" lon="13.425796719100386"><ele>695.0</ele><time>2026-05-01T09:54:56.999Z</time></trkpt><trkpt lat="42.00067867508428" lon="13.425980484036282"><ele>694.5</ele><time>2026-05-01T09:54:57.999Z</time></trkpt><trkpt lat="42.000625617803706" lon="13.426143798694625"><ele>694.0</ele><time>2026-05-01T09:54:58.999Z</time></trkpt><trkpt lat="42.000559014194245" lon="13.426290327796135"><ele>693.2</ele><time>2026-05-01T09:54:59.999Z</time></trkpt><trkpt lat="42.000483960768406" lon="13.426409067512852"><ele>692.4000000000001</ele><time>2026-05-01T09:55:00.999Z</time></trkpt><trkpt lat="42.00040374552014" lon="13.426510383794735"><ele>691.6</ele><time>2026-05-01T09:55:01.999Z</time></trkpt><trkpt lat="42.0003203348689" lon="13.42659765167593"><ele>690.8</ele><time>2026-05-01T09:55:02.999Z</time></trkpt><trkpt lat="42.00022710229734" lon="13.42665545869555"><ele>690.0</ele><time>2026-05-01T09:55:03.999Z</time></trkpt><trkpt lat="42.00013342840047" lon="13.426711960131035"><ele>690.0</ele><time>2026-05-01T09:55:04.999Z</time></trkpt><trkpt lat="42.00002575961154" lon="13.426704069266028"><ele>690.0</ele><time>2026-05-01T09:55:05.999Z</time></trkpt><trkpt lat="41.999929492549605" lon="13.42673956830848"><ele>690.0</ele><time>2026-05-01T09:55:06.998Z</time></trkpt><trkpt lat="41.999842490629824" lon="13.426808120659455"><ele>690.0</ele><time>2026-05-01T09:55:07.998Z</time></trkpt><trkpt lat="41.999776004985186" lon="13.426906125536547"><ele>690.0</ele><time>2026-05-01T09:55:08.998Z</time></trkpt><trkpt lat="41.9997368215818" lon="13.427023543554352"><ele>688.8</ele><time>2026-05-01T09:55:09.998Z</time></trkpt><trkpt lat="41.999723180423985" lon="13.42715211189214"><ele>687.6</ele><time>2026-05-01T09:55:10.998Z</time></trkpt><trkpt lat="41.99972455158735" lon="13.427280719156244"><ele>686.4000000000001</ele><time>2026-05-01T09:55:11.998Z</time></trkpt><trkpt lat="41.999748127883294" lon="13.427408477519345"><ele>685.2</ele><time>2026-05-01T09:55:12.998Z</time></trkpt><trkpt lat="41.999800811957286" lon="13.427519241948653"><ele>684.0</ele><time>2026-05-01T09:55:13.998Z</time></trkpt><trkpt lat="41.99988050517433" lon="13.427599512500816"><ele>684.0</ele><time>2026-05-01T09:55:14.998Z</time></trkpt><trkpt lat="41.999981246569334" lon="13.427647537860096"><ele>684.0</ele><time>2026-05-01T09:55:15.998Z</time></trkpt><trkpt lat="42.0000858565067" lon="13.427675965230012"><ele>684.0</ele><time>2026-05-01T09:55:16.998Z</time></trkpt><trkpt lat="42.000190105137406" lon="13.4277186724711"><ele>684.0</ele><time>2026-05-01T09:55:17.998Z</time></trkpt><trkpt lat="42.00028637926458" lon="13.427792695829757"><ele>684.0</ele><time>2026-05-01T09:55:18.998Z</time></trkpt><trkpt lat="42.000381868554044" lon="13.427860703815702"><ele>684.0</ele><time>2026-05-01T09:55:19.998Z</time></trkpt><trkpt lat="42.00042940148422" lon="13.428025094958606"><ele>684.0</ele><time>2026-05-01T09:55:20.998Z</time></trkpt><trkpt lat="42.00048926276403" lon="13.428183267656811"><ele>684.0</ele><time>2026-05-01T09:55:21.998Z</time></trkpt><trkpt lat="42.000558695696576" lon="13.428353803890872"><ele>684.0</ele><time>2026-05-01T09:55:22.998Z</time></trkpt><trkpt lat="42.000633689121415" lon="13.428523333711757"><ele>684.0</ele><time>2026-05-01T09:55:23.998Z</time></trkpt><trkpt lat="42.000712671143525" lon="13.428702905243284"><ele>684.0</ele><time>2026-05-01T09:55:24.998Z</time></trkpt><trkpt lat="42.00079384459285" lon="13.428890949161815"><ele>684.0</ele><time>2026-05-01T09:55:25.998Z</time></trkpt><trkpt lat="42.000875772246815" lon="13.429084189520768"><ele>682.6666666666666</ele><time>2026-05-01T09:55:26.998Z</time></trkpt><trkpt lat="42.000953158961934" lon="13.42926983767268"><ele>681.3333333333333</ele><time>2026-05-01T09:55:27.998Z</time></trkpt><trkpt lat="42.00102809902802" lon="13.429448917606237"><ele>680.0</ele><time>2026-05-01T09:55:28.998Z</time></trkpt><trkpt lat="42.001104624544745" lon="13.429622175579746"><ele>679.25</ele><time>2026-05-01T09:55:29.998Z</time></trkpt><trkpt lat="42.0011770822142" lon="13.429786912500273"><ele>678.5</ele><time>2026-05-01T09:55:30.998Z</time></trkpt><trkpt lat="42.00123861617236" lon="13.429940622017275"><ele>677.75</ele><time>2026-05-01T09:55:32Z</time></trkpt><trkpt lat="42.001285359606854" lon="13.430082817265093"><ele>677.0</ele><time>2026-05-01T09:55:33Z</time></trkpt><trkpt lat="42.001341955089146" lon="13.430193664576082"><ele>677.0</ele><time>2026-05-01T09:55:34Z</time></trkpt><trkpt lat="42.001347217117576" lon="13.430331838048463"><ele>677.0</ele><time>2026-05-01T09:55:35Z</time></trkpt><trkpt lat="42.00135450466217" lon="13.43046183500975"><ele>677.0</ele><time>2026-05-01T09:55:36Z</time></trkpt><trkpt lat="42.00134082069936" lon="13.430600566707195"><ele>677.0</ele><time>2026-05-01T09:55:37Z</time></trkpt><trkpt lat="42.00131930467751" lon="13.430750521274117"><ele>677.0</ele><time>2026-05-01T09:55:38Z</time></trkpt><trkpt lat="42.00129377613159" lon="13.430886697551246"><ele>676.5</ele><time>2026-05-01T09:55:39Z</time></trkpt><trkpt lat="42.001234531846464" lon="13.431010389814759"><ele>676.0</ele><time>2026-05-01T09:55:40Z</time></trkpt><trkpt lat="42.00113426283468" lon="13.431098119359767"><ele>675.5</ele><time>2026-05-01T09:55:41Z</time></trkpt><trkpt lat="42.001011041560446" lon="13.431185225086224"><ele>675.0</ele><time>2026-05-01T09:55:42Z</time></trkpt><trkpt lat="42.00088058235088" lon="13.431280097218043"><ele>675.3333333333334</ele><time>2026-05-01T09:55:43Z</time></trkpt><trkpt lat="42.00074858786271" lon="13.43138845151173"><ele>675.6666666666667</ele><time>2026-05-01T09:55:44Z</time></trkpt><trkpt lat="42.00061259621009" lon="13.431497273890916"><ele>676.0</ele><time>2026-05-01T09:55:45Z</time></trkpt><trkpt lat="42.00047649106212" lon="13.431603890540222"><ele>676.0</ele><time>2026-05-01T09:55:46Z</time></trkpt><trkpt lat="42.00033802970222" lon="13.43170759498847"><ele>676.0</ele><time>2026-05-01T09:55:47Z</time></trkpt><trkpt lat="42.000190566387204" lon="13.431824521674551"><ele>676.0</ele><time>2026-05-01T09:55:48Z</time></trkpt><trkpt lat="42.00004794279749" lon="13.431947055183734"><ele>676.0</ele><time>2026-05-01T09:55:49Z</time></trkpt><trkpt lat="41.99989974657749" lon="13.43206552507911"><ele>676.0</ele><time>2026-05-01T09:55:50Z</time></trkpt><trkpt lat="41.9997486285483" lon="13.43218131034623"><ele>676.0</ele><time>2026-05-01T09:55:51Z</time></trkpt><trkpt lat="41.999596621191" lon="13.432301764950626"><ele>675.3333333333334</ele><time>2026-05-01T09:55:52Z</time></trkpt><trkpt lat="41.99944067757327" lon="13.432420965782569"><ele>674.6666666666666</ele><time>2026-05-01T09:55:53Z</time></trkpt><trkpt lat="41.99928131801571" lon="13.432535245892169"><ele>674.0</ele><time>2026-05-01T09:55:54Z</time></trkpt><trkpt lat="41.99912228556983" lon="13.432655954069801"><ele>674.0</ele><time>2026-05-01T09:55:55Z</time></trkpt><trkpt lat="41.99896466100092" lon="13.432788433298104"><ele>674.0</ele><time>2026-05-01T09:55:56Z</time></trkpt><trkpt lat="41.99880728642602" lon="13.432925003592795"><ele>674.0</ele><time>2026-05-01T09:55:57Z</time></trkpt><trkpt lat="41.9986475607942" lon="13.433054283041908"><ele>674.0</ele><time>2026-05-01T09:55:58Z</time></trkpt><trkpt lat="41.9984853717402" lon="13.433183533217383"><ele>674.0</ele><time>2026-05-01T09:55:59Z</time></trkpt><trkpt lat="41.9983213969153" lon="13.433315766786878"><ele>674.0</ele><time>2026-05-01T09:56:00Z</time></trkpt><trkpt lat="41.998157966634416" lon="13.433452111777148"><ele>674.3333333333333</ele><time>2026-05-01T09:56:01Z</time></trkpt><trkpt lat="41.997991676000716" lon="13.433590166210639"><ele>674.6666666666666</ele><time>2026-05-01T09:56:02Z</time></trkpt><trkpt lat="41.997824244805884" lon="13.43372614199593"><ele>675.0</ele><time>2026-05-01T09:56:03Z</time></trkpt><trkpt lat="41.9976559286176" lon="13.433863292490459"><ele>674.6666666666666</ele><time>2026-05-01T09:56:04Z</time></trkpt><trkpt lat="41.9974875812636" lon="13.434001831610995"><ele>674.3333333333333</ele><time>2026-05-01T09:56:05Z</time></trkpt><trkpt lat="41.997319586115424" lon="13.434136212162695"><ele>674.0</ele><time>2026-05-01T09:56:06Z</time></trkpt><trkpt lat="41.9971516165819" lon="13.4342620239695"><ele>674.0</ele><time>2026-05-01T09:56:07Z</time></trkpt><trkpt lat="41.99698393707291" lon="13.434383733572945"><ele>674.0</ele><time>2026-05-01T09:56:08Z</time></trkpt><trkpt lat="41.99681602455944" lon="13.434495479719605"><ele>674.0</ele><time>2026-05-01T09:56:09Z</time></trkpt><trkpt lat="41.99664522531004" lon="13.434594584662491"><ele>673.6666666666666</ele><time>2026-05-01T09:56:10Z</time></trkpt><trkpt lat="41.996466929609994" lon="13.434682273518389"><ele>673.3333333333334</ele><time>2026-05-01T09:56:11Z</time></trkpt><trkpt lat="41.99628894043601" lon="13.434772260370687"><ele>673.0</ele><time>2026-05-01T09:56:12Z</time></trkpt><trkpt lat="41.99611168245425" lon="13.434863140716862"><ele>673.0</ele><time>2026-05-01T09:56:13Z</time></trkpt><trkpt lat="41.99592987782349" lon="13.434949587265768"><ele>673.0</ele><time>2026-05-01T09:56:14Z</time></trkpt><trkpt lat="41.995747402885954" lon="13.435023527767658"><ele>673.0</ele><time>2026-05-01T09:56:15Z</time></trkpt><trkpt lat="41.99556379582775" lon="13.435097623515322"><ele>673.6666666666667</ele><time>2026-05-01T09:56:16Z</time></trkpt><trkpt lat="41.995374798456844" lon="13.435156437078273"><ele>674.3333333333334</ele><time>2026-05-01T09:56:17Z</time></trkpt><trkpt lat="41.9951867490351" lon="13.435213218121614"><ele>675.0</ele><time>2026-05-01T09:56:18Z</time></trkpt><trkpt lat="41.99500168310046" lon="13.43527977946094"><ele>675.6666666666666</ele><time>2026-05-01T09:56:18.999Z</time></trkpt><trkpt lat="41.99481553794227" lon="13.435337413532652"><ele>676.3333333333333</ele><time>2026-05-01T09:56:19.999Z</time></trkpt><trkpt lat="41.994631020156156" lon="13.43539980071258"><ele>677.0</ele><time>2026-05-01T09:56:20.999Z</time></trkpt><trkpt lat="41.99444837386193" lon="13.435459509832839"><ele>676.3333333333333</ele><time>2026-05-01T09:56:21.999Z</time></trkpt><trkpt lat="41.994260996657914" lon="13.435519891905663"><ele>675.6666666666666</ele><time>2026-05-01T09:56:22.999Z</time></trkpt><trkpt lat="41.99406958694715" lon="13.435575633924621"><ele>675.0</ele><time>2026-05-01T09:56:23.999Z</time></trkpt><trkpt lat="41.993884305064825" lon="13.43563707049356"><ele>675.0</ele><time>2026-05-01T09:56:24.999Z</time></trkpt><trkpt lat="41.99368964036491" lon="13.435680706873406"><ele>675.0</ele><time>2026-05-01T09:56:25.999Z</time></trkpt><trkpt lat="41.99351318135131" lon="13.435788397701064"><ele>675.0</ele><time>2026-05-01T09:56:26.999Z</time></trkpt><trkpt lat="41.99333342171038" lon="13.435882446151911"><ele>675.0</ele><time>2026-05-01T09:56:27.999Z</time></trkpt><trkpt lat="41.99316046162828" lon="13.435983830406997"><ele>675.0</ele><time>2026-05-01T09:56:28.999Z</time></trkpt><trkpt lat="41.99299237473123" lon="13.436104539988193"><ele>675.0</ele><time>2026-05-01T09:56:29.999Z</time></trkpt><trkpt lat="41.99282831995442" lon="13.436228804767076"><ele>674.3333333333334</ele><time>2026-05-01T09:56:30.999Z</time></trkpt><trkpt lat="41.99266247984602" lon="13.436362539728359"><ele>673.6666666666667</ele><time>2026-05-01T09:56:31.999Z</time></trkpt><trkpt lat="41.992496576190916" lon="13.4364948423481"><ele>673.0</ele><time>2026-05-01T09:56:32.999Z</time></trkpt><trkpt lat="41.99232328189378" lon="13.436626292617508"><ele>673.0</ele><time>2026-05-01T09:56:33.999Z</time></trkpt><trkpt lat="41.992147775695564" lon="13.436747768483702"><ele>673.0</ele><time>2026-05-01T09:56:34.999Z</time></trkpt><trkpt lat="41.991972453634936" lon="13.436863220191714"><ele>673.0</ele><time>2026-05-01T09:56:35.999Z</time></trkpt><trkpt lat="41.991794333540525" lon="13.436969937288682"><ele>673.0</ele><time>2026-05-01T09:56:36.999Z</time></trkpt><trkpt lat="41.99161317215367" lon="13.437065641805807"><ele>673.0</ele><time>2026-05-01T09:56:37.999Z</time></trkpt><trkpt lat="41.99142785048937" lon="13.437150609408075"><ele>673.0</ele><time>2026-05-01T09:56:38.999Z</time></trkpt><trkpt lat="41.99123968844817" lon="13.43722319552019"><ele>673.0</ele><time>2026-05-01T09:56:39.999Z</time></trkpt><trkpt lat="41.991050974053536" lon="13.437283922920757"><ele>673.0</ele><time>2026-05-01T09:56:40.999Z</time></trkpt><trkpt lat="41.990868496125366" lon="13.437351287757275"><ele>673.0</ele><time>2026-05-01T09:56:41.999Z</time></trkpt><trkpt lat="41.990694345502334" lon="13.43742313906073"><ele>674.5</ele><time>2026-05-01T09:56:42.999Z</time></trkpt><trkpt lat="41.99052968910107" lon="13.43749194682234"><ele>676.0</ele><time>2026-05-01T09:56:43.999Z</time></trkpt><trkpt lat="41.99039577402776" lon="13.437543728498698"><ele>677.5</ele><time>2026-05-01T09:56:44.999Z</time></trkpt><trkpt lat="41.99029104152025" lon="13.437572214089524"><ele>679.0</ele><time>2026-05-01T09:56:45.999Z</time></trkpt><trkpt lat="41.990213091036296" lon="13.437589054462618"><ele>680.5</ele><time>2026-05-01T09:56:46.999Z</time></trkpt><trkpt lat="41.98986143914384" lon="13.43777976991698"><ele>682.0</ele><time>2026-05-01T09:56:48.999Z</time></trkpt><trkpt lat="41.98978632263175" lon="13.437825898723226"><ele>682.0</ele><time>2026-05-01T09:56:49.999Z</time></trkpt><trkpt lat="41.989855375181804" lon="13.437869512939084"><ele>682.0</ele><time>2026-05-01T09:56:52.999Z</time></trkpt><trkpt lat="41.98993942128217" lon="13.437846883460843"><ele>682.0</ele><time>2026-05-01T09:56:53.999Z</time></trkpt><trkpt lat="41.99006161658744" lon="13.437900915640004"><ele>682.0</ele><time>2026-05-01T09:56:55.999Z</time></trkpt><trkpt lat="41.990145952603186" lon="13.437957056965077"><ele>682.0</ele><time>2026-05-01T09:56:56.999Z</time></trkpt><trkpt lat="41.990248274004024" lon="13.438006393005992"><ele>679.75</ele><time>2026-05-01T09:56:57.999Z</time></trkpt><trkpt lat="41.99035780310829" lon="13.438038818186651"><ele>677.5</ele><time>2026-05-01T09:56:58.999Z</time></trkpt><trkpt lat="41.990485628851026" lon="13.438106577475414"><ele>675.25</ele><time>2026-05-01T09:56:59.999Z</time></trkpt><trkpt lat="41.990536915612296" lon="13.438209976014837"><ele>673.0</ele><time>2026-05-01T09:57:00.999Z</time></trkpt><trkpt lat="41.990585357971604" lon="13.43834442147839"><ele>673.0</ele><time>2026-05-01T09:57:01.999Z</time></trkpt><trkpt lat="41.99065801204443" lon="13.438467867550466"><ele>673.0</ele><time>2026-05-01T09:57:02.999Z</time></trkpt><trkpt lat="41.9907217882509" lon="13.43858920679152"><ele>673.0</ele><time>2026-05-01T09:57:03.999Z</time></trkpt><trkpt lat="41.99079870484361" lon="13.438720298449184"><ele>673.0</ele><time>2026-05-01T09:57:04.999Z</time></trkpt><trkpt lat="41.99086811002267" lon="13.43884696677794"><ele>672.4</ele><time>2026-05-01T09:57:05.999Z</time></trkpt><trkpt lat="41.99093329534082" lon="13.438968909503108"><ele>671.8</ele><time>2026-05-01T09:57:06.999Z</time></trkpt><trkpt lat="41.990990681017266" lon="13.43909161289157"><ele>671.2</ele><time>2026-05-01T09:57:07.999Z</time></trkpt><trkpt lat="41.9910410408458" lon="13.43921629948527"><ele>670.6</ele><time>2026-05-01T09:57:08.999Z</time></trkpt><trkpt lat="41.99109399943446" lon="13.439348953452145"><ele>670.0</ele><time>2026-05-01T09:57:09.999Z</time></trkpt><trkpt lat="41.99114165712898" lon="13.439484503363964"><ele>670.0</ele><time>2026-05-01T09:57:10.999Z</time></trkpt><trkpt lat="41.99116448532222" lon="13.439614404223757"><ele>670.0</ele><time>2026-05-01T09:57:11.999Z</time></trkpt><trkpt lat="41.99121268557519" lon="13.439752498747616"><ele>670.0</ele><time>2026-05-01T09:57:12.999Z</time></trkpt><trkpt lat="41.99126527349506" lon="13.439892695893915"><ele>670.0</ele><time>2026-05-01T09:57:13.998Z</time></trkpt><trkpt lat="41.991313258559224" lon="13.440036969133663"><ele>670.0</ele><time>2026-05-01T09:57:14.998Z</time></trkpt><trkpt lat="41.99135785059423" lon="13.440179285197377"><ele>669.75</ele><time>2026-05-01T09:57:15.998Z</time></trkpt><trkpt lat="41.99140417579216" lon="13.440318480874714"><ele>669.5</ele><time>2026-05-01T09:57:16.998Z</time></trkpt><trkpt lat="41.99145293322962" lon="13.440462044654621"><ele>669.25</ele><time>2026-05-01T09:57:17.998Z</time></trkpt><trkpt lat="41.99150920070067" lon="13.440607085017039"><ele>669.0</ele><time>2026-05-01T09:57:18.998Z</time></trkpt><trkpt lat="41.99156345817404" lon="13.440750702466369"><ele>668.5</ele><time>2026-05-01T09:57:19.998Z</time></trkpt><trkpt lat="41.991608954043286" lon="13.44089188847958"><ele>668.0</ele><time>2026-05-01T09:57:20.998Z</time></trkpt><trkpt lat="41.991657422882156" lon="13.441039550796793"><ele>667.5</ele><time>2026-05-01T09:57:21.998Z</time></trkpt><trkpt lat="41.991702384612225" lon="13.441186321770715"><ele>667.0</ele><time>2026-05-01T09:57:22.998Z</time></trkpt><trkpt lat="41.99174560932534" lon="13.441336082176242"><ele>666.75</ele><time>2026-05-01T09:57:23.998Z</time></trkpt><trkpt lat="41.99179680601868" lon="13.44147981976013"><ele>666.5</ele><time>2026-05-01T09:57:24.998Z</time></trkpt><trkpt lat="41.991855447467785" lon="13.441613543769652"><ele>666.25</ele><time>2026-05-01T09:57:25.998Z</time></trkpt><trkpt lat="41.99191289900661" lon="13.441747856810096"><ele>666.0</ele><time>2026-05-01T09:57:26.998Z</time></trkpt><trkpt lat="41.99195845741406" lon="13.441895169184404"><ele>666.0</ele><time>2026-05-01T09:57:27.998Z</time></trkpt><trkpt lat="41.991998292641725" lon="13.442046402149472"><ele>666.0</ele><time>2026-05-01T09:57:28.998Z</time></trkpt><trkpt lat="41.99203857132485" lon="13.442188450407562"><ele>666.0</ele><time>2026-05-01T09:57:29.998Z</time></trkpt><trkpt lat="41.9920813711182" lon="13.442330844199311"><ele>666.0</ele><time>2026-05-01T09:57:30.998Z</time></trkpt><trkpt lat="41.99213270082023" lon="13.44247461467723"><ele>665.75</ele><time>2026-05-01T09:57:31.998Z</time></trkpt><trkpt lat="41.99218932852116" lon="13.44262128760731"><ele>665.5</ele><time>2026-05-01T09:57:32.998Z</time></trkpt><trkpt lat="41.99223932537349" lon="13.442771131128762"><ele>665.25</ele><time>2026-05-01T09:57:33.998Z</time></trkpt><trkpt lat="41.99228723217681" lon="13.442924125175928"><ele>665.0</ele><time>2026-05-01T09:57:34.998Z</time></trkpt><trkpt lat="41.99233696161626" lon="13.443064484871824"><ele>665.4</ele><time>2026-05-01T09:57:35.998Z</time></trkpt><trkpt lat="41.99238607979325" lon="13.443190236389322"><ele>665.8</ele><time>2026-05-01T09:57:36.998Z</time></trkpt><trkpt lat="41.992418666297624" lon="13.443308896806865"><ele>666.2</ele><time>2026-05-01T09:57:38Z</time></trkpt><trkpt lat="41.9924412651647" lon="13.443419341136964"><ele>666.6</ele><time>2026-05-01T09:57:39Z</time></trkpt><trkpt lat="41.992451327503744" lon="13.443523613517492"><ele>667.0</ele><time>2026-05-01T09:57:40Z</time></trkpt><trkpt lat="41.9924665669552" lon="13.443671663972724"><ele>667.0</ele><time>2026-05-01T09:57:42Z</time></trkpt><trkpt lat="41.99250326426029" lon="13.443760137190058"><ele>667.0</ele><time>2026-05-01T09:57:44Z</time></trkpt><trkpt lat="41.99256980160694" lon="13.443774859997141"><ele>667.0</ele><time>2026-05-01T09:57:45Z</time></trkpt><trkpt lat="41.99261847679407" lon="13.443833757602997"><ele>667.0</ele><time>2026-05-01T09:57:46Z</time></trkpt><trkpt lat="41.992661131816995" lon="13.443944047173202"><ele>667.0</ele><time>2026-05-01T09:57:47Z</time></trkpt><trkpt lat="41.99269488409785" lon="13.444079849127926"><ele>667.0</ele><time>2026-05-01T09:57:48Z</time></trkpt><trkpt lat="41.992719578925254" lon="13.444179912709247"><ele>666.8</ele><time>2026-05-01T09:57:49Z</time></trkpt><trkpt lat="41.992744134451016" lon="13.444271240217901"><ele>666.6</ele><time>2026-05-01T09:57:50Z</time></trkpt><trkpt lat="41.99276685936197" lon="13.44437842443451"><ele>666.4</ele><time>2026-05-01T09:57:51Z</time></trkpt><trkpt lat="41.99280073138899" lon="13.444495793829406"><ele>666.1999999999999</ele><time>2026-05-01T09:57:52Z</time></trkpt><trkpt lat="41.99283518982244" lon="13.44464746419267"><ele>666.0</ele><time>2026-05-01T09:57:53Z</time></trkpt><trkpt lat="41.99287367019295" lon="13.444785361676255"><ele>665.5</ele><time>2026-05-01T09:57:54Z</time></trkpt><trkpt lat="41.99291816164601" lon="13.44493573395003"><ele>665.0</ele><time>2026-05-01T09:57:55Z</time></trkpt><trkpt lat="41.99296762311882" lon="13.445104758035919"><ele>664.5</ele><time>2026-05-01T09:57:56Z</time></trkpt><trkpt lat="41.993018484492346" lon="13.445284498118534"><ele>664.0</ele><time>2026-05-01T09:57:57Z</time></trkpt><trkpt lat="41.993071094834406" lon="13.44547797193057"><ele>664.0</ele><time>2026-05-01T09:57:58Z</time></trkpt><trkpt lat="41.99312244522197" lon="13.445674978572683"><ele>664.0</ele><time>2026-05-01T09:57:59Z</time></trkpt><trkpt lat="41.993174302025515" lon="13.445884743996"><ele>664.0</ele><time>2026-05-01T09:58:00Z</time></trkpt><trkpt lat="41.99322566499064" lon="13.446079002621504"><ele>664.0</ele><time>2026-05-01T09:58:01Z</time></trkpt><trkpt lat="41.99328400322262" lon="13.446293888216948"><ele>664.0</ele><time>2026-05-01T09:58:02Z</time></trkpt><trkpt lat="41.99335197840091" lon="13.446529346412017"><ele>664.0</ele><time>2026-05-01T09:58:03Z</time></trkpt><trkpt lat="41.99341594126922" lon="13.446759984425166"><ele>663.6666666666667</ele><time>2026-05-01T09:58:04Z</time></trkpt><trkpt lat="41.9934840018182" lon="13.446989464840584"><ele>663.3333333333334</ele><time>2026-05-01T09:58:05Z</time></trkpt><trkpt lat="41.99354972377876" lon="13.44721776911274"><ele>663.0</ele><time>2026-05-01T09:58:06Z</time></trkpt><trkpt lat="41.99361272788456" lon="13.447455797210916"><ele>662.6666666666666</ele><time>2026-05-01T09:58:07Z</time></trkpt><trkpt lat="41.993671153132325" lon="13.447695171709343"><ele>662.3333333333333</ele><time>2026-05-01T09:58:08Z</time></trkpt><trkpt lat="41.99373728408392" lon="13.447942719255064"><ele>662.0</ele><time>2026-05-01T09:58:09Z</time></trkpt><trkpt lat="41.99380830159041" lon="13.44819115734005"><ele>662.0</ele><time>2026-05-01T09:58:10Z</time></trkpt><trkpt lat="41.9938732186238" lon="13.448440981732732"><ele>662.0</ele><time>2026-05-01T09:58:11Z</time></trkpt><trkpt lat="41.99393762099293" lon="13.4486953604485"><ele>662.0</ele><time>2026-05-01T09:58:12Z</time></trkpt><trkpt lat="41.994012779954595" lon="13.44895487916332"><ele>662.0</ele><time>2026-05-01T09:58:13Z</time></trkpt><trkpt lat="41.99408760220146" lon="13.449206194684711"><ele>662.0</ele><time>2026-05-01T09:58:14Z</time></trkpt><trkpt lat="41.9941522125788" lon="13.449451518644837"><ele>662.0</ele><time>2026-05-01T09:58:15Z</time></trkpt><trkpt lat="41.99420966262128" lon="13.449692747866004"><ele>662.0</ele><time>2026-05-01T09:58:16Z</time></trkpt><trkpt lat="41.994219507800445" lon="13.44995188815893"><ele>662.0</ele><time>2026-05-01T09:58:17Z</time></trkpt><trkpt lat="41.99422354197387" lon="13.450207019120299"><ele>662.0</ele><time>2026-05-01T09:58:18Z</time></trkpt><trkpt lat="41.994224715547176" lon="13.450456352831498"><ele>662.0</ele><time>2026-05-01T09:58:19Z</time></trkpt><trkpt lat="41.99422870960961" lon="13.450744554911495"><ele>662.0</ele><time>2026-05-01T09:58:20Z</time></trkpt><trkpt lat="41.99423543285706" lon="13.451024202614104"><ele>662.0</ele><time>2026-05-01T09:58:21Z</time></trkpt><trkpt lat="41.99424275845987" lon="13.451322575776443"><ele>661.3333333333333</ele><time>2026-05-01T09:58:22Z</time></trkpt><trkpt lat="41.99424904399071" lon="13.451619757110603"><ele>660.6666666666666</ele><time>2026-05-01T09:58:23Z</time></trkpt><trkpt lat="41.994252917615974" lon="13.451923406356558"><ele>660.0</ele><time>2026-05-01T09:58:24Z</time></trkpt><trkpt lat="41.994256827087405" lon="13.452229865631754"><ele>660.0</ele><time>2026-05-01T09:58:25Z</time></trkpt><trkpt lat="41.994261564827646" lon="13.452534579322487"><ele>660.0</ele><time>2026-05-01T09:58:26Z</time></trkpt><trkpt lat="41.994266410920766" lon="13.452841528691586"><ele>659.5</ele><time>2026-05-01T09:58:27Z</time></trkpt><trkpt lat="41.99427180023735" lon="13.45315186179927"><ele>659.0</ele><time>2026-05-01T09:58:27.999Z</time></trkpt><trkpt lat="41.99427720646039" lon="13.453463168483287"><ele>659.0</ele><time>2026-05-01T09:58:28.999Z</time></trkpt><trkpt lat="41.994282679706835" lon="13.453778334550686"><ele>659.0</ele><time>2026-05-01T09:58:29.999Z</time></trkpt><trkpt lat="41.99428820466938" lon="13.454096478555819"><ele>659.0</ele><time>2026-05-01T09:58:30.999Z</time></trkpt><trkpt lat="41.99429310485844" lon="13.45441709719609"><ele>659.0</ele><time>2026-05-01T09:58:31.999Z</time></trkpt><trkpt lat="41.99429713723594" lon="13.454741990604534"><ele>658.0</ele><time>2026-05-01T09:58:32.999Z</time></trkpt><trkpt lat="41.994302218746704" lon="13.455068867996053"><ele>657.0</ele><time>2026-05-01T09:58:33.999Z</time></trkpt><trkpt lat="41.99430767321771" lon="13.455398044399434"><ele>657.5</ele><time>2026-05-01T09:58:34.999Z</time></trkpt><trkpt lat="41.99431310616001" lon="13.455730506516979"><ele>658.0</ele><time>2026-05-01T09:58:35.999Z</time></trkpt><trkpt lat="41.99431811443144" lon="13.456061793429186"><ele>658.5</ele><time>2026-05-01T09:58:36.999Z</time></trkpt><trkpt lat="41.994322327916166" lon="13.456396204487973"><ele>659.0</ele><time>2026-05-01T09:58:37.999Z</time></trkpt><trkpt lat="41.99432650541657" lon="13.456727759706986"><ele>659.0</ele><time>2026-05-01T09:58:38.999Z</time></trkpt><trkpt lat="41.99433067160192" lon="13.457058416842145"><ele>659.0</ele><time>2026-05-01T09:58:39.999Z</time></trkpt><trkpt lat="41.99433535026839" lon="13.457390573917902"><ele>659.0</ele><time>2026-05-01T09:58:40.999Z</time></trkpt><trkpt lat="41.99434132544122" lon="13.457727187107714"><ele>659.0</ele><time>2026-05-01T09:58:41.999Z</time></trkpt><trkpt lat="41.99434725294226" lon="13.458061114579422"><ele>659.0</ele><time>2026-05-01T09:58:42.999Z</time></trkpt><trkpt lat="41.99435303502802" lon="13.458394396475637"><ele>659.0</ele><time>2026-05-01T09:58:43.999Z</time></trkpt><trkpt lat="41.99435866954612" lon="13.458729650355533"><ele>658.0</ele><time>2026-05-01T09:58:44.999Z</time></trkpt><trkpt lat="41.99436510805258" lon="13.459060925960614"><ele>657.0</ele><time>2026-05-01T09:58:45.999Z</time></trkpt><trkpt lat="41.994372612998106" lon="13.45939496089082"><ele>656.5</ele><time>2026-05-01T09:58:46.999Z</time></trkpt><trkpt lat="41.99438013217331" lon="13.459729629299328"><ele>656.0</ele><time>2026-05-01T09:58:47.999Z</time></trkpt><trkpt lat="41.99438767484728" lon="13.460065343534751"><ele>656.0</ele><time>2026-05-01T09:58:48.999Z</time></trkpt><trkpt lat="41.99439385708848" lon="13.460399833644905"><ele>656.0</ele><time>2026-05-01T09:58:49.999Z</time></trkpt><trkpt lat="41.99441549529771" lon="13.460734560628167"><ele>656.0</ele><time>2026-05-01T09:58:50.999Z</time></trkpt><trkpt lat="41.99441898680441" lon="13.461070491189373"><ele>656.0</ele><time>2026-05-01T09:58:51.999Z</time></trkpt><trkpt lat="41.99442569743874" lon="13.46140781930463"><ele>656.0</ele><time>2026-05-01T09:58:52.999Z</time></trkpt><trkpt lat="41.994414086734125" lon="13.46174607811476"><ele>656.0</ele><time>2026-05-01T09:58:53.999Z</time></trkpt><trkpt lat="41.9944213075578" lon="13.462085122768052"><ele>656.0</ele><time>2026-05-01T09:58:54.999Z</time></trkpt><trkpt lat="41.99442811655349" lon="13.462423573360528"><ele>656.0</ele><time>2026-05-01T09:58:55.999Z</time></trkpt><trkpt lat="41.9944344509093" lon="13.462761460357413"><ele>656.0</ele><time>2026-05-01T09:58:56.999Z</time></trkpt><trkpt lat="41.99444079148694" lon="13.46309967907218"><ele>656.0</ele><time>2026-05-01T09:58:57.999Z</time></trkpt><trkpt lat="41.99444713760046" lon="13.46343819327095"><ele>656.0</ele><time>2026-05-01T09:58:58.999Z</time></trkpt><trkpt lat="41.99447006834629" lon="13.463775593739596"><ele>656.0</ele><time>2026-05-01T09:58:59.999Z</time></trkpt><trkpt lat="41.99447559691168" lon="13.464114628798997"><ele>655.5</ele><time>2026-05-01T09:59:00.999Z</time></trkpt><trkpt lat="41.994465546471766" lon="13.464452764320239"><ele>655.0</ele><time>2026-05-01T09:59:01.999Z</time></trkpt><trkpt lat="41.99447131700211" lon="13.46479046187924"><ele>655.0</ele><time>2026-05-01T09:59:02.999Z</time></trkpt><trkpt lat="41.994477064119884" lon="13.465126789194155"><ele>655.0</ele><time>2026-05-01T09:59:03.999Z</time></trkpt><trkpt lat="41.99448179260384" lon="13.465463349769358"><ele>654.5</ele><time>2026-05-01T09:59:04.999Z</time></trkpt><trkpt lat="41.994486203291885" lon="13.465795964726757"><ele>654.0</ele><time>2026-05-01T09:59:05.999Z</time></trkpt><trkpt lat="41.99449085895255" lon="13.466127042942556"><ele>654.0</ele><time>2026-05-01T09:59:06.999Z</time></trkpt><trkpt lat="41.99451193620434" lon="13.466459487685114"><ele>654.0</ele><time>2026-05-01T09:59:07.999Z</time></trkpt><trkpt lat="41.99451577738729" lon="13.466794243398457"><ele>654.5</ele><time>2026-05-01T09:59:08.999Z</time></trkpt><trkpt lat="41.99452125919382" lon="13.467128171296109"><ele>655.0</ele><time>2026-05-01T09:59:09.999Z</time></trkpt><trkpt lat="41.99452883224461" lon="13.467460874473241"><ele>655.0</ele><time>2026-05-01T09:59:10.999Z</time></trkpt><trkpt lat="41.99451830583016" lon="13.467794653342077"><ele>655.0</ele><time>2026-05-01T09:59:11.999Z</time></trkpt><trkpt lat="41.99452423972728" lon="13.468127519542708"><ele>655.0</ele><time>2026-05-01T09:59:12.999Z</time></trkpt><trkpt lat="41.99454565679891" lon="13.46846067017602"><ele>655.0</ele><time>2026-05-01T09:59:13.999Z</time></trkpt><trkpt lat="41.99455106850174" lon="13.46879437213542"><ele>655.0</ele><time>2026-05-01T09:59:14.999Z</time></trkpt><trkpt lat="41.99455223922091" lon="13.469127518460244"><ele>655.0</ele><time>2026-05-01T09:59:15.999Z</time></trkpt><trkpt lat="41.99455865535286" lon="13.469462496781967"><ele>654.5</ele><time>2026-05-01T09:59:16.999Z</time></trkpt><trkpt lat="41.99456598749676" lon="13.469798176848682"><ele>654.0</ele><time>2026-05-01T09:59:17.999Z</time></trkpt><trkpt lat="41.99457110560735" lon="13.470135252266136"><ele>654.0</ele><time>2026-05-01T09:59:18.999Z</time></trkpt><trkpt lat="41.99457686121939" lon="13.470470735970864"><ele>654.0</ele><time>2026-05-01T09:59:19.999Z</time></trkpt><trkpt lat="41.9945829402187" lon="13.470812065055451"><ele>654.0</ele><time>2026-05-01T09:59:20.999Z</time></trkpt><trkpt lat="41.99459031529177" lon="13.471153311157183"><ele>654.0</ele><time>2026-05-01T09:59:21.998Z</time></trkpt><trkpt lat="41.99460113077968" lon="13.471492814858207"><ele>654.0</ele><time>2026-05-01T09:59:22.998Z</time></trkpt><trkpt lat="41.994607314666226" lon="13.471836746035363"><ele>654.0</ele><time>2026-05-01T09:59:23.998Z</time></trkpt><trkpt lat="41.994613709247815" lon="13.47218225872853"><ele>654.0</ele><time>2026-05-01T09:59:24.998Z</time></trkpt><trkpt lat="41.994618190395876" lon="13.472528008189968"><ele>654.0</ele><time>2026-05-01T09:59:25.998Z</time></trkpt><trkpt lat="41.99462373536202" lon="13.472875868955983"><ele>653.5</ele><time>2026-05-01T09:59:26.998Z</time></trkpt><trkpt lat="41.994628826662165" lon="13.473224410993216"><ele>653.0</ele><time>2026-05-01T09:59:27.998Z</time></trkpt><trkpt lat="41.99463174101843" lon="13.473572771624616"><ele>653.0</ele><time>2026-05-01T09:59:28.998Z</time></trkpt><trkpt lat="41.994637312400585" lon="13.473920738443919"><ele>653.0</ele><time>2026-05-01T09:59:29.998Z</time></trkpt><trkpt lat="41.994641885402885" lon="13.474266506168814"><ele>654.0</ele><time>2026-05-01T09:59:30.998Z</time></trkpt><trkpt lat="41.99464567150082" lon="13.474610972377533"><ele>655.0</ele><time>2026-05-01T09:59:31.998Z</time></trkpt><trkpt lat="41.99465014936991" lon="13.474954605918596"><ele>655.0</ele><time>2026-05-01T09:59:32.998Z</time></trkpt><trkpt lat="41.99465636853527" lon="13.475297601715459"><ele>655.0</ele><time>2026-05-01T09:59:33.998Z</time></trkpt><trkpt lat="41.994660926517405" lon="13.47563926583271"><ele>654.0</ele><time>2026-05-01T09:59:34.998Z</time></trkpt><trkpt lat="41.994667363067066" lon="13.475977127528555"><ele>653.0</ele><time>2026-05-01T09:59:35.998Z</time></trkpt><trkpt lat="41.99467346061055" lon="13.476315678090277"><ele>652.5</ele><time>2026-05-01T09:59:36.998Z</time></trkpt><trkpt lat="41.994677174567485" lon="13.476650635373147"><ele>652.0</ele><time>2026-05-01T09:59:37.998Z</time></trkpt><trkpt lat="41.99468232202175" lon="13.476987612358693"><ele>652.0</ele><time>2026-05-01T09:59:38.998Z</time></trkpt><trkpt lat="41.99468830473192" lon="13.477323913463797"><ele>652.0</ele><time>2026-05-01T09:59:39.998Z</time></trkpt><trkpt lat="41.994696664911764" lon="13.47765820235232"><ele>652.0</ele><time>2026-05-01T09:59:40.998Z</time></trkpt><trkpt lat="41.99470307278637" lon="13.477992434144916"><ele>652.0</ele><time>2026-05-01T09:59:41.998Z</time></trkpt><trkpt lat="41.99470858684903" lon="13.478326016073249"><ele>652.0</ele><time>2026-05-01T09:59:42.998Z</time></trkpt><trkpt lat="41.99471461885609" lon="13.478660784412643"><ele>652.0</ele><time>2026-05-01T09:59:44Z</time></trkpt><trkpt lat="41.99471926866345" lon="13.478996066924784"><ele>652.0</ele><time>2026-05-01T09:59:45Z</time></trkpt><trkpt lat="41.994723467342396" lon="13.479331760317102"><ele>652.0</ele><time>2026-05-01T09:59:46Z</time></trkpt><trkpt lat="41.99472725899177" lon="13.479666585060057"><ele>652.0</ele><time>2026-05-01T09:59:47Z</time></trkpt><trkpt lat="41.99473343531787" lon="13.480001944406002"><ele>652.0</ele><time>2026-05-01T09:59:48Z</time></trkpt><trkpt lat="41.99474069419597" lon="13.480336842029423"><ele>653.0</ele><time>2026-05-01T09:59:49Z</time></trkpt><trkpt lat="41.99474630091727" lon="13.480673752898413"><ele>654.0</ele><time>2026-05-01T09:59:50Z</time></trkpt><trkpt lat="41.99475378173274" lon="13.481013065079436"><ele>653.5</ele><time>2026-05-01T09:59:51Z</time></trkpt><trkpt lat="41.994761590716216" lon="13.4813514881636"><ele>653.0</ele><time>2026-05-01T09:59:52Z</time></trkpt><trkpt lat="41.99477005517075" lon="13.481693699101111"><ele>653.0</ele><time>2026-05-01T09:59:53Z</time></trkpt><trkpt lat="41.99477571691787" lon="13.482034186702414"><ele>653.0</ele><time>2026-05-01T09:59:54Z</time></trkpt><trkpt lat="41.99477995236778" lon="13.48237239184246"><ele>653.0</ele><time>2026-05-01T09:59:55Z</time></trkpt><trkpt lat="41.994783438582544" lon="13.482710517365064"><ele>653.0</ele><time>2026-05-01T09:59:56Z</time></trkpt><trkpt lat="41.99478785841055" lon="13.483047069554642"><ele>653.0</ele><time>2026-05-01T09:59:57Z</time></trkpt><trkpt lat="41.99479521913019" lon="13.483382223053782"><ele>653.0</ele><time>2026-05-01T09:59:58Z</time></trkpt><trkpt lat="41.99480196545471" lon="13.483718476884935"><ele>653.0</ele><time>2026-05-01T09:59:59Z</time></trkpt><trkpt lat="41.994808299396226" lon="13.484054195758143"><ele>653.0</ele><time>2026-05-01T10:00:00Z</time></trkpt><trkpt lat="41.99481386658136" lon="13.484389534885132"><ele>653.5</ele><time>2026-05-01T10:00:01Z</time></trkpt><trkpt lat="41.994819750693594" lon="13.484724444736424"><ele>654.0</ele><time>2026-05-01T10:00:02Z</time></trkpt><trkpt lat="41.99482637923688" lon="13.485059084773148"><ele>654.0</ele><time>2026-05-01T10:00:03Z</time></trkpt><trkpt lat="41.99483249776474" lon="13.485391611641845"><ele>654.0</ele><time>2026-05-01T10:00:04Z</time></trkpt><trkpt lat="41.994839502891175" lon="13.4857251674208"><ele>653.0</ele><time>2026-05-01T10:00:05Z</time></trkpt><trkpt lat="41.99484402303149" lon="13.486057653783861"><ele>652.0</ele><time>2026-05-01T10:00:06Z</time></trkpt><trkpt lat="41.99485147200302" lon="13.486390837714747"><ele>652.0</ele><time>2026-05-01T10:00:07Z</time></trkpt><trkpt lat="41.9948583804605" lon="13.48672350761711"><ele>652.0</ele><time>2026-05-01T10:00:08Z</time></trkpt><trkpt lat="41.994862972729095" lon="13.48705375334206"><ele>652.5</ele><time>2026-05-01T10:00:09Z</time></trkpt><trkpt lat="41.99486923903605" lon="13.487381336051191"><ele>653.0</ele><time>2026-05-01T10:00:10Z</time></trkpt><trkpt lat="41.99487520813507" lon="13.487710010847358"><ele>652.5</ele><time>2026-05-01T10:00:11Z</time></trkpt><trkpt lat="41.99488399072392" lon="13.488036209749636"><ele>652.0</ele><time>2026-05-01T10:00:12Z</time></trkpt><trkpt lat="41.994890895660156" lon="13.488360529998756"><ele>652.0</ele><time>2026-05-01T10:00:13Z</time></trkpt><trkpt lat="41.99489723582998" lon="13.488679084526291"><ele>652.0</ele><time>2026-05-01T10:00:14Z</time></trkpt><trkpt lat="41.99490279935679" lon="13.488993766075502"><ele>651.5</ele><time>2026-05-01T10:00:15Z</time></trkpt><trkpt lat="41.994908112568915" lon="13.48930067543621"><ele>651.0</ele><time>2026-05-01T10:00:16Z</time></trkpt><trkpt lat="41.99491084266086" lon="13.48960139431781"><ele>651.0</ele><time>2026-05-01T10:00:17Z</time></trkpt><trkpt lat="41.99489721967603" lon="13.489889429492251"><ele>651.0</ele><time>2026-05-01T10:00:18Z</time></trkpt><trkpt lat="41.99486831853643" lon="13.49016127010727"><ele>651.0</ele><time>2026-05-01T10:00:19Z</time></trkpt><trkpt lat="41.994821627723866" lon="13.490417690988505"><ele>651.0</ele><time>2026-05-01T10:00:20Z</time></trkpt><trkpt lat="41.994765084992174" lon="13.490662463947386"><ele>651.0</ele><time>2026-05-01T10:00:21Z</time></trkpt><trkpt lat="41.99471433567908" lon="13.49088375083419"><ele>651.0</ele><time>2026-05-01T10:00:22Z</time></trkpt><trkpt lat="41.99467597048468" lon="13.491090477983589"><ele>651.0</ele><time>2026-05-01T10:00:23Z</time></trkpt><trkpt lat="41.99464657837712" lon="13.491280914911037"><ele>651.0</ele><time>2026-05-01T10:00:24Z</time></trkpt><trkpt lat="41.994622477424" lon="13.491451883464027"><ele>651.0</ele><time>2026-05-01T10:00:25Z</time></trkpt><trkpt lat="41.99459218749059" lon="13.491609272300046"><ele>651.0</ele><time>2026-05-01T10:00:26Z</time></trkpt><trkpt lat="41.994549775273775" lon="13.49174584309094"><ele>651.0</ele><time>2026-05-01T10:00:27Z</time></trkpt><trkpt lat="41.99447118708599" lon="13.4918395444131"><ele>651.0</ele><time>2026-05-01T10:00:28Z</time></trkpt><trkpt lat="41.994428698838895" lon="13.491976499105581"><ele>651.0</ele><time>2026-05-01T10:00:29Z</time></trkpt><trkpt lat="41.99444198504701" lon="13.492097061096644"><ele>651.0</ele><time>2026-05-01T10:00:30Z</time></trkpt><trkpt lat="41.99445303504605" lon="13.492195923726094"><ele>651.0</ele><time>2026-05-01T10:00:31Z</time></trkpt><trkpt lat="41.994545768753525" lon="13.492257939306464"><ele>651.0</ele><time>2026-05-01T10:00:32Z</time></trkpt><trkpt lat="41.994582143044276" lon="13.492418743241382"><ele>651.0</ele><time>2026-05-01T10:00:33Z</time></trkpt><trkpt lat="41.994659412705836" lon="13.492527345186708"><ele>651.0</ele><time>2026-05-01T10:00:34Z</time></trkpt><trkpt lat="41.99462412879696" lon="13.492761812337548"><ele>651.0</ele><time>2026-05-01T10:00:34.999Z</time></trkpt><trkpt lat="41.99465391600224" lon="13.492954131535331"><ele>651.6666666666666</ele><time>2026-05-01T10:00:35.999Z</time></trkpt><trkpt lat="41.994707541433534" lon="13.493145245335507"><ele>652.3333333333333</ele><time>2026-05-01T10:00:36.999Z</time></trkpt><trkpt lat="41.99476782543285" lon="13.493345903848063"><ele>653.0</ele><time>2026-05-01T10:00:37.999Z</time></trkpt><trkpt lat="41.99483426116685" lon="13.493558900486224"><ele>652.6666666666666</ele><time>2026-05-01T10:00:38.999Z</time></trkpt><trkpt lat="41.99489360219237" lon="13.493773111950983"><ele>652.3333333333334</ele><time>2026-05-01T10:00:39.999Z</time></trkpt><trkpt lat="41.99493646191406" lon="13.494000766820685"><ele>652.0</ele><time>2026-05-01T10:00:40.999Z</time></trkpt><trkpt lat="41.994950060737295" lon="13.494241084706404"><ele>652.0</ele><time>2026-05-01T10:00:41.999Z</time></trkpt><trkpt lat="41.99494572873127" lon="13.494492814509774"><ele>652.0</ele><time>2026-05-01T10:00:42.999Z</time></trkpt><trkpt lat="41.99495618352551" lon="13.494746605909956"><ele>652.0</ele><time>2026-05-01T10:00:43.999Z</time></trkpt><trkpt lat="41.99496950425583" lon="13.494993340201983"><ele>652.0</ele><time>2026-05-01T10:00:44.999Z</time></trkpt><trkpt lat="41.99497665517358" lon="13.49524559193183"><ele>652.0</ele><time>2026-05-01T10:00:45.999Z</time></trkpt><trkpt lat="41.994985597647684" lon="13.495498705535448"><ele>652.0</ele><time>2026-05-01T10:00:46.999Z</time></trkpt><trkpt lat="41.994993975708525" lon="13.495750241394964"><ele>651.6666666666667</ele><time>2026-05-01T10:00:47.999Z</time></trkpt><trkpt lat="41.9949983797755" lon="13.496005713188296"><ele>651.3333333333334</ele><time>2026-05-01T10:00:48.999Z</time></trkpt><trkpt lat="41.99500552933639" lon="13.496266749787125"><ele>651.0</ele><time>2026-05-01T10:00:49.999Z</time></trkpt><trkpt lat="41.99501434361012" lon="13.496533281035525"><ele>651.0</ele><time>2026-05-01T10:00:50.999Z</time></trkpt><trkpt lat="41.99501791634963" lon="13.496804265097492"><ele>651.0</ele><time>2026-05-01T10:00:51.999Z</time></trkpt><trkpt lat="41.99502147367945" lon="13.497078636323918"><ele>651.0</ele><time>2026-05-01T10:00:52.999Z</time></trkpt><trkpt lat="41.99502620436631" lon="13.497357256429272"><ele>651.3333333333334</ele><time>2026-05-01T10:00:53.999Z</time></trkpt><trkpt lat="41.99503255666403" lon="13.497640463604105"><ele>651.6666666666667</ele><time>2026-05-01T10:00:54.999Z</time></trkpt><trkpt lat="41.995039558756716" lon="13.497926806597953"><ele>652.0</ele><time>2026-05-01T10:00:55.999Z</time></trkpt><trkpt lat="41.995045607120915" lon="13.498216374263208"><ele>652.0</ele><time>2026-05-01T10:00:56.999Z</time></trkpt><trkpt lat="41.99505214585524" lon="13.498509719199902"><ele>652.0</ele><time>2026-05-01T10:00:57.999Z</time></trkpt><trkpt lat="41.99505539478545" lon="13.49880507579256"><ele>652.0</ele><time>2026-05-01T10:00:58.999Z</time></trkpt><trkpt lat="41.995057118703805" lon="13.499104290298497"><ele>651.5</ele><time>2026-05-01T10:00:59.999Z</time></trkpt><trkpt lat="41.995056502540464" lon="13.49940703074196"><ele>651.0</ele><time>2026-05-01T10:01:00.999Z</time></trkpt><trkpt lat="41.995058416821436" lon="13.499709551420297"><ele>651.0</ele><time>2026-05-01T10:01:01.999Z</time></trkpt><trkpt lat="41.995065312239674" lon="13.50001116651958"><ele>651.0</ele><time>2026-05-01T10:01:02.999Z</time></trkpt><trkpt lat="41.99507290336684" lon="13.500313051614208"><ele>651.0</ele><time>2026-05-01T10:01:03.999Z</time></trkpt><trkpt lat="41.99507907655921" lon="13.500614668775352"><ele>651.3333333333334</ele><time>2026-05-01T10:01:04.999Z</time></trkpt><trkpt lat="41.99507988294021" lon="13.500916418126348"><ele>651.6666666666667</ele><time>2026-05-01T10:01:05.999Z</time></trkpt><trkpt lat="41.99507818568326" lon="13.50121915601245"><ele>652.0</ele><time>2026-05-01T10:01:06.999Z</time></trkpt><trkpt lat="41.9950752981535" lon="13.501521704459142"><ele>652.0</ele><time>2026-05-01T10:01:07.999Z</time></trkpt><trkpt lat="41.99507055335295" lon="13.501825796612845"><ele>652.0</ele><time>2026-05-01T10:01:08.999Z</time></trkpt><trkpt lat="41.99504608310826" lon="13.502128860561298"><ele>652.0</ele><time>2026-05-01T10:01:09.999Z</time></trkpt><trkpt lat="41.99506342579393" lon="13.502434142214254"><ele>652.0</ele><time>2026-05-01T10:01:10.999Z</time></trkpt><trkpt lat="41.99506041495515" lon="13.502739400822092"><ele>652.0</ele><time>2026-05-01T10:01:11.999Z</time></trkpt><trkpt lat="41.99505967939832" lon="13.503045999321152"><ele>652.0</ele><time>2026-05-01T10:01:12.999Z</time></trkpt><trkpt lat="41.99506160551927" lon="13.503352428412263"><ele>652.0</ele><time>2026-05-01T10:01:13.999Z</time></trkpt><trkpt lat="41.995063600313564" lon="13.50365956770838"><ele>652.0</ele><time>2026-05-01T10:01:14.999Z</time></trkpt><trkpt lat="41.99506755667776" lon="13.503969706487041"><ele>652.0</ele><time>2026-05-01T10:01:15.999Z</time></trkpt><trkpt lat="41.995071346101234" lon="13.504277893558447"><ele>652.0</ele><time>2026-05-01T10:01:16.999Z</time></trkpt><trkpt lat="41.99507783326898" lon="13.504584861529084"><ele>651.5</ele><time>2026-05-01T10:01:17.999Z</time></trkpt><trkpt lat="41.99508135163751" lon="13.504894194973295"><ele>651.0</ele><time>2026-05-01T10:01:18.999Z</time></trkpt><trkpt lat="41.995082497413726" lon="13.50520414228241"><ele>651.0</ele><time>2026-05-01T10:01:19.999Z</time></trkpt><trkpt lat="41.99508783248741" lon="13.50551436004714"><ele>651.0</ele><time>2026-05-01T10:01:20.999Z</time></trkpt><trkpt lat="41.99509632295866" lon="13.505826401177579"><ele>651.0</ele><time>2026-05-01T10:01:21.999Z</time></trkpt><trkpt lat="41.99510699249903" lon="13.506138118711517"><ele>651.0</ele><time>2026-05-01T10:01:22.999Z</time></trkpt><trkpt lat="41.995124681332655" lon="13.506449574214129"><ele>651.5</ele><time>2026-05-01T10:01:23.999Z</time></trkpt><trkpt lat="41.995142509615626" lon="13.50676220390753"><ele>652.0</ele><time>2026-05-01T10:01:24.999Z</time></trkpt><trkpt lat="41.99516099042696" lon="13.507075004674578"><ele>652.0</ele><time>2026-05-01T10:01:25.999Z</time></trkpt><trkpt lat="41.99517066022461" lon="13.507387316522443"><ele>652.0</ele><time>2026-05-01T10:01:26.999Z</time></trkpt><trkpt lat="41.99517462212761" lon="13.507701037385598"><ele>652.5</ele><time>2026-05-01T10:01:27.999Z</time></trkpt><trkpt lat="41.99517732582556" lon="13.508015089724998"><ele>653.0</ele><time>2026-05-01T10:01:28.999Z</time></trkpt><trkpt lat="41.99518249474512" lon="13.508328566561293"><ele>653.0</ele><time>2026-05-01T10:01:29.998Z</time></trkpt><trkpt lat="41.99518777636437" lon="13.5086396383858"><ele>653.0</ele><time>2026-05-01T10:01:30.998Z</time></trkpt><trkpt lat="41.995191277359396" lon="13.50895154388398"><ele>652.5</ele><time>2026-05-01T10:01:31.998Z</time></trkpt><trkpt lat="41.99519508725016" lon="13.509264386458913"><ele>652.0</ele><time>2026-05-01T10:01:32.998Z</time></trkpt><trkpt lat="41.995202789232074" lon="13.509578334100818"><ele>651.5</ele><time>2026-05-01T10:01:33.998Z</time></trkpt><trkpt lat="41.9952091175955" lon="13.509891706623428"><ele>651.0</ele><time>2026-05-01T10:01:34.998Z</time></trkpt><trkpt lat="41.995214598790426" lon="13.510203682627836"><ele>651.5</ele><time>2026-05-01T10:01:35.998Z</time></trkpt><trkpt lat="41.99522102832529" lon="13.510516973289683"><ele>652.0</ele><time>2026-05-01T10:01:36.998Z</time></trkpt><trkpt lat="41.99522855242987" lon="13.510832239514235"><ele>652.0</ele><time>2026-05-01T10:01:37.998Z</time></trkpt><trkpt lat="41.99523609766758" lon="13.511147051775907"><ele>652.0</ele><time>2026-05-01T10:01:38.998Z</time></trkpt><trkpt lat="41.995244963993336" lon="13.511462363505181"><ele>651.5</ele><time>2026-05-01T10:01:39.998Z</time></trkpt><trkpt lat="41.99525400117184" lon="13.51177779805008"><ele>651.0</ele><time>2026-05-01T10:01:40.998Z</time></trkpt><trkpt lat="41.99526298302595" lon="13.512093227062413"><ele>650.5</ele><time>2026-05-01T10:01:41.998Z</time></trkpt><trkpt lat="41.99527007502758" lon="13.512406917163108"><ele>650.0</ele><time>2026-05-01T10:01:42.998Z</time></trkpt><trkpt lat="41.99527468859664" lon="13.512720181857508"><ele>651.0</ele><time>2026-05-01T10:01:43.998Z</time></trkpt><trkpt lat="41.99528113343418" lon="13.513033275933713"><ele>652.0</ele><time>2026-05-01T10:01:44.998Z</time></trkpt><trkpt lat="41.99528171568024" lon="13.513347067365173"><ele>652.0</ele><time>2026-05-01T10:01:45.998Z</time></trkpt><trkpt lat="41.9952809037561" lon="13.513661292390712"><ele>652.0</ele><time>2026-05-01T10:01:46.998Z</time></trkpt><trkpt lat="41.99527673358952" lon="13.513975000553959"><ele>652.0</ele><time>2026-05-01T10:01:47.998Z</time></trkpt><trkpt lat="41.99526912858033" lon="13.514289384419945"><ele>652.0</ele><time>2026-05-01T10:01:48.998Z</time></trkpt><trkpt lat="41.99525900293251" lon="13.514604191083189"><ele>652.0</ele><time>2026-05-01T10:01:50Z</time></trkpt><trkpt lat="41.99525019641892" lon="13.514919940241557"><ele>652.0</ele><time>2026-05-01T10:01:51Z</time></trkpt><trkpt lat="41.995245195978065" lon="13.515237243296221"><ele>652.0</ele><time>2026-05-01T10:01:52Z</time></trkpt><trkpt lat="41.99524495490979" lon="13.51555717860138"><ele>652.0</ele><time>2026-05-01T10:01:53Z</time></trkpt><trkpt lat="41.9952484122689" lon="13.515876908767506"><ele>652.0</ele><time>2026-05-01T10:01:54Z</time></trkpt><trkpt lat="41.99525325308702" lon="13.516196794050387"><ele>652.0</ele><time>2026-05-01T10:01:55Z</time></trkpt><trkpt lat="41.99525813191908" lon="13.516517017512433"><ele>651.5</ele><time>2026-05-01T10:01:56Z</time></trkpt><trkpt lat="41.995258359725746" lon="13.516833899909154"><ele>651.0</ele><time>2026-05-01T10:01:57Z</time></trkpt><trkpt lat="41.99526078371464" lon="13.51715122230294"><ele>651.0</ele><time>2026-05-01T10:01:58Z</time></trkpt><trkpt lat="41.99526868773231" lon="13.51746985357228"><ele>651.0</ele><time>2026-05-01T10:01:59Z</time></trkpt><trkpt lat="41.99527798605732" lon="13.51778873252195"><ele>651.0</ele><time>2026-05-01T10:02:00Z</time></trkpt><trkpt lat="41.995288489830735" lon="13.51810759313217"><ele>651.0</ele><time>2026-05-01T10:02:01Z</time></trkpt><trkpt lat="41.995298499069925" lon="13.518427496383401"><ele>650.5</ele><time>2026-05-01T10:02:02Z</time></trkpt><trkpt lat="41.9953117060497" lon="13.518748761657385"><ele>650.0</ele><time>2026-05-01T10:02:03Z</time></trkpt><trkpt lat="41.995328176067204" lon="13.519069880426052"><ele>650.0</ele><time>2026-05-01T10:02:04Z</time></trkpt><trkpt lat="41.995344235768194" lon="13.519391841665225"><ele>650.0</ele><time>2026-05-01T10:02:05Z</time></trkpt><trkpt lat="41.99535647312672" lon="13.51971665546859"><ele>650.0</ele><time>2026-05-01T10:02:06Z</time></trkpt><trkpt lat="41.99536445582327" lon="13.520041446956252"><ele>650.0</ele><time>2026-05-01T10:02:07Z</time></trkpt><trkpt lat="41.99536912923016" lon="13.52036688582199"><ele>650.5</ele><time>2026-05-01T10:02:08Z</time></trkpt><trkpt lat="41.99537313349013" lon="13.520691101529714"><ele>651.0</ele><time>2026-05-01T10:02:09Z</time></trkpt><trkpt lat="41.99537597763131" lon="13.521016885202943"><ele>651.0</ele><time>2026-05-01T10:02:10Z</time></trkpt><trkpt lat="41.99538076579076" lon="13.521342571365437"><ele>651.0</ele><time>2026-05-01T10:02:11Z</time></trkpt><trkpt lat="41.99538672038461" lon="13.521669647865759"><ele>651.0</ele><time>2026-05-01T10:02:12Z</time></trkpt><trkpt lat="41.995393839880464" lon="13.521997580389225"><ele>651.0</ele><time>2026-05-01T10:02:13Z</time></trkpt><trkpt lat="41.995400053520726" lon="13.522323142969723"><ele>651.0</ele><time>2026-05-01T10:02:14Z</time></trkpt><trkpt lat="41.995406618797226" lon="13.522646211760716"><ele>651.0</ele><time>2026-05-01T10:02:15Z</time></trkpt><trkpt lat="41.99541147811822" lon="13.522972887708907"><ele>651.5</ele><time>2026-05-01T10:02:16Z</time></trkpt><trkpt lat="41.9954158735829" lon="13.523300376925963"><ele>652.0</ele><time>2026-05-01T10:02:17Z</time></trkpt><trkpt lat="41.995422565279426" lon="13.523627913184676"><ele>652.0</ele><time>2026-05-01T10:02:18Z</time></trkpt><trkpt lat="41.9954308002002" lon="13.52395644928177"><ele>652.0</ele><time>2026-05-01T10:02:19Z</time></trkpt><trkpt lat="41.995437641484074" lon="13.524285005518621"><ele>651.5</ele><time>2026-05-01T10:02:20Z</time></trkpt><trkpt lat="41.99544289209286" lon="13.524614300842574"><ele>651.0</ele><time>2026-05-01T10:02:21Z</time></trkpt><trkpt lat="41.995448630333115" lon="13.524944755422448"><ele>651.0</ele><time>2026-05-01T10:02:22Z</time></trkpt><trkpt lat="41.995452499318205" lon="13.525276170695424"><ele>651.0</ele><time>2026-05-01T10:02:23Z</time></trkpt><trkpt lat="41.99545095900804" lon="13.525606631820912"><ele>650.5</ele><time>2026-05-01T10:02:24Z</time></trkpt><trkpt lat="41.995444600185074" lon="13.525937532611616"><ele>650.0</ele><time>2026-05-01T10:02:25Z</time></trkpt><trkpt lat="41.99543436185817" lon="13.526268704303803"><ele>649.5</ele><time>2026-05-01T10:02:26Z</time></trkpt><trkpt lat="41.99542596426783" lon="13.526604488966203"><ele>649.0</ele><time>2026-05-01T10:02:27Z</time></trkpt><trkpt lat="41.99542264875478" lon="13.526938601731597"><ele>649.5</ele><time>2026-05-01T10:02:28Z</time></trkpt><trkpt lat="41.99542325800094" lon="13.527273731523703"><ele>650.0</ele><time>2026-05-01T10:02:29Z</time></trkpt><trkpt lat="41.99542627957458" lon="13.527609113241652"><ele>651.0</ele><time>2026-05-01T10:02:30Z</time></trkpt><trkpt lat="41.99543139855111" lon="13.527945257625099"><ele>652.0</ele><time>2026-05-01T10:02:31Z</time></trkpt><trkpt lat="41.99543608035085" lon="13.52828251597076"><ele>652.0</ele><time>2026-05-01T10:02:32Z</time></trkpt><trkpt lat="41.995439974108194" lon="13.528620508605261"><ele>652.0</ele><time>2026-05-01T10:02:33Z</time></trkpt><trkpt lat="41.99544545754271" lon="13.528959018622357"><ele>651.5</ele><time>2026-05-01T10:02:34Z</time></trkpt><trkpt lat="41.995449103387664" lon="13.529295635616739"><ele>651.0</ele><time>2026-05-01T10:02:35Z</time></trkpt><trkpt lat="41.99545883109783" lon="13.529632830944957"><ele>651.0</ele><time>2026-05-01T10:02:36Z</time></trkpt><trkpt lat="41.99546721373553" lon="13.529969461118371"><ele>651.0</ele><time>2026-05-01T10:02:37Z</time></trkpt><trkpt lat="41.995479873933085" lon="13.530304201172669"><ele>650.5</ele><time>2026-05-01T10:02:38Z</time></trkpt><trkpt lat="41.9954940525338" lon="13.530636908378092"><ele>650.0</ele><time>2026-05-01T10:02:39Z</time></trkpt><trkpt lat="41.99550855656856" lon="13.530969328560674"><ele>651.0</ele><time>2026-05-01T10:02:39.999Z</time></trkpt><trkpt lat="41.99552377775819" lon="13.531299255125472"><ele>652.0</ele><time>2026-05-01T10:02:40.999Z</time></trkpt><trkpt lat="41.995539466800004" lon="13.531630330676867"><ele>652.0</ele><time>2026-05-01T10:02:41.999Z</time></trkpt><trkpt lat="41.99555310449024" lon="13.53196155105824"><ele>652.0</ele><time>2026-05-01T10:02:42.999Z</time></trkpt><trkpt lat="41.995564310462235" lon="13.532292525966463"><ele>652.5</ele><time>2026-05-01T10:02:43.999Z</time></trkpt><trkpt lat="41.995571463691874" lon="13.532627864721478"><ele>653.0</ele><time>2026-05-01T10:02:44.999Z</time></trkpt><trkpt lat="41.99557637182864" lon="13.532964432763912"><ele>653.0</ele><time>2026-05-01T10:02:45.999Z</time></trkpt><trkpt lat="41.99557904817861" lon="13.533302910103876"><ele>653.0</ele><time>2026-05-01T10:02:46.999Z</time></trkpt><trkpt lat="41.99558327885059" lon="13.533642993775553"><ele>652.0</ele><time>2026-05-01T10:02:47.999Z</time></trkpt><trkpt lat="41.99558855604413" lon="13.533984060684755"><ele>651.0</ele><time>2026-05-01T10:02:48.999Z</time></trkpt><trkpt lat="41.99559371684535" lon="13.534325651543645"><ele>651.0</ele><time>2026-05-01T10:02:49.999Z</time></trkpt><trkpt lat="41.995602614991384" lon="13.534669512544045"><ele>651.0</ele><time>2026-05-01T10:02:50.999Z</time></trkpt><trkpt lat="41.99560943932684" lon="13.535013583619069"><ele>651.0</ele><time>2026-05-01T10:02:51.999Z</time></trkpt><trkpt lat="41.995616174323715" lon="13.535358406239517"><ele>651.0</ele><time>2026-05-01T10:02:52.999Z</time></trkpt><trkpt lat="41.995624453068174" lon="13.535703399365643"><ele>652.0</ele><time>2026-05-01T10:02:53.999Z</time></trkpt><trkpt lat="41.995630551487785" lon="13.53604838502791"><ele>653.0</ele><time>2026-05-01T10:02:54.999Z</time></trkpt><trkpt lat="41.9956340864752" lon="13.536391984000684"><ele>653.5</ele><time>2026-05-01T10:02:55.999Z</time></trkpt><trkpt lat="41.99564009247494" lon="13.53673776308965"><ele>654.0</ele><time>2026-05-01T10:02:56.999Z</time></trkpt><trkpt lat="41.99564634462709" lon="13.537081195797978"><ele>653.0</ele><time>2026-05-01T10:02:57.999Z</time></trkpt><trkpt lat="41.99565323512722" lon="13.537422191625009"><ele>652.0</ele><time>2026-05-01T10:02:58.999Z</time></trkpt><trkpt lat="41.99566106136936" lon="13.537758805683984"><ele>651.0</ele><time>2026-05-01T10:02:59.999Z</time></trkpt><trkpt lat="41.995670765934484" lon="13.538088107071742"><ele>650.0</ele><time>2026-05-01T10:03:00.999Z</time></trkpt><trkpt lat="41.995676190717795" lon="13.538406768250725"><ele>650.0</ele><time>2026-05-01T10:03:01.999Z</time></trkpt><trkpt lat="41.99568150325225" lon="13.53871359269431"><ele>650.0</ele><time>2026-05-01T10:03:02.999Z</time></trkpt><trkpt lat="41.99567961039495" lon="13.539008689813334"><ele>650.0</ele><time>2026-05-01T10:03:03.999Z</time></trkpt><trkpt lat="41.99565647696993" lon="13.539288612940123"><ele>650.3333333333333</ele><time>2026-05-01T10:03:04.999Z</time></trkpt><trkpt lat="41.99561175063157" lon="13.539549592348227"><ele>650.6666666666666</ele><time>2026-05-01T10:03:05.999Z</time></trkpt><trkpt lat="41.99555120837864" lon="13.539796050557813"><ele>651.0</ele><time>2026-05-01T10:03:06.999Z</time></trkpt><trkpt lat="41.99550300395358" lon="13.540027674855876"><ele>651.25</ele><time>2026-05-01T10:03:07.999Z</time></trkpt><trkpt lat="41.99545389300675" lon="13.540230985704454"><ele>651.5</ele><time>2026-05-01T10:03:08.999Z</time></trkpt><trkpt lat="41.995464094797796" lon="13.54041616809838"><ele>651.75</ele><time>2026-05-01T10:03:09.999Z</time></trkpt><trkpt lat="41.99544711093197" lon="13.540566500278679"><ele>652.0</ele><time>2026-05-01T10:03:10.999Z</time></trkpt><trkpt lat="41.995418584680976" lon="13.540711634468574"><ele>652.0</ele><time>2026-05-01T10:03:11.999Z</time></trkpt><trkpt lat="41.99537411933542" lon="13.540835651342817"><ele>652.0</ele><time>2026-05-01T10:03:12.999Z</time></trkpt><trkpt lat="41.99528552633915" lon="13.540941959649544"><ele>652.0</ele><time>2026-05-01T10:03:13.999Z</time></trkpt><trkpt lat="41.995278475253386" lon="13.54108030487479"><ele>652.0</ele><time>2026-05-01T10:03:14.999Z</time></trkpt><trkpt lat="41.995342487503706" lon="13.541198587906214"><ele>652.0</ele><time>2026-05-01T10:03:15.999Z</time></trkpt><trkpt lat="41.99540696487552" lon="13.541296285585359"><ele>651.5</ele><time>2026-05-01T10:03:16.999Z</time></trkpt><trkpt lat="41.99544937759972" lon="13.541458623557709"><ele>651.0</ele><time>2026-05-01T10:03:17.999Z</time></trkpt><trkpt lat="41.99544699744551" lon="13.541636517600404"><ele>650.5</ele><time>2026-05-01T10:03:18.999Z</time></trkpt><trkpt lat="41.99546686162227" lon="13.541820000588238"><ele>650.0</ele><time>2026-05-01T10:03:19.999Z</time></trkpt><trkpt lat="41.99549906435113" lon="13.542005322732448"><ele>650.3333333333333</ele><time>2026-05-01T10:03:20.999Z</time></trkpt><trkpt lat="41.99555232162561" lon="13.542209562786134"><ele>650.6666666666666</ele><time>2026-05-01T10:03:21.999Z</time></trkpt><trkpt lat="41.995612641936916" lon="13.542414548949138"><ele>651.0</ele><time>2026-05-01T10:03:22.999Z</time></trkpt><trkpt lat="41.99566564366476" lon="13.542630857738773"><ele>651.0</ele><time>2026-05-01T10:03:23.999Z</time></trkpt><trkpt lat="41.99570892350189" lon="13.54285779629966"><ele>651.0</ele><time>2026-05-01T10:03:24.999Z</time></trkpt><trkpt lat="41.99573232915695" lon="13.543082075982882"><ele>651.0</ele><time>2026-05-01T10:03:25.999Z</time></trkpt><trkpt lat="41.99574562894695" lon="13.543326268092416"><ele>651.3333333333334</ele><time>2026-05-01T10:03:26.999Z</time></trkpt><trkpt lat="41.99575314169892" lon="13.54357383045224"><ele>651.6666666666667</ele><time>2026-05-01T10:03:27.999Z</time></trkpt><trkpt lat="41.99575950789085" lon="13.543830149725748"><ele>652.0</ele><time>2026-05-01T10:03:28.999Z</time></trkpt><trkpt lat="41.99575655913199" lon="13.544091683939241"><ele>652.0</ele><time>2026-05-01T10:03:29.999Z</time></trkpt><trkpt lat="41.99576976289547" lon="13.544351428291156"><ele>652.0</ele><time>2026-05-01T10:03:30.999Z</time></trkpt><trkpt lat="41.995783757483885" lon="13.544615034128421"><ele>652.0</ele><time>2026-05-01T10:03:31.999Z</time></trkpt><trkpt lat="41.99579627995173" lon="13.544878640587521"><ele>652.3333333333334</ele><time>2026-05-01T10:03:32.999Z</time></trkpt><trkpt lat="41.99580966182671" lon="13.545142811679804"><ele>652.6666666666666</ele><time>2026-05-01T10:03:33.998Z</time></trkpt><trkpt lat="41.99582342872207" lon="13.545407500331837"><ele>653.0</ele><time>2026-05-01T10:03:34.998Z</time></trkpt><trkpt lat="41.99583406171925" lon="13.54566957943769"><ele>653.0</ele><time>2026-05-01T10:03:35.998Z</time></trkpt><trkpt lat="41.99584887069028" lon="13.545927120610537"><ele>653.0</ele><time>2026-05-01T10:03:36.998Z</time></trkpt><trkpt lat="41.99586514249639" lon="13.546179624751378"><ele>653.0</ele><time>2026-05-01T10:03:37.998Z</time></trkpt><trkpt lat="41.99589170779024" lon="13.546418870762407"><ele>653.0</ele><time>2026-05-01T10:03:38.998Z</time></trkpt><trkpt lat="41.99593391486907" lon="13.54663912770244"><ele>653.0</ele><time>2026-05-01T10:03:39.998Z</time></trkpt><trkpt lat="41.995988210900755" lon="13.546833525823374"><ele>653.0</ele><time>2026-05-01T10:03:40.998Z</time></trkpt><trkpt lat="41.99605984395986" lon="13.54699999152029"><ele>652.5</ele><time>2026-05-01T10:03:41.998Z</time></trkpt><trkpt lat="41.996132621908" lon="13.547168398077815"><ele>652.0</ele><time>2026-05-01T10:03:42.998Z</time></trkpt><trkpt lat="41.996210691026704" lon="13.547332171382022"><ele>651.5</ele><time>2026-05-01T10:03:43.998Z</time></trkpt><trkpt lat="41.996306664688994" lon="13.54746849284626"><ele>651.0</ele><time>2026-05-01T10:03:44.998Z</time></trkpt><trkpt lat="41.996414061170924" lon="13.547597705131606"><ele>651.0</ele><time>2026-05-01T10:03:45.998Z</time></trkpt><trkpt lat="41.99653966869959" lon="13.547716198966876"><ele>651.0</ele><time>2026-05-01T10:03:46.998Z</time></trkpt><trkpt lat="41.9966725776259" lon="13.547818308081384"><ele>651.0</ele><time>2026-05-01T10:03:47.998Z</time></trkpt><trkpt lat="41.99681733407889" lon="13.547895843561328"><ele>650.6666666666666</ele><time>2026-05-01T10:03:48.998Z</time></trkpt><trkpt lat="41.996975796861925" lon="13.547947050969395"><ele>650.3333333333333</ele><time>2026-05-01T10:03:49.998Z</time></trkpt><trkpt lat="41.99714445681222" lon="13.547977859351358"><ele>650.0</ele><time>2026-05-01T10:03:50.998Z</time></trkpt><trkpt lat="41.99731878002028" lon="13.547984366122543"><ele>650.0</ele><time>2026-05-01T10:03:51.998Z</time></trkpt><trkpt lat="41.9974964385627" lon="13.547975482054824"><ele>650.0</ele><time>2026-05-01T10:03:52.998Z</time></trkpt><trkpt lat="41.9976759669857" lon="13.547969926511092"><ele>650.0</ele><time>2026-05-01T10:03:53.998Z</time></trkpt><trkpt lat="41.997855075397986" lon="13.54796635319885"><ele>649.6666666666666</ele><time>2026-05-01T10:03:55Z</time></trkpt><trkpt lat="41.99802968236996" lon="13.54795943572036"><ele>649.3333333333334</ele><time>2026-05-01T10:03:56Z</time></trkpt><trkpt lat="41.998201716966925" lon="13.547952217779395"><ele>649.0</ele><time>2026-05-01T10:03:57Z</time></trkpt><trkpt lat="41.9983708749491" lon="13.547940772452982"><ele>649.0</ele><time>2026-05-01T10:03:58Z</time></trkpt><trkpt lat="41.998542722584396" lon="13.547929872530442"><ele>649.0</ele><time>2026-05-01T10:03:59Z</time></trkpt><trkpt lat="41.99871715107791" lon="13.547923830411758"><ele>649.0</ele><time>2026-05-01T10:04:00Z</time></trkpt><trkpt lat="41.99889360591972" lon="13.547915939502257"><ele>649.0</ele><time>2026-05-01T10:04:01Z</time></trkpt><trkpt lat="41.99907149655513" lon="13.5479161439962"><ele>649.0</ele><time>2026-05-01T10:04:02Z</time></trkpt><trkpt lat="41.9992393916644" lon="13.547913853890503"><ele>649.0</ele><time>2026-05-01T10:04:03Z</time></trkpt><trkpt lat="41.99939698619568" lon="13.547909504722059"><ele>649.0</ele><time>2026-05-01T10:04:04Z</time></trkpt><trkpt lat="41.999544372313196" lon="13.547901381714436"><ele>649.0</ele><time>2026-05-01T10:04:05Z</time></trkpt><trkpt lat="41.99968253067368" lon="13.547893420680252"><ele>649.0</ele><time>2026-05-01T10:04:06Z</time></trkpt><trkpt lat="41.999811083447725" lon="13.547888370262987"><ele>649.0</ele><time>2026-05-01T10:04:07Z</time></trkpt><trkpt lat="41.9999303754392" lon="13.547880367643698"><ele>649.0</ele><time>2026-05-01T10:04:08Z</time></trkpt><trkpt lat="42.00003832289818" lon="13.547874423673257"><ele>649.0</ele><time>2026-05-01T10:04:09Z</time></trkpt><trkpt lat="42.00013886897929" lon="13.547871141416067"><ele>649.0</ele><time>2026-05-01T10:04:10Z</time></trkpt><trkpt lat="42.00022740461306" lon="13.547877113926946"><ele>649.0</ele><time>2026-05-01T10:04:11Z</time></trkpt><trkpt lat="42.0003042684089" lon="13.54792024071327"><ele>649.0</ele><time>2026-05-01T10:04:12Z</time></trkpt><trkpt lat="42.00036242230683" lon="13.547994260194534"><ele>649.0</ele><time>2026-05-01T10:04:13Z</time></trkpt><trkpt lat="42.00039489898755" lon="13.548107505037722"><ele>649.0</ele><time>2026-05-01T10:04:14Z</time></trkpt><trkpt lat="42.000405079873346" lon="13.548249395959383"><ele>649.0</ele><time>2026-05-01T10:04:15Z</time></trkpt><trkpt lat="42.00039501829978" lon="13.548409411332008"><ele>649.0</ele><time>2026-05-01T10:04:16Z</time></trkpt><trkpt lat="42.00038624117262" lon="13.548583749795585"><ele>649.0</ele><time>2026-05-01T10:04:17Z</time></trkpt><trkpt lat="42.000392168700586" lon="13.548772700647921"><ele>649.0</ele><time>2026-05-01T10:04:18Z</time></trkpt><trkpt lat="42.000398193372725" lon="13.54897395800498"><ele>649.0</ele><time>2026-05-01T10:04:19Z</time></trkpt><trkpt lat="42.00040167677709" lon="13.549167570240824"><ele>649.0</ele><time>2026-05-01T10:04:20Z</time></trkpt><trkpt lat="42.00040804440241" lon="13.549372727301094"><ele>649.0</ele><time>2026-05-01T10:04:21Z</time></trkpt><trkpt lat="42.0004146882991" lon="13.54958334103364"><ele>649.0</ele><time>2026-05-01T10:04:22Z</time></trkpt><trkpt lat="42.00042088472366" lon="13.54980455477042"><ele>649.0</ele><time>2026-05-01T10:04:23Z</time></trkpt><trkpt lat="42.0004243774223" lon="13.5500314928422"><ele>649.0</ele><time>2026-05-01T10:04:24Z</time></trkpt><trkpt lat="42.00042849187526" lon="13.55026732854319"><ele>649.0</ele><time>2026-05-01T10:04:25Z</time></trkpt><trkpt lat="42.00043230727595" lon="13.550510213046335"><ele>649.0</ele><time>2026-05-01T10:04:26Z</time></trkpt><trkpt lat="42.00043686005114" lon="13.550756832446904"><ele>649.0</ele><time>2026-05-01T10:04:27Z</time></trkpt><trkpt lat="42.000439704962474" lon="13.551008122224273"><ele>648.6666666666667</ele><time>2026-05-01T10:04:28Z</time></trkpt><trkpt lat="42.000442986431686" lon="13.551262059871584"><ele>648.3333333333334</ele><time>2026-05-01T10:04:29Z</time></trkpt><trkpt lat="42.00044391087656" lon="13.551521706628535"><ele>648.0</ele><time>2026-05-01T10:04:30Z</time></trkpt><trkpt lat="42.00044727675007" lon="13.551783705089319"><ele>648.6666666666666</ele><time>2026-05-01T10:04:31Z</time></trkpt><trkpt lat="42.000457619256366" lon="13.55204868037423"><ele>649.3333333333333</ele><time>2026-05-01T10:04:32Z</time></trkpt><trkpt lat="42.000465534936446" lon="13.552314947147126"><ele>650.0</ele><time>2026-05-01T10:04:33Z</time></trkpt><trkpt lat="42.000467237508424" lon="13.552581884702304"><ele>650.0</ele><time>2026-05-01T10:04:34Z</time></trkpt><trkpt lat="42.000471816890624" lon="13.55285208574263"><ele>650.0</ele><time>2026-05-01T10:04:35Z</time></trkpt><trkpt lat="42.00047601686746" lon="13.553124842794062"><ele>650.0</ele><time>2026-05-01T10:04:36Z</time></trkpt><trkpt lat="42.000482335939495" lon="13.553402542036725"><ele>650.0</ele><time>2026-05-01T10:04:37Z</time></trkpt><trkpt lat="42.00048762773879" lon="13.553681930356944"><ele>650.0</ele><time>2026-05-01T10:04:38Z</time></trkpt><trkpt lat="42.0004935223804" lon="13.55395864460453"><ele>650.0</ele><time>2026-05-01T10:04:39Z</time></trkpt><trkpt lat="42.00050014986656" lon="13.554237079483094"><ele>650.0</ele><time>2026-05-01T10:04:40Z</time></trkpt><trkpt lat="42.00050573333649" lon="13.55452342408586"><ele>650.0</ele><time>2026-05-01T10:04:41Z</time></trkpt><trkpt lat="42.00051004545112" lon="13.554813158424468"><ele>650.0</ele><time>2026-05-01T10:04:42Z</time></trkpt><trkpt lat="42.00051322074489" lon="13.555107954149724"><ele>649.6666666666666</ele><time>2026-05-01T10:04:43Z</time></trkpt><trkpt lat="42.000516957344246" lon="13.555404570043411"><ele>649.3333333333334</ele><time>2026-05-01T10:04:44Z</time></trkpt><trkpt lat="42.000520646893094" lon="13.555703074113346"><ele>649.0</ele><time>2026-05-01T10:04:45Z</time></trkpt><trkpt lat="42.00052733327732" lon="13.556003762162764"><ele>649.0</ele><time>2026-05-01T10:04:46Z</time></trkpt><trkpt lat="42.000535045337585" lon="13.556307079607693"><ele>649.0</ele><time>2026-05-01T10:04:47Z</time></trkpt><trkpt lat="42.000542483176936" lon="13.556611136832114"><ele>649.0</ele><time>2026-05-01T10:04:47.999Z</time></trkpt><trkpt lat="42.00054805245389" lon="13.556915552484632"><ele>649.0</ele><time>2026-05-01T10:04:48.999Z</time></trkpt><trkpt lat="42.00055039900505" lon="13.557219100219605"><ele>649.0</ele><time>2026-05-01T10:04:49.999Z</time></trkpt><trkpt lat="42.00055528360423" lon="13.557523094801816"><ele>649.0</ele><time>2026-05-01T10:04:50.999Z</time></trkpt><trkpt lat="42.00056112277106" lon="13.557829951936743"><ele>649.5</ele><time>2026-05-01T10:04:51.999Z</time></trkpt><trkpt lat="42.00057101393831" lon="13.558141020975862"><ele>650.0</ele><time>2026-05-01T10:04:52.999Z</time></trkpt><trkpt lat="42.000579956956194" lon="13.558451238094927"><ele>649.0</ele><time>2026-05-01T10:04:53.999Z</time></trkpt><trkpt lat="42.000584593729386" lon="13.558766857254769"><ele>648.0</ele><time>2026-05-01T10:04:54.999Z</time></trkpt><trkpt lat="42.00058558086225" lon="13.55907912774064"><ele>648.0</ele><time>2026-05-01T10:04:55.999Z</time></trkpt><trkpt lat="42.00058967718881" lon="13.559392896465738"><ele>648.0</ele><time>2026-05-01T10:04:56.999Z</time></trkpt><trkpt lat="42.000595351993184" lon="13.559705814052004"><ele>648.5</ele><time>2026-05-01T10:04:57.999Z</time></trkpt><trkpt lat="42.00060093069937" lon="13.560017344552872"><ele>649.0</ele><time>2026-05-01T10:04:58.999Z</time></trkpt><trkpt lat="42.00060482669706" lon="13.560329357228667"><ele>650.0</ele><time>2026-05-01T10:04:59.999Z</time></trkpt><trkpt lat="42.00060768554763" lon="13.56064303123785"><ele>651.0</ele><time>2026-05-01T10:05:00.999Z</time></trkpt><trkpt lat="42.00061220357014" lon="13.560957602968928"><ele>650.0</ele><time>2026-05-01T10:05:01.999Z</time></trkpt><trkpt lat="42.00062004256877" lon="13.561272898961803"><ele>649.0</ele><time>2026-05-01T10:05:02.999Z</time></trkpt><trkpt lat="42.00062858222852" lon="13.561590676483446"><ele>649.0</ele><time>2026-05-01T10:05:03.999Z</time></trkpt><trkpt lat="42.00063412067288" lon="13.56191025823729"><ele>649.0</ele><time>2026-05-01T10:05:04.999Z</time></trkpt><trkpt lat="42.0006381829977" lon="13.562228964288897"><ele>648.5</ele><time>2026-05-01T10:05:05.999Z</time></trkpt><trkpt lat="42.00064072263427" lon="13.562547456455025"><ele>648.0</ele><time>2026-05-01T10:05:06.999Z</time></trkpt><trkpt lat="42.00064732726949" lon="13.56286962809507"><ele>649.0</ele><time>2026-05-01T10:05:07.999Z</time></trkpt><trkpt lat="42.0006558600923" lon="13.563193041003542"><ele>650.0</ele><time>2026-05-01T10:05:08.999Z</time></trkpt><trkpt lat="42.00065859429072" lon="13.563517206626983"><ele>650.0</ele><time>2026-05-01T10:05:09.999Z</time></trkpt><trkpt lat="42.00066303874357" lon="13.563841135592185"><ele>650.0</ele><time>2026-05-01T10:05:10.999Z</time></trkpt><trkpt lat="42.00066847410095" lon="13.56416703795724"><ele>650.0</ele><time>2026-05-01T10:05:11.999Z</time></trkpt><trkpt lat="42.000672486378804" lon="13.564493628924692"><ele>650.0</ele><time>2026-05-01T10:05:12.999Z</time></trkpt><trkpt lat="42.000679114675144" lon="13.564819885438311"><ele>650.0</ele><time>2026-05-01T10:05:13.999Z</time></trkpt><trkpt lat="42.000683950473416" lon="13.565149361497923"><ele>650.0</ele><time>2026-05-01T10:05:14.999Z</time></trkpt><trkpt lat="42.00069009766526" lon="13.565479679895518"><ele>649.5</ele><time>2026-05-01T10:05:15.999Z</time></trkpt><trkpt lat="42.0006967392008" lon="13.56580971632402"><ele>649.0</ele><time>2026-05-01T10:05:16.999Z</time></trkpt><trkpt lat="42.00070407853076" lon="13.566141243151753"><ele>649.0</ele><time>2026-05-01T10:05:17.999Z</time></trkpt><trkpt lat="42.000709946145804" lon="13.566474321527588"><ele>649.0</ele><time>2026-05-01T10:05:18.999Z</time></trkpt><trkpt lat="42.00071602769072" lon="13.566808501709628"><ele>649.5</ele><time>2026-05-01T10:05:19.999Z</time></trkpt><trkpt lat="42.0007222023421" lon="13.567140109614437"><ele>650.0</ele><time>2026-05-01T10:05:20.999Z</time></trkpt><trkpt lat="42.00072818882631" lon="13.567474271760634"><ele>650.0</ele><time>2026-05-01T10:05:21.999Z</time></trkpt><trkpt lat="42.00073581618447" lon="13.567809202421438"><ele>650.0</ele><time>2026-05-01T10:05:22.999Z</time></trkpt><trkpt lat="42.00074199015852" lon="13.568147998364406"><ele>650.0</ele><time>2026-05-01T10:05:23.999Z</time></trkpt><trkpt lat="42.000730274295655" lon="13.568489107636426"><ele>650.0</ele><time>2026-05-01T10:05:24.999Z</time></trkpt><trkpt lat="42.00074963610527" lon="13.568828073294291"><ele>649.5</ele><time>2026-05-01T10:05:25.999Z</time></trkpt><trkpt lat="42.00075320718423" lon="13.56916963778952"><ele>649.0</ele><time>2026-05-01T10:05:26.999Z</time></trkpt><trkpt lat="42.000756239472395" lon="13.56951085652413"><ele>649.0</ele><time>2026-05-01T10:05:27.999Z</time></trkpt><trkpt lat="42.00076314891545" lon="13.569853165634791"><ele>649.0</ele><time>2026-05-01T10:05:28.999Z</time></trkpt><trkpt lat="42.00076679101895" lon="13.57019511628198"><ele>649.0</ele><time>2026-05-01T10:05:29.999Z</time></trkpt><trkpt lat="42.00077488991594" lon="13.570538049854306"><ele>649.0</ele><time>2026-05-01T10:05:30.999Z</time></trkpt><trkpt lat="42.000781406274704" lon="13.570878575233403"><ele>649.0</ele><time>2026-05-01T10:05:31.999Z</time></trkpt><trkpt lat="42.00078784213493" lon="13.571219809894375"><ele>649.0</ele><time>2026-05-01T10:05:32.999Z</time></trkpt><trkpt lat="42.00079631327421" lon="13.571562555638083"><ele>649.0</ele><time>2026-05-01T10:05:33.999Z</time></trkpt><trkpt lat="42.000803893099246" lon="13.571904372879214"><ele>649.0</ele><time>2026-05-01T10:05:34.999Z</time></trkpt><trkpt lat="42.000810022542005" lon="13.572245157157855"><ele>649.0</ele><time>2026-05-01T10:05:35.999Z</time></trkpt><trkpt lat="42.00081607343079" lon="13.572585415688923"><ele>649.0</ele><time>2026-05-01T10:05:36.999Z</time></trkpt><trkpt lat="42.00082299711217" lon="13.572925431103682"><ele>649.0</ele><time>2026-05-01T10:05:37.999Z</time></trkpt><trkpt lat="42.00082883189865" lon="13.573264727079147"><ele>649.0</ele><time>2026-05-01T10:05:38.999Z</time></trkpt><trkpt lat="42.000837902401656" lon="13.573604031701285"><ele>649.0</ele><time>2026-05-01T10:05:39.999Z</time></trkpt><trkpt lat="42.00084641355005" lon="13.573944598195196"><ele>649.0</ele><time>2026-05-01T10:05:40.999Z</time></trkpt><trkpt lat="42.00085317524754" lon="13.574285955032998"><ele>649.0</ele><time>2026-05-01T10:05:41.998Z</time></trkpt><trkpt lat="42.00085888504316" lon="13.574627083861559"><ele>649.0</ele><time>2026-05-01T10:05:42.998Z</time></trkpt><trkpt lat="42.000865633693486" lon="13.574967951589555"><ele>649.0</ele><time>2026-05-01T10:05:43.998Z</time></trkpt><trkpt lat="42.00087265112601" lon="13.575308569569438"><ele>649.0</ele><time>2026-05-01T10:05:44.998Z</time></trkpt><trkpt lat="42.00087800637262" lon="13.575648754822012"><ele>649.0</ele><time>2026-05-01T10:05:45.998Z</time></trkpt><trkpt lat="42.000883814048954" lon="13.575990635842887"><ele>649.0</ele><time>2026-05-01T10:05:46.998Z</time></trkpt><trkpt lat="42.00089139910784" lon="13.576333296128453"><ele>649.5</ele><time>2026-05-01T10:05:47.998Z</time></trkpt><trkpt lat="42.0008987301635" lon="13.576677314448654"><ele>650.0</ele><time>2026-05-01T10:05:48.998Z</time></trkpt><trkpt lat="42.00090574171455" lon="13.577019842397902"><ele>649.0</ele><time>2026-05-01T10:05:49.998Z</time></trkpt><trkpt lat="42.00091319016938" lon="13.577363261846058"><ele>648.0</ele><time>2026-05-01T10:05:50.998Z</time></trkpt><trkpt lat="42.00092079459044" lon="13.577707306400455"><ele>648.0</ele><time>2026-05-01T10:05:51.998Z</time></trkpt><trkpt lat="42.00092648372781" lon="13.578052086718843"><ele>648.0</ele><time>2026-05-01T10:05:52.998Z</time></trkpt><trkpt lat="42.000931527308204" lon="13.578395980941103"><ele>648.0</ele><time>2026-05-01T10:05:53.998Z</time></trkpt><trkpt lat="42.00093657110956" lon="13.578740749144107"><ele>648.0</ele><time>2026-05-01T10:05:54.998Z</time></trkpt><trkpt lat="42.00094274393675" lon="13.57908545126992"><ele>648.0</ele><time>2026-05-01T10:05:55.998Z</time></trkpt><trkpt lat="42.00094967896062" lon="13.579430447515824"><ele>648.0</ele><time>2026-05-01T10:05:56.998Z</time></trkpt><trkpt lat="42.00095623725905" lon="13.579775312209579"><ele>648.5</ele><time>2026-05-01T10:05:57.998Z</time></trkpt><trkpt lat="42.00096083178613" lon="13.580121431027525"><ele>649.0</ele><time>2026-05-01T10:05:58.998Z</time></trkpt><trkpt lat="42.000963511129946" lon="13.58047100995633"><ele>649.0</ele><time>2026-05-01T10:06:00Z</time></trkpt><trkpt lat="42.00096775588058" lon="13.580817030862416"><ele>649.0</ele><time>2026-05-01T10:06:01Z</time></trkpt><trkpt lat="42.00097627046366" lon="13.581163028357885"><ele>649.0</ele><time>2026-05-01T10:06:02Z</time></trkpt><trkpt lat="42.000988695075634" lon="13.581509226431827"><ele>649.0</ele><time>2026-05-01T10:06:03Z</time></trkpt><trkpt lat="42.000999577938224" lon="13.581854320030004"><ele>648.5</ele><time>2026-05-01T10:06:04Z</time></trkpt><trkpt lat="42.0010058338592" lon="13.582200881234483"><ele>648.0</ele><time>2026-05-01T10:06:05Z</time></trkpt><trkpt lat="42.00100913597756" lon="13.582545537434005"><ele>647.5</ele><time>2026-05-01T10:06:06Z</time></trkpt><trkpt lat="42.001012529009735" lon="13.58288764157785"><ele>647.0</ele><time>2026-05-01T10:06:07Z</time></trkpt><trkpt lat="42.001015591980426" lon="13.583229439944617"><ele>647.0</ele><time>2026-05-01T10:06:08Z</time></trkpt><trkpt lat="42.00102175954203" lon="13.583570074340926"><ele>647.0</ele><time>2026-05-01T10:06:09Z</time></trkpt><trkpt lat="42.00102813083673" lon="13.58390870455292"><ele>647.0</ele><time>2026-05-01T10:06:10Z</time></trkpt><trkpt lat="42.00103360469379" lon="13.584248610794923"><ele>647.0</ele><time>2026-05-01T10:06:11Z</time></trkpt><trkpt lat="42.00103874931328" lon="13.584588749314108"><ele>647.5</ele><time>2026-05-01T10:06:12Z</time></trkpt><trkpt lat="42.00104178534204" lon="13.584929935246336"><ele>648.0</ele><time>2026-05-01T10:06:13Z</time></trkpt><trkpt lat="42.001047993757616" lon="13.58526956571972"><ele>647.5</ele><time>2026-05-01T10:06:14Z</time></trkpt><trkpt lat="42.00105657063906" lon="13.58561157943409"><ele>647.0</ele><time>2026-05-01T10:06:15Z</time></trkpt><trkpt lat="42.00106256670404" lon="13.585952964138402"><ele>647.0</ele><time>2026-05-01T10:06:16Z</time></trkpt><trkpt lat="42.00107140641723" lon="13.58629567256423"><ele>647.0</ele><time>2026-05-01T10:06:17Z</time></trkpt><trkpt lat="42.00107962947722" lon="13.586638699361963"><ele>647.0</ele><time>2026-05-01T10:06:18Z</time></trkpt><trkpt lat="42.00108636624152" lon="13.586981693791977"><ele>647.0</ele><time>2026-05-01T10:06:19Z</time></trkpt><trkpt lat="42.00109237306374" lon="13.587324693994319"><ele>647.0</ele><time>2026-05-01T10:06:20Z</time></trkpt><trkpt lat="42.00109827445144" lon="13.587668677115534"><ele>647.0</ele><time>2026-05-01T10:06:21Z</time></trkpt><trkpt lat="42.00110372951593" lon="13.588012584607373"><ele>647.0</ele><time>2026-05-01T10:06:22Z</time></trkpt><trkpt lat="42.001108576157954" lon="13.588356948840863"><ele>647.0</ele><time>2026-05-01T10:06:23Z</time></trkpt><trkpt lat="42.0011139073649" lon="13.588703374525311"><ele>648.0</ele><time>2026-05-01T10:06:24Z</time></trkpt><trkpt lat="42.00111714383152" lon="13.589052565661015"><ele>649.0</ele><time>2026-05-01T10:06:25Z</time></trkpt><trkpt lat="42.00112279623892" lon="13.589404291273679"><ele>649.0</ele><time>2026-05-01T10:06:26Z</time></trkpt><trkpt lat="42.001130843622846" lon="13.58975949688806"><ele>649.0</ele><time>2026-05-01T10:06:27Z</time></trkpt><trkpt lat="42.001138067476894" lon="13.59011345433116"><ele>649.0</ele><time>2026-05-01T10:06:28Z</time></trkpt><trkpt lat="42.00114595797551" lon="13.59046985658425"><ele>649.0</ele><time>2026-05-01T10:06:29Z</time></trkpt><trkpt lat="42.00115321636191" lon="13.590827278560749"><ele>649.5</ele><time>2026-05-01T10:06:30Z</time></trkpt><trkpt lat="42.001157286649466" lon="13.591184007951037"><ele>650.0</ele><time>2026-05-01T10:06:31Z</time></trkpt><trkpt lat="42.00116166000176" lon="13.591542175100138"><ele>650.0</ele><time>2026-05-01T10:06:32Z</time></trkpt><trkpt lat="42.00116777859083" lon="13.59189981177938"><ele>650.0</ele><time>2026-05-01T10:06:33Z</time></trkpt><trkpt lat="42.0011530365731" lon="13.592259794882642"><ele>650.0</ele><time>2026-05-01T10:06:34Z</time></trkpt><trkpt lat="42.00115943606692" lon="13.592618473772465"><ele>650.0</ele><time>2026-05-01T10:06:35Z</time></trkpt><trkpt lat="42.00116589222894" lon="13.592976452991778"><ele>650.0</ele><time>2026-05-01T10:06:36Z</time></trkpt><trkpt lat="42.001172327102886" lon="13.593333252365662"><ele>650.0</ele><time>2026-05-01T10:06:37Z</time></trkpt><trkpt lat="42.001178741968864" lon="13.593688941546333"><ele>650.0</ele><time>2026-05-01T10:06:38Z</time></trkpt><trkpt lat="42.00118489925206" lon="13.594044316476367"><ele>650.0</ele><time>2026-05-01T10:06:39Z</time></trkpt><trkpt lat="42.00119102775437" lon="13.59440043670767"><ele>649.5</ele><time>2026-05-01T10:06:40Z</time></trkpt><trkpt lat="42.00119716202366" lon="13.594756892250857"><ele>649.0</ele><time>2026-05-01T10:06:41Z</time></trkpt><trkpt lat="42.00120329737485" lon="13.595113410631264"><ele>649.5</ele><time>2026-05-01T10:06:42Z</time></trkpt><trkpt lat="42.00120945796847" lon="13.595471395737274"><ele>650.0</ele><time>2026-05-01T10:06:43Z</time></trkpt><trkpt lat="42.001215626498464" lon="13.595829842183434"><ele>649.5</ele><time>2026-05-01T10:06:44Z</time></trkpt><trkpt lat="42.00122182781279" lon="13.596190192890298"><ele>649.0</ele><time>2026-05-01T10:06:45Z</time></trkpt><trkpt lat="42.001228026801826" lon="13.596550409990574"><ele>649.0</ele><time>2026-05-01T10:06:46Z</time></trkpt><trkpt lat="42.00123425057809" lon="13.596912066877309"><ele>649.0</ele><time>2026-05-01T10:06:47Z</time></trkpt><trkpt lat="42.001240494313116" lon="13.597274882613808"><ele>649.0</ele><time>2026-05-01T10:06:48Z</time></trkpt><trkpt lat="42.00124671746345" lon="13.597636503347434"><ele>649.0</ele><time>2026-05-01T10:06:49Z</time></trkpt><trkpt lat="42.00125292007426" lon="13.5979945252952"><ele>649.5</ele><time>2026-05-01T10:06:50Z</time></trkpt><trkpt lat="42.00125911957286" lon="13.598350471032022"><ele>650.0</ele><time>2026-05-01T10:06:51Z</time></trkpt><trkpt lat="42.00126567452663" lon="13.598703330874756"><ele>650.5</ele><time>2026-05-01T10:06:52Z</time></trkpt><trkpt lat="42.00127211494356" lon="13.599052445983014"><ele>651.0</ele><time>2026-05-01T10:06:53Z</time></trkpt><trkpt lat="42.00127851617926" lon="13.599399437107623"><ele>650.0</ele><time>2026-05-01T10:06:53.999Z</time></trkpt><trkpt lat="42.00128474723504" lon="13.59973720341807"><ele>649.0</ele><time>2026-05-01T10:06:54.999Z</time></trkpt><trkpt lat="42.00129004603908" lon="13.600058486766816"><ele>649.0</ele><time>2026-05-01T10:06:55.999Z</time></trkpt><trkpt lat="42.00129465235824" lon="13.600366364194997"><ele>649.0</ele><time>2026-05-01T10:06:56.999Z</time></trkpt><trkpt lat="42.00129902275239" lon="13.600658472130634"><ele>649.0</ele><time>2026-05-01T10:06:57.999Z</time></trkpt><trkpt lat="42.00130317117242" lon="13.600935744281742"><ele>649.6666666666667</ele><time>2026-05-01T10:06:58.999Z</time></trkpt><trkpt lat="42.00130650554392" lon="13.60120386496185"><ele>650.3333333333334</ele><time>2026-05-01T10:06:59.999Z</time></trkpt><trkpt lat="42.001309565702165" lon="13.601467550340983"><ele>651.0</ele><time>2026-05-01T10:07:00.999Z</time></trkpt><trkpt lat="42.00131358634426" lon="13.601722488275403"><ele>651.0</ele><time>2026-05-01T10:07:01.999Z</time></trkpt><trkpt lat="42.00131808833537" lon="13.60197277291664"><ele>651.0</ele><time>2026-05-01T10:07:02.999Z</time></trkpt><trkpt lat="42.001322535843" lon="13.602220021829831"><ele>651.0</ele><time>2026-05-01T10:07:03.999Z</time></trkpt><trkpt lat="42.00132864433306" lon="13.602461972916009"><ele>651.0</ele><time>2026-05-01T10:07:04.999Z</time></trkpt><trkpt lat="42.00135067910708" lon="13.60270432946876"><ele>651.0</ele><time>2026-05-01T10:07:05.999Z</time></trkpt><trkpt lat="42.001354959238974" lon="13.602949509981373"><ele>651.0</ele><time>2026-05-01T10:07:06.999Z</time></trkpt><trkpt lat="42.00135761549564" lon="13.603193746579912"><ele>651.0</ele><time>2026-05-01T10:07:07.999Z</time></trkpt><trkpt lat="42.001358388763684" lon="13.603431818441525"><ele>651.0</ele><time>2026-05-01T10:07:08.999Z</time></trkpt><trkpt lat="42.00135451405584" lon="13.603634256442191"><ele>651.0</ele><time>2026-05-01T10:07:09.999Z</time></trkpt><trkpt lat="42.001351252728455" lon="13.603816132069914"><ele>651.0</ele><time>2026-05-01T10:07:10.999Z</time></trkpt><trkpt lat="42.0013499975215" lon="13.604006732062347"><ele>651.0</ele><time>2026-05-01T10:07:11.999Z</time></trkpt><trkpt lat="42.00135281630689" lon="13.604210518542972"><ele>651.0</ele><time>2026-05-01T10:07:12.999Z</time></trkpt><trkpt lat="42.00135755441297" lon="13.604423378591887"><ele>651.3333333333334</ele><time>2026-05-01T10:07:13.999Z</time></trkpt><trkpt lat="42.00136393788588" lon="13.604633351999297"><ele>651.6666666666667</ele><time>2026-05-01T10:07:14.999Z</time></trkpt><trkpt lat="42.001371374706196" lon="13.604833530191558"><ele>652.0</ele><time>2026-05-01T10:07:15.999Z</time></trkpt><trkpt lat="42.001384218406784" lon="13.605034913218775"><ele>652.0</ele><time>2026-05-01T10:07:16.999Z</time></trkpt><trkpt lat="42.001374143519904" lon="13.605236056684273"><ele>652.0</ele><time>2026-05-01T10:07:17.999Z</time></trkpt><trkpt lat="42.001403708306135" lon="13.605429203823567"><ele>652.0</ele><time>2026-05-01T10:07:18.999Z</time></trkpt><trkpt lat="42.00139914232901" lon="13.6055918525068"><ele>652.0</ele><time>2026-05-01T10:07:19.999Z</time></trkpt><trkpt lat="42.001393362681746" lon="13.60574297801192"><ele>652.1666666666667</ele><time>2026-05-01T10:07:20.999Z</time></trkpt><trkpt lat="42.001397871260146" lon="13.605885637821967"><ele>652.3333333333334</ele><time>2026-05-01T10:07:21.999Z</time></trkpt><trkpt lat="42.00139882876301" lon="13.606018410465936"><ele>652.5</ele><time>2026-05-01T10:07:22.999Z</time></trkpt><trkpt lat="42.00140182308102" lon="13.606144759556576"><ele>652.6666666666666</ele><time>2026-05-01T10:07:23.999Z</time></trkpt><trkpt lat="42.00140348350991" lon="13.606254284074094"><ele>652.8333333333333</ele><time>2026-05-01T10:07:24.999Z</time></trkpt><trkpt lat="42.00140204656365" lon="13.606339780772139"><ele>653.0</ele><time>2026-05-01T10:07:25.999Z</time></trkpt><trkpt lat="42.00136268199812" lon="13.606442356442097"><ele>653.0</ele><time>2026-05-01T10:07:27.999Z</time></trkpt><trkpt lat="42.00125683553671" lon="13.606536690207218"><ele>653.0</ele><time>2026-05-01T10:07:30.999Z</time></trkpt><trkpt lat="42.00119376334945" lon="13.606256915358077"><ele>653.0</ele><time>2026-05-01T10:07:32.999Z</time></trkpt><trkpt lat="42.001188338458725" lon="13.606122202282995"><ele>653.0</ele><time>2026-05-01T10:07:34.999Z</time></trkpt><trkpt lat="42.001192779137966" lon="13.606005892027865"><ele>653.0000000000001</ele><time>2026-05-01T10:07:36.999Z</time></trkpt><trkpt lat="42.00120207186849" lon="13.605901096424919"><ele>653.0</ele><time>2026-05-01T10:07:38.999Z</time></trkpt><trkpt lat="42.00118420694084" lon="13.605793961825787"><ele>653.0</ele><time>2026-05-01T10:07:40.999Z</time></trkpt><trkpt lat="42.00111842125819" lon="13.605778713773296"><ele>653.0</ele><time>2026-05-01T10:07:42.999Z</time></trkpt><trkpt lat="42.00107075226818" lon="13.605864420058426"><ele>653.0</ele><time>2026-05-01T10:08:26Z</time></trkpt><trkpt lat="42.00107547903239" lon="13.605956620540521"><ele>653.0000000000001</ele><time>2026-05-01T10:09:46.999Z</time></trkpt><trkpt lat="42.00103582433114" lon="13.606036779626665"><ele>653.0</ele><time>2026-05-01T10:10:01.998Z</time></trkpt><trkpt lat="42.00124562730703" lon="13.606065941224285"><ele>653.0</ele><time>2026-05-01T10:16:14.998Z</time></trkpt><trkpt lat="42.00103114370953" lon="13.60599613177208"><ele>653.0</ele><time>2026-05-01T10:17:40.999Z</time></trkpt><trkpt lat="42.001121563802954" lon="13.605951043030881"><ele>653.0</ele><time>2026-05-01T10:22:12.999Z</time></trkpt><trkpt lat="42.001165956843394" lon="13.60587974274013"><ele>653.0</ele><time>2026-05-01T10:22:27.999Z</time></trkpt><trkpt lat="42.00122464351894" lon="13.60577834301654"><ele>653.0000000000001</ele><time>2026-05-01T10:22:32.999Z</time></trkpt><trkpt lat="42.001260366641205" lon="13.605705365620166"><ele>653.0</ele><time>2026-05-01T10:22:33.999Z</time></trkpt><trkpt lat="42.00120067012248" lon="13.605765614719129"><ele>653.0</ele><time>2026-05-01T10:22:41.998Z</time></trkpt><trkpt lat="42.00111873025022" lon="13.605787097482557"><ele>653.0</ele><time>2026-05-01T10:23:14Z</time></trkpt><trkpt lat="42.001092535246315" lon="13.60587057999663"><ele>653.0</ele><time>2026-05-01T10:23:19Z</time></trkpt><trkpt lat="42.00107425491318" lon="13.605955226698907"><ele>653.0000000000001</ele><time>2026-05-01T10:23:23Z</time></trkpt><trkpt lat="42.001073435528454" lon="13.605859400262487"><ele>653.0</ele><time>2026-05-01T10:23:52.999Z</time></trkpt><trkpt lat="42.000996934418154" lon="13.605838756613997"><ele>653.0</ele><time>2026-05-01T10:30:37.998Z</time></trkpt><trkpt lat="42.00094102147386" lon="13.605918444575316"><ele>653.0</ele><time>2026-05-01T10:30:39.998Z</time></trkpt><trkpt lat="42.00094526789986" lon="13.60600403431311"><ele>653.0</ele><time>2026-05-01T10:30:40.998Z</time></trkpt><trkpt lat="42.00094566744102" lon="13.606102649244157"><ele>653.0</ele><time>2026-05-01T10:30:42.998Z</time></trkpt><trkpt lat="42.00096303362154" lon="13.606236807339853"><ele>653.0</ele><time>2026-05-01T10:30:44.998Z</time></trkpt><trkpt lat="42.00099560527611" lon="13.606319105525419"><ele>653.0</ele><time>2026-05-01T10:30:46.998Z</time></trkpt><trkpt lat="42.001072488545134" lon="13.606312112101357"><ele>653.0000000000001</ele><time>2026-05-01T10:30:48.998Z</time></trkpt><trkpt lat="42.00114745723146" lon="13.606331332648478"><ele>653.0</ele><time>2026-05-01T10:30:51.998Z</time></trkpt><trkpt lat="42.001192569489284" lon="13.606397818019595"><ele>653.0</ele><time>2026-05-01T10:30:54.998Z</time></trkpt><trkpt lat="42.00124277206586" lon="13.606470981640216"><ele>653.0</ele><time>2026-05-01T10:30:57.998Z</time></trkpt><trkpt lat="42.001292724421184" lon="13.606535745069836"><ele>653.0</ele><time>2026-05-01T10:30:59.998Z</time></trkpt><trkpt lat="42.001352976817344" lon="13.6065822864167"><ele>653.0000000000001</ele><time>2026-05-01T10:31:02.998Z</time></trkpt><trkpt lat="42.001398480848714" lon="13.606666040571644"><ele>653.0</ele><time>2026-05-01T10:31:04.998Z</time></trkpt><trkpt lat="42.00140046597316" lon="13.60684174207641"><ele>653.0</ele><time>2026-05-01T10:31:06.998Z</time></trkpt><trkpt lat="42.00139650526918" lon="13.606937973875576"><ele>653.0</ele><time>2026-05-01T10:31:07.998Z</time></trkpt><trkpt lat="42.001395543891874" lon="13.607040725462866"><ele>653.0</ele><time>2026-05-01T10:31:08.998Z</time></trkpt><trkpt lat="42.001402156240545" lon="13.607155709563513"><ele>653.0</ele><time>2026-05-01T10:31:10Z</time></trkpt><trkpt lat="42.001407802461074" lon="13.607272654389805"><ele>653.0</ele><time>2026-05-01T10:31:11Z</time></trkpt><trkpt lat="42.0014121249646" lon="13.60739349845188"><ele>653.0</ele><time>2026-05-01T10:31:12Z</time></trkpt><trkpt lat="42.00141720134256" lon="13.607517923255896"><ele>653.0</ele><time>2026-05-01T10:31:13Z</time></trkpt><trkpt lat="42.00141526626982" lon="13.607642501453936"><ele>653.0</ele><time>2026-05-01T10:31:14Z</time></trkpt><trkpt lat="42.001418005568816" lon="13.607768765642788"><ele>653.0</ele><time>2026-05-01T10:31:15Z</time></trkpt><trkpt lat="42.001419719706604" lon="13.607896653742507"><ele>653.0</ele><time>2026-05-01T10:31:16Z</time></trkpt><trkpt lat="42.00142378611636" lon="13.608024333928109"><ele>653.0</ele><time>2026-05-01T10:31:17Z</time></trkpt><trkpt lat="42.001426210555934" lon="13.608153828384916"><ele>653.2</ele><time>2026-05-01T10:31:18Z</time></trkpt><trkpt lat="42.0014242795176" lon="13.60828504987396"><ele>653.4</ele><time>2026-05-01T10:31:19Z</time></trkpt><trkpt lat="42.00142303387609" lon="13.608420299053515"><ele>653.6</ele><time>2026-05-01T10:31:20Z</time></trkpt><trkpt lat="42.00142493501634" lon="13.60856660013465"><ele>653.8000000000001</ele><time>2026-05-01T10:31:21Z</time></trkpt><trkpt lat="42.00142883475706" lon="13.608716435385267"><ele>654.0</ele><time>2026-05-01T10:31:22Z</time></trkpt><trkpt lat="42.00143136768703" lon="13.60887017907343"><ele>654.0</ele><time>2026-05-01T10:31:23Z</time></trkpt><trkpt lat="42.001433509251655" lon="13.60902233461998"><ele>654.0</ele><time>2026-05-01T10:31:24Z</time></trkpt><trkpt lat="42.001435516334396" lon="13.609177042362052"><ele>654.0</ele><time>2026-05-01T10:31:25Z</time></trkpt><trkpt lat="42.00144085929205" lon="13.609332944513302"><ele>654.0</ele><time>2026-05-01T10:31:26Z</time></trkpt><trkpt lat="42.00144727359598" lon="13.609491349651238"><ele>654.25</ele><time>2026-05-01T10:31:27Z</time></trkpt><trkpt lat="42.00145078237775" lon="13.609650423780115"><ele>654.5</ele><time>2026-05-01T10:31:28Z</time></trkpt><trkpt lat="42.00145352577458" lon="13.609805826385124"><ele>654.75</ele><time>2026-05-01T10:31:29Z</time></trkpt><trkpt lat="42.001455759685385" lon="13.60996465230279"><ele>655.0</ele><time>2026-05-01T10:31:30Z</time></trkpt><trkpt lat="42.001454225573696" lon="13.610124125092126"><ele>655.0</ele><time>2026-05-01T10:31:31Z</time></trkpt><trkpt lat="42.00145509604143" lon="13.610285680616265"><ele>655.0</ele><time>2026-05-01T10:31:32Z</time></trkpt><trkpt lat="42.00145830783292" lon="13.610450746592717"><ele>655.0</ele><time>2026-05-01T10:31:33Z</time></trkpt><trkpt lat="42.00145857592767" lon="13.610616427261961"><ele>655.0</ele><time>2026-05-01T10:31:34Z</time></trkpt><trkpt lat="42.00146006127171" lon="13.610784463349809"><ele>655.0</ele><time>2026-05-01T10:31:35Z</time></trkpt><trkpt lat="42.001463284929414" lon="13.610953857576732"><ele>655.0</ele><time>2026-05-01T10:31:35.999Z</time></trkpt><trkpt lat="42.00146674535024" lon="13.611123166992227"><ele>655.0</ele><time>2026-05-01T10:31:36.999Z</time></trkpt><trkpt lat="42.00146868637033" lon="13.611293612016102"><ele>655.0</ele><time>2026-05-01T10:31:37.999Z</time></trkpt><trkpt lat="42.001473772579246" lon="13.611461012670706"><ele>655.0</ele><time>2026-05-01T10:31:38.999Z</time></trkpt><trkpt lat="42.00148516439193" lon="13.611624789754481"><ele>655.0</ele><time>2026-05-01T10:31:39.999Z</time></trkpt><trkpt lat="42.00150557997562" lon="13.611785293039947"><ele>655.0</ele><time>2026-05-01T10:31:40.999Z</time></trkpt><trkpt lat="42.00153404332365" lon="13.611943783527977"><ele>655.0</ele><time>2026-05-01T10:31:41.999Z</time></trkpt><trkpt lat="42.001581320292566" lon="13.612099118420657"><ele>655.0</ele><time>2026-05-01T10:31:42.999Z</time></trkpt><trkpt lat="42.001633114648754" lon="13.61225198891764"><ele>655.0</ele><time>2026-05-01T10:31:43.999Z</time></trkpt><trkpt lat="42.0016924505431" lon="13.612405017546266"><ele>655.0</ele><time>2026-05-01T10:31:44.999Z</time></trkpt><trkpt lat="42.00175932609497" lon="13.612556435193834"><ele>655.0</ele><time>2026-05-01T10:31:45.999Z</time></trkpt><trkpt lat="42.001840305481856" lon="13.61269805436632"><ele>655.0</ele><time>2026-05-01T10:31:46.999Z</time></trkpt><trkpt lat="42.00193232320988" lon="13.61283592868657"><ele>655.0</ele><time>2026-05-01T10:31:47.999Z</time></trkpt><trkpt lat="42.002031249981805" lon="13.612968931639196"><ele>655.0</ele><time>2026-05-01T10:31:48.999Z</time></trkpt><trkpt lat="42.00213953433793" lon="13.613093416494214"><ele>655.0</ele><time>2026-05-01T10:31:49.999Z</time></trkpt><trkpt lat="42.002255047704345" lon="13.613203338562657"><ele>655.0</ele><time>2026-05-01T10:31:50.999Z</time></trkpt><trkpt lat="42.00237961331691" lon="13.61330222788488"><ele>655.0</ele><time>2026-05-01T10:31:51.999Z</time></trkpt><trkpt lat="42.00251035049572" lon="13.613388507930027"><ele>655.0</ele><time>2026-05-01T10:31:52.999Z</time></trkpt><trkpt lat="42.00264720679142" lon="13.61346056046081"><ele>655.0</ele><time>2026-05-01T10:31:53.999Z</time></trkpt><trkpt lat="42.0027875483638" lon="13.613523263005355"><ele>655.6666666666667</ele><time>2026-05-01T10:31:54.999Z</time></trkpt><trkpt lat="42.00293009594116" lon="13.613582612645708"><ele>656.3333333333334</ele><time>2026-05-01T10:31:55.999Z</time></trkpt><trkpt lat="42.00307266414568" lon="13.613643043815095"><ele>657.0</ele><time>2026-05-01T10:31:56.999Z</time></trkpt><trkpt lat="42.00321549104295" lon="13.613709903377698"><ele>657.3333333333334</ele><time>2026-05-01T10:31:57.999Z</time></trkpt><trkpt lat="42.0033603886678" lon="13.613768577423402"><ele>657.6666666666667</ele><time>2026-05-01T10:31:58.999Z</time></trkpt><trkpt lat="42.00350827787121" lon="13.613818684387633"><ele>658.0</ele><time>2026-05-01T10:31:59.999Z</time></trkpt><trkpt lat="42.003656276344856" lon="13.613874730272455"><ele>658.0</ele><time>2026-05-01T10:32:00.999Z</time></trkpt><trkpt lat="42.00380231954587" lon="13.61394246442677"><ele>658.0</ele><time>2026-05-01T10:32:01.999Z</time></trkpt><trkpt lat="42.003947304779736" lon="13.614011045084071"><ele>658.0</ele><time>2026-05-01T10:32:02.999Z</time></trkpt><trkpt lat="42.00409523858112" lon="13.614075526761699"><ele>658.0</ele><time>2026-05-01T10:32:03.999Z</time></trkpt><trkpt lat="42.0042471206412" lon="13.61413142920478"><ele>658.0</ele><time>2026-05-01T10:32:04.999Z</time></trkpt><trkpt lat="42.00439864433289" lon="13.614187773858013"><ele>658.0</ele><time>2026-05-01T10:32:05.999Z</time></trkpt><trkpt lat="42.00454814959657" lon="13.614253891600457"><ele>658.0</ele><time>2026-05-01T10:32:06.999Z</time></trkpt><trkpt lat="42.00469782186615" lon="13.6143222034561"><ele>658.0</ele><time>2026-05-01T10:32:07.999Z</time></trkpt><trkpt lat="42.00484946641899" lon="13.614388944933857"><ele>658.0</ele><time>2026-05-01T10:32:08.999Z</time></trkpt><trkpt lat="42.00500201351422" lon="13.614454539006687"><ele>658.3333333333334</ele><time>2026-05-01T10:32:09.999Z</time></trkpt><trkpt lat="42.00515447063045" lon="13.61451934741437"><ele>658.6666666666666</ele><time>2026-05-01T10:32:10.999Z</time></trkpt><trkpt lat="42.00530623369903" lon="13.614587012080008"><ele>659.0</ele><time>2026-05-01T10:32:11.999Z</time></trkpt><trkpt lat="42.00545656139233" lon="13.614653630592102"><ele>659.0</ele><time>2026-05-01T10:32:12.999Z</time></trkpt><trkpt lat="42.005606934669295" lon="13.61471437958064"><ele>659.0</ele><time>2026-05-01T10:32:13.999Z</time></trkpt><trkpt lat="42.005757355665466" lon="13.614773064552"><ele>659.0</ele><time>2026-05-01T10:32:14.999Z</time></trkpt><trkpt lat="42.005902884455885" lon="13.614832971132673"><ele>659.25</ele><time>2026-05-01T10:32:15.999Z</time></trkpt><trkpt lat="42.006041432802306" lon="13.614891156465276"><ele>659.5</ele><time>2026-05-01T10:32:16.999Z</time></trkpt><trkpt lat="42.006175932005846" lon="13.614945850079797"><ele>659.75</ele><time>2026-05-01T10:32:17.999Z</time></trkpt><trkpt lat="42.00630398036187" lon="13.614998918133754"><ele>660.0</ele><time>2026-05-01T10:32:18.999Z</time></trkpt><trkpt lat="42.00642918995776" lon="13.615052346168792"><ele>660.0</ele><time>2026-05-01T10:32:19.999Z</time></trkpt><trkpt lat="42.00654700627639" lon="13.615106916843072"><ele>660.0</ele><time>2026-05-01T10:32:20.999Z</time></trkpt><trkpt lat="42.00665512674325" lon="13.615165125828574"><ele>660.0</ele><time>2026-05-01T10:32:21.999Z</time></trkpt><trkpt lat="42.00675767518381" lon="13.615233727622648"><ele>660.0</ele><time>2026-05-01T10:32:22.999Z</time></trkpt><trkpt lat="42.00687448178837" lon="13.615284905413526"><ele>660.25</ele><time>2026-05-01T10:32:23.999Z</time></trkpt><trkpt lat="42.00700394051795" lon="13.61531038119875"><ele>660.5</ele><time>2026-05-01T10:32:24.999Z</time></trkpt><trkpt lat="42.00713678051531" lon="13.615355240424517"><ele>660.75</ele><time>2026-05-01T10:32:25.999Z</time></trkpt><trkpt lat="42.00727173327271" lon="13.61541997294021"><ele>661.0</ele><time>2026-05-01T10:32:26.999Z</time></trkpt><trkpt lat="42.00741077285997" lon="13.615482297264382"><ele>662.75</ele><time>2026-05-01T10:32:27.999Z</time></trkpt><trkpt lat="42.00755529465784" lon="13.615538573047038"><ele>664.5</ele><time>2026-05-01T10:32:28.999Z</time></trkpt><trkpt lat="42.007694236479004" lon="13.615594850693922"><ele>666.25</ele><time>2026-05-01T10:32:29.999Z</time></trkpt><trkpt lat="42.00783349597021" lon="13.615653377830451"><ele>668.0</ele><time>2026-05-01T10:32:30.999Z</time></trkpt><trkpt lat="42.00797184124878" lon="13.61571358388538"><ele>668.0</ele><time>2026-05-01T10:32:31.999Z</time></trkpt><trkpt lat="42.00810897229761" lon="13.615777228838994"><ele>668.0</ele><time>2026-05-01T10:32:32.999Z</time></trkpt><trkpt lat="42.00824274708866" lon="13.615847665633975"><ele>668.0</ele><time>2026-05-01T10:32:33.999Z</time></trkpt><trkpt lat="42.00837376649089" lon="13.615921281416657"><ele>668.0</ele><time>2026-05-01T10:32:34.998Z</time></trkpt><trkpt lat="42.00850643491652" lon="13.616002799024788"><ele>668.3333333333333</ele><time>2026-05-01T10:32:35.998Z</time></trkpt><trkpt lat="42.00863872291618" lon="13.616089373861929"><ele>668.6666666666666</ele><time>2026-05-01T10:32:36.998Z</time></trkpt><trkpt lat="42.008772464711186" lon="13.616182016931601"><ele>669.0</ele><time>2026-05-01T10:32:37.998Z</time></trkpt><trkpt lat="42.0089077888115" lon="13.616283770067552"><ele>670.0</ele><time>2026-05-01T10:32:38.998Z</time></trkpt><trkpt lat="42.00904279673819" lon="13.61639243632156"><ele>671.0</ele><time>2026-05-01T10:32:39.998Z</time></trkpt><trkpt lat="42.00917846398925" lon="13.616507375318363"><ele>672.0</ele><time>2026-05-01T10:32:40.998Z</time></trkpt><trkpt lat="42.00931560504959" lon="13.616623159428343"><ele>672.0</ele><time>2026-05-01T10:32:41.998Z</time></trkpt><trkpt lat="42.00945174891041" lon="13.616742138500621"><ele>672.0</ele><time>2026-05-01T10:32:42.998Z</time></trkpt><trkpt lat="42.009587899193214" lon="13.616864667048812"><ele>672.0</ele><time>2026-05-01T10:32:43.998Z</time></trkpt><trkpt lat="42.0097200621294" lon="13.616992143380338"><ele>672.0</ele><time>2026-05-01T10:32:44.998Z</time></trkpt><trkpt lat="42.00984868737927" lon="13.617130806847474"><ele>672.0</ele><time>2026-05-01T10:32:45.998Z</time></trkpt><trkpt lat="42.00997500209822" lon="13.617275744816274"><ele>672.0</ele><time>2026-05-01T10:32:46.998Z</time></trkpt><trkpt lat="42.01009792422843" lon="13.617430556228065"><ele>672.0</ele><time>2026-05-01T10:32:47.998Z</time></trkpt><trkpt lat="42.01021849003543" lon="13.617590114890776"><ele>672.0</ele><time>2026-05-01T10:32:48.998Z</time></trkpt><trkpt lat="42.010339204608755" lon="13.617752784326397"><ele>672.0</ele><time>2026-05-01T10:32:49.998Z</time></trkpt><trkpt lat="42.01045835116281" lon="13.61792113846238"><ele>672.0</ele><time>2026-05-01T10:32:50.998Z</time></trkpt><trkpt lat="42.010573003833905" lon="13.61809673559729"><ele>672.0</ele><time>2026-05-01T10:32:51.998Z</time></trkpt><trkpt lat="42.010682409973846" lon="13.618281948342908"><ele>672.0</ele><time>2026-05-01T10:32:52.998Z</time></trkpt><trkpt lat="42.01078686711493" lon="13.618473745746611"><ele>672.0</ele><time>2026-05-01T10:32:53.998Z</time></trkpt><trkpt lat="42.01088707228842" lon="13.618672260681688"><ele>672.0</ele><time>2026-05-01T10:32:54.998Z</time></trkpt><trkpt lat="42.01098298708737" lon="13.618874667753003"><ele>672.0</ele><time>2026-05-01T10:32:55.998Z</time></trkpt><trkpt lat="42.01107310241428" lon="13.619079775795178"><ele>672.0</ele><time>2026-05-01T10:32:56.998Z</time></trkpt><trkpt lat="42.01115986786666" lon="13.619284489716634"><ele>672.0</ele><time>2026-05-01T10:32:57.998Z</time></trkpt><trkpt lat="42.01124070593022" lon="13.619490454548227"><ele>672.0</ele><time>2026-05-01T10:32:58.998Z</time></trkpt><trkpt lat="42.0113139546624" lon="13.619692012904805"><ele>673.0</ele><time>2026-05-01T10:32:59.998Z</time></trkpt><trkpt lat="42.0113864348091" lon="13.619898022182943"><ele>674.0</ele><time>2026-05-01T10:33:00.998Z</time></trkpt><trkpt lat="42.0114565501173" lon="13.620109095053076"><ele>675.0</ele><time>2026-05-01T10:33:01.998Z</time></trkpt><trkpt lat="42.011520307916854" lon="13.620324746152919"><ele>675.6666666666666</ele><time>2026-05-01T10:33:02.998Z</time></trkpt><trkpt lat="42.01157913662731" lon="13.620546378079515"><ele>676.3333333333333</ele><time>2026-05-01T10:33:03.998Z</time></trkpt><trkpt lat="42.01163156278838" lon="13.620773309376668"><ele>677.0</ele><time>2026-05-01T10:33:04.998Z</time></trkpt><trkpt lat="42.011676594237585" lon="13.621004086869416"><ele>677.6666666666666</ele><time>2026-05-01T10:33:05.998Z</time></trkpt><trkpt lat="42.01171583038156" lon="13.621238953877025"><ele>678.3333333333334</ele><time>2026-05-01T10:33:06.998Z</time></trkpt><trkpt lat="42.01175050761656" lon="13.62147381839314"><ele>679.0</ele><time>2026-05-01T10:33:07.998Z</time></trkpt><trkpt lat="42.01177787903142" lon="13.621713033608307"><ele>679.0</ele><time>2026-05-01T10:33:08.998Z</time></trkpt><trkpt lat="42.01179776486412" lon="13.621953484275299"><ele>679.0</ele><time>2026-05-01T10:33:09.998Z</time></trkpt><trkpt lat="42.01181186049335" lon="13.622195737787466"><ele>679.0</ele><time>2026-05-01T10:33:10.998Z</time></trkpt><trkpt lat="42.01181890384029" lon="13.622437937066234"><ele>679.3333333333334</ele><time>2026-05-01T10:33:11.998Z</time></trkpt><trkpt lat="42.011821016269316" lon="13.622681918135282"><ele>679.6666666666666</ele><time>2026-05-01T10:33:12.998Z</time></trkpt><trkpt lat="42.011815890672295" lon="13.62292131934064"><ele>680.0</ele><time>2026-05-01T10:33:13.998Z</time></trkpt><trkpt lat="42.0118056281414" lon="13.623155877323661"><ele>680.0</ele><time>2026-05-01T10:33:14.998Z</time></trkpt><trkpt lat="42.01178882929905" lon="13.62339033437047"><ele>680.0</ele><time>2026-05-01T10:33:16Z</time></trkpt><trkpt lat="42.01176709112964" lon="13.623622683505845"><ele>680.0</ele><time>2026-05-01T10:33:17Z</time></trkpt><trkpt lat="42.01174176326879" lon="13.62385132535569"><ele>679.6666666666666</ele><time>2026-05-01T10:33:18Z</time></trkpt><trkpt lat="42.01169154324272" lon="13.62406751860218"><ele>679.3333333333334</ele><time>2026-05-01T10:33:19Z</time></trkpt><trkpt lat="42.011657400614894" lon="13.624284372953069"><ele>679.0</ele><time>2026-05-01T10:33:20Z</time></trkpt><trkpt lat="42.0116343262207" lon="13.624501507975776"><ele>679.0</ele><time>2026-05-01T10:33:21Z</time></trkpt><trkpt lat="42.01158808040445" lon="13.62470894307565"><ele>679.0</ele><time>2026-05-01T10:33:22Z</time></trkpt><trkpt lat="42.01153581626372" lon="13.624910159324287"><ele>679.0</ele><time>2026-05-01T10:33:23Z</time></trkpt><trkpt lat="42.01148295605519" lon="13.625107817602311"><ele>679.0</ele><time>2026-05-01T10:33:24Z</time></trkpt><trkpt lat="42.01142614863569" lon="13.62530260956537"><ele>679.0</ele><time>2026-05-01T10:33:25Z</time></trkpt><trkpt lat="42.01136688260436" lon="13.625494072671975"><ele>679.0</ele><time>2026-05-01T10:33:26Z</time></trkpt><trkpt lat="42.011305263462184" lon="13.625681293469334"><ele>679.5</ele><time>2026-05-01T10:33:27Z</time></trkpt><trkpt lat="42.01124194335904" lon="13.625865410868393"><ele>680.0</ele><time>2026-05-01T10:33:28Z</time></trkpt><trkpt lat="42.011163347278085" lon="13.626035227817873"><ele>680.5</ele><time>2026-05-01T10:33:29Z</time></trkpt><trkpt lat="42.0110926211339" lon="13.626204852982367"><ele>681.0</ele><time>2026-05-01T10:33:30Z</time></trkpt><trkpt lat="42.01101881054397" lon="13.626369077926054"><ele>681.25</ele><time>2026-05-01T10:33:31Z</time></trkpt><trkpt lat="42.01094578135621" lon="13.62653112802425"><ele>681.5</ele><time>2026-05-01T10:33:32Z</time></trkpt><trkpt lat="42.0108793887074" lon="13.62668898382182"><ele>681.75</ele><time>2026-05-01T10:33:33Z</time></trkpt><trkpt lat="42.010822311918645" lon="13.626841821673748"><ele>682.0</ele><time>2026-05-01T10:33:34Z</time></trkpt><trkpt lat="42.010792111328364" lon="13.626994085172445"><ele>682.3333333333334</ele><time>2026-05-01T10:33:35Z</time></trkpt><trkpt lat="42.01076379373079" lon="13.627122794153541"><ele>682.6666666666667</ele><time>2026-05-01T10:33:36Z</time></trkpt><trkpt lat="42.0107501220111" lon="13.62724373626082"><ele>683.0</ele><time>2026-05-01T10:33:37Z</time></trkpt><trkpt lat="42.01073045090026" lon="13.627354118309066"><ele>683.3333333333334</ele><time>2026-05-01T10:33:38Z</time></trkpt><trkpt lat="42.01073010899325" lon="13.627459505264563"><ele>683.6666666666666</ele><time>2026-05-01T10:33:39Z</time></trkpt><trkpt lat="42.01073561899359" lon="13.627562337896798"><ele>684.0</ele><time>2026-05-01T10:33:40Z</time></trkpt><trkpt lat="42.01075474360156" lon="13.627654112377089"><ele>684.0</ele><time>2026-05-01T10:33:41Z</time></trkpt><trkpt lat="42.010766993862134" lon="13.627802593581213"><ele>684.0</ele><time>2026-05-01T10:33:43Z</time></trkpt><trkpt lat="42.01079314237252" lon="13.627916294533339"><ele>684.0</ele><time>2026-05-01T10:33:44.999Z</time></trkpt><trkpt lat="42.01082109897775" lon="13.628055066940796"><ele>684.0</ele><time>2026-05-01T10:33:46.999Z</time></trkpt><trkpt lat="42.0108486949346" lon="13.628134952243768"><ele>684.0</ele><time>2026-05-01T10:33:47.999Z</time></trkpt><trkpt lat="42.010867323734715" lon="13.628242276994756"><ele>684.25</ele><time>2026-05-01T10:33:48.999Z</time></trkpt><trkpt lat="42.010930601535" lon="13.628358162181188"><ele>684.5</ele><time>2026-05-01T10:33:49.999Z</time></trkpt><trkpt lat="42.01099427772405" lon="13.628485449846469"><ele>684.75</ele><time>2026-05-01T10:33:50.999Z</time></trkpt><trkpt lat="42.01106579129674" lon="13.628623063133611"><ele>685.0</ele><time>2026-05-01T10:33:51.999Z</time></trkpt><trkpt lat="42.011150354396186" lon="13.628757195467557"><ele>685.5</ele><time>2026-05-01T10:33:52.999Z</time></trkpt><trkpt lat="42.0112127408403" lon="13.62891065655444"><ele>686.0</ele><time>2026-05-01T10:33:53.999Z</time></trkpt><trkpt lat="42.01128662330668" lon="13.629062123314542"><ele>686.5</ele><time>2026-05-01T10:33:54.999Z</time></trkpt><trkpt lat="42.01136244595211" lon="13.629221289362278"><ele>687.0</ele><time>2026-05-01T10:33:55.999Z</time></trkpt><trkpt lat="42.01144045695608" lon="13.629385282099587"><ele>687.0</ele><time>2026-05-01T10:33:56.999Z</time></trkpt><trkpt lat="42.01152392374964" lon="13.629548799963459"><ele>687.0</ele><time>2026-05-01T10:33:57.999Z</time></trkpt><trkpt lat="42.011609527857324" lon="13.629717321635113"><ele>687.0</ele><time>2026-05-01T10:33:58.999Z</time></trkpt><trkpt lat="42.01168908419399" lon="13.629898688969337"><ele>687.0</ele><time>2026-05-01T10:33:59.999Z</time></trkpt><trkpt lat="42.01175766123215" lon="13.630088834959732"><ele>687.0</ele><time>2026-05-01T10:34:00.999Z</time></trkpt><trkpt lat="42.01181030298984" lon="13.630287319430188"><ele>687.0</ele><time>2026-05-01T10:34:01.999Z</time></trkpt><trkpt lat="42.01184893968793" lon="13.630483303364699"><ele>687.0</ele><time>2026-05-01T10:34:02.999Z</time></trkpt><trkpt lat="42.01187440866587" lon="13.630683128696205"><ele>687.0</ele><time>2026-05-01T10:34:03.999Z</time></trkpt><trkpt lat="42.01188227595129" lon="13.630886805663822"><ele>687.0</ele><time>2026-05-01T10:34:04.999Z</time></trkpt><trkpt lat="42.01187815107222" lon="13.631092989982463"><ele>687.3333333333334</ele><time>2026-05-01T10:34:05.999Z</time></trkpt><trkpt lat="42.011864574592956" lon="13.631299661978773"><ele>687.6666666666667</ele><time>2026-05-01T10:34:06.999Z</time></trkpt><trkpt lat="42.01184515807622" lon="13.63150432442008"><ele>688.0</ele><time>2026-05-01T10:34:07.999Z</time></trkpt><trkpt lat="42.01182511269706" lon="13.631710416149073"><ele>688.0</ele><time>2026-05-01T10:34:08.999Z</time></trkpt><trkpt lat="42.011817509489" lon="13.631918800097868"><ele>688.0</ele><time>2026-05-01T10:34:09.999Z</time></trkpt><trkpt lat="42.01182266653062" lon="13.63212799507725"><ele>688.0</ele><time>2026-05-01T10:34:10.999Z</time></trkpt><trkpt lat="42.01184590143069" lon="13.632338514852083"><ele>688.0</ele><time>2026-05-01T10:34:11.999Z</time></trkpt><trkpt lat="42.011881068509375" lon="13.632547724733184"><ele>688.0</ele><time>2026-05-01T10:34:12.999Z</time></trkpt><trkpt lat="42.01192931993" lon="13.632754598150985"><ele>688.0</ele><time>2026-05-01T10:34:13.999Z</time></trkpt><trkpt lat="42.01199013776186" lon="13.632957793802012"><ele>688.3333333333334</ele><time>2026-05-01T10:34:14.999Z</time></trkpt><trkpt lat="42.01206665116993" lon="13.633156732568965"><ele>688.6666666666666</ele><time>2026-05-01T10:34:15.999Z</time></trkpt><trkpt lat="42.012151116228516" lon="13.633352216577064"><ele>689.0</ele><time>2026-05-01T10:34:16.999Z</time></trkpt><trkpt lat="42.01224593837111" lon="13.633537986605814"><ele>689.0</ele><time>2026-05-01T10:34:17.999Z</time></trkpt><trkpt lat="42.01234938333352" lon="13.633712075436447"><ele>689.0</ele><time>2026-05-01T10:34:18.999Z</time></trkpt><trkpt lat="42.01246635307785" lon="13.63387927709554"><ele>689.0</ele><time>2026-05-01T10:34:19.999Z</time></trkpt><trkpt lat="42.01258752076314" lon="13.634039891944479"><ele>689.0</ele><time>2026-05-01T10:34:20.999Z</time></trkpt><trkpt lat="42.012709064441246" lon="13.634197826265687"><ele>689.0</ele><time>2026-05-01T10:34:21.999Z</time></trkpt><trkpt lat="42.01283418388598" lon="13.634352100993066"><ele>689.0</ele><time>2026-05-01T10:34:22.999Z</time></trkpt><trkpt lat="42.0129597069608" lon="13.634506446827878"><ele>689.3333333333333</ele><time>2026-05-01T10:34:23.999Z</time></trkpt><trkpt lat="42.01308904102879" lon="13.634656072587271"><ele>689.6666666666666</ele><time>2026-05-01T10:34:24.999Z</time></trkpt><trkpt lat="42.01321950408981" lon="13.634804417469953"><ele>690.0</ele><time>2026-05-01T10:34:25.999Z</time></trkpt><trkpt lat="42.01334891728924" lon="13.634956993171608"><ele>690.0</ele><time>2026-05-01T10:34:26.999Z</time></trkpt><trkpt lat="42.013475798022675" lon="13.635112352915561"><ele>690.0</ele><time>2026-05-01T10:34:27.999Z</time></trkpt><trkpt lat="42.01360159470367" lon="13.635270900469067"><ele>690.0</ele><time>2026-05-01T10:34:28.999Z</time></trkpt><trkpt lat="42.013728887905074" lon="13.635431603630016"><ele>690.3333333333334</ele><time>2026-05-01T10:34:29.999Z</time></trkpt><trkpt lat="42.013854187043066" lon="13.63559279258139"><ele>690.6666666666667</ele><time>2026-05-01T10:34:30.999Z</time></trkpt><trkpt lat="42.0139787008014" lon="13.635758016099008"><ele>691.0</ele><time>2026-05-01T10:34:31.999Z</time></trkpt><trkpt lat="42.01410420565626" lon="13.635920372569274"><ele>691.0</ele><time>2026-05-01T10:34:32.999Z</time></trkpt><trkpt lat="42.014229706255826" lon="13.636083340105849"><ele>691.0</ele><time>2026-05-01T10:34:33.999Z</time></trkpt><trkpt lat="42.01435561834037" lon="13.636243256516302"><ele>691.0</ele><time>2026-05-01T10:34:34.999Z</time></trkpt><trkpt lat="42.01448438407385" lon="13.636401063615708"><ele>691.3333333333334</ele><time>2026-05-01T10:34:35.999Z</time></trkpt><trkpt lat="42.01461447293996" lon="13.63655506717619"><ele>691.6666666666666</ele><time>2026-05-01T10:34:36.999Z</time></trkpt><trkpt lat="42.01474653599101" lon="13.636706049712934"><ele>692.0</ele><time>2026-05-01T10:34:37.999Z</time></trkpt><trkpt lat="42.014880245691224" lon="13.636858283449868"><ele>692.3333333333333</ele><time>2026-05-01T10:34:38.999Z</time></trkpt><trkpt lat="42.015015164733796" lon="13.637011227161182"><ele>692.6666666666666</ele><time>2026-05-01T10:34:39.999Z</time></trkpt><trkpt lat="42.01515188870454" lon="13.63716275067906"><ele>693.0</ele><time>2026-05-01T10:34:40.999Z</time></trkpt><trkpt lat="42.015291347831614" lon="13.637318395037184"><ele>693.0</ele><time>2026-05-01T10:34:41.998Z</time></trkpt><trkpt lat="42.01543031471989" lon="13.637474755458303"><ele>693.0</ele><time>2026-05-01T10:34:42.998Z</time></trkpt><trkpt lat="42.015570979613784" lon="13.637629535483864"><ele>693.0</ele><time>2026-05-01T10:34:43.998Z</time></trkpt><trkpt lat="42.015712480175345" lon="13.637785326676893"><ele>693.6666666666666</ele><time>2026-05-01T10:34:44.998Z</time></trkpt><trkpt lat="42.015853058760584" lon="13.637943189189507"><ele>694.3333333333333</ele><time>2026-05-01T10:34:45.998Z</time></trkpt><trkpt lat="42.01599026437495" lon="13.638108460510246"><ele>695.0</ele><time>2026-05-01T10:34:46.998Z</time></trkpt><trkpt lat="42.01612251370088" lon="13.638283026786695"><ele>695.0</ele><time>2026-05-01T10:34:47.998Z</time></trkpt><trkpt lat="42.01625104580648" lon="13.638467839372032"><ele>695.0</ele><time>2026-05-01T10:34:48.998Z</time></trkpt><trkpt lat="42.01637272636506" lon="13.638649823630704"><ele>695.0</ele><time>2026-05-01T10:34:49.998Z</time></trkpt><trkpt lat="42.01650105736141" lon="13.638825087404037"><ele>695.0</ele><time>2026-05-01T10:34:50.998Z</time></trkpt><trkpt lat="42.016644232714995" lon="13.638979753308012"><ele>695.0</ele><time>2026-05-01T10:34:51.998Z</time></trkpt><trkpt lat="42.016809696298736" lon="13.639098923542113"><ele>695.0</ele><time>2026-05-01T10:34:52.998Z</time></trkpt><trkpt lat="42.01698842899699" lon="13.639187722306087"><ele>695.0</ele><time>2026-05-01T10:34:53.998Z</time></trkpt><trkpt lat="42.017174978874316" lon="13.639256008396751"><ele>695.0</ele><time>2026-05-01T10:34:54.998Z</time></trkpt><trkpt lat="42.01736025200714" lon="13.639319946023415"><ele>695.0</ele><time>2026-05-01T10:34:55.998Z</time></trkpt><trkpt lat="42.01754350482124" lon="13.639406339468161"><ele>695.3333333333333</ele><time>2026-05-01T10:34:56.998Z</time></trkpt><trkpt lat="42.01772117119481" lon="13.639514098769538"><ele>695.6666666666666</ele><time>2026-05-01T10:34:57.998Z</time></trkpt><trkpt lat="42.01789179600106" lon="13.639638262327184"><ele>696.0</ele><time>2026-05-01T10:34:58.998Z</time></trkpt><trkpt lat="42.01805502734073" lon="13.639768487867839"><ele>696.0</ele><time>2026-05-01T10:34:59.998Z</time></trkpt><trkpt lat="42.01820657067465" lon="13.639915751811419"><ele>696.0</ele><time>2026-05-01T10:35:00.998Z</time></trkpt><trkpt lat="42.01834486175197" lon="13.640093752700784"><ele>696.0</ele><time>2026-05-01T10:35:01.998Z</time></trkpt><trkpt lat="42.01847623415804" lon="13.640287664478745"><ele>695.3333333333334</ele><time>2026-05-01T10:35:02.998Z</time></trkpt><trkpt lat="42.01860700781413" lon="13.640487599758357"><ele>694.6666666666667</ele><time>2026-05-01T10:35:03.998Z</time></trkpt><trkpt lat="42.01873918558947" lon="13.640686735990126"><ele>694.0</ele><time>2026-05-01T10:35:04.998Z</time></trkpt><trkpt lat="42.01887012009062" lon="13.640887732038259"><ele>694.0</ele><time>2026-05-01T10:35:05.998Z</time></trkpt><trkpt lat="42.01899998819177" lon="13.641089326135189"><ele>694.0</ele><time>2026-05-01T10:35:06.998Z</time></trkpt><trkpt lat="42.01913004564665" lon="13.641287207400582"><ele>694.0</ele><time>2026-05-01T10:35:07.998Z</time></trkpt><trkpt lat="42.01925939213515" lon="13.641487290811039"><ele>694.6666666666667</ele><time>2026-05-01T10:35:08.998Z</time></trkpt><trkpt lat="42.01938841558416" lon="13.6416842148168"><ele>695.3333333333334</ele><time>2026-05-01T10:35:09.998Z</time></trkpt><trkpt lat="42.01951567682595" lon="13.64188047842081"><ele>696.0</ele><time>2026-05-01T10:35:10.998Z</time></trkpt><trkpt lat="42.019640533885315" lon="13.642079741757934"><ele>696.0</ele><time>2026-05-01T10:35:11.998Z</time></trkpt><trkpt lat="42.01975917355488" lon="13.642283977370173"><ele>696.0</ele><time>2026-05-01T10:35:12.998Z</time></trkpt><trkpt lat="42.019870297851874" lon="13.642497127817684"><ele>696.0</ele><time>2026-05-01T10:35:13.998Z</time></trkpt><trkpt lat="42.01997727664231" lon="13.642710248365333"><ele>697.0</ele><time>2026-05-01T10:35:14.998Z</time></trkpt><trkpt lat="42.020084130459495" lon="13.642922876447724"><ele>698.0</ele><time>2026-05-01T10:35:15.998Z</time></trkpt><trkpt lat="42.02019255227083" lon="13.643131797952272"><ele>699.0</ele><time>2026-05-01T10:35:16.998Z</time></trkpt><trkpt lat="42.02029939257059" lon="13.643339939925577"><ele>699.0</ele><time>2026-05-01T10:35:17.998Z</time></trkpt><trkpt lat="42.02040610300428" lon="13.643546960103459"><ele>699.0</ele><time>2026-05-01T10:35:18.998Z</time></trkpt><trkpt lat="42.02051311361514" lon="13.643752166377212"><ele>699.0</ele><time>2026-05-01T10:35:19.998Z</time></trkpt><trkpt lat="42.02061953865353" lon="13.64395181379553"><ele>699.3333333333334</ele><time>2026-05-01T10:35:20.998Z</time></trkpt><trkpt lat="42.020721409927944" lon="13.644149603689415"><ele>699.6666666666667</ele><time>2026-05-01T10:35:22Z</time></trkpt><trkpt lat="42.02078908831723" lon="13.644360792284305"><ele>700.0</ele><time>2026-05-01T10:35:23Z</time></trkpt><trkpt lat="42.02083356454046" lon="13.644580132900666"><ele>700.3333333333334</ele><time>2026-05-01T10:35:24Z</time></trkpt><trkpt lat="42.02085048087653" lon="13.644797800582595"><ele>700.6666666666666</ele><time>2026-05-01T10:35:25Z</time></trkpt><trkpt lat="42.020862345162385" lon="13.645004126199707"><ele>701.0</ele><time>2026-05-01T10:35:26Z</time></trkpt><trkpt lat="42.02086626339569" lon="13.645189868353462"><ele>701.0</ele><time>2026-05-01T10:35:27Z</time></trkpt><trkpt lat="42.02085995659972" lon="13.645353539153222"><ele>701.0</ele><time>2026-05-01T10:35:28Z</time></trkpt><trkpt lat="42.02083597380022" lon="13.645512271508865"><ele>701.0</ele><time>2026-05-01T10:35:29Z</time></trkpt><trkpt lat="42.020764888509774" lon="13.645638486099001"><ele>701.0</ele><time>2026-05-01T10:35:30Z</time></trkpt><trkpt lat="42.02067340665798" lon="13.645751631460433"><ele>701.0</ele><time>2026-05-01T10:35:31Z</time></trkpt><trkpt lat="42.020559987383976" lon="13.645813626796999"><ele>701.0</ele><time>2026-05-01T10:35:32Z</time></trkpt><trkpt lat="42.02043893651048" lon="13.645902218864082"><ele>701.0</ele><time>2026-05-01T10:35:33Z</time></trkpt><trkpt lat="42.02031495103188" lon="13.645999700230357"><ele>701.0</ele><time>2026-05-01T10:35:34Z</time></trkpt><trkpt lat="42.02019644621189" lon="13.646116202531724"><ele>701.0</ele><time>2026-05-01T10:35:35Z</time></trkpt><trkpt lat="42.02008685598176" lon="13.646254914428324"><ele>701.0</ele><time>2026-05-01T10:35:36Z</time></trkpt><trkpt lat="42.01999716549264" lon="13.646399764130848"><ele>701.0</ele><time>2026-05-01T10:35:37Z</time></trkpt><trkpt lat="42.01993764858418" lon="13.646545564167075"><ele>701.0</ele><time>2026-05-01T10:35:38Z</time></trkpt><trkpt lat="42.019906197995205" lon="13.646688508637046"><ele>701.0</ele><time>2026-05-01T10:35:39Z</time></trkpt><trkpt lat="42.01988607497362" lon="13.646830557915946"><ele>701.0</ele><time>2026-05-01T10:35:40Z</time></trkpt><trkpt lat="42.01991561738062" lon="13.6470011971978"><ele>701.0</ele><time>2026-05-01T10:35:41Z</time></trkpt><trkpt lat="42.01994628078156" lon="13.647167456897252"><ele>701.0</ele><time>2026-05-01T10:35:42Z</time></trkpt><trkpt lat="42.01998105987686" lon="13.647346587482273"><ele>701.25</ele><time>2026-05-01T10:35:43Z</time></trkpt><trkpt lat="42.02001872251619" lon="13.647540238545849"><ele>701.5</ele><time>2026-05-01T10:35:44Z</time></trkpt><trkpt lat="42.02006228355078" lon="13.647733497641832"><ele>701.75</ele><time>2026-05-01T10:35:45Z</time></trkpt><trkpt lat="42.02012875806145" lon="13.647914270265145"><ele>702.0</ele><time>2026-05-01T10:35:46Z</time></trkpt><trkpt lat="42.02018248594016" lon="13.648087880246553"><ele>702.6666666666666</ele><time>2026-05-01T10:35:47Z</time></trkpt><trkpt lat="42.020248018867306" lon="13.648258177844362"><ele>703.3333333333333</ele><time>2026-05-01T10:35:48Z</time></trkpt><trkpt lat="42.020339263049806" lon="13.648421589225105"><ele>704.0</ele><time>2026-05-01T10:35:49Z</time></trkpt><trkpt lat="42.02041982312681" lon="13.648606061127644"><ele>704.3333333333333</ele><time>2026-05-01T10:35:50Z</time></trkpt><trkpt lat="42.020510145862445" lon="13.6487947562332"><ele>704.6666666666666</ele><time>2026-05-01T10:35:51Z</time></trkpt><trkpt lat="42.020602618813115" lon="13.648987943402846"><ele>705.0</ele><time>2026-05-01T10:35:51.999Z</time></trkpt><trkpt lat="42.02070206786939" lon="13.649184699930467"><ele>705.0</ele><time>2026-05-01T10:35:52.999Z</time></trkpt><trkpt lat="42.02078796739725" lon="13.649381806413691"><ele>705.0</ele><time>2026-05-01T10:35:53.999Z</time></trkpt><trkpt lat="42.02087749128969" lon="13.649579605491708"><ele>705.0</ele><time>2026-05-01T10:35:54.999Z</time></trkpt><trkpt lat="42.020968981649226" lon="13.649776886895674"><ele>705.0</ele><time>2026-05-01T10:35:55.999Z</time></trkpt><trkpt lat="42.02104373442521" lon="13.64998502630608"><ele>705.0</ele><time>2026-05-01T10:35:56.999Z</time></trkpt><trkpt lat="42.02110464990495" lon="13.65019565520729"><ele>705.0</ele><time>2026-05-01T10:35:57.999Z</time></trkpt><trkpt lat="42.021142725336055" lon="13.650421299134694"><ele>705.0</ele><time>2026-05-01T10:35:58.999Z</time></trkpt><trkpt lat="42.02116081158166" lon="13.650656517004862"><ele>705.0</ele><time>2026-05-01T10:35:59.999Z</time></trkpt><trkpt lat="42.021171608255514" lon="13.650892375933113"><ele>705.0</ele><time>2026-05-01T10:36:00.999Z</time></trkpt><trkpt lat="42.02118484803094" lon="13.65112977907973"><ele>706.0</ele><time>2026-05-01T10:36:01.999Z</time></trkpt><trkpt lat="42.02120838687905" lon="13.65136856802828"><ele>707.0</ele><time>2026-05-01T10:36:02.999Z</time></trkpt><trkpt lat="42.02125136527872" lon="13.651604524565691"><ele>708.0</ele><time>2026-05-01T10:36:03.999Z</time></trkpt><trkpt lat="42.02131251198043" lon="13.65183570043371"><ele>708.0</ele><time>2026-05-01T10:36:04.999Z</time></trkpt><trkpt lat="42.021388266381855" lon="13.652063993483404"><ele>708.0</ele><time>2026-05-01T10:36:05.999Z</time></trkpt><trkpt lat="42.02146209533883" lon="13.652288893474935"><ele>708.0</ele><time>2026-05-01T10:36:06.999Z</time></trkpt><trkpt lat="42.021532811626756" lon="13.652502440388684"><ele>708.0</ele><time>2026-05-01T10:36:07.999Z</time></trkpt><trkpt lat="42.021597715142406" lon="13.65269856805434"><ele>708.0</ele><time>2026-05-01T10:36:08.999Z</time></trkpt><trkpt lat="42.02164683929478" lon="13.652887377268343"><ele>708.0</ele><time>2026-05-01T10:36:09.999Z</time></trkpt><trkpt lat="42.02167881396133" lon="13.653075431857935"><ele>709.0</ele><time>2026-05-01T10:36:10.999Z</time></trkpt><trkpt lat="42.02166178658854" lon="13.653261362132115"><ele>710.0</ele><time>2026-05-01T10:36:11.999Z</time></trkpt><trkpt lat="42.02166505227214" lon="13.65345236136998"><ele>711.0</ele><time>2026-05-01T10:36:12.999Z</time></trkpt><trkpt lat="42.02163826720894" lon="13.653645863090977"><ele>712.0</ele><time>2026-05-01T10:36:13.999Z</time></trkpt><trkpt lat="42.021623479673394" lon="13.65383826660797"><ele>713.2</ele><time>2026-05-01T10:36:14.999Z</time></trkpt><trkpt lat="42.02161221234158" lon="13.654015936342494"><ele>714.4000000000001</ele><time>2026-05-01T10:36:15.999Z</time></trkpt><trkpt lat="42.021602212299044" lon="13.654171028429069"><ele>715.5999999999999</ele><time>2026-05-01T10:36:16.999Z</time></trkpt><trkpt lat="42.02157064626604" lon="13.654297227787792"><ele>716.8</ele><time>2026-05-01T10:36:17.999Z</time></trkpt><trkpt lat="42.02158502842001" lon="13.654407476992832"><ele>718.0</ele><time>2026-05-01T10:36:18.999Z</time></trkpt><trkpt lat="42.02158038824574" lon="13.65450483904113"><ele>719.0</ele><time>2026-05-01T10:36:19.999Z</time></trkpt><trkpt lat="42.02157535626785" lon="13.654606533729563"><ele>720.0</ele><time>2026-05-01T10:36:21.999Z</time></trkpt><trkpt lat="42.02160569815778" lon="13.654691166321541"><ele>721.0</ele><time>2026-05-01T10:36:24.999Z</time></trkpt><trkpt lat="42.021703870752134" lon="13.654804659678259"><ele>722.0</ele><time>2026-05-01T10:36:26.999Z</time></trkpt><trkpt lat="42.02176921874255" lon="13.65485481902658"><ele>723.0</ele><time>2026-05-01T10:36:27.999Z</time></trkpt><trkpt lat="42.02184637765847" lon="13.654930392914162"><ele>724.0</ele><time>2026-05-01T10:36:28.999Z</time></trkpt><trkpt lat="42.02192451347951" lon="13.655005637754906"><ele>724.0</ele><time>2026-05-01T10:36:29.999Z</time></trkpt><trkpt lat="42.02200283848847" lon="13.655084121153138"><ele>724.0</ele><time>2026-05-01T10:36:30.999Z</time></trkpt><trkpt lat="42.02209548015683" lon="13.655163963550777"><ele>724.0</ele><time>2026-05-01T10:36:31.999Z</time></trkpt><trkpt lat="42.02219151135048" lon="13.655249148349728"><ele>724.0</ele><time>2026-05-01T10:36:32.999Z</time></trkpt><trkpt lat="42.02229383936645" lon="13.655338815185663"><ele>724.0</ele><time>2026-05-01T10:36:33.999Z</time></trkpt><trkpt lat="42.02239782881672" lon="13.65543625079134"><ele>724.5</ele><time>2026-05-01T10:36:34.999Z</time></trkpt><trkpt lat="42.02250337521861" lon="13.655547442262938"><ele>725.0</ele><time>2026-05-01T10:36:35.999Z</time></trkpt><trkpt lat="42.02260028106119" lon="13.655670336705716"><ele>725.5</ele><time>2026-05-01T10:36:36.999Z</time></trkpt><trkpt lat="42.02268549759485" lon="13.655802084169391"><ele>726.0</ele><time>2026-05-01T10:36:37.999Z</time></trkpt><trkpt lat="42.022763775429674" lon="13.655947901868522"><ele>726.0</ele><time>2026-05-01T10:36:38.999Z</time></trkpt><trkpt lat="42.02283698223085" lon="13.65610300747469"><ele>726.0</ele><time>2026-05-01T10:36:39.999Z</time></trkpt><trkpt lat="42.02290340260675" lon="13.656265214715706"><ele>726.0</ele><time>2026-05-01T10:36:40.999Z</time></trkpt><trkpt lat="42.022968891003366" lon="13.656426813767933"><ele>726.0</ele><time>2026-05-01T10:36:41.999Z</time></trkpt><trkpt lat="42.023034964758445" lon="13.656585083715141"><ele>726.25</ele><time>2026-05-01T10:36:42.999Z</time></trkpt><trkpt lat="42.0231047039916" lon="13.656738419008104"><ele>726.5</ele><time>2026-05-01T10:36:43.999Z</time></trkpt><trkpt lat="42.02317645548674" lon="13.656888923190575"><ele>726.75</ele><time>2026-05-01T10:36:44.999Z</time></trkpt><trkpt lat="42.0232535428116" lon="13.657032125224342"><ele>727.0</ele><time>2026-05-01T10:36:45.999Z</time></trkpt><trkpt lat="42.02333385096369" lon="13.657167239405204"><ele>727.0</ele><time>2026-05-01T10:36:46.999Z</time></trkpt><trkpt lat="42.023416686701914" lon="13.657298817634281"><ele>727.0</ele><time>2026-05-01T10:36:47.998Z</time></trkpt><trkpt lat="42.02349435872231" lon="13.657427210875221"><ele>727.0</ele><time>2026-05-01T10:36:48.998Z</time></trkpt><trkpt lat="42.02356825903518" lon="13.657549458713365"><ele>727.0</ele><time>2026-05-01T10:36:49.998Z</time></trkpt><trkpt lat="42.023642173535606" lon="13.657668849017037"><ele>727.0</ele><time>2026-05-01T10:36:50.998Z</time></trkpt><trkpt lat="42.02371163130757" lon="13.657781858905004"><ele>727.0</ele><time>2026-05-01T10:36:51.998Z</time></trkpt><trkpt lat="42.02377757638184" lon="13.657887832000402"><ele>727.0</ele><time>2026-05-01T10:36:52.998Z</time></trkpt><trkpt lat="42.023836745627214" lon="13.65799400380314"><ele>727.0</ele><time>2026-05-01T10:36:53.998Z</time></trkpt><trkpt lat="42.023893485454316" lon="13.658088568480608"><ele>727.0</ele><time>2026-05-01T10:36:54.998Z</time></trkpt><trkpt lat="42.02394734710278" lon="13.658178276719383"><ele>726.6</ele><time>2026-05-01T10:36:55.998Z</time></trkpt><trkpt lat="42.024002018269584" lon="13.658266386353079"><ele>726.2</ele><time>2026-05-01T10:36:56.998Z</time></trkpt><trkpt lat="42.024062935482014" lon="13.65835536340462"><ele>725.8</ele><time>2026-05-01T10:36:57.998Z</time></trkpt><trkpt lat="42.02413099654313" lon="13.658449142921727"><ele>725.4</ele><time>2026-05-01T10:36:58.998Z</time></trkpt><trkpt lat="42.02420724446736" lon="13.658547163217177"><ele>725.0</ele><time>2026-05-01T10:36:59.998Z</time></trkpt><trkpt lat="42.024283746167484" lon="13.65865338985177"><ele>726.75</ele><time>2026-05-01T10:37:00.998Z</time></trkpt><trkpt lat="42.02436343971723" lon="13.658762250788373"><ele>728.5</ele><time>2026-05-01T10:37:01.998Z</time></trkpt><trkpt lat="42.0244438359203" lon="13.658874666728487"><ele>730.25</ele><time>2026-05-01T10:37:02.998Z</time></trkpt><trkpt lat="42.02452018656686" lon="13.658991437780845"><ele>732.0</ele><time>2026-05-01T10:37:03.998Z</time></trkpt><trkpt lat="42.02459931383953" lon="13.659105615606498"><ele>732.0</ele><time>2026-05-01T10:37:04.998Z</time></trkpt><trkpt lat="42.024684232129076" lon="13.659211076048548"><ele>732.0</ele><time>2026-05-01T10:37:05.998Z</time></trkpt><trkpt lat="42.024772930166165" lon="13.659311955647766"><ele>732.0</ele><time>2026-05-01T10:37:06.998Z</time></trkpt><trkpt lat="42.02485653162381" lon="13.659398421262804"><ele>732.0</ele><time>2026-05-01T10:37:07.998Z</time></trkpt><trkpt lat="42.02493159876421" lon="13.65946473513021"><ele>732.0</ele><time>2026-05-01T10:37:08.998Z</time></trkpt><trkpt lat="42.02499220578027" lon="13.659522776638134"><ele>732.0</ele><time>2026-05-01T10:37:09.998Z</time></trkpt><trkpt lat="42.02508352204425" lon="13.659597968462549"><ele>732.0</ele><time>2026-05-01T10:37:11.998Z</time></trkpt><trkpt lat="42.025145858234225" lon="13.659638846258826"><ele>732.0</ele><time>2026-05-01T10:37:13.998Z</time></trkpt><trkpt lat="42.02522310080693" lon="13.659672177940141"><ele>732.0</ele><time>2026-05-01T10:37:15.998Z</time></trkpt><trkpt lat="42.025282556316924" lon="13.659723730111788"><ele>732.0</ele><time>2026-05-01T10:37:17.998Z</time></trkpt><trkpt lat="42.02536023215311" lon="13.659787340843904"><ele>732.0</ele><time>2026-05-01T10:37:20.998Z</time></trkpt><trkpt lat="42.02543180990334" lon="13.659837980857903"><ele>732.0</ele><time>2026-05-01T10:37:23.998Z</time></trkpt><trkpt lat="42.025486867325974" lon="13.659909553744273"><ele>732.0</ele><time>2026-05-01T10:37:37Z</time></trkpt><trkpt lat="42.02555184705117" lon="13.659945712618992"><ele>732.0</ele><time>2026-05-01T10:37:40Z</time></trkpt><trkpt lat="42.025604285016584" lon="13.660003007127669"><ele>732.0</ele><time>2026-05-01T10:37:43Z</time></trkpt><trkpt lat="42.02567238138204" lon="13.660036097576038"><ele>732.0</ele><time>2026-05-01T10:37:45Z</time></trkpt><trkpt lat="42.02573240793017" lon="13.66006604012257"><ele>732.0</ele><time>2026-05-01T10:37:47Z</time></trkpt><trkpt lat="42.025796822405816" lon="13.66009658744609"><ele>732.0</ele><time>2026-05-01T10:37:49Z</time></trkpt><trkpt lat="42.02585819931476" lon="13.660124762386076"><ele>731.3333333333334</ele><time>2026-05-01T10:37:51Z</time></trkpt><trkpt lat="42.025941321280264" lon="13.66013275159145"><ele>730.6666666666666</ele><time>2026-05-01T10:37:54Z</time></trkpt><trkpt lat="42.026007558027565" lon="13.660109705435586"><ele>730.0</ele><time>2026-05-01T10:37:57Z</time></trkpt><trkpt lat="42.02609276392338" lon="13.660076066718798"><ele>729.3333333333333</ele><time>2026-05-01T10:38:00.999Z</time></trkpt><trkpt lat="42.026152094273016" lon="13.660041342926181"><ele>728.6666666666666</ele><time>2026-05-01T10:38:02.999Z</time></trkpt><trkpt lat="42.02624438125912" lon="13.659976501100749"><ele>728.0</ele><time>2026-05-01T10:38:05.999Z</time></trkpt><trkpt lat="42.02633023830657" lon="13.659999765530788"><ele>728.0</ele><time>2026-05-01T10:38:07.999Z</time></trkpt><trkpt lat="42.02639721784898" lon="13.660039438120169"><ele>728.0</ele><time>2026-05-01T10:38:09.999Z</time></trkpt><trkpt lat="42.026458086051726" lon="13.660137300644019"><ele>728.0</ele><time>2026-05-01T10:38:11.999Z</time></trkpt><trkpt lat="42.02653668061474" lon="13.660262026480376"><ele>728.0</ele><time>2026-05-01T10:38:13.999Z</time></trkpt><trkpt lat="42.02658069343966" lon="13.660337866156896"><ele>728.0</ele><time>2026-05-01T10:38:14.999Z</time></trkpt><trkpt lat="42.026626018919856" lon="13.660419497050833"><ele>728.0</ele><time>2026-05-01T10:38:15.999Z</time></trkpt><trkpt lat="42.02667450703072" lon="13.660501394141786"><ele>728.1666666666666</ele><time>2026-05-01T10:38:16.999Z</time></trkpt><trkpt lat="42.026724517750424" lon="13.66058078431081"><ele>728.3333333333333</ele><time>2026-05-01T10:38:17.999Z</time></trkpt><trkpt lat="42.0267710136316" lon="13.660664313487336"><ele>728.5</ele><time>2026-05-01T10:38:18.999Z</time></trkpt><trkpt lat="42.02680555963762" lon="13.66075559406377"><ele>728.6666666666666</ele><time>2026-05-01T10:38:19.999Z</time></trkpt><trkpt lat="42.02684799973773" lon="13.660832842708365"><ele>728.8333333333334</ele><time>2026-05-01T10:38:20.999Z</time></trkpt><trkpt lat="42.026888011385175" lon="13.660907505846435"><ele>729.0</ele><time>2026-05-01T10:38:21.999Z</time></trkpt><trkpt lat="42.026960168421574" lon="13.661031370975648"><ele>730.0</ele><time>2026-05-01T10:38:23.999Z</time></trkpt><trkpt lat="42.027021896186326" lon="13.661151514052639"><ele>731.0</ele><time>2026-05-01T10:38:25.999Z</time></trkpt><trkpt lat="42.0271051149268" lon="13.661289545972693"><ele>732.0</ele><time>2026-05-01T10:38:27.999Z</time></trkpt><trkpt lat="42.027138120805425" lon="13.661381471420839"><ele>733.0</ele><time>2026-05-01T10:38:28.999Z</time></trkpt><trkpt lat="42.027184166699726" lon="13.66146560813417"><ele>734.0</ele><time>2026-05-01T10:38:29.999Z</time></trkpt><trkpt lat="42.02723187432925" lon="13.661553166615843"><ele>734.0</ele><time>2026-05-01T10:38:30.999Z</time></trkpt><trkpt lat="42.02728058703154" lon="13.66164746214673"><ele>734.0</ele><time>2026-05-01T10:38:31.999Z</time></trkpt><trkpt lat="42.02733359952422" lon="13.661744729692659"><ele>734.0</ele><time>2026-05-01T10:38:32.999Z</time></trkpt><trkpt lat="42.027395237876526" lon="13.661839927969805"><ele>734.0</ele><time>2026-05-01T10:38:33.999Z</time></trkpt><trkpt lat="42.02744968116727" lon="13.661939383813895"><ele>734.0</ele><time>2026-05-01T10:38:34.999Z</time></trkpt><trkpt lat="42.027507599738634" lon="13.662040162924848"><ele>733.8000000000001</ele><time>2026-05-01T10:38:35.999Z</time></trkpt><trkpt lat="42.02756505015012" lon="13.662149402499937"><ele>733.6</ele><time>2026-05-01T10:38:36.999Z</time></trkpt><trkpt lat="42.027623833317286" lon="13.662257951646318"><ele>733.4</ele><time>2026-05-01T10:38:37.999Z</time></trkpt><trkpt lat="42.02767971770191" lon="13.662357861223846"><ele>733.2</ele><time>2026-05-01T10:38:38.999Z</time></trkpt><trkpt lat="42.0277265411592" lon="13.662480585596752"><ele>733.0</ele><time>2026-05-01T10:38:39.999Z</time></trkpt><trkpt lat="42.02778551541157" lon="13.662593134868587"><ele>733.0</ele><time>2026-05-01T10:38:40.999Z</time></trkpt><trkpt lat="42.02784739303857" lon="13.66270740349179"><ele>733.0</ele><time>2026-05-01T10:38:41.999Z</time></trkpt><trkpt lat="42.02790633923563" lon="13.662815972785586"><ele>733.0</ele><time>2026-05-01T10:38:42.999Z</time></trkpt><trkpt lat="42.027963068835234" lon="13.662920459454039"><ele>733.0</ele><time>2026-05-01T10:38:43.999Z</time></trkpt><trkpt lat="42.028020658892714" lon="13.663026530932507"><ele>733.0</ele><time>2026-05-01T10:38:44.999Z</time></trkpt><trkpt lat="42.02807339881572" lon="13.663125492505662"><ele>733.8</ele><time>2026-05-01T10:38:45.999Z</time></trkpt><trkpt lat="42.0281241190309" lon="13.663220833044269"><ele>734.5999999999999</ele><time>2026-05-01T10:38:46.999Z</time></trkpt><trkpt lat="42.028177703610005" lon="13.663318259254169"><ele>735.4000000000001</ele><time>2026-05-01T10:38:47.999Z</time></trkpt><trkpt lat="42.02823711437769" lon="13.663418771320249"><ele>736.2</ele><time>2026-05-01T10:38:48.999Z</time></trkpt><trkpt lat="42.028300302703734" lon="13.663519061904733"><ele>737.0</ele><time>2026-05-01T10:38:49.999Z</time></trkpt><trkpt lat="42.02836642090655" lon="13.663616950663325"><ele>737.0</ele><time>2026-05-01T10:38:50.999Z</time></trkpt><trkpt lat="42.02843903546175" lon="13.663717227285115"><ele>737.0</ele><time>2026-05-01T10:38:51.999Z</time></trkpt><trkpt lat="42.02851432675096" lon="13.663817230396841"><ele>737.0</ele><time>2026-05-01T10:38:52.998Z</time></trkpt><trkpt lat="42.02860432933287" lon="13.663906859062207"><ele>737.0</ele><time>2026-05-01T10:38:53.998Z</time></trkpt><trkpt lat="42.02868920806807" lon="13.664017538230405"><ele>737.0</ele><time>2026-05-01T10:38:54.998Z</time></trkpt><trkpt lat="42.02877664147713" lon="13.664125916302483"><ele>737.0</ele><time>2026-05-01T10:38:55.998Z</time></trkpt><trkpt lat="42.02886958449091" lon="13.664228801019"><ele>737.0</ele><time>2026-05-01T10:38:56.998Z</time></trkpt><trkpt lat="42.02896498013973" lon="13.66432962815012"><ele>737.0</ele><time>2026-05-01T10:38:57.998Z</time></trkpt><trkpt lat="42.02905647442178" lon="13.664434205192544"><ele>737.0</ele><time>2026-05-01T10:38:58.998Z</time></trkpt><trkpt lat="42.02914306209171" lon="13.664550976601074"><ele>738.25</ele><time>2026-05-01T10:38:59.998Z</time></trkpt><trkpt lat="42.02923048103368" lon="13.664672312133922"><ele>739.5</ele><time>2026-05-01T10:39:00.998Z</time></trkpt><trkpt lat="42.0293120969152" lon="13.664804405617023"><ele>740.75</ele><time>2026-05-01T10:39:01.998Z</time></trkpt><trkpt lat="42.02938145146277" lon="13.664950939847088"><ele>742.0</ele><time>2026-05-01T10:39:02.998Z</time></trkpt><trkpt lat="42.02944215518667" lon="13.665098669695903"><ele>742.0</ele><time>2026-05-01T10:39:03.998Z</time></trkpt><trkpt lat="42.029486123758836" lon="13.665238275165628"><ele>742.0</ele><time>2026-05-01T10:39:04.998Z</time></trkpt><trkpt lat="42.02952374326267" lon="13.665375058220622"><ele>742.0</ele><time>2026-05-01T10:39:05.998Z</time></trkpt><trkpt lat="42.02955234157196" lon="13.665512547109264"><ele>742.0</ele><time>2026-05-01T10:39:06.998Z</time></trkpt><trkpt lat="42.0295765598903" lon="13.665649750352237"><ele>742.0</ele><time>2026-05-01T10:39:07.998Z</time></trkpt><trkpt lat="42.02959509286225" lon="13.665791863201987"><ele>745.5</ele><time>2026-05-01T10:39:08.998Z</time></trkpt><trkpt lat="42.0296189179109" lon="13.665935413893344"><ele>749.0</ele><time>2026-05-01T10:39:09.998Z</time></trkpt><trkpt lat="42.02963975790579" lon="13.66608536423995"><ele>752.5</ele><time>2026-05-01T10:39:10.998Z</time></trkpt><trkpt lat="42.02965187084956" lon="13.666238017547682"><ele>756.0</ele><time>2026-05-01T10:39:11.998Z</time></trkpt><trkpt lat="42.02964893485971" lon="13.66639663232936"><ele>756.25</ele><time>2026-05-01T10:39:12.998Z</time></trkpt><trkpt lat="42.02963630777703" lon="13.666555607901149"><ele>756.5</ele><time>2026-05-01T10:39:13.998Z</time></trkpt><trkpt lat="42.029615209557875" lon="13.66671579537883"><ele>756.75</ele><time>2026-05-01T10:39:14.998Z</time></trkpt><trkpt lat="42.029587080476446" lon="13.666876734542875"><ele>757.0</ele><time>2026-05-01T10:39:15.998Z</time></trkpt><trkpt lat="42.029553184430135" lon="13.667037662559672"><ele>757.0</ele><time>2026-05-01T10:39:16.998Z</time></trkpt><trkpt lat="42.02952916900887" lon="13.66720287640832"><ele>757.0</ele><time>2026-05-01T10:39:17.998Z</time></trkpt><trkpt lat="42.02951849293633" lon="13.667367929687877"><ele>757.0</ele><time>2026-05-01T10:39:18.998Z</time></trkpt><trkpt lat="42.02952664487477" lon="13.667532736252323"><ele>757.0</ele><time>2026-05-01T10:39:19.998Z</time></trkpt><trkpt lat="42.02959664797167" lon="13.667672765373213"><ele>760.25</ele><time>2026-05-01T10:39:20.998Z</time></trkpt><trkpt lat="42.02967096261652" lon="13.667800890895505"><ele>763.5</ele><time>2026-05-01T10:39:21.998Z</time></trkpt><trkpt lat="42.02974446879933" lon="13.667940054182791"><ele>766.75</ele><time>2026-05-01T10:39:22.998Z</time></trkpt><trkpt lat="42.02981610551536" lon="13.668089346041786"><ele>770.0</ele><time>2026-05-01T10:39:23.998Z</time></trkpt><trkpt lat="42.02987604977225" lon="13.668261091883625"><ele>770.0</ele><time>2026-05-01T10:39:24.998Z</time></trkpt><trkpt lat="42.029968568859346" lon="13.668402110033838"><ele>770.0</ele><time>2026-05-01T10:39:25.998Z</time></trkpt><trkpt lat="42.0300326894295" lon="13.668568689624998"><ele>770.0</ele><time>2026-05-01T10:39:26.998Z</time></trkpt><trkpt lat="42.03007320850373" lon="13.668755916901018"><ele>770.0</ele><time>2026-05-01T10:39:27.998Z</time></trkpt><trkpt lat="42.030103557158505" lon="13.668953159418411"><ele>766.0</ele><time>2026-05-01T10:39:28.998Z</time></trkpt><trkpt lat="42.03013001200081" lon="13.669153168284723"><ele>762.0</ele><time>2026-05-01T10:39:29.998Z</time></trkpt><trkpt lat="42.03016422269657" lon="13.66936637424616"><ele>758.0</ele><time>2026-05-01T10:39:30.998Z</time></trkpt><trkpt lat="42.03019406789542" lon="13.669582601726784"><ele>758.0</ele><time>2026-05-01T10:39:31.998Z</time></trkpt><trkpt lat="42.030221449622175" lon="13.66980304553055"><ele>758.0</ele><time>2026-05-01T10:39:33Z</time></trkpt><trkpt lat="42.0302514338012" lon="13.670022530399367"><ele>758.0</ele><time>2026-05-01T10:39:34Z</time></trkpt><trkpt lat="42.03028126219022" lon="13.670239787160458"><ele>757.3333333333333</ele><time>2026-05-01T10:39:35Z</time></trkpt><trkpt lat="42.03030762801675" lon="13.670463154454612"><ele>756.6666666666666</ele><time>2026-05-01T10:39:36Z</time></trkpt><trkpt lat="42.03033062083324" lon="13.670680773636295"><ele>756.0</ele><time>2026-05-01T10:39:37Z</time></trkpt><trkpt lat="42.030364984262356" lon="13.670889145868976"><ele>756.0</ele><time>2026-05-01T10:39:38Z</time></trkpt><trkpt lat="42.03042314575315" lon="13.671091173292975"><ele>756.0</ele><time>2026-05-01T10:39:39Z</time></trkpt><trkpt lat="42.03050595019897" lon="13.671279351437404"><ele>756.0</ele><time>2026-05-01T10:39:40Z</time></trkpt><trkpt lat="42.03060102835319" lon="13.671454870303691"><ele>756.3333333333334</ele><time>2026-05-01T10:39:41Z</time></trkpt><trkpt lat="42.03069169732918" lon="13.671634123684775"><ele>756.6666666666667</ele><time>2026-05-01T10:39:42Z</time></trkpt><trkpt lat="42.030776274094" lon="13.67181789843553"><ele>757.0</ele><time>2026-05-01T10:39:43Z</time></trkpt><trkpt lat="42.03087951151827" lon="13.671970421726646"><ele>757.0</ele><time>2026-05-01T10:39:44Z</time></trkpt><trkpt lat="42.03095161148563" lon="13.67213255332597"><ele>757.0</ele><time>2026-05-01T10:39:45Z</time></trkpt><trkpt lat="42.030986829309605" lon="13.672298602920781"><ele>757.0</ele><time>2026-05-01T10:39:46Z</time></trkpt><trkpt lat="42.03098224147918" lon="13.672447061229185"><ele>757.0</ele><time>2026-05-01T10:39:47Z</time></trkpt><trkpt lat="42.03094182840517" lon="13.672567666612148"><ele>757.0</ele><time>2026-05-01T10:39:48Z</time></trkpt><trkpt lat="42.03084919387281" lon="13.672631919143182"><ele>757.0</ele><time>2026-05-01T10:39:49Z</time></trkpt><trkpt lat="42.030754744477534" lon="13.672693176803435"><ele>757.0</ele><time>2026-05-01T10:39:50Z</time></trkpt><trkpt lat="42.030650664074905" lon="13.672764984194803"><ele>757.0</ele><time>2026-05-01T10:39:51Z</time></trkpt><trkpt lat="42.03054292092302" lon="13.672837137208928"><ele>757.0</ele><time>2026-05-01T10:39:52Z</time></trkpt><trkpt lat="42.030424478884484" lon="13.672924650028138"><ele>756.75</ele><time>2026-05-01T10:39:53Z</time></trkpt><trkpt lat="42.03032026196005" lon="13.673041142429186"><ele>756.5</ele><time>2026-05-01T10:39:54Z</time></trkpt><trkpt lat="42.0302594995843" lon="13.673193205242365"><ele>756.25</ele><time>2026-05-01T10:39:55Z</time></trkpt><trkpt lat="42.030253313741156" lon="13.673359310049165"><ele>756.0</ele><time>2026-05-01T10:39:56Z</time></trkpt><trkpt lat="42.03024058011764" lon="13.673536279370591"><ele>757.0</ele><time>2026-05-01T10:39:57Z</time></trkpt><trkpt lat="42.03023200261499" lon="13.673722242318915"><ele>758.0</ele><time>2026-05-01T10:39:58Z</time></trkpt><trkpt lat="42.03022440836868" lon="13.673914176920801"><ele>759.0</ele><time>2026-05-01T10:39:59Z</time></trkpt><trkpt lat="42.03023950853474" lon="13.674109703701854"><ele>760.0</ele><time>2026-05-01T10:40:00Z</time></trkpt><trkpt lat="42.03023978753647" lon="13.67429934598182"><ele>761.75</ele><time>2026-05-01T10:40:01Z</time></trkpt><trkpt lat="42.030240353665015" lon="13.674485332201014"><ele>763.5</ele><time>2026-05-01T10:40:01.999Z</time></trkpt><trkpt lat="42.03023834143635" lon="13.674666066576876"><ele>765.25</ele><time>2026-05-01T10:40:02.999Z</time></trkpt><trkpt lat="42.030235995137865" lon="13.674843173664405"><ele>767.0</ele><time>2026-05-01T10:40:03.999Z</time></trkpt><trkpt lat="42.030225239586244" lon="13.675021158194122"><ele>767.0</ele><time>2026-05-01T10:40:04.999Z</time></trkpt><trkpt lat="42.03019831660689" lon="13.675198899735319"><ele>767.0</ele><time>2026-05-01T10:40:05.999Z</time></trkpt><trkpt lat="42.03015133303644" lon="13.675371457119066"><ele>767.0</ele><time>2026-05-01T10:40:06.999Z</time></trkpt><trkpt lat="42.03008796166962" lon="13.675536346965062"><ele>767.0</ele><time>2026-05-01T10:40:07.999Z</time></trkpt><trkpt lat="42.03001369217513" lon="13.675698473421026"><ele>767.25</ele><time>2026-05-01T10:40:08.999Z</time></trkpt><trkpt lat="42.02993445096392" lon="13.675864750744893"><ele>767.5</ele><time>2026-05-01T10:40:09.999Z</time></trkpt><trkpt lat="42.02985054948436" lon="13.676016877231184"><ele>767.75</ele><time>2026-05-01T10:40:10.999Z</time></trkpt><trkpt lat="42.02974700215382" lon="13.67612205109"><ele>768.0</ele><time>2026-05-01T10:40:11.999Z</time></trkpt><trkpt lat="42.02965417290422" lon="13.676236227262075"><ele>768.0</ele><time>2026-05-01T10:40:12.999Z</time></trkpt><trkpt lat="42.02957093215708" lon="13.676351539479569"><ele>768.0</ele><time>2026-05-01T10:40:13.999Z</time></trkpt><trkpt lat="42.0294877298665" lon="13.676494446579264"><ele>768.0</ele><time>2026-05-01T10:40:14.999Z</time></trkpt><trkpt lat="42.029423243424" lon="13.676663982104715"><ele>768.0</ele><time>2026-05-01T10:40:15.999Z</time></trkpt><trkpt lat="42.029372971200075" lon="13.676852420129492"><ele>770.25</ele><time>2026-05-01T10:40:16.999Z</time></trkpt><trkpt lat="42.02933341220751" lon="13.677033634427078"><ele>772.5</ele><time>2026-05-01T10:40:17.999Z</time></trkpt><trkpt lat="42.029292955788826" lon="13.677225995187111"><ele>774.75</ele><time>2026-05-01T10:40:18.999Z</time></trkpt><trkpt lat="42.029245107672" lon="13.677423126663182"><ele>777.0</ele><time>2026-05-01T10:40:19.999Z</time></trkpt><trkpt lat="42.02918019408265" lon="13.677611665601342"><ele>774.3333333333333</ele><time>2026-05-01T10:40:20.999Z</time></trkpt><trkpt lat="42.02910505273503" lon="13.677797860522377"><ele>771.6666666666666</ele><time>2026-05-01T10:40:21.999Z</time></trkpt><trkpt lat="42.02902265361101" lon="13.67798826434031"><ele>769.0</ele><time>2026-05-01T10:40:22.999Z</time></trkpt><trkpt lat="42.028937018482694" lon="13.67818741875071"><ele>769.0</ele><time>2026-05-01T10:40:23.999Z</time></trkpt><trkpt lat="42.02885336407132" lon="13.678373560672306"><ele>769.0</ele><time>2026-05-01T10:40:24.999Z</time></trkpt><trkpt lat="42.02875760688281" lon="13.67855790052972"><ele>769.0</ele><time>2026-05-01T10:40:25.999Z</time></trkpt><trkpt lat="42.0286731959456" lon="13.678743045867321"><ele>772.6666666666666</ele><time>2026-05-01T10:40:26.999Z</time></trkpt><trkpt lat="42.02857841117306" lon="13.678918065754312"><ele>776.3333333333333</ele><time>2026-05-01T10:40:27.999Z</time></trkpt><trkpt lat="42.02850502534412" lon="13.679114671514018"><ele>780.0</ele><time>2026-05-01T10:40:28.999Z</time></trkpt><trkpt lat="42.0284608830857" lon="13.679335753232321"><ele>782.3333333333333</ele><time>2026-05-01T10:40:29.999Z</time></trkpt><trkpt lat="42.028438312591284" lon="13.679559972406985"><ele>784.6666666666666</ele><time>2026-05-01T10:40:30.999Z</time></trkpt><trkpt lat="42.02842832498115" lon="13.679782280033441"><ele>787.0</ele><time>2026-05-01T10:40:31.999Z</time></trkpt><trkpt lat="42.028425462711205" lon="13.679981484066936"><ele>787.0</ele><time>2026-05-01T10:40:32.999Z</time></trkpt><trkpt lat="42.02841255329177" lon="13.680192562368973"><ele>787.0</ele><time>2026-05-01T10:40:33.999Z</time></trkpt><trkpt lat="42.02840665706276" lon="13.680391564546692"><ele>787.0</ele><time>2026-05-01T10:40:34.999Z</time></trkpt><trkpt lat="42.02835697927102" lon="13.680562798114078"><ele>787.0</ele><time>2026-05-01T10:40:35.999Z</time></trkpt><trkpt lat="42.028282942730776" lon="13.680698871550359"><ele>786.5</ele><time>2026-05-01T10:40:36.999Z</time></trkpt><trkpt lat="42.02816849269517" lon="13.680761506945304"><ele>786.0</ele><time>2026-05-01T10:40:37.999Z</time></trkpt><trkpt lat="42.02805067099717" lon="13.68084484927642"><ele>785.5</ele><time>2026-05-01T10:40:38.999Z</time></trkpt><trkpt lat="42.02792430817076" lon="13.680958844932636"><ele>785.0</ele><time>2026-05-01T10:40:39.999Z</time></trkpt><trkpt lat="42.02782471314169" lon="13.681116060828375"><ele>785.0</ele><time>2026-05-01T10:40:40.999Z</time></trkpt><trkpt lat="42.02775445063949" lon="13.681291278168965"><ele>785.0</ele><time>2026-05-01T10:40:41.999Z</time></trkpt><trkpt lat="42.02769631748095" lon="13.681474973426024"><ele>785.0</ele><time>2026-05-01T10:40:42.999Z</time></trkpt><trkpt lat="42.02763104709172" lon="13.68165306227828"><ele>785.0</ele><time>2026-05-01T10:40:43.999Z</time></trkpt><trkpt lat="42.027559791380725" lon="13.681831021203081"><ele>781.6666666666667</ele><time>2026-05-01T10:40:44.999Z</time></trkpt><trkpt lat="42.02749565997383" lon="13.682049717893193"><ele>778.3333333333333</ele><time>2026-05-01T10:40:45.999Z</time></trkpt><trkpt lat="42.02744584220674" lon="13.68225017202689"><ele>775.0</ele><time>2026-05-01T10:40:46.999Z</time></trkpt><trkpt lat="42.02741224327288" lon="13.682468216811612"><ele>775.0</ele><time>2026-05-01T10:40:47.999Z</time></trkpt><trkpt lat="42.027403269748056" lon="13.682698737075576"><ele>775.0</ele><time>2026-05-01T10:40:48.999Z</time></trkpt><trkpt lat="42.02740835878761" lon="13.682931836808939"><ele>775.0</ele><time>2026-05-01T10:40:49.999Z</time></trkpt><trkpt lat="42.027405009165996" lon="13.68317397303847"><ele>776.3333333333333</ele><time>2026-05-01T10:40:50.999Z</time></trkpt><trkpt lat="42.02739788353631" lon="13.68340878332612"><ele>777.6666666666667</ele><time>2026-05-01T10:40:51.999Z</time></trkpt><trkpt lat="42.02736791241196" lon="13.683649601659942"><ele>779.0</ele><time>2026-05-01T10:40:52.999Z</time></trkpt><trkpt lat="42.02731465358293" lon="13.683877893914646"><ele>781.6666666666667</ele><time>2026-05-01T10:40:53.999Z</time></trkpt><trkpt lat="42.02723116173003" lon="13.684085079153487"><ele>784.3333333333333</ele><time>2026-05-01T10:40:54.999Z</time></trkpt><trkpt lat="42.02714953825738" lon="13.6842958809666"><ele>787.0</ele><time>2026-05-01T10:40:55.999Z</time></trkpt><trkpt lat="42.02705972110161" lon="13.684494420651829"><ele>789.3333333333333</ele><time>2026-05-01T10:40:56.998Z</time></trkpt><trkpt lat="42.02700989431496" lon="13.684722612843563"><ele>791.6666666666667</ele><time>2026-05-01T10:40:57.998Z</time></trkpt><trkpt lat="42.02700692717844" lon="13.684960013334823"><ele>794.0</ele><time>2026-05-01T10:40:58.998Z</time></trkpt><trkpt lat="42.0270016822944" lon="13.685197146438085"><ele>796.3333333333334</ele><time>2026-05-01T10:40:59.998Z</time></trkpt><trkpt lat="42.02696266859655" lon="13.685422053150626"><ele>798.6666666666667</ele><time>2026-05-01T10:41:00.998Z</time></trkpt><trkpt lat="42.02692116554392" lon="13.685641172770971"><ele>801.0</ele><time>2026-05-01T10:41:01.998Z</time></trkpt><trkpt lat="42.026851354049285" lon="13.685849678997144"><ele>801.0</ele><time>2026-05-01T10:41:02.998Z</time></trkpt><trkpt lat="42.026752155149005" lon="13.686056588875084"><ele>801.0</ele><time>2026-05-01T10:41:03.998Z</time></trkpt><trkpt lat="42.026666838634746" lon="13.686267633607127"><ele>801.0</ele><time>2026-05-01T10:41:04.998Z</time></trkpt><trkpt lat="42.02658863241995" lon="13.68648532082416"><ele>795.0</ele><time>2026-05-01T10:41:05.998Z</time></trkpt><trkpt lat="42.02652641052136" lon="13.686706784829124"><ele>789.0</ele><time>2026-05-01T10:41:06.998Z</time></trkpt><trkpt lat="42.02647219099119" lon="13.686935488872106"><ele>783.0</ele><time>2026-05-01T10:41:07.998Z</time></trkpt><trkpt lat="42.02642974521917" lon="13.687170699445966"><ele>783.0</ele><time>2026-05-01T10:41:08.998Z</time></trkpt><trkpt lat="42.026408574126336" lon="13.687412734057766"><ele>783.0</ele><time>2026-05-01T10:41:09.998Z</time></trkpt><trkpt lat="42.02640208741621" lon="13.687648442350227"><ele>783.0</ele><time>2026-05-01T10:41:10.998Z</time></trkpt><trkpt lat="42.026429951406534" lon="13.687872888856111"><ele>784.3333333333333</ele><time>2026-05-01T10:41:11.998Z</time></trkpt><trkpt lat="42.02648234561853" lon="13.688086137142367"><ele>785.6666666666666</ele><time>2026-05-01T10:41:12.998Z</time></trkpt><trkpt lat="42.02651162148791" lon="13.688291267811492"><ele>787.0</ele><time>2026-05-01T10:41:13.998Z</time></trkpt><trkpt lat="42.02650899183224" lon="13.688500760180013"><ele>790.0</ele><time>2026-05-01T10:41:14.998Z</time></trkpt><trkpt lat="42.026464991947186" lon="13.688706251953288"><ele>793.0</ele><time>2026-05-01T10:41:15.998Z</time></trkpt><trkpt lat="42.02639227608775" lon="13.68889778589723"><ele>796.0</ele><time>2026-05-01T10:41:16.998Z</time></trkpt><trkpt lat="42.026290402768105" lon="13.68906940001135"><ele>796.0</ele><time>2026-05-01T10:41:17.998Z</time></trkpt><trkpt lat="42.026196764163245" lon="13.68924563953332"><ele>796.0</ele><time>2026-05-01T10:41:18.998Z</time></trkpt><trkpt lat="42.026129561049494" lon="13.689439137768197"><ele>796.0</ele><time>2026-05-01T10:41:19.998Z</time></trkpt><trkpt lat="42.02607949301275" lon="13.689656492489268"><ele>800.0</ele><time>2026-05-01T10:41:20.998Z</time></trkpt><trkpt lat="42.026065042571894" lon="13.689862492048302"><ele>804.0</ele><time>2026-05-01T10:41:21.998Z</time></trkpt><trkpt lat="42.02603612987268" lon="13.690077123425418"><ele>808.0</ele><time>2026-05-01T10:41:22.998Z</time></trkpt><trkpt lat="42.02595645633076" lon="13.690295706765749"><ele>805.0</ele><time>2026-05-01T10:41:23.998Z</time></trkpt><trkpt lat="42.02588461023769" lon="13.690486908555929"><ele>802.0</ele><time>2026-05-01T10:41:24.998Z</time></trkpt><trkpt lat="42.02582643520927" lon="13.690681759289253"><ele>799.0</ele><time>2026-05-01T10:41:25.998Z</time></trkpt><trkpt lat="42.02573095074544" lon="13.690863617952154"><ele>799.0</ele><time>2026-05-01T10:41:26.998Z</time></trkpt><trkpt lat="42.025642951053285" lon="13.691035802908537"><ele>799.0</ele><time>2026-05-01T10:41:27.998Z</time></trkpt><trkpt lat="42.025552139375144" lon="13.691174418171476"><ele>799.0</ele><time>2026-05-01T10:41:28.998Z</time></trkpt><trkpt lat="42.025412043719264" lon="13.691341001763393"><ele>804.0</ele><time>2026-05-01T10:41:29.998Z</time></trkpt><trkpt lat="42.0252817624178" lon="13.691492246019012"><ele>809.0</ele><time>2026-05-01T10:41:30.998Z</time></trkpt><trkpt lat="42.02517796776328" lon="13.691692996341965"><ele>814.0</ele><time>2026-05-01T10:41:31.998Z</time></trkpt><trkpt lat="42.025142956497604" lon="13.69188880734594"><ele>815.0</ele><time>2026-05-01T10:41:32.998Z</time></trkpt><trkpt lat="42.025114250355706" lon="13.692087608636"><ele>816.0</ele><time>2026-05-01T10:41:33.998Z</time></trkpt><trkpt lat="42.025075850438924" lon="13.692268424576229"><ele>817.0</ele><time>2026-05-01T10:41:34.998Z</time></trkpt><trkpt lat="42.025004200382135" lon="13.692394757578912"><ele>818.0</ele><time>2026-05-01T10:41:35.998Z</time></trkpt><trkpt lat="42.02490130508945" lon="13.69245038326604"><ele>818.0</ele><time>2026-05-01T10:41:36.998Z</time></trkpt><trkpt lat="42.02478132366629" lon="13.692505189314405"><ele>818.0</ele><time>2026-05-01T10:41:37.998Z</time></trkpt><trkpt lat="42.02467231575242" lon="13.692551972627745"><ele>818.0</ele><time>2026-05-01T10:41:39Z</time></trkpt><trkpt lat="42.024553770785175" lon="13.692624482989087"><ele>818.0</ele><time>2026-05-01T10:41:40Z</time></trkpt><trkpt lat="42.02443862221114" lon="13.692721913325725"><ele>817.3333333333334</ele><time>2026-05-01T10:41:41Z</time></trkpt><trkpt lat="42.024325056230175" lon="13.69286358546452"><ele>816.6666666666667</ele><time>2026-05-01T10:41:42Z</time></trkpt><trkpt lat="42.02422983727409" lon="13.693015698588422"><ele>816.0</ele><time>2026-05-01T10:41:43Z</time></trkpt><trkpt lat="42.02413572305893" lon="13.693168956154786"><ele>816.0</ele><time>2026-05-01T10:41:44Z</time></trkpt><trkpt lat="42.02403043991424" lon="13.693340401437252"><ele>816.0</ele><time>2026-05-01T10:41:45Z</time></trkpt><trkpt lat="42.023922906515494" lon="13.693513318222966"><ele>816.0</ele><time>2026-05-01T10:41:46Z</time></trkpt><trkpt lat="42.02381904456598" lon="13.69367836924108"><ele>820.6666666666667</ele><time>2026-05-01T10:41:47Z</time></trkpt><trkpt lat="42.023717440747696" lon="13.693843243833069"><ele>825.3333333333334</ele><time>2026-05-01T10:41:48Z</time></trkpt><trkpt lat="42.023620175645284" lon="13.694028966130007"><ele>830.0</ele><time>2026-05-01T10:41:49Z</time></trkpt><trkpt lat="42.023519129108706" lon="13.694192593079231"><ele>830.0</ele><time>2026-05-01T10:41:50Z</time></trkpt><trkpt lat="42.023442128338196" lon="13.694359852066675"><ele>830.0</ele><time>2026-05-01T10:41:51Z</time></trkpt><trkpt lat="42.023459894144594" lon="13.694566803226538"><ele>830.0</ele><time>2026-05-01T10:41:52Z</time></trkpt><trkpt lat="42.023479750126675" lon="13.694759372280796"><ele>830.0</ele><time>2026-05-01T10:41:53Z</time></trkpt><trkpt lat="42.02346716500644" lon="13.694953115878036"><ele>830.5</ele><time>2026-05-01T10:41:54Z</time></trkpt><trkpt lat="42.02342760456422" lon="13.695129117105125"><ele>831.0</ele><time>2026-05-01T10:41:55Z</time></trkpt><trkpt lat="42.02335591338221" lon="13.695288087309626"><ele>831.5</ele><time>2026-05-01T10:41:56Z</time></trkpt><trkpt lat="42.02323669219325" lon="13.695390062942291"><ele>832.0</ele><time>2026-05-01T10:41:57Z</time></trkpt><trkpt lat="42.02311848571166" lon="13.695521228822257"><ele>832.0</ele><time>2026-05-01T10:41:58Z</time></trkpt><trkpt lat="42.02299447304547" lon="13.695632158362349"><ele>832.0</ele><time>2026-05-01T10:41:59Z</time></trkpt><trkpt lat="42.022884169820635" lon="13.695769335263043"><ele>832.0</ele><time>2026-05-01T10:42:00Z</time></trkpt><trkpt lat="42.0227859217496" lon="13.695930381490035"><ele>837.0</ele><time>2026-05-01T10:42:01Z</time></trkpt><trkpt lat="42.02269571169311" lon="13.696100601031803"><ele>842.0</ele><time>2026-05-01T10:42:02Z</time></trkpt><trkpt lat="42.02260707565603" lon="13.696269072117921"><ele>847.0</ele><time>2026-05-01T10:42:03Z</time></trkpt><trkpt lat="42.02250735416055" lon="13.696446668019878"><ele>842.6666666666666</ele><time>2026-05-01T10:42:04Z</time></trkpt><trkpt lat="42.022407408998085" lon="13.696626289244971"><ele>838.3333333333333</ele><time>2026-05-01T10:42:05Z</time></trkpt><trkpt lat="42.02230945940965" lon="13.696801875692026"><ele>834.0</ele><time>2026-05-01T10:42:06Z</time></trkpt><trkpt lat="42.022217276107064" lon="13.69698114052636"><ele>834.0</ele><time>2026-05-01T10:42:07Z</time></trkpt><trkpt lat="42.02215338276008" lon="13.697184272129816"><ele>834.0</ele><time>2026-05-01T10:42:07.999Z</time></trkpt><trkpt lat="42.02212011227065" lon="13.69741189811032"><ele>834.0</ele><time>2026-05-01T10:42:08.999Z</time></trkpt><trkpt lat="42.02210905810607" lon="13.697638617350071"><ele>838.3333333333333</ele><time>2026-05-01T10:42:09.999Z</time></trkpt><trkpt lat="42.02208163285775" lon="13.697861491917784"><ele>842.6666666666666</ele><time>2026-05-01T10:42:10.999Z</time></trkpt><trkpt lat="42.02203489719094" lon="13.698078582812654"><ele>847.0</ele><time>2026-05-01T10:42:11.999Z</time></trkpt><trkpt lat="42.02196841752802" lon="13.698285264375773"><ele>847.0</ele><time>2026-05-01T10:42:12.999Z</time></trkpt><trkpt lat="42.02187533312583" lon="13.698472990255755"><ele>847.0</ele><time>2026-05-01T10:42:13.999Z</time></trkpt><trkpt lat="42.021776577159436" lon="13.698660091367973"><ele>847.0</ele><time>2026-05-01T10:42:14.999Z</time></trkpt><trkpt lat="42.02168029357403" lon="13.698860041777067"><ele>847.0</ele><time>2026-05-01T10:42:15.999Z</time></trkpt><trkpt lat="42.02158421911948" lon="13.69906138314985"><ele>847.0</ele><time>2026-05-01T10:42:16.999Z</time></trkpt><trkpt lat="42.02148655201931" lon="13.699264171754487"><ele>847.0</ele><time>2026-05-01T10:42:17.999Z</time></trkpt><trkpt lat="42.02138949209473" lon="13.699469215865888"><ele>847.0</ele><time>2026-05-01T10:42:18.999Z</time></trkpt><trkpt lat="42.02129203154477" lon="13.699674119969977"><ele>847.0</ele><time>2026-05-01T10:42:19.999Z</time></trkpt><trkpt lat="42.021192931151006" lon="13.699886818384316"><ele>847.0</ele><time>2026-05-01T10:42:20.999Z</time></trkpt><trkpt lat="42.02109419317401" lon="13.700102059528765"><ele>850.3333333333333</ele><time>2026-05-01T10:42:21.999Z</time></trkpt><trkpt lat="42.02105690734346" lon="13.700353364202883"><ele>853.6666666666667</ele><time>2026-05-01T10:42:22.999Z</time></trkpt><trkpt lat="42.021007872532046" lon="13.700600046487763"><ele>857.0</ele><time>2026-05-01T10:42:23.999Z</time></trkpt><trkpt lat="42.0209569939553" lon="13.700848073363172"><ele>858.3333333333334</ele><time>2026-05-01T10:42:24.999Z</time></trkpt><trkpt lat="42.020915534739196" lon="13.701099146072005"><ele>859.6666666666667</ele><time>2026-05-01T10:42:25.999Z</time></trkpt><trkpt lat="42.02088160022945" lon="13.70135128118034"><ele>861.0</ele><time>2026-05-01T10:42:26.999Z</time></trkpt><trkpt lat="42.020842034005874" lon="13.701604135856043"><ele>855.3333333333333</ele><time>2026-05-01T10:42:27.999Z</time></trkpt><trkpt lat="42.020808919140016" lon="13.701844826166747"><ele>849.6666666666666</ele><time>2026-05-01T10:42:28.999Z</time></trkpt><trkpt lat="42.02076956958148" lon="13.702094906836377"><ele>844.0</ele><time>2026-05-01T10:42:29.999Z</time></trkpt><trkpt lat="42.02073185933443" lon="13.702349863348134"><ele>844.0</ele><time>2026-05-01T10:42:30.999Z</time></trkpt><trkpt lat="42.020699193266935" lon="13.702609299295233"><ele>844.0</ele><time>2026-05-01T10:42:31.999Z</time></trkpt><trkpt lat="42.02067512740569" lon="13.702873717662516"><ele>844.0</ele><time>2026-05-01T10:42:32.999Z</time></trkpt><trkpt lat="42.02066753240106" lon="13.703142940336335"><ele>845.3333333333333</ele><time>2026-05-01T10:42:33.999Z</time></trkpt><trkpt lat="42.02067173150274" lon="13.703414695674299"><ele>846.6666666666667</ele><time>2026-05-01T10:42:34.999Z</time></trkpt><trkpt lat="42.020672009228136" lon="13.703686996557623"><ele>848.0</ele><time>2026-05-01T10:42:35.999Z</time></trkpt><trkpt lat="42.02066081997448" lon="13.703947887939675"><ele>850.0</ele><time>2026-05-01T10:42:36.999Z</time></trkpt><trkpt lat="42.020627478903435" lon="13.704188752450234"><ele>852.0</ele><time>2026-05-01T10:42:37.999Z</time></trkpt><trkpt lat="42.02057085880493" lon="13.70441054310241"><ele>854.0</ele><time>2026-05-01T10:42:38.999Z</time></trkpt><trkpt lat="42.0204968855512" lon="13.704635774621163"><ele>855.0</ele><time>2026-05-01T10:42:39.999Z</time></trkpt><trkpt lat="42.02039740493896" lon="13.704859226738254"><ele>856.0</ele><time>2026-05-01T10:42:40.999Z</time></trkpt><trkpt lat="42.02031725173863" lon="13.705086745594734"><ele>857.0</ele><time>2026-05-01T10:42:41.999Z</time></trkpt><trkpt lat="42.02023847267358" lon="13.705307849948008"><ele>858.3333333333334</ele><time>2026-05-01T10:42:42.999Z</time></trkpt><trkpt lat="42.020153221771295" lon="13.70554711935575"><ele>859.6666666666667</ele><time>2026-05-01T10:42:43.999Z</time></trkpt><trkpt lat="42.02008198949424" lon="13.705795413616004"><ele>861.0</ele><time>2026-05-01T10:42:44.999Z</time></trkpt><trkpt lat="42.01999572276453" lon="13.706030367995309"><ele>861.0</ele><time>2026-05-01T10:42:45.999Z</time></trkpt><trkpt lat="42.01990297281484" lon="13.70625236121304"><ele>861.0</ele><time>2026-05-01T10:42:46.999Z</time></trkpt><trkpt lat="42.01978594366569" lon="13.706458384307922"><ele>861.0</ele><time>2026-05-01T10:42:47.999Z</time></trkpt><trkpt lat="42.01963797175765" lon="13.706619211052134"><ele>861.0</ele><time>2026-05-01T10:42:48.999Z</time></trkpt><trkpt lat="42.01949262495839" lon="13.70677526044542"><ele>861.0</ele><time>2026-05-01T10:42:49.999Z</time></trkpt><trkpt lat="42.01934767375349" lon="13.706933272647186"><ele>861.0</ele><time>2026-05-01T10:42:50.999Z</time></trkpt><trkpt lat="42.0192041480132" lon="13.707098190555095"><ele>858.3333333333333</ele><time>2026-05-01T10:42:51.999Z</time></trkpt><trkpt lat="42.01907491038652" lon="13.707298472073127"><ele>855.6666666666666</ele><time>2026-05-01T10:42:52.999Z</time></trkpt><trkpt lat="42.018967188634704" lon="13.707513254406901"><ele>853.0</ele><time>2026-05-01T10:42:53.999Z</time></trkpt><trkpt lat="42.01886495642521" lon="13.707732753322627"><ele>852.3333333333333</ele><time>2026-05-01T10:42:54.999Z</time></trkpt><trkpt lat="42.018761003466466" lon="13.707953616296265"><ele>851.6666666666667</ele><time>2026-05-01T10:42:55.999Z</time></trkpt><trkpt lat="42.018655455330205" lon="13.708178540330938"><ele>851.0</ele><time>2026-05-01T10:42:56.999Z</time></trkpt><trkpt lat="42.01856785421916" lon="13.708422874539284"><ele>851.3333333333334</ele><time>2026-05-01T10:42:57.999Z</time></trkpt><trkpt lat="42.018466389442445" lon="13.708657023501184"><ele>851.6666666666667</ele><time>2026-05-01T10:42:58.999Z</time></trkpt><trkpt lat="42.018404819055945" lon="13.708912082006083"><ele>852.0</ele><time>2026-05-01T10:42:59.999Z</time></trkpt><trkpt lat="42.01834332053283" lon="13.709159547063134"><ele>847.3333333333333</ele><time>2026-05-01T10:43:00.999Z</time></trkpt><trkpt lat="42.01829226608883" lon="13.709411397470188"><ele>842.6666666666666</ele><time>2026-05-01T10:43:01.999Z</time></trkpt><trkpt lat="42.018250045041825" lon="13.709673221279628"><ele>838.0</ele><time>2026-05-01T10:43:02.998Z</time></trkpt><trkpt lat="42.01821991641699" lon="13.709923079034652"><ele>838.0</ele><time>2026-05-01T10:43:03.998Z</time></trkpt><trkpt lat="42.01820484591064" lon="13.710157102528157"><ele>838.0</ele><time>2026-05-01T10:43:04.998Z</time></trkpt><trkpt lat="42.01822395542102" lon="13.710380164943318"><ele>838.0</ele><time>2026-05-01T10:43:05.998Z</time></trkpt><trkpt lat="42.018225846008384" lon="13.710592021288116"><ele>837.75</ele><time>2026-05-01T10:43:06.998Z</time></trkpt><trkpt lat="42.018236681532834" lon="13.710795710151494"><ele>837.5</ele><time>2026-05-01T10:43:07.998Z</time></trkpt><trkpt lat="42.018277081855" lon="13.71097854516329"><ele>837.25</ele><time>2026-05-01T10:43:08.998Z</time></trkpt><trkpt lat="42.01834523366513" lon="13.71113571646332"><ele>837.0</ele><time>2026-05-01T10:43:09.998Z</time></trkpt><trkpt lat="42.0184472286906" lon="13.711266040823679"><ele>839.0</ele><time>2026-05-01T10:43:10.998Z</time></trkpt><trkpt lat="42.01856543210344" lon="13.711372760200668"><ele>841.0</ele><time>2026-05-01T10:43:11.998Z</time></trkpt><trkpt lat="42.01869417856268" lon="13.711469854635158"><ele>843.0</ele><time>2026-05-01T10:43:12.998Z</time></trkpt><trkpt lat="42.01880967256668" lon="13.711597509741189"><ele>845.0</ele><time>2026-05-01T10:43:13.998Z</time></trkpt><trkpt lat="42.01888780124796" lon="13.71173758971268"><ele>845.0</ele><time>2026-05-01T10:43:14.998Z</time></trkpt><trkpt lat="42.01893023238122" lon="13.711897684713703"><ele>845.0</ele><time>2026-05-01T10:43:15.998Z</time></trkpt><trkpt lat="42.01893089988845" lon="13.712066539239386"><ele>845.0</ele><time>2026-05-01T10:43:16.998Z</time></trkpt><trkpt lat="42.018888729711406" lon="13.712235787603978"><ele>845.0</ele><time>2026-05-01T10:43:17.998Z</time></trkpt><trkpt lat="42.01881044136205" lon="13.712409095447436"><ele>845.0</ele><time>2026-05-01T10:43:18.998Z</time></trkpt><trkpt lat="42.01873926170533" lon="13.712592012573525"><ele>845.0</ele><time>2026-05-01T10:43:19.998Z</time></trkpt><trkpt lat="42.01867993706181" lon="13.712794813981608"><ele>845.0</ele><time>2026-05-01T10:43:20.998Z</time></trkpt><trkpt lat="42.01862376240955" lon="13.713016254555138"><ele>845.3333333333334</ele><time>2026-05-01T10:43:21.998Z</time></trkpt><trkpt lat="42.01858265114527" lon="13.71324220354336"><ele>845.6666666666667</ele><time>2026-05-01T10:43:22.998Z</time></trkpt><trkpt lat="42.01854015941663" lon="13.713481282552682"><ele>846.0</ele><time>2026-05-01T10:43:23.998Z</time></trkpt><trkpt lat="42.01849030431041" lon="13.713735072383749"><ele>845.0</ele><time>2026-05-01T10:43:24.998Z</time></trkpt><trkpt lat="42.01842724502566" lon="13.713995117062137"><ele>844.0</ele><time>2026-05-01T10:43:25.998Z</time></trkpt><trkpt lat="42.01837377299586" lon="13.714264636009865"><ele>843.0</ele><time>2026-05-01T10:43:26.998Z</time></trkpt><trkpt lat="42.01831748959623" lon="13.714552641725428"><ele>842.3333333333333</ele><time>2026-05-01T10:43:27.998Z</time></trkpt><trkpt lat="42.01827496201836" lon="13.71483914565077"><ele>841.6666666666666</ele><time>2026-05-01T10:43:28.998Z</time></trkpt><trkpt lat="42.018217797811666" lon="13.715136023700406"><ele>841.0</ele><time>2026-05-01T10:43:29.998Z</time></trkpt><trkpt lat="42.01815966826918" lon="13.715425389579968"><ele>841.0</ele><time>2026-05-01T10:43:30.998Z</time></trkpt><trkpt lat="42.01810369641073" lon="13.715711494954704"><ele>841.0</ele><time>2026-05-01T10:43:31.998Z</time></trkpt><trkpt lat="42.018031492513494" lon="13.715995975675382"><ele>841.0</ele><time>2026-05-01T10:43:32.998Z</time></trkpt><trkpt lat="42.01797440225403" lon="13.716283746945916"><ele>842.3333333333333</ele><time>2026-05-01T10:43:33.998Z</time></trkpt><trkpt lat="42.01793380694159" lon="13.716571326678782"><ele>843.6666666666667</ele><time>2026-05-01T10:43:34.998Z</time></trkpt><trkpt lat="42.01787770458916" lon="13.71684617992806"><ele>845.0</ele><time>2026-05-01T10:43:35.998Z</time></trkpt><trkpt lat="42.01782144078221" lon="13.717117868561573"><ele>846.6666666666667</ele><time>2026-05-01T10:43:36.998Z</time></trkpt><trkpt lat="42.017769426364936" lon="13.71737915692021"><ele>848.3333333333333</ele><time>2026-05-01T10:43:37.998Z</time></trkpt><trkpt lat="42.01771842145508" lon="13.717623935689689"><ele>850.0</ele><time>2026-05-01T10:43:38.998Z</time></trkpt><trkpt lat="42.017667107692226" lon="13.717863825388248"><ele>851.3333333333333</ele><time>2026-05-01T10:43:39.998Z</time></trkpt><trkpt lat="42.017625905517626" lon="13.71810240882454"><ele>852.6666666666667</ele><time>2026-05-01T10:43:40.998Z</time></trkpt><trkpt lat="42.0175905495606" lon="13.718330432975613"><ele>854.0</ele><time>2026-05-01T10:43:41.998Z</time></trkpt><trkpt lat="42.01760457145756" lon="13.71855842635008"><ele>855.6666666666667</ele><time>2026-05-01T10:43:42.998Z</time></trkpt><trkpt lat="42.017597458077674" lon="13.718780979051369"><ele>857.3333333333333</ele><time>2026-05-01T10:43:43.998Z</time></trkpt><trkpt lat="42.01756904038254" lon="13.71900130336347"><ele>859.0</ele><time>2026-05-01T10:43:45Z</time></trkpt><trkpt lat="42.01751414642521" lon="13.719203866346868"><ele>857.6666666666666</ele><time>2026-05-01T10:43:46Z</time></trkpt><trkpt lat="42.01741460293884" lon="13.719359480697232"><ele>856.3333333333333</ele><time>2026-05-01T10:43:47Z</time></trkpt><trkpt lat="42.01728938269615" lon="13.719467809765655"><ele>855.0</ele><time>2026-05-01T10:43:48Z</time></trkpt><trkpt lat="42.01715653734577" lon="13.71958245057062"><ele>857.6666666666667</ele><time>2026-05-01T10:43:49Z</time></trkpt><trkpt lat="42.017012765864116" lon="13.719707557330155"><ele>860.3333333333334</ele><time>2026-05-01T10:43:50Z</time></trkpt><trkpt lat="42.016920482266144" lon="13.719891895104862"><ele>863.0</ele><time>2026-05-01T10:43:51Z</time></trkpt><trkpt lat="42.016858556474475" lon="13.72008167487434"><ele>864.6666666666667</ele><time>2026-05-01T10:43:52Z</time></trkpt><trkpt lat="42.016829279691564" lon="13.720302812634287"><ele>866.3333333333333</ele><time>2026-05-01T10:43:53Z</time></trkpt><trkpt lat="42.01680967486623" lon="13.720517935290374"><ele>868.0</ele><time>2026-05-01T10:43:54Z</time></trkpt><trkpt lat="42.01678212384353" lon="13.720730564048562"><ele>868.0</ele><time>2026-05-01T10:43:55Z</time></trkpt><trkpt lat="42.01674522257328" lon="13.720939754115342"><ele>868.0</ele><time>2026-05-01T10:43:56Z</time></trkpt><trkpt lat="42.016707780185676" lon="13.721143758089669"><ele>868.0</ele><time>2026-05-01T10:43:57Z</time></trkpt><trkpt lat="42.01664932603454" lon="13.72134736177082"><ele>868.3333333333333</ele><time>2026-05-01T10:43:58Z</time></trkpt><trkpt lat="42.016568550587955" lon="13.721537566935915"><ele>868.6666666666667</ele><time>2026-05-01T10:43:59Z</time></trkpt><trkpt lat="42.01644359237641" lon="13.721693983483169"><ele>869.0</ele><time>2026-05-01T10:44:00Z</time></trkpt><trkpt lat="42.01630450369284" lon="13.721827858873414"><ele>871.3333333333334</ele><time>2026-05-01T10:44:01Z</time></trkpt><trkpt lat="42.01615457667105" lon="13.72194202066348"><ele>873.6666666666667</ele><time>2026-05-01T10:44:02Z</time></trkpt><trkpt lat="42.01600170184241" lon="13.722054528235805"><ele>876.0</ele><time>2026-05-01T10:44:03Z</time></trkpt><trkpt lat="42.01584457597691" lon="13.722159748926979"><ele>876.3333333333333</ele><time>2026-05-01T10:44:04Z</time></trkpt><trkpt lat="42.01568497735832" lon="13.72224157898897"><ele>876.6666666666666</ele><time>2026-05-01T10:44:05Z</time></trkpt><trkpt lat="42.01551870766832" lon="13.72227335512962"><ele>877.0</ele><time>2026-05-01T10:44:06Z</time></trkpt><trkpt lat="42.015336721634604" lon="13.722270444962913"><ele>877.0</ele><time>2026-05-01T10:44:07Z</time></trkpt><trkpt lat="42.01515305110585" lon="13.722257679901022"><ele>877.0</ele><time>2026-05-01T10:44:08Z</time></trkpt><trkpt lat="42.014961160623756" lon="13.722252842565501"><ele>877.0</ele><time>2026-05-01T10:44:09Z</time></trkpt><trkpt lat="42.01476824101105" lon="13.722296323196982"><ele>877.6666666666666</ele><time>2026-05-01T10:44:10Z</time></trkpt><trkpt lat="42.014603311638076" lon="13.72244079112804"><ele>878.3333333333333</ele><time>2026-05-01T10:44:11Z</time></trkpt><trkpt lat="42.01448099454865" lon="13.722580494711659"><ele>879.0</ele><time>2026-05-01T10:44:12Z</time></trkpt><trkpt lat="42.01436437342166" lon="13.722721447142737"><ele>880.75</ele><time>2026-05-01T10:44:12.999Z</time></trkpt><trkpt lat="42.01424986013778" lon="13.72284588040566"><ele>882.5</ele><time>2026-05-01T10:44:13.999Z</time></trkpt><trkpt lat="42.01412450640459" lon="13.722930727487352"><ele>884.25</ele><time>2026-05-01T10:44:14.999Z</time></trkpt><trkpt lat="42.01401168838394" lon="13.722927567928418"><ele>886.0</ele><time>2026-05-01T10:44:15.999Z</time></trkpt><trkpt lat="42.01390404743077" lon="13.722891269292546"><ele>885.25</ele><time>2026-05-01T10:44:16.999Z</time></trkpt><trkpt lat="42.013780886596564" lon="13.72283593653514"><ele>884.5</ele><time>2026-05-01T10:44:17.999Z</time></trkpt><trkpt lat="42.01365064000493" lon="13.72276900707914"><ele>883.75</ele><time>2026-05-01T10:44:18.999Z</time></trkpt><trkpt lat="42.01351953534561" lon="13.72271011683803"><ele>883.0</ele><time>2026-05-01T10:44:19.999Z</time></trkpt><trkpt lat="42.01337358883307" lon="13.722673521503069"><ele>883.75</ele><time>2026-05-01T10:44:20.999Z</time></trkpt><trkpt lat="42.01320924650578" lon="13.722715119437629"><ele>884.5</ele><time>2026-05-01T10:44:21.999Z</time></trkpt><trkpt lat="42.01309994739781" lon="13.722803300172547"><ele>885.25</ele><time>2026-05-01T10:44:22.999Z</time></trkpt><trkpt lat="42.012999447336306" lon="13.722914183165996"><ele>886.0</ele><time>2026-05-01T10:44:23.999Z</time></trkpt><trkpt lat="42.012883053205364" lon="13.723051308828266"><ele>887.6666666666666</ele><time>2026-05-01T10:44:24.999Z</time></trkpt><trkpt lat="42.01277401835436" lon="13.72317976455656"><ele>889.3333333333333</ele><time>2026-05-01T10:44:25.999Z</time></trkpt><trkpt lat="42.01265923590371" lon="13.723318705856938"><ele>891.0</ele><time>2026-05-01T10:44:26.999Z</time></trkpt><trkpt lat="42.012529890560074" lon="13.723481038850998"><ele>894.0</ele><time>2026-05-01T10:44:27.999Z</time></trkpt><trkpt lat="42.01240494702225" lon="13.723614417934996"><ele>897.0</ele><time>2026-05-01T10:44:28.999Z</time></trkpt><trkpt lat="42.01225749065495" lon="13.723702898255675"><ele>900.0</ele><time>2026-05-01T10:44:29.999Z</time></trkpt><trkpt lat="42.012125057743084" lon="13.723729144913442"><ele>900.0</ele><time>2026-05-01T10:44:30.999Z</time></trkpt><trkpt lat="42.01201226491198" lon="13.723674652209565"><ele>900.0</ele><time>2026-05-01T10:44:31.999Z</time></trkpt><trkpt lat="42.011907303459346" lon="13.723554250010931"><ele>900.0</ele><time>2026-05-01T10:44:32.999Z</time></trkpt><trkpt lat="42.01182494192252" lon="13.723402044739652"><ele>900.0</ele><time>2026-05-01T10:44:33.999Z</time></trkpt><trkpt lat="42.01173109425672" lon="13.723273761152965"><ele>901.0</ele><time>2026-05-01T10:44:34.999Z</time></trkpt><trkpt lat="42.01162907428516" lon="13.72315472765893"><ele>902.0</ele><time>2026-05-01T10:44:35.999Z</time></trkpt><trkpt lat="42.01151142511369" lon="13.723044060374455"><ele>903.0</ele><time>2026-05-01T10:44:36.999Z</time></trkpt><trkpt lat="42.011377481157716" lon="13.722959303697047"><ele>904.0</ele><time>2026-05-01T10:44:37.999Z</time></trkpt><trkpt lat="42.01123070818727" lon="13.722913444516275"><ele>904.0</ele><time>2026-05-01T10:44:38.999Z</time></trkpt><trkpt lat="42.01107867333974" lon="13.72287862413354"><ele>904.0</ele><time>2026-05-01T10:44:39.999Z</time></trkpt><trkpt lat="42.01092896994793" lon="13.72284156782222"><ele>904.0</ele><time>2026-05-01T10:44:40.999Z</time></trkpt><trkpt lat="42.0107838591673" lon="13.722822089783977"><ele>902.25</ele><time>2026-05-01T10:44:41.999Z</time></trkpt><trkpt lat="42.01065340194052" lon="13.722853742392466"><ele>900.5</ele><time>2026-05-01T10:44:42.999Z</time></trkpt><trkpt lat="42.01055040199877" lon="13.722941434341362"><ele>898.75</ele><time>2026-05-01T10:44:43.999Z</time></trkpt><trkpt lat="42.010475863020105" lon="13.723078800724828"><ele>897.0</ele><time>2026-05-01T10:44:44.999Z</time></trkpt><trkpt lat="42.01043835546187" lon="13.723251574816274"><ele>897.0</ele><time>2026-05-01T10:44:45.999Z</time></trkpt><trkpt lat="42.01039122638803" lon="13.723424332677922"><ele>897.0</ele><time>2026-05-01T10:44:46.999Z</time></trkpt><trkpt lat="42.01033717739752" lon="13.723599078788627"><ele>897.0</ele><time>2026-05-01T10:44:47.999Z</time></trkpt><trkpt lat="42.01030629658402" lon="13.723807954627944"><ele>897.0</ele><time>2026-05-01T10:44:48.999Z</time></trkpt><trkpt lat="42.01029711015049" lon="13.724011142077023"><ele>899.0</ele><time>2026-05-01T10:44:49.999Z</time></trkpt><trkpt lat="42.01030083877889" lon="13.724219305809429"><ele>901.0</ele><time>2026-05-01T10:44:50.999Z</time></trkpt><trkpt lat="42.01032710033288" lon="13.724434879356695"><ele>903.0</ele><time>2026-05-01T10:44:51.999Z</time></trkpt><trkpt lat="42.01034572853002" lon="13.724657700267901"><ele>905.3333333333333</ele><time>2026-05-01T10:44:52.999Z</time></trkpt><trkpt lat="42.01039029044526" lon="13.724872337285044"><ele>907.6666666666666</ele><time>2026-05-01T10:44:53.999Z</time></trkpt><trkpt lat="42.010399888262334" lon="13.725092698642328"><ele>910.0</ele><time>2026-05-01T10:44:54.999Z</time></trkpt><trkpt lat="42.010394776873405" lon="13.725295770050744"><ele>911.5</ele><time>2026-05-01T10:44:55.999Z</time></trkpt><trkpt lat="42.01035299963269" lon="13.725472201928648"><ele>913.0</ele><time>2026-05-01T10:44:56.999Z</time></trkpt><trkpt lat="42.01027916000562" lon="13.725619008456924"><ele>914.5</ele><time>2026-05-01T10:44:57.999Z</time></trkpt><trkpt lat="42.010178924857385" lon="13.725741907512548"><ele>916.0</ele><time>2026-05-01T10:44:58.999Z</time></trkpt><trkpt lat="42.01006531358227" lon="13.725814213862739"><ele>917.75</ele><time>2026-05-01T10:44:59.999Z</time></trkpt><trkpt lat="42.00993342190326" lon="13.725833801006084"><ele>919.5</ele><time>2026-05-01T10:45:00.999Z</time></trkpt><trkpt lat="42.00980526932512" lon="13.7257754970159"><ele>921.25</ele><time>2026-05-01T10:45:01.999Z</time></trkpt><trkpt lat="42.00966915134057" lon="13.725694304833052"><ele>923.0</ele><time>2026-05-01T10:45:02.999Z</time></trkpt><trkpt lat="42.009530393159885" lon="13.72560265373191"><ele>923.0</ele><time>2026-05-01T10:45:03.999Z</time></trkpt><trkpt lat="42.009400813765" lon="13.72551641027266"><ele>923.0</ele><time>2026-05-01T10:45:04.999Z</time></trkpt><trkpt lat="42.00927637121664" lon="13.72543654205958"><ele>923.0</ele><time>2026-05-01T10:45:05.999Z</time></trkpt><trkpt lat="42.00915705671674" lon="13.725416012104521"><ele>923.0</ele><time>2026-05-01T10:45:06.998Z</time></trkpt><trkpt lat="42.00907157594277" lon="13.725409836326003"><ele>922.25</ele><time>2026-05-01T10:45:07.998Z</time></trkpt><trkpt lat="42.00896669162817" lon="13.725473155078916"><ele>921.5</ele><time>2026-05-01T10:45:08.998Z</time></trkpt><trkpt lat="42.00887877456551" lon="13.725591462072424"><ele>920.75</ele><time>2026-05-01T10:45:09.998Z</time></trkpt><trkpt lat="42.008795952405094" lon="13.725698601811855"><ele>920.0</ele><time>2026-05-01T10:45:10.998Z</time></trkpt><trkpt lat="42.00870620273391" lon="13.72582345363526"><ele>920.0</ele><time>2026-05-01T10:45:11.998Z</time></trkpt><trkpt lat="42.00859069889643" lon="13.725939247514168"><ele>920.0</ele><time>2026-05-01T10:45:12.998Z</time></trkpt><trkpt lat="42.00849677624042" lon="13.72608245177045"><ele>920.0</ele><time>2026-05-01T10:45:13.998Z</time></trkpt><trkpt lat="42.00837516602584" lon="13.726291827702672"><ele>922.25</ele><time>2026-05-01T10:45:14.998Z</time></trkpt><trkpt lat="42.00830265660653" lon="13.726467877711016"><ele>924.5</ele><time>2026-05-01T10:45:15.998Z</time></trkpt><trkpt lat="42.008226619990744" lon="13.726631263507178"><ele>926.75</ele><time>2026-05-01T10:45:16.998Z</time></trkpt><trkpt lat="42.00815217068235" lon="13.726776910026794"><ele>929.0</ele><time>2026-05-01T10:45:17.998Z</time></trkpt><trkpt lat="42.00810498748925" lon="13.726894493646142"><ele>931.4000000000001</ele><time>2026-05-01T10:45:18.998Z</time></trkpt><trkpt lat="42.00806063406701" lon="13.726994082460966"><ele>933.8000000000001</ele><time>2026-05-01T10:45:19.998Z</time></trkpt><trkpt lat="42.00799336353476" lon="13.727101558403685"><ele>936.1999999999999</ele><time>2026-05-01T10:45:21.998Z</time></trkpt><trkpt lat="42.008076634424235" lon="13.727206445706742"><ele>938.5999999999999</ele><time>2026-05-01T10:45:22.998Z</time></trkpt><trkpt lat="42.008134238483194" lon="13.727292652006245"><ele>941.0</ele><time>2026-05-01T10:45:23.998Z</time></trkpt><trkpt lat="42.00819291921574" lon="13.72738297769051"><ele>941.0</ele><time>2026-05-01T10:45:24.998Z</time></trkpt><trkpt lat="42.00827819277358" lon="13.72746789572849"><ele>940.9999999999999</ele><time>2026-05-01T10:45:25.998Z</time></trkpt><trkpt lat="42.00837101218639" lon="13.727547680787792"><ele>940.9999999999999</ele><time>2026-05-01T10:45:26.998Z</time></trkpt><trkpt lat="42.00847720491042" lon="13.727612724301366"><ele>941.0</ele><time>2026-05-01T10:45:27.998Z</time></trkpt><trkpt lat="42.0085848045941" lon="13.727652183953076"><ele>941.0</ele><time>2026-05-01T10:45:28.998Z</time></trkpt><trkpt lat="42.00871285514543" lon="13.727626758718964"><ele>939.3333333333334</ele><time>2026-05-01T10:45:29.998Z</time></trkpt><trkpt lat="42.00884545923669" lon="13.727565963900336"><ele>937.6666666666667</ele><time>2026-05-01T10:45:30.998Z</time></trkpt><trkpt lat="42.00900404527656" lon="13.727470672650549"><ele>936.0</ele><time>2026-05-01T10:45:31.998Z</time></trkpt><trkpt lat="42.00914989267622" lon="13.727421930911756"><ele>937.0</ele><time>2026-05-01T10:45:32.998Z</time></trkpt><trkpt lat="42.00927404382917" lon="13.727343466898862"><ele>938.0</ele><time>2026-05-01T10:45:33.998Z</time></trkpt><trkpt lat="42.00941510090492" lon="13.727316144672198"><ele>939.0</ele><time>2026-05-01T10:45:34.998Z</time></trkpt><trkpt lat="42.009549255398866" lon="13.727325353039086"><ele>940.0</ele><time>2026-05-01T10:45:35.998Z</time></trkpt><trkpt lat="42.009662843768574" lon="13.727394986777739"><ele>940.0</ele><time>2026-05-01T10:45:36.998Z</time></trkpt><trkpt lat="42.009761101871526" lon="13.727496576553634"><ele>940.0</ele><time>2026-05-01T10:45:37.998Z</time></trkpt><trkpt lat="42.009840041517585" lon="13.727632668279066"><ele>940.0</ele><time>2026-05-01T10:45:38.998Z</time></trkpt><trkpt lat="42.00989587378743" lon="13.727793613909261"><ele>940.0</ele><time>2026-05-01T10:45:39.998Z</time></trkpt><trkpt lat="42.00994949714388" lon="13.727987058610111"><ele>942.6666666666666</ele><time>2026-05-01T10:45:40.998Z</time></trkpt><trkpt lat="42.01001385105047" lon="13.728196166965503"><ele>945.3333333333333</ele><time>2026-05-01T10:45:41.998Z</time></trkpt><trkpt lat="42.01005644742347" lon="13.72838718593618"><ele>948.0</ele><time>2026-05-01T10:45:42.998Z</time></trkpt><trkpt lat="42.01010120859174" lon="13.72857438915781"><ele>951.0</ele><time>2026-05-01T10:45:43.998Z</time></trkpt><trkpt lat="42.01015509123028" lon="13.728783472239662"><ele>954.0</ele><time>2026-05-01T10:45:44.998Z</time></trkpt><trkpt lat="42.01020588323604" lon="13.728997042248336"><ele>957.0</ele><time>2026-05-01T10:45:45.998Z</time></trkpt><trkpt lat="42.01025790745736" lon="13.72920983927269"><ele>959.0</ele><time>2026-05-01T10:45:46.998Z</time></trkpt><trkpt lat="42.0103208855421" lon="13.729409226603517"><ele>961.0</ele><time>2026-05-01T10:45:47.998Z</time></trkpt><trkpt lat="42.010421434464604" lon="13.729582153186852"><ele>963.0</ele><time>2026-05-01T10:45:48.998Z</time></trkpt><trkpt lat="42.010542080835634" lon="13.729733182229285"><ele>963.0</ele><time>2026-05-01T10:45:50Z</time></trkpt><trkpt lat="42.01067736119482" lon="13.729869538992348"><ele>963.0</ele><time>2026-05-01T10:45:51Z</time></trkpt><trkpt lat="42.010806592314815" lon="13.730018408640444"><ele>963.0</ele><time>2026-05-01T10:45:52Z</time></trkpt><trkpt lat="42.01095124018905" lon="13.73015075529524"><ele>964.0</ele><time>2026-05-01T10:45:53Z</time></trkpt><trkpt lat="42.011109020288636" lon="13.730244685925417"><ele>965.0</ele><time>2026-05-01T10:45:54Z</time></trkpt><trkpt lat="42.011283949218075" lon="13.730303426190106"><ele>966.0</ele><time>2026-05-01T10:45:55Z</time></trkpt><trkpt lat="42.01146253759993" lon="13.73035314888191"><ele>966.0</ele><time>2026-05-01T10:45:56Z</time></trkpt><trkpt lat="42.01164264507214" lon="13.730398876396505"><ele>966.0</ele><time>2026-05-01T10:45:57Z</time></trkpt><trkpt lat="42.01182378244704" lon="13.730453067775322"><ele>966.0</ele><time>2026-05-01T10:45:58Z</time></trkpt><trkpt lat="42.012001523059816" lon="13.730508059074973"><ele>966.0</ele><time>2026-05-01T10:45:59Z</time></trkpt><trkpt lat="42.01217761008879" lon="13.730556746325608"><ele>966.0</ele><time>2026-05-01T10:46:00Z</time></trkpt><trkpt lat="42.01236120614022" lon="13.73058378186358"><ele>966.0</ele><time>2026-05-01T10:46:01Z</time></trkpt><trkpt lat="42.01254704837254" lon="13.730573827290991"><ele>966.3333333333333</ele><time>2026-05-01T10:46:02Z</time></trkpt><trkpt lat="42.012730932504454" lon="13.730543618017725"><ele>966.6666666666666</ele><time>2026-05-01T10:46:03Z</time></trkpt><trkpt lat="42.01291632849699" lon="13.73053386560318"><ele>967.0</ele><time>2026-05-01T10:46:04Z</time></trkpt><trkpt lat="42.01309644395444" lon="13.73051036502245"><ele>967.0</ele><time>2026-05-01T10:46:05Z</time></trkpt><trkpt lat="42.013268201184765" lon="13.730487660457154"><ele>967.0</ele><time>2026-05-01T10:46:06Z</time></trkpt><trkpt lat="42.0134178367372" lon="13.730456788587361"><ele>967.0</ele><time>2026-05-01T10:46:07Z</time></trkpt><trkpt lat="42.013562146730315" lon="13.730491948608494"><ele>968.3333333333333</ele><time>2026-05-01T10:46:08Z</time></trkpt><trkpt lat="42.01370261393945" lon="13.730571220586022"><ele>969.6666666666667</ele><time>2026-05-01T10:46:09Z</time></trkpt><trkpt lat="42.01383475974253" lon="13.730668227391577"><ele>971.0</ele><time>2026-05-01T10:46:10Z</time></trkpt><trkpt lat="42.013957288839016" lon="13.730790869464471"><ele>971.0</ele><time>2026-05-01T10:46:11Z</time></trkpt><trkpt lat="42.014086447443084" lon="13.730899522301138"><ele>971.0</ele><time>2026-05-01T10:46:12Z</time></trkpt><trkpt lat="42.01421608322712" lon="13.731009236944912"><ele>971.0</ele><time>2026-05-01T10:46:13Z</time></trkpt><trkpt lat="42.01435126519236" lon="13.731122990770182"><ele>975.6666666666667</ele><time>2026-05-01T10:46:14Z</time></trkpt><trkpt lat="42.0144903723912" lon="13.731213436659402"><ele>980.3333333333333</ele><time>2026-05-01T10:46:15Z</time></trkpt><trkpt lat="42.014639075389795" lon="13.731264105460028"><ele>985.0</ele><time>2026-05-01T10:46:16Z</time></trkpt><trkpt lat="42.014793167725486" lon="13.731222052003531"><ele>985.0</ele><time>2026-05-01T10:46:17Z</time></trkpt><trkpt lat="42.01493322645549" lon="13.731158650223243"><ele>985.0</ele><time>2026-05-01T10:46:17.999Z</time></trkpt><trkpt lat="42.015068338968824" lon="13.731057771310267"><ele>985.0</ele><time>2026-05-01T10:46:18.999Z</time></trkpt><trkpt lat="42.01520530174836" lon="13.730960611012316"><ele>982.5</ele><time>2026-05-01T10:46:19.999Z</time></trkpt><trkpt lat="42.015339052213086" lon="13.730886223370186"><ele>980.0</ele><time>2026-05-01T10:46:20.999Z</time></trkpt><trkpt lat="42.01546519569138" lon="13.730839104964542"><ele>977.5</ele><time>2026-05-01T10:46:21.999Z</time></trkpt><trkpt lat="42.0155896040913" lon="13.730821243632"><ele>975.0</ele><time>2026-05-01T10:46:22.999Z</time></trkpt><trkpt lat="42.01572287021807" lon="13.730847437670086"><ele>975.75</ele><time>2026-05-01T10:46:23.999Z</time></trkpt><trkpt lat="42.01582303895575" lon="13.730949923178294"><ele>976.5</ele><time>2026-05-01T10:46:24.999Z</time></trkpt><trkpt lat="42.01592813599794" lon="13.73106082618326"><ele>977.25</ele><time>2026-05-01T10:46:25.999Z</time></trkpt><trkpt lat="42.01604558932667" lon="13.731184795299294"><ele>978.0</ele><time>2026-05-01T10:46:26.999Z</time></trkpt><trkpt lat="42.01616814542174" lon="13.731304720134947"><ele>982.3333333333333</ele><time>2026-05-01T10:46:27.999Z</time></trkpt><trkpt lat="42.016296173086296" lon="13.73143218646614"><ele>986.6666666666666</ele><time>2026-05-01T10:46:28.999Z</time></trkpt><trkpt lat="42.016411477679" lon="13.731582798587437"><ele>991.0</ele><time>2026-05-01T10:46:29.999Z</time></trkpt><trkpt lat="42.016549337204516" lon="13.73169581247699"><ele>989.3333333333333</ele><time>2026-05-01T10:46:30.999Z</time></trkpt><trkpt lat="42.01667083507381" lon="13.731822563290132"><ele>987.6666666666667</ele><time>2026-05-01T10:46:31.999Z</time></trkpt><trkpt lat="42.01682402756708" lon="13.731880583652087"><ele>986.0</ele><time>2026-05-01T10:46:32.999Z</time></trkpt><trkpt lat="42.01697219798753" lon="13.73190805476342"><ele>986.0</ele><time>2026-05-01T10:46:33.999Z</time></trkpt><trkpt lat="42.01712898281064" lon="13.731887788465714"><ele>986.0</ele><time>2026-05-01T10:46:34.999Z</time></trkpt><trkpt lat="42.017285227424736" lon="13.731819841716774"><ele>986.0</ele><time>2026-05-01T10:46:35.999Z</time></trkpt><trkpt lat="42.01744007494078" lon="13.731774124080765"><ele>987.0</ele><time>2026-05-01T10:46:36.999Z</time></trkpt><trkpt lat="42.01759267252436" lon="13.731746220116952"><ele>988.0</ele><time>2026-05-01T10:46:37.999Z</time></trkpt><trkpt lat="42.01774885039631" lon="13.731753019779813"><ele>989.0</ele><time>2026-05-01T10:46:38.999Z</time></trkpt><trkpt lat="42.01790254869955" lon="13.731801921139517"><ele>994.3333333333334</ele><time>2026-05-01T10:46:39.999Z</time></trkpt><trkpt lat="42.01804440649251" lon="13.73189121056459"><ele>999.6666666666667</ele><time>2026-05-01T10:46:40.999Z</time></trkpt><trkpt lat="42.01815842425718" lon="13.732031818717028"><ele>1005.0</ele><time>2026-05-01T10:46:41.999Z</time></trkpt><trkpt lat="42.018285071654695" lon="13.732158904346722"><ele>1004.6666666666667</ele><time>2026-05-01T10:46:42.999Z</time></trkpt><trkpt lat="42.01841152291601" lon="13.732283863158353"><ele>1004.3333333333334</ele><time>2026-05-01T10:46:43.999Z</time></trkpt><trkpt lat="42.01855983277895" lon="13.732414347700445"><ele>1004.0</ele><time>2026-05-01T10:46:44.999Z</time></trkpt><trkpt lat="42.01873006647426" lon="13.73253602353267"><ele>1004.0</ele><time>2026-05-01T10:46:45.999Z</time></trkpt><trkpt lat="42.01890369564249" lon="13.732611832268942"><ele>1004.0</ele><time>2026-05-01T10:46:46.999Z</time></trkpt><trkpt lat="42.01907148080089" lon="13.732716649146628"><ele>1004.0</ele><time>2026-05-01T10:46:47.999Z</time></trkpt><trkpt lat="42.019247666468296" lon="13.732804809641294"><ele>1009.0</ele><time>2026-05-01T10:46:48.999Z</time></trkpt><trkpt lat="42.01942921324791" lon="13.73289434629123"><ele>1014.0</ele><time>2026-05-01T10:46:49.999Z</time></trkpt><trkpt lat="42.019612520485786" lon="13.732983409409359"><ele>1019.0</ele><time>2026-05-01T10:46:50.999Z</time></trkpt><trkpt lat="42.01979941522531" lon="13.733056572061365"><ele>1019.0</ele><time>2026-05-01T10:46:51.999Z</time></trkpt><trkpt lat="42.019980073408185" lon="13.733153117859779"><ele>1019.0</ele><time>2026-05-01T10:46:52.999Z</time></trkpt><trkpt lat="42.02016157695706" lon="13.733239461631342"><ele>1019.0</ele><time>2026-05-01T10:46:53.999Z</time></trkpt><trkpt lat="42.020343132276544" lon="13.733323921416204"><ele>1017.6666666666667</ele><time>2026-05-01T10:46:54.999Z</time></trkpt><trkpt lat="42.02052350026393" lon="13.733408587497582"><ele>1016.3333333333333</ele><time>2026-05-01T10:46:55.999Z</time></trkpt><trkpt lat="42.02070295607163" lon="13.733495956505678"><ele>1015.0</ele><time>2026-05-01T10:46:56.999Z</time></trkpt><trkpt lat="42.020881588782665" lon="13.733580914845014"><ele>1022.3333333333333</ele><time>2026-05-01T10:46:57.999Z</time></trkpt><trkpt lat="42.021066243975596" lon="13.73364556465914"><ele>1029.6666666666667</ele><time>2026-05-01T10:46:58.999Z</time></trkpt><trkpt lat="42.02125843011122" lon="13.733673101201818"><ele>1037.0</ele><time>2026-05-01T10:46:59.999Z</time></trkpt><trkpt lat="42.02145044805157" lon="13.733682532027679"><ele>1037.0</ele><time>2026-05-01T10:47:00.999Z</time></trkpt><trkpt lat="42.02164097993814" lon="13.733714704197324"><ele>1037.0</ele><time>2026-05-01T10:47:01.999Z</time></trkpt><trkpt lat="42.02183649377793" lon="13.733714104875704"><ele>1037.0</ele><time>2026-05-01T10:47:02.999Z</time></trkpt><trkpt lat="42.02202324684856" lon="13.73373649437134"><ele>1038.3333333333335</ele><time>2026-05-01T10:47:03.999Z</time></trkpt><trkpt lat="42.02221013497688" lon="13.733750588754399"><ele>1039.6666666666667</ele><time>2026-05-01T10:47:04.999Z</time></trkpt><trkpt lat="42.02239373791658" lon="13.733790482180968"><ele>1041.0</ele><time>2026-05-01T10:47:05.999Z</time></trkpt><trkpt lat="42.02257701781396" lon="13.733788888216605"><ele>1041.0</ele><time>2026-05-01T10:47:06.999Z</time></trkpt><trkpt lat="42.02275988281557" lon="13.733818974947628"><ele>1041.0</ele><time>2026-05-01T10:47:07.999Z</time></trkpt><trkpt lat="42.022947841555975" lon="13.733867863099828"><ele>1041.0</ele><time>2026-05-01T10:47:08.999Z</time></trkpt><trkpt lat="42.02313331791628" lon="13.733924066643315"><ele>1040.0</ele><time>2026-05-01T10:47:09.999Z</time></trkpt><trkpt lat="42.023318537779964" lon="13.733987172715734"><ele>1039.0</ele><time>2026-05-01T10:47:10.998Z</time></trkpt><trkpt lat="42.0235041048074" lon="13.734050427522204"><ele>1038.0</ele><time>2026-05-01T10:47:11.998Z</time></trkpt><trkpt lat="42.023691499552626" lon="13.734111234442528"><ele>1038.0</ele><time>2026-05-01T10:47:12.998Z</time></trkpt><trkpt lat="42.023870903707625" lon="13.734192556851157"><ele>1038.0</ele><time>2026-05-01T10:47:13.998Z</time></trkpt><trkpt lat="42.024051638127276" lon="13.734256576787466"><ele>1038.0</ele><time>2026-05-01T10:47:14.998Z</time></trkpt><trkpt lat="42.02422662539223" lon="13.734321504439729"><ele>1036.0</ele><time>2026-05-01T10:47:15.998Z</time></trkpt><trkpt lat="42.024386376758144" lon="13.734383347737314"><ele>1034.0</ele><time>2026-05-01T10:47:16.998Z</time></trkpt><trkpt lat="42.02453495357914" lon="13.73443502069072"><ele>1032.0</ele><time>2026-05-01T10:47:17.998Z</time></trkpt><trkpt lat="42.02465296910986" lon="13.734527328300448"><ele>1041.0</ele><time>2026-05-01T10:47:18.998Z</time></trkpt><trkpt lat="42.024745672781386" lon="13.734654117020996"><ele>1050.0</ele><time>2026-05-01T10:47:19.998Z</time></trkpt><trkpt lat="42.024777482646336" lon="13.734808507291511"><ele>1059.0</ele><time>2026-05-01T10:47:20.998Z</time></trkpt><trkpt lat="42.02479039183066" lon="13.734979057381285"><ele>1068.0</ele><time>2026-05-01T10:47:21.998Z</time></trkpt><trkpt lat="42.02480393514444" lon="13.7351598004371"><ele>1074.75</ele><time>2026-05-01T10:47:22.998Z</time></trkpt><trkpt lat="42.02482985784593" lon="13.735321950641614"><ele>1081.5</ele><time>2026-05-01T10:47:23.998Z</time></trkpt><trkpt lat="42.0248480630461" lon="13.735473635537478"><ele>1088.25</ele><time>2026-05-01T10:47:24.998Z</time></trkpt><trkpt lat="42.02487021102301" lon="13.73560930021294"><ele>1095.0</ele><time>2026-05-01T10:47:25.998Z</time></trkpt><trkpt lat="42.0249462237616" lon="13.735719483713327"><ele>1084.25</ele><time>2026-05-01T10:47:26.998Z</time></trkpt><trkpt lat="42.02506642118522" lon="13.735748027057577"><ele>1073.5</ele><time>2026-05-01T10:47:27.998Z</time></trkpt><trkpt lat="42.02518079810241" lon="13.735763226928237"><ele>1062.75</ele><time>2026-05-01T10:47:28.998Z</time></trkpt><trkpt lat="42.025332858765445" lon="13.735730555615643"><ele>1052.0</ele><time>2026-05-01T10:47:29.998Z</time></trkpt><trkpt lat="42.02547367118839" lon="13.735686098487268"><ele>1052.0</ele><time>2026-05-01T10:47:30.998Z</time></trkpt><trkpt lat="42.025613501941685" lon="13.735632259097585"><ele>1052.0</ele><time>2026-05-01T10:47:31.998Z</time></trkpt><trkpt lat="42.02575462707021" lon="13.735579434268537"><ele>1052.0</ele><time>2026-05-01T10:47:32.998Z</time></trkpt><trkpt lat="42.025894531283114" lon="13.735518736442119"><ele>1052.0</ele><time>2026-05-01T10:47:33.998Z</time></trkpt><trkpt lat="42.026019604045324" lon="13.735446869946868"><ele>1055.0</ele><time>2026-05-01T10:47:34.998Z</time></trkpt><trkpt lat="42.02613571591909" lon="13.735361070322686"><ele>1058.0</ele><time>2026-05-01T10:47:35.998Z</time></trkpt><trkpt lat="42.02624393008731" lon="13.735275031369692"><ele>1061.0</ele><time>2026-05-01T10:47:36.998Z</time></trkpt><trkpt lat="42.026346947184074" lon="13.735192881494367"><ele>1064.0</ele><time>2026-05-01T10:47:37.998Z</time></trkpt><trkpt lat="42.026459130805314" lon="13.73511649575222"><ele>1061.25</ele><time>2026-05-01T10:47:38.998Z</time></trkpt><trkpt lat="42.02658311672049" lon="13.735062279578656"><ele>1058.5</ele><time>2026-05-01T10:47:39.998Z</time></trkpt><trkpt lat="42.02671293342889" lon="13.735014703830705"><ele>1055.75</ele><time>2026-05-01T10:47:40.998Z</time></trkpt><trkpt lat="42.02686015246961" lon="13.73494043219458"><ele>1053.0</ele><time>2026-05-01T10:47:41.998Z</time></trkpt><trkpt lat="42.026973612812654" lon="13.734918463986922"><ele>1053.0</ele><time>2026-05-01T10:47:42.998Z</time></trkpt><trkpt lat="42.02709649238223" lon="13.734886792639225"><ele>1053.0</ele><time>2026-05-01T10:47:43.998Z</time></trkpt><trkpt lat="42.02723350083987" lon="13.734855244567932"><ele>1053.0</ele><time>2026-05-01T10:47:44.998Z</time></trkpt><trkpt lat="42.02737334742824" lon="13.734834243316348"><ele>1053.0</ele><time>2026-05-01T10:47:45.998Z</time></trkpt><trkpt lat="42.027515356596176" lon="13.734818960524999"><ele>1056.5</ele><time>2026-05-01T10:47:46.998Z</time></trkpt><trkpt lat="42.02765722052156" lon="13.734812278091557"><ele>1060.0</ele><time>2026-05-01T10:47:47.998Z</time></trkpt><trkpt lat="42.02779633937405" lon="13.73481162423416"><ele>1063.5</ele><time>2026-05-01T10:47:48.998Z</time></trkpt><trkpt lat="42.02793038041185" lon="13.734808947976607"><ele>1067.0</ele><time>2026-05-01T10:47:49.998Z</time></trkpt><trkpt lat="42.02806254075349" lon="13.734809652497571"><ele>1067.0</ele><time>2026-05-01T10:47:50.998Z</time></trkpt><trkpt lat="42.02819407943801" lon="13.734832462788452"><ele>1067.0</ele><time>2026-05-01T10:47:51.998Z</time></trkpt><trkpt lat="42.028318554566404" lon="13.73488507923454"><ele>1067.0</ele><time>2026-05-01T10:47:52.998Z</time></trkpt><trkpt lat="42.02843608409472" lon="13.734980592041918"><ele>1067.0</ele><time>2026-05-01T10:47:53.998Z</time></trkpt><trkpt lat="42.028546073559326" lon="13.735102929238387"><ele>1075.0</ele><time>2026-05-01T10:47:54.998Z</time></trkpt><trkpt lat="42.028653346386314" lon="13.735223047772116"><ele>1083.0</ele><time>2026-05-01T10:47:56Z</time></trkpt><trkpt lat="42.028758750200595" lon="13.735321626512686"><ele>1091.0</ele><time>2026-05-01T10:47:57Z</time></trkpt><trkpt lat="42.028895876421174" lon="13.735357436341486"><ele>1099.0</ele><time>2026-05-01T10:47:58Z</time></trkpt><trkpt lat="42.02903407205747" lon="13.735297089185087"><ele>1097.25</ele><time>2026-05-01T10:47:59Z</time></trkpt><trkpt lat="42.029166788396466" lon="13.735227925825654"><ele>1095.5</ele><time>2026-05-01T10:48:00Z</time></trkpt><trkpt lat="42.02930293000534" lon="13.735154340483504"><ele>1093.75</ele><time>2026-05-01T10:48:01Z</time></trkpt><trkpt lat="42.02943158308569" lon="13.735065157750734"><ele>1092.0</ele><time>2026-05-01T10:48:02Z</time></trkpt><trkpt lat="42.02955223682133" lon="13.734962722024804"><ele>1089.0</ele><time>2026-05-01T10:48:03Z</time></trkpt><trkpt lat="42.02968813469514" lon="13.734905144418924"><ele>1086.0</ele><time>2026-05-01T10:48:04Z</time></trkpt><trkpt lat="42.02983126853094" lon="13.73486685337112"><ele>1083.0</ele><time>2026-05-01T10:48:05Z</time></trkpt><trkpt lat="42.02998324875075" lon="13.734850537176849"><ele>1080.0</ele><time>2026-05-01T10:48:06Z</time></trkpt><trkpt lat="42.03013924632658" lon="13.73483885715824"><ele>1080.0</ele><time>2026-05-01T10:48:07Z</time></trkpt><trkpt lat="42.030296200298395" lon="13.734850329529392"><ele>1080.0</ele><time>2026-05-01T10:48:08Z</time></trkpt><trkpt lat="42.030447029062586" lon="13.734813088443818"><ele>1080.0</ele><time>2026-05-01T10:48:09Z</time></trkpt><trkpt lat="42.03059627778821" lon="13.734825221066338"><ele>1080.0</ele><time>2026-05-01T10:48:10Z</time></trkpt><trkpt lat="42.030744298896245" lon="13.734807922935875"><ele>1080.0</ele><time>2026-05-01T10:48:11Z</time></trkpt><trkpt lat="42.03089680500819" lon="13.73483778244191"><ele>1080.0</ele><time>2026-05-01T10:48:12Z</time></trkpt><trkpt lat="42.03104365458041" lon="13.734899499877862"><ele>1082.0</ele><time>2026-05-01T10:48:13Z</time></trkpt><trkpt lat="42.031182763164374" lon="13.734993656744546"><ele>1084.0</ele><time>2026-05-01T10:48:14Z</time></trkpt><trkpt lat="42.031311724026814" lon="13.735112350990127"><ele>1086.0</ele><time>2026-05-01T10:48:15Z</time></trkpt><trkpt lat="42.03143147922473" lon="13.735250510166296"><ele>1090.6666666666667</ele><time>2026-05-01T10:48:16Z</time></trkpt><trkpt lat="42.03154754282523" lon="13.735395802082447"><ele>1095.3333333333335</ele><time>2026-05-01T10:48:17Z</time></trkpt><trkpt lat="42.03166630071964" lon="13.735532578244749"><ele>1100.0</ele><time>2026-05-01T10:48:18Z</time></trkpt><trkpt lat="42.03178841863953" lon="13.735660065583236"><ele>1100.0</ele><time>2026-05-01T10:48:19Z</time></trkpt><trkpt lat="42.03190694024584" lon="13.735793048550544"><ele>1100.0</ele><time>2026-05-01T10:48:20Z</time></trkpt><trkpt lat="42.0320128047712" lon="13.73594475822233"><ele>1100.0</ele><time>2026-05-01T10:48:21Z</time></trkpt><trkpt lat="42.0321041796614" lon="13.736110074236091"><ele>1105.25</ele><time>2026-05-01T10:48:22Z</time></trkpt><trkpt lat="42.03218815162236" lon="13.736277569951152"><ele>1110.5</ele><time>2026-05-01T10:48:23Z</time></trkpt><trkpt lat="42.03225824897075" lon="13.736449790019055"><ele>1115.75</ele><time>2026-05-01T10:48:23.999Z</time></trkpt><trkpt lat="42.03229551635907" lon="13.736628207829753"><ele>1121.0</ele><time>2026-05-01T10:48:24.999Z</time></trkpt><trkpt lat="42.03229265612931" lon="13.736797739746146"><ele>1121.75</ele><time>2026-05-01T10:48:25.999Z</time></trkpt><trkpt lat="42.03224993300185" lon="13.736960930973476"><ele>1122.5</ele><time>2026-05-01T10:48:26.999Z</time></trkpt><trkpt lat="42.03218194120169" lon="13.737112628441107"><ele>1123.25</ele><time>2026-05-01T10:48:27.999Z</time></trkpt><trkpt lat="42.03212811425296" lon="13.737264187909684"><ele>1124.0</ele><time>2026-05-01T10:48:28.999Z</time></trkpt><trkpt lat="42.032113678864725" lon="13.737424706189225"><ele>1124.0</ele><time>2026-05-01T10:48:29.999Z</time></trkpt><trkpt lat="42.032136248609824" lon="13.737577900741147"><ele>1124.0</ele><time>2026-05-01T10:48:30.999Z</time></trkpt><trkpt lat="42.03218819819292" lon="13.73771350357998"><ele>1124.0</ele><time>2026-05-01T10:48:31.999Z</time></trkpt><trkpt lat="42.03227729638904" lon="13.737816052545602"><ele>1124.0</ele><time>2026-05-01T10:48:32.999Z</time></trkpt><trkpt lat="42.03239427582572" lon="13.737873601084607"><ele>1124.0</ele><time>2026-05-01T10:48:33.999Z</time></trkpt><trkpt lat="42.03252411129081" lon="13.737896944528503"><ele>1124.0</ele><time>2026-05-01T10:48:34.999Z</time></trkpt><trkpt lat="42.032651495334534" lon="13.737953582858383"><ele>1124.0</ele><time>2026-05-01T10:48:35.999Z</time></trkpt><trkpt lat="42.032791831515404" lon="13.737981763334256"><ele>1124.0</ele><time>2026-05-01T10:48:36.999Z</time></trkpt><trkpt lat="42.03292065446955" lon="13.738029909602712"><ele>1124.0</ele><time>2026-05-01T10:48:37.999Z</time></trkpt><trkpt lat="42.03305134394867" lon="13.738088982569222"><ele>1124.0</ele><time>2026-05-01T10:48:38.999Z</time></trkpt><trkpt lat="42.033180017931215" lon="13.738151829591962"><ele>1124.0</ele><time>2026-05-01T10:48:39.999Z</time></trkpt><trkpt lat="42.03330787989293" lon="13.738228714065647"><ele>1124.0</ele><time>2026-05-01T10:48:40.999Z</time></trkpt><trkpt lat="42.03343082298106" lon="13.738326367567616"><ele>1121.25</ele><time>2026-05-01T10:48:41.999Z</time></trkpt><trkpt lat="42.03354734738112" lon="13.73843536318406"><ele>1118.5</ele><time>2026-05-01T10:48:42.999Z</time></trkpt><trkpt lat="42.033648702437596" lon="13.738577752285465"><ele>1115.75</ele><time>2026-05-01T10:48:43.999Z</time></trkpt><trkpt lat="42.0337551397231" lon="13.738713486527127"><ele>1113.0</ele><time>2026-05-01T10:48:44.999Z</time></trkpt><trkpt lat="42.03386104476321" lon="13.738852685229924"><ele>1113.0</ele><time>2026-05-01T10:48:45.999Z</time></trkpt><trkpt lat="42.033975767286954" lon="13.738979415224549"><ele>1113.0</ele><time>2026-05-01T10:48:46.999Z</time></trkpt><trkpt lat="42.034072355080816" lon="13.739129083015316"><ele>1113.0</ele><time>2026-05-01T10:48:47.999Z</time></trkpt><trkpt lat="42.03416394869826" lon="13.739288201291872"><ele>1113.0</ele><time>2026-05-01T10:48:48.999Z</time></trkpt><trkpt lat="42.034251601675415" lon="13.73945813061829"><ele>1123.3333333333333</ele><time>2026-05-01T10:48:49.999Z</time></trkpt><trkpt lat="42.03433702175008" lon="13.739640543265129"><ele>1133.6666666666665</ele><time>2026-05-01T10:48:50.999Z</time></trkpt><trkpt lat="42.03442223611293" lon="13.739826882480985"><ele>1144.0</ele><time>2026-05-01T10:48:51.999Z</time></trkpt><trkpt lat="42.034510005514264" lon="13.74001935209953"><ele>1144.0</ele><time>2026-05-01T10:48:52.999Z</time></trkpt><trkpt lat="42.03459724052148" lon="13.740203289519368"><ele>1144.0</ele><time>2026-05-01T10:48:53.999Z</time></trkpt><trkpt lat="42.03466765713637" lon="13.740387852404986"><ele>1144.0</ele><time>2026-05-01T10:48:54.999Z</time></trkpt><trkpt lat="42.03474561537574" lon="13.740554746286815"><ele>1140.25</ele><time>2026-05-01T10:48:55.999Z</time></trkpt><trkpt lat="42.034820060997646" lon="13.74071612040072"><ele>1136.5</ele><time>2026-05-01T10:48:56.999Z</time></trkpt><trkpt lat="42.034892819118866" lon="13.74087383658067"><ele>1132.75</ele><time>2026-05-01T10:48:57.999Z</time></trkpt><trkpt lat="42.034959836764436" lon="13.741032414128153"><ele>1129.0</ele><time>2026-05-01T10:48:58.999Z</time></trkpt><trkpt lat="42.03501104046401" lon="13.741193942999077"><ele>1129.0</ele><time>2026-05-01T10:48:59.999Z</time></trkpt><trkpt lat="42.03501007764003" lon="13.741358918615203"><ele>1129.0</ele><time>2026-05-01T10:49:00.999Z</time></trkpt><trkpt lat="42.03497352848945" lon="13.741532052601036"><ele>1129.0</ele><time>2026-05-01T10:49:01.999Z</time></trkpt><trkpt lat="42.03492014148791" lon="13.741705363936287"><ele>1129.0</ele><time>2026-05-01T10:49:02.999Z</time></trkpt><trkpt lat="42.03486532198289" lon="13.741883630383965"><ele>1143.6666666666665</ele><time>2026-05-01T10:49:03.999Z</time></trkpt><trkpt lat="42.03481500723847" lon="13.74207095809652"><ele>1158.3333333333333</ele><time>2026-05-01T10:49:04.999Z</time></trkpt><trkpt lat="42.03474552732076" lon="13.742253218572532"><ele>1173.0</ele><time>2026-05-01T10:49:05.999Z</time></trkpt><trkpt lat="42.03468754585648" lon="13.742446592373936"><ele>1173.0</ele><time>2026-05-01T10:49:06.999Z</time></trkpt><trkpt lat="42.03462775639303" lon="13.742641865589267"><ele>1173.0</ele><time>2026-05-01T10:49:07.999Z</time></trkpt><trkpt lat="42.03456647696013" lon="13.742837753166047"><ele>1173.0</ele><time>2026-05-01T10:49:08.999Z</time></trkpt><trkpt lat="42.034514687654415" lon="13.74304415077752"><ele>1168.6666666666667</ele><time>2026-05-01T10:49:09.999Z</time></trkpt><trkpt lat="42.03443253063806" lon="13.743237941186738"><ele>1164.3333333333335</ele><time>2026-05-01T10:49:10.999Z</time></trkpt><trkpt lat="42.03434533381033" lon="13.743431185363965"><ele>1160.0</ele><time>2026-05-01T10:49:11.999Z</time></trkpt><trkpt lat="42.034254242135454" lon="13.743624406176867"><ele>1156.0</ele><time>2026-05-01T10:49:12.999Z</time></trkpt><trkpt lat="42.03414628993635" lon="13.743806791047895"><ele>1152.0</ele><time>2026-05-01T10:49:13.999Z</time></trkpt><trkpt lat="42.03405043482091" lon="13.744003279509098"><ele>1148.0</ele><time>2026-05-01T10:49:14.999Z</time></trkpt><trkpt lat="42.0339571293168" lon="13.744195960422497"><ele>1153.6666666666667</ele><time>2026-05-01T10:49:15.999Z</time></trkpt><trkpt lat="42.03386792274414" lon="13.744380176825361"><ele>1159.3333333333333</ele><time>2026-05-01T10:49:16.999Z</time></trkpt><trkpt lat="42.03379256906433" lon="13.744570280371386"><ele>1165.0</ele><time>2026-05-01T10:49:17.998Z</time></trkpt><trkpt lat="42.03369803188492" lon="13.744724923301256"><ele>1165.0</ele><time>2026-05-01T10:49:18.998Z</time></trkpt><trkpt lat="42.03360366341621" lon="13.744853529664077"><ele>1165.0</ele><time>2026-05-01T10:49:19.998Z</time></trkpt><trkpt lat="42.03351989688888" lon="13.744967622193245"><ele>1165.0</ele><time>2026-05-01T10:49:20.998Z</time></trkpt><trkpt lat="42.033442517354196" lon="13.745068958329053"><ele>1165.0</ele><time>2026-05-01T10:49:21.998Z</time></trkpt><trkpt lat="42.033404191600866" lon="13.74519954993696"><ele>1163.8</ele><time>2026-05-01T10:49:22.998Z</time></trkpt><trkpt lat="42.033414433265634" lon="13.745344868409033"><ele>1162.6</ele><time>2026-05-01T10:49:23.998Z</time></trkpt><trkpt lat="42.033488647769865" lon="13.745464509223636"><ele>1161.4</ele><time>2026-05-01T10:49:24.998Z</time></trkpt><trkpt lat="42.03357402257782" lon="13.745557334099908"><ele>1160.2</ele><time>2026-05-01T10:49:25.998Z</time></trkpt><trkpt lat="42.03368133636578" lon="13.745605193358923"><ele>1159.0</ele><time>2026-05-01T10:49:26.998Z</time></trkpt><trkpt lat="42.03379902320412" lon="13.745595943476067"><ele>1159.0</ele><time>2026-05-01T10:49:27.998Z</time></trkpt><trkpt lat="42.03391588115158" lon="13.745520404317853"><ele>1159.0</ele><time>2026-05-01T10:49:28.998Z</time></trkpt><trkpt lat="42.03402569403697" lon="13.745397743135722"><ele>1159.0</ele><time>2026-05-01T10:49:29.998Z</time></trkpt><trkpt lat="42.03414862261205" lon="13.745277299654855"><ele>1159.0</ele><time>2026-05-01T10:49:30.998Z</time></trkpt><trkpt lat="42.03429420945354" lon="13.745177833833027"><ele>1156.3333333333333</ele><time>2026-05-01T10:49:31.998Z</time></trkpt><trkpt lat="42.03445152642544" lon="13.745080091077892"><ele>1153.6666666666667</ele><time>2026-05-01T10:49:32.998Z</time></trkpt><trkpt lat="42.03460076762992" lon="13.744976284814793"><ele>1151.0</ele><time>2026-05-01T10:49:33.998Z</time></trkpt><trkpt lat="42.034747744364545" lon="13.744869116840245"><ele>1151.0</ele><time>2026-05-01T10:49:34.998Z</time></trkpt><trkpt lat="42.03489599222161" lon="13.744758032526752"><ele>1151.0</ele><time>2026-05-01T10:49:35.998Z</time></trkpt><trkpt lat="42.035041310003045" lon="13.744656189941741"><ele>1151.0</ele><time>2026-05-01T10:49:36.998Z</time></trkpt><trkpt lat="42.035185612453354" lon="13.744577554463547"><ele>1156.3333333333335</ele><time>2026-05-01T10:49:37.998Z</time></trkpt><trkpt lat="42.03533169491053" lon="13.744536021342752"><ele>1161.6666666666667</ele><time>2026-05-01T10:49:38.998Z</time></trkpt><trkpt lat="42.03548636599076" lon="13.744534943465327"><ele>1167.0</ele><time>2026-05-01T10:49:39.998Z</time></trkpt><trkpt lat="42.035641694241924" lon="13.744569529175726"><ele>1167.0</ele><time>2026-05-01T10:49:40.998Z</time></trkpt><trkpt lat="42.03579980586467" lon="13.744573749406317"><ele>1167.0</ele><time>2026-05-01T10:49:41.998Z</time></trkpt><trkpt lat="42.03597064776192" lon="13.744549651363872"><ele>1167.0</ele><time>2026-05-01T10:49:42.998Z</time></trkpt><trkpt lat="42.03613606656193" lon="13.744458054032215"><ele>1164.0</ele><time>2026-05-01T10:49:43.998Z</time></trkpt><trkpt lat="42.036296649341644" lon="13.744331292255248"><ele>1161.0</ele><time>2026-05-01T10:49:44.998Z</time></trkpt><trkpt lat="42.03646981518049" lon="13.744221404152759"><ele>1158.0</ele><time>2026-05-01T10:49:45.998Z</time></trkpt><trkpt lat="42.036648002617405" lon="13.744112640714107"><ele>1164.3333333333333</ele><time>2026-05-01T10:49:46.998Z</time></trkpt><trkpt lat="42.036831227852616" lon="13.744006098644403"><ele>1170.6666666666665</ele><time>2026-05-01T10:49:47.998Z</time></trkpt><trkpt lat="42.03701807766118" lon="13.743897528932223"><ele>1177.0</ele><time>2026-05-01T10:49:48.998Z</time></trkpt><trkpt lat="42.03720729529029" lon="13.743781020958169"><ele>1177.0</ele><time>2026-05-01T10:49:49.998Z</time></trkpt><trkpt lat="42.03739632102816" lon="13.743655339509013"><ele>1177.0</ele><time>2026-05-01T10:49:50.998Z</time></trkpt><trkpt lat="42.03758707390418" lon="13.743529517707326"><ele>1177.0</ele><time>2026-05-01T10:49:51.998Z</time></trkpt><trkpt lat="42.03778303254521" lon="13.743406566859223"><ele>1175.3333333333333</ele><time>2026-05-01T10:49:52.998Z</time></trkpt><trkpt lat="42.037977756556856" lon="13.74328695850432"><ele>1173.6666666666667</ele><time>2026-05-01T10:49:53.998Z</time></trkpt><trkpt lat="42.038172970575275" lon="13.74316997222378"><ele>1172.0</ele><time>2026-05-01T10:49:54.998Z</time></trkpt><trkpt lat="42.038365554215495" lon="13.743048081275843"><ele>1173.0</ele><time>2026-05-01T10:49:55.998Z</time></trkpt><trkpt lat="42.038543719752305" lon="13.742906529563527"><ele>1174.0</ele><time>2026-05-01T10:49:56.998Z</time></trkpt><trkpt lat="42.03870333729416" lon="13.742725861017417"><ele>1175.0</ele><time>2026-05-01T10:49:57.998Z</time></trkpt><trkpt lat="42.03883772142695" lon="13.74251654804858"><ele>1175.0</ele><time>2026-05-01T10:49:58.998Z</time></trkpt><trkpt lat="42.03896094215191" lon="13.742289842819185"><ele>1175.0</ele><time>2026-05-01T10:49:59.998Z</time></trkpt><trkpt lat="42.039084495680264" lon="13.742065789272246"><ele>1175.0</ele><time>2026-05-01T10:50:00.998Z</time></trkpt><trkpt lat="42.03921004090567" lon="13.741844839325605"><ele>1180.3333333333335</ele><time>2026-05-01T10:50:01.999Z</time></trkpt><trkpt lat="42.03933442002222" lon="13.741628073084488"><ele>1185.6666666666667</ele><time>2026-05-01T10:50:02.999Z</time></trkpt><trkpt lat="42.039455776535796" lon="13.74141647388004"><ele>1191.0</ele><time>2026-05-01T10:50:03.999Z</time></trkpt><trkpt lat="42.0395700988046" lon="13.741211317721877"><ele>1190.0</ele><time>2026-05-01T10:50:04.999Z</time></trkpt><trkpt lat="42.03967221001549" lon="13.741021891838015"><ele>1189.0</ele><time>2026-05-01T10:50:05.999Z</time></trkpt><trkpt lat="42.039768372024724" lon="13.740849277251167"><ele>1188.0</ele><time>2026-05-01T10:50:06.999Z</time></trkpt><trkpt lat="42.03987227665109" lon="13.740707070315874"><ele>1192.5</ele><time>2026-05-01T10:50:07.999Z</time></trkpt><trkpt lat="42.039991494612664" lon="13.740610284245202"><ele>1197.0</ele><time>2026-05-01T10:50:08.999Z</time></trkpt><trkpt lat="42.04012856352594" lon="13.740560177891211"><ele>1201.5</ele><time>2026-05-01T10:50:09.999Z</time></trkpt><trkpt lat="42.04027752574349" lon="13.740554264614337"><ele>1206.0</ele><time>2026-05-01T10:50:10.999Z</time></trkpt><trkpt lat="42.0404244857612" lon="13.740550547219474"><ele>1206.0</ele><time>2026-05-01T10:50:11.999Z</time></trkpt><trkpt lat="42.040563503439465" lon="13.74050170589615"><ele>1206.0</ele><time>2026-05-01T10:50:12.999Z</time></trkpt><trkpt lat="42.04068601998019" lon="13.74040347965364"><ele>1206.0</ele><time>2026-05-01T10:50:13.999Z</time></trkpt><trkpt lat="42.04078809101753" lon="13.740267326033718"><ele>1206.0</ele><time>2026-05-01T10:50:14.999Z</time></trkpt><trkpt lat="42.04088235277697" lon="13.740114411607477"><ele>1206.25</ele><time>2026-05-01T10:50:15.999Z</time></trkpt><trkpt lat="42.04097878367208" lon="13.739962551488004"><ele>1206.5</ele><time>2026-05-01T10:50:16.999Z</time></trkpt><trkpt lat="42.041082509220054" lon="13.739813269442216"><ele>1206.75</ele><time>2026-05-01T10:50:17.999Z</time></trkpt><trkpt lat="42.0411970119594" lon="13.739685660572354"><ele>1207.0</ele><time>2026-05-01T10:50:18.999Z</time></trkpt><trkpt lat="42.04132899465384" lon="13.739596684448895"><ele>1207.0</ele><time>2026-05-01T10:50:19.999Z</time></trkpt><trkpt lat="42.04147495774909" lon="13.73957255614606"><ele>1207.0</ele><time>2026-05-01T10:50:20.999Z</time></trkpt><trkpt lat="42.04162415223867" lon="13.739611528902227"><ele>1207.0</ele><time>2026-05-01T10:50:21.999Z</time></trkpt><trkpt lat="42.04177098268863" lon="13.739689954211148"><ele>1210.3333333333333</ele><time>2026-05-01T10:50:22.999Z</time></trkpt><trkpt lat="42.04191895135628" lon="13.73978652331998"><ele>1213.6666666666667</ele><time>2026-05-01T10:50:23.999Z</time></trkpt><trkpt lat="42.042075307887586" lon="13.739867780955512"><ele>1217.0</ele><time>2026-05-01T10:50:24.999Z</time></trkpt><trkpt lat="42.04224282264406" lon="13.739924078174209"><ele>1217.0</ele><time>2026-05-01T10:50:25.999Z</time></trkpt><trkpt lat="42.04242033556562" lon="13.739950118591306"><ele>1217.0</ele><time>2026-05-01T10:50:26.999Z</time></trkpt><trkpt lat="42.04260015571771" lon="13.739942972986285"><ele>1217.0</ele><time>2026-05-01T10:50:27.999Z</time></trkpt><trkpt lat="42.04277770992919" lon="13.739893775091783"><ele>1218.0</ele><time>2026-05-01T10:50:28.999Z</time></trkpt><trkpt lat="42.04295059303718" lon="13.739826892715609"><ele>1219.0</ele><time>2026-05-01T10:50:29.999Z</time></trkpt><trkpt lat="42.04312778328673" lon="13.739790203776344"><ele>1220.0</ele><time>2026-05-01T10:50:30.999Z</time></trkpt><trkpt lat="42.04330991134186" lon="13.739800306390485"><ele>1220.6666666666667</ele><time>2026-05-01T10:50:31.999Z</time></trkpt><trkpt lat="42.0434841051902" lon="13.739877868641251"><ele>1221.3333333333333</ele><time>2026-05-01T10:50:32.999Z</time></trkpt><trkpt lat="42.04366241659279" lon="13.739952210813382"><ele>1222.0</ele><time>2026-05-01T10:50:33.999Z</time></trkpt><trkpt lat="42.04383322896245" lon="13.740066631800453"><ele>1222.0</ele><time>2026-05-01T10:50:34.999Z</time></trkpt><trkpt lat="42.04401134657378" lon="13.740167823959332"><ele>1222.0</ele><time>2026-05-01T10:50:35.999Z</time></trkpt><trkpt lat="42.04419661977272" lon="13.740231697307472"><ele>1222.0</ele><time>2026-05-01T10:50:36.999Z</time></trkpt><trkpt lat="42.04439102033618" lon="13.740258596433865"><ele>1220.3333333333333</ele><time>2026-05-01T10:50:37.999Z</time></trkpt><trkpt lat="42.04458573068765" lon="13.74025495901466"><ele>1218.6666666666667</ele><time>2026-05-01T10:50:38.999Z</time></trkpt><trkpt lat="42.04478208672622" lon="13.740229074856954"><ele>1217.0</ele><time>2026-05-01T10:50:39.999Z</time></trkpt><trkpt lat="42.04497645332805" lon="13.74020071231853"><ele>1217.0</ele><time>2026-05-01T10:50:40.999Z</time></trkpt><trkpt lat="42.04516772116424" lon="13.740179181236838"><ele>1217.0</ele><time>2026-05-01T10:50:41.999Z</time></trkpt><trkpt lat="42.045351341223274" lon="13.740174087611136"><ele>1217.0</ele><time>2026-05-01T10:50:42.999Z</time></trkpt><trkpt lat="42.045522426508846" lon="13.740197128667829"><ele>1222.25</ele><time>2026-05-01T10:50:43.999Z</time></trkpt><trkpt lat="42.04567904189652" lon="13.740247230970407"><ele>1227.5</ele><time>2026-05-01T10:50:44.999Z</time></trkpt><trkpt lat="42.04582223860485" lon="13.740314890765918"><ele>1232.75</ele><time>2026-05-01T10:50:45.999Z</time></trkpt><trkpt lat="42.04593998134932" lon="13.740408368763719"><ele>1238.0</ele><time>2026-05-01T10:50:46.999Z</time></trkpt><trkpt lat="42.04598970299564" lon="13.740526160840323"><ele>1238.75</ele><time>2026-05-01T10:50:47.999Z</time></trkpt><trkpt lat="42.04604034547069" lon="13.740642664891602"><ele>1239.5</ele><time>2026-05-01T10:50:48.999Z</time></trkpt><trkpt lat="42.046107876167355" lon="13.74077622524933"><ele>1240.25</ele><time>2026-05-01T10:50:49.999Z</time></trkpt><trkpt lat="42.046167170797894" lon="13.74093528790239"><ele>1241.0</ele><time>2026-05-01T10:50:50.999Z</time></trkpt><trkpt lat="42.04623690158317" lon="13.741104969258988"><ele>1246.6666666666667</ele><time>2026-05-01T10:50:51.999Z</time></trkpt><trkpt lat="42.04631191033167" lon="13.741275724812168"><ele>1252.3333333333333</ele><time>2026-05-01T10:50:52.999Z</time></trkpt><trkpt lat="42.0463907499995" lon="13.741452038507697"><ele>1258.0</ele><time>2026-05-01T10:50:53.999Z</time></trkpt><trkpt lat="42.04647727399993" lon="13.741624614013974"><ele>1258.0</ele><time>2026-05-01T10:50:54.999Z</time></trkpt><trkpt lat="42.04655039320986" lon="13.741822983131351"><ele>1258.0</ele><time>2026-05-01T10:50:56.062Z</time></trkpt><trkpt lat="42.04662635131787" lon="13.74200051400204"><ele>1258.0</ele><time>2026-05-01T10:50:57.061Z</time></trkpt><trkpt lat="42.04669907397191" lon="13.742179225685971"><ele>1257.25</ele><time>2026-05-01T10:50:58.063Z</time></trkpt><trkpt lat="42.04676633949933" lon="13.742348887808408"><ele>1256.5</ele><time>2026-05-01T10:50:59.052Z</time></trkpt><trkpt lat="42.04681846866592" lon="13.742491906382176"><ele>1255.75</ele><time>2026-05-01T10:51:00.036Z</time></trkpt><trkpt lat="42.04691188515663" lon="13.742681354732332"><ele>1255.0</ele><time>2026-05-01T10:51:01.032Z</time></trkpt><trkpt lat="42.046963047432165" lon="13.742799658456924"><ele>1215.0</ele><time>2026-05-01T10:51:02.027Z</time></trkpt><trkpt lat="42.04745662088368" lon="13.743757960611083"><ele>1213.6666666666667</ele><time>2026-05-01T10:51:04.999Z</time></trkpt><trkpt lat="42.047541402832444" lon="13.743958991014843"><ele>1212.3333333333335</ele><time>2026-05-01T10:51:05.999Z</time></trkpt><trkpt lat="42.04761520453259" lon="13.744180578006453"><ele>1211.0</ele><time>2026-05-01T10:51:06.999Z</time></trkpt><trkpt lat="42.04764101012927" lon="13.744381023489622"><ele>1209.0</ele><time>2026-05-01T10:51:07.999Z</time></trkpt><trkpt lat="42.047655661143644" lon="13.744548465664241"><ele>1207.0</ele><time>2026-05-01T10:51:08.999Z</time></trkpt><trkpt lat="42.04762692924469" lon="13.744752095758258"><ele>1205.0</ele><time>2026-05-01T10:51:09.999Z</time></trkpt><trkpt lat="42.047594466396774" lon="13.744961491126684"><ele>1203.0</ele><time>2026-05-01T10:51:10.999Z</time></trkpt><trkpt lat="42.04755607957311" lon="13.745186371840074"><ele>1202.6666666666667</ele><time>2026-05-01T10:51:11.998Z</time></trkpt><trkpt lat="42.04751860683727" lon="13.745417635503431"><ele>1202.3333333333335</ele><time>2026-05-01T10:51:12.998Z</time></trkpt><trkpt lat="42.04747671932979" lon="13.745640459458977"><ele>1202.0</ele><time>2026-05-01T10:51:13.998Z</time></trkpt><trkpt lat="42.04742222470605" lon="13.745848543871896"><ele>1200.6666666666667</ele><time>2026-05-01T10:51:14.998Z</time></trkpt><trkpt lat="42.04733577966341" lon="13.746037077430898"><ele>1199.3333333333333</ele><time>2026-05-01T10:51:15.998Z</time></trkpt><trkpt lat="42.04726044851301" lon="13.746223710314474"><ele>1198.0</ele><time>2026-05-01T10:51:16.998Z</time></trkpt><trkpt lat="42.047164392747014" lon="13.746379050086233"><ele>1200.6666666666665</ele><time>2026-05-01T10:51:17.998Z</time></trkpt><trkpt lat="42.04710260477323" lon="13.746578195730752"><ele>1203.3333333333333</ele><time>2026-05-01T10:51:18.998Z</time></trkpt><trkpt lat="42.0470752899603" lon="13.746798660944911"><ele>1206.0</ele><time>2026-05-01T10:51:19.998Z</time></trkpt><trkpt lat="42.04708067452869" lon="13.747027027027881"><ele>1207.3333333333333</ele><time>2026-05-01T10:51:20.998Z</time></trkpt><trkpt lat="42.0470731533435" lon="13.747258641735366"><ele>1208.6666666666665</ele><time>2026-05-01T10:51:21.998Z</time></trkpt><trkpt lat="42.047060994361445" lon="13.747492714684618"><ele>1210.0</ele><time>2026-05-01T10:51:22.998Z</time></trkpt><trkpt lat="42.047038885547096" lon="13.747728579832504"><ele>1210.3333333333333</ele><time>2026-05-01T10:51:23.998Z</time></trkpt><trkpt lat="42.046996671052014" lon="13.747957582037984"><ele>1210.6666666666667</ele><time>2026-05-01T10:51:24.998Z</time></trkpt><trkpt lat="42.04694524128001" lon="13.74818162678522"><ele>1211.0</ele><time>2026-05-01T10:51:25.998Z</time></trkpt><trkpt lat="42.04691484160146" lon="13.74840197410065"><ele>1209.75</ele><time>2026-05-01T10:51:26.998Z</time></trkpt><trkpt lat="42.04690704923755" lon="13.748615502331466"><ele>1208.5</ele><time>2026-05-01T10:51:27.998Z</time></trkpt><trkpt lat="42.046920645507186" lon="13.748805478510294"><ele>1207.25</ele><time>2026-05-01T10:51:28.998Z</time></trkpt><trkpt lat="42.046972618546604" lon="13.748964478866483"><ele>1206.0</ele><time>2026-05-01T10:51:29.998Z</time></trkpt><trkpt lat="42.0470680921752" lon="13.74908650983266"><ele>1206.0</ele><time>2026-05-01T10:51:30.998Z</time></trkpt><trkpt lat="42.04719959313351" lon="13.749162472905198"><ele>1206.0</ele><time>2026-05-01T10:51:31.998Z</time></trkpt><trkpt lat="42.047355534431354" lon="13.749188998951716"><ele>1206.0</ele><time>2026-05-01T10:51:32.998Z</time></trkpt><trkpt lat="42.04752009971773" lon="13.749190918927104"><ele>1201.0</ele><time>2026-05-01T10:51:33.998Z</time></trkpt><trkpt lat="42.04768487619083" lon="13.74919535333136"><ele>1196.0</ele><time>2026-05-01T10:51:34.998Z</time></trkpt><trkpt lat="42.04784473006331" lon="13.74919103874308"><ele>1191.0</ele><time>2026-05-01T10:51:35.998Z</time></trkpt><trkpt lat="42.04799776888343" lon="13.74916152940224"><ele>1191.0</ele><time>2026-05-01T10:51:36.998Z</time></trkpt><trkpt lat="42.04814542398187" lon="13.74912187504261"><ele>1191.0</ele><time>2026-05-01T10:51:37.998Z</time></trkpt><trkpt lat="42.0482861298042" lon="13.749088570853429"><ele>1191.0</ele><time>2026-05-01T10:51:38.998Z</time></trkpt><trkpt lat="42.04842057142008" lon="13.749054764902725"><ele>1191.0</ele><time>2026-05-01T10:51:39.998Z</time></trkpt><trkpt lat="42.04854948901462" lon="13.749013273378171"><ele>1189.5</ele><time>2026-05-01T10:51:40.998Z</time></trkpt><trkpt lat="42.048669939473214" lon="13.748958105229311"><ele>1188.0</ele><time>2026-05-01T10:51:41.998Z</time></trkpt><trkpt lat="42.04878227515024" lon="13.748889365102473"><ele>1186.5</ele><time>2026-05-01T10:51:42.998Z</time></trkpt><trkpt lat="42.04888881029169" lon="13.748826167436075"><ele>1185.0</ele><time>2026-05-01T10:51:43.998Z</time></trkpt><trkpt lat="42.048996263988485" lon="13.748790084011024"><ele>1185.0</ele><time>2026-05-01T10:51:44.998Z</time></trkpt><trkpt lat="42.04910459795498" lon="13.748798952277484"><ele>1185.0</ele><time>2026-05-01T10:51:45.998Z</time></trkpt><trkpt lat="42.0492031648265" lon="13.748857229914405"><ele>1185.0</ele><time>2026-05-01T10:51:46.998Z</time></trkpt><trkpt lat="42.049270727836685" lon="13.74897888032055"><ele>1185.0</ele><time>2026-05-01T10:51:47.998Z</time></trkpt><trkpt lat="42.04929249588206" lon="13.74912039509197"><ele>1185.0</ele><time>2026-05-01T10:51:48.998Z</time></trkpt><trkpt lat="42.04928257183884" lon="13.749252113563488"><ele>1182.5</ele><time>2026-05-01T10:51:49.998Z</time></trkpt><trkpt lat="42.049232589884085" lon="13.749378665982201"><ele>1180.0</ele><time>2026-05-01T10:51:50.998Z</time></trkpt><trkpt lat="42.04913805331307" lon="13.749466690020304"><ele>1177.5</ele><time>2026-05-01T10:51:51.998Z</time></trkpt><trkpt lat="42.04904049784709" lon="13.749580055607398"><ele>1175.0</ele><time>2026-05-01T10:51:52.998Z</time></trkpt><trkpt lat="42.048917929701375" lon="13.749671086191716"><ele>1175.0</ele><time>2026-05-01T10:51:53.998Z</time></trkpt><trkpt lat="42.048790686658734" lon="13.749763609549458"><ele>1175.0</ele><time>2026-05-01T10:51:54.998Z</time></trkpt><trkpt lat="42.04863902357261" lon="13.749802782694161"><ele>1175.0</ele><time>2026-05-01T10:51:55.998Z</time></trkpt><trkpt lat="42.048484578572875" lon="13.749876167304095"><ele>1175.0</ele><time>2026-05-01T10:51:56.998Z</time></trkpt><trkpt lat="42.04832979394894" lon="13.749950435858873"><ele>1175.0</ele><time>2026-05-01T10:51:57.998Z</time></trkpt><trkpt lat="42.04818612641484" lon="13.750062890284797"><ele>1175.0</ele><time>2026-05-01T10:51:58.998Z</time></trkpt><trkpt lat="42.04806114131672" lon="13.750204079032809"><ele>1174.3333333333335</ele><time>2026-05-01T10:51:59.998Z</time></trkpt><trkpt lat="42.04793828080778" lon="13.750348581945783"><ele>1173.6666666666667</ele><time>2026-05-01T10:52:00.998Z</time></trkpt><trkpt lat="42.04784901071265" lon="13.750532363903352"><ele>1173.0</ele><time>2026-05-01T10:52:01.998Z</time></trkpt><trkpt lat="42.047772623219295" lon="13.75071798799657"><ele>1173.0</ele><time>2026-05-01T10:52:02.998Z</time></trkpt><trkpt lat="42.04771715881658" lon="13.750910280733999"><ele>1173.0</ele><time>2026-05-01T10:52:03.998Z</time></trkpt><trkpt lat="42.04764035424992" lon="13.751076290777782"><ele>1173.0</ele><time>2026-05-01T10:52:04.998Z</time></trkpt><trkpt lat="42.047562576980795" lon="13.751207637107878"><ele>1173.0</ele><time>2026-05-01T10:52:05.998Z</time></trkpt><trkpt lat="42.04747153141573" lon="13.751304878713768"><ele>1173.0</ele><time>2026-05-01T10:52:06.999Z</time></trkpt><trkpt lat="42.047365191736674" lon="13.751368191094045"><ele>1173.0</ele><time>2026-05-01T10:52:07.999Z</time></trkpt><trkpt lat="42.047255300794006" lon="13.751402429813313"><ele>1173.0</ele><time>2026-05-01T10:52:08.999Z</time></trkpt><trkpt lat="42.04714950649517" lon="13.75144208792695"><ele>1173.0</ele><time>2026-05-01T10:52:09.999Z</time></trkpt><trkpt lat="42.0470393077078" lon="13.751507693584543"><ele>1173.0</ele><time>2026-05-01T10:52:10.999Z</time></trkpt><trkpt lat="42.0469391608355" lon="13.751649761093308"><ele>1173.0</ele><time>2026-05-01T10:52:11.999Z</time></trkpt><trkpt lat="42.04686943283955" lon="13.751821649398531"><ele>1173.0</ele><time>2026-05-01T10:52:12.999Z</time></trkpt><trkpt lat="42.04676547902434" lon="13.751977248981246"><ele>1173.0</ele><time>2026-05-01T10:52:13.999Z</time></trkpt><trkpt lat="42.04663232208425" lon="13.75211751778364"><ele>1169.3333333333333</ele><time>2026-05-01T10:52:14.999Z</time></trkpt><trkpt lat="42.0464856654427" lon="13.7522296091937"><ele>1165.6666666666665</ele><time>2026-05-01T10:52:15.999Z</time></trkpt><trkpt lat="42.0463330848746" lon="13.752352680967078"><ele>1162.0</ele><time>2026-05-01T10:52:16.999Z</time></trkpt><trkpt lat="42.04618752761754" lon="13.752496216695823"><ele>1162.0</ele><time>2026-05-01T10:52:17.999Z</time></trkpt><trkpt lat="42.04602952666915" lon="13.752612046060564"><ele>1162.0</ele><time>2026-05-01T10:52:18.999Z</time></trkpt><trkpt lat="42.04588519328463" lon="13.752750873107995"><ele>1162.0</ele><time>2026-05-01T10:52:19.999Z</time></trkpt><trkpt lat="42.04572421245113" lon="13.752845267158031"><ele>1154.0</ele><time>2026-05-01T10:52:20.999Z</time></trkpt><trkpt lat="42.045550565438965" lon="13.752919167650605"><ele>1146.0</ele><time>2026-05-01T10:52:21.999Z</time></trkpt><trkpt lat="42.04535644821475" lon="13.752963933310854"><ele>1138.0</ele><time>2026-05-01T10:52:22.999Z</time></trkpt><trkpt lat="42.045156446565464" lon="13.752996911780123"><ele>1140.6666666666665</ele><time>2026-05-01T10:52:23.999Z</time></trkpt><trkpt lat="42.04495971948617" lon="13.753038773404837"><ele>1143.3333333333333</ele><time>2026-05-01T10:52:24.999Z</time></trkpt><trkpt lat="42.04476832456568" lon="13.753082776905377"><ele>1146.0</ele><time>2026-05-01T10:52:25.999Z</time></trkpt><trkpt lat="42.04457166144551" lon="13.753107224132915"><ele>1146.0</ele><time>2026-05-01T10:52:26.999Z</time></trkpt><trkpt lat="42.04438167724804" lon="13.753203601859928"><ele>1146.0</ele><time>2026-05-01T10:52:27.999Z</time></trkpt><trkpt lat="42.044203731897525" lon="13.753341077756998"><ele>1146.0</ele><time>2026-05-01T10:52:28.999Z</time></trkpt><trkpt lat="42.0440171859531" lon="13.753460171847232"><ele>1143.6666666666667</ele><time>2026-05-01T10:52:29.999Z</time></trkpt><trkpt lat="42.04383502605363" lon="13.753572966414032"><ele>1141.3333333333335</ele><time>2026-05-01T10:52:30.999Z</time></trkpt><trkpt lat="42.04365586609164" lon="13.753685245694271"><ele>1139.0</ele><time>2026-05-01T10:52:31.999Z</time></trkpt><trkpt lat="42.043513862613445" lon="13.753873326434196"><ele>1139.0</ele><time>2026-05-01T10:52:32.999Z</time></trkpt><trkpt lat="42.04337891009492" lon="13.754077248489773"><ele>1139.0</ele><time>2026-05-01T10:52:33.999Z</time></trkpt><trkpt lat="42.04325424082447" lon="13.754298493328143"><ele>1139.0</ele><time>2026-05-01T10:52:34.999Z</time></trkpt><trkpt lat="42.043126007026345" lon="13.754518488809671"><ele>1140.6666666666667</ele><time>2026-05-01T10:52:35.999Z</time></trkpt><trkpt lat="42.042997115897904" lon="13.75472669407529"><ele>1142.3333333333333</ele><time>2026-05-01T10:52:36.999Z</time></trkpt><trkpt lat="42.04287352508569" lon="13.75493248570544"><ele>1144.0</ele><time>2026-05-01T10:52:37.999Z</time></trkpt><trkpt lat="42.042765057977185" lon="13.755142184169765"><ele>1139.3333333333333</ele><time>2026-05-01T10:52:38.999Z</time></trkpt><trkpt lat="42.0426754057268" lon="13.755362281590305"><ele>1134.6666666666667</ele><time>2026-05-01T10:52:39.999Z</time></trkpt><trkpt lat="42.0425907397162" lon="13.755588231631956"><ele>1130.0</ele><time>2026-05-01T10:52:40.999Z</time></trkpt><trkpt lat="42.04249593184167" lon="13.755811450329816"><ele>1131.0</ele><time>2026-05-01T10:52:41.999Z</time></trkpt><trkpt lat="42.0423941205071" lon="13.756036550607732"><ele>1132.0</ele><time>2026-05-01T10:52:42.999Z</time></trkpt><trkpt lat="42.042293448451595" lon="13.756267859263714"><ele>1133.0</ele><time>2026-05-01T10:52:43.999Z</time></trkpt><trkpt lat="42.042195933157544" lon="13.756507631981638"><ele>1133.0</ele><time>2026-05-01T10:52:44.999Z</time></trkpt><trkpt lat="42.0421007641754" lon="13.75674598557704"><ele>1133.0</ele><time>2026-05-01T10:52:45.999Z</time></trkpt><trkpt lat="42.04200403100033" lon="13.75698075656734"><ele>1133.0</ele><time>2026-05-01T10:52:46.999Z</time></trkpt><trkpt lat="42.04190481702475" lon="13.75721961900708"><ele>1129.6666666666667</ele><time>2026-05-01T10:52:47.999Z</time></trkpt><trkpt lat="42.041801776020556" lon="13.75746204868245"><ele>1126.3333333333333</ele><time>2026-05-01T10:52:48.999Z</time></trkpt><trkpt lat="42.04169810157413" lon="13.75769481997433"><ele>1123.0</ele><time>2026-05-01T10:52:49.999Z</time></trkpt><trkpt lat="42.041598781537374" lon="13.757916891916645"><ele>1123.0</ele><time>2026-05-01T10:52:50.999Z</time></trkpt><trkpt lat="42.04149842495388" lon="13.758121754536297"><ele>1123.0</ele><time>2026-05-01T10:52:51.999Z</time></trkpt><trkpt lat="42.04138407587314" lon="13.758329493466267"><ele>1123.0</ele><time>2026-05-01T10:52:52.999Z</time></trkpt><trkpt lat="42.041234253552304" lon="13.758511469049186"><ele>1119.0</ele><time>2026-05-01T10:52:53.999Z</time></trkpt><trkpt lat="42.041095429987564" lon="13.758721259287194"><ele>1115.0</ele><time>2026-05-01T10:52:54.999Z</time></trkpt><trkpt lat="42.04094376865249" lon="13.758912255938284"><ele>1111.0</ele><time>2026-05-01T10:52:55.999Z</time></trkpt><trkpt lat="42.0407996913115" lon="13.759101085276694"><ele>1110.0</ele><time>2026-05-01T10:52:56.999Z</time></trkpt><trkpt lat="42.040669800116774" lon="13.759279829110538"><ele>1109.0</ele><time>2026-05-01T10:52:57.999Z</time></trkpt><trkpt lat="42.04054782391804" lon="13.759452127335157"><ele>1108.0</ele><time>2026-05-01T10:52:58.999Z</time></trkpt><trkpt lat="42.0404504607115" lon="13.759624335950642"><ele>1108.0</ele><time>2026-05-01T10:52:59.999Z</time></trkpt><trkpt lat="42.0403851896053" lon="13.759818087314516"><ele>1108.0</ele><time>2026-05-01T10:53:00.999Z</time></trkpt><trkpt lat="42.04036204846982" lon="13.760035287963412"><ele>1108.0</ele><time>2026-05-01T10:53:01.999Z</time></trkpt><trkpt lat="42.04037464495929" lon="13.76026391176578"><ele>1104.0</ele><time>2026-05-01T10:53:02.999Z</time></trkpt><trkpt lat="42.040421788325" lon="13.760482044004542"><ele>1100.0</ele><time>2026-05-01T10:53:03.999Z</time></trkpt><trkpt lat="42.0404889097849" lon="13.760681558524828"><ele>1096.0</ele><time>2026-05-01T10:53:04.999Z</time></trkpt><trkpt lat="42.04056520172438" lon="13.760877943717402"><ele>1092.3333333333333</ele><time>2026-05-01T10:53:05.999Z</time></trkpt><trkpt lat="42.04064317937697" lon="13.761078653664221"><ele>1088.6666666666667</ele><time>2026-05-01T10:53:06.999Z</time></trkpt><trkpt lat="42.040714509776215" lon="13.761284283151367"><ele>1085.0</ele><time>2026-05-01T10:53:07.999Z</time></trkpt><trkpt lat="42.04077815492466" lon="13.76148753624614"><ele>1088.5</ele><time>2026-05-01T10:53:08.998Z</time></trkpt><trkpt lat="42.04083882205689" lon="13.761680125367686"><ele>1092.0</ele><time>2026-05-01T10:53:09.998Z</time></trkpt><trkpt lat="42.04089681641141" lon="13.761865143266068"><ele>1095.5</ele><time>2026-05-01T10:53:10.998Z</time></trkpt><trkpt lat="42.040937218541636" lon="13.762038627152226"><ele>1099.0</ele><time>2026-05-01T10:53:11.998Z</time></trkpt><trkpt lat="42.040949410722355" lon="13.762210920323675"><ele>1099.0</ele><time>2026-05-01T10:53:12.998Z</time></trkpt><trkpt lat="42.040921595520146" lon="13.762376929283944"><ele>1099.0</ele><time>2026-05-01T10:53:13.998Z</time></trkpt><trkpt lat="42.040854071019766" lon="13.762531518367364"><ele>1099.0</ele><time>2026-05-01T10:53:14.998Z</time></trkpt><trkpt lat="42.04074675274762" lon="13.762677761921527"><ele>1099.0</ele><time>2026-05-01T10:53:15.998Z</time></trkpt><trkpt lat="42.04061357780955" lon="13.762814926998852"><ele>1094.6666666666665</ele><time>2026-05-01T10:53:16.998Z</time></trkpt><trkpt lat="42.040480573274245" lon="13.762966101626436"><ele>1090.3333333333333</ele><time>2026-05-01T10:53:17.998Z</time></trkpt><trkpt lat="42.04034587308085" lon="13.763136814827066"><ele>1086.0</ele><time>2026-05-01T10:53:18.998Z</time></trkpt><trkpt lat="42.04021019712306" lon="13.763313527888668"><ele>1086.0</ele><time>2026-05-01T10:53:19.998Z</time></trkpt><trkpt lat="42.04006878925751" lon="13.763492807429587"><ele>1086.0</ele><time>2026-05-01T10:53:20.998Z</time></trkpt><trkpt lat="42.03991922085243" lon="13.763670456661663"><ele>1086.0</ele><time>2026-05-01T10:53:21.998Z</time></trkpt><trkpt lat="42.03976452460736" lon="13.763849067028012"><ele>1083.3333333333333</ele><time>2026-05-01T10:53:22.998Z</time></trkpt><trkpt lat="42.03961001496978" lon="13.764037396241614"><ele>1080.6666666666665</ele><time>2026-05-01T10:53:23.998Z</time></trkpt><trkpt lat="42.03945344851131" lon="13.764226773366019"><ele>1078.0</ele><time>2026-05-01T10:53:24.998Z</time></trkpt><trkpt lat="42.039290010929435" lon="13.764404349056585"><ele>1075.0</ele><time>2026-05-01T10:53:25.998Z</time></trkpt><trkpt lat="42.039124726103026" lon="13.764575885237406"><ele>1072.0</ele><time>2026-05-01T10:53:26.998Z</time></trkpt><trkpt lat="42.03896658745255" lon="13.764748476702437"><ele>1069.0</ele><time>2026-05-01T10:53:27.998Z</time></trkpt><trkpt lat="42.03881872208696" lon="13.764940641056503"><ele>1069.0</ele><time>2026-05-01T10:53:28.998Z</time></trkpt><trkpt lat="42.03868759739412" lon="13.765151393768926"><ele>1069.0</ele><time>2026-05-01T10:53:29.998Z</time></trkpt><trkpt lat="42.03856785134593" lon="13.76538054329311"><ele>1069.0</ele><time>2026-05-01T10:53:30.998Z</time></trkpt><trkpt lat="42.03846103255425" lon="13.765625147824561"><ele>1066.0</ele><time>2026-05-01T10:53:31.998Z</time></trkpt><trkpt lat="42.0383594913362" lon="13.7658744612871"><ele>1063.0</ele><time>2026-05-01T10:53:32.998Z</time></trkpt><trkpt lat="42.038239522159564" lon="13.766107403197543"><ele>1060.0</ele><time>2026-05-01T10:53:33.998Z</time></trkpt><trkpt lat="42.03810904977368" lon="13.766333859066076"><ele>1060.0</ele><time>2026-05-01T10:53:34.998Z</time></trkpt><trkpt lat="42.037979113572845" lon="13.766560106229534"><ele>1060.0</ele><time>2026-05-01T10:53:35.998Z</time></trkpt><trkpt lat="42.037852989683486" lon="13.766783795238249"><ele>1060.0</ele><time>2026-05-01T10:53:36.998Z</time></trkpt><trkpt lat="42.03772230927143" lon="13.766997035713986"><ele>1066.0</ele><time>2026-05-01T10:53:37.998Z</time></trkpt><trkpt lat="42.03757806000011" lon="13.767183357674543"><ele>1072.0</ele><time>2026-05-01T10:53:38.998Z</time></trkpt><trkpt lat="42.037427089027275" lon="13.767347718042165"><ele>1078.0</ele><time>2026-05-01T10:53:39.998Z</time></trkpt><trkpt lat="42.03728578889346" lon="13.767497161364656"><ele>1065.6666666666665</ele><time>2026-05-01T10:53:40.998Z</time></trkpt><trkpt lat="42.037170822635765" lon="13.767653280726714"><ele>1053.3333333333333</ele><time>2026-05-01T10:53:41.998Z</time></trkpt><trkpt lat="42.03709558044833" lon="13.767821265143164"><ele>1041.0</ele><time>2026-05-01T10:53:42.998Z</time></trkpt><trkpt lat="42.0370628041111" lon="13.768022736292437"><ele>1041.0</ele><time>2026-05-01T10:53:43.998Z</time></trkpt><trkpt lat="42.03706241201949" lon="13.768236360572423"><ele>1041.0</ele><time>2026-05-01T10:53:44.998Z</time></trkpt><trkpt lat="42.03704211602592" lon="13.768458278441713"><ele>1041.0</ele><time>2026-05-01T10:53:45.998Z</time></trkpt><trkpt lat="42.03698047005742" lon="13.768670890687936"><ele>1043.75</ele><time>2026-05-01T10:53:46.998Z</time></trkpt><trkpt lat="42.03690679473537" lon="13.768851140642422"><ele>1046.5</ele><time>2026-05-01T10:53:47.998Z</time></trkpt><trkpt lat="42.036848715134255" lon="13.769006165353836"><ele>1049.25</ele><time>2026-05-01T10:53:48.998Z</time></trkpt><trkpt lat="42.03680237517153" lon="13.769148470988346"><ele>1052.0</ele><time>2026-05-01T10:53:49.998Z</time></trkpt><trkpt lat="42.03676002188083" lon="13.769273397272466"><ele>1053.6</ele><time>2026-05-01T10:53:50.998Z</time></trkpt><trkpt lat="42.03672356680657" lon="13.769382718178642"><ele>1055.2</ele><time>2026-05-01T10:53:51.998Z</time></trkpt><trkpt lat="42.036693535945744" lon="13.769479308047679"><ele>1056.8</ele><time>2026-05-01T10:53:52.998Z</time></trkpt><trkpt lat="42.036671414988895" lon="13.769564447485939"><ele>1058.4</ele><time>2026-05-01T10:53:53.998Z</time></trkpt><trkpt lat="42.03663678375193" lon="13.76970914954285"><ele>1060.0</ele><time>2026-05-01T10:53:55.998Z</time></trkpt><trkpt lat="42.03660459757486" lon="13.769854665807626"><ele>1053.5</ele><time>2026-05-01T10:53:57.998Z</time></trkpt><trkpt lat="42.0365741855049" lon="13.769975738800056"><ele>1047.0</ele><time>2026-05-01T10:53:59.998Z</time></trkpt><trkpt lat="42.036542220699054" lon="13.770068462178"><ele>1040.5</ele><time>2026-05-01T10:54:01.998Z</time></trkpt><trkpt lat="42.03652055564296" lon="13.770185342281282"><ele>1034.0</ele><time>2026-05-01T10:54:04.998Z</time></trkpt><trkpt lat="42.03649929027043" lon="13.77029472840453"><ele>1027.5</ele><time>2026-05-01T10:54:07.998Z</time></trkpt><trkpt lat="42.03647704424978" lon="13.77040940411044"><ele>1021.0</ele><time>2026-05-01T10:54:10.998Z</time></trkpt><trkpt lat="42.03646368839647" lon="13.770515934092074"><ele>1021.0</ele><time>2026-05-01T10:54:12.999Z</time></trkpt><trkpt lat="42.03645117368093" lon="13.770670865765755"><ele>1020.9999999999999</ele><time>2026-05-01T10:54:14.999Z</time></trkpt><trkpt lat="42.03645306219884" lon="13.770830600375813"><ele>1020.9999999999999</ele><time>2026-05-01T10:54:16.999Z</time></trkpt><trkpt lat="42.03645126983927" lon="13.770917848156556"><ele>1021.0</ele><time>2026-05-01T10:54:17.999Z</time></trkpt><trkpt lat="42.036448512764274" lon="13.77102226425028"><ele>1021.0</ele><time>2026-05-01T10:54:18.999Z</time></trkpt><trkpt lat="42.036458276554804" lon="13.771141611267938"><ele>1020.5999999999999</ele><time>2026-05-01T10:54:19.999Z</time></trkpt><trkpt lat="42.03648234331816" lon="13.77126781726249"><ele>1020.1999999999999</ele><time>2026-05-01T10:54:20.999Z</time></trkpt><trkpt lat="42.036526761820625" lon="13.771386889336142"><ele>1019.8000000000001</ele><time>2026-05-01T10:54:21.999Z</time></trkpt><trkpt lat="42.03659143207652" lon="13.77150347460343"><ele>1019.4000000000001</ele><time>2026-05-01T10:54:22.999Z</time></trkpt><trkpt lat="42.03668575683024" lon="13.771603682042954"><ele>1019.0</ele><time>2026-05-01T10:54:23.999Z</time></trkpt><trkpt lat="42.0368055775771" lon="13.771672370686955"><ele>1027.5</ele><time>2026-05-01T10:54:24.999Z</time></trkpt><trkpt lat="42.03694237140907" lon="13.771718821598439"><ele>1036.0</ele><time>2026-05-01T10:54:25.999Z</time></trkpt><trkpt lat="42.03708876191702" lon="13.771749929903168"><ele>1044.5</ele><time>2026-05-01T10:54:26.999Z</time></trkpt><trkpt lat="42.03724223961628" lon="13.771768100949025"><ele>1053.0</ele><time>2026-05-01T10:54:27.999Z</time></trkpt><trkpt lat="42.03740031505205" lon="13.771773732882219"><ele>1054.3333333333333</ele><time>2026-05-01T10:54:28.999Z</time></trkpt><trkpt lat="42.03756401840719" lon="13.771768894411878"><ele>1055.6666666666665</ele><time>2026-05-01T10:54:29.999Z</time></trkpt><trkpt lat="42.03773351500264" lon="13.77176640382183"><ele>1057.0</ele><time>2026-05-01T10:54:30.999Z</time></trkpt><trkpt lat="42.03790615505434" lon="13.771779050789995"><ele>1057.0</ele><time>2026-05-01T10:54:31.999Z</time></trkpt><trkpt lat="42.03808183044547" lon="13.771816323494376"><ele>1057.0</ele><time>2026-05-01T10:54:32.999Z</time></trkpt><trkpt lat="42.038254145797985" lon="13.771858328062129"><ele>1057.0</ele><time>2026-05-01T10:54:33.999Z</time></trkpt><trkpt lat="42.038437252982966" lon="13.771884562596341"><ele>1042.6666666666665</ele><time>2026-05-01T10:54:34.999Z</time></trkpt><trkpt lat="42.03862642585387" lon="13.771892175296248"><ele>1028.3333333333333</ele><time>2026-05-01T10:54:35.999Z</time></trkpt><trkpt lat="42.03881885810343" lon="13.771886860589165"><ele>1014.0</ele><time>2026-05-01T10:54:36.999Z</time></trkpt><trkpt lat="42.039012099567756" lon="13.771871685125545"><ele>1014.0</ele><time>2026-05-01T10:54:37.999Z</time></trkpt><trkpt lat="42.03920794742405" lon="13.77185718801622"><ele>1014.0</ele><time>2026-05-01T10:54:38.999Z</time></trkpt><trkpt lat="42.0394051008973" lon="13.771850559279425"><ele>1014.0</ele><time>2026-05-01T10:54:39.999Z</time></trkpt><trkpt lat="42.03960631997667" lon="13.771846912625964"><ele>1013.6666666666667</ele><time>2026-05-01T10:54:40.999Z</time></trkpt><trkpt lat="42.03980954472408" lon="13.771854049971248"><ele>1013.3333333333334</ele><time>2026-05-01T10:54:41.999Z</time></trkpt><trkpt lat="42.04001531395214" lon="13.771870854105705"><ele>1013.0</ele><time>2026-05-01T10:54:42.999Z</time></trkpt><trkpt lat="42.040224303509774" lon="13.771891774761006"><ele>1013.0</ele><time>2026-05-01T10:54:43.999Z</time></trkpt><trkpt lat="42.040435381565686" lon="13.771911637164392"><ele>1013.0</ele><time>2026-05-01T10:54:44.999Z</time></trkpt><trkpt lat="42.04064966511154" lon="13.771930089195518"><ele>1013.0</ele><time>2026-05-01T10:54:45.999Z</time></trkpt><trkpt lat="42.04086513858003" lon="13.771947841981378"><ele>1011.6666666666667</ele><time>2026-05-01T10:54:46.999Z</time></trkpt><trkpt lat="42.04108142599423" lon="13.771966709771963"><ele>1010.3333333333333</ele><time>2026-05-01T10:54:47.999Z</time></trkpt><trkpt lat="42.041296070640584" lon="13.771984179192712"><ele>1009.0</ele><time>2026-05-01T10:54:48.999Z</time></trkpt><trkpt lat="42.04151147137086" lon="13.772003762045886"><ele>1009.6666666666666</ele><time>2026-05-01T10:54:49.999Z</time></trkpt><trkpt lat="42.04172667734299" lon="13.77202053253925"><ele>1010.3333333333333</ele><time>2026-05-01T10:54:50.999Z</time></trkpt><trkpt lat="42.041942680512264" lon="13.772039450741532"><ele>1011.0</ele><time>2026-05-01T10:54:51.999Z</time></trkpt><trkpt lat="42.04215956112224" lon="13.772062133662965"><ele>1011.0</ele><time>2026-05-01T10:54:52.999Z</time></trkpt><trkpt lat="42.042373431194626" lon="13.772084101102335"><ele>1011.0</ele><time>2026-05-01T10:54:53.999Z</time></trkpt><trkpt lat="42.042582165186346" lon="13.772105199217014"><ele>1011.0</ele><time>2026-05-01T10:54:54.999Z</time></trkpt><trkpt lat="42.04279019907885" lon="13.77212345953025"><ele>1010.6666666666667</ele><time>2026-05-01T10:54:55.999Z</time></trkpt><trkpt lat="42.0430001759668" lon="13.772145778443912"><ele>1010.3333333333334</ele><time>2026-05-01T10:54:56.999Z</time></trkpt><trkpt lat="42.04321204627577" lon="13.77216693335"><ele>1010.0</ele><time>2026-05-01T10:54:57.999Z</time></trkpt><trkpt lat="42.04342395336225" lon="13.77217915536717"><ele>1009.3333333333334</ele><time>2026-05-01T10:54:58.999Z</time></trkpt><trkpt lat="42.04363417575523" lon="13.772163712114319"><ele>1008.6666666666667</ele><time>2026-05-01T10:54:59.999Z</time></trkpt><trkpt lat="42.04384059866628" lon="13.772132256811062"><ele>1008.0</ele><time>2026-05-01T10:55:00.999Z</time></trkpt><trkpt lat="42.04403974235588" lon="13.772107322137256"><ele>1006.3333333333333</ele><time>2026-05-01T10:55:01.999Z</time></trkpt><trkpt lat="42.04422902318597" lon="13.772106286682606"><ele>1004.6666666666666</ele><time>2026-05-01T10:55:02.999Z</time></trkpt><trkpt lat="42.0444158054929" lon="13.772118028637504"><ele>1003.0</ele><time>2026-05-01T10:55:03.999Z</time></trkpt><trkpt lat="42.04459629006569" lon="13.772163152312595"><ele>1003.0</ele><time>2026-05-01T10:55:04.999Z</time></trkpt><trkpt lat="42.044763282004155" lon="13.77222719471964"><ele>1003.0</ele><time>2026-05-01T10:55:05.999Z</time></trkpt><trkpt lat="42.044905020668146" lon="13.7722887180827"><ele>1003.0</ele><time>2026-05-01T10:55:06.999Z</time></trkpt><trkpt lat="42.045024580633246" lon="13.772338093762068"><ele>1003.0</ele><time>2026-05-01T10:55:07.999Z</time></trkpt><trkpt lat="42.04512992188412" lon="13.772399909697246"><ele>1004.4</ele><time>2026-05-01T10:55:08.999Z</time></trkpt><trkpt lat="42.04523833991095" lon="13.772448558000248"><ele>1005.8</ele><time>2026-05-01T10:55:09.999Z</time></trkpt><trkpt lat="42.04534514886098" lon="13.772500906539074"><ele>1007.2</ele><time>2026-05-01T10:55:10.999Z</time></trkpt><trkpt lat="42.0454461954685" lon="13.772565735769753"><ele>1008.6</ele><time>2026-05-01T10:55:11.999Z</time></trkpt><trkpt lat="42.04553006884514" lon="13.772634641027645"><ele>1010.0</ele><time>2026-05-01T10:55:12.999Z</time></trkpt><trkpt lat="42.0456057000739" lon="13.772713585650614"><ele>1008.8333333333334</ele><time>2026-05-01T10:55:13.999Z</time></trkpt><trkpt lat="42.04567378350064" lon="13.772796858509707"><ele>1007.6666666666667</ele><time>2026-05-01T10:55:14.999Z</time></trkpt><trkpt lat="42.045740997873075" lon="13.772858930801803"><ele>1006.5</ele><time>2026-05-01T10:55:15.999Z</time></trkpt><trkpt lat="42.04581021332648" lon="13.77297211743569"><ele>1005.3333333333333</ele><time>2026-05-01T10:55:17.999Z</time></trkpt><trkpt lat="42.04585401096379" lon="13.773041125856016"><ele>1004.1666666666666</ele><time>2026-05-01T10:55:19.999Z</time></trkpt><trkpt lat="42.04589780087373" lon="13.773110740692957"><ele>1003.0</ele><time>2026-05-01T10:55:25.998Z</time></trkpt><trkpt lat="42.045931083253365" lon="13.773212769304811"><ele>1003.0</ele><time>2026-05-01T10:55:27.998Z</time></trkpt><trkpt lat="42.045971496267065" lon="13.773306780179896"><ele>1003.0</ele><time>2026-05-01T10:55:28.998Z</time></trkpt><trkpt lat="42.04600368287443" lon="13.773417362299456"><ele>1003.0</ele><time>2026-05-01T10:55:29.998Z</time></trkpt><trkpt lat="42.046061857299584" lon="13.773548124461652"><ele>1003.0</ele><time>2026-05-01T10:55:30.998Z</time></trkpt><trkpt lat="42.0461163770982" lon="13.773684885266823"><ele>1003.0</ele><time>2026-05-01T10:55:31.998Z</time></trkpt><trkpt lat="42.04617244407991" lon="13.773838609375009"><ele>999.0</ele><time>2026-05-01T10:55:32.998Z</time></trkpt><trkpt lat="42.04624100364002" lon="13.773993499206666"><ele>995.0</ele><time>2026-05-01T10:55:33.998Z</time></trkpt><trkpt lat="42.046330400500615" lon="13.774142380827499"><ele>991.0</ele><time>2026-05-01T10:55:34.998Z</time></trkpt><trkpt lat="42.04644328051724" lon="13.774281203079056"><ele>987.0</ele><time>2026-05-01T10:55:35.998Z</time></trkpt><trkpt lat="42.04655923399049" lon="13.774429348336172"><ele>987.0</ele><time>2026-05-01T10:55:36.998Z</time></trkpt><trkpt lat="42.04667242856088" lon="13.774583555509492"><ele>987.0</ele><time>2026-05-01T10:55:37.998Z</time></trkpt><trkpt lat="42.046779547760494" lon="13.774739336089006"><ele>987.0</ele><time>2026-05-01T10:55:38.998Z</time></trkpt><trkpt lat="42.046884355963485" lon="13.774882921315887"><ele>987.0</ele><time>2026-05-01T10:55:39.998Z</time></trkpt><trkpt lat="42.046991020875495" lon="13.775014423090234"><ele>987.0</ele><time>2026-05-01T10:55:40.998Z</time></trkpt><trkpt lat="42.04709595196477" lon="13.775135447278537"><ele>987.0</ele><time>2026-05-01T10:55:41.998Z</time></trkpt><trkpt lat="42.04720823844852" lon="13.775253439557302"><ele>987.0</ele><time>2026-05-01T10:55:42.998Z</time></trkpt><trkpt lat="42.047327910470635" lon="13.775368012713656"><ele>986.75</ele><time>2026-05-01T10:55:43.998Z</time></trkpt><trkpt lat="42.04744662885104" lon="13.775486934403803"><ele>986.5</ele><time>2026-05-01T10:55:44.998Z</time></trkpt><trkpt lat="42.0475644691524" lon="13.775606840491427"><ele>986.25</ele><time>2026-05-01T10:55:45.998Z</time></trkpt><trkpt lat="42.04767358135526" lon="13.775730195751112"><ele>986.0</ele><time>2026-05-01T10:55:46.998Z</time></trkpt><trkpt lat="42.04777740462448" lon="13.775847916354325"><ele>986.0</ele><time>2026-05-01T10:55:47.998Z</time></trkpt><trkpt lat="42.047883706759926" lon="13.775937378820114"><ele>985.9999999999999</ele><time>2026-05-01T10:55:48.998Z</time></trkpt><trkpt lat="42.04798239177633" lon="13.776007773052577"><ele>985.9999999999999</ele><time>2026-05-01T10:55:49.998Z</time></trkpt><trkpt lat="42.048063636389834" lon="13.776103176339001"><ele>986.0</ele><time>2026-05-01T10:55:50.998Z</time></trkpt><trkpt lat="42.048122309921084" lon="13.776219457492754"><ele>986.0</ele><time>2026-05-01T10:55:51.998Z</time></trkpt><trkpt lat="42.04815075682518" lon="13.776354085662616"><ele>986.5999999999999</ele><time>2026-05-01T10:55:52.998Z</time></trkpt><trkpt lat="42.04815440149908" lon="13.77649840603294"><ele>987.1999999999999</ele><time>2026-05-01T10:55:53.998Z</time></trkpt><trkpt lat="42.04814286593921" lon="13.776630705379931"><ele>987.8000000000001</ele><time>2026-05-01T10:55:54.998Z</time></trkpt><trkpt lat="42.04810457180166" lon="13.776744586580906"><ele>988.4000000000001</ele><time>2026-05-01T10:55:55.998Z</time></trkpt><trkpt lat="42.04804563919413" lon="13.776828897447913"><ele>989.0</ele><time>2026-05-01T10:55:56.998Z</time></trkpt><trkpt lat="42.04795744188333" lon="13.776899060356255"><ele>989.0</ele><time>2026-05-01T10:55:57.998Z</time></trkpt><trkpt lat="42.047850797131815" lon="13.776961950528491"><ele>989.0</ele><time>2026-05-01T10:55:58.998Z</time></trkpt><trkpt lat="42.04773745122799" lon="13.777028186426636"><ele>989.0</ele><time>2026-05-01T10:55:59.998Z</time></trkpt><trkpt lat="42.04761887791459" lon="13.777104406905998"><ele>989.0</ele><time>2026-05-01T10:56:00.998Z</time></trkpt><trkpt lat="42.04749872276725" lon="13.7771906755388"><ele>986.75</ele><time>2026-05-01T10:56:01.998Z</time></trkpt><trkpt lat="42.04738515132595" lon="13.777288191958634"><ele>984.5</ele><time>2026-05-01T10:56:02.998Z</time></trkpt><trkpt lat="42.04726628093562" lon="13.777412329272018"><ele>982.25</ele><time>2026-05-01T10:56:03.998Z</time></trkpt><trkpt lat="42.047152845019106" lon="13.777548480149926"><ele>980.0</ele><time>2026-05-01T10:56:04.998Z</time></trkpt><trkpt lat="42.047039507127586" lon="13.777695410489883"><ele>980.0</ele><time>2026-05-01T10:56:05.998Z</time></trkpt><trkpt lat="42.04692093035053" lon="13.777846717723182"><ele>980.0</ele><time>2026-05-01T10:56:06.998Z</time></trkpt><trkpt lat="42.04680406102732" lon="13.777997688165073"><ele>980.0</ele><time>2026-05-01T10:56:07.998Z</time></trkpt><trkpt lat="42.04669896671559" lon="13.778146175804125"><ele>977.0</ele><time>2026-05-01T10:56:08.998Z</time></trkpt><trkpt lat="42.04660000899884" lon="13.778292333916486"><ele>974.0</ele><time>2026-05-01T10:56:09.998Z</time></trkpt><trkpt lat="42.04650688233857" lon="13.778437386081734"><ele>971.0</ele><time>2026-05-01T10:56:10.998Z</time></trkpt><trkpt lat="42.04642498348708" lon="13.778581835173872"><ele>968.0</ele><time>2026-05-01T10:56:11.998Z</time></trkpt><trkpt lat="42.0463375666809" lon="13.778705157547977"><ele>968.0</ele><time>2026-05-01T10:56:12.998Z</time></trkpt><trkpt lat="42.046243632324696" lon="13.778814436773093"><ele>968.0</ele><time>2026-05-01T10:56:13.998Z</time></trkpt><trkpt lat="42.04613999749562" lon="13.778916506114019"><ele>968.0</ele><time>2026-05-01T10:56:14.998Z</time></trkpt><trkpt lat="42.04603090110567" lon="13.779025659103189"><ele>968.0</ele><time>2026-05-01T10:56:15.998Z</time></trkpt><trkpt lat="42.0459194711753" lon="13.779144517415334"><ele>968.0</ele><time>2026-05-01T10:56:16.998Z</time></trkpt><trkpt lat="42.045809662690644" lon="13.779278718106458"><ele>968.0</ele><time>2026-05-01T10:56:17.999Z</time></trkpt><trkpt lat="42.04570371888813" lon="13.77942836961229"><ele>968.0</ele><time>2026-05-01T10:56:18.999Z</time></trkpt><trkpt lat="42.04559372568581" lon="13.779582233957433"><ele>964.0</ele><time>2026-05-01T10:56:19.999Z</time></trkpt><trkpt lat="42.04548150415575" lon="13.779736753929862"><ele>960.0</ele><time>2026-05-01T10:56:20.999Z</time></trkpt><trkpt lat="42.04536675088368" lon="13.77989283447978"><ele>956.0</ele><time>2026-05-01T10:56:21.999Z</time></trkpt><trkpt lat="42.04525493184905" lon="13.780046590156433"><ele>953.25</ele><time>2026-05-01T10:56:22.999Z</time></trkpt><trkpt lat="42.045150936325946" lon="13.78019280506061"><ele>950.5</ele><time>2026-05-01T10:56:23.999Z</time></trkpt><trkpt lat="42.04505193369361" lon="13.78032987063278"><ele>947.75</ele><time>2026-05-01T10:56:24.999Z</time></trkpt><trkpt lat="42.04495728339947" lon="13.780456304416296"><ele>945.0</ele><time>2026-05-01T10:56:25.999Z</time></trkpt><trkpt lat="42.04486975814481" lon="13.780574082485794"><ele>945.0</ele><time>2026-05-01T10:56:26.999Z</time></trkpt><trkpt lat="42.04478162978773" lon="13.780682293351928"><ele>945.0</ele><time>2026-05-01T10:56:27.999Z</time></trkpt><trkpt lat="42.044687058666355" lon="13.780785599227784"><ele>945.0</ele><time>2026-05-01T10:56:28.999Z</time></trkpt><trkpt lat="42.04458655501103" lon="13.780884422343815"><ele>945.0</ele><time>2026-05-01T10:56:29.999Z</time></trkpt><trkpt lat="42.04447819875887" lon="13.780990917754151"><ele>944.5</ele><time>2026-05-01T10:56:30.999Z</time></trkpt><trkpt lat="42.0443685238488" lon="13.781110915256047"><ele>944.0</ele><time>2026-05-01T10:56:31.999Z</time></trkpt><trkpt lat="42.04425852141839" lon="13.781243610164982"><ele>943.5</ele><time>2026-05-01T10:56:32.999Z</time></trkpt><trkpt lat="42.04414710267038" lon="13.781379308582732"><ele>943.0</ele><time>2026-05-01T10:56:33.999Z</time></trkpt><trkpt lat="42.04403492912563" lon="13.781515532121517"><ele>943.0</ele><time>2026-05-01T10:56:34.999Z</time></trkpt><trkpt lat="42.04391942102053" lon="13.781645368102131"><ele>943.0</ele><time>2026-05-01T10:56:35.999Z</time></trkpt><trkpt lat="42.04380183751277" lon="13.781757948817807"><ele>943.0</ele><time>2026-05-01T10:56:36.999Z</time></trkpt><trkpt lat="42.043683237625" lon="13.781851857085524"><ele>943.0</ele><time>2026-05-01T10:56:37.999Z</time></trkpt><trkpt lat="42.04355782699017" lon="13.781926187414998"><ele>949.5</ele><time>2026-05-01T10:56:38.999Z</time></trkpt><trkpt lat="42.04342444459744" lon="13.781980891536108"><ele>956.0</ele><time>2026-05-01T10:56:39.999Z</time></trkpt><trkpt lat="42.04329011787605" lon="13.782026645453904"><ele>962.5</ele><time>2026-05-01T10:56:40.999Z</time></trkpt><trkpt lat="42.04316132808478" lon="13.782071415570295"><ele>969.0</ele><time>2026-05-01T10:56:41.999Z</time></trkpt><trkpt lat="42.04304785305148" lon="13.782099321128106"><ele>969.0</ele><time>2026-05-01T10:56:42.999Z</time></trkpt><trkpt lat="42.04293490932321" lon="13.78209355816695"><ele>969.0000000000001</ele><time>2026-05-01T10:56:43.999Z</time></trkpt><trkpt lat="42.04283180096045" lon="13.78205537843857"><ele>969.0000000000001</ele><time>2026-05-01T10:56:44.999Z</time></trkpt><trkpt lat="42.0427350813752" lon="13.781998415666418"><ele>969.0</ele><time>2026-05-01T10:56:45.999Z</time></trkpt><trkpt lat="42.04264302564409" lon="13.781921848163888"><ele>969.0</ele><time>2026-05-01T10:56:46.999Z</time></trkpt><trkpt lat="42.04254651759617" lon="13.781855893777115"><ele>965.5</ele><time>2026-05-01T10:56:47.999Z</time></trkpt><trkpt lat="42.04243487633413" lon="13.781830941625849"><ele>962.0</ele><time>2026-05-01T10:56:48.999Z</time></trkpt><trkpt lat="42.04231918254067" lon="13.781839042908832"><ele>958.5</ele><time>2026-05-01T10:56:49.999Z</time></trkpt><trkpt lat="42.04220436909705" lon="13.78186943727267"><ele>955.0</ele><time>2026-05-01T10:56:50.999Z</time></trkpt><trkpt lat="42.04208888882515" lon="13.78190937754368"><ele>955.0</ele><time>2026-05-01T10:56:51.999Z</time></trkpt><trkpt lat="42.04197040271798" lon="13.781961593883352"><ele>955.0</ele><time>2026-05-01T10:56:52.999Z</time></trkpt><trkpt lat="42.04185303076749" lon="13.782019407163125"><ele>955.0</ele><time>2026-05-01T10:56:53.999Z</time></trkpt><trkpt lat="42.04173260570332" lon="13.78208051873172"><ele>955.0</ele><time>2026-05-01T10:56:54.999Z</time></trkpt><trkpt lat="42.041612849434486" lon="13.782146404016055"><ele>949.25</ele><time>2026-05-01T10:56:55.999Z</time></trkpt><trkpt lat="42.04149615517134" lon="13.782217278766465"><ele>943.5</ele><time>2026-05-01T10:56:56.999Z</time></trkpt><trkpt lat="42.04137991406537" lon="13.78229164462981"><ele>937.75</ele><time>2026-05-01T10:56:57.999Z</time></trkpt><trkpt lat="42.04126385953733" lon="13.782368748381806"><ele>932.0</ele><time>2026-05-01T10:56:58.999Z</time></trkpt><trkpt lat="42.0411478985853" lon="13.782444967840217"><ele>932.0</ele><time>2026-05-01T10:56:59.999Z</time></trkpt><trkpt lat="42.04102914663173" lon="13.782515143907474"><ele>932.0</ele><time>2026-05-01T10:57:00.999Z</time></trkpt><trkpt lat="42.040910255955005" lon="13.782586131559764"><ele>932.0</ele><time>2026-05-01T10:57:01.999Z</time></trkpt><trkpt lat="42.04079212512509" lon="13.7826659156403"><ele>932.0</ele><time>2026-05-01T10:57:02.999Z</time></trkpt><trkpt lat="42.04067972067607" lon="13.78275538259175"><ele>932.5</ele><time>2026-05-01T10:57:03.999Z</time></trkpt><trkpt lat="42.040570852620725" lon="13.78285675939212"><ele>933.0</ele><time>2026-05-01T10:57:04.999Z</time></trkpt><trkpt lat="42.040467164063365" lon="13.782965036237226"><ele>933.5</ele><time>2026-05-01T10:57:05.999Z</time></trkpt><trkpt lat="42.04036288976428" lon="13.783073874356496"><ele>934.0</ele><time>2026-05-01T10:57:06.999Z</time></trkpt><trkpt lat="42.04025687461836" lon="13.78317424760772"><ele>934.0</ele><time>2026-05-01T10:57:07.999Z</time></trkpt><trkpt lat="42.04014917125395" lon="13.783260048607842"><ele>934.0</ele><time>2026-05-01T10:57:08.999Z</time></trkpt><trkpt lat="42.04003650001517" lon="13.783327671591683"><ele>934.0</ele><time>2026-05-01T10:57:09.999Z</time></trkpt><trkpt lat="42.03991503048993" lon="13.783378399014516"><ele>934.0</ele><time>2026-05-01T10:57:10.999Z</time></trkpt><trkpt lat="42.039789340004965" lon="13.783425815058028"><ele>930.75</ele><time>2026-05-01T10:57:11.999Z</time></trkpt><trkpt lat="42.039664935595425" lon="13.783475398571518"><ele>927.5</ele><time>2026-05-01T10:57:12.999Z</time></trkpt><trkpt lat="42.03953966451083" lon="13.783512766135521"><ele>924.25</ele><time>2026-05-01T10:57:13.999Z</time></trkpt><trkpt lat="42.03941084369262" lon="13.783527859411155"><ele>921.0</ele><time>2026-05-01T10:57:14.999Z</time></trkpt><trkpt lat="42.0392818755376" lon="13.783539337484793"><ele>929.25</ele><time>2026-05-01T10:57:15.999Z</time></trkpt><trkpt lat="42.03915420459391" lon="13.783556353652495"><ele>937.5</ele><time>2026-05-01T10:57:16.999Z</time></trkpt><trkpt lat="42.03902779801681" lon="13.783578611653704"><ele>945.75</ele><time>2026-05-01T10:57:17.999Z</time></trkpt><trkpt lat="42.038904275401855" lon="13.783607890357157"><ele>954.0</ele><time>2026-05-01T10:57:18.999Z</time></trkpt><trkpt lat="42.03878619109689" lon="13.783634343765598"><ele>954.0</ele><time>2026-05-01T10:57:19.999Z</time></trkpt><trkpt lat="42.03866959079377" lon="13.783649273397103"><ele>954.0</ele><time>2026-05-01T10:57:20.999Z</time></trkpt><trkpt lat="42.03854963825194" lon="13.783653378954611"><ele>954.0</ele><time>2026-05-01T10:57:21.999Z</time></trkpt><trkpt lat="42.038425621041185" lon="13.783636226229415"><ele>954.0</ele><time>2026-05-01T10:57:22.999Z</time></trkpt><trkpt lat="42.03830601082279" lon="13.783602731223526"><ele>951.8000000000001</ele><time>2026-05-01T10:57:23.999Z</time></trkpt><trkpt lat="42.03819192029658" lon="13.783571190332724"><ele>949.6000000000001</ele><time>2026-05-01T10:57:24.999Z</time></trkpt><trkpt lat="42.038082685879345" lon="13.783548277286393"><ele>947.4</ele><time>2026-05-01T10:57:25.999Z</time></trkpt><trkpt lat="42.03797896546538" lon="13.78350975445378"><ele>945.2</ele><time>2026-05-01T10:57:26.999Z</time></trkpt><trkpt lat="42.03787491068827" lon="13.783487695361497"><ele>943.0</ele><time>2026-05-01T10:57:27.999Z</time></trkpt><trkpt lat="42.03776767507372" lon="13.783496647654651"><ele>937.0</ele><time>2026-05-01T10:57:28.999Z</time></trkpt><trkpt lat="42.03765937934588" lon="13.783476064668081"><ele>931.0</ele><time>2026-05-01T10:57:29.999Z</time></trkpt><trkpt lat="42.037543878301776" lon="13.78346855572981"><ele>925.0</ele><time>2026-05-01T10:57:30.999Z</time></trkpt><trkpt lat="42.037423718361204" lon="13.783479052567206"><ele>919.0</ele><time>2026-05-01T10:57:31.999Z</time></trkpt><trkpt lat="42.037301848211186" lon="13.783472655208504"><ele>918.6</ele><time>2026-05-01T10:57:32.999Z</time></trkpt><trkpt lat="42.037190826920835" lon="13.783490195391328"><ele>918.2</ele><time>2026-05-01T10:57:33.999Z</time></trkpt><trkpt lat="42.037098230534575" lon="13.78351198970836"><ele>917.8000000000001</ele><time>2026-05-01T10:57:34.999Z</time></trkpt><trkpt lat="42.037014154795735" lon="13.783543042782231"><ele>917.4000000000001</ele><time>2026-05-01T10:57:35.999Z</time></trkpt><trkpt lat="42.03693562870548" lon="13.783598941878102"><ele>917.0</ele><time>2026-05-01T10:57:36.999Z</time></trkpt><trkpt lat="42.03686811178508" lon="13.783664984570105"><ele>916.1666666666667</ele><time>2026-05-01T10:57:37.999Z</time></trkpt><trkpt lat="42.03682264038447" lon="13.783753142727067"><ele>915.3333333333334</ele><time>2026-05-01T10:57:38.999Z</time></trkpt><trkpt lat="42.03677613129635" lon="13.783835486977075"><ele>914.5</ele><time>2026-05-01T10:57:39.999Z</time></trkpt><trkpt lat="42.036744566628606" lon="13.783931119588281"><ele>913.6666666666667</ele><time>2026-05-01T10:57:40.999Z</time></trkpt><trkpt lat="42.036709845834324" lon="13.784022250881108"><ele>912.8333333333334</ele><time>2026-05-01T10:57:41.999Z</time></trkpt><trkpt lat="42.03665977731899" lon="13.784102616012325"><ele>912.0</ele><time>2026-05-01T10:57:42.999Z</time></trkpt><trkpt lat="42.03659085613909" lon="13.784164252991241"><ele>912.0</ele><time>2026-05-01T10:57:43.999Z</time></trkpt><trkpt lat="42.03650928036316" lon="13.784208562864583"><ele>912.0</ele><time>2026-05-01T10:57:44.999Z</time></trkpt><trkpt lat="42.03642191124162" lon="13.784214042935465"><ele>912.0</ele><time>2026-05-01T10:57:45.999Z</time></trkpt><trkpt lat="42.03633934411806" lon="13.784170931188921"><ele>912.0</ele><time>2026-05-01T10:57:46.999Z</time></trkpt><trkpt lat="42.03627354157925" lon="13.78408764664522"><ele>912.0</ele><time>2026-05-01T10:57:47.999Z</time></trkpt><trkpt lat="42.03623035734459" lon="13.783969934470631"><ele>912.0</ele><time>2026-05-01T10:57:48.999Z</time></trkpt><trkpt lat="42.03621816743868" lon="13.783838777354044"><ele>912.0</ele><time>2026-05-01T10:57:49.998Z</time></trkpt><trkpt lat="42.036242548793105" lon="13.783711215674286"><ele>912.0</ele><time>2026-05-01T10:57:50.998Z</time></trkpt><trkpt lat="42.03630020864333" lon="13.783607871094262"><ele>912.0</ele><time>2026-05-01T10:57:51.998Z</time></trkpt><trkpt lat="42.03638252059634" lon="13.783535219335867"><ele>912.0</ele><time>2026-05-01T10:57:52.998Z</time></trkpt><trkpt lat="42.03647965096073" lon="13.783478508396561"><ele>913.0</ele><time>2026-05-01T10:57:53.998Z</time></trkpt><trkpt lat="42.0365783950835" lon="13.78341942396833"><ele>914.0</ele><time>2026-05-01T10:57:54.998Z</time></trkpt><trkpt lat="42.03667709412149" lon="13.783358964632587"><ele>915.0</ele><time>2026-05-01T10:57:55.998Z</time></trkpt><trkpt lat="42.036775851239206" lon="13.783299592347074"><ele>916.0</ele><time>2026-05-01T10:57:56.998Z</time></trkpt><trkpt lat="42.03687548721666" lon="13.783244007631374"><ele>917.0</ele><time>2026-05-01T10:57:57.998Z</time></trkpt><trkpt lat="42.03697691235459" lon="13.783209912045727"><ele>917.0</ele><time>2026-05-01T10:57:58.998Z</time></trkpt><trkpt lat="42.03707832352597" lon="13.783199773221416"><ele>917.0</ele><time>2026-05-01T10:57:59.998Z</time></trkpt><trkpt lat="42.037186231371685" lon="13.783205095543615"><ele>917.0</ele><time>2026-05-01T10:58:00.998Z</time></trkpt><trkpt lat="42.03729794022827" lon="13.783212393553566"><ele>917.0</ele><time>2026-05-01T10:58:01.998Z</time></trkpt><trkpt lat="42.03741397083947" lon="13.783219123888792"><ele>917.0</ele><time>2026-05-01T10:58:02.998Z</time></trkpt><trkpt lat="42.037533154746" lon="13.783223204652662"><ele>917.5</ele><time>2026-05-01T10:58:03.998Z</time></trkpt><trkpt lat="42.037654296576505" lon="13.783238727443972"><ele>918.0</ele><time>2026-05-01T10:58:04.998Z</time></trkpt><trkpt lat="42.03777762529648" lon="13.783269442837463"><ele>918.5</ele><time>2026-05-01T10:58:05.998Z</time></trkpt><trkpt lat="42.03790213291331" lon="13.783311170705462"><ele>919.0</ele><time>2026-05-01T10:58:06.998Z</time></trkpt><trkpt lat="42.03803129979424" lon="13.783346140468192"><ele>919.0</ele><time>2026-05-01T10:58:07.998Z</time></trkpt><trkpt lat="42.03816797302297" lon="13.783353729858613"><ele>919.0</ele><time>2026-05-01T10:58:08.998Z</time></trkpt><trkpt lat="42.03830963805069" lon="13.783342919419088"><ele>919.0</ele><time>2026-05-01T10:58:09.998Z</time></trkpt><trkpt lat="42.03845504143148" lon="13.783316941010616"><ele>919.0</ele><time>2026-05-01T10:58:10.998Z</time></trkpt><trkpt lat="42.03860241675141" lon="13.783278493970617"><ele>918.6666666666666</ele><time>2026-05-01T10:58:11.998Z</time></trkpt><trkpt lat="42.038749848934565" lon="13.783228076203915"><ele>918.3333333333333</ele><time>2026-05-01T10:58:12.998Z</time></trkpt><trkpt lat="42.03889937329308" lon="13.783170036809462"><ele>918.0</ele><time>2026-05-01T10:58:13.998Z</time></trkpt><trkpt lat="42.03904818482882" lon="13.783119048342762"><ele>919.0</ele><time>2026-05-01T10:58:14.998Z</time></trkpt><trkpt lat="42.03919692490188" lon="13.783071701762914"><ele>920.0</ele><time>2026-05-01T10:58:15.998Z</time></trkpt><trkpt lat="42.03934194775701" lon="13.78301795424513"><ele>921.0</ele><time>2026-05-01T10:58:16.998Z</time></trkpt><trkpt lat="42.03948129287639" lon="13.782955958021"><ele>921.0</ele><time>2026-05-01T10:58:17.998Z</time></trkpt><trkpt lat="42.03961764024198" lon="13.782884294591431"><ele>921.0</ele><time>2026-05-01T10:58:18.998Z</time></trkpt><trkpt lat="42.03974514643551" lon="13.782798552467817"><ele>921.0</ele><time>2026-05-01T10:58:19.998Z</time></trkpt><trkpt lat="42.03986415982051" lon="13.7826991377572"><ele>921.0</ele><time>2026-05-01T10:58:20.998Z</time></trkpt><trkpt lat="42.039970603856446" lon="13.782583013526354"><ele>918.25</ele><time>2026-05-01T10:58:21.998Z</time></trkpt><trkpt lat="42.0400660415797" lon="13.782453682897437"><ele>915.5</ele><time>2026-05-01T10:58:22.998Z</time></trkpt><trkpt lat="42.04016232603223" lon="13.782327114884355"><ele>912.75</ele><time>2026-05-01T10:58:23.999Z</time></trkpt><trkpt lat="42.04026030912166" lon="13.782204813677971"><ele>910.0</ele><time>2026-05-01T10:58:24.999Z</time></trkpt><trkpt lat="42.040356244370045" lon="13.782084463922638"><ele>910.0</ele><time>2026-05-01T10:58:25.999Z</time></trkpt><trkpt lat="42.04044902864748" lon="13.781969318305922"><ele>910.0</ele><time>2026-05-01T10:58:26.999Z</time></trkpt><trkpt lat="42.040544333864005" lon="13.781860279091285"><ele>910.0</ele><time>2026-05-01T10:58:27.999Z</time></trkpt><trkpt lat="42.040645752263856" lon="13.781753510592901"><ele>910.0</ele><time>2026-05-01T10:58:28.999Z</time></trkpt><trkpt lat="42.04074845424346" lon="13.781643265241005"><ele>909.25</ele><time>2026-05-01T10:58:29.999Z</time></trkpt><trkpt lat="42.0408485043872" lon="13.781532240121397"><ele>908.5</ele><time>2026-05-01T10:58:30.999Z</time></trkpt><trkpt lat="42.04094737232048" lon="13.781423873599863"><ele>907.75</ele><time>2026-05-01T10:58:31.999Z</time></trkpt><trkpt lat="42.04104550769133" lon="13.781325481824688"><ele>907.0</ele><time>2026-05-01T10:58:32.999Z</time></trkpt><trkpt lat="42.04114656419389" lon="13.781234085324662"><ele>907.0</ele><time>2026-05-01T10:58:33.999Z</time></trkpt><trkpt lat="42.04125425478214" lon="13.781142467819505"><ele>907.0</ele><time>2026-05-01T10:58:34.999Z</time></trkpt><trkpt lat="42.041370830221496" lon="13.78105729247572"><ele>907.0</ele><time>2026-05-01T10:58:35.999Z</time></trkpt><trkpt lat="42.041493280058546" lon="13.78097736623008"><ele>907.0</ele><time>2026-05-01T10:58:36.999Z</time></trkpt><trkpt lat="42.04161602072188" lon="13.78089222373731"><ele>905.25</ele><time>2026-05-01T10:58:37.999Z</time></trkpt><trkpt lat="42.04173780438246" lon="13.78080240832884"><ele>903.5</ele><time>2026-05-01T10:58:38.999Z</time></trkpt><trkpt lat="42.04186112471342" lon="13.780715070063765"><ele>901.75</ele><time>2026-05-01T10:58:39.999Z</time></trkpt><trkpt lat="42.04198333403843" lon="13.780628293409844"><ele>900.0</ele><time>2026-05-01T10:58:40.999Z</time></trkpt><trkpt lat="42.04209445604411" lon="13.780528456143092"><ele>900.0</ele><time>2026-05-01T10:58:41.999Z</time></trkpt><trkpt lat="42.04219428332053" lon="13.780410856177742"><ele>900.0</ele><time>2026-05-01T10:58:42.999Z</time></trkpt><trkpt lat="42.04228576825193" lon="13.780279622145283"><ele>900.0</ele><time>2026-05-01T10:58:43.999Z</time></trkpt><trkpt lat="42.04236919640674" lon="13.780136516888515"><ele>900.0</ele><time>2026-05-01T10:58:44.999Z</time></trkpt><trkpt lat="42.04245093949082" lon="13.779993157783851"><ele>898.0</ele><time>2026-05-01T10:58:45.999Z</time></trkpt><trkpt lat="42.04253086611018" lon="13.779850628899023"><ele>896.0</ele><time>2026-05-01T10:58:46.999Z</time></trkpt><trkpt lat="42.042611887513914" lon="13.77970791641125"><ele>894.0</ele><time>2026-05-01T10:58:47.999Z</time></trkpt><trkpt lat="42.04269790697342" lon="13.77957224049274"><ele>892.0</ele><time>2026-05-01T10:58:48.999Z</time></trkpt><trkpt lat="42.04278441349402" lon="13.779443200813882"><ele>890.5</ele><time>2026-05-01T10:58:49.999Z</time></trkpt><trkpt lat="42.04286211047596" lon="13.779311825937778"><ele>889.0</ele><time>2026-05-01T10:58:50.999Z</time></trkpt><trkpt lat="42.04292067802054" lon="13.779168366983678"><ele>887.5</ele><time>2026-05-01T10:58:51.999Z</time></trkpt><trkpt lat="42.04294875705184" lon="13.779016772160325"><ele>886.0</ele><time>2026-05-01T10:58:52.999Z</time></trkpt><trkpt lat="42.04294800177031" lon="13.778867078615605"><ele>886.0</ele><time>2026-05-01T10:58:53.999Z</time></trkpt><trkpt lat="42.042917806339744" lon="13.778737489332388"><ele>885.9999999999999</ele><time>2026-05-01T10:58:54.999Z</time></trkpt><trkpt lat="42.04286630126982" lon="13.778626192149689"><ele>885.9999999999999</ele><time>2026-05-01T10:58:55.999Z</time></trkpt><trkpt lat="42.04280300391984" lon="13.778533840842194"><ele>886.0</ele><time>2026-05-01T10:58:56.999Z</time></trkpt><trkpt lat="42.042723278779064" lon="13.778458851987132"><ele>886.0</ele><time>2026-05-01T10:58:57.999Z</time></trkpt><trkpt lat="42.04262689533692" lon="13.778389756946822"><ele>886.25</ele><time>2026-05-01T10:58:58.999Z</time></trkpt><trkpt lat="42.04252714079935" lon="13.778318621787273"><ele>886.5</ele><time>2026-05-01T10:58:59.999Z</time></trkpt><trkpt lat="42.04242741864785" lon="13.778246548093557"><ele>886.75</ele><time>2026-05-01T10:59:00.999Z</time></trkpt><trkpt lat="42.042329155874825" lon="13.778170532836429"><ele>887.0</ele><time>2026-05-01T10:59:01.999Z</time></trkpt><trkpt lat="42.04223023876347" lon="13.778097791813298"><ele>885.8</ele><time>2026-05-01T10:59:02.999Z</time></trkpt><trkpt lat="42.042135780733695" lon="13.778027886761233"><ele>884.6</ele><time>2026-05-01T10:59:03.999Z</time></trkpt><trkpt lat="42.04204288993992" lon="13.77796530960258"><ele>883.3999999999999</ele><time>2026-05-01T10:59:04.999Z</time></trkpt><trkpt lat="42.041957304067886" lon="13.777899850899633"><ele>882.1999999999999</ele><time>2026-05-01T10:59:05.999Z</time></trkpt><trkpt lat="42.04187233360228" lon="13.777840581079625"><ele>881.0</ele><time>2026-05-01T10:59:06.999Z</time></trkpt><trkpt lat="42.04180071515702" lon="13.777765332280065"><ele>881.0000000000001</ele><time>2026-05-01T10:59:07.999Z</time></trkpt><trkpt lat="42.041722253476784" lon="13.777731204802901"><ele>881.0</ele><time>2026-05-01T10:59:08.999Z</time></trkpt><trkpt lat="42.041666754753884" lon="13.777665519682722"><ele>881.0</ele><time>2026-05-01T10:59:09.999Z</time></trkpt><trkpt lat="42.04159998860452" lon="13.777615772882392"><ele>881.0</ele><time>2026-05-01T10:59:10.999Z</time></trkpt><trkpt lat="42.04153453589412" lon="13.777567004718948"><ele>881.0000000000001</ele><time>2026-05-01T10:59:11.999Z</time></trkpt><trkpt lat="42.04146644515686" lon="13.77751631698153"><ele>881.0</ele><time>2026-05-01T10:59:12.999Z</time></trkpt><trkpt lat="42.041398155238625" lon="13.777468105739795"><ele>880.8</ele><time>2026-05-01T10:59:13.999Z</time></trkpt><trkpt lat="42.04134007556376" lon="13.77742710267747"><ele>880.5999999999999</ele><time>2026-05-01T10:59:14.999Z</time></trkpt><trkpt lat="42.04123207687157" lon="13.777353123727954"><ele>880.4</ele><time>2026-05-01T10:59:16.999Z</time></trkpt><trkpt lat="42.04113999190971" lon="13.77730005569088"><ele>880.2</ele><time>2026-05-01T10:59:18.999Z</time></trkpt><trkpt lat="42.04103183893208" lon="13.777259062712291"><ele>880.0</ele><time>2026-05-01T10:59:20.999Z</time></trkpt><trkpt lat="42.04096153115849" lon="13.777256975949735"><ele>879.9999999999999</ele><time>2026-05-01T10:59:21.999Z</time></trkpt><trkpt lat="42.04088427386174" lon="13.777229335868634"><ele>880.0</ele><time>2026-05-01T10:59:22.999Z</time></trkpt><trkpt lat="42.04080528144839" lon="13.777204394874639"><ele>880.0</ele><time>2026-05-01T10:59:23.999Z</time></trkpt><trkpt lat="42.04072824075518" lon="13.777181665284859"><ele>880.0</ele><time>2026-05-01T10:59:24.999Z</time></trkpt><trkpt lat="42.04065037822752" lon="13.777157587824846"><ele>879.9999999999999</ele><time>2026-05-01T10:59:25.999Z</time></trkpt><trkpt lat="42.04056897626617" lon="13.777135047148366"><ele>880.0</ele><time>2026-05-01T10:59:26.999Z</time></trkpt><trkpt lat="42.04048503952185" lon="13.77711267705844"><ele>878.4999999999999</ele><time>2026-05-01T10:59:27.999Z</time></trkpt><trkpt lat="42.040398046111825" lon="13.77708857338461"><ele>877.0</ele><time>2026-05-01T10:59:28.999Z</time></trkpt><trkpt lat="42.04031379577413" lon="13.777062887184654"><ele>875.5</ele><time>2026-05-01T10:59:29.999Z</time></trkpt><trkpt lat="42.040234805500596" lon="13.777041586315812"><ele>874.0</ele><time>2026-05-01T10:59:30.999Z</time></trkpt><trkpt lat="42.040162228516415" lon="13.77701842938285"><ele>872.4999999999999</ele><time>2026-05-01T10:59:31.999Z</time></trkpt><trkpt lat="42.040084561061" lon="13.777003512117572"><ele>871.0</ele><time>2026-05-01T10:59:32.999Z</time></trkpt><trkpt lat="42.040006087932206" lon="13.776959957326344"><ele>872.1999999999999</ele><time>2026-05-01T10:59:33.999Z</time></trkpt><trkpt lat="42.03992120088422" lon="13.776936258291416"><ele>873.3999999999999</ele><time>2026-05-01T10:59:34.999Z</time></trkpt><trkpt lat="42.039832784333115" lon="13.77691157388236"><ele>874.6</ele><time>2026-05-01T10:59:35.999Z</time></trkpt><trkpt lat="42.03974307237347" lon="13.776907344957056"><ele>875.8</ele><time>2026-05-01T10:59:36.999Z</time></trkpt><trkpt lat="42.03965124378924" lon="13.776880907039427"><ele>877.0</ele><time>2026-05-01T10:59:37.999Z</time></trkpt><trkpt lat="42.03955840474478" lon="13.776852441279003"><ele>877.0</ele><time>2026-05-01T10:59:38.999Z</time></trkpt><trkpt lat="42.03946385960231" lon="13.776820299717446"><ele>877.0</ele><time>2026-05-01T10:59:39.999Z</time></trkpt><trkpt lat="42.03936580447925" lon="13.776793442404005"><ele>877.0</ele><time>2026-05-01T10:59:40.999Z</time></trkpt><trkpt lat="42.03926484188875" lon="13.776770526027939"><ele>877.0</ele><time>2026-05-01T10:59:41.999Z</time></trkpt><trkpt lat="42.039166739565474" lon="13.776721270808236"><ele>877.0</ele><time>2026-05-01T10:59:42.999Z</time></trkpt><trkpt lat="42.03906716015737" lon="13.776692561101113"><ele>875.0</ele><time>2026-05-01T10:59:43.999Z</time></trkpt><trkpt lat="42.03896239032668" lon="13.77666246763822"><ele>873.0</ele><time>2026-05-01T10:59:44.999Z</time></trkpt><trkpt lat="42.03885776908241" lon="13.776632416851543"><ele>871.0</ele><time>2026-05-01T10:59:45.999Z</time></trkpt><trkpt lat="42.03875298092746" lon="13.776602318124528"><ele>869.0</ele><time>2026-05-01T10:59:46.999Z</time></trkpt><trkpt lat="42.03864528189987" lon="13.77657138329401"><ele>867.0</ele><time>2026-05-01T10:59:47.999Z</time></trkpt><trkpt lat="42.03853808509533" lon="13.776540592721473"><ele>867.0</ele><time>2026-05-01T10:59:48.999Z</time></trkpt><trkpt lat="42.038427291950946" lon="13.776535049948047"><ele>867.0</ele><time>2026-05-01T10:59:49.999Z</time></trkpt><trkpt lat="42.038317891518794" lon="13.776503519743256"><ele>867.0</ele><time>2026-05-01T10:59:50.999Z</time></trkpt><trkpt lat="42.038215958425326" lon="13.776447201549225"><ele>867.0</ele><time>2026-05-01T10:59:51.999Z</time></trkpt><trkpt lat="42.03811260109231" lon="13.776438058109886"><ele>867.0</ele><time>2026-05-01T10:59:52.999Z</time></trkpt><trkpt lat="42.038007620595394" lon="13.776405133168696"><ele>864.5</ele><time>2026-05-01T10:59:53.999Z</time></trkpt><trkpt lat="42.03790445230641" lon="13.776375907184454"><ele>862.0</ele><time>2026-05-01T10:59:54.999Z</time></trkpt><trkpt lat="42.037802668760186" lon="13.77632672345194"><ele>859.5</ele><time>2026-05-01T10:59:55.999Z</time></trkpt><trkpt lat="42.03768423983224" lon="13.776292250217125"><ele>857.0</ele><time>2026-05-01T10:59:56.999Z</time></trkpt><trkpt lat="42.03756972265005" lon="13.776259505669511"><ele>855.8333333333334</ele><time>2026-05-01T10:59:57.999Z</time></trkpt><trkpt lat="42.03746508679009" lon="13.776229702323008"><ele>854.6666666666667</ele><time>2026-05-01T10:59:58.999Z</time></trkpt><trkpt lat="42.03737395342194" lon="13.77620374487821"><ele>853.5</ele><time>2026-05-01T10:59:59.999Z</time></trkpt><trkpt lat="42.037306636465544" lon="13.776184571050212"><ele>852.3333333333333</ele><time>2026-05-01T11:00:00.999Z</time></trkpt><trkpt lat="42.037228143686846" lon="13.776162214007572"><ele>851.1666666666666</ele><time>2026-05-01T11:00:01.999Z</time></trkpt><trkpt lat="42.03713528351457" lon="13.776135764713423"><ele>850.0</ele><time>2026-05-01T11:00:02.999Z</time></trkpt><trkpt lat="42.03705988162647" lon="13.776113950423252"><ele>849.9999999999999</ele><time>2026-05-01T11:00:03.999Z</time></trkpt><trkpt lat="42.036985782386566" lon="13.77609220701703"><ele>850.0</ele><time>2026-05-01T11:00:04.999Z</time></trkpt><trkpt lat="42.03690954290605" lon="13.776069307734648"><ele>850.0</ele><time>2026-05-01T11:00:05.999Z</time></trkpt><trkpt lat="42.036825769799535" lon="13.776066248152429"><ele>850.0</ele><time>2026-05-01T11:00:06.999Z</time></trkpt><trkpt lat="42.036739659073895" lon="13.776018356224231"><ele>849.9999999999999</ele><time>2026-05-01T11:00:07.999Z</time></trkpt><trkpt lat="42.03666526820012" lon="13.77599774188675"><ele>850.0</ele><time>2026-05-01T11:00:08.999Z</time></trkpt><trkpt lat="42.03659513104928" lon="13.775999934044297"><ele>852.25</ele><time>2026-05-01T11:00:09.999Z</time></trkpt><trkpt lat="42.036521128532485" lon="13.775961798307423"><ele>854.5</ele><time>2026-05-01T11:00:11.999Z</time></trkpt><trkpt lat="42.03646953152852" lon="13.775895158481248"><ele>856.75</ele><time>2026-05-01T11:00:24.999Z</time></trkpt><trkpt lat="42.036391366790276" lon="13.775880559907755"><ele>859.0</ele><time>2026-05-01T11:00:34.027Z</time></trkpt><trkpt lat="42.03042251349376" lon="13.776558846028207"><ele>852.0</ele><time>2026-05-01T11:01:42.999Z</time></trkpt><trkpt lat="42.03035106997858" lon="13.776530765052609"><ele>845.0000000000001</ele><time>2026-05-01T11:01:43.999Z</time></trkpt><trkpt lat="42.03031039970002" lon="13.776635192431263"><ele>838.0</ele><time>2026-05-01T11:01:44.999Z</time></trkpt><trkpt lat="42.03030392276699" lon="13.776451670670943"><ele>831.0</ele><time>2026-05-01T11:01:45.999Z</time></trkpt><trkpt lat="42.030243747122924" lon="13.776372639517973"><ele>824.0</ele><time>2026-05-01T11:01:46.999Z</time></trkpt><trkpt lat="42.030182962715145" lon="13.776293337405175"><ele>824.0</ele><time>2026-05-01T11:01:47.999Z</time></trkpt><trkpt lat="42.030124379605006" lon="13.776224859054732"><ele>824.0</ele><time>2026-05-01T11:01:48.999Z</time></trkpt><trkpt lat="42.02997359863665" lon="13.776149242074066"><ele>824.0</ele><time>2026-05-01T11:01:49.999Z</time></trkpt><trkpt lat="42.029837960635156" lon="13.77619044694554"><ele>824.0</ele><time>2026-05-01T11:01:50.999Z</time></trkpt><trkpt lat="42.029705009057686" lon="13.776270239733725"><ele>825.25</ele><time>2026-05-01T11:01:52.999Z</time></trkpt><trkpt lat="42.02957151053668" lon="13.776346459643143"><ele>826.5</ele><time>2026-05-01T11:01:53.999Z</time></trkpt><trkpt lat="42.02943453460753" lon="13.776399846949095"><ele>827.75</ele><time>2026-05-01T11:01:54.999Z</time></trkpt><trkpt lat="42.0293349287275" lon="13.77642400800714"><ele>829.0</ele><time>2026-05-01T11:01:55.999Z</time></trkpt><trkpt lat="42.029240432648415" lon="13.776464340188598"><ele>829.0</ele><time>2026-05-01T11:01:56.999Z</time></trkpt><trkpt lat="42.02915364361586" lon="13.776499393193474"><ele>829.0</ele><time>2026-05-01T11:01:57.999Z</time></trkpt><trkpt lat="42.02908545536375" lon="13.776537859399314"><ele>829.0</ele><time>2026-05-01T11:01:58.999Z</time></trkpt><trkpt lat="42.028982209253215" lon="13.77656843917849"><ele>829.0</ele><time>2026-05-01T11:02:00.999Z</time></trkpt><trkpt lat="42.028872067448155" lon="13.776533063837155"><ele>829.0</ele><time>2026-05-01T11:02:02.999Z</time></trkpt><trkpt lat="42.02877799252042" lon="13.776533105533668"><ele>830.6</ele><time>2026-05-01T11:02:04.999Z</time></trkpt><trkpt lat="42.02868004804336" lon="13.776554193139475"><ele>832.2</ele><time>2026-05-01T11:02:07.999Z</time></trkpt><trkpt lat="42.02857123890631" lon="13.776548321091733"><ele>833.8000000000001</ele><time>2026-05-01T11:02:09.999Z</time></trkpt><trkpt lat="42.02846968093031" lon="13.776565159415377"><ele>835.4000000000001</ele><time>2026-05-01T11:02:11.999Z</time></trkpt><trkpt lat="42.02838464758419" lon="13.77656191027066"><ele>837.0</ele><time>2026-05-01T11:02:13.999Z</time></trkpt><trkpt lat="42.02830369440204" lon="13.776565916832693"><ele>838.1666666666666</ele><time>2026-05-01T11:02:24.999Z</time></trkpt><trkpt lat="42.0282362420621" lon="13.776585996656117"><ele>839.3333333333333</ele><time>2026-05-01T11:02:26.999Z</time></trkpt><trkpt lat="42.028154905631965" lon="13.77659157738038"><ele>840.5</ele><time>2026-05-01T11:02:28.999Z</time></trkpt><trkpt lat="42.028061535895894" lon="13.77661950552848"><ele>841.6666666666666</ele><time>2026-05-01T11:02:31.999Z</time></trkpt><trkpt lat="42.02796241570664" lon="13.776638472041533"><ele>842.8333333333333</ele><time>2026-05-01T11:02:35.001Z</time></trkpt><trkpt lat="42.02788816850388" lon="13.776660854917886"><ele>844.0</ele><time>2026-05-01T11:02:37.001Z</time></trkpt><trkpt lat="42.02779204771327" lon="13.77669485378962"><ele>843.9999999999999</ele><time>2026-05-01T11:02:39.001Z</time></trkpt><trkpt lat="42.02769510665963" lon="13.776733189513507"><ele>844.0</ele><time>2026-05-01T11:02:41.001Z</time></trkpt><trkpt lat="42.02760747923991" lon="13.77676545843453"><ele>844.0</ele><time>2026-05-01T11:02:43.001Z</time></trkpt><trkpt lat="42.027544842556246" lon="13.776797905044134"><ele>844.0</ele><time>2026-05-01T11:02:45.001Z</time></trkpt><trkpt lat="42.02747296579992" lon="13.776817778072635"><ele>843.9999999999999</ele><time>2026-05-01T11:02:48.001Z</time></trkpt><trkpt lat="42.02739718238947" lon="13.7768523958076"><ele>844.0</ele><time>2026-05-01T11:02:50Z</time></trkpt><trkpt lat="42.027326775909145" lon="13.776886632352259"><ele>842.7142857142858</ele><time>2026-05-01T11:02:55Z</time></trkpt><trkpt lat="42.027260857143986" lon="13.77691406095844"><ele>841.4285714285714</ele><time>2026-05-01T11:02:58Z</time></trkpt><trkpt lat="42.02719659751273" lon="13.776944862533972"><ele>840.1428571428571</ele><time>2026-05-01T11:03:06Z</time></trkpt><trkpt lat="42.027133899201516" lon="13.776964101191403"><ele>838.8571428571429</ele><time>2026-05-01T11:03:11Z</time></trkpt><trkpt lat="42.027058459743806" lon="13.777006053337418"><ele>837.5714285714286</ele><time>2026-05-01T11:03:18Z</time></trkpt><trkpt lat="42.0269736563546" lon="13.777045919823236"><ele>836.2857142857143</ele><time>2026-05-01T11:03:23Z</time></trkpt><trkpt lat="42.02691208970081" lon="13.777076645919792"><ele>835.0</ele><time>2026-05-01T11:03:27Z</time></trkpt><trkpt lat="42.02684010537635" lon="13.777112570501421"><ele>834.9999999999999</ele><time>2026-05-01T11:03:32Z</time></trkpt><trkpt lat="42.02677718648722" lon="13.77714397045271"><ele>835.0</ele><time>2026-05-01T11:03:36Z</time></trkpt><trkpt lat="42.02672172443577" lon="13.777189044178018"><ele>835.0</ele><time>2026-05-01T11:03:37Z</time></trkpt><trkpt lat="42.026623308381026" lon="13.77725644024981"><ele>835.0</ele><time>2026-05-01T11:03:39Z</time></trkpt><trkpt lat="42.02656858951354" lon="13.777365405367837"><ele>834.9999999999999</ele><time>2026-05-01T11:03:41Z</time></trkpt><trkpt lat="42.026489289684136" lon="13.777430846977833"><ele>835.0</ele><time>2026-05-01T11:03:43Z</time></trkpt><trkpt lat="42.026400600660516" lon="13.777496888135335"><ele>837.0</ele><time>2026-05-01T11:03:45Z</time></trkpt><trkpt lat="42.02630984971416" lon="13.77756013561672"><ele>839.0</ele><time>2026-05-01T11:03:47Z</time></trkpt><trkpt lat="42.0262215264806" lon="13.77761480885318"><ele>841.0</ele><time>2026-05-01T11:03:49Z</time></trkpt><trkpt lat="42.02616189402402" lon="13.777651613466283"><ele>843.0</ele><time>2026-05-01T11:03:50Z</time></trkpt><trkpt lat="42.026070714369084" lon="13.777718670474204"><ele>845.0</ele><time>2026-05-01T11:03:52Z</time></trkpt><trkpt lat="42.02598217110018" lon="13.777779863782989"><ele>843.4</ele><time>2026-05-01T11:03:54Z</time></trkpt><trkpt lat="42.02589821391659" lon="13.777819552886179"><ele>841.8</ele><time>2026-05-01T11:03:56Z</time></trkpt><trkpt lat="42.02580520698322" lon="13.77787747451767"><ele>840.2</ele><time>2026-05-01T11:03:58Z</time></trkpt><trkpt lat="42.02569503027845" lon="13.777980257292864"><ele>838.6</ele><time>2026-05-01T11:04:00Z</time></trkpt><trkpt lat="42.0256398677761" lon="13.778030988108332"><ele>837.0</ele><time>2026-05-01T11:04:01Z</time></trkpt><trkpt lat="42.02558068233305" lon="13.778082993927551"><ele>837.0</ele><time>2026-05-01T11:04:02Z</time></trkpt><trkpt lat="42.02552758771635" lon="13.778148599855653"><ele>837.0</ele><time>2026-05-01T11:04:03Z</time></trkpt><trkpt lat="42.02544846968515" lon="13.778151949777692"><ele>837.0</ele><time>2026-05-01T11:04:03.999Z</time></trkpt><trkpt lat="42.02538409800581" lon="13.778213689516674"><ele>837.0</ele><time>2026-05-01T11:04:04.999Z</time></trkpt><trkpt lat="42.025309399039614" lon="13.77825070193605"><ele>837.0</ele><time>2026-05-01T11:04:05.999Z</time></trkpt><trkpt lat="42.025249380157746" lon="13.778317589830394"><ele>837.0</ele><time>2026-05-01T11:04:06.999Z</time></trkpt><trkpt lat="42.02518644570513" lon="13.778377238031764"><ele>837.0</ele><time>2026-05-01T11:04:07.999Z</time></trkpt><trkpt lat="42.02512286781194" lon="13.778435638225766"><ele>837.0</ele><time>2026-05-01T11:04:08.999Z</time></trkpt><trkpt lat="42.02508709915859" lon="13.778505594710948"><ele>837.0</ele><time>2026-05-01T11:04:09.999Z</time></trkpt><trkpt lat="42.02501017670629" lon="13.778631938941452"><ele>837.0</ele><time>2026-05-01T11:04:11.999Z</time></trkpt><trkpt lat="42.02497084147578" lon="13.778709926904499"><ele>837.0</ele><time>2026-05-01T11:04:12.999Z</time></trkpt><trkpt lat="42.024895696045604" lon="13.778862289964296"><ele>836.3333333333334</ele><time>2026-05-01T11:04:14.999Z</time></trkpt><trkpt lat="42.02484570840601" lon="13.778949849445407"><ele>835.6666666666667</ele><time>2026-05-01T11:04:15.999Z</time></trkpt><trkpt lat="42.024801918326666" lon="13.779025007245238"><ele>835.0</ele><time>2026-05-01T11:04:16.999Z</time></trkpt><trkpt lat="42.02475022692355" lon="13.779113727251847"><ele>834.3333333333334</ele><time>2026-05-01T11:04:17.999Z</time></trkpt><trkpt lat="42.024647465550245" lon="13.779174951068487"><ele>833.6666666666667</ele><time>2026-05-01T11:04:18.999Z</time></trkpt><trkpt lat="42.02457564187783" lon="13.779216526429083"><ele>833.0</ele><time>2026-05-01T11:04:19.999Z</time></trkpt><trkpt lat="42.02450481027038" lon="13.779281045193175"><ele>830.0000000000001</ele><time>2026-05-01T11:04:20.999Z</time></trkpt><trkpt lat="42.02445370883441" lon="13.779361383190338"><ele>827.0</ele><time>2026-05-01T11:04:21.999Z</time></trkpt><trkpt lat="42.024391932537675" lon="13.779431257180732"><ele>824.0</ele><time>2026-05-01T11:04:22.999Z</time></trkpt><trkpt lat="42.02431041987324" lon="13.779478508519732"><ele>821.0</ele><time>2026-05-01T11:04:23.999Z</time></trkpt><trkpt lat="42.02424370067949" lon="13.77951948209146"><ele>818.0000000000001</ele><time>2026-05-01T11:04:24.999Z</time></trkpt><trkpt lat="42.02418081188779" lon="13.77956793021775"><ele>815.0</ele><time>2026-05-01T11:04:25.999Z</time></trkpt><trkpt lat="42.02413036358764" lon="13.779623335959625"><ele>815.0</ele><time>2026-05-01T11:04:26.999Z</time></trkpt><trkpt lat="42.02405321385601" lon="13.779683832553646"><ele>815.0</ele><time>2026-05-01T11:04:27.999Z</time></trkpt><trkpt lat="42.02395331301555" lon="13.779759937453735"><ele>815.0</ele><time>2026-05-01T11:04:28.999Z</time></trkpt><trkpt lat="42.02387950689666" lon="13.779845822031152"><ele>815.0</ele><time>2026-05-01T11:04:29.999Z</time></trkpt><trkpt lat="42.02374712892957" lon="13.779923727880234"><ele>815.0</ele><time>2026-05-01T11:04:31.999Z</time></trkpt><trkpt lat="42.02368254311419" lon="13.779975627397874"><ele>815.0</ele><time>2026-05-01T11:04:32.999Z</time></trkpt><trkpt lat="42.02359482030464" lon="13.780013419040353"><ele>815.0</ele><time>2026-05-01T11:04:33.999Z</time></trkpt><trkpt lat="42.02352110322689" lon="13.780058938353458"><ele>815.0</ele><time>2026-05-01T11:04:34.999Z</time></trkpt><trkpt lat="42.023391644053795" lon="13.780086536851785"><ele>815.0</ele><time>2026-05-01T11:04:36.999Z</time></trkpt><trkpt lat="42.02331578522022" lon="13.780101954840461"><ele>815.0</ele><time>2026-05-01T11:04:37.999Z</time></trkpt><trkpt lat="42.02324787414318" lon="13.780118688950177"><ele>816.75</ele><time>2026-05-01T11:04:38.999Z</time></trkpt><trkpt lat="42.02311216150857" lon="13.78015213069035"><ele>818.5</ele><time>2026-05-01T11:04:41.001Z</time></trkpt><trkpt lat="42.02303803400037" lon="13.780170396850023"><ele>820.25</ele><time>2026-05-01T11:04:42.001Z</time></trkpt><trkpt lat="42.02295957584592" lon="13.780189730202322"><ele>822.0</ele><time>2026-05-01T11:04:43.001Z</time></trkpt><trkpt lat="42.02276834650742" lon="13.780237195655573"><ele>817.5</ele><time>2026-05-01T11:04:45.001Z</time></trkpt><trkpt lat="42.02268009419796" lon="13.780258667133475"><ele>813.0</ele><time>2026-05-01T11:04:46.001Z</time></trkpt><trkpt lat="42.02254581804199" lon="13.78030475724034"><ele>808.5</ele><time>2026-05-01T11:04:47.001Z</time></trkpt><trkpt lat="42.02235958488858" lon="13.780395022346843"><ele>804.0</ele><time>2026-05-01T11:04:48.001Z</time></trkpt><trkpt lat="42.02226749911531" lon="13.780454960134765"><ele>804.0</ele><time>2026-05-01T11:04:49.001Z</time></trkpt><trkpt lat="42.02216581904374" lon="13.780505260151537"><ele>804.0</ele><time>2026-05-01T11:04:50.001Z</time></trkpt><trkpt lat="42.022089494433104" lon="13.780472033000656"><ele>804.0</ele><time>2026-05-01T11:04:54.001Z</time></trkpt><trkpt lat="42.022029931902175" lon="13.780533624628085"><ele>804.0</ele><time>2026-05-01T11:04:56.001Z</time></trkpt><trkpt lat="42.021908180752376" lon="13.780613981459863"><ele>804.0</ele><time>2026-05-01T11:04:58.001Z</time></trkpt><trkpt lat="42.021839549405556" lon="13.780641737797712"><ele>804.0</ele><time>2026-05-01T11:04:59.001Z</time></trkpt><trkpt lat="42.02176359289042" lon="13.78071101619512"><ele>804.0</ele><time>2026-05-01T11:05:00.001Z</time></trkpt><trkpt lat="42.021697452579616" lon="13.780775109671412"><ele>804.0</ele><time>2026-05-01T11:05:01.001Z</time></trkpt><trkpt lat="42.02162370003523" lon="13.780820681036555"><ele>804.0</ele><time>2026-05-01T11:05:03.001Z</time></trkpt><trkpt lat="42.02151918111934" lon="13.780874905948536"><ele>804.0</ele><time>2026-05-01T11:05:05.037Z</time></trkpt><trkpt lat="42.02144754162497" lon="13.780930240219107"><ele>804.0</ele><time>2026-05-01T11:05:06.039Z</time></trkpt><trkpt lat="42.02135190904369" lon="13.780986920354373"><ele>799.5</ele><time>2026-05-01T11:05:09.038Z</time></trkpt><trkpt lat="42.02151421017623" lon="13.780874758030645"><ele>795.0</ele><time>2026-05-01T11:05:10.039Z</time></trkpt><trkpt lat="42.0212985562019" lon="13.781089474555905"><ele>795.0</ele><time>2026-05-01T11:05:21.042Z</time></trkpt><trkpt lat="42.0212293532036" lon="13.781143509866173"><ele>795.0</ele><time>2026-05-01T11:05:23.043Z</time></trkpt><trkpt lat="42.02104887197919" lon="13.781371751852156"><ele>795.0</ele><time>2026-05-01T11:05:28.033Z</time></trkpt><trkpt lat="42.0208617297752" lon="13.781808329458283"><ele>792.6666666666666</ele><time>2026-05-01T11:05:37Z</time></trkpt><trkpt lat="42.02081723307532" lon="13.781873831983471"><ele>790.3333333333333</ele><time>2026-05-01T11:05:38Z</time></trkpt><trkpt lat="42.02071590019204" lon="13.78191151297475"><ele>788.0</ele><time>2026-05-01T11:05:39Z</time></trkpt><trkpt lat="42.02063831394277" lon="13.781934773746652"><ele>785.6666666666666</ele><time>2026-05-01T11:05:40Z</time></trkpt><trkpt lat="42.02056034757186" lon="13.781974033458688"><ele>783.3333333333333</ele><time>2026-05-01T11:05:41Z</time></trkpt><trkpt lat="42.02048269887242" lon="13.78200475016264"><ele>781.0</ele><time>2026-05-01T11:05:42Z</time></trkpt><trkpt lat="42.02038867519164" lon="13.782088411100663"><ele>781.0</ele><time>2026-05-01T11:05:43Z</time></trkpt><trkpt lat="42.02021790132641" lon="13.782128103605896"><ele>781.0</ele><time>2026-05-01T11:05:44Z</time></trkpt><trkpt lat="42.02005741226518" lon="13.782158633660806"><ele>781.0</ele><time>2026-05-01T11:05:45Z</time></trkpt><trkpt lat="42.0199160110449" lon="13.782116352033288"><ele>781.0</ele><time>2026-05-01T11:05:46Z</time></trkpt><trkpt lat="42.02015679580793" lon="13.782004604633306"><ele>781.0</ele><time>2026-05-01T11:05:47Z</time></trkpt><trkpt lat="42.02008464277499" lon="13.782038089982885"><ele>781.0</ele><time>2026-05-01T11:05:48Z</time></trkpt><trkpt lat="42.02000283425738" lon="13.782076057413319"><ele>781.0</ele><time>2026-05-01T11:05:49Z</time></trkpt><trkpt lat="42.01992997167281" lon="13.782109872924558"><ele>781.8</ele><time>2026-05-01T11:05:50Z</time></trkpt><trkpt lat="42.01985052942225" lon="13.782143410948033"><ele>782.5999999999999</ele><time>2026-05-01T11:05:51Z</time></trkpt><trkpt lat="42.01977434141909" lon="13.782175361434406"><ele>783.4</ele><time>2026-05-01T11:05:52Z</time></trkpt><trkpt lat="42.01970780219447" lon="13.7822032655943"><ele>784.2</ele><time>2026-05-01T11:05:53Z</time></trkpt><trkpt lat="42.01964314390764" lon="13.782230380900113"><ele>785.0</ele><time>2026-05-01T11:05:54Z</time></trkpt><trkpt lat="42.019287783529435" lon="13.782400729675603"><ele>785.0000000000001</ele><time>2026-05-01T11:05:55Z</time></trkpt><trkpt lat="42.01921067936018" lon="13.782410874530486"><ele>785.0</ele><time>2026-05-01T11:05:56Z</time></trkpt><trkpt lat="42.019137058745926" lon="13.782440389531022"><ele>785.0</ele><time>2026-05-01T11:05:57Z</time></trkpt><trkpt lat="42.01906067495764" lon="13.782485421668017"><ele>785.0</ele><time>2026-05-01T11:05:58Z</time></trkpt><trkpt lat="42.019001666271" lon="13.782543940280238"><ele>785.0000000000001</ele><time>2026-05-01T11:05:59Z</time></trkpt><trkpt lat="42.01894501355851" lon="13.782635202632461"><ele>785.0</ele><time>2026-05-01T11:06:00Z</time></trkpt><trkpt lat="42.01890752707794" lon="13.782720766608255"><ele>784.5000000000001</ele><time>2026-05-01T11:06:01Z</time></trkpt><trkpt lat="42.0188605262193" lon="13.782824987871702"><ele>784.0</ele><time>2026-05-01T11:06:02Z</time></trkpt><trkpt lat="42.01881117292891" lon="13.782935130257497"><ele>783.5</ele><time>2026-05-01T11:06:03Z</time></trkpt><trkpt lat="42.01877793216621" lon="13.78300941573241"><ele>783.0</ele><time>2026-05-01T11:06:04Z</time></trkpt><trkpt lat="42.01873294537939" lon="13.783098534441839"><ele>782.5000000000001</ele><time>2026-05-01T11:06:05Z</time></trkpt><trkpt lat="42.01868086743654" lon="13.783205931996237"><ele>782.0</ele><time>2026-05-01T11:06:07Z</time></trkpt><trkpt lat="42.01863612307573" lon="13.783267525079573"><ele>782.0</ele><time>2026-05-01T11:06:08Z</time></trkpt><trkpt lat="42.01860140447446" lon="13.783349566795003"><ele>782.0</ele><time>2026-05-01T11:06:11Z</time></trkpt><trkpt lat="42.018600448598804" lon="13.78347607614536"><ele>782.0</ele><time>2026-05-01T11:06:14Z</time></trkpt><trkpt lat="42.01849244767346" lon="13.783537008364723"><ele>782.0</ele><time>2026-05-01T11:06:16Z</time></trkpt><trkpt lat="42.01840452564509" lon="13.783610492413446"><ele>782.0</ele><time>2026-05-01T11:06:17Z</time></trkpt><trkpt lat="42.01827332785445" lon="13.783565732588876"><ele>779.8</ele><time>2026-05-01T11:06:18Z</time></trkpt><trkpt lat="42.01815622639293" lon="13.783630491050536"><ele>777.6</ele><time>2026-05-01T11:06:18.999Z</time></trkpt><trkpt lat="42.018087844744265" lon="13.783670303277049"><ele>775.4</ele><time>2026-05-01T11:06:19.999Z</time></trkpt><trkpt lat="42.01800533983338" lon="13.78371962032393"><ele>773.1999999999999</ele><time>2026-05-01T11:06:20.999Z</time></trkpt><trkpt lat="42.01791273536086" lon="13.783774893430827"><ele>771.0</ele><time>2026-05-01T11:06:21.999Z</time></trkpt><trkpt lat="42.01779986792942" lon="13.783805343987027"><ele>771.0</ele><time>2026-05-01T11:06:22.999Z</time></trkpt><trkpt lat="42.01770833202204" lon="13.783845393855223"><ele>771.0</ele><time>2026-05-01T11:06:23.999Z</time></trkpt><trkpt lat="42.01762699599951" lon="13.78390775721755"><ele>771.0</ele><time>2026-05-01T11:06:24.999Z</time></trkpt><trkpt lat="42.017540238890554" lon="13.783970472556055"><ele>771.0</ele><time>2026-05-01T11:06:25.999Z</time></trkpt><trkpt lat="42.01744751932099" lon="13.784041420972034"><ele>771.0</ele><time>2026-05-01T11:06:26.999Z</time></trkpt><trkpt lat="42.017380098026" lon="13.784093355623636"><ele>770.0</ele><time>2026-05-01T11:06:27.999Z</time></trkpt><trkpt lat="42.01729935071099" lon="13.784158368377025"><ele>769.0</ele><time>2026-05-01T11:06:28.999Z</time></trkpt><trkpt lat="42.01721769573459" lon="13.784227147786718"><ele>768.0</ele><time>2026-05-01T11:06:30.999Z</time></trkpt><trkpt lat="42.01711997355093" lon="13.784328813605013"><ele>767.0</ele><time>2026-05-01T11:06:33.999Z</time></trkpt><trkpt lat="42.01704749317124" lon="13.784418102828344"><ele>766.0</ele><time>2026-05-01T11:06:34.999Z</time></trkpt><trkpt lat="42.01699729158645" lon="13.784505096435561"><ele>766.0</ele><time>2026-05-01T11:06:35.999Z</time></trkpt><trkpt lat="42.01694145373311" lon="13.784597829254222"><ele>766.0</ele><time>2026-05-01T11:06:36.999Z</time></trkpt><trkpt lat="42.016903143057895" lon="13.784727060610244"><ele>766.0</ele><time>2026-05-01T11:06:38.999Z</time></trkpt><trkpt lat="42.01687405499364" lon="13.784811443187067"><ele>766.0</ele><time>2026-05-01T11:06:39.999Z</time></trkpt><trkpt lat="42.01683694960533" lon="13.784930782274303"><ele>766.0</ele><time>2026-05-01T11:06:43.999Z</time></trkpt><trkpt lat="42.016803615878324" lon="13.785041907674067"><ele>766.0</ele><time>2026-05-01T11:06:46.001Z</time></trkpt><trkpt lat="42.016754989109685" lon="13.785219661071343"><ele>765.5999999999999</ele><time>2026-05-01T11:07:15.001Z</time></trkpt><trkpt lat="42.016727574446776" lon="13.78531441225941"><ele>765.2</ele><time>2026-05-01T11:07:16.001Z</time></trkpt><trkpt lat="42.01670481269031" lon="13.785414177712802"><ele>764.8</ele><time>2026-05-01T11:07:17Z</time></trkpt><trkpt lat="42.016639916256636" lon="13.785590454580488"><ele>764.4000000000001</ele><time>2026-05-01T11:07:19Z</time></trkpt><trkpt lat="42.01658323212608" lon="13.78567545943082"><ele>764.0</ele><time>2026-05-01T11:07:20Z</time></trkpt><trkpt lat="42.016507163646494" lon="13.785781445707691"><ele>764.0</ele><time>2026-05-01T11:07:22Z</time></trkpt><trkpt lat="42.01644481473275" lon="13.785866713770853"><ele>764.0</ele><time>2026-05-01T11:07:24Z</time></trkpt><trkpt lat="42.01636160974405" lon="13.785922166095718"><ele>764.0</ele><time>2026-05-01T11:07:26Z</time></trkpt><trkpt lat="42.01636926341069" lon="13.786022326464616"><ele>764.0</ele><time>2026-05-01T11:08:13Z</time></trkpt><trkpt lat="42.016324979302794" lon="13.786114272022811"><ele>764.0</ele><time>2026-05-01T11:08:27.999Z</time></trkpt><trkpt lat="42.01621307282661" lon="13.786333520474688"><ele>762.8333333333333</ele><time>2026-05-01T11:08:32.999Z</time></trkpt><trkpt lat="42.016148485627156" lon="13.786457915389484"><ele>761.6666666666666</ele><time>2026-05-01T11:08:34.999Z</time></trkpt><trkpt lat="42.01610771509468" lon="13.786532176209583"><ele>760.5</ele><time>2026-05-01T11:08:35.999Z</time></trkpt><trkpt lat="42.01606927671297" lon="13.786624262622398"><ele>759.3333333333334</ele><time>2026-05-01T11:08:36.999Z</time></trkpt><trkpt lat="42.01603641000053" lon="13.786722107204238"><ele>758.1666666666667</ele><time>2026-05-01T11:08:37.999Z</time></trkpt><trkpt lat="42.01598899514485" lon="13.78681600361092"><ele>757.0</ele><time>2026-05-01T11:08:38.999Z</time></trkpt><trkpt lat="42.015949375823276" lon="13.78693239542024"><ele>757.3333333333334</ele><time>2026-05-01T11:08:39.999Z</time></trkpt><trkpt lat="42.01590763748553" lon="13.787042647121908"><ele>757.6666666666667</ele><time>2026-05-01T11:08:40.999Z</time></trkpt><trkpt lat="42.015877694232934" lon="13.787142771089481"><ele>758.0</ele><time>2026-05-01T11:08:41.999Z</time></trkpt><trkpt lat="42.01582094737284" lon="13.787250325600008"><ele>758.3333333333334</ele><time>2026-05-01T11:08:43.999Z</time></trkpt><trkpt lat="42.01577393475894" lon="13.787378585515055"><ele>758.6666666666666</ele><time>2026-05-01T11:08:46.999Z</time></trkpt><trkpt lat="42.01579778489332" lon="13.787457546780272"><ele>759.0</ele><time>2026-05-01T11:08:47.999Z</time></trkpt><trkpt lat="42.01575918997111" lon="13.7875993953602"><ele>757.1666666666666</ele><time>2026-05-01T11:08:49.999Z</time></trkpt><trkpt lat="42.01575184556258" lon="13.787704946579584"><ele>755.3333333333334</ele><time>2026-05-01T11:08:51.001Z</time></trkpt><trkpt lat="42.015704065182696" lon="13.787799870072405"><ele>753.5</ele><time>2026-05-01T11:08:52.001Z</time></trkpt><trkpt lat="42.015664469948725" lon="13.787897118945292"><ele>751.6666666666667</ele><time>2026-05-01T11:08:53.001Z</time></trkpt><trkpt lat="42.015675591958185" lon="13.788004196623923"><ele>749.8333333333334</ele><time>2026-05-01T11:08:54.001Z</time></trkpt><trkpt lat="42.01566744226839" lon="13.788141435088352"><ele>748.0</ele><time>2026-05-01T11:08:55.001Z</time></trkpt><trkpt lat="42.01564271697697" lon="13.78832594428092"><ele>748.0</ele><time>2026-05-01T11:08:56.001Z</time></trkpt><trkpt lat="42.01561223920461" lon="13.788493994847514"><ele>748.0</ele><time>2026-05-01T11:08:57.001Z</time></trkpt><trkpt lat="42.01559628469148" lon="13.788646758267316"><ele>748.0</ele><time>2026-05-01T11:08:58.001Z</time></trkpt><trkpt lat="42.01561299541726" lon="13.788744490957525"><ele>748.0</ele><time>2026-05-01T11:08:59.001Z</time></trkpt><trkpt lat="42.01549244540878" lon="13.788800544878116"><ele>748.0</ele><time>2026-05-01T11:09:00.001Z</time></trkpt><trkpt lat="42.01538971528651" lon="13.788826614530894"><ele>746.5</ele><time>2026-05-01T11:09:01.001Z</time></trkpt><trkpt lat="42.01532047351242" lon="13.788925275692511"><ele>745.0</ele><time>2026-05-01T11:09:02.001Z</time></trkpt><trkpt lat="42.01530213807469" lon="13.78911573949179"><ele>743.5</ele><time>2026-05-01T11:09:03.001Z</time></trkpt><trkpt lat="42.01521394391688" lon="13.789233528476082"><ele>742.0</ele><time>2026-05-01T11:09:04.001Z</time></trkpt><trkpt lat="42.01510888390462" lon="13.789350946743145"><ele>740.2</ele><time>2026-05-01T11:09:05.001Z</time></trkpt><trkpt lat="42.015038629123616" lon="13.789426429563921"><ele>738.4000000000001</ele><time>2026-05-01T11:09:06.001Z</time></trkpt><trkpt lat="42.01497121315622" lon="13.789473667273855"><ele>736.5999999999999</ele><time>2026-05-01T11:09:07.001Z</time></trkpt><trkpt lat="42.01490785830731" lon="13.789595262791481"><ele>734.8</ele><time>2026-05-01T11:09:09.001Z</time></trkpt><trkpt lat="42.01498822102324" lon="13.789605510545849"><ele>733.0</ele><time>2026-05-01T11:09:10.001Z</time></trkpt><trkpt lat="42.01492053825223" lon="13.789731483644898"><ele>731.5</ele><time>2026-05-01T11:09:13.001Z</time></trkpt><trkpt lat="42.014847772657895" lon="13.789784060825026"><ele>730.0</ele><time>2026-05-01T11:09:15Z</time></trkpt><trkpt lat="42.01476450607065" lon="13.789874463687104"><ele>728.5</ele><time>2026-05-01T11:09:17Z</time></trkpt><trkpt lat="42.01460388520976" lon="13.789842980169732"><ele>727.0</ele><time>2026-05-01T11:09:19Z</time></trkpt><trkpt lat="42.01447233887261" lon="13.789839378902416"><ele>727.0</ele><time>2026-05-01T11:09:20Z</time></trkpt><trkpt lat="42.01438613028614" lon="13.789814650083725"><ele>727.0</ele><time>2026-05-01T11:09:21Z</time></trkpt><trkpt lat="42.01427074986789" lon="13.789765311379076"><ele>727.0</ele><time>2026-05-01T11:09:22Z</time></trkpt><trkpt lat="42.01417692931847" lon="13.789696618281623"><ele>727.0</ele><time>2026-05-01T11:09:23Z</time></trkpt><trkpt lat="42.014089339175406" lon="13.789618923157724"><ele>727.0</ele><time>2026-05-01T11:09:24Z</time></trkpt><trkpt lat="42.014011317656895" lon="13.789544749434015"><ele>727.6</ele><time>2026-05-01T11:09:25Z</time></trkpt><trkpt lat="42.01393734825593" lon="13.789469068516436"><ele>728.2</ele><time>2026-05-01T11:09:26Z</time></trkpt><trkpt lat="42.01385225097577" lon="13.789376629766238"><ele>728.8</ele><time>2026-05-01T11:09:27Z</time></trkpt><trkpt lat="42.01377112393776" lon="13.789286148055622"><ele>729.4</ele><time>2026-05-01T11:09:28Z</time></trkpt><trkpt lat="42.013712209850645" lon="13.789220620550292"><ele>730.0</ele><time>2026-05-01T11:09:29Z</time></trkpt><trkpt lat="42.013641533367235" lon="13.789144808002698"><ele>730.0</ele><time>2026-05-01T11:09:30Z</time></trkpt><trkpt lat="42.01357494282596" lon="13.789089079912761"><ele>730.0</ele><time>2026-05-01T11:09:31Z</time></trkpt><trkpt lat="42.013516732027334" lon="13.789036885309079"><ele>730.0</ele><time>2026-05-01T11:09:32Z</time></trkpt><trkpt lat="42.013442106313306" lon="13.789002555569978"><ele>730.0</ele><time>2026-05-01T11:09:33Z</time></trkpt><trkpt lat="42.01337170238747" lon="13.788939362807245"><ele>730.0</ele><time>2026-05-01T11:09:34Z</time></trkpt><trkpt lat="42.01329851447992" lon="13.788937745537655"><ele>730.0</ele><time>2026-05-01T11:09:35Z</time></trkpt><trkpt lat="42.01323057934558" lon="13.788910264515422"><ele>730.0</ele><time>2026-05-01T11:09:36Z</time></trkpt><trkpt lat="42.01317385695485" lon="13.789014718270565"><ele>730.0</ele><time>2026-05-01T11:09:37Z</time></trkpt><trkpt lat="42.01311636673311" lon="13.78905354758912"><ele>730.0</ele><time>2026-05-01T11:09:38Z</time></trkpt><trkpt lat="42.01312870176868" lon="13.789196349401315"><ele>730.0</ele><time>2026-05-01T11:09:40Z</time></trkpt><trkpt lat="42.01306533691684" lon="13.789334947386122"><ele>730.0</ele><time>2026-05-01T11:09:42Z</time></trkpt><trkpt lat="42.01294136195284" lon="13.789451766387941"><ele>727.3333333333334</ele><time>2026-05-01T11:09:44Z</time></trkpt><trkpt lat="42.01285559959209" lon="13.789518868410822"><ele>724.6666666666667</ele><time>2026-05-01T11:09:45Z</time></trkpt><trkpt lat="42.012755605718176" lon="13.789553606715735"><ele>722.0</ele><time>2026-05-01T11:09:46Z</time></trkpt><trkpt lat="42.01267519629281" lon="13.789579118326282"><ele>719.3333333333334</ele><time>2026-05-01T11:09:47Z</time></trkpt><trkpt lat="42.01259756123373" lon="13.789597182327244"><ele>716.6666666666666</ele><time>2026-05-01T11:09:48Z</time></trkpt><trkpt lat="42.01252931533504" lon="13.78965083616352"><ele>714.0</ele><time>2026-05-01T11:09:49Z</time></trkpt><trkpt lat="42.01246302696981" lon="13.789704641791849"><ele>713.5</ele><time>2026-05-01T11:09:50Z</time></trkpt><trkpt lat="42.01234648850795" lon="13.789767874067262"><ele>713.0</ele><time>2026-05-01T11:09:51Z</time></trkpt><trkpt lat="42.01223549710813" lon="13.789822841201444"><ele>712.5</ele><time>2026-05-01T11:09:52Z</time></trkpt><trkpt lat="42.01211810520039" lon="13.789854737621194"><ele>712.0</ele><time>2026-05-01T11:09:53Z</time></trkpt><trkpt lat="42.01199196461479" lon="13.789896838296814"><ele>712.0</ele><time>2026-05-01T11:09:54Z</time></trkpt><trkpt lat="42.0118848377573" lon="13.789919077661825"><ele>712.0</ele><time>2026-05-01T11:09:55Z</time></trkpt><trkpt lat="42.01176960141633" lon="13.789938693107345"><ele>712.0</ele><time>2026-05-01T11:09:56Z</time></trkpt><trkpt lat="42.01165478072241" lon="13.789967444619114"><ele>712.0</ele><time>2026-05-01T11:09:57Z</time></trkpt><trkpt lat="42.01155038813009" lon="13.789983464586177"><ele>712.0</ele><time>2026-05-01T11:09:58Z</time></trkpt><trkpt lat="42.01145689235823" lon="13.79001561018579"><ele>710.3333333333334</ele><time>2026-05-01T11:09:59Z</time></trkpt><trkpt lat="42.01138806660604" lon="13.79000478150555"><ele>708.6666666666667</ele><time>2026-05-01T11:10:00Z</time></trkpt><trkpt lat="42.01129637375241" lon="13.789995986282397"><ele>707.0</ele><time>2026-05-01T11:10:02Z</time></trkpt><trkpt lat="42.01125269799858" lon="13.790062486677789"><ele>705.3333333333334</ele><time>2026-05-01T11:10:05Z</time></trkpt><trkpt lat="42.0111443861809" lon="13.79015913870481"><ele>703.6666666666666</ele><time>2026-05-01T11:10:07Z</time></trkpt><trkpt lat="42.011058909367314" lon="13.790177594033382"><ele>702.0</ele><time>2026-05-01T11:10:08Z</time></trkpt><trkpt lat="42.010990560786894" lon="13.790222097273203"><ele>702.0</ele><time>2026-05-01T11:10:09Z</time></trkpt><trkpt lat="42.01092166679739" lon="13.790303270613894"><ele>702.0</ele><time>2026-05-01T11:10:09.999Z</time></trkpt><trkpt lat="42.0108436127911" lon="13.790360416811213"><ele>702.0</ele><time>2026-05-01T11:10:10.999Z</time></trkpt><trkpt lat="42.010728185138184" lon="13.790460928364123"><ele>702.0</ele><time>2026-05-01T11:10:12.999Z</time></trkpt><trkpt lat="42.010635701809164" lon="13.790543212386831"><ele>702.0</ele><time>2026-05-01T11:10:13.999Z</time></trkpt><trkpt lat="42.01053396930325" lon="13.790651884894196"><ele>702.6</ele><time>2026-05-01T11:10:14.999Z</time></trkpt><trkpt lat="42.01044960931898" lon="13.790770004819363"><ele>703.2</ele><time>2026-05-01T11:10:15.999Z</time></trkpt><trkpt lat="42.01037643694548" lon="13.790890975401371"><ele>703.8</ele><time>2026-05-01T11:10:17.999Z</time></trkpt><trkpt lat="42.01031679402276" lon="13.790996893949982"><ele>704.4</ele><time>2026-05-01T11:10:18.999Z</time></trkpt><trkpt lat="42.01027854764161" lon="13.791065509421191"><ele>705.0</ele><time>2026-05-01T11:10:19.999Z</time></trkpt><trkpt lat="42.01022184671831" lon="13.791169141681298"><ele>705.0</ele><time>2026-05-01T11:10:20.999Z</time></trkpt><trkpt lat="42.01018470885771" lon="13.791276132384295"><ele>705.0</ele><time>2026-05-01T11:10:22.999Z</time></trkpt><trkpt lat="42.01013123548256" lon="13.791377754868117"><ele>705.0</ele><time>2026-05-01T11:10:23.999Z</time></trkpt><trkpt lat="42.010079697045576" lon="13.791464769573386"><ele>705.0</ele><time>2026-05-01T11:10:24.999Z</time></trkpt><trkpt lat="42.010031518712566" lon="13.791534972792576"><ele>705.0</ele><time>2026-05-01T11:10:25.999Z</time></trkpt><trkpt lat="42.009976111250275" lon="13.791629362057474"><ele>705.0</ele><time>2026-05-01T11:10:26.999Z</time></trkpt><trkpt lat="42.00994132416931" lon="13.79174001155245"><ele>706.0</ele><time>2026-05-01T11:10:27.999Z</time></trkpt><trkpt lat="42.00991424133954" lon="13.791834926088612"><ele>707.0</ele><time>2026-05-01T11:10:28.999Z</time></trkpt><trkpt lat="42.00989157469156" lon="13.791926772592454"><ele>708.0</ele><time>2026-05-01T11:10:29.999Z</time></trkpt><trkpt lat="42.009860615429176" lon="13.792067124168998"><ele>709.0</ele><time>2026-05-01T11:10:30.999Z</time></trkpt><trkpt lat="42.009822215292566" lon="13.792254277991201"><ele>710.0</ele><time>2026-05-01T11:10:31.999Z</time></trkpt><trkpt lat="42.00982626032974" lon="13.792345347079559"><ele>710.0</ele><time>2026-05-01T11:10:34.999Z</time></trkpt><trkpt lat="42.009712457256754" lon="13.792596722927671"><ele>710.0</ele><time>2026-05-01T11:10:46.999Z</time></trkpt><trkpt lat="42.009593495143925" lon="13.79269146916132"><ele>710.0</ele><time>2026-05-01T11:10:47.999Z</time></trkpt><trkpt lat="42.00953382962754" lon="13.792775400311989"><ele>710.0</ele><time>2026-05-01T11:10:49.999Z</time></trkpt><trkpt lat="42.009467688381335" lon="13.79292240366722"><ele>705.8</ele><time>2026-05-01T11:10:51.999Z</time></trkpt><trkpt lat="42.009405600102276" lon="13.793026698631511"><ele>701.6</ele><time>2026-05-01T11:10:52.999Z</time></trkpt><trkpt lat="42.009379505238215" lon="13.793109991591512"><ele>697.4000000000001</ele><time>2026-05-01T11:10:53.999Z</time></trkpt><trkpt lat="42.00932310110128" lon="13.793221724499205"><ele>693.2</ele><time>2026-05-01T11:10:54.999Z</time></trkpt><trkpt lat="42.00927052760706" lon="13.793343474937494"><ele>689.0</ele><time>2026-05-01T11:10:55.999Z</time></trkpt><trkpt lat="42.00921192173171" lon="13.7934618172633"><ele>689.25</ele><time>2026-05-01T11:10:57.001Z</time></trkpt><trkpt lat="42.0091396474461" lon="13.793572747903282"><ele>689.5</ele><time>2026-05-01T11:10:58.001Z</time></trkpt><trkpt lat="42.00910018030512" lon="13.7937048363196"><ele>689.75</ele><time>2026-05-01T11:10:59.001Z</time></trkpt><trkpt lat="42.00904958235345" lon="13.793818086257119"><ele>690.0</ele><time>2026-05-01T11:11:00.001Z</time></trkpt><trkpt lat="42.008946266855375" lon="13.793960643584514"><ele>690.0</ele><time>2026-05-01T11:11:01.001Z</time></trkpt><trkpt lat="42.00886866812703" lon="13.794071409840477"><ele>690.0</ele><time>2026-05-01T11:11:02.001Z</time></trkpt><trkpt lat="42.00879571480928" lon="13.794161126062487"><ele>690.0</ele><time>2026-05-01T11:11:03.001Z</time></trkpt><trkpt lat="42.0087108894782" lon="13.794270579329503"><ele>690.0</ele><time>2026-05-01T11:11:04.001Z</time></trkpt><trkpt lat="42.00865648830759" lon="13.794381414682492"><ele>690.0</ele><time>2026-05-01T11:11:05.001Z</time></trkpt><trkpt lat="42.00860104764681" lon="13.79452114697192"><ele>689.5</ele><time>2026-05-01T11:11:06.001Z</time></trkpt><trkpt lat="42.00855397696247" lon="13.794652607093825"><ele>689.0</ele><time>2026-05-01T11:11:07.001Z</time></trkpt><trkpt lat="42.00850462211908" lon="13.794757077000172"><ele>688.5</ele><time>2026-05-01T11:11:08Z</time></trkpt><trkpt lat="42.008467626929914" lon="13.794853527685744"><ele>688.0</ele><time>2026-05-01T11:11:09Z</time></trkpt><trkpt lat="42.00843170263755" lon="13.794951227050563"><ele>687.5</ele><time>2026-05-01T11:11:10Z</time></trkpt><trkpt lat="42.00838853926232" lon="13.795050148642066"><ele>687.0</ele><time>2026-05-01T11:11:11Z</time></trkpt><trkpt lat="42.00831377442066" lon="13.795153517878063"><ele>682.75</ele><time>2026-05-01T11:11:12Z</time></trkpt><trkpt lat="42.008233056180835" lon="13.79526466197322"><ele>678.5</ele><time>2026-05-01T11:11:13Z</time></trkpt><trkpt lat="42.00814188178048" lon="13.795345309134836"><ele>674.25</ele><time>2026-05-01T11:11:14Z</time></trkpt><trkpt lat="42.00805395260596" lon="13.795437266285743"><ele>670.0</ele><time>2026-05-01T11:11:15Z</time></trkpt><trkpt lat="42.0079591719016" lon="13.795534471753454"><ele>670.0</ele><time>2026-05-01T11:11:16Z</time></trkpt><trkpt lat="42.007871631808435" lon="13.79562425136384"><ele>670.0</ele><time>2026-05-01T11:11:17Z</time></trkpt><trkpt lat="42.00777986462633" lon="13.795718366172974"><ele>670.0</ele><time>2026-05-01T11:11:18Z</time></trkpt><trkpt lat="42.00771635954934" lon="13.795801632541032"><ele>670.0</ele><time>2026-05-01T11:11:19Z</time></trkpt><trkpt lat="42.0076449473356" lon="13.795856654102815"><ele>670.0</ele><time>2026-05-01T11:11:20Z</time></trkpt><trkpt lat="42.00756693462378" lon="13.79588338449165"><ele>670.0</ele><time>2026-05-01T11:11:21Z</time></trkpt><trkpt lat="42.00754280744702" lon="13.795963627093585"><ele>670.0</ele><time>2026-05-01T11:11:32Z</time></trkpt><trkpt lat="42.00749226066176" lon="13.796016049477482"><ele>670.0</ele><time>2026-05-01T11:11:36Z</time></trkpt><trkpt lat="42.0074284715479" lon="13.796082205555088"><ele>670.0</ele><time>2026-05-01T11:11:37Z</time></trkpt><trkpt lat="42.00735088006213" lon="13.796162676170153"><ele>670.0</ele><time>2026-05-01T11:11:39Z</time></trkpt><trkpt lat="42.00726724473845" lon="13.796272476306706"><ele>670.0</ele><time>2026-05-01T11:11:41Z</time></trkpt><trkpt lat="42.00718482806294" lon="13.796318221566864"><ele>668.0</ele><time>2026-05-01T11:11:42Z</time></trkpt><trkpt lat="42.007077067544465" lon="13.796428532103187"><ele>666.0</ele><time>2026-05-01T11:11:43Z</time></trkpt><trkpt lat="42.00701373587024" lon="13.79646926661689"><ele>664.0</ele><time>2026-05-01T11:11:44Z</time></trkpt><trkpt lat="42.006959877753275" lon="13.796538734828143"><ele>662.0</ele><time>2026-05-01T11:11:45Z</time></trkpt><trkpt lat="42.00680355137032" lon="13.796671938840287"><ele>662.0</ele><time>2026-05-01T11:11:46Z</time></trkpt><trkpt lat="42.00669568977093" lon="13.796777964274993"><ele>662.0</ele><time>2026-05-01T11:11:47Z</time></trkpt><trkpt lat="42.006594363649015" lon="13.796884278855853"><ele>662.0</ele><time>2026-05-01T11:11:48Z</time></trkpt><trkpt lat="42.00648961263852" lon="13.796995170613933"><ele>662.0</ele><time>2026-05-01T11:11:49Z</time></trkpt><trkpt lat="42.006424499991006" lon="13.797117526242246"><ele>661.5</ele><time>2026-05-01T11:11:50Z</time></trkpt><trkpt lat="42.006360812513485" lon="13.797210378434574"><ele>661.0</ele><time>2026-05-01T11:11:51Z</time></trkpt><trkpt lat="42.006266649041464" lon="13.7973101139047"><ele>660.5</ele><time>2026-05-01T11:11:52Z</time></trkpt><trkpt lat="42.0061537804669" lon="13.797405768677734"><ele>660.0</ele><time>2026-05-01T11:11:53Z</time></trkpt><trkpt lat="42.00611087964746" lon="13.797542098060674"><ele>657.5</ele><time>2026-05-01T11:11:54Z</time></trkpt><trkpt lat="42.0060918501811" lon="13.797681854355588"><ele>655.0</ele><time>2026-05-01T11:11:55Z</time></trkpt><trkpt lat="42.00603901516878" lon="13.797880734754632"><ele>652.5</ele><time>2026-05-01T11:11:56Z</time></trkpt><trkpt lat="42.005953478646624" lon="13.79808970233253"><ele>650.0</ele><time>2026-05-01T11:11:57Z</time></trkpt><trkpt lat="42.0059016976796" lon="13.798230517548262"><ele>650.0</ele><time>2026-05-01T11:11:58Z</time></trkpt><trkpt lat="42.00583003373772" lon="13.798356232029176"><ele>650.0</ele><time>2026-05-01T11:11:59Z</time></trkpt><trkpt lat="42.00572337691387" lon="13.798508590589169"><ele>650.0</ele><time>2026-05-01T11:12:00Z</time></trkpt><trkpt lat="42.005605992503824" lon="13.79866256258983"><ele>650.0</ele><time>2026-05-01T11:12:00.999Z</time></trkpt><trkpt lat="42.005510554944706" lon="13.798789094612678"><ele>649.5</ele><time>2026-05-01T11:12:01.999Z</time></trkpt><trkpt lat="42.00539524261497" lon="13.798911987958062"><ele>649.0</ele><time>2026-05-01T11:12:02.999Z</time></trkpt><trkpt lat="42.0052934541998" lon="13.799022961122171"><ele>648.5</ele><time>2026-05-01T11:12:03.999Z</time></trkpt><trkpt lat="42.00520960840961" lon="13.799148377866281"><ele>648.0</ele><time>2026-05-01T11:12:04.999Z</time></trkpt><trkpt lat="42.0051038752379" lon="13.799247789295743"><ele>649.0</ele><time>2026-05-01T11:12:05.999Z</time></trkpt><trkpt lat="42.00498252240868" lon="13.799321316249422"><ele>650.0</ele><time>2026-05-01T11:12:06.999Z</time></trkpt><trkpt lat="42.004859577990985" lon="13.79939625827497"><ele>651.0</ele><time>2026-05-01T11:12:07.999Z</time></trkpt><trkpt lat="42.00476242947013" lon="13.79946161173463"><ele>652.0</ele><time>2026-05-01T11:12:08.999Z</time></trkpt><trkpt lat="42.00469470180338" lon="13.799531573930121"><ele>648.0</ele><time>2026-05-01T11:12:09.999Z</time></trkpt><trkpt lat="42.00458504349627" lon="13.799633813945436"><ele>644.0</ele><time>2026-05-01T11:12:10.999Z</time></trkpt><trkpt lat="42.00445558332847" lon="13.799713993586114"><ele>640.0</ele><time>2026-05-01T11:12:11.999Z</time></trkpt><trkpt lat="42.004301261662114" lon="13.799869072518037"><ele>641.0</ele><time>2026-05-01T11:12:12.999Z</time></trkpt><trkpt lat="42.004157901121545" lon="13.800029141618863"><ele>642.0</ele><time>2026-05-01T11:12:13.999Z</time></trkpt><trkpt lat="42.00397572426959" lon="13.80026169075458"><ele>643.0</ele><time>2026-05-01T11:12:14.999Z</time></trkpt><trkpt lat="42.003821180385756" lon="13.800447352413022"><ele>640.0</ele><time>2026-05-01T11:12:15.999Z</time></trkpt><trkpt lat="42.003668447978185" lon="13.800591477214681"><ele>637.0</ele><time>2026-05-01T11:12:16.999Z</time></trkpt><trkpt lat="42.003528522327485" lon="13.800733719134042"><ele>634.0</ele><time>2026-05-01T11:12:17.999Z</time></trkpt><trkpt lat="42.00338932709741" lon="13.800872446978547"><ele>632.3333333333334</ele><time>2026-05-01T11:12:18.999Z</time></trkpt><trkpt lat="42.00324436086079" lon="13.801013850848463"><ele>630.6666666666666</ele><time>2026-05-01T11:12:19.999Z</time></trkpt><trkpt lat="42.003120358023686" lon="13.80113086147949"><ele>629.0</ele><time>2026-05-01T11:12:20.999Z</time></trkpt><trkpt lat="42.00302135681199" lon="13.80122389224837"><ele>629.0</ele><time>2026-05-01T11:12:21.999Z</time></trkpt><trkpt lat="42.0029343759417" lon="13.80130475861457"><ele>629.0</ele><time>2026-05-01T11:12:22.999Z</time></trkpt><trkpt lat="42.002851667507976" lon="13.80138165289805"><ele>629.0</ele><time>2026-05-01T11:12:23.999Z</time></trkpt><trkpt lat="42.0027861688476" lon="13.801442547197597"><ele>629.0</ele><time>2026-05-01T11:12:24.999Z</time></trkpt><trkpt lat="42.00271564154267" lon="13.801507547982142"><ele>629.0</ele><time>2026-05-01T11:12:25.999Z</time></trkpt><trkpt lat="42.00265137257235" lon="13.801565952495345"><ele>629.0</ele><time>2026-05-01T11:12:26.999Z</time></trkpt><trkpt lat="42.00258192208679" lon="13.801629065716833"><ele>629.0</ele><time>2026-05-01T11:12:27.999Z</time></trkpt><trkpt lat="42.002520213431524" lon="13.801711984260264"><ele>629.0</ele><time>2026-05-01T11:12:28.999Z</time></trkpt><trkpt lat="42.00244959306495" lon="13.801729271512544"><ele>629.0</ele><time>2026-05-01T11:12:29.999Z</time></trkpt><trkpt lat="42.00237576675528" lon="13.801778650500442"><ele>629.0</ele><time>2026-05-01T11:12:30.999Z</time></trkpt><trkpt lat="42.00232478988373" lon="13.801860869747973"><ele>629.0</ele><time>2026-05-01T11:12:31.999Z</time></trkpt><trkpt lat="42.00227534739935" lon="13.801958346900191"><ele>629.0</ele><time>2026-05-01T11:12:32.999Z</time></trkpt><trkpt lat="42.002235588176745" lon="13.80205093999181"><ele>628.0</ele><time>2026-05-01T11:12:33.999Z</time></trkpt><trkpt lat="42.00217880952551" lon="13.802180473446946"><ele>627.0</ele><time>2026-05-01T11:12:34.999Z</time></trkpt><trkpt lat="42.00218153503444" lon="13.802378350218708"><ele>626.0</ele><time>2026-05-01T11:12:35.999Z</time></trkpt><trkpt lat="42.00214668960013" lon="13.802486388294348"><ele>625.0</ele><time>2026-05-01T11:12:36.999Z</time></trkpt><trkpt lat="42.00208744687249" lon="13.802644828486166"><ele>622.5</ele><time>2026-05-01T11:12:37.999Z</time></trkpt><trkpt lat="42.00200615899937" lon="13.802800097592089"><ele>620.0</ele><time>2026-05-01T11:12:38.999Z</time></trkpt><trkpt lat="42.001933908633106" lon="13.802890871327667"><ele>617.5</ele><time>2026-05-01T11:12:39.999Z</time></trkpt><trkpt lat="42.001836088630284" lon="13.803033563728505"><ele>615.0</ele><time>2026-05-01T11:12:40.999Z</time></trkpt><trkpt lat="42.00177376042922" lon="13.803130618697962"><ele>615.0</ele><time>2026-05-01T11:12:41.999Z</time></trkpt><trkpt lat="42.001713378053324" lon="13.803191344968399"><ele>615.0</ele><time>2026-05-01T11:12:42.999Z</time></trkpt><trkpt lat="42.00166887988406" lon="13.803253640507144"><ele>615.0</ele><time>2026-05-01T11:12:43.999Z</time></trkpt><trkpt lat="42.00160087916375" lon="13.803291866603082"><ele>615.0</ele><time>2026-05-01T11:12:44.999Z</time></trkpt><trkpt lat="42.00153782969964" lon="13.803313018773784"><ele>615.0</ele><time>2026-05-01T11:12:45.999Z</time></trkpt><trkpt lat="42.001452278587514" lon="13.803338168262798"><ele>615.0</ele><time>2026-05-01T11:12:47.999Z</time></trkpt><trkpt lat="42.0013589698934" lon="13.80336318680841"><ele>614.5</ele><time>2026-05-01T11:12:49.999Z</time></trkpt><trkpt lat="42.0012909207607" lon="13.803375832502248"><ele>614.0</ele><time>2026-05-01T11:12:51.999Z</time></trkpt><trkpt lat="42.00118274753057" lon="13.80338657520307"><ele>613.5</ele><time>2026-05-01T11:12:53.999Z</time></trkpt><trkpt lat="42.00111221321055" lon="13.803362442289885"><ele>613.0</ele><time>2026-05-01T11:12:55.999Z</time></trkpt><trkpt lat="42.001034591662176" lon="13.803317357032883"><ele>612.5</ele><time>2026-05-01T11:12:57.999Z</time></trkpt><trkpt lat="42.00093606658606" lon="13.80326166516861"><ele>612.0</ele><time>2026-05-01T11:12:58.999Z</time></trkpt><trkpt lat="42.00085317605232" lon="13.80321108395016"><ele>610.2</ele><time>2026-05-01T11:12:59.999Z</time></trkpt><trkpt lat="42.00074923435125" lon="13.803148814733069"><ele>608.4000000000001</ele><time>2026-05-01T11:13:00.998Z</time></trkpt><trkpt lat="42.00066279924841" lon="13.80309777531646"><ele>606.5999999999999</ele><time>2026-05-01T11:13:01.998Z</time></trkpt><trkpt lat="42.000582024719655" lon="13.8030527462783"><ele>604.8</ele><time>2026-05-01T11:13:03Z</time></trkpt><trkpt lat="42.00049526442258" lon="13.803004380331569"><ele>603.0</ele><time>2026-05-01T11:13:04Z</time></trkpt><trkpt lat="42.00041037712474" lon="13.802957058520672"><ele>603.0</ele><time>2026-05-01T11:13:05Z</time></trkpt><trkpt lat="42.00033298453913" lon="13.802913914754413"><ele>603.0</ele><time>2026-05-01T11:13:06Z</time></trkpt><trkpt lat="42.00025870063314" lon="13.802873395579219"><ele>603.0</ele><time>2026-05-01T11:13:07Z</time></trkpt><trkpt lat="42.00019014007456" lon="13.80283476122079"><ele>603.0</ele><time>2026-05-01T11:13:08Z</time></trkpt><trkpt lat="42.00012434227824" lon="13.802796210373508"><ele>603.0</ele><time>2026-05-01T11:13:09Z</time></trkpt><trkpt lat="42.00002095581112" lon="13.802759891140425"><ele>603.0</ele><time>2026-05-01T11:13:10Z</time></trkpt><trkpt lat="41.99992921757018" lon="13.802766151262228"><ele>603.0</ele><time>2026-05-01T11:13:11Z</time></trkpt><trkpt lat="41.99987424057287" lon="13.802813727959434"><ele>603.0</ele><time>2026-05-01T11:13:12Z</time></trkpt><trkpt lat="41.99980179279743" lon="13.802819521307768"><ele>603.0</ele><time>2026-05-01T11:13:13Z</time></trkpt><trkpt lat="41.99973431625027" lon="13.802830256337081"><ele>603.0</ele><time>2026-05-01T11:13:14Z</time></trkpt><trkpt lat="41.9996640731362" lon="13.802851027413318"><ele>603.0</ele><time>2026-05-01T11:13:15Z</time></trkpt><trkpt lat="41.99960105307299" lon="13.802896942206177"><ele>603.0</ele><time>2026-05-01T11:13:16Z</time></trkpt><trkpt lat="41.999474412582046" lon="13.802978417731778"><ele>603.0</ele><time>2026-05-01T11:13:18Z</time></trkpt><trkpt lat="41.999378298593335" lon="13.803039536750715"><ele>603.0</ele><time>2026-05-01T11:13:19Z</time></trkpt><trkpt lat="41.99928241273493" lon="13.803101571808323"><ele>603.0</ele><time>2026-05-01T11:13:20Z</time></trkpt><trkpt lat="41.999207016488995" lon="13.8031603471666"><ele>603.0</ele><time>2026-05-01T11:13:21Z</time></trkpt><trkpt lat="41.99913622747593" lon="13.803218040405726"><ele>603.0</ele><time>2026-05-01T11:13:22Z</time></trkpt><trkpt lat="41.99906834105834" lon="13.803260755972236"><ele>602.8333333333334</ele><time>2026-05-01T11:13:23Z</time></trkpt><trkpt lat="41.99900676429257" lon="13.803328399232884"><ele>602.6666666666666</ele><time>2026-05-01T11:13:24Z</time></trkpt><trkpt lat="41.998945324625645" lon="13.803414811720042"><ele>602.5</ele><time>2026-05-01T11:13:25Z</time></trkpt><trkpt lat="41.99889577681385" lon="13.803496325954887"><ele>602.3333333333333</ele><time>2026-05-01T11:13:26Z</time></trkpt><trkpt lat="41.99885587756759" lon="13.803568677277848"><ele>602.1666666666666</ele><time>2026-05-01T11:13:27Z</time></trkpt><trkpt lat="41.99881436241741" lon="13.803655740986393"><ele>602.0</ele><time>2026-05-01T11:13:28Z</time></trkpt><trkpt lat="41.998769861066904" lon="13.803743210805338"><ele>600.1666666666666</ele><time>2026-05-01T11:13:29Z</time></trkpt><trkpt lat="41.99871999716371" lon="13.803827399145272"><ele>598.3333333333333</ele><time>2026-05-01T11:13:30Z</time></trkpt><trkpt lat="41.998664096291584" lon="13.803907305270155"><ele>596.5</ele><time>2026-05-01T11:13:31Z</time></trkpt><trkpt lat="41.99860822848659" lon="13.80398874344017"><ele>594.6666666666666</ele><time>2026-05-01T11:13:32Z</time></trkpt><trkpt lat="41.99854912041939" lon="13.804064677199438"><ele>592.8333333333334</ele><time>2026-05-01T11:13:33Z</time></trkpt><trkpt lat="41.998484175306146" lon="13.804120661208888"><ele>591.0</ele><time>2026-05-01T11:13:34Z</time></trkpt><trkpt lat="41.998407788783474" lon="13.80411912370304"><ele>591.6</ele><time>2026-05-01T11:13:35Z</time></trkpt><trkpt lat="41.99829936047162" lon="13.804093283747832"><ele>592.2</ele><time>2026-05-01T11:13:37Z</time></trkpt><trkpt lat="41.998211782081356" lon="13.804045823259719"><ele>592.8</ele><time>2026-05-01T11:13:39Z</time></trkpt><trkpt lat="41.998108553310665" lon="13.803995259549815"><ele>593.4</ele><time>2026-05-01T11:13:41Z</time></trkpt><trkpt lat="41.998049974095935" lon="13.803964001410538"><ele>594.0</ele><time>2026-05-01T11:13:42Z</time></trkpt><trkpt lat="41.99794267613856" lon="13.803900268646048"><ele>594.0</ele><time>2026-05-01T11:13:44Z</time></trkpt><trkpt lat="41.99786512442256" lon="13.803852664872966"><ele>594.0</ele><time>2026-05-01T11:13:45Z</time></trkpt><trkpt lat="41.997798455771566" lon="13.803830880668508"><ele>594.0</ele><time>2026-05-01T11:13:46Z</time></trkpt><trkpt lat="41.99769195456709" lon="13.803761037212665"><ele>594.0</ele><time>2026-05-01T11:13:48Z</time></trkpt><trkpt lat="41.99758527524057" lon="13.803702619411686"><ele>594.0</ele><time>2026-05-01T11:13:50Z</time></trkpt><trkpt lat="41.99747266651261" lon="13.803642432507992"><ele>591.75</ele><time>2026-05-01T11:13:52Z</time></trkpt><trkpt lat="41.99736986426098" lon="13.803607744779901"><ele>589.5</ele><time>2026-05-01T11:13:54Z</time></trkpt><trkpt lat="41.99727887647099" lon="13.80358218225808"><ele>587.25</ele><time>2026-05-01T11:13:56Z</time></trkpt><trkpt lat="41.997197718839494" lon="13.80354014031633"><ele>585.0</ele><time>2026-05-01T11:13:58Z</time></trkpt><trkpt lat="41.996994713972704" lon="13.803656923001778"><ele>585.0</ele><time>2026-05-01T11:14:37.999Z</time></trkpt><trkpt lat="41.996911490390175" lon="13.803687029538018"><ele>585.0</ele><time>2026-05-01T11:14:38.999Z</time></trkpt><trkpt lat="41.99681496296139" lon="13.80370928517474"><ele>585.0</ele><time>2026-05-01T11:14:39.999Z</time></trkpt><trkpt lat="41.99673378535833" lon="13.80374083221943"><ele>585.0</ele><time>2026-05-01T11:14:40.999Z</time></trkpt><trkpt lat="41.996656079159806" lon="13.803769464400274"><ele>585.0</ele><time>2026-05-01T11:14:41.999Z</time></trkpt><trkpt lat="41.99657478826086" lon="13.80378577649674"><ele>585.0</ele><time>2026-05-01T11:14:42.999Z</time></trkpt><trkpt lat="41.99649741228032" lon="13.80381288750547"><ele>584.6666666666666</ele><time>2026-05-01T11:14:43.999Z</time></trkpt><trkpt lat="41.99642030540964" lon="13.803847155225268"><ele>584.3333333333334</ele><time>2026-05-01T11:14:44.999Z</time></trkpt><trkpt lat="41.99635035823325" lon="13.803863302952328"><ele>584.0</ele><time>2026-05-01T11:14:45.999Z</time></trkpt><trkpt lat="41.996278612397" lon="13.803858980094864"><ele>583.6666666666667</ele><time>2026-05-01T11:14:46.999Z</time></trkpt><trkpt lat="41.996208868639336" lon="13.803852609175014"><ele>583.3333333333334</ele><time>2026-05-01T11:14:47.999Z</time></trkpt><trkpt lat="41.99609184400238" lon="13.803855485025611"><ele>583.0</ele><time>2026-05-01T11:14:49.999Z</time></trkpt><trkpt lat="41.996005233578096" lon="13.803784636867164"><ele>583.0</ele><time>2026-05-01T11:14:51.999Z</time></trkpt><trkpt lat="41.995908926502366" lon="13.803765074367517"><ele>583.0</ele><time>2026-05-01T11:14:52.999Z</time></trkpt><trkpt lat="41.99579113055405" lon="13.803744509674253"><ele>583.0</ele><time>2026-05-01T11:14:53.999Z</time></trkpt><trkpt lat="41.99563735114741" lon="13.803710899891547"><ele>583.0</ele><time>2026-05-01T11:14:54.999Z</time></trkpt><trkpt lat="41.995526550161536" lon="13.803678382541372"><ele>582.1999999999999</ele><time>2026-05-01T11:14:55.999Z</time></trkpt><trkpt lat="41.99539943864939" lon="13.80364621049168"><ele>581.4</ele><time>2026-05-01T11:14:56.999Z</time></trkpt><trkpt lat="41.99528553115692" lon="13.803634268165696"><ele>580.5999999999999</ele><time>2026-05-01T11:14:57.999Z</time></trkpt><trkpt lat="41.995190995732166" lon="13.803592707524295"><ele>579.8</ele><time>2026-05-01T11:14:58.999Z</time></trkpt><trkpt lat="41.99512995093021" lon="13.80362155740252"><ele>579.0</ele><time>2026-05-01T11:14:59.999Z</time></trkpt><trkpt lat="41.995041013069326" lon="13.803663685193163"><ele>578.8333333333334</ele><time>2026-05-01T11:15:03.998Z</time></trkpt><trkpt lat="41.99492710859994" lon="13.803640105411809"><ele>578.6666666666666</ele><time>2026-05-01T11:15:05.998Z</time></trkpt><trkpt lat="41.99486538580455" lon="13.803617876303749"><ele>578.5</ele><time>2026-05-01T11:15:06.998Z</time></trkpt><trkpt lat="41.994800419036714" lon="13.803618912660623"><ele>578.3333333333333</ele><time>2026-05-01T11:15:07.998Z</time></trkpt><trkpt lat="41.99471757367404" lon="13.80361388351861"><ele>578.1666666666666</ele><time>2026-05-01T11:15:09Z</time></trkpt><trkpt lat="41.99463316222061" lon="13.803584145284901"><ele>578.0</ele><time>2026-05-01T11:15:10Z</time></trkpt><trkpt lat="41.99454114273165" lon="13.803532894440028"><ele>578.0</ele><time>2026-05-01T11:15:12Z</time></trkpt><trkpt lat="41.994443045958114" lon="13.803515177887018"><ele>578.0</ele><time>2026-05-01T11:15:15Z</time></trkpt><trkpt lat="41.994359460813506" lon="13.80352326582123"><ele>578.0</ele><time>2026-05-01T11:15:17Z</time></trkpt><trkpt lat="41.99429694635063" lon="13.803540205404717"><ele>578.0</ele><time>2026-05-01T11:15:18Z</time></trkpt><trkpt lat="41.99421182888735" lon="13.803566794612603"><ele>578.0</ele><time>2026-05-01T11:15:20Z</time></trkpt><trkpt lat="41.99412046146123" lon="13.803610854856892"><ele>578.0</ele><time>2026-05-01T11:15:22Z</time></trkpt><trkpt lat="41.99401495956293" lon="13.80367446556566"><ele>578.0</ele><time>2026-05-01T11:15:24Z</time></trkpt><trkpt lat="41.99393144676133" lon="13.803746324644694"><ele>578.0</ele><time>2026-05-01T11:15:26Z</time></trkpt><trkpt lat="41.993863768651686" lon="13.803821799765979"><ele>578.0</ele><time>2026-05-01T11:15:28Z</time></trkpt><trkpt lat="41.993804222447956" lon="13.803873159833682"><ele>578.0</ele><time>2026-05-01T11:15:30Z</time></trkpt><trkpt lat="41.993731778049444" lon="13.803861153566686"><ele>578.0</ele><time>2026-05-01T11:15:32Z</time></trkpt><trkpt lat="41.99364212230563" lon="13.803781111886366"><ele>578.0</ele><time>2026-05-01T11:15:34Z</time></trkpt><trkpt lat="41.99357777861223" lon="13.803745019459768"><ele>578.0</ele><time>2026-05-01T11:15:35Z</time></trkpt><trkpt lat="41.99351470112765" lon="13.803734875331374"><ele>578.0</ele><time>2026-05-01T11:15:36Z</time></trkpt><trkpt lat="41.99341652920905" lon="13.803671054153789"><ele>578.0</ele><time>2026-05-01T11:15:38Z</time></trkpt><trkpt lat="41.99332139486167" lon="13.803628230205058"><ele>578.0</ele><time>2026-05-01T11:15:40Z</time></trkpt><trkpt lat="41.993259014075" lon="13.803578926082828"><ele>578.0</ele><time>2026-05-01T11:15:42Z</time></trkpt><trkpt lat="41.9932651527129" lon="13.803452149149171"><ele>578.0</ele><time>2026-05-01T11:15:44Z</time></trkpt><trkpt lat="41.993260171683076" lon="13.803353043112878"><ele>581.0</ele><time>2026-05-01T11:15:46Z</time></trkpt><trkpt lat="41.99328181831194" lon="13.803252641218375"><ele>584.0</ele><time>2026-05-01T11:15:48Z</time></trkpt><trkpt lat="41.99333722669037" lon="13.803132554894512"><ele>587.0</ele><time>2026-05-01T11:15:50Z</time></trkpt><trkpt lat="41.993402308106745" lon="13.803036307670562"><ele>590.0</ele><time>2026-05-01T11:15:52Z</time></trkpt><trkpt lat="41.99341432950192" lon="13.802950352731838"><ele>593.0</ele><time>2026-05-01T11:15:53Z</time></trkpt><trkpt lat="41.99347037034522" lon="13.802819132147052"><ele>594.0</ele><time>2026-05-01T11:15:55Z</time></trkpt><trkpt lat="41.99352000300269" lon="13.802673040828372"><ele>595.0</ele><time>2026-05-01T11:15:57Z</time></trkpt><trkpt lat="41.99356200997417" lon="13.80260445006136"><ele>596.0</ele><time>2026-05-01T11:15:58Z</time></trkpt><trkpt lat="41.993623359199496" lon="13.802443943497671"><ele>597.0</ele><time>2026-05-01T11:16:00Z</time></trkpt><trkpt lat="41.993654269302844" lon="13.802365989986672"><ele>598.0</ele><time>2026-05-01T11:16:01Z</time></trkpt><trkpt lat="41.993696229556484" lon="13.802282739189593"><ele>599.6666666666667</ele><time>2026-05-01T11:16:02Z</time></trkpt><trkpt lat="41.99374799700835" lon="13.802216335168367"><ele>601.3333333333334</ele><time>2026-05-01T11:16:03Z</time></trkpt><trkpt lat="41.993807312728016" lon="13.802161335595551"><ele>603.0</ele><time>2026-05-01T11:16:04Z</time></trkpt><trkpt lat="41.99386752750827" lon="13.802099588159864"><ele>604.6666666666666</ele><time>2026-05-01T11:16:05Z</time></trkpt><trkpt lat="41.99392639282788" lon="13.802035918688796"><ele>606.3333333333333</ele><time>2026-05-01T11:16:06Z</time></trkpt><trkpt lat="41.99398543618796" lon="13.801960820222764"><ele>608.0</ele><time>2026-05-01T11:16:07Z</time></trkpt><trkpt lat="41.99403737118799" lon="13.801873743614026"><ele>607.0</ele><time>2026-05-01T11:16:07.999Z</time></trkpt><trkpt lat="41.99408344857533" lon="13.801778399518977"><ele>606.0</ele><time>2026-05-01T11:16:08.999Z</time></trkpt><trkpt lat="41.994118942762036" lon="13.801684076959289"><ele>605.0</ele><time>2026-05-01T11:16:09.999Z</time></trkpt><trkpt lat="41.99414043149077" lon="13.801600340478354"><ele>604.0</ele><time>2026-05-01T11:16:10.999Z</time></trkpt><trkpt lat="41.994155779102954" lon="13.801470876835689"><ele>603.0</ele><time>2026-05-01T11:16:12.999Z</time></trkpt><trkpt lat="41.99414702623441" lon="13.801273411368108"><ele>603.0</ele><time>2026-05-01T11:16:14.999Z</time></trkpt><trkpt lat="41.994126357373474" lon="13.801145666234083"><ele>603.0</ele><time>2026-05-01T11:16:15.999Z</time></trkpt><trkpt lat="41.994099343201704" lon="13.800987385118871"><ele>603.0</ele><time>2026-05-01T11:16:16.999Z</time></trkpt><trkpt lat="41.9940644399647" lon="13.80080766970006"><ele>603.0</ele><time>2026-05-01T11:16:17.999Z</time></trkpt><trkpt lat="41.99402122273551" lon="13.800631678557222"><ele>605.0</ele><time>2026-05-01T11:16:18.999Z</time></trkpt><trkpt lat="41.99397299094107" lon="13.800452079946554"><ele>607.0</ele><time>2026-05-01T11:16:19.999Z</time></trkpt><trkpt lat="41.99392301341374" lon="13.800289706132366"><ele>609.0</ele><time>2026-05-01T11:16:20.999Z</time></trkpt><trkpt lat="41.99386059362104" lon="13.800159782064867"><ele>611.0</ele><time>2026-05-01T11:16:21.999Z</time></trkpt><trkpt lat="41.993822586926164" lon="13.800035347075623"><ele>614.0</ele><time>2026-05-01T11:16:22.999Z</time></trkpt><trkpt lat="41.9937597499299" lon="13.799940898580212"><ele>617.0</ele><time>2026-05-01T11:16:23.999Z</time></trkpt><trkpt lat="41.993659964069316" lon="13.799891610269293"><ele>620.0</ele><time>2026-05-01T11:16:24.999Z</time></trkpt><trkpt lat="41.9935566007788" lon="13.799880257805972"><ele>623.0</ele><time>2026-05-01T11:16:25.999Z</time></trkpt><trkpt lat="41.99345626608334" lon="13.799868580058776"><ele>626.0</ele><time>2026-05-01T11:16:26.999Z</time></trkpt><trkpt lat="41.99336298571439" lon="13.799848019204264"><ele>623.2</ele><time>2026-05-01T11:16:27.999Z</time></trkpt><trkpt lat="41.99327290455222" lon="13.799796961144983"><ele>620.4000000000001</ele><time>2026-05-01T11:16:28.999Z</time></trkpt><trkpt lat="41.993203001001554" lon="13.799710753822442"><ele>617.6</ele><time>2026-05-01T11:16:29.999Z</time></trkpt><trkpt lat="41.993131609144804" lon="13.799608751276866"><ele>614.8000000000001</ele><time>2026-05-01T11:16:30.999Z</time></trkpt><trkpt lat="41.99306625519631" lon="13.79950587297137"><ele>612.0</ele><time>2026-05-01T11:16:31.999Z</time></trkpt><trkpt lat="41.99298155037011" lon="13.799442080615842"><ele>612.0</ele><time>2026-05-01T11:16:32.999Z</time></trkpt><trkpt lat="41.99289135364354" lon="13.799446974431977"><ele>612.0</ele><time>2026-05-01T11:16:33.999Z</time></trkpt><trkpt lat="41.99282524598651" lon="13.799460799196929"><ele>612.0</ele><time>2026-05-01T11:16:34.999Z</time></trkpt><trkpt lat="41.99273255884605" lon="13.799450642549417"><ele>612.0</ele><time>2026-05-01T11:16:36.999Z</time></trkpt><trkpt lat="41.99267603887693" lon="13.799325018766277"><ele>612.0</ele><time>2026-05-01T11:16:38.999Z</time></trkpt><trkpt lat="41.99255851800192" lon="13.799354350631827"><ele>610.5</ele><time>2026-05-01T11:16:40.999Z</time></trkpt><trkpt lat="41.99249193177388" lon="13.799427760922756"><ele>609.0</ele><time>2026-05-01T11:16:41.999Z</time></trkpt><trkpt lat="41.99241688318404" lon="13.79949650402356"><ele>607.5</ele><time>2026-05-01T11:16:42.999Z</time></trkpt><trkpt lat="41.99235243705813" lon="13.799562947334001"><ele>606.0</ele><time>2026-05-01T11:16:43.999Z</time></trkpt><trkpt lat="41.992276205105824" lon="13.799612820163844"><ele>604.5</ele><time>2026-05-01T11:16:44.999Z</time></trkpt><trkpt lat="41.9921889101206" lon="13.799645946087955"><ele>603.0</ele><time>2026-05-01T11:16:45.999Z</time></trkpt><trkpt lat="41.9921185788698" lon="13.799726751321856"><ele>603.0</ele><time>2026-05-01T11:16:46.999Z</time></trkpt><trkpt lat="41.992059048093104" lon="13.799810133396333"><ele>603.0</ele><time>2026-05-01T11:16:47.999Z</time></trkpt><trkpt lat="41.99200233062389" lon="13.79988756524665"><ele>603.0</ele><time>2026-05-01T11:16:48.999Z</time></trkpt><trkpt lat="41.99192816004122" lon="13.79993791290989"><ele>603.0</ele><time>2026-05-01T11:16:49.999Z</time></trkpt><trkpt lat="41.991856385710015" lon="13.799898540789647"><ele>603.0</ele><time>2026-05-01T11:16:50.999Z</time></trkpt><trkpt lat="41.991792743777424" lon="13.799870992249268"><ele>603.0</ele><time>2026-05-01T11:16:51.999Z</time></trkpt><trkpt lat="41.99176418031639" lon="13.79976697723282"><ele>603.0</ele><time>2026-05-01T11:16:52.999Z</time></trkpt><trkpt lat="41.9917159847484" lon="13.799681460384091"><ele>603.0</ele><time>2026-05-01T11:16:53.999Z</time></trkpt><trkpt lat="41.99168330667381" lon="13.79960855673484"><ele>603.0</ele><time>2026-05-01T11:16:54.999Z</time></trkpt><trkpt lat="41.99162900681429" lon="13.79949409356997"><ele>603.0</ele><time>2026-05-01T11:16:56.999Z</time></trkpt><trkpt lat="41.9915529321981" lon="13.799451418934503"><ele>603.0</ele><time>2026-05-01T11:16:58.999Z</time></trkpt><trkpt lat="41.99147509490934" lon="13.799313696223042"><ele>610.8571428571429</ele><time>2026-05-01T11:17:00.999Z</time></trkpt><trkpt lat="41.9914312940471" lon="13.799230035390513"><ele>618.7142857142857</ele><time>2026-05-01T11:17:01.999Z</time></trkpt><trkpt lat="41.99137944391632" lon="13.799161491410754"><ele>626.5714285714286</ele><time>2026-05-01T11:17:02.999Z</time></trkpt><trkpt lat="41.991328572193474" lon="13.799093749228945"><ele>634.4285714285714</ele><time>2026-05-01T11:17:03.999Z</time></trkpt><trkpt lat="41.991283521882664" lon="13.799032697952297"><ele>642.2857142857142</ele><time>2026-05-01T11:17:04.999Z</time></trkpt><trkpt lat="41.99123558772066" lon="13.798967182939787"><ele>650.1428571428571</ele><time>2026-05-01T11:17:05.999Z</time></trkpt><trkpt lat="41.99118462355203" lon="13.798897526578836"><ele>658.0</ele><time>2026-05-01T11:17:06.998Z</time></trkpt><trkpt lat="41.9911396288356" lon="13.798836029085807"><ele>658.0</ele><time>2026-05-01T11:17:07.998Z</time></trkpt><trkpt lat="41.991080932057145" lon="13.798757553962417"><ele>658.0</ele><time>2026-05-01T11:17:09.063Z</time></trkpt><trkpt lat="41.9907764015739" lon="13.798436441147516"><ele>654.0</ele><time>2026-05-01T11:17:11.998Z</time></trkpt><trkpt lat="41.99067516977008" lon="13.798432411808882"><ele>650.0</ele><time>2026-05-01T11:17:12.998Z</time></trkpt><trkpt lat="41.990592201746054" lon="13.798339098267668"><ele>646.0</ele><time>2026-05-01T11:17:13.998Z</time></trkpt><trkpt lat="41.990515188499856" lon="13.798373657158475"><ele>642.0</ele><time>2026-05-01T11:17:14.998Z</time></trkpt><trkpt lat="41.99044860655466" lon="13.798510065629317"><ele>638.0</ele><time>2026-05-01T11:17:15.998Z</time></trkpt><trkpt lat="41.99038075303583" lon="13.798633690217732"><ele>638.0</ele><time>2026-05-01T11:17:17.999Z</time></trkpt><trkpt lat="41.99031673338277" lon="13.798751119737796"><ele>638.0</ele><time>2026-05-01T11:17:19.999Z</time></trkpt><trkpt lat="41.9902682826242" lon="13.79881110779433"><ele>638.0</ele><time>2026-05-01T11:17:20.999Z</time></trkpt><trkpt lat="41.990216461191174" lon="13.798870461122764"><ele>638.0</ele><time>2026-05-01T11:17:21.999Z</time></trkpt><trkpt lat="41.99014257849553" lon="13.798901563298859"><ele>638.0</ele><time>2026-05-01T11:17:22.999Z</time></trkpt><trkpt lat="41.99006782471911" lon="13.79899396099945"><ele>638.0</ele><time>2026-05-01T11:17:23.999Z</time></trkpt><trkpt lat="41.990011884438715" lon="13.799067529226821"><ele>636.0</ele><time>2026-05-01T11:17:24.999Z</time></trkpt><trkpt lat="41.98994414921028" lon="13.799141335781583"><ele>634.0</ele><time>2026-05-01T11:17:25.999Z</time></trkpt><trkpt lat="41.98986626105098" lon="13.799192354082042"><ele>632.0</ele><time>2026-05-01T11:17:26.999Z</time></trkpt><trkpt lat="41.98978132268514" lon="13.799209728437054"><ele>630.0</ele><time>2026-05-01T11:17:27.999Z</time></trkpt><trkpt lat="41.989695270956055" lon="13.799172681888056"><ele>628.0</ele><time>2026-05-01T11:17:28.999Z</time></trkpt><trkpt lat="41.9895999765646" lon="13.799141301558326"><ele>626.0</ele><time>2026-05-01T11:17:29.999Z</time></trkpt><trkpt lat="41.98950557552029" lon="13.799124711575686"><ele>626.0</ele><time>2026-05-01T11:17:30.999Z</time></trkpt><trkpt lat="41.989418395209974" lon="13.799118487584758"><ele>626.0</ele><time>2026-05-01T11:17:31.999Z</time></trkpt><trkpt lat="41.98931981226709" lon="13.79921935353694"><ele>626.0</ele><time>2026-05-01T11:17:32.999Z</time></trkpt><trkpt lat="41.98922364537723" lon="13.79928145353732"><ele>626.0</ele><time>2026-05-01T11:17:33.999Z</time></trkpt><trkpt lat="41.98914478183217" lon="13.7992998568027"><ele>626.0</ele><time>2026-05-01T11:17:34.999Z</time></trkpt><trkpt lat="41.98905272998668" lon="13.79935292286636"><ele>635.4</ele><time>2026-05-01T11:17:35.999Z</time></trkpt><trkpt lat="41.98895599313121" lon="13.79939555297611"><ele>644.8</ele><time>2026-05-01T11:17:36.999Z</time></trkpt><trkpt lat="41.98885420332221" lon="13.799417563773021"><ele>654.1999999999999</ele><time>2026-05-01T11:17:37.999Z</time></trkpt><trkpt lat="41.9887493196747" lon="13.799362108473064"><ele>663.6</ele><time>2026-05-01T11:17:38.999Z</time></trkpt><trkpt lat="41.98862923492859" lon="13.79934246152124"><ele>673.0</ele><time>2026-05-01T11:17:39.999Z</time></trkpt><trkpt lat="41.98851536797705" lon="13.799319516206362"><ele>660.6</ele><time>2026-05-01T11:17:40.999Z</time></trkpt><trkpt lat="41.98839625234884" lon="13.799344906976465"><ele>648.1999999999999</ele><time>2026-05-01T11:17:41.999Z</time></trkpt><trkpt lat="41.98828607884742" lon="13.799387882435663"><ele>635.8</ele><time>2026-05-01T11:17:42.999Z</time></trkpt><trkpt lat="41.988186058905036" lon="13.799438933186439"><ele>623.4</ele><time>2026-05-01T11:17:43.999Z</time></trkpt><trkpt lat="41.98808837822387" lon="13.799480116926432"><ele>611.0</ele><time>2026-05-01T11:17:44.999Z</time></trkpt><trkpt lat="41.98798766141346" lon="13.79951759766688"><ele>611.0</ele><time>2026-05-01T11:17:45.999Z</time></trkpt><trkpt lat="41.987882675660856" lon="13.799547438140646"><ele>611.0</ele><time>2026-05-01T11:17:46.999Z</time></trkpt><trkpt lat="41.987773666131694" lon="13.799563605447654"><ele>611.0</ele><time>2026-05-01T11:17:47.999Z</time></trkpt><trkpt lat="41.98766490270162" lon="13.799549434374509"><ele>611.0</ele><time>2026-05-01T11:17:48.999Z</time></trkpt><trkpt lat="41.98757090462968" lon="13.799460516637364"><ele>611.0</ele><time>2026-05-01T11:17:49.999Z</time></trkpt><trkpt lat="41.98746866766605" lon="13.799439785669627"><ele>611.8</ele><time>2026-05-01T11:17:50.999Z</time></trkpt><trkpt lat="41.987369945953226" lon="13.799438991380967"><ele>612.6</ele><time>2026-05-01T11:17:51.999Z</time></trkpt><trkpt lat="41.98727427581831" lon="13.799500453159403"><ele>613.4</ele><time>2026-05-01T11:17:52.999Z</time></trkpt><trkpt lat="41.98718974103245" lon="13.799590067698214"><ele>614.2</ele><time>2026-05-01T11:17:53.999Z</time></trkpt><trkpt lat="41.987106713693045" lon="13.799665127045815"><ele>615.0</ele><time>2026-05-01T11:17:54.999Z</time></trkpt><trkpt lat="41.98700751863011" lon="13.799711987016506"><ele>615.0</ele><time>2026-05-01T11:17:55.999Z</time></trkpt><trkpt lat="41.98689648665922" lon="13.799713071051961"><ele>615.0</ele><time>2026-05-01T11:17:56.999Z</time></trkpt><trkpt lat="41.986809028613564" lon="13.799661341787331"><ele>615.0</ele><time>2026-05-01T11:17:57.999Z</time></trkpt><trkpt lat="41.986680741675244" lon="13.79965705246018"><ele>615.0</ele><time>2026-05-01T11:17:58.999Z</time></trkpt><trkpt lat="41.98656758929332" lon="13.799667606303222"><ele>615.0</ele><time>2026-05-01T11:17:59.999Z</time></trkpt><trkpt lat="41.98646744288426" lon="13.79970273186633"><ele>617.6</ele><time>2026-05-01T11:18:00.999Z</time></trkpt><trkpt lat="41.98637521094991" lon="13.799759739120546"><ele>620.2</ele><time>2026-05-01T11:18:01.999Z</time></trkpt><trkpt lat="41.98630646669037" lon="13.799840432310576"><ele>622.8</ele><time>2026-05-01T11:18:02.999Z</time></trkpt><trkpt lat="41.98628983923395" lon="13.799969419966764"><ele>625.4</ele><time>2026-05-01T11:18:03.999Z</time></trkpt><trkpt lat="41.98629212110068" lon="13.800100805373969"><ele>628.0</ele><time>2026-05-01T11:18:04.999Z</time></trkpt><trkpt lat="41.986305896140856" lon="13.800213692101787"><ele>623.0</ele><time>2026-05-01T11:18:05.999Z</time></trkpt><trkpt lat="41.9863199395639" lon="13.800311598138043"><ele>618.0</ele><time>2026-05-01T11:18:06.999Z</time></trkpt><trkpt lat="41.98632233488432" lon="13.800400762183099"><ele>613.0</ele><time>2026-05-01T11:18:07.999Z</time></trkpt><trkpt lat="41.98630421464221" lon="13.800493668527826"><ele>608.0</ele><time>2026-05-01T11:18:08.999Z</time></trkpt><trkpt lat="41.9862576104695" lon="13.80058244779873"><ele>603.0</ele><time>2026-05-01T11:18:09.999Z</time></trkpt><trkpt lat="41.98617464494642" lon="13.80062515487223"><ele>598.0</ele><time>2026-05-01T11:18:10.999Z</time></trkpt><trkpt lat="41.98608444892544" lon="13.800673711992907"><ele>598.0</ele><time>2026-05-01T11:18:11.999Z</time></trkpt><trkpt lat="41.98599736664023" lon="13.800749433647493"><ele>598.0</ele><time>2026-05-01T11:18:12.999Z</time></trkpt><trkpt lat="41.98589630039893" lon="13.800800242848913"><ele>598.0</ele><time>2026-05-01T11:18:13.999Z</time></trkpt><trkpt lat="41.98578989779003" lon="13.800850526494214"><ele>598.0</ele><time>2026-05-01T11:18:14.999Z</time></trkpt><trkpt lat="41.985673816395774" lon="13.800855049635981"><ele>598.0</ele><time>2026-05-01T11:18:15.999Z</time></trkpt><trkpt lat="41.985552159828984" lon="13.800863533988668"><ele>601.25</ele><time>2026-05-01T11:18:16.999Z</time></trkpt><trkpt lat="41.9854355824742" lon="13.800936243469236"><ele>604.5</ele><time>2026-05-01T11:18:17.999Z</time></trkpt><trkpt lat="41.98532926424499" lon="13.801020921447677"><ele>607.75</ele><time>2026-05-01T11:18:18.999Z</time></trkpt><trkpt lat="41.985226812072064" lon="13.801120419849584"><ele>611.0</ele><time>2026-05-01T11:18:19.999Z</time></trkpt><trkpt lat="41.98512758505876" lon="13.80124333613194"><ele>611.0</ele><time>2026-05-01T11:18:20.999Z</time></trkpt><trkpt lat="41.98504363623231" lon="13.801380570151984"><ele>611.0</ele><time>2026-05-01T11:18:21.999Z</time></trkpt><trkpt lat="41.98497656871426" lon="13.80153373558267"><ele>611.0</ele><time>2026-05-01T11:18:22.999Z</time></trkpt><trkpt lat="41.98491636819299" lon="13.801687656353058"><ele>611.0</ele><time>2026-05-01T11:18:23.999Z</time></trkpt><trkpt lat="41.98482935371132" lon="13.80180413729441"><ele>617.0</ele><time>2026-05-01T11:18:24.999Z</time></trkpt><trkpt lat="41.98471824383182" lon="13.801886506133417"><ele>623.0</ele><time>2026-05-01T11:18:25.999Z</time></trkpt><trkpt lat="41.98463724085285" lon="13.801995620819982"><ele>629.0</ele><time>2026-05-01T11:18:26.999Z</time></trkpt><trkpt lat="41.98460380028762" lon="13.80214889593128"><ele>635.0</ele><time>2026-05-01T11:18:27.999Z</time></trkpt><trkpt lat="41.98459017201304" lon="13.802305487544627"><ele>635.0</ele><time>2026-05-01T11:18:28.999Z</time></trkpt><trkpt lat="41.98458458278177" lon="13.80246992802056"><ele>635.0</ele><time>2026-05-01T11:18:29.999Z</time></trkpt><trkpt lat="41.98457267053575" lon="13.802634953609598"><ele>635.0</ele><time>2026-05-01T11:18:30.999Z</time></trkpt><trkpt lat="41.984545959107244" lon="13.802800147392714"><ele>635.0</ele><time>2026-05-01T11:18:31.999Z</time></trkpt><trkpt lat="41.98452228854591" lon="13.802973981396002"><ele>636.0</ele><time>2026-05-01T11:18:32.999Z</time></trkpt><trkpt lat="41.98448781937314" lon="13.80314684700275"><ele>637.0</ele><time>2026-05-01T11:18:33.999Z</time></trkpt><trkpt lat="41.98444212259054" lon="13.803317313312427"><ele>638.0</ele><time>2026-05-01T11:18:34.999Z</time></trkpt><trkpt lat="41.984387549707556" lon="13.803484597409401"><ele>639.0</ele><time>2026-05-01T11:18:35.999Z</time></trkpt><trkpt lat="41.984335315530714" lon="13.803647804762054"><ele>643.5</ele><time>2026-05-01T11:18:36.999Z</time></trkpt><trkpt lat="41.98430821955186" lon="13.803812745793962"><ele>648.0</ele><time>2026-05-01T11:18:37.999Z</time></trkpt><trkpt lat="41.98432191098763" lon="13.803980593072506"><ele>652.5</ele><time>2026-05-01T11:18:38.999Z</time></trkpt><trkpt lat="41.98435412371151" lon="13.804142619067948"><ele>657.0</ele><time>2026-05-01T11:18:39.999Z</time></trkpt><trkpt lat="41.98437139098722" lon="13.804300889402416"><ele>658.75</ele><time>2026-05-01T11:18:40.999Z</time></trkpt><trkpt lat="41.98436396289851" lon="13.804455718252676"><ele>660.5</ele><time>2026-05-01T11:18:41.999Z</time></trkpt><trkpt lat="41.98433728359083" lon="13.804608460994821"><ele>662.25</ele><time>2026-05-01T11:18:42.999Z</time></trkpt><trkpt lat="41.98428966523457" lon="13.804753834381753"><ele>664.0</ele><time>2026-05-01T11:18:43.999Z</time></trkpt><trkpt lat="41.98423873756182" lon="13.804884019877179"><ele>664.0</ele><time>2026-05-01T11:18:44.999Z</time></trkpt><trkpt lat="41.984216087032095" lon="13.805002297934399"><ele>664.0</ele><time>2026-05-01T11:18:45.999Z</time></trkpt><trkpt lat="41.98424416936542" lon="13.805108891536525"><ele>664.0</ele><time>2026-05-01T11:18:46.999Z</time></trkpt><trkpt lat="41.984309748097665" lon="13.80520016080657"><ele>664.0</ele><time>2026-05-01T11:18:47.999Z</time></trkpt><trkpt lat="41.98438745893624" lon="13.805274047487428"><ele>664.0</ele><time>2026-05-01T11:18:48.999Z</time></trkpt><trkpt lat="41.98445435671152" lon="13.80536923574137"><ele>664.75</ele><time>2026-05-01T11:18:49.999Z</time></trkpt><trkpt lat="41.98449411269719" lon="13.8054903880428"><ele>665.5</ele><time>2026-05-01T11:18:50.999Z</time></trkpt><trkpt lat="41.98451399550805" lon="13.805643174725581"><ele>666.25</ele><time>2026-05-01T11:18:51.999Z</time></trkpt><trkpt lat="41.98452407023766" lon="13.805810812087795"><ele>667.0</ele><time>2026-05-01T11:18:52.999Z</time></trkpt><trkpt lat="41.984529456109584" lon="13.805975856283778"><ele>667.75</ele><time>2026-05-01T11:18:53.999Z</time></trkpt><trkpt lat="41.98453778725365" lon="13.806141733415076"><ele>668.5</ele><time>2026-05-01T11:18:54.999Z</time></trkpt><trkpt lat="41.98454487158939" lon="13.806310159417972"><ele>669.25</ele><time>2026-05-01T11:18:55.999Z</time></trkpt><trkpt lat="41.98453728564274" lon="13.806490159842788"><ele>670.0</ele><time>2026-05-01T11:18:56.998Z</time></trkpt><trkpt lat="41.98452882490885" lon="13.80667613710956"><ele>672.5</ele><time>2026-05-01T11:18:57.998Z</time></trkpt><trkpt lat="41.98450488649891" lon="13.806861003963109"><ele>675.0</ele><time>2026-05-01T11:18:58.998Z</time></trkpt><trkpt lat="41.98446670687075" lon="13.8070464173818"><ele>677.5</ele><time>2026-05-01T11:18:59.998Z</time></trkpt><trkpt lat="41.98441045033015" lon="13.807227726521063"><ele>680.0</ele><time>2026-05-01T11:19:00.998Z</time></trkpt><trkpt lat="41.9843369872747" lon="13.807398637205754"><ele>680.0</ele><time>2026-05-01T11:19:01.998Z</time></trkpt><trkpt lat="41.984245165044" lon="13.807562046770856"><ele>680.0</ele><time>2026-05-01T11:19:02.998Z</time></trkpt><trkpt lat="41.98414380132028" lon="13.807715275396495"><ele>680.0</ele><time>2026-05-01T11:19:03.998Z</time></trkpt><trkpt lat="41.98404842760988" lon="13.8078890830351"><ele>676.0</ele><time>2026-05-01T11:19:04.998Z</time></trkpt><trkpt lat="41.98395123797802" lon="13.808063307923332"><ele>672.0</ele><time>2026-05-01T11:19:05.998Z</time></trkpt><trkpt lat="41.98385217241931" lon="13.808240124644746"><ele>668.0</ele><time>2026-05-01T11:19:06.998Z</time></trkpt><trkpt lat="41.98375460578449" lon="13.808414506684882"><ele>676.3333333333333</ele><time>2026-05-01T11:19:07.998Z</time></trkpt><trkpt lat="41.98365843708487" lon="13.808590178654317"><ele>684.6666666666666</ele><time>2026-05-01T11:19:08.998Z</time></trkpt><trkpt lat="41.98356517659042" lon="13.808767138903372"><ele>693.0</ele><time>2026-05-01T11:19:09.998Z</time></trkpt><trkpt lat="41.98347180533567" lon="13.80894377711955"><ele>693.0</ele><time>2026-05-01T11:19:10.998Z</time></trkpt><trkpt lat="41.983375583914786" lon="13.809112246457405"><ele>693.0</ele><time>2026-05-01T11:19:11.998Z</time></trkpt><trkpt lat="41.983262663527306" lon="13.80926662671905"><ele>693.0</ele><time>2026-05-01T11:19:12.998Z</time></trkpt><trkpt lat="41.983141584151326" lon="13.80940435377038"><ele>692.3333333333334</ele><time>2026-05-01T11:19:13.998Z</time></trkpt><trkpt lat="41.98300274867888" lon="13.809526472567569"><ele>691.6666666666667</ele><time>2026-05-01T11:19:14.998Z</time></trkpt><trkpt lat="41.98285568751007" lon="13.809631822642304"><ele>691.0</ele><time>2026-05-01T11:19:15.998Z</time></trkpt><trkpt lat="41.982712941449236" lon="13.80973988965392"><ele>691.0</ele><time>2026-05-01T11:19:16.998Z</time></trkpt><trkpt lat="41.982572197446046" lon="13.809867664938738"><ele>691.0</ele><time>2026-05-01T11:19:17.998Z</time></trkpt><trkpt lat="41.98244229927467" lon="13.810010615485776"><ele>691.0</ele><time>2026-05-01T11:19:18.998Z</time></trkpt><trkpt lat="41.98231727086655" lon="13.810167793677806"><ele>691.0</ele><time>2026-05-01T11:19:19.998Z</time></trkpt><trkpt lat="41.98219403042584" lon="13.81032353179988"><ele>691.0</ele><time>2026-05-01T11:19:20.998Z</time></trkpt><trkpt lat="41.98207358195627" lon="13.810480533151937"><ele>691.0</ele><time>2026-05-01T11:19:21.998Z</time></trkpt><trkpt lat="41.981950661990034" lon="13.810635016633336"><ele>691.0</ele><time>2026-05-01T11:19:22.998Z</time></trkpt><trkpt lat="41.98182900471861" lon="13.81078861235197"><ele>691.0</ele><time>2026-05-01T11:19:23.998Z</time></trkpt><trkpt lat="41.98171986984434" lon="13.810953627767857"><ele>691.0</ele><time>2026-05-01T11:19:24.998Z</time></trkpt><trkpt lat="41.981636124831915" lon="13.811130900755654"><ele>688.0</ele><time>2026-05-01T11:19:25.998Z</time></trkpt><trkpt lat="41.981562601364665" lon="13.811297986224952"><ele>685.0</ele><time>2026-05-01T11:19:26.998Z</time></trkpt><trkpt lat="41.98148467369028" lon="13.811442601873862"><ele>682.0</ele><time>2026-05-01T11:19:27.998Z</time></trkpt><trkpt lat="41.98139175445635" lon="13.81156859297402"><ele>679.0</ele><time>2026-05-01T11:19:28.998Z</time></trkpt><trkpt lat="41.98125820751392" lon="13.811593185122883"><ele>679.0</ele><time>2026-05-01T11:19:29.998Z</time></trkpt><trkpt lat="41.98112471144711" lon="13.811592229673732"><ele>679.0</ele><time>2026-05-01T11:19:30.998Z</time></trkpt><trkpt lat="41.98097948933113" lon="13.811574194983432"><ele>679.0</ele><time>2026-05-01T11:19:31.998Z</time></trkpt><trkpt lat="41.980828577045266" lon="13.81156116923437"><ele>679.0</ele><time>2026-05-01T11:19:32.998Z</time></trkpt><trkpt lat="41.98067937922514" lon="13.81155897051437"><ele>680.3333333333334</ele><time>2026-05-01T11:19:33.998Z</time></trkpt><trkpt lat="41.98052367750226" lon="13.811580299910567"><ele>681.6666666666666</ele><time>2026-05-01T11:19:34.998Z</time></trkpt><trkpt lat="41.98036998430534" lon="13.811604942064704"><ele>683.0</ele><time>2026-05-01T11:19:35.998Z</time></trkpt><trkpt lat="41.98021651119069" lon="13.811632348249132"><ele>683.0</ele><time>2026-05-01T11:19:36.998Z</time></trkpt><trkpt lat="41.98006531239792" lon="13.811660597194152"><ele>683.0</ele><time>2026-05-01T11:19:37.998Z</time></trkpt><trkpt lat="41.97991940501197" lon="13.811685810655995"><ele>683.0</ele><time>2026-05-01T11:19:38.998Z</time></trkpt><trkpt lat="41.979773607453" lon="13.811706242080767"><ele>683.0</ele><time>2026-05-01T11:19:39.998Z</time></trkpt><trkpt lat="41.97962620744411" lon="13.811729234589762"><ele>680.0</ele><time>2026-05-01T11:19:40.998Z</time></trkpt><trkpt lat="41.97948200439709" lon="13.811773180177179"><ele>677.0</ele><time>2026-05-01T11:19:41.998Z</time></trkpt><trkpt lat="41.979340645361106" lon="13.811845943208956"><ele>674.0</ele><time>2026-05-01T11:19:42.998Z</time></trkpt><trkpt lat="41.979201378249286" lon="13.81192880251897"><ele>682.75</ele><time>2026-05-01T11:19:43.999Z</time></trkpt><trkpt lat="41.97906188907381" lon="13.812007371765588"><ele>691.5</ele><time>2026-05-01T11:19:44.999Z</time></trkpt><trkpt lat="41.97893099764749" lon="13.812078461133567"><ele>700.25</ele><time>2026-05-01T11:19:45.999Z</time></trkpt><trkpt lat="41.978785967414844" lon="13.812155198560454"><ele>709.0</ele><time>2026-05-01T11:19:46.999Z</time></trkpt><trkpt lat="41.978631255453266" lon="13.812196768157488"><ele>709.0</ele><time>2026-05-01T11:19:47.999Z</time></trkpt><trkpt lat="41.97848053114426" lon="13.81223348191103"><ele>709.0</ele><time>2026-05-01T11:19:48.999Z</time></trkpt><trkpt lat="41.978335097889165" lon="13.81228020677815"><ele>709.0</ele><time>2026-05-01T11:19:49.999Z</time></trkpt><trkpt lat="41.97819122943135" lon="13.812343757841342"><ele>706.5</ele><time>2026-05-01T11:19:50.999Z</time></trkpt><trkpt lat="41.978046717085924" lon="13.812389249276698"><ele>704.0</ele><time>2026-05-01T11:19:51.999Z</time></trkpt><trkpt lat="41.977900290656635" lon="13.812405892690895"><ele>701.5</ele><time>2026-05-01T11:19:52.999Z</time></trkpt><trkpt lat="41.977759896380306" lon="13.812438127972705"><ele>699.0</ele><time>2026-05-01T11:19:53.999Z</time></trkpt><trkpt lat="41.977626556532535" lon="13.81250519276888"><ele>696.5</ele><time>2026-05-01T11:19:54.999Z</time></trkpt><trkpt lat="41.977506418585634" lon="13.812586221618785"><ele>694.0</ele><time>2026-05-01T11:19:55.999Z</time></trkpt><trkpt lat="41.97738635978816" lon="13.812661063003796"><ele>691.5</ele><time>2026-05-01T11:19:56.999Z</time></trkpt><trkpt lat="41.97725986385248" lon="13.81271124392319"><ele>689.0</ele><time>2026-05-01T11:19:57.999Z</time></trkpt><trkpt lat="41.977133665609465" lon="13.812684602495178"><ele>689.0</ele><time>2026-05-01T11:19:58.999Z</time></trkpt><trkpt lat="41.97701868034188" lon="13.812643821927406"><ele>689.0</ele><time>2026-05-01T11:19:59.999Z</time></trkpt><trkpt lat="41.976912077822114" lon="13.812654756636372"><ele>689.0</ele><time>2026-05-01T11:20:00.999Z</time></trkpt><trkpt lat="41.976810579661034" lon="13.812706254941652"><ele>689.0</ele><time>2026-05-01T11:20:01.999Z</time></trkpt><trkpt lat="41.976712297280734" lon="13.812811104932257"><ele>695.75</ele><time>2026-05-01T11:20:02.999Z</time></trkpt><trkpt lat="41.976603384956256" lon="13.812892653603278"><ele>702.5</ele><time>2026-05-01T11:20:03.999Z</time></trkpt><trkpt lat="41.97647541165454" lon="13.8128928026486"><ele>709.25</ele><time>2026-05-01T11:20:04.999Z</time></trkpt><trkpt lat="41.9763427459902" lon="13.812887466980538"><ele>716.0</ele><time>2026-05-01T11:20:05.999Z</time></trkpt><trkpt lat="41.9762095835815" lon="13.812886712340257"><ele>716.0</ele><time>2026-05-01T11:20:06.999Z</time></trkpt><trkpt lat="41.976074529088024" lon="13.812863370892314"><ele>716.0</ele><time>2026-05-01T11:20:07.999Z</time></trkpt><trkpt lat="41.97595180510125" lon="13.812850596431122"><ele>716.0</ele><time>2026-05-01T11:20:08.999Z</time></trkpt><trkpt lat="41.97584076830149" lon="13.812845310857053"><ele>716.0</ele><time>2026-05-01T11:20:09.999Z</time></trkpt><trkpt lat="41.975739540046234" lon="13.812841030955308"><ele>719.5999999999999</ele><time>2026-05-01T11:20:10.999Z</time></trkpt><trkpt lat="41.975645259824255" lon="13.812827432382257"><ele>723.2</ele><time>2026-05-01T11:20:11.999Z</time></trkpt><trkpt lat="41.97555619387663" lon="13.812792671647246"><ele>726.8</ele><time>2026-05-01T11:20:12.999Z</time></trkpt><trkpt lat="41.97547880081485" lon="13.812718678314287"><ele>730.4000000000001</ele><time>2026-05-01T11:20:13.999Z</time></trkpt><trkpt lat="41.975418085502945" lon="13.81261518375704"><ele>734.0</ele><time>2026-05-01T11:20:14.999Z</time></trkpt><trkpt lat="41.975358063248684" lon="13.8125228744706"><ele>727.4000000000001</ele><time>2026-05-01T11:20:15.999Z</time></trkpt><trkpt lat="41.975295395253745" lon="13.812446907151628"><ele>720.8</ele><time>2026-05-01T11:20:16.999Z</time></trkpt><trkpt lat="41.975226972150544" lon="13.81237790760945"><ele>714.2</ele><time>2026-05-01T11:20:17.999Z</time></trkpt><trkpt lat="41.97514123576556" lon="13.81233435792176"><ele>707.5999999999999</ele><time>2026-05-01T11:20:18.999Z</time></trkpt><trkpt lat="41.97503743231866" lon="13.812334283474046"><ele>701.0</ele><time>2026-05-01T11:20:19.999Z</time></trkpt><trkpt lat="41.97493701756038" lon="13.812349206653117"><ele>701.0</ele><time>2026-05-01T11:20:20.999Z</time></trkpt><trkpt lat="41.97484684297867" lon="13.812350225740348"><ele>701.0</ele><time>2026-05-01T11:20:21.999Z</time></trkpt><trkpt lat="41.97475082415835" lon="13.812334235006109"><ele>701.0</ele><time>2026-05-01T11:20:22.999Z</time></trkpt><trkpt lat="41.97465635481347" lon="13.81230796958008"><ele>701.0</ele><time>2026-05-01T11:20:23.999Z</time></trkpt><trkpt lat="41.97455953411867" lon="13.812287272161404"><ele>701.0</ele><time>2026-05-01T11:20:24.999Z</time></trkpt><trkpt lat="41.97445770557432" lon="13.812278902039713"><ele>701.0</ele><time>2026-05-01T11:20:25.999Z</time></trkpt><trkpt lat="41.97435566737873" lon="13.812283704126228"><ele>701.0</ele><time>2026-05-01T11:20:26.999Z</time></trkpt><trkpt lat="41.974249296235314" lon="13.812301911365845"><ele>701.0</ele><time>2026-05-01T11:20:27.999Z</time></trkpt><trkpt lat="41.974145220442985" lon="13.812321565074045"><ele>701.0</ele><time>2026-05-01T11:20:28.999Z</time></trkpt><trkpt lat="41.974040253797774" lon="13.812344595586302"><ele>701.0</ele><time>2026-05-01T11:20:29.999Z</time></trkpt><trkpt lat="41.97393571887812" lon="13.81237531349816"><ele>702.8</ele><time>2026-05-01T11:20:30.999Z</time></trkpt><trkpt lat="41.97383303414202" lon="13.812422056354462"><ele>704.5999999999999</ele><time>2026-05-01T11:20:31.999Z</time></trkpt><trkpt lat="41.973731786786054" lon="13.812478525341996"><ele>706.4</ele><time>2026-05-01T11:20:32.999Z</time></trkpt><trkpt lat="41.97362896386076" lon="13.812534248832938"><ele>708.2</ele><time>2026-05-01T11:20:33.999Z</time></trkpt><trkpt lat="41.973525509086556" lon="13.812592488832738"><ele>710.0</ele><time>2026-05-01T11:20:34.998Z</time></trkpt><trkpt lat="41.97342340167715" lon="13.81265658440624"><ele>710.2</ele><time>2026-05-01T11:20:35.998Z</time></trkpt><trkpt lat="41.973324943190086" lon="13.812724824545459"><ele>710.4</ele><time>2026-05-01T11:20:36.998Z</time></trkpt><trkpt lat="41.97323004201458" lon="13.812804649583748"><ele>710.5999999999999</ele><time>2026-05-01T11:20:37.998Z</time></trkpt><trkpt lat="41.97314014281946" lon="13.81288976804262"><ele>710.8</ele><time>2026-05-01T11:20:38.998Z</time></trkpt><trkpt lat="41.97305564919238" lon="13.812976010663286"><ele>711.0</ele><time>2026-05-01T11:20:39.998Z</time></trkpt><trkpt lat="41.97297319696263" lon="13.813057089324293"><ele>711.0</ele><time>2026-05-01T11:20:40.998Z</time></trkpt><trkpt lat="41.97289458052002" lon="13.813130904719221"><ele>711.0</ele><time>2026-05-01T11:20:41.998Z</time></trkpt><trkpt lat="41.972816755266955" lon="13.81319824228166"><ele>711.0</ele><time>2026-05-01T11:20:42.998Z</time></trkpt><trkpt lat="41.972736017473565" lon="13.813245469323773"><ele>711.0</ele><time>2026-05-01T11:20:43.998Z</time></trkpt><trkpt lat="41.97264506946262" lon="13.813258725135316"><ele>711.0</ele><time>2026-05-01T11:20:44.998Z</time></trkpt><trkpt lat="41.97255475754032" lon="13.813253206614032"><ele>713.5999999999999</ele><time>2026-05-01T11:20:45.998Z</time></trkpt><trkpt lat="41.97246062566885" lon="13.813246724821708"><ele>716.2</ele><time>2026-05-01T11:20:46.998Z</time></trkpt><trkpt lat="41.972366446774814" lon="13.813269573953631"><ele>718.8</ele><time>2026-05-01T11:20:47.998Z</time></trkpt><trkpt lat="41.972273409380335" lon="13.81331526385968"><ele>721.4000000000001</ele><time>2026-05-01T11:20:48.998Z</time></trkpt><trkpt lat="41.97218902290592" lon="13.813389057986864"><ele>724.0</ele><time>2026-05-01T11:20:49.998Z</time></trkpt><trkpt lat="41.97210473327231" lon="13.813469629603954"><ele>725.0</ele><time>2026-05-01T11:20:50.998Z</time></trkpt><trkpt lat="41.97201965067526" lon="13.81355071884024"><ele>726.0</ele><time>2026-05-01T11:20:51.998Z</time></trkpt><trkpt lat="41.97193461279213" lon="13.813622871894157"><ele>727.0</ele><time>2026-05-01T11:20:52.998Z</time></trkpt><trkpt lat="41.97184673028727" lon="13.81368894076737"><ele>728.0</ele><time>2026-05-01T11:20:53.998Z</time></trkpt><trkpt lat="41.971760079004746" lon="13.813763267258068"><ele>729.0</ele><time>2026-05-01T11:20:54.998Z</time></trkpt><trkpt lat="41.971681168852726" lon="13.81383890866536"><ele>729.0</ele><time>2026-05-01T11:20:55.998Z</time></trkpt><trkpt lat="41.97160349938813" lon="13.813912486857694"><ele>729.0</ele><time>2026-05-01T11:20:56.998Z</time></trkpt><trkpt lat="41.97152216932632" lon="13.813976699758058"><ele>729.0</ele><time>2026-05-01T11:20:57.998Z</time></trkpt><trkpt lat="41.97143369694663" lon="13.81403615031673"><ele>729.0</ele><time>2026-05-01T11:20:58.998Z</time></trkpt><trkpt lat="41.971343488238816" lon="13.814087931732054"><ele>729.0</ele><time>2026-05-01T11:20:59.998Z</time></trkpt><trkpt lat="41.97124929070286" lon="13.81413470554422"><ele>729.0</ele><time>2026-05-01T11:21:00.998Z</time></trkpt><trkpt lat="41.97115738070571" lon="13.814187838087694"><ele>729.0</ele><time>2026-05-01T11:21:01.998Z</time></trkpt><trkpt lat="41.9710626547076" lon="13.814239193458848"><ele>729.0</ele><time>2026-05-01T11:21:02.998Z</time></trkpt><trkpt lat="41.97096642794926" lon="13.81428518361563"><ele>729.0</ele><time>2026-05-01T11:21:03.998Z</time></trkpt><trkpt lat="41.97086929956497" lon="13.814327482665062"><ele>729.0</ele><time>2026-05-01T11:21:04.998Z</time></trkpt><trkpt lat="41.97077002303813" lon="13.81436628784638"><ele>734.6</ele><time>2026-05-01T11:21:05.998Z</time></trkpt><trkpt lat="41.97067384545777" lon="13.814404829028234"><ele>740.2</ele><time>2026-05-01T11:21:06.998Z</time></trkpt><trkpt lat="41.970590427284264" lon="13.81446544023844"><ele>745.8000000000001</ele><time>2026-05-01T11:21:07.998Z</time></trkpt><trkpt lat="41.97052720450196" lon="13.814553981060989"><ele>751.4000000000001</ele><time>2026-05-01T11:21:08.998Z</time></trkpt><trkpt lat="41.97048697790747" lon="13.814660258673749"><ele>757.0</ele><time>2026-05-01T11:21:09.998Z</time></trkpt><trkpt lat="41.9704692236206" lon="13.81477201440064"><ele>757.0</ele><time>2026-05-01T11:21:10.998Z</time></trkpt><trkpt lat="41.97045289784828" lon="13.814878982315278"><ele>757.0</ele><time>2026-05-01T11:21:11.998Z</time></trkpt><trkpt lat="41.970420586639854" lon="13.81498063020952"><ele>757.0</ele><time>2026-05-01T11:21:12.998Z</time></trkpt><trkpt lat="41.97036569179327" lon="13.815060874913746"><ele>757.0</ele><time>2026-05-01T11:21:13.998Z</time></trkpt><trkpt lat="41.970288137372805" lon="13.815116881012942"><ele>757.0</ele><time>2026-05-01T11:21:14.998Z</time></trkpt><trkpt lat="41.970195862074064" lon="13.815145307364908"><ele>757.0</ele><time>2026-05-01T11:21:15.998Z</time></trkpt><trkpt lat="41.97009717943857" lon="13.81516308544141"><ele>762.6</ele><time>2026-05-01T11:21:16.998Z</time></trkpt><trkpt lat="41.969997673042606" lon="13.815174799138932"><ele>768.2</ele><time>2026-05-01T11:21:17.998Z</time></trkpt><trkpt lat="41.969898067574235" lon="13.815186304165733"><ele>773.8</ele><time>2026-05-01T11:21:18.998Z</time></trkpt><trkpt lat="41.969800112360936" lon="13.815212452503443"><ele>779.4</ele><time>2026-05-01T11:21:19.998Z</time></trkpt><trkpt lat="41.969696544520296" lon="13.815260929826273"><ele>785.0</ele><time>2026-05-01T11:21:20.998Z</time></trkpt><trkpt lat="41.96958575103344" lon="13.815332227482592"><ele>785.0</ele><time>2026-05-01T11:21:21.998Z</time></trkpt><trkpt lat="41.96947062715831" lon="13.815425687600271"><ele>785.0</ele><time>2026-05-01T11:21:22.998Z</time></trkpt><trkpt lat="41.96934376078759" lon="13.815536560144427"><ele>785.0</ele><time>2026-05-01T11:21:23.998Z</time></trkpt><trkpt lat="41.96921453902515" lon="13.815649429747214"><ele>785.0</ele><time>2026-05-01T11:21:24.998Z</time></trkpt><trkpt lat="41.96909148716961" lon="13.815761507799543"><ele>785.5</ele><time>2026-05-01T11:21:25.998Z</time></trkpt><trkpt lat="41.96896332082457" lon="13.815875171688177"><ele>786.0</ele><time>2026-05-01T11:21:26.998Z</time></trkpt><trkpt lat="41.96883822948071" lon="13.815982233010304"><ele>786.5</ele><time>2026-05-01T11:21:27.998Z</time></trkpt><trkpt lat="41.96871887141093" lon="13.81608365341798"><ele>787.0</ele><time>2026-05-01T11:21:28.998Z</time></trkpt><trkpt lat="41.96860381005786" lon="13.816179601093916"><ele>787.0</ele><time>2026-05-01T11:21:29.998Z</time></trkpt><trkpt lat="41.968501003523194" lon="13.816277336991913"><ele>787.0</ele><time>2026-05-01T11:21:30.998Z</time></trkpt><trkpt lat="41.968411245369545" lon="13.816385298675605"><ele>787.0</ele><time>2026-05-01T11:21:31.998Z</time></trkpt><trkpt lat="41.96834285272431" lon="13.816520155947686"><ele>787.0</ele><time>2026-05-01T11:21:32.998Z</time></trkpt><trkpt lat="41.968299535469775" lon="13.816681398351808"><ele>780.5</ele><time>2026-05-01T11:21:33.998Z</time></trkpt><trkpt lat="41.96827220392593" lon="13.816849680967225"><ele>774.0</ele><time>2026-05-01T11:21:34.998Z</time></trkpt><trkpt lat="41.96823643629595" lon="13.81702210867766"><ele>767.5</ele><time>2026-05-01T11:21:35.998Z</time></trkpt><trkpt lat="41.96816789562223" lon="13.817190010629094"><ele>761.0</ele><time>2026-05-01T11:21:36.998Z</time></trkpt><trkpt lat="41.96808401003107" lon="13.817364462792481"><ele>761.0</ele><time>2026-05-01T11:21:37.998Z</time></trkpt><trkpt lat="41.9679781816838" lon="13.817534018807894"><ele>761.0</ele><time>2026-05-01T11:21:38.998Z</time></trkpt><trkpt lat="41.967874429140615" lon="13.817709983922002"><ele>761.0</ele><time>2026-05-01T11:21:39.998Z</time></trkpt><trkpt lat="41.96778726260176" lon="13.817896833969131"><ele>771.75</ele><time>2026-05-01T11:21:40.998Z</time></trkpt><trkpt lat="41.9677126378211" lon="13.818085388254467"><ele>782.5</ele><time>2026-05-01T11:21:41.998Z</time></trkpt><trkpt lat="41.96764995106287" lon="13.818260253096824"><ele>793.25</ele><time>2026-05-01T11:21:42.998Z</time></trkpt><trkpt lat="41.967594687592765" lon="13.818423252888762"><ele>804.0</ele><time>2026-05-01T11:21:43.998Z</time></trkpt><trkpt lat="41.96754433245388" lon="13.81857797343723"><ele>800.0</ele><time>2026-05-01T11:21:44.998Z</time></trkpt><trkpt lat="41.967488366991894" lon="13.818713203194779"><ele>796.0</ele><time>2026-05-01T11:21:45.998Z</time></trkpt><trkpt lat="41.96743018608239" lon="13.818832435895585"><ele>792.0</ele><time>2026-05-01T11:21:46.998Z</time></trkpt><trkpt lat="41.96735708402074" lon="13.818918101981767"><ele>788.0</ele><time>2026-05-01T11:21:47.998Z</time></trkpt><trkpt lat="41.9672550464785" lon="13.818974366543753"><ele>784.0</ele><time>2026-05-01T11:21:48.998Z</time></trkpt><trkpt lat="41.96713390237193" lon="13.819016344684453"><ele>784.0</ele><time>2026-05-01T11:21:49.998Z</time></trkpt><trkpt lat="41.96700700172721" lon="13.81907578951071"><ele>784.0</ele><time>2026-05-01T11:21:50.998Z</time></trkpt><trkpt lat="41.966880719916375" lon="13.8191595761379"><ele>784.0</ele><time>2026-05-01T11:21:51.998Z</time></trkpt><trkpt lat="41.96675279055307" lon="13.81925604020957"><ele>784.0</ele><time>2026-05-01T11:21:52.998Z</time></trkpt><trkpt lat="41.966626921106666" lon="13.81937151319229"><ele>780.6666666666666</ele><time>2026-05-01T11:21:53.999Z</time></trkpt><trkpt lat="41.96650825253887" lon="13.819512321069979"><ele>777.3333333333333</ele><time>2026-05-01T11:21:54.999Z</time></trkpt><trkpt lat="41.966389155760105" lon="13.819666509692546"><ele>774.0</ele><time>2026-05-01T11:21:55.999Z</time></trkpt><trkpt lat="41.966272982480604" lon="13.819817405652376"><ele>774.0</ele><time>2026-05-01T11:21:56.999Z</time></trkpt><trkpt lat="41.96616252891421" lon="13.819965309997599"><ele>774.0</ele><time>2026-05-01T11:21:57.999Z</time></trkpt><trkpt lat="41.96605020078963" lon="13.820081676321387"><ele>774.0</ele><time>2026-05-01T11:21:58.999Z</time></trkpt><trkpt lat="41.965924123150664" lon="13.820162613844547"><ele>774.0</ele><time>2026-05-01T11:21:59.999Z</time></trkpt><trkpt lat="41.965805250603616" lon="13.820225228196676"><ele>776.25</ele><time>2026-05-01T11:22:00.999Z</time></trkpt><trkpt lat="41.96571015275126" lon="13.820331145247074"><ele>778.5</ele><time>2026-05-01T11:22:01.999Z</time></trkpt><trkpt lat="41.965634087461105" lon="13.82045860018999"><ele>780.75</ele><time>2026-05-01T11:22:02.999Z</time></trkpt><trkpt lat="41.96557485925257" lon="13.820586018031987"><ele>783.0</ele><time>2026-05-01T11:22:03.999Z</time></trkpt><trkpt lat="41.965527429353834" lon="13.820706185936713"><ele>783.0</ele><time>2026-05-01T11:22:04.999Z</time></trkpt><trkpt lat="41.96547779013211" lon="13.820805215596078"><ele>783.0</ele><time>2026-05-01T11:22:05.999Z</time></trkpt><trkpt lat="41.96541658234615" lon="13.820881876509564"><ele>783.0</ele><time>2026-05-01T11:22:06.999Z</time></trkpt><trkpt lat="41.96533994778177" lon="13.820945564774687"><ele>783.0</ele><time>2026-05-01T11:22:07.999Z</time></trkpt><trkpt lat="41.96525884717971" lon="13.820993444291435"><ele>783.0</ele><time>2026-05-01T11:22:08.999Z</time></trkpt><trkpt lat="41.9651765900507" lon="13.82103480018157"><ele>783.0</ele><time>2026-05-01T11:22:09.999Z</time></trkpt><trkpt lat="41.965083073986754" lon="13.82105702726923"><ele>783.5999999999999</ele><time>2026-05-01T11:22:10.999Z</time></trkpt><trkpt lat="41.96499013122114" lon="13.82104443683399"><ele>784.1999999999999</ele><time>2026-05-01T11:22:11.999Z</time></trkpt><trkpt lat="41.964894273825074" lon="13.821018769110408"><ele>784.8</ele><time>2026-05-01T11:22:12.999Z</time></trkpt><trkpt lat="41.964809551163086" lon="13.820994104477856"><ele>785.4</ele><time>2026-05-01T11:22:13.999Z</time></trkpt><trkpt lat="41.96474401818757" lon="13.820980894116403"><ele>786.0</ele><time>2026-05-01T11:22:14.999Z</time></trkpt><trkpt lat="41.964626843862334" lon="13.82100432144029"><ele>786.0</ele><time>2026-05-01T11:22:16.999Z</time></trkpt><trkpt lat="41.96453393250041" lon="13.820989758694926"><ele>786.0</ele><time>2026-05-01T11:22:17.999Z</time></trkpt><trkpt lat="41.9644624850686" lon="13.821069406374072"><ele>786.0</ele><time>2026-05-01T11:22:18.999Z</time></trkpt><trkpt lat="41.96439890893659" lon="13.821167736176404"><ele>786.0</ele><time>2026-05-01T11:22:19.999Z</time></trkpt><trkpt lat="41.964343712272374" lon="13.821258657941103"><ele>786.0</ele><time>2026-05-01T11:22:20.999Z</time></trkpt><trkpt lat="41.96430030307511" lon="13.821356901095555"><ele>786.0</ele><time>2026-05-01T11:22:21.999Z</time></trkpt><trkpt lat="41.964273227807446" lon="13.821465626334328"><ele>786.0</ele><time>2026-05-01T11:22:22.999Z</time></trkpt><trkpt lat="41.964256807701936" lon="13.821587316959304"><ele>786.0</ele><time>2026-05-01T11:22:23.999Z</time></trkpt><trkpt lat="41.964237846511296" lon="13.821712509388643"><ele>786.0</ele><time>2026-05-01T11:22:24.999Z</time></trkpt><trkpt lat="41.9642157233472" lon="13.821819112042107"><ele>786.0</ele><time>2026-05-01T11:22:25.999Z</time></trkpt><trkpt lat="41.96418122778372" lon="13.821930319510464"><ele>786.0</ele><time>2026-05-01T11:22:26.999Z</time></trkpt><trkpt lat="41.96413217929689" lon="13.822050523970887"><ele>784.8</ele><time>2026-05-01T11:22:27.999Z</time></trkpt><trkpt lat="41.96407760489616" lon="13.822168100773004"><ele>783.5999999999999</ele><time>2026-05-01T11:22:28.999Z</time></trkpt><trkpt lat="41.96400410218646" lon="13.822268600473015"><ele>782.4</ele><time>2026-05-01T11:22:29.999Z</time></trkpt><trkpt lat="41.96391030809158" lon="13.822354943179414"><ele>781.2</ele><time>2026-05-01T11:22:30.999Z</time></trkpt><trkpt lat="41.96381175055174" lon="13.822426883181288"><ele>780.0</ele><time>2026-05-01T11:22:31.999Z</time></trkpt><trkpt lat="41.96371461018887" lon="13.822496287225412"><ele>780.0</ele><time>2026-05-01T11:22:32.999Z</time></trkpt><trkpt lat="41.96362457341564" lon="13.82256119814894"><ele>780.0</ele><time>2026-05-01T11:22:33.999Z</time></trkpt><trkpt lat="41.96353978387016" lon="13.822630801894569"><ele>780.0</ele><time>2026-05-01T11:22:34.999Z</time></trkpt><trkpt lat="41.963452016272974" lon="13.822698009057504"><ele>780.0</ele><time>2026-05-01T11:22:35.999Z</time></trkpt><trkpt lat="41.9633660376371" lon="13.82276471295362"><ele>780.0</ele><time>2026-05-01T11:22:36.999Z</time></trkpt><trkpt lat="41.96327980634501" lon="13.8228290608048"><ele>781.8</ele><time>2026-05-01T11:22:37.999Z</time></trkpt><trkpt lat="41.96319426378934" lon="13.822891623752811"><ele>783.6</ele><time>2026-05-01T11:22:38.999Z</time></trkpt><trkpt lat="41.96311432174402" lon="13.822948362696923"><ele>785.4000000000001</ele><time>2026-05-01T11:22:39.999Z</time></trkpt><trkpt lat="41.96302996468334" lon="13.822986071929865"><ele>787.2</ele><time>2026-05-01T11:22:40.999Z</time></trkpt><trkpt lat="41.962933822841045" lon="13.822992854362584"><ele>789.0</ele><time>2026-05-01T11:22:41.999Z</time></trkpt><trkpt lat="41.962832721049494" lon="13.822970219296758"><ele>789.0</ele><time>2026-05-01T11:22:42.999Z</time></trkpt><trkpt lat="41.96272954493368" lon="13.82292593627519"><ele>789.0</ele><time>2026-05-01T11:22:43.999Z</time></trkpt><trkpt lat="41.96262759956093" lon="13.822891445986386"><ele>789.0</ele><time>2026-05-01T11:22:44.999Z</time></trkpt><trkpt lat="41.96253144263738" lon="13.822871365975193"><ele>789.0</ele><time>2026-05-01T11:22:45.999Z</time></trkpt><trkpt lat="41.962442046780396" lon="13.822875559741725"><ele>789.0</ele><time>2026-05-01T11:22:46.999Z</time></trkpt><trkpt lat="41.96235204398042" lon="13.822916239767789"><ele>784.25</ele><time>2026-05-01T11:22:47.999Z</time></trkpt><trkpt lat="41.96225843013589" lon="13.822997128544609"><ele>779.5</ele><time>2026-05-01T11:22:48.999Z</time></trkpt><trkpt lat="41.96215847410124" lon="13.823093853393583"><ele>774.75</ele><time>2026-05-01T11:22:49.999Z</time></trkpt><trkpt lat="41.96205721902927" lon="13.823198004012374"><ele>770.0</ele><time>2026-05-01T11:22:50.999Z</time></trkpt><trkpt lat="41.961956079762096" lon="13.823295229476608"><ele>770.0</ele><time>2026-05-01T11:22:51.999Z</time></trkpt><trkpt lat="41.96186270086154" lon="13.823386622734468"><ele>770.0</ele><time>2026-05-01T11:22:52.999Z</time></trkpt><trkpt lat="41.96177352522781" lon="13.823468826589872"><ele>770.0</ele><time>2026-05-01T11:22:53.999Z</time></trkpt><trkpt lat="41.961684261053236" lon="13.823548164874527"><ele>770.0</ele><time>2026-05-01T11:22:54.999Z</time></trkpt><trkpt lat="41.96158893710223" lon="13.823619914485347"><ele>770.0</ele><time>2026-05-01T11:22:55.999Z</time></trkpt><trkpt lat="41.961484538887895" lon="13.823673822613074"><ele>773.25</ele><time>2026-05-01T11:22:56.999Z</time></trkpt><trkpt lat="41.96136055942738" lon="13.82371212602989"><ele>776.5</ele><time>2026-05-01T11:22:57.999Z</time></trkpt><trkpt lat="41.961218854398446" lon="13.823751135725965"><ele>779.75</ele><time>2026-05-01T11:22:58.999Z</time></trkpt><trkpt lat="41.96105944955877" lon="13.823799814814114"><ele>783.0</ele><time>2026-05-01T11:22:59.999Z</time></trkpt><trkpt lat="41.96089890958286" lon="13.823848015593603"><ele>783.0</ele><time>2026-05-01T11:23:00.999Z</time></trkpt><trkpt lat="41.96073910965616" lon="13.82389093416014"><ele>783.0</ele><time>2026-05-01T11:23:01.999Z</time></trkpt><trkpt lat="41.96057383274763" lon="13.823927879660227"><ele>783.0</ele><time>2026-05-01T11:23:02.999Z</time></trkpt><trkpt lat="41.960415925748265" lon="13.823964972982926"><ele>783.0</ele><time>2026-05-01T11:23:03.999Z</time></trkpt><trkpt lat="41.96026791715427" lon="13.823997520486579"><ele>783.0</ele><time>2026-05-01T11:23:04.999Z</time></trkpt><trkpt lat="41.960131159922355" lon="13.824028205000225"><ele>783.0</ele><time>2026-05-01T11:23:05.999Z</time></trkpt><trkpt lat="41.96000268972097" lon="13.824054978155388"><ele>783.0</ele><time>2026-05-01T11:23:06.999Z</time></trkpt><trkpt lat="41.95988041736053" lon="13.824073683036678"><ele>781.25</ele><time>2026-05-01T11:23:07.999Z</time></trkpt><trkpt lat="41.959755888225146" lon="13.824074822036913"><ele>779.5</ele><time>2026-05-01T11:23:08.999Z</time></trkpt><trkpt lat="41.959631947445246" lon="13.824060977001453"><ele>777.75</ele><time>2026-05-01T11:23:09.999Z</time></trkpt><trkpt lat="41.95950800953065" lon="13.824039477279657"><ele>776.0</ele><time>2026-05-01T11:23:10.999Z</time></trkpt><trkpt lat="41.95938081978893" lon="13.824014962958213"><ele>776.0</ele><time>2026-05-01T11:23:11.998Z</time></trkpt><trkpt lat="41.959250740448034" lon="13.823995472407285"><ele>776.0</ele><time>2026-05-01T11:23:12.998Z</time></trkpt><trkpt lat="41.95911572431201" lon="13.823984881709912"><ele>776.0</ele><time>2026-05-01T11:23:13.998Z</time></trkpt><trkpt lat="41.95897783994844" lon="13.82398255930748"><ele>776.0</ele><time>2026-05-01T11:23:14.998Z</time></trkpt><trkpt lat="41.95883883553953" lon="13.823994877801606"><ele>774.6666666666667</ele><time>2026-05-01T11:23:15.998Z</time></trkpt><trkpt lat="41.958687532864055" lon="13.824035151412959"><ele>773.3333333333333</ele><time>2026-05-01T11:23:16.998Z</time></trkpt><trkpt lat="41.95852550546088" lon="13.824099962487638"><ele>772.0</ele><time>2026-05-01T11:23:17.998Z</time></trkpt><trkpt lat="41.95834803974182" lon="13.824166751312193"><ele>772.0</ele><time>2026-05-01T11:23:18.998Z</time></trkpt><trkpt lat="41.958158422151904" lon="13.824236050337706"><ele>772.0</ele><time>2026-05-01T11:23:19.998Z</time></trkpt><trkpt lat="41.957971098710246" lon="13.824305412931425"><ele>772.0</ele><time>2026-05-01T11:23:20.998Z</time></trkpt><trkpt lat="41.957789132007726" lon="13.824371053226656"><ele>779.3333333333333</ele><time>2026-05-01T11:23:21.998Z</time></trkpt><trkpt lat="41.957611281173065" lon="13.824435364323401"><ele>786.6666666666667</ele><time>2026-05-01T11:23:22.998Z</time></trkpt><trkpt lat="41.95744210326372" lon="13.82449448267942"><ele>794.0</ele><time>2026-05-01T11:23:23.998Z</time></trkpt><trkpt lat="41.957280753483616" lon="13.824550084609829"><ele>794.0</ele><time>2026-05-01T11:23:24.998Z</time></trkpt><trkpt lat="41.95712650868889" lon="13.824603458801706"><ele>794.0</ele><time>2026-05-01T11:23:25.998Z</time></trkpt><trkpt lat="41.95697903573337" lon="13.824653621563803"><ele>794.0</ele><time>2026-05-01T11:23:26.998Z</time></trkpt><trkpt lat="41.95683812638415" lon="13.824701854863088"><ele>790.75</ele><time>2026-05-01T11:23:27.998Z</time></trkpt><trkpt lat="41.956701515537986" lon="13.824751295627888"><ele>787.5</ele><time>2026-05-01T11:23:28.998Z</time></trkpt><trkpt lat="41.95656964138204" lon="13.824800142441095"><ele>784.25</ele><time>2026-05-01T11:23:29.998Z</time></trkpt><trkpt lat="41.95644452283465" lon="13.824843806421512"><ele>781.0</ele><time>2026-05-01T11:23:30.998Z</time></trkpt><trkpt lat="41.95632402091812" lon="13.824882547933122"><ele>781.0</ele><time>2026-05-01T11:23:31.998Z</time></trkpt><trkpt lat="41.956207427913455" lon="13.824924579244831"><ele>781.0</ele><time>2026-05-01T11:23:32.998Z</time></trkpt><trkpt lat="41.95609493031582" lon="13.824967374184476"><ele>781.0</ele><time>2026-05-01T11:23:33.998Z</time></trkpt><trkpt lat="41.95598316192415" lon="13.825009706248887"><ele>781.0</ele><time>2026-05-01T11:23:34.998Z</time></trkpt><trkpt lat="41.95586672228573" lon="13.825053909824915"><ele>779.5</ele><time>2026-05-01T11:23:35.999Z</time></trkpt><trkpt lat="41.95574780920596" lon="13.825097169463737"><ele>778.0</ele><time>2026-05-01T11:23:36.999Z</time></trkpt><trkpt lat="41.95562653341293" lon="13.825141687867877"><ele>776.5</ele><time>2026-05-01T11:23:37.999Z</time></trkpt><trkpt lat="41.95550635602047" lon="13.825185607101348"><ele>775.0</ele><time>2026-05-01T11:23:38.999Z</time></trkpt><trkpt lat="41.95538519972899" lon="13.825229641469715"><ele>779.25</ele><time>2026-05-01T11:23:39.999Z</time></trkpt><trkpt lat="41.955263112574656" lon="13.825276058666159"><ele>783.5</ele><time>2026-05-01T11:23:40.999Z</time></trkpt><trkpt lat="41.95514055398406" lon="13.82532541479423"><ele>787.75</ele><time>2026-05-01T11:23:41.999Z</time></trkpt><trkpt lat="41.955016446308825" lon="13.825376893658282"><ele>792.0</ele><time>2026-05-01T11:23:42.999Z</time></trkpt><trkpt lat="41.954894331540494" lon="13.825425257730386"><ele>792.0</ele><time>2026-05-01T11:23:43.999Z</time></trkpt><trkpt lat="41.954765878142624" lon="13.825462135935066"><ele>792.0</ele><time>2026-05-01T11:23:44.999Z</time></trkpt><trkpt lat="41.9546334578899" lon="13.825468687600873"><ele>792.0</ele><time>2026-05-01T11:23:45.999Z</time></trkpt><trkpt lat="41.954503385869366" lon="13.82542727489911"><ele>792.0</ele><time>2026-05-01T11:23:46.999Z</time></trkpt><trkpt lat="41.95437434676069" lon="13.825344435622565"><ele>792.0</ele><time>2026-05-01T11:23:47.999Z</time></trkpt><trkpt lat="41.95425307093244" lon="13.825240423237485"><ele>792.0</ele><time>2026-05-01T11:23:48.999Z</time></trkpt><trkpt lat="41.95413657180967" lon="13.825135198531695"><ele>792.0</ele><time>2026-05-01T11:23:49.999Z</time></trkpt><trkpt lat="41.95402057977212" lon="13.825028538444531"><ele>792.0</ele><time>2026-05-01T11:23:50.999Z</time></trkpt><trkpt lat="41.953915233358785" lon="13.82491514068402"><ele>788.25</ele><time>2026-05-01T11:23:51.999Z</time></trkpt><trkpt lat="41.95381969068937" lon="13.824799806343904"><ele>784.5</ele><time>2026-05-01T11:23:52.999Z</time></trkpt><trkpt lat="41.953731865907464" lon="13.824668740619988"><ele>780.75</ele><time>2026-05-01T11:23:53.999Z</time></trkpt><trkpt lat="41.95364710846721" lon="13.82453307339464"><ele>777.0</ele><time>2026-05-01T11:23:54.999Z</time></trkpt><trkpt lat="41.95356088002774" lon="13.82439396874881"><ele>776.5</ele><time>2026-05-01T11:23:55.999Z</time></trkpt><trkpt lat="41.95347099824927" lon="13.824261441193313"><ele>776.0</ele><time>2026-05-01T11:23:56.999Z</time></trkpt><trkpt lat="41.95338037471872" lon="13.82412738096223"><ele>775.5</ele><time>2026-05-01T11:23:57.999Z</time></trkpt><trkpt lat="41.95329647371031" lon="13.823992540993332"><ele>775.0</ele><time>2026-05-01T11:23:58.999Z</time></trkpt><trkpt lat="41.95321700645578" lon="13.823866766235701"><ele>775.5</ele><time>2026-05-01T11:23:59.999Z</time></trkpt><trkpt lat="41.95313870126561" lon="13.82374851420415"><ele>776.0</ele><time>2026-05-01T11:24:00.999Z</time></trkpt><trkpt lat="41.95306086352693" lon="13.823640194470475"><ele>776.5</ele><time>2026-05-01T11:24:01.999Z</time></trkpt><trkpt lat="41.95297810054643" lon="13.823526777502014"><ele>777.0</ele><time>2026-05-01T11:24:02.999Z</time></trkpt><trkpt lat="41.95288084350917" lon="13.823423251417262"><ele>777.0</ele><time>2026-05-01T11:24:03.999Z</time></trkpt><trkpt lat="41.952774455094605" lon="13.823337126535035"><ele>777.0</ele><time>2026-05-01T11:24:04.999Z</time></trkpt><trkpt lat="41.95267081367039" lon="13.823261319324336"><ele>777.0</ele><time>2026-05-01T11:24:05.999Z</time></trkpt><trkpt lat="41.95257079017809" lon="13.82319168806419"><ele>777.0</ele><time>2026-05-01T11:24:06.999Z</time></trkpt><trkpt lat="41.9524742453887" lon="13.82313303614903"><ele>778.0</ele><time>2026-05-01T11:24:07.999Z</time></trkpt><trkpt lat="41.9523794115419" lon="13.823088147740503"><ele>779.0</ele><time>2026-05-01T11:24:08.999Z</time></trkpt><trkpt lat="41.95228603226325" lon="13.823053984794052"><ele>780.0</ele><time>2026-05-01T11:24:09.999Z</time></trkpt><trkpt lat="41.952182536772035" lon="13.823081936378244"><ele>781.0</ele><time>2026-05-01T11:24:10.999Z</time></trkpt><trkpt lat="41.952075314041274" lon="13.823190280427006"><ele>782.0</ele><time>2026-05-01T11:24:11.999Z</time></trkpt><trkpt lat="41.9519689021262" lon="13.82328155052593"><ele>782.0</ele><time>2026-05-01T11:24:12.999Z</time></trkpt><trkpt lat="41.951869687109415" lon="13.823365925171844"><ele>782.0</ele><time>2026-05-01T11:24:13.999Z</time></trkpt><trkpt lat="41.9517731934166" lon="13.823449592510705"><ele>782.0</ele><time>2026-05-01T11:24:14.999Z</time></trkpt><trkpt lat="41.95167679188806" lon="13.823528399484221"><ele>782.0</ele><time>2026-05-01T11:24:15.999Z</time></trkpt><trkpt lat="41.95159111446662" lon="13.823610795535618"><ele>784.4000000000001</ele><time>2026-05-01T11:24:16.999Z</time></trkpt><trkpt lat="41.951521460066765" lon="13.823685533878528"><ele>786.8000000000001</ele><time>2026-05-01T11:24:17.999Z</time></trkpt><trkpt lat="41.95145830619991" lon="13.823793036129839"><ele>789.2</ele><time>2026-05-01T11:24:18.999Z</time></trkpt><trkpt lat="41.9514084864365" lon="13.823922445452949"><ele>791.6</ele><time>2026-05-01T11:24:19.999Z</time></trkpt><trkpt lat="41.95136032887349" lon="13.8240651358058"><ele>794.0</ele><time>2026-05-01T11:24:20.999Z</time></trkpt><trkpt lat="41.95130621194084" lon="13.824200715174525"><ele>800.2</ele><time>2026-05-01T11:24:21.999Z</time></trkpt><trkpt lat="41.95125001940737" lon="13.82433438446574"><ele>806.4000000000001</ele><time>2026-05-01T11:24:22.999Z</time></trkpt><trkpt lat="41.95119041797657" lon="13.82443655225334"><ele>812.6</ele><time>2026-05-01T11:24:23.999Z</time></trkpt><trkpt lat="41.95115019960779" lon="13.824573943629904"><ele>818.8</ele><time>2026-05-01T11:24:24.999Z</time></trkpt><trkpt lat="41.95110753819034" lon="13.824705089872136"><ele>825.0</ele><time>2026-05-01T11:24:25.999Z</time></trkpt><trkpt lat="41.95105575989124" lon="13.824814470669848"><ele>825.0</ele><time>2026-05-01T11:24:26.999Z</time></trkpt><trkpt lat="41.95100859739802" lon="13.824914305837947"><ele>825.0</ele><time>2026-05-01T11:24:27.999Z</time></trkpt><trkpt lat="41.95095693110181" lon="13.825004026008925"><ele>825.0</ele><time>2026-05-01T11:24:28.999Z</time></trkpt><trkpt lat="41.95090043257049" lon="13.825068654768987"><ele>825.0</ele><time>2026-05-01T11:24:29.999Z</time></trkpt><trkpt lat="41.950823774682405" lon="13.825114324921895"><ele>825.0</ele><time>2026-05-01T11:24:30.999Z</time></trkpt><trkpt lat="41.95073572984" lon="13.825138595849443"><ele>825.0</ele><time>2026-05-01T11:24:31.999Z</time></trkpt><trkpt lat="41.95064606946625" lon="13.825141836154158"><ele>826.2</ele><time>2026-05-01T11:24:32.999Z</time></trkpt><trkpt lat="41.950559641332006" lon="13.825159747258002"><ele>827.4</ele><time>2026-05-01T11:24:33.999Z</time></trkpt><trkpt lat="41.95046922446356" lon="13.825175763384006"><ele>828.5999999999999</ele><time>2026-05-01T11:24:34.999Z</time></trkpt><trkpt lat="41.950378966472236" lon="13.825199662245796"><ele>829.8</ele><time>2026-05-01T11:24:35.999Z</time></trkpt><trkpt lat="41.95028557764569" lon="13.825227422192755"><ele>831.0</ele><time>2026-05-01T11:24:36.999Z</time></trkpt><trkpt lat="41.950196661163396" lon="13.825264927368535"><ele>831.0</ele><time>2026-05-01T11:24:37.999Z</time></trkpt><trkpt lat="41.950111222510984" lon="13.825313033577721"><ele>831.0</ele><time>2026-05-01T11:24:38.999Z</time></trkpt><trkpt lat="41.950037185055464" lon="13.825380856951442"><ele>831.0</ele><time>2026-05-01T11:24:39.999Z</time></trkpt><trkpt lat="41.949978380505094" lon="13.825476271703957"><ele>831.0</ele><time>2026-05-01T11:24:40.999Z</time></trkpt><trkpt lat="41.94991402081155" lon="13.825572385475095"><ele>831.0</ele><time>2026-05-01T11:24:41.999Z</time></trkpt><trkpt lat="41.94982645862126" lon="13.82564158602566"><ele>827.0</ele><time>2026-05-01T11:24:42.999Z</time></trkpt><trkpt lat="41.94972427998476" lon="13.825668469095701"><ele>823.0</ele><time>2026-05-01T11:24:43.999Z</time></trkpt><trkpt lat="41.94962147967458" lon="13.825665861629926"><ele>819.0</ele><time>2026-05-01T11:24:44.999Z</time></trkpt><trkpt lat="41.94952775311521" lon="13.825661393546257"><ele>815.0</ele><time>2026-05-01T11:24:45.999Z</time></trkpt><trkpt lat="41.94943946200477" lon="13.825680411934695"><ele>811.0</ele><time>2026-05-01T11:24:46.999Z</time></trkpt><trkpt lat="41.949350323669655" lon="13.825721982049739"><ele>810.9999999999999</ele><time>2026-05-01T11:24:47.999Z</time></trkpt><trkpt lat="41.949263267705234" lon="13.825765987495542"><ele>811.0</ele><time>2026-05-01T11:24:48.999Z</time></trkpt><trkpt lat="41.94918021636507" lon="13.825803705362228"><ele>811.0</ele><time>2026-05-01T11:24:49.999Z</time></trkpt><trkpt lat="41.949103916029195" lon="13.825841568826643"><ele>811.0</ele><time>2026-05-01T11:24:50.999Z</time></trkpt><trkpt lat="41.94903365017084" lon="13.825881436173477"><ele>810.9999999999999</ele><time>2026-05-01T11:24:51.999Z</time></trkpt><trkpt lat="41.94895763795378" lon="13.825915328511389"><ele>811.0</ele><time>2026-05-01T11:24:52.999Z</time></trkpt><trkpt lat="41.94888217184506" lon="13.825927263418444"><ele>809.5999999999999</ele><time>2026-05-01T11:24:53.999Z</time></trkpt><trkpt lat="41.948814735031235" lon="13.82591828330419"><ele>808.2</ele><time>2026-05-01T11:24:54.999Z</time></trkpt><trkpt lat="41.94870749027188" lon="13.825888834190186"><ele>806.8</ele><time>2026-05-01T11:24:56.999Z</time></trkpt><trkpt lat="41.9486056229616" lon="13.825892696552295"><ele>805.4000000000001</ele><time>2026-05-01T11:24:58.999Z</time></trkpt><trkpt lat="41.948504727721556" lon="13.825950944359212"><ele>804.0</ele><time>2026-05-01T11:25:00.999Z</time></trkpt><trkpt lat="41.94845335053181" lon="13.826005048250988"><ele>806.3333333333334</ele><time>2026-05-01T11:25:01.999Z</time></trkpt><trkpt lat="41.94840018945754" lon="13.826064581738821"><ele>808.6666666666667</ele><time>2026-05-01T11:25:02.999Z</time></trkpt><trkpt lat="41.9483429409106" lon="13.826123699340021"><ele>811.0</ele><time>2026-05-01T11:25:03.999Z</time></trkpt><trkpt lat="41.94828126974691" lon="13.826179959967797"><ele>813.3333333333334</ele><time>2026-05-01T11:25:04.999Z</time></trkpt><trkpt lat="41.948221817741825" lon="13.82624106311816"><ele>815.6666666666667</ele><time>2026-05-01T11:25:05.999Z</time></trkpt><trkpt lat="41.948173593018545" lon="13.82632561912675"><ele>818.0</ele><time>2026-05-01T11:25:06.999Z</time></trkpt><trkpt lat="41.94813822070801" lon="13.826425293793829"><ele>818.0000000000001</ele><time>2026-05-01T11:25:07.999Z</time></trkpt><trkpt lat="41.94810683067336" lon="13.826527587445998"><ele>818.0</ele><time>2026-05-01T11:25:08.999Z</time></trkpt><trkpt lat="41.94808192007752" lon="13.82663200756732"><ele>818.0</ele><time>2026-05-01T11:25:09.999Z</time></trkpt><trkpt lat="41.94806488278174" lon="13.826739090793884"><ele>818.0</ele><time>2026-05-01T11:25:10.999Z</time></trkpt><trkpt lat="41.94805129074622" lon="13.826845235685223"><ele>818.0000000000001</ele><time>2026-05-01T11:25:11.999Z</time></trkpt><trkpt lat="41.94802906365736" lon="13.826948621096438"><ele>818.0</ele><time>2026-05-01T11:25:12.999Z</time></trkpt><trkpt lat="41.947993648140155" lon="13.827047985713456"><ele>825.0000000000001</ele><time>2026-05-01T11:25:13.999Z</time></trkpt><trkpt lat="41.9479419371681" lon="13.827133934116002"><ele>832.0</ele><time>2026-05-01T11:25:14.999Z</time></trkpt><trkpt lat="41.94787712931678" lon="13.827201601643907"><ele>839.0</ele><time>2026-05-01T11:25:15.999Z</time></trkpt><trkpt lat="41.94780241312787" lon="13.827246473291988"><ele>846.0</ele><time>2026-05-01T11:25:16.999Z</time></trkpt><trkpt lat="41.94773455925687" lon="13.827270405745404"><ele>853.0000000000001</ele><time>2026-05-01T11:25:17.999Z</time></trkpt><trkpt lat="41.94766602755769" lon="13.827273584761917"><ele>860.0</ele><time>2026-05-01T11:25:18.999Z</time></trkpt><trkpt lat="41.947565186993664" lon="13.827228404911956"><ele>853.2</ele><time>2026-05-01T11:25:20.999Z</time></trkpt><trkpt lat="41.947496240982616" lon="13.827163848372734"><ele>846.4</ele><time>2026-05-01T11:25:22.999Z</time></trkpt><trkpt lat="41.947391706860486" lon="13.827158056122537"><ele>839.5999999999999</ele><time>2026-05-01T11:25:24.999Z</time></trkpt><trkpt lat="41.947319793467045" lon="13.827197628137831"><ele>832.8</ele><time>2026-05-01T11:25:25.999Z</time></trkpt><trkpt lat="41.947266322059896" lon="13.827268926708992"><ele>826.0</ele><time>2026-05-01T11:25:26.999Z</time></trkpt><trkpt lat="41.947162573094296" lon="13.827344078522813"><ele>825.9999999999999</ele><time>2026-05-01T11:25:28.999Z</time></trkpt><trkpt lat="41.947131984972415" lon="13.827421326014507"><ele>826.0</ele><time>2026-05-01T11:25:29.999Z</time></trkpt><trkpt lat="41.947065198461466" lon="13.827524944240007"><ele>826.0</ele><time>2026-05-01T11:25:31.999Z</time></trkpt><trkpt lat="41.94702319999694" lon="13.827604813668987"><ele>826.0</ele><time>2026-05-01T11:25:33.999Z</time></trkpt><trkpt lat="41.946967311825425" lon="13.827689940384015"><ele>825.9999999999999</ele><time>2026-05-01T11:25:36.999Z</time></trkpt><trkpt lat="41.94687336246743" lon="13.827739236236386"><ele>826.0</ele><time>2026-05-01T11:25:38.999Z</time></trkpt><trkpt lat="41.9467563437316" lon="13.827702466879442"><ele>827.8333333333333</ele><time>2026-05-01T11:25:40.999Z</time></trkpt><trkpt lat="41.946667027510316" lon="13.827731895180651"><ele>829.6666666666666</ele><time>2026-05-01T11:25:41.999Z</time></trkpt><trkpt lat="41.94659706242042" lon="13.827786501483436"><ele>831.5</ele><time>2026-05-01T11:25:42.999Z</time></trkpt><trkpt lat="41.9465364900767" lon="13.827845473826859"><ele>833.3333333333333</ele><time>2026-05-01T11:25:43.999Z</time></trkpt><trkpt lat="41.946462089603024" lon="13.827931201784946"><ele>835.1666666666666</ele><time>2026-05-01T11:25:45.999Z</time></trkpt><trkpt lat="41.94639959638617" lon="13.827999478914887"><ele>837.0</ele><time>2026-05-01T11:25:48.999Z</time></trkpt><trkpt lat="41.946344400293206" lon="13.828051690614993"><ele>837.0</ele><time>2026-05-01T11:25:50.999Z</time></trkpt><trkpt lat="41.94626507470295" lon="13.828138929385876"><ele>837.0</ele><time>2026-05-01T11:25:52.999Z</time></trkpt><trkpt lat="41.94615099916482" lon="13.828212761731443"><ele>837.0</ele><time>2026-05-01T11:25:54.999Z</time></trkpt><trkpt lat="41.94611034421243" lon="13.828289798399412"><ele>837.0</ele><time>2026-05-01T11:25:55.999Z</time></trkpt><trkpt lat="41.94606148833889" lon="13.828359679443786"><ele>837.0</ele><time>2026-05-01T11:25:56.999Z</time></trkpt><trkpt lat="41.94601727810114" lon="13.828438336661915"><ele>837.0</ele><time>2026-05-01T11:25:57.999Z</time></trkpt><trkpt lat="41.94597728984578" lon="13.828520579694779"><ele>837.8333333333334</ele><time>2026-05-01T11:25:58.999Z</time></trkpt><trkpt lat="41.945924342560424" lon="13.828594324643472"><ele>838.6666666666667</ele><time>2026-05-01T11:25:59.999Z</time></trkpt><trkpt lat="41.945855738002784" lon="13.828662560914447"><ele>839.5</ele><time>2026-05-01T11:26:00.999Z</time></trkpt><trkpt lat="41.9457655825951" lon="13.828694453719939"><ele>840.3333333333334</ele><time>2026-05-01T11:26:01.999Z</time></trkpt><trkpt lat="41.94567818627175" lon="13.82873749192351"><ele>841.1666666666667</ele><time>2026-05-01T11:26:02.999Z</time></trkpt><trkpt lat="41.94560420233737" lon="13.828801254115909"><ele>842.0</ele><time>2026-05-01T11:26:03.999Z</time></trkpt><trkpt lat="41.94552537805404" lon="13.828844184347638"><ele>842.0000000000001</ele><time>2026-05-01T11:26:04.999Z</time></trkpt><trkpt lat="41.94544714576631" lon="13.828891064531451"><ele>842.0</ele><time>2026-05-01T11:26:05.999Z</time></trkpt><trkpt lat="41.94536616082298" lon="13.828907815343186"><ele>842.0</ele><time>2026-05-01T11:26:06.999Z</time></trkpt><trkpt lat="41.945296770722614" lon="13.828955041016432"><ele>842.0</ele><time>2026-05-01T11:26:07.999Z</time></trkpt><trkpt lat="41.945221405695946" lon="13.828962016787877"><ele>842.0000000000001</ele><time>2026-05-01T11:26:08.999Z</time></trkpt><trkpt lat="41.94514878757912" lon="13.828944870014492"><ele>842.0</ele><time>2026-05-01T11:26:09.999Z</time></trkpt><trkpt lat="41.94508160335718" lon="13.828917075123567"><ele>840.1666666666667</ele><time>2026-05-01T11:26:10.999Z</time></trkpt><trkpt lat="41.945027778278934" lon="13.828848532008255"><ele>838.3333333333334</ele><time>2026-05-01T11:26:11.999Z</time></trkpt><trkpt lat="41.94496547174856" lon="13.828817199160518"><ele>836.5</ele><time>2026-05-01T11:26:12.999Z</time></trkpt><trkpt lat="41.944900242646185" lon="13.828825170390374"><ele>834.6666666666667</ele><time>2026-05-01T11:26:13.999Z</time></trkpt><trkpt lat="41.94478724907702" lon="13.828800127290531"><ele>832.8333333333334</ele><time>2026-05-01T11:26:15.999Z</time></trkpt><trkpt lat="41.944711257727775" lon="13.82880035065988"><ele>831.0</ele><time>2026-05-01T11:26:17.999Z</time></trkpt><trkpt lat="41.94466592136784" lon="13.828731276228323"><ele>831.0</ele><time>2026-05-01T11:26:20Z</time></trkpt><trkpt lat="41.944605804285125" lon="13.82866702676133"><ele>831.0</ele><time>2026-05-01T11:26:22Z</time></trkpt><trkpt lat="41.94448929230474" lon="13.82861532623223"><ele>831.0</ele><time>2026-05-01T11:26:24Z</time></trkpt><trkpt lat="41.94441648639019" lon="13.828607928343986"><ele>831.0</ele><time>2026-05-01T11:26:25Z</time></trkpt><trkpt lat="41.94429325831397" lon="13.828583103836609"><ele>831.0</ele><time>2026-05-01T11:26:27Z</time></trkpt><trkpt lat="41.94417680249719" lon="13.828578872908158"><ele>833.3333333333334</ele><time>2026-05-01T11:26:29Z</time></trkpt><trkpt lat="41.944101159937034" lon="13.828596771930684"><ele>835.6666666666667</ele><time>2026-05-01T11:26:31Z</time></trkpt><trkpt lat="41.94402087897175" lon="13.828594419233166"><ele>838.0</ele><time>2026-05-01T11:26:34Z</time></trkpt><trkpt lat="41.94393382696122" lon="13.828588474148615"><ele>840.3333333333334</ele><time>2026-05-01T11:26:43Z</time></trkpt><trkpt lat="41.94385591996661" lon="13.828589483895891"><ele>842.6666666666667</ele><time>2026-05-01T11:26:45Z</time></trkpt><trkpt lat="41.94375072243632" lon="13.828601253251405"><ele>845.0</ele><time>2026-05-01T11:26:48Z</time></trkpt><trkpt lat="41.94364036300535" lon="13.828635566005996"><ele>845.0000000000001</ele><time>2026-05-01T11:26:50Z</time></trkpt><trkpt lat="41.943572033343855" lon="13.8286720011672"><ele>845.0</ele><time>2026-05-01T11:26:50.999Z</time></trkpt><trkpt lat="41.943524765683634" lon="13.828734828159442"><ele>845.0</ele><time>2026-05-01T11:26:51.999Z</time></trkpt><trkpt lat="41.94349469597354" lon="13.828810143728278"><ele>845.0</ele><time>2026-05-01T11:26:52.999Z</time></trkpt><trkpt lat="41.94342136128416" lon="13.828925452119893"><ele>845.0000000000001</ele><time>2026-05-01T11:26:54.999Z</time></trkpt><trkpt lat="41.94335164580316" lon="13.829032310875371"><ele>845.0</ele><time>2026-05-01T11:26:56.999Z</time></trkpt><trkpt lat="41.943271209815606" lon="13.829110123930247"><ele>847.6666666666667</ele><time>2026-05-01T11:26:58.999Z</time></trkpt><trkpt lat="41.94321138843693" lon="13.82915235111942"><ele>850.3333333333334</ele><time>2026-05-01T11:27:00.999Z</time></trkpt><trkpt lat="41.943128928939856" lon="13.829203009125347"><ele>853.0</ele><time>2026-05-01T11:27:03.999Z</time></trkpt><trkpt lat="41.943047448590804" lon="13.829258778988974"><ele>855.6666666666667</ele><time>2026-05-01T11:27:05.999Z</time></trkpt><trkpt lat="41.94295429182227" lon="13.829309584746529"><ele>858.3333333333334</ele><time>2026-05-01T11:27:07.999Z</time></trkpt><trkpt lat="41.942869282109164" lon="13.829361086251032"><ele>861.0</ele><time>2026-05-01T11:27:09.999Z</time></trkpt><trkpt lat="41.94277403582838" lon="13.82939784642006"><ele>861.0</ele><time>2026-05-01T11:27:11.999Z</time></trkpt><trkpt lat="41.94269081506004" lon="13.82946268920452"><ele>860.9999999999999</ele><time>2026-05-01T11:27:13.999Z</time></trkpt><trkpt lat="41.94260789273453" lon="13.8295117921065"><ele>860.9999999999999</ele><time>2026-05-01T11:27:15.999Z</time></trkpt><trkpt lat="41.9425337670926" lon="13.829572656327226"><ele>861.0</ele><time>2026-05-01T11:27:17.999Z</time></trkpt><trkpt lat="41.94246442875053" lon="13.8296693300218"><ele>861.0</ele><time>2026-05-01T11:27:19.999Z</time></trkpt><trkpt lat="41.942430868252615" lon="13.829809766104194"><ele>858.5</ele><time>2026-05-01T11:27:21.999Z</time></trkpt><trkpt lat="41.942390524161226" lon="13.829950855652008"><ele>856.0</ele><time>2026-05-01T11:27:23.999Z</time></trkpt><trkpt lat="41.942353103152875" lon="13.830107599168086"><ele>853.5</ele><time>2026-05-01T11:27:25.999Z</time></trkpt><trkpt lat="41.94232866608511" lon="13.830266957303845"><ele>851.0</ele><time>2026-05-01T11:27:27.999Z</time></trkpt><trkpt lat="41.94231549747828" lon="13.830432533902671"><ele>851.0</ele><time>2026-05-01T11:27:29.999Z</time></trkpt><trkpt lat="41.942282483347434" lon="13.830584933819212"><ele>851.0</ele><time>2026-05-01T11:27:31.999Z</time></trkpt><trkpt lat="41.94224116019347" lon="13.830719198558269"><ele>851.0</ele><time>2026-05-01T11:27:33.999Z</time></trkpt><trkpt lat="41.94218929391733" lon="13.830855846710174"><ele>851.0</ele><time>2026-05-01T11:27:35.999Z</time></trkpt><trkpt lat="41.942095865753316" lon="13.830953602960658"><ele>849.1999999999999</ele><time>2026-05-01T11:27:37.999Z</time></trkpt><trkpt lat="41.9419994900005" lon="13.83105011307816"><ele>847.4</ele><time>2026-05-01T11:27:39.999Z</time></trkpt><trkpt lat="41.941916204750385" lon="13.831071780141434"><ele>845.6</ele><time>2026-05-01T11:27:41.999Z</time></trkpt><trkpt lat="41.94182797912462" lon="13.83105752993336"><ele>843.8</ele><time>2026-05-01T11:27:44.999Z</time></trkpt><trkpt lat="41.94174050849279" lon="13.831066411622905"><ele>842.0</ele><time>2026-05-01T11:27:46.999Z</time></trkpt><trkpt lat="41.94162633845673" lon="13.831108564079102"><ele>842.0000000000001</ele><time>2026-05-01T11:27:48.999Z</time></trkpt><trkpt lat="41.94157741753362" lon="13.831180467231828"><ele>842.0</ele><time>2026-05-01T11:27:49.999Z</time></trkpt><trkpt lat="41.941539775256516" lon="13.831261082025023"><ele>842.0</ele><time>2026-05-01T11:27:50.999Z</time></trkpt><trkpt lat="41.941499061678726" lon="13.83134844993378"><ele>842.0</ele><time>2026-05-01T11:27:51.999Z</time></trkpt><trkpt lat="41.941453555880955" lon="13.831437870805665"><ele>842.0000000000001</ele><time>2026-05-01T11:27:52.999Z</time></trkpt><trkpt lat="41.94140017105785" lon="13.831530341778242"><ele>842.0</ele><time>2026-05-01T11:27:53.999Z</time></trkpt><trkpt lat="41.9413459310433" lon="13.831623817316629"><ele>842.0</ele><time>2026-05-01T11:27:54.999Z</time></trkpt><trkpt lat="41.94129167225568" lon="13.831717460423503"><ele>842.0</ele><time>2026-05-01T11:27:55.999Z</time></trkpt><trkpt lat="41.94123781924872" lon="13.83179941213161"><ele>842.0</ele><time>2026-05-01T11:27:56.999Z</time></trkpt><trkpt lat="41.941207372948476" lon="13.83188548463117"><ele>842.0</ele><time>2026-05-01T11:27:57.999Z</time></trkpt><trkpt lat="41.9411128976452" lon="13.831990470893471"><ele>842.0</ele><time>2026-05-01T11:28:00.999Z</time></trkpt><trkpt lat="41.94104791173439" lon="13.832078567923432"><ele>847.3333333333334</ele><time>2026-05-01T11:28:03.999Z</time></trkpt><trkpt lat="41.94100706629336" lon="13.832178883571894"><ele>852.6666666666667</ele><time>2026-05-01T11:28:05.999Z</time></trkpt><trkpt lat="41.940960449607886" lon="13.83229398827188"><ele>858.0</ele><time>2026-05-01T11:28:07.999Z</time></trkpt><trkpt lat="41.94097952512787" lon="13.832387198815635"><ele>863.3333333333333</ele><time>2026-05-01T11:28:12.999Z</time></trkpt><trkpt lat="41.940990984997576" lon="13.832525705067866"><ele>868.6666666666666</ele><time>2026-05-01T11:28:14.999Z</time></trkpt><trkpt lat="41.94096015779242" lon="13.832639272872626"><ele>874.0</ele><time>2026-05-01T11:28:17.999Z</time></trkpt><trkpt lat="41.94090942473236" lon="13.832781276425035"><ele>869.4999999999999</ele><time>2026-05-01T11:28:19.999Z</time></trkpt><trkpt lat="41.94085629526031" lon="13.832832824492034"><ele>865.0</ele><time>2026-05-01T11:28:20.999Z</time></trkpt><trkpt lat="41.94080102100725" lon="13.832908959750434"><ele>860.5</ele><time>2026-05-01T11:28:21.999Z</time></trkpt><trkpt lat="41.94075623886409" lon="13.832973115292079"><ele>856.0</ele><time>2026-05-01T11:28:23Z</time></trkpt><trkpt lat="41.94070026805493" lon="13.83307990725729"><ele>851.4999999999999</ele><time>2026-05-01T11:28:25Z</time></trkpt><trkpt lat="41.94065998680477" lon="13.833213187662945"><ele>847.0</ele><time>2026-05-01T11:28:27Z</time></trkpt><trkpt lat="41.94062633942416" lon="13.83336227814951"><ele>851.1666666666666</ele><time>2026-05-01T11:28:29Z</time></trkpt><trkpt lat="41.94060692206585" lon="13.833504336591734"><ele>855.3333333333333</ele><time>2026-05-01T11:28:31Z</time></trkpt><trkpt lat="41.940588795283745" lon="13.833599397603576"><ele>859.5</ele><time>2026-05-01T11:28:33Z</time></trkpt><trkpt lat="41.940579302208576" lon="13.83370566520203"><ele>863.6666666666667</ele><time>2026-05-01T11:28:36Z</time></trkpt><trkpt lat="41.94057972661738" lon="13.8338157921873"><ele>867.8333333333334</ele><time>2026-05-01T11:28:38Z</time></trkpt><trkpt lat="41.94059096319174" lon="13.83392277311967"><ele>872.0</ele><time>2026-05-01T11:28:40Z</time></trkpt><trkpt lat="41.94059664699244" lon="13.83403809185465"><ele>872.0</ele><time>2026-05-01T11:28:42Z</time></trkpt><trkpt lat="41.94058118636748" lon="13.834176817633896"><ele>872.0</ele><time>2026-05-01T11:28:44Z</time></trkpt><trkpt lat="41.940471579924676" lon="13.834252294742205"><ele>872.0</ele><time>2026-05-01T11:28:46Z</time></trkpt><trkpt lat="41.94039062293185" lon="13.834324837412424"><ele>872.0</ele><time>2026-05-01T11:28:47Z</time></trkpt><trkpt lat="41.94030664241734" lon="13.834402510620919"><ele>872.0</ele><time>2026-05-01T11:28:48Z</time></trkpt><trkpt lat="41.94023352042389" lon="13.83447275714977"><ele>869.4000000000001</ele><time>2026-05-01T11:28:49Z</time></trkpt><trkpt lat="41.94015418969379" lon="13.834547206567908"><ele>866.8000000000001</ele><time>2026-05-01T11:28:50Z</time></trkpt><trkpt lat="41.94007022063015" lon="13.834623498145115"><ele>864.2</ele><time>2026-05-01T11:28:51Z</time></trkpt><trkpt lat="41.93998310403023" lon="13.834702649418626"><ele>861.6</ele><time>2026-05-01T11:28:52Z</time></trkpt><trkpt lat="41.93989599553498" lon="13.834781793426174"><ele>859.0</ele><time>2026-05-01T11:28:53Z</time></trkpt><trkpt lat="41.93980908667578" lon="13.834858599312993"><ele>859.0</ele><time>2026-05-01T11:28:54Z</time></trkpt><trkpt lat="41.9397226691521" lon="13.83493420767766"><ele>859.0000000000001</ele><time>2026-05-01T11:28:55Z</time></trkpt><trkpt lat="41.9396413339278" lon="13.835024468790952"><ele>859.0000000000001</ele><time>2026-05-01T11:28:56Z</time></trkpt><trkpt lat="41.93956741183455" lon="13.835131901900306"><ele>859.0</ele><time>2026-05-01T11:28:57Z</time></trkpt><trkpt lat="41.939508857575085" lon="13.835257056392287"><ele>859.0</ele><time>2026-05-01T11:28:58Z</time></trkpt><trkpt lat="41.93945507589347" lon="13.835380163599746"><ele>858.0</ele><time>2026-05-01T11:28:59Z</time></trkpt><trkpt lat="41.939401387037" lon="13.835501295002059"><ele>857.0000000000001</ele><time>2026-05-01T11:29:00Z</time></trkpt><trkpt lat="41.93933851797461" lon="13.835600680544184"><ele>856.0000000000001</ele><time>2026-05-01T11:29:01Z</time></trkpt><trkpt lat="41.93926112712308" lon="13.835673866839114"><ele>855.0</ele><time>2026-05-01T11:29:02Z</time></trkpt><trkpt lat="41.939190881455986" lon="13.835722680774367"><ele>854.0</ele><time>2026-05-01T11:29:03Z</time></trkpt><trkpt lat="41.9391247513046" lon="13.835774001729146"><ele>854.0000000000001</ele><time>2026-05-01T11:29:04Z</time></trkpt><trkpt lat="41.939064107625555" lon="13.835819198999243"><ele>854.0</ele><time>2026-05-01T11:29:05Z</time></trkpt><trkpt lat="41.93901495539636" lon="13.835872358924652"><ele>854.0</ele><time>2026-05-01T11:29:06Z</time></trkpt><trkpt lat="41.93888483815601" lon="13.835949232271808"><ele>854.0</ele><time>2026-05-01T11:29:08Z</time></trkpt><trkpt lat="41.93882606572558" lon="13.835991359163824"><ele>854.0000000000001</ele><time>2026-05-01T11:29:09Z</time></trkpt><trkpt lat="41.93876418518189" lon="13.836035714618687"><ele>854.0</ele><time>2026-05-01T11:29:10Z</time></trkpt><trkpt lat="41.93870961133429" lon="13.836101837465856"><ele>859.8333333333334</ele><time>2026-05-01T11:29:11Z</time></trkpt><trkpt lat="41.93864570628384" lon="13.836147821886481"><ele>865.6666666666667</ele><time>2026-05-01T11:29:12Z</time></trkpt><trkpt lat="41.93858724085702" lon="13.836203981269353"><ele>871.5</ele><time>2026-05-01T11:29:13Z</time></trkpt><trkpt lat="41.93854830909161" lon="13.836292046192554"><ele>877.3333333333333</ele><time>2026-05-01T11:29:14Z</time></trkpt><trkpt lat="41.93853637766674" lon="13.836403069439735"><ele>883.1666666666666</ele><time>2026-05-01T11:29:15Z</time></trkpt><trkpt lat="41.938534069763975" lon="13.836525354650476"><ele>889.0</ele><time>2026-05-01T11:29:16Z</time></trkpt><trkpt lat="41.93853128250204" lon="13.836653853974152"><ele>889.0</ele><time>2026-05-01T11:29:17Z</time></trkpt><trkpt lat="41.93852248389308" lon="13.836782848884216"><ele>889.0000000000001</ele><time>2026-05-01T11:29:18Z</time></trkpt><trkpt lat="41.938512792071926" lon="13.836913342458903"><ele>889.0000000000001</ele><time>2026-05-01T11:29:19Z</time></trkpt><trkpt lat="41.938501426486184" lon="13.837043349540041"><ele>889.0</ele><time>2026-05-01T11:29:20Z</time></trkpt><trkpt lat="41.93849180448357" lon="13.837172899620578"><ele>889.0</ele><time>2026-05-01T11:29:21Z</time></trkpt><trkpt lat="41.93847647062335" lon="13.837301201082857"><ele>886.4000000000001</ele><time>2026-05-01T11:29:22Z</time></trkpt><trkpt lat="41.938460226207205" lon="13.837427136556942"><ele>883.8000000000001</ele><time>2026-05-01T11:29:23Z</time></trkpt><trkpt lat="41.938409726464386" lon="13.83753774012187"><ele>881.1999999999999</ele><time>2026-05-01T11:29:24Z</time></trkpt><trkpt lat="41.93836893162314" lon="13.837660337612693"><ele>878.5999999999999</ele><time>2026-05-01T11:29:25Z</time></trkpt><trkpt lat="41.93833713872353" lon="13.837773755979821"><ele>876.0</ele><time>2026-05-01T11:29:26Z</time></trkpt><trkpt lat="41.938302191241704" lon="13.837898172265705"><ele>876.0</ele><time>2026-05-01T11:29:27Z</time></trkpt><trkpt lat="41.93826482433617" lon="13.838018597839469"><ele>875.9999999999999</ele><time>2026-05-01T11:29:28Z</time></trkpt><trkpt lat="41.93823050621818" lon="13.838151619531336"><ele>875.9999999999999</ele><time>2026-05-01T11:29:29Z</time></trkpt><trkpt lat="41.938203825241075" lon="13.838266727147268"><ele>876.0</ele><time>2026-05-01T11:29:30Z</time></trkpt><trkpt lat="41.93818423666961" lon="13.838394715310422"><ele>876.0</ele><time>2026-05-01T11:29:31Z</time></trkpt><trkpt lat="41.93817717521507" lon="13.838524865164151"><ele>878.8</ele><time>2026-05-01T11:29:32Z</time></trkpt><trkpt lat="41.93818436790346" lon="13.838653872672921"><ele>881.5999999999999</ele><time>2026-05-01T11:29:33Z</time></trkpt><trkpt lat="41.938203687779264" lon="13.83878031521023"><ele>884.4</ele><time>2026-05-01T11:29:34Z</time></trkpt><trkpt lat="41.9382191159376" lon="13.838906022383417"><ele>887.2</ele><time>2026-05-01T11:29:35Z</time></trkpt><trkpt lat="41.93821007168832" lon="13.839031189888136"><ele>890.0</ele><time>2026-05-01T11:29:36Z</time></trkpt><trkpt lat="41.938158704123786" lon="13.839146326554943"><ele>890.0</ele><time>2026-05-01T11:29:37Z</time></trkpt><trkpt lat="41.93809352283455" lon="13.839257437727333"><ele>890.0</ele><time>2026-05-01T11:29:38Z</time></trkpt><trkpt lat="41.93806103076135" lon="13.83937227419305"><ele>890.0</ele><time>2026-05-01T11:29:39Z</time></trkpt><trkpt lat="41.93800673984922" lon="13.839474922280228"><ele>890.0</ele><time>2026-05-01T11:29:40Z</time></trkpt><trkpt lat="41.93795054245119" lon="13.839577622415751"><ele>890.0</ele><time>2026-05-01T11:29:41Z</time></trkpt><trkpt lat="41.937883735263476" lon="13.839652909261964"><ele>886.6</ele><time>2026-05-01T11:29:42Z</time></trkpt><trkpt lat="41.93780712557737" lon="13.839713814733813"><ele>883.2</ele><time>2026-05-01T11:29:43Z</time></trkpt><trkpt lat="41.93772394636802" lon="13.839785850750802"><ele>879.8</ele><time>2026-05-01T11:29:44Z</time></trkpt><trkpt lat="41.937652005880274" lon="13.839852541538953"><ele>876.4</ele><time>2026-05-01T11:29:45Z</time></trkpt><trkpt lat="41.937544001420946" lon="13.839981500643825"><ele>873.0</ele><time>2026-05-01T11:29:46Z</time></trkpt><trkpt lat="41.93743882208803" lon="13.84010135087721"><ele>877.0</ele><time>2026-05-01T11:29:48Z</time></trkpt><trkpt lat="41.93738704148522" lon="13.840162319224921"><ele>881.0</ele><time>2026-05-01T11:29:49Z</time></trkpt><trkpt lat="41.937338299639805" lon="13.840223451530138"><ele>885.0</ele><time>2026-05-01T11:29:50Z</time></trkpt><trkpt lat="41.93728815078673" lon="13.84028707716824"><ele>889.0</ele><time>2026-05-01T11:29:51Z</time></trkpt><trkpt lat="41.93724599260178" lon="13.840368861992323"><ele>893.0000000000001</ele><time>2026-05-01T11:29:52Z</time></trkpt><trkpt lat="41.93719935031802" lon="13.840436611503861"><ele>897.0</ele><time>2026-05-01T11:29:53Z</time></trkpt><trkpt lat="41.93715884404649" lon="13.840521180154612"><ele>901.0</ele><time>2026-05-01T11:29:53.999Z</time></trkpt><trkpt lat="41.93710947165856" lon="13.840622968034785"><ele>900.9999999999999</ele><time>2026-05-01T11:29:54.999Z</time></trkpt><trkpt lat="41.937079257498304" lon="13.84072640251194"><ele>901.0</ele><time>2026-05-01T11:29:55.999Z</time></trkpt><trkpt lat="41.937046360854325" lon="13.840830675069697"><ele>901.0</ele><time>2026-05-01T11:29:56.999Z</time></trkpt><trkpt lat="41.937031519995635" lon="13.840935214465185"><ele>901.0</ele><time>2026-05-01T11:29:57.999Z</time></trkpt><trkpt lat="41.93702034622876" lon="13.841038739656153"><ele>900.9999999999999</ele><time>2026-05-01T11:29:58.999Z</time></trkpt><trkpt lat="41.937017659899304" lon="13.84113843417984"><ele>901.0</ele><time>2026-05-01T11:29:59.999Z</time></trkpt><trkpt lat="41.93699844594205" lon="13.841229053688703"><ele>902.1428571428572</ele><time>2026-05-01T11:30:00.999Z</time></trkpt><trkpt lat="41.93698064699223" lon="13.841316885129688"><ele>903.2857142857144</ele><time>2026-05-01T11:30:01.999Z</time></trkpt><trkpt lat="41.93696257275001" lon="13.841399138755687"><ele>904.4285714285714</ele><time>2026-05-01T11:30:02.999Z</time></trkpt><trkpt lat="41.93688375987838" lon="13.84140551446661"><ele>905.5714285714287</ele><time>2026-05-01T11:30:03.999Z</time></trkpt><trkpt lat="41.93681928169688" lon="13.841458811975437"><ele>906.7142857142858</ele><time>2026-05-01T11:30:04.999Z</time></trkpt><trkpt lat="41.936764542343454" lon="13.841501821559193"><ele>907.8571428571429</ele><time>2026-05-01T11:30:05.999Z</time></trkpt><trkpt lat="41.93670390050193" lon="13.841550229924534"><ele>909.0</ele><time>2026-05-01T11:30:06.999Z</time></trkpt><trkpt lat="41.93664193454987" lon="13.84160018911855"><ele>909.5714285714286</ele><time>2026-05-01T11:30:07.999Z</time></trkpt><trkpt lat="41.93657885005597" lon="13.84165105013679"><ele>910.1428571428571</ele><time>2026-05-01T11:30:08.999Z</time></trkpt><trkpt lat="41.936522646013735" lon="13.841711902377947"><ele>910.7142857142857</ele><time>2026-05-01T11:30:09.999Z</time></trkpt><trkpt lat="41.93646155033212" lon="13.841754189716157"><ele>911.2857142857142</ele><time>2026-05-01T11:30:10.999Z</time></trkpt><trkpt lat="41.93640417135846" lon="13.841805136037626"><ele>911.8571428571429</ele><time>2026-05-01T11:30:11.999Z</time></trkpt><trkpt lat="41.93633881667209" lon="13.841861392153175"><ele>912.4285714285713</ele><time>2026-05-01T11:30:12.999Z</time></trkpt><trkpt lat="41.93627573848463" lon="13.84193017289337"><ele>912.9999999999999</ele><time>2026-05-01T11:30:13.999Z</time></trkpt><trkpt lat="41.93621237307738" lon="13.84199150262329"><ele>912.9999999999999</ele><time>2026-05-01T11:30:15Z</time></trkpt><trkpt lat="41.93614117989366" lon="13.842043160197989"><ele>913.0</ele><time>2026-05-01T11:30:16Z</time></trkpt><trkpt lat="41.93606166313329" lon="13.842084966013635"><ele>913.0</ele><time>2026-05-01T11:30:17Z</time></trkpt><trkpt lat="41.935977510527955" lon="13.842122275998108"><ele>913.0</ele><time>2026-05-01T11:30:18Z</time></trkpt><trkpt lat="41.93589342393173" lon="13.842137163280366"><ele>912.9999999999999</ele><time>2026-05-01T11:30:19Z</time></trkpt><trkpt lat="41.93581070913462" lon="13.842152867120081"><ele>913.0</ele><time>2026-05-01T11:30:20Z</time></trkpt><trkpt lat="41.93573981590213" lon="13.842159890396452"><ele>912.4285714285713</ele><time>2026-05-01T11:30:21Z</time></trkpt><trkpt lat="41.93565448176315" lon="13.842155848644238"><ele>911.8571428571429</ele><time>2026-05-01T11:30:22Z</time></trkpt><trkpt lat="41.935581874912536" lon="13.84215548897527"><ele>911.2857142857142</ele><time>2026-05-01T11:30:23Z</time></trkpt><trkpt lat="41.935516269954825" lon="13.84216079344548"><ele>910.7142857142857</ele><time>2026-05-01T11:30:24Z</time></trkpt><trkpt lat="41.93544943238681" lon="13.842151645043586"><ele>910.1428571428571</ele><time>2026-05-01T11:30:25Z</time></trkpt><trkpt lat="41.93537873203285" lon="13.842138547236098"><ele>909.5714285714286</ele><time>2026-05-01T11:30:26Z</time></trkpt><trkpt lat="41.9353059544261" lon="13.842143199097976"><ele>909.0</ele><time>2026-05-01T11:30:27Z</time></trkpt><trkpt lat="41.9352235408182" lon="13.842156159085691"><ele>909.0</ele><time>2026-05-01T11:30:28Z</time></trkpt><trkpt lat="41.93514330926269" lon="13.84217863918194"><ele>909.0</ele><time>2026-05-01T11:30:29Z</time></trkpt><trkpt lat="41.93506001752166" lon="13.84220923195501"><ele>909.0</ele><time>2026-05-01T11:30:30Z</time></trkpt><trkpt lat="41.934978919931815" lon="13.842245229793342"><ele>909.0</ele><time>2026-05-01T11:30:31Z</time></trkpt><trkpt lat="41.934897933996325" lon="13.842307740096567"><ele>909.0</ele><time>2026-05-01T11:30:32Z</time></trkpt><trkpt lat="41.934819397515874" lon="13.842395540206772"><ele>909.0</ele><time>2026-05-01T11:30:33Z</time></trkpt><trkpt lat="41.93475307471363" lon="13.842504567663644"><ele>910.0</ele><time>2026-05-01T11:30:34Z</time></trkpt><trkpt lat="41.934703716412166" lon="13.842631637974563"><ele>911.0000000000001</ele><time>2026-05-01T11:30:35Z</time></trkpt><trkpt lat="41.93467000169989" lon="13.842766407739102"><ele>912.0000000000001</ele><time>2026-05-01T11:30:36Z</time></trkpt><trkpt lat="41.93466390240387" lon="13.842904418375385"><ele>913.0</ele><time>2026-05-01T11:30:37Z</time></trkpt><trkpt lat="41.93468618938653" lon="13.843051102886344"><ele>914.0</ele><time>2026-05-01T11:30:38Z</time></trkpt><trkpt lat="41.93472537888818" lon="13.84320074264816"><ele>914.0</ele><time>2026-05-01T11:30:39Z</time></trkpt><trkpt lat="41.93477281785633" lon="13.843353747480318"><ele>914.0</ele><time>2026-05-01T11:30:40Z</time></trkpt><trkpt lat="41.93481049443386" lon="13.84350807179349"><ele>914.0</ele><time>2026-05-01T11:30:41Z</time></trkpt><trkpt lat="41.934845814376175" lon="13.843655689064086"><ele>914.0</ele><time>2026-05-01T11:30:42Z</time></trkpt><trkpt lat="41.93488424055226" lon="13.843810976776577"><ele>915.5</ele><time>2026-05-01T11:30:43Z</time></trkpt><trkpt lat="41.93492422783835" lon="13.843967873453398"><ele>917.0</ele><time>2026-05-01T11:30:44Z</time></trkpt><trkpt lat="41.9349644751514" lon="13.844121080300226"><ele>918.5</ele><time>2026-05-01T11:30:45Z</time></trkpt><trkpt lat="41.935003853257015" lon="13.84427472293047"><ele>920.0</ele><time>2026-05-01T11:30:46Z</time></trkpt><trkpt lat="41.93504037332449" lon="13.84443231349634"><ele>920.5</ele><time>2026-05-01T11:30:47Z</time></trkpt><trkpt lat="41.93507695761898" lon="13.844581385593594"><ele>921.0</ele><time>2026-05-01T11:30:48Z</time></trkpt><trkpt lat="41.93511756692683" lon="13.844734826680666"><ele>921.5</ele><time>2026-05-01T11:30:49Z</time></trkpt><trkpt lat="41.935157357779836" lon="13.84488846061298"><ele>922.0</ele><time>2026-05-01T11:30:50Z</time></trkpt><trkpt lat="41.9351551290059" lon="13.845067450819297"><ele>921.5</ele><time>2026-05-01T11:30:51Z</time></trkpt><trkpt lat="41.93518915798847" lon="13.8452471567301"><ele>921.0</ele><time>2026-05-01T11:30:52Z</time></trkpt><trkpt lat="41.93524168496039" lon="13.845416533325624"><ele>920.5</ele><time>2026-05-01T11:30:53Z</time></trkpt><trkpt lat="41.93528223166904" lon="13.845573046311463"><ele>920.0</ele><time>2026-05-01T11:30:54Z</time></trkpt><trkpt lat="41.93532993429997" lon="13.845753509524702"><ele>920.0</ele><time>2026-05-01T11:30:55Z</time></trkpt><trkpt lat="41.9353752494721" lon="13.845902263922026"><ele>920.0</ele><time>2026-05-01T11:30:56Z</time></trkpt><trkpt lat="41.93541228676644" lon="13.846064474747406"><ele>920.0</ele><time>2026-05-01T11:30:57Z</time></trkpt><trkpt lat="41.935450877507" lon="13.84623241884836"><ele>920.0</ele><time>2026-05-01T11:30:58Z</time></trkpt><trkpt lat="41.93548655188424" lon="13.846400586644144"><ele>920.0</ele><time>2026-05-01T11:30:59Z</time></trkpt><trkpt lat="41.935513884337446" lon="13.84656922602287"><ele>920.0</ele><time>2026-05-01T11:31:00Z</time></trkpt><trkpt lat="41.935536770730266" lon="13.846740735658798"><ele>920.0</ele><time>2026-05-01T11:31:01Z</time></trkpt><trkpt lat="41.93554342757592" lon="13.846912906068404"><ele>920.0</ele><time>2026-05-01T11:31:02Z</time></trkpt><trkpt lat="41.93555254737422" lon="13.84709601398977"><ele>920.75</ele><time>2026-05-01T11:31:03Z</time></trkpt><trkpt lat="41.93554996560274" lon="13.847277987918382"><ele>921.5</ele><time>2026-05-01T11:31:04Z</time></trkpt><trkpt lat="41.93552182116468" lon="13.847437961148513"><ele>922.25</ele><time>2026-05-01T11:31:05Z</time></trkpt><trkpt lat="41.935444544163666" lon="13.847601267466978"><ele>923.0</ele><time>2026-05-01T11:31:06Z</time></trkpt><trkpt lat="41.935384240659104" lon="13.847760926730173"><ele>923.25</ele><time>2026-05-01T11:31:07Z</time></trkpt><trkpt lat="41.93531197421026" lon="13.84791416389118"><ele>923.5</ele><time>2026-05-01T11:31:08Z</time></trkpt><trkpt lat="41.93523349437518" lon="13.848063099116262"><ele>923.75</ele><time>2026-05-01T11:31:09Z</time></trkpt><trkpt lat="41.93515435226128" lon="13.84821968135569"><ele>924.0</ele><time>2026-05-01T11:31:10Z</time></trkpt><trkpt lat="41.93507474063044" lon="13.848366059122435"><ele>924.0</ele><time>2026-05-01T11:31:11Z</time></trkpt><trkpt lat="41.934998163754024" lon="13.848508249339657"><ele>924.0</ele><time>2026-05-01T11:31:12Z</time></trkpt><trkpt lat="41.93491754906969" lon="13.848670660942966"><ele>924.0</ele><time>2026-05-01T11:31:13Z</time></trkpt><trkpt lat="41.934834427698775" lon="13.848827778629772"><ele>924.0</ele><time>2026-05-01T11:31:14Z</time></trkpt><trkpt lat="41.93475194411668" lon="13.848985634814195"><ele>924.0</ele><time>2026-05-01T11:31:15Z</time></trkpt><trkpt lat="41.93466930164929" lon="13.84914526353991"><ele>924.0</ele><time>2026-05-01T11:31:16Z</time></trkpt><trkpt lat="41.93458492107368" lon="13.849302411368287"><ele>924.0</ele><time>2026-05-01T11:31:17Z</time></trkpt><trkpt lat="41.9345044493113" lon="13.849453941357746"><ele>924.0</ele><time>2026-05-01T11:31:18Z</time></trkpt><trkpt lat="41.93443400942825" lon="13.849579430852543"><ele>924.0</ele><time>2026-05-01T11:31:19Z</time></trkpt><trkpt lat="41.934362822395414" lon="13.849726221258656"><ele>924.0</ele><time>2026-05-01T11:31:20Z</time></trkpt><trkpt lat="41.93429868903893" lon="13.849856521021655"><ele>924.0</ele><time>2026-05-01T11:31:21Z</time></trkpt><trkpt lat="41.93423718240109" lon="13.849978606777045"><ele>924.0</ele><time>2026-05-01T11:31:22Z</time></trkpt><trkpt lat="41.934174803560154" lon="13.85009354687033"><ele>924.6</ele><time>2026-05-01T11:31:23Z</time></trkpt><trkpt lat="41.934116647011265" lon="13.85020540270603"><ele>925.2</ele><time>2026-05-01T11:31:24Z</time></trkpt><trkpt lat="41.93406344969114" lon="13.850307479321268"><ele>925.8000000000001</ele><time>2026-05-01T11:31:25Z</time></trkpt><trkpt lat="41.93400959253666" lon="13.850402830191673"><ele>926.4000000000001</ele><time>2026-05-01T11:31:26Z</time></trkpt><trkpt lat="41.9339497388694" lon="13.85048432165458"><ele>927.0</ele><time>2026-05-01T11:31:27Z</time></trkpt><trkpt lat="41.933888116893684" lon="13.850557831417186"><ele>927.0</ele><time>2026-05-01T11:31:28Z</time></trkpt><trkpt lat="41.93381643096009" lon="13.850654472025084"><ele>927.0</ele><time>2026-05-01T11:31:29Z</time></trkpt><trkpt lat="41.933757535756634" lon="13.850712154987608"><ele>927.0</ele><time>2026-05-01T11:31:30Z</time></trkpt><trkpt lat="41.93367704427983" lon="13.8507743100243"><ele>927.0</ele><time>2026-05-01T11:31:31Z</time></trkpt><trkpt lat="41.93358976065386" lon="13.850835730365011"><ele>927.0</ele><time>2026-05-01T11:31:32Z</time></trkpt><trkpt lat="41.9334534104977" lon="13.850838982872938"><ele>926.4000000000001</ele><time>2026-05-01T11:31:33Z</time></trkpt><trkpt lat="41.93337794728672" lon="13.850929556659509"><ele>925.8000000000001</ele><time>2026-05-01T11:31:34Z</time></trkpt><trkpt lat="41.933273897021145" lon="13.8509820399734"><ele>925.2</ele><time>2026-05-01T11:31:35Z</time></trkpt><trkpt lat="41.93316334049769" lon="13.851023245468282"><ele>924.6</ele><time>2026-05-01T11:31:36Z</time></trkpt><trkpt lat="41.933045502382676" lon="13.851045498738308"><ele>924.0</ele><time>2026-05-01T11:31:37Z</time></trkpt><trkpt lat="41.932931888541745" lon="13.851054515031228"><ele>924.8000000000001</ele><time>2026-05-01T11:31:38Z</time></trkpt><trkpt lat="41.93280599250251" lon="13.851056574283492"><ele>925.6000000000001</ele><time>2026-05-01T11:31:39Z</time></trkpt><trkpt lat="41.932698072694706" lon="13.851064105012407"><ele>926.4</ele><time>2026-05-01T11:31:40Z</time></trkpt><trkpt lat="41.93260229733616" lon="13.851067694754532"><ele>927.2</ele><time>2026-05-01T11:31:41Z</time></trkpt><trkpt lat="41.93252021951354" lon="13.851069746560025"><ele>928.0</ele><time>2026-05-01T11:31:42Z</time></trkpt><trkpt lat="41.93243929429498" lon="13.851070728192314"><ele>928.0</ele><time>2026-05-01T11:31:43Z</time></trkpt><trkpt lat="41.932367009606224" lon="13.851073464377407"><ele>928.0</ele><time>2026-05-01T11:31:44Z</time></trkpt><trkpt lat="41.93229767868909" lon="13.851082269192906"><ele>928.0</ele><time>2026-05-01T11:31:45Z</time></trkpt><trkpt lat="41.93223367597967" lon="13.851090092881675"><ele>928.0</ele><time>2026-05-01T11:31:46Z</time></trkpt><trkpt lat="41.932068905361" lon="13.851062179009032"><ele>928.0</ele><time>2026-05-01T11:31:48Z</time></trkpt><trkpt lat="41.93193843984461" lon="13.851127397945177"><ele>927.9999999999999</ele><time>2026-05-01T11:31:50Z</time></trkpt><trkpt lat="41.93187704883963" lon="13.851151970991275"><ele>928.0</ele><time>2026-05-01T11:31:51Z</time></trkpt><trkpt lat="41.93176883368478" lon="13.85117519907821"><ele>928.0</ele><time>2026-05-01T11:31:53Z</time></trkpt><trkpt lat="41.93175918706405" lon="13.851288201232475"><ele>928.0</ele><time>2026-05-01T11:31:55Z</time></trkpt><trkpt lat="41.931847765947026" lon="13.85132326328739"><ele>927.9999999999999</ele><time>2026-05-01T11:31:57Z</time></trkpt><trkpt lat="41.93191403692857" lon="13.851363254722722"><ele>928.0</ele><time>2026-05-01T11:31:59Z</time></trkpt><trkpt lat="41.93202242451892" lon="13.851343968731744"><ele>927.9999999999999</ele><time>2026-05-01T11:32:01Z</time></trkpt><trkpt lat="41.93213893913134" lon="13.851336284774405"><ele>928.0</ele><time>2026-05-01T11:32:03Z</time></trkpt><trkpt lat="41.93225921983461" lon="13.851303800437952"><ele>928.0</ele><time>2026-05-01T11:32:05Z</time></trkpt><trkpt lat="41.93232345537122" lon="13.851296348276737"><ele>928.0</ele><time>2026-05-01T11:32:06Z</time></trkpt><trkpt lat="41.93238893560647" lon="13.851296192927245"><ele>927.9999999999999</ele><time>2026-05-01T11:32:07Z</time></trkpt><trkpt lat="41.932452689764" lon="13.851290057457792"><ele>928.0</ele><time>2026-05-01T11:32:08Z</time></trkpt><trkpt lat="41.932519287869106" lon="13.85128720776348"><ele>928.4999999999999</ele><time>2026-05-01T11:32:09Z</time></trkpt><trkpt lat="41.93263660923661" lon="13.851277435455655"><ele>929.0</ele><time>2026-05-01T11:32:11Z</time></trkpt><trkpt lat="41.93271942508859" lon="13.851293583596302"><ele>929.5</ele><time>2026-05-01T11:32:13Z</time></trkpt><trkpt lat="41.932692404211124" lon="13.85141705529084"><ele>930.0</ele><time>2026-05-01T11:32:16Z</time></trkpt><trkpt lat="41.93276443664289" lon="13.8514454045767"><ele>930.4999999999999</ele><time>2026-05-01T11:32:36Z</time></trkpt><trkpt lat="41.93274975017066" lon="13.851545776185398"><ele>931.0</ele><time>2026-05-01T11:32:42Z</time></trkpt><trkpt lat="41.93274633874664" lon="13.851686554074957"><ele>934.0</ele><time>2026-05-01T11:32:44Z</time></trkpt><trkpt lat="41.932735773546824" lon="13.851825392839594"><ele>937.0</ele><time>2026-05-01T11:32:46Z</time></trkpt><trkpt lat="41.93272642643142" lon="13.851910918343764"><ele>940.0</ele><time>2026-05-01T11:32:49Z</time></trkpt><trkpt lat="41.93297292956886" lon="13.852029740862715"><ele>943.0</ele><time>2026-05-01T11:32:50Z</time></trkpt><trkpt lat="41.932764591153706" lon="13.851796849786085"><ele>941.2857142857143</ele><time>2026-05-01T11:32:53Z</time></trkpt><trkpt lat="41.93273596233771" lon="13.851669467730572"><ele>939.5714285714287</ele><time>2026-05-01T11:32:55.999Z</time></trkpt><trkpt lat="41.93274816973518" lon="13.851579114639263"><ele>937.8571428571429</ele><time>2026-05-01T11:32:57.999Z</time></trkpt><trkpt lat="41.93276502696959" lon="13.851674004535253"><ele>936.1428571428571</ele><time>2026-05-01T11:33:20.999Z</time></trkpt><trkpt lat="41.93274019265848" lon="13.851588716723437"><ele>934.4285714285714</ele><time>2026-05-01T11:36:01Z</time></trkpt><trkpt lat="41.93279070957801" lon="13.851533486426232"><ele>932.7142857142858</ele><time>2026-05-01T11:39:03.001Z</time></trkpt><trkpt lat="41.93285040185186" lon="13.851564892112236"><ele>931.0</ele><time>2026-05-01T11:39:12.001Z</time></trkpt><trkpt lat="41.93286704524198" lon="13.851670703834829"><ele>930.9999999999999</ele><time>2026-05-01T11:39:31Z</time></trkpt><trkpt lat="41.93282766646768" lon="13.851577902516249"><ele>931.0</ele><time>2026-05-01T11:39:36Z</time></trkpt><trkpt lat="41.93276744501568" lon="13.85154268460306"><ele>931.0</ele><time>2026-05-01T11:39:40Z</time></trkpt><trkpt lat="41.932751506954396" lon="13.85141044999755"><ele>931.0</ele><time>2026-05-01T11:46:12.999Z</time></trkpt><trkpt lat="41.93267463424537" lon="13.851319177181864"><ele>930.9999999999999</ele><time>2026-05-01T11:46:14.999Z</time></trkpt><trkpt lat="41.93261110843443" lon="13.851310160307948"><ele>931.0</ele><time>2026-05-01T11:46:15.999Z</time></trkpt><trkpt lat="41.932455053208955" lon="13.85134087116143"><ele>930.4999999999999</ele><time>2026-05-01T11:46:17.999Z</time></trkpt><trkpt lat="41.93236779896944" lon="13.85133480399957"><ele>930.0</ele><time>2026-05-01T11:46:18.999Z</time></trkpt><trkpt lat="41.93229886071949" lon="13.851332493398711"><ele>929.5</ele><time>2026-05-01T11:46:19.999Z</time></trkpt><trkpt lat="41.93222135867664" lon="13.85132495362888"><ele>929.0</ele><time>2026-05-01T11:46:20.999Z</time></trkpt><trkpt lat="41.93215458801347" lon="13.851326708311037"><ele>928.4999999999999</ele><time>2026-05-01T11:46:21.999Z</time></trkpt><trkpt lat="41.93208259666306" lon="13.85132931880602"><ele>928.0</ele><time>2026-05-01T11:46:22.999Z</time></trkpt><trkpt lat="41.931971839002706" lon="13.851350212926587"><ele>928.0</ele><time>2026-05-01T11:46:24.999Z</time></trkpt><trkpt lat="41.931876112152615" lon="13.851318282868982"><ele>928.0</ele><time>2026-05-01T11:46:26.999Z</time></trkpt><trkpt lat="41.931788087319006" lon="13.85126605211656"><ele>928.0</ele><time>2026-05-01T11:46:29.999Z</time></trkpt><trkpt lat="41.93168236646988" lon="13.851239289391424"><ele>928.0</ele><time>2026-05-01T11:46:31.999Z</time></trkpt><trkpt lat="41.93156284367398" lon="13.851241993131579"><ele>928.0</ele><time>2026-05-01T11:46:33.999Z</time></trkpt><trkpt lat="41.93148035086506" lon="13.8512237923278"><ele>929.4</ele><time>2026-05-01T11:46:34.999Z</time></trkpt><trkpt lat="41.93139751442284" lon="13.851213103471787"><ele>930.8</ele><time>2026-05-01T11:46:35.999Z</time></trkpt><trkpt lat="41.93130943468779" lon="13.851217983866263"><ele>932.2</ele><time>2026-05-01T11:46:36.999Z</time></trkpt><trkpt lat="41.9312104939308" lon="13.851234594850592"><ele>933.6</ele><time>2026-05-01T11:46:37.999Z</time></trkpt><trkpt lat="41.931101982043565" lon="13.85124888376551"><ele>935.0</ele><time>2026-05-01T11:46:38.999Z</time></trkpt><trkpt lat="41.930981819009354" lon="13.85125577840387"><ele>934.5</ele><time>2026-05-01T11:46:40Z</time></trkpt><trkpt lat="41.93086074221215" lon="13.851263385278523"><ele>934.0</ele><time>2026-05-01T11:46:41Z</time></trkpt><trkpt lat="41.93073585880341" lon="13.851275207783972"><ele>933.5</ele><time>2026-05-01T11:46:42Z</time></trkpt><trkpt lat="41.93060785003398" lon="13.851291033597814"><ele>933.0</ele><time>2026-05-01T11:46:43Z</time></trkpt><trkpt lat="41.930476508402116" lon="13.851303636582339"><ele>933.0</ele><time>2026-05-01T11:46:44Z</time></trkpt><trkpt lat="41.93034339021665" lon="13.851318374320869"><ele>933.0</ele><time>2026-05-01T11:46:45Z</time></trkpt><trkpt lat="41.93020568167911" lon="13.851333069138589"><ele>933.0</ele><time>2026-05-01T11:46:46Z</time></trkpt><trkpt lat="41.930062692396454" lon="13.851335359894136"><ele>933.0</ele><time>2026-05-01T11:46:47Z</time></trkpt><trkpt lat="41.92992654835246" lon="13.851344136688503"><ele>932.25</ele><time>2026-05-01T11:46:48Z</time></trkpt><trkpt lat="41.929790108416846" lon="13.851368608931855"><ele>931.5</ele><time>2026-05-01T11:46:49Z</time></trkpt><trkpt lat="41.92964517211326" lon="13.85138753534304"><ele>930.75</ele><time>2026-05-01T11:46:50Z</time></trkpt><trkpt lat="41.929523292645854" lon="13.851480505117253"><ele>930.0</ele><time>2026-05-01T11:46:51Z</time></trkpt><trkpt lat="41.92941362223663" lon="13.851552318821648"><ele>930.0</ele><time>2026-05-01T11:46:52Z</time></trkpt><trkpt lat="41.92928647999018" lon="13.851658359067132"><ele>930.0</ele><time>2026-05-01T11:46:53Z</time></trkpt><trkpt lat="41.92917543936084" lon="13.851751538036675"><ele>930.0</ele><time>2026-05-01T11:46:54Z</time></trkpt><trkpt lat="41.929067926851644" lon="13.851875575045176"><ele>930.0</ele><time>2026-05-01T11:46:55Z</time></trkpt><trkpt lat="41.92896541900809" lon="13.851991153550628"><ele>930.5</ele><time>2026-05-01T11:46:56Z</time></trkpt><trkpt lat="41.92884771281045" lon="13.852122181031817"><ele>931.0</ele><time>2026-05-01T11:46:57Z</time></trkpt><trkpt lat="41.92874481563524" lon="13.85221109189339"><ele>931.5</ele><time>2026-05-01T11:46:58Z</time></trkpt><trkpt lat="41.92863322254323" lon="13.85231774138177"><ele>932.0</ele><time>2026-05-01T11:46:59Z</time></trkpt><trkpt lat="41.92852571426513" lon="13.852423399115311"><ele>932.0</ele><time>2026-05-01T11:47:00Z</time></trkpt><trkpt lat="41.9284204403852" lon="13.852531563957301"><ele>932.0</ele><time>2026-05-01T11:47:01Z</time></trkpt><trkpt lat="41.928316050012654" lon="13.852639285178219"><ele>932.0</ele><time>2026-05-01T11:47:02Z</time></trkpt><trkpt lat="41.928205591629876" lon="13.852743169762345"><ele>932.0</ele><time>2026-05-01T11:47:03Z</time></trkpt><trkpt lat="41.92810315930084" lon="13.852851919602656"><ele>933.5</ele><time>2026-05-01T11:47:04Z</time></trkpt><trkpt lat="41.9279970826247" lon="13.852965258249275"><ele>935.0</ele><time>2026-05-01T11:47:05Z</time></trkpt><trkpt lat="41.9279004967879" lon="13.853084252611366"><ele>936.5</ele><time>2026-05-01T11:47:06Z</time></trkpt><trkpt lat="41.92780657243897" lon="13.85321130417564"><ele>938.0</ele><time>2026-05-01T11:47:07Z</time></trkpt><trkpt lat="41.92773300988668" lon="13.853356868520073"><ele>939.25</ele><time>2026-05-01T11:47:08Z</time></trkpt><trkpt lat="41.92768375007564" lon="13.853518553789497"><ele>940.5</ele><time>2026-05-01T11:47:09Z</time></trkpt><trkpt lat="41.927655208206495" lon="13.853688518956965"><ele>941.75</ele><time>2026-05-01T11:47:10Z</time></trkpt><trkpt lat="41.927648372658204" lon="13.853860287487523"><ele>943.0</ele><time>2026-05-01T11:47:11Z</time></trkpt><trkpt lat="41.927658291066756" lon="13.854032996772949"><ele>943.0</ele><time>2026-05-01T11:47:12Z</time></trkpt><trkpt lat="41.9276807184712" lon="13.854207572503062"><ele>943.0</ele><time>2026-05-01T11:47:13Z</time></trkpt><trkpt lat="41.92770104167334" lon="13.854387930136525"><ele>943.0</ele><time>2026-05-01T11:47:14Z</time></trkpt><trkpt lat="41.9277264912804" lon="13.854570742743162"><ele>943.0</ele><time>2026-05-01T11:47:15Z</time></trkpt><trkpt lat="41.92775121539439" lon="13.854761232090153"><ele>941.6666666666666</ele><time>2026-05-01T11:47:16Z</time></trkpt><trkpt lat="41.927777831793115" lon="13.854961298982767"><ele>940.3333333333333</ele><time>2026-05-01T11:47:17Z</time></trkpt><trkpt lat="41.92780592876909" lon="13.855165298024543"><ele>939.0</ele><time>2026-05-01T11:47:18Z</time></trkpt><trkpt lat="41.92783394325676" lon="13.85537808365939"><ele>937.6666666666667</ele><time>2026-05-01T11:47:19Z</time></trkpt><trkpt lat="41.92786185858232" lon="13.855596767941378"><ele>936.3333333333334</ele><time>2026-05-01T11:47:20Z</time></trkpt><trkpt lat="41.92788913041909" lon="13.855817473186251"><ele>935.0</ele><time>2026-05-01T11:47:21Z</time></trkpt><trkpt lat="41.927920557576535" lon="13.856036874593562"><ele>935.0</ele><time>2026-05-01T11:47:22Z</time></trkpt><trkpt lat="41.927943354982546" lon="13.856249699907117"><ele>935.0</ele><time>2026-05-01T11:47:23Z</time></trkpt><trkpt lat="41.927949544476434" lon="13.856459866699236"><ele>935.0</ele><time>2026-05-01T11:47:24Z</time></trkpt><trkpt lat="41.92793725464579" lon="13.856662677263364"><ele>936.75</ele><time>2026-05-01T11:47:25Z</time></trkpt><trkpt lat="41.92790046786287" lon="13.85684507558448"><ele>938.5</ele><time>2026-05-01T11:47:26Z</time></trkpt><trkpt lat="41.92783045823639" lon="13.857009012041214"><ele>940.25</ele><time>2026-05-01T11:47:27Z</time></trkpt><trkpt lat="41.92773250416235" lon="13.857158266577908"><ele>942.0</ele><time>2026-05-01T11:47:28Z</time></trkpt><trkpt lat="41.92761158699021" lon="13.857279014321993"><ele>940.75</ele><time>2026-05-01T11:47:29Z</time></trkpt><trkpt lat="41.927483657668134" lon="13.857357939258677"><ele>939.5</ele><time>2026-05-01T11:47:30Z</time></trkpt><trkpt lat="41.92736529851027" lon="13.857435910793495"><ele>938.25</ele><time>2026-05-01T11:47:31Z</time></trkpt><trkpt lat="41.927266098190444" lon="13.85752464317414"><ele>937.0</ele><time>2026-05-01T11:47:32Z</time></trkpt><trkpt lat="41.92718721890901" lon="13.857631029901826"><ele>937.0</ele><time>2026-05-01T11:47:33Z</time></trkpt><trkpt lat="41.927152619801284" lon="13.857771141338208"><ele>937.0</ele><time>2026-05-01T11:47:34Z</time></trkpt><trkpt lat="41.92713815613694" lon="13.857910161184341"><ele>937.0</ele><time>2026-05-01T11:47:34.999Z</time></trkpt><trkpt lat="41.92715937181045" lon="13.858049130836543"><ele>937.0</ele><time>2026-05-01T11:47:35.999Z</time></trkpt><trkpt lat="41.927203912099735" lon="13.858190021379515"><ele>937.0</ele><time>2026-05-01T11:47:36.999Z</time></trkpt><trkpt lat="41.92724213146922" lon="13.858311872250235"><ele>937.0</ele><time>2026-05-01T11:47:37.999Z</time></trkpt><trkpt lat="41.92727111059426" lon="13.85844120514898"><ele>937.0</ele><time>2026-05-01T11:47:38.999Z</time></trkpt><trkpt lat="41.92732707698697" lon="13.858571321959017"><ele>937.0</ele><time>2026-05-01T11:47:39.999Z</time></trkpt><trkpt lat="41.9273609109022" lon="13.85871170257888"><ele>937.0</ele><time>2026-05-01T11:47:40.999Z</time></trkpt><trkpt lat="41.92737749763007" lon="13.858864699103599"><ele>937.0</ele><time>2026-05-01T11:47:41.999Z</time></trkpt><trkpt lat="41.92744563625334" lon="13.859028937426995"><ele>936.75</ele><time>2026-05-01T11:47:42.999Z</time></trkpt><trkpt lat="41.927480280583474" lon="13.859173751995352"><ele>936.5</ele><time>2026-05-01T11:47:43.999Z</time></trkpt><trkpt lat="41.9275213724212" lon="13.859319557158289"><ele>936.25</ele><time>2026-05-01T11:47:44.999Z</time></trkpt><trkpt lat="41.927568597020944" lon="13.859469174978123"><ele>936.0</ele><time>2026-05-01T11:47:45.999Z</time></trkpt><trkpt lat="41.927602482574386" lon="13.859620606388937"><ele>936.8</ele><time>2026-05-01T11:47:46.999Z</time></trkpt><trkpt lat="41.92761945100288" lon="13.859763441853145"><ele>937.5999999999999</ele><time>2026-05-01T11:47:47.999Z</time></trkpt><trkpt lat="41.92760912925566" lon="13.859892480702504"><ele>938.4</ele><time>2026-05-01T11:47:48.999Z</time></trkpt><trkpt lat="41.92756008480347" lon="13.859997631164912"><ele>939.2</ele><time>2026-05-01T11:47:49.999Z</time></trkpt><trkpt lat="41.927480737118884" lon="13.860067281514945"><ele>940.0</ele><time>2026-05-01T11:47:50.999Z</time></trkpt><trkpt lat="41.9273925329589" lon="13.860098161442211"><ele>942.2</ele><time>2026-05-01T11:47:51.999Z</time></trkpt><trkpt lat="41.92730297365053" lon="13.86015141520617"><ele>944.4</ele><time>2026-05-01T11:47:52.999Z</time></trkpt><trkpt lat="41.92721995076938" lon="13.860209771925698"><ele>946.5999999999999</ele><time>2026-05-01T11:47:53.999Z</time></trkpt><trkpt lat="41.92713695366044" lon="13.860279742258689"><ele>948.8</ele><time>2026-05-01T11:47:54.999Z</time></trkpt><trkpt lat="41.9270393727714" lon="13.860397889958204"><ele>951.0</ele><time>2026-05-01T11:47:55.999Z</time></trkpt><trkpt lat="41.92698454353113" lon="13.860552802441298"><ele>951.0</ele><time>2026-05-01T11:47:56.999Z</time></trkpt><trkpt lat="41.92691478206759" lon="13.860695614895794"><ele>951.0</ele><time>2026-05-01T11:47:57.999Z</time></trkpt><trkpt lat="41.92685599536901" lon="13.860855741730811"><ele>951.0</ele><time>2026-05-01T11:47:58.999Z</time></trkpt><trkpt lat="41.92680142080069" lon="13.861010435594297"><ele>951.0</ele><time>2026-05-01T11:47:59.999Z</time></trkpt><trkpt lat="41.926750215972014" lon="13.861169734254908"><ele>952.0</ele><time>2026-05-01T11:48:00.999Z</time></trkpt><trkpt lat="41.92672841813161" lon="13.861341817280778"><ele>953.0</ele><time>2026-05-01T11:48:01.999Z</time></trkpt><trkpt lat="41.92676175266643" lon="13.861519520924668"><ele>954.0</ele><time>2026-05-01T11:48:02.999Z</time></trkpt><trkpt lat="41.92680519664998" lon="13.86168842056259"><ele>955.0</ele><time>2026-05-01T11:48:03.999Z</time></trkpt><trkpt lat="41.92683550477967" lon="13.861858200493106"><ele>956.5</ele><time>2026-05-01T11:48:04.999Z</time></trkpt><trkpt lat="41.92682042983894" lon="13.862041966224078"><ele>958.0</ele><time>2026-05-01T11:48:05.999Z</time></trkpt><trkpt lat="41.92680801782152" lon="13.8622084735236"><ele>959.5</ele><time>2026-05-01T11:48:06.999Z</time></trkpt><trkpt lat="41.92682154485615" lon="13.86237336561674"><ele>961.0</ele><time>2026-05-01T11:48:07.999Z</time></trkpt><trkpt lat="41.92678643258234" lon="13.862524829039621"><ele>957.5</ele><time>2026-05-01T11:48:08.999Z</time></trkpt><trkpt lat="41.92671699247103" lon="13.862652996433019"><ele>954.0</ele><time>2026-05-01T11:48:09.999Z</time></trkpt><trkpt lat="41.92660515180472" lon="13.862724297758408"><ele>950.5</ele><time>2026-05-01T11:48:10.999Z</time></trkpt><trkpt lat="41.92649866040335" lon="13.862820394903917"><ele>947.0</ele><time>2026-05-01T11:48:11.999Z</time></trkpt><trkpt lat="41.92640891750184" lon="13.862947475945163"><ele>947.0</ele><time>2026-05-01T11:48:12.999Z</time></trkpt><trkpt lat="41.92632310319181" lon="13.863079509951893"><ele>947.0</ele><time>2026-05-01T11:48:13.999Z</time></trkpt><trkpt lat="41.92623788609792" lon="13.863214671751269"><ele>947.0</ele><time>2026-05-01T11:48:14.999Z</time></trkpt><trkpt lat="41.9261395499665" lon="13.863354202159112"><ele>947.0</ele><time>2026-05-01T11:48:15.999Z</time></trkpt><trkpt lat="41.926036546109835" lon="13.863489214778784"><ele>945.5</ele><time>2026-05-01T11:48:16.999Z</time></trkpt><trkpt lat="41.92593914022425" lon="13.863637447747385"><ele>944.0</ele><time>2026-05-01T11:48:17.999Z</time></trkpt><trkpt lat="41.92581620494742" lon="13.863748016597881"><ele>942.5</ele><time>2026-05-01T11:48:18.999Z</time></trkpt><trkpt lat="41.92570142582199" lon="13.863862399327184"><ele>941.0</ele><time>2026-05-01T11:48:19.999Z</time></trkpt><trkpt lat="41.92558164864606" lon="13.863974954086327"><ele>941.0</ele><time>2026-05-01T11:48:20.999Z</time></trkpt><trkpt lat="41.9254643476853" lon="13.864085791314809"><ele>941.0</ele><time>2026-05-01T11:48:21.999Z</time></trkpt><trkpt lat="41.925341724943635" lon="13.864206375202775"><ele>941.0</ele><time>2026-05-01T11:48:22.999Z</time></trkpt><trkpt lat="41.9252265708667" lon="13.864319125864528"><ele>941.0</ele><time>2026-05-01T11:48:23.999Z</time></trkpt><trkpt lat="41.92511877293686" lon="13.864422042960843"><ele>940.0</ele><time>2026-05-01T11:48:24.999Z</time></trkpt><trkpt lat="41.92501329043456" lon="13.864523236263109"><ele>939.0</ele><time>2026-05-01T11:48:25.999Z</time></trkpt><trkpt lat="41.92490449599078" lon="13.86463771427161"><ele>938.0</ele><time>2026-05-01T11:48:26.999Z</time></trkpt><trkpt lat="41.924810617985216" lon="13.864779347596093"><ele>937.0</ele><time>2026-05-01T11:48:27.999Z</time></trkpt><trkpt lat="41.92473205042679" lon="13.864940892704631"><ele>937.0</ele><time>2026-05-01T11:48:28.999Z</time></trkpt><trkpt lat="41.92466778504259" lon="13.8651123018217"><ele>937.0</ele><time>2026-05-01T11:48:29.999Z</time></trkpt><trkpt lat="41.92460587395301" lon="13.86528340673601"><ele>937.0</ele><time>2026-05-01T11:48:30.999Z</time></trkpt><trkpt lat="41.924546120806774" lon="13.86544569270356"><ele>937.0</ele><time>2026-05-01T11:48:31.999Z</time></trkpt><trkpt lat="41.92447782415771" lon="13.865590212912844"><ele>936.75</ele><time>2026-05-01T11:48:32.999Z</time></trkpt><trkpt lat="41.92439291399042" lon="13.86570433095519"><ele>936.5</ele><time>2026-05-01T11:48:33.999Z</time></trkpt><trkpt lat="41.92428635894376" lon="13.865775411415678"><ele>936.25</ele><time>2026-05-01T11:48:34.999Z</time></trkpt><trkpt lat="41.92417479613951" lon="13.865808393020043"><ele>936.0</ele><time>2026-05-01T11:48:35.999Z</time></trkpt><trkpt lat="41.92405370523904" lon="13.865849697542632"><ele>936.0</ele><time>2026-05-01T11:48:36.999Z</time></trkpt><trkpt lat="41.92392878769439" lon="13.865898865265537"><ele>936.0</ele><time>2026-05-01T11:48:37.999Z</time></trkpt><trkpt lat="41.9238190176148" lon="13.865996116469736"><ele>936.0</ele><time>2026-05-01T11:48:38.999Z</time></trkpt><trkpt lat="41.92371652542727" lon="13.866077378816826"><ele>936.0</ele><time>2026-05-01T11:48:39.999Z</time></trkpt><trkpt lat="41.92361881279647" lon="13.866182559468106"><ele>935.25</ele><time>2026-05-01T11:48:40.999Z</time></trkpt><trkpt lat="41.9235197348493" lon="13.866307870876133"><ele>934.5</ele><time>2026-05-01T11:48:41.999Z</time></trkpt><trkpt lat="41.92344183726323" lon="13.866467726916879"><ele>933.75</ele><time>2026-05-01T11:48:42.999Z</time></trkpt><trkpt lat="41.92339177060939" lon="13.866636789732276"><ele>933.0</ele><time>2026-05-01T11:48:43.999Z</time></trkpt><trkpt lat="41.92336025862596" lon="13.86681112830491"><ele>935.5</ele><time>2026-05-01T11:48:44.998Z</time></trkpt><trkpt lat="41.92330846941397" lon="13.866970363607894"><ele>938.0</ele><time>2026-05-01T11:48:46.001Z</time></trkpt><trkpt lat="41.92323881014519" lon="13.86711334696544"><ele>940.5</ele><time>2026-05-01T11:48:47.001Z</time></trkpt><trkpt lat="41.92316214238408" lon="13.867249828490705"><ele>943.0</ele><time>2026-05-01T11:48:48.001Z</time></trkpt><trkpt lat="41.923080249616696" lon="13.867379790005131"><ele>943.0</ele><time>2026-05-01T11:48:49.001Z</time></trkpt><trkpt lat="41.922969855675426" lon="13.867470046696283"><ele>943.0</ele><time>2026-05-01T11:48:50.001Z</time></trkpt><trkpt lat="41.922878142816856" lon="13.86758099518961"><ele>943.0</ele><time>2026-05-01T11:48:51Z</time></trkpt><trkpt lat="41.9227990186129" lon="13.867697741801836"><ele>943.0</ele><time>2026-05-01T11:48:52Z</time></trkpt><trkpt lat="41.9227411411031" lon="13.867817693046574"><ele>943.0</ele><time>2026-05-01T11:48:53Z</time></trkpt><trkpt lat="41.92267157624648" lon="13.86791765903842"><ele>943.0</ele><time>2026-05-01T11:48:54Z</time></trkpt><trkpt lat="41.92258953062973" lon="13.86802560878199"><ele>943.0</ele><time>2026-05-01T11:48:55Z</time></trkpt><trkpt lat="41.92248456545302" lon="13.868094917990991"><ele>943.0</ele><time>2026-05-01T11:48:56Z</time></trkpt><trkpt lat="41.92238899655188" lon="13.868158206715306"><ele>943.0</ele><time>2026-05-01T11:48:57Z</time></trkpt><trkpt lat="41.92230700023161" lon="13.868208698191978"><ele>943.0</ele><time>2026-05-01T11:48:58Z</time></trkpt><trkpt lat="41.92221333594152" lon="13.868266337905245"><ele>943.0</ele><time>2026-05-01T11:48:59Z</time></trkpt><trkpt lat="41.922127661099914" lon="13.868324547186845"><ele>943.0</ele><time>2026-05-01T11:49:00Z</time></trkpt><trkpt lat="41.92200682041027" lon="13.868422351165318"><ele>943.0</ele><time>2026-05-01T11:49:01Z</time></trkpt><trkpt lat="41.92190704137194" lon="13.868504787949707"><ele>946.8</ele><time>2026-05-01T11:49:02Z</time></trkpt><trkpt lat="41.92181510235761" lon="13.868601077343158"><ele>950.5999999999999</ele><time>2026-05-01T11:49:03Z</time></trkpt><trkpt lat="41.92170989849976" lon="13.86866560555809"><ele>954.4000000000001</ele><time>2026-05-01T11:49:04Z</time></trkpt><trkpt lat="41.921614196870344" lon="13.868731251259117"><ele>958.2</ele><time>2026-05-01T11:49:05Z</time></trkpt><trkpt lat="41.92152629418997" lon="13.868777567516185"><ele>962.0</ele><time>2026-05-01T11:49:06Z</time></trkpt><trkpt lat="41.92142225715241" lon="13.868826926071023"><ele>962.0</ele><time>2026-05-01T11:49:07Z</time></trkpt><trkpt lat="41.92130765024464" lon="13.868859599059013"><ele>962.0</ele><time>2026-05-01T11:49:08Z</time></trkpt><trkpt lat="41.92119983119424" lon="13.868885150454242"><ele>962.0</ele><time>2026-05-01T11:49:09Z</time></trkpt><trkpt lat="41.921085815141545" lon="13.868917292351297"><ele>962.0</ele><time>2026-05-01T11:49:10Z</time></trkpt><trkpt lat="41.920976934795284" lon="13.86895774428275"><ele>958.75</ele><time>2026-05-01T11:49:11Z</time></trkpt><trkpt lat="41.92086342616311" lon="13.868991719646038"><ele>955.5</ele><time>2026-05-01T11:49:12Z</time></trkpt><trkpt lat="41.92076437914618" lon="13.869089992650759"><ele>952.25</ele><time>2026-05-01T11:49:13Z</time></trkpt><trkpt lat="41.92069279166087" lon="13.86920983083751"><ele>949.0</ele><time>2026-05-01T11:49:14Z</time></trkpt><trkpt lat="41.92060940305138" lon="13.869316047513639"><ele>949.0</ele><time>2026-05-01T11:49:15Z</time></trkpt><trkpt lat="41.92051334992974" lon="13.869437202228005"><ele>949.0</ele><time>2026-05-01T11:49:16Z</time></trkpt><trkpt lat="41.92043777629672" lon="13.869565330036984"><ele>949.0</ele><time>2026-05-01T11:49:17Z</time></trkpt><trkpt lat="41.920378133296474" lon="13.869700575555473"><ele>949.0</ele><time>2026-05-01T11:49:18Z</time></trkpt><trkpt lat="41.920322864714755" lon="13.86987260946459"><ele>949.0</ele><time>2026-05-01T11:49:19Z</time></trkpt><trkpt lat="41.920260361926616" lon="13.870030977675615"><ele>949.0</ele><time>2026-05-01T11:49:20Z</time></trkpt><trkpt lat="41.92021762354139" lon="13.870170871271528"><ele>949.0</ele><time>2026-05-01T11:49:21Z</time></trkpt><trkpt lat="41.920160366326414" lon="13.870314451538404"><ele>949.0</ele><time>2026-05-01T11:49:22Z</time></trkpt><trkpt lat="41.92011732435844" lon="13.870461608210546"><ele>947.2</ele><time>2026-05-01T11:49:23Z</time></trkpt><trkpt lat="41.920072044051906" lon="13.870605651665493"><ele>945.4000000000001</ele><time>2026-05-01T11:49:24Z</time></trkpt><trkpt lat="41.920015562656786" lon="13.87072429840646"><ele>943.6</ele><time>2026-05-01T11:49:25Z</time></trkpt><trkpt lat="41.919950581453996" lon="13.870825299265471"><ele>941.8</ele><time>2026-05-01T11:49:26Z</time></trkpt><trkpt lat="41.91987923734883" lon="13.870907426029163"><ele>940.0</ele><time>2026-05-01T11:49:27Z</time></trkpt><trkpt lat="41.91980058031056" lon="13.870994200808953"><ele>945.2</ele><time>2026-05-01T11:49:28Z</time></trkpt><trkpt lat="41.919747305125846" lon="13.871081336547087"><ele>950.4</ele><time>2026-05-01T11:49:29Z</time></trkpt><trkpt lat="41.91968687628402" lon="13.871181457523386"><ele>955.5999999999999</ele><time>2026-05-01T11:49:30Z</time></trkpt><trkpt lat="41.91961770432577" lon="13.871272899178852"><ele>960.8</ele><time>2026-05-01T11:49:31Z</time></trkpt><trkpt lat="41.91956700491446" lon="13.871381549731554"><ele>966.0</ele><time>2026-05-01T11:49:32Z</time></trkpt><trkpt lat="41.919511454399974" lon="13.871477771246393"><ele>966.0</ele><time>2026-05-01T11:49:33Z</time></trkpt><trkpt lat="41.919452065199316" lon="13.871561767933335"><ele>966.0</ele><time>2026-05-01T11:49:34Z</time></trkpt><trkpt lat="41.91938707636377" lon="13.8716390812792"><ele>966.0</ele><time>2026-05-01T11:49:35Z</time></trkpt><trkpt lat="41.91933849646772" lon="13.871708893870474"><ele>966.0</ele><time>2026-05-01T11:49:36Z</time></trkpt><trkpt lat="41.91923404234941" lon="13.871808414164375"><ele>966.0</ele><time>2026-05-01T11:49:38Z</time></trkpt><trkpt lat="41.91917177235868" lon="13.871848066045757"><ele>966.0</ele><time>2026-05-01T11:49:39Z</time></trkpt><trkpt lat="41.91910516227414" lon="13.871888994782365"><ele>963.8333333333334</ele><time>2026-05-01T11:49:40Z</time></trkpt><trkpt lat="41.91903176911114" lon="13.871935851876996"><ele>961.6666666666667</ele><time>2026-05-01T11:49:41Z</time></trkpt><trkpt lat="41.91897400053819" lon="13.871992097003345"><ele>959.5</ele><time>2026-05-01T11:49:42Z</time></trkpt><trkpt lat="41.91891240065241" lon="13.87205455554046"><ele>957.3333333333334</ele><time>2026-05-01T11:49:42.999Z</time></trkpt><trkpt lat="41.918851807872706" lon="13.872121081435859"><ele>955.1666666666667</ele><time>2026-05-01T11:49:43.999Z</time></trkpt><trkpt lat="41.91878701482492" lon="13.872177623148307"><ele>953.0</ele><time>2026-05-01T11:49:44.999Z</time></trkpt><trkpt lat="41.91872202017142" lon="13.872235212382675"><ele>953.0000000000001</ele><time>2026-05-01T11:49:45.999Z</time></trkpt><trkpt lat="41.918653881723294" lon="13.87229354070455"><ele>953.0</ele><time>2026-05-01T11:49:46.999Z</time></trkpt><trkpt lat="41.918595335358745" lon="13.87236115480257"><ele>953.0</ele><time>2026-05-01T11:49:47.999Z</time></trkpt><trkpt lat="41.91853998933178" lon="13.872429821325087"><ele>953.0</ele><time>2026-05-01T11:49:48.999Z</time></trkpt><trkpt lat="41.918483757808964" lon="13.872497188183054"><ele>953.0000000000001</ele><time>2026-05-01T11:49:49.999Z</time></trkpt><trkpt lat="41.9184239776745" lon="13.872567960565608"><ele>953.0</ele><time>2026-05-01T11:49:50.999Z</time></trkpt><trkpt lat="41.91836801081357" lon="13.872634930127578"><ele>953.3333333333334</ele><time>2026-05-01T11:49:51.999Z</time></trkpt><trkpt lat="41.91831453292397" lon="13.872705056105204"><ele>953.6666666666667</ele><time>2026-05-01T11:49:52.999Z</time></trkpt><trkpt lat="41.918263170631185" lon="13.872775210560532"><ele>954.0</ele><time>2026-05-01T11:49:53.999Z</time></trkpt><trkpt lat="41.91821165945871" lon="13.872838374883907"><ele>954.3333333333333</ele><time>2026-05-01T11:49:54.999Z</time></trkpt><trkpt lat="41.91816232008451" lon="13.872895177194353"><ele>954.6666666666666</ele><time>2026-05-01T11:49:55.999Z</time></trkpt><trkpt lat="41.91808576476845" lon="13.872989352406277"><ele>955.0</ele><time>2026-05-01T11:49:57.999Z</time></trkpt><trkpt lat="41.91801176540127" lon="13.873094128933115"><ele>955.0</ele><time>2026-05-01T11:49:59.999Z</time></trkpt><trkpt lat="41.91793874151785" lon="13.873183040447397"><ele>955.0</ele><time>2026-05-01T11:50:01.999Z</time></trkpt><trkpt lat="41.91789204490893" lon="13.873256163512249"><ele>955.0</ele><time>2026-05-01T11:50:03.999Z</time></trkpt><trkpt lat="41.91783519887552" lon="13.873335243427722"><ele>955.0</ele><time>2026-05-01T11:50:05.999Z</time></trkpt><trkpt lat="41.917776821008346" lon="13.87345159810463"><ele>955.0</ele><time>2026-05-01T11:50:07.999Z</time></trkpt><trkpt lat="41.91769691385001" lon="13.873573662532786"><ele>953.0</ele><time>2026-05-01T11:50:09.999Z</time></trkpt><trkpt lat="41.91760822585489" lon="13.873699160583616"><ele>951.0</ele><time>2026-05-01T11:50:11.999Z</time></trkpt><trkpt lat="41.91756964244795" lon="13.873767116028214"><ele>949.0</ele><time>2026-05-01T11:50:12.999Z</time></trkpt><trkpt lat="41.91748518181074" lon="13.873898901661219"><ele>947.0</ele><time>2026-05-01T11:50:14.999Z</time></trkpt><trkpt lat="41.91743670360675" lon="13.873959331523519"><ele>945.0</ele><time>2026-05-01T11:50:15.999Z</time></trkpt><trkpt lat="41.91737951793223" lon="13.874015519460308"><ele>945.0</ele><time>2026-05-01T11:50:16.999Z</time></trkpt><trkpt lat="41.91732026822525" lon="13.87408045414731"><ele>945.0</ele><time>2026-05-01T11:50:17.999Z</time></trkpt><trkpt lat="41.91727689189238" lon="13.87415689817809"><ele>945.0</ele><time>2026-05-01T11:50:18.999Z</time></trkpt><trkpt lat="41.91723081729929" lon="13.874230751412462"><ele>945.0</ele><time>2026-05-01T11:50:19.999Z</time></trkpt><trkpt lat="41.91719102908371" lon="13.874298185046035"><ele>945.0</ele><time>2026-05-01T11:50:20.999Z</time></trkpt><trkpt lat="41.917151720102304" lon="13.874370207928944"><ele>945.0</ele><time>2026-05-01T11:50:21.999Z</time></trkpt><trkpt lat="41.917110273990204" lon="13.87445296329975"><ele>945.0</ele><time>2026-05-01T11:50:22.999Z</time></trkpt><trkpt lat="41.917080565966145" lon="13.874540739762494"><ele>948.3333333333334</ele><time>2026-05-01T11:50:23.999Z</time></trkpt><trkpt lat="41.91705021177623" lon="13.874628077492186"><ele>951.6666666666667</ele><time>2026-05-01T11:50:24.999Z</time></trkpt><trkpt lat="41.917034751977816" lon="13.874750922443413"><ele>955.0</ele><time>2026-05-01T11:50:25.999Z</time></trkpt><trkpt lat="41.91701017281139" lon="13.87484050973009"><ele>958.3333333333334</ele><time>2026-05-01T11:50:26.999Z</time></trkpt><trkpt lat="41.916984634489154" lon="13.874934740255993"><ele>961.6666666666667</ele><time>2026-05-01T11:50:27.999Z</time></trkpt><trkpt lat="41.916954285441754" lon="13.875024891881777"><ele>965.0</ele><time>2026-05-01T11:50:28.999Z</time></trkpt><trkpt lat="41.9169219790276" lon="13.875119834115637"><ele>962.5000000000001</ele><time>2026-05-01T11:50:29.999Z</time></trkpt><trkpt lat="41.91689656423247" lon="13.875211645574637"><ele>960.0</ele><time>2026-05-01T11:50:30.999Z</time></trkpt><trkpt lat="41.91686913516573" lon="13.875306535921307"><ele>957.5</ele><time>2026-05-01T11:50:31.999Z</time></trkpt><trkpt lat="41.91683614118041" lon="13.875396515779975"><ele>955.0</ele><time>2026-05-01T11:50:32.999Z</time></trkpt><trkpt lat="41.91680365157826" lon="13.875479168259439"><ele>952.5000000000001</ele><time>2026-05-01T11:50:33.999Z</time></trkpt><trkpt lat="41.91676195529664" lon="13.875569557529206"><ele>950.0</ele><time>2026-05-01T11:50:34.999Z</time></trkpt><trkpt lat="41.916713918914745" lon="13.875653286832604"><ele>950.0000000000001</ele><time>2026-05-01T11:50:35.999Z</time></trkpt><trkpt lat="41.91667144400288" lon="13.875737110274368"><ele>950.0</ele><time>2026-05-01T11:50:36.999Z</time></trkpt><trkpt lat="41.916634303994826" lon="13.875809786057838"><ele>950.0</ele><time>2026-05-01T11:50:37.999Z</time></trkpt><trkpt lat="41.91656734185293" lon="13.875887432308785"><ele>950.0</ele><time>2026-05-01T11:50:38.999Z</time></trkpt><trkpt lat="41.91650399692725" lon="13.87596186328512"><ele>950.0000000000001</ele><time>2026-05-01T11:50:39.999Z</time></trkpt><trkpt lat="41.916452939642284" lon="13.876034715039822"><ele>950.0</ele><time>2026-05-01T11:50:40.999Z</time></trkpt><trkpt lat="41.9163993070197" lon="13.876113492124006"><ele>954.5000000000001</ele><time>2026-05-01T11:50:41.999Z</time></trkpt><trkpt lat="41.91634134260446" lon="13.876198872195802"><ele>959.0</ele><time>2026-05-01T11:50:42.999Z</time></trkpt><trkpt lat="41.91627732660814" lon="13.87627845797398"><ele>963.5</ele><time>2026-05-01T11:50:43.999Z</time></trkpt><trkpt lat="41.916226902551024" lon="13.876360522687522"><ele>968.0</ele><time>2026-05-01T11:50:44.999Z</time></trkpt><trkpt lat="41.91616650377432" lon="13.876436107452944"><ele>972.5000000000001</ele><time>2026-05-01T11:50:45.998Z</time></trkpt><trkpt lat="41.91610155796322" lon="13.876509293956817"><ele>977.0</ele><time>2026-05-01T11:50:46.998Z</time></trkpt><trkpt lat="41.91604062636073" lon="13.876597800908884"><ele>977.0000000000001</ele><time>2026-05-01T11:50:47.998Z</time></trkpt><trkpt lat="41.915995200209586" lon="13.876682797901363"><ele>977.0</ele><time>2026-05-01T11:50:48.998Z</time></trkpt><trkpt lat="41.91591118955809" lon="13.876769549825871"><ele>977.0</ele><time>2026-05-01T11:50:49.998Z</time></trkpt><trkpt lat="41.9158370022676" lon="13.876839400875333"><ele>977.0</ele><time>2026-05-01T11:50:50.998Z</time></trkpt><trkpt lat="41.915761304390486" lon="13.876905776569414"><ele>977.0000000000001</ele><time>2026-05-01T11:50:52Z</time></trkpt><trkpt lat="41.91571802781973" lon="13.876980624411202"><ele>977.0</ele><time>2026-05-01T11:50:53Z</time></trkpt><trkpt lat="41.91566128629187" lon="13.877034317237424"><ele>973.1666666666667</ele><time>2026-05-01T11:50:54Z</time></trkpt><trkpt lat="41.91559450494915" lon="13.87708630687703"><ele>969.3333333333334</ele><time>2026-05-01T11:50:55Z</time></trkpt><trkpt lat="41.915526078471494" lon="13.877145381297158"><ele>965.5</ele><time>2026-05-01T11:50:56Z</time></trkpt><trkpt lat="41.915447708052845" lon="13.87716679639615"><ele>961.6666666666667</ele><time>2026-05-01T11:50:57Z</time></trkpt><trkpt lat="41.915365645794225" lon="13.877198012639319"><ele>957.8333333333334</ele><time>2026-05-01T11:50:58Z</time></trkpt><trkpt lat="41.91528160547269" lon="13.877225918326312"><ele>954.0</ele><time>2026-05-01T11:50:59Z</time></trkpt><trkpt lat="41.91519001173151" lon="13.877236635851498"><ele>954.0</ele><time>2026-05-01T11:51:00Z</time></trkpt><trkpt lat="41.91511237563336" lon="13.877237833010385"><ele>954.0</ele><time>2026-05-01T11:51:01Z</time></trkpt><trkpt lat="41.91503886952219" lon="13.87725360092464"><ele>954.0</ele><time>2026-05-01T11:51:02Z</time></trkpt><trkpt lat="41.914943024908816" lon="13.877284086700515"><ele>954.0</ele><time>2026-05-01T11:51:03Z</time></trkpt><trkpt lat="41.91485735738735" lon="13.877304781152258"><ele>954.0</ele><time>2026-05-01T11:51:04Z</time></trkpt><trkpt lat="41.914784694520506" lon="13.877337263266478"><ele>954.0</ele><time>2026-05-01T11:51:05Z</time></trkpt><trkpt lat="41.91471282065657" lon="13.877368092612887"><ele>951.8000000000001</ele><time>2026-05-01T11:51:06Z</time></trkpt><trkpt lat="41.91461469632153" lon="13.877390012831047"><ele>949.6000000000001</ele><time>2026-05-01T11:51:07Z</time></trkpt><trkpt lat="41.914537358379405" lon="13.877414134970618"><ele>947.4</ele><time>2026-05-01T11:51:08Z</time></trkpt><trkpt lat="41.91443071118931" lon="13.87742962558698"><ele>945.2</ele><time>2026-05-01T11:51:09Z</time></trkpt><trkpt lat="41.91431804875841" lon="13.877446369380014"><ele>943.0</ele><time>2026-05-01T11:51:10Z</time></trkpt><trkpt lat="41.91423575165604" lon="13.877396480873712"><ele>942.9999999999999</ele><time>2026-05-01T11:51:11Z</time></trkpt><trkpt lat="41.91416221173512" lon="13.877413578786038"><ele>943.0</ele><time>2026-05-01T11:51:12Z</time></trkpt><trkpt lat="41.914077520472674" lon="13.877433269312055"><ele>943.0</ele><time>2026-05-01T11:51:13Z</time></trkpt><trkpt lat="41.91401290025624" lon="13.877449871644298"><ele>943.0</ele><time>2026-05-01T11:51:14Z</time></trkpt><trkpt lat="41.913915524530225" lon="13.877481053240869"><ele>942.9999999999999</ele><time>2026-05-01T11:51:16Z</time></trkpt><trkpt lat="41.91381265903047" lon="13.877522336559739"><ele>943.0</ele><time>2026-05-01T11:51:18Z</time></trkpt><trkpt lat="41.91375326311249" lon="13.877553061183981"><ele>943.3333333333333</ele><time>2026-05-01T11:51:19Z</time></trkpt><trkpt lat="41.913656726189714" lon="13.87761147042639"><ele>943.6666666666667</ele><time>2026-05-01T11:51:21Z</time></trkpt><trkpt lat="41.913593759119934" lon="13.877660073780248"><ele>944.0</ele><time>2026-05-01T11:51:23Z</time></trkpt><trkpt lat="41.913902382013234" lon="13.878263898778371"><ele>944.0</ele><time>2026-05-01T11:51:27Z</time></trkpt><trkpt lat="41.913997223072336" lon="13.87830630869305"><ele>944.0000000000001</ele><time>2026-05-01T11:51:28Z</time></trkpt><trkpt lat="41.91415315748127" lon="13.878347198019307"><ele>944.0000000000001</ele><time>2026-05-01T11:51:30Z</time></trkpt><trkpt lat="41.914228772254816" lon="13.878355636222077"><ele>944.0</ele><time>2026-05-01T11:51:31Z</time></trkpt><trkpt lat="41.91431950052387" lon="13.878393472234922"><ele>944.0</ele><time>2026-05-01T11:51:33Z</time></trkpt><trkpt lat="41.91441687361062" lon="13.878412646926243"><ele>948.8333333333334</ele><time>2026-05-01T11:51:35Z</time></trkpt><trkpt lat="41.91448328477203" lon="13.878444873305787"><ele>953.6666666666667</ele><time>2026-05-01T11:51:44.999Z</time></trkpt><trkpt lat="41.91455216813702" lon="13.878452990129386"><ele>958.5</ele><time>2026-05-01T11:51:48.999Z</time></trkpt><trkpt lat="41.91459664341126" lon="13.878519160583872"><ele>963.3333333333333</ele><time>2026-05-01T11:51:53.999Z</time></trkpt><trkpt lat="41.914641311947356" lon="13.878589826711108"><ele>968.1666666666666</ele><time>2026-05-01T11:51:58.999Z</time></trkpt><trkpt lat="41.91472128765391" lon="13.878644481908456"><ele>973.0</ele><time>2026-05-01T11:52:31.999Z</time></trkpt><trkpt lat="41.91457546001464" lon="13.878519752750593"><ele>972.9999999999999</ele><time>2026-05-01T11:55:04.253Z</time></trkpt><trkpt lat="41.91454659414908" lon="13.878402620425524"><ele>973.0</ele><time>2026-05-01T14:23:31.999Z</time></trkpt><trkpt lat="41.914485262666574" lon="13.878433070479703"><ele>973.0</ele><time>2026-05-01T14:23:47.999Z</time></trkpt><trkpt lat="41.91440216088841" lon="13.878449919074624"><ele>973.0</ele><time>2026-05-01T14:24:10Z</time></trkpt><trkpt lat="41.914338064322386" lon="13.878437107950319"><ele>972.9999999999999</ele><time>2026-05-01T14:24:18Z</time></trkpt><trkpt lat="41.914271775044085" lon="13.87842848299829"><ele>973.0</ele><time>2026-05-01T14:24:28Z</time></trkpt><trkpt lat="41.914183089155514" lon="13.878363864555245"><ele>968.1666666666666</ele><time>2026-05-01T14:25:06.999Z</time></trkpt><trkpt lat="41.914146915156834" lon="13.878293659544088"><ele>963.3333333333333</ele><time>2026-05-01T14:25:07.999Z</time></trkpt><trkpt lat="41.91412247726831" lon="13.878209227527373"><ele>958.5</ele><time>2026-05-01T14:25:08.999Z</time></trkpt><trkpt lat="41.914120116635395" lon="13.878116024780015"><ele>953.6666666666667</ele><time>2026-05-01T14:25:09.999Z</time></trkpt><trkpt lat="41.91409254362859" lon="13.87801558068323"><ele>948.8333333333334</ele><time>2026-05-01T14:25:10.999Z</time></trkpt><trkpt lat="41.914055709457664" lon="13.877923355781421"><ele>944.0</ele><time>2026-05-01T14:25:11.999Z</time></trkpt><trkpt lat="41.914027932440725" lon="13.877779902265774"><ele>944.0000000000001</ele><time>2026-05-01T14:25:13.999Z</time></trkpt><trkpt lat="41.91402532018424" lon="13.877663488474289"><ele>944.0</ele><time>2026-05-01T14:25:15.999Z</time></trkpt><trkpt lat="41.91405425672006" lon="13.877559570061207"><ele>944.0</ele><time>2026-05-01T14:25:17.999Z</time></trkpt><trkpt lat="41.91412628769868" lon="13.877464801539627"><ele>944.0</ele><time>2026-05-01T14:25:20.999Z</time></trkpt><trkpt lat="41.91419258592501" lon="13.877443247345106"><ele>944.0000000000001</ele><time>2026-05-01T14:25:21.999Z</time></trkpt><trkpt lat="41.91426342888593" lon="13.877431458741537"><ele>944.0</ele><time>2026-05-01T14:25:22.999Z</time></trkpt><trkpt lat="41.914340587469844" lon="13.87743108431327"><ele>943.1666666666667</ele><time>2026-05-01T14:25:23.999Z</time></trkpt><trkpt lat="41.91448015959004" lon="13.877412241869694"><ele>942.3333333333334</ele><time>2026-05-01T14:25:25.999Z</time></trkpt><trkpt lat="41.91454322966628" lon="13.877387569942712"><ele>941.5</ele><time>2026-05-01T14:25:26.999Z</time></trkpt><trkpt lat="41.91461330502151" lon="13.877355124413047"><ele>940.6666666666667</ele><time>2026-05-01T14:25:27.999Z</time></trkpt><trkpt lat="41.914685822669476" lon="13.877333322463667"><ele>939.8333333333334</ele><time>2026-05-01T14:25:28.999Z</time></trkpt><trkpt lat="41.9147605117631" lon="13.877320580577408"><ele>939.0</ele><time>2026-05-01T14:25:29.999Z</time></trkpt><trkpt lat="41.91483895609265" lon="13.877299558616189"><ele>939.0</ele><time>2026-05-01T14:25:30.999Z</time></trkpt><trkpt lat="41.91491287957308" lon="13.877288642462865"><ele>939.0</ele><time>2026-05-01T14:25:31.999Z</time></trkpt><trkpt lat="41.9149980567694" lon="13.877249782412353"><ele>939.0</ele><time>2026-05-01T14:25:32.999Z</time></trkpt><trkpt lat="41.915064835614295" lon="13.877239086200799"><ele>939.0</ele><time>2026-05-01T14:25:33.999Z</time></trkpt><trkpt lat="41.915139325770895" lon="13.877216978763636"><ele>939.0</ele><time>2026-05-01T14:25:34.999Z</time></trkpt><trkpt lat="41.9152185340175" lon="13.877192794106495"><ele>939.0</ele><time>2026-05-01T14:25:35.999Z</time></trkpt><trkpt lat="41.915296709493234" lon="13.87719604085719"><ele>941.1428571428571</ele><time>2026-05-01T14:25:36.999Z</time></trkpt><trkpt lat="41.91536991137366" lon="13.877178847429672"><ele>943.2857142857142</ele><time>2026-05-01T14:25:37.999Z</time></trkpt><trkpt lat="41.91544689679617" lon="13.877160765313592"><ele>945.4285714285713</ele><time>2026-05-01T14:25:38.999Z</time></trkpt><trkpt lat="41.91552047937685" lon="13.8771415805093"><ele>947.5714285714286</ele><time>2026-05-01T14:25:39.999Z</time></trkpt><trkpt lat="41.91559445129935" lon="13.877118377687331"><ele>949.7142857142856</ele><time>2026-05-01T14:25:40.999Z</time></trkpt><trkpt lat="41.91565796763211" lon="13.87709115941761"><ele>951.8571428571428</ele><time>2026-05-01T14:25:41.999Z</time></trkpt><trkpt lat="41.91572110349586" lon="13.87702976021187"><ele>954.0</ele><time>2026-05-01T14:25:42.999Z</time></trkpt><trkpt lat="41.9157912507568" lon="13.876955933945323"><ele>954.0</ele><time>2026-05-01T14:25:43.999Z</time></trkpt><trkpt lat="41.915839287462276" lon="13.876857523603688"><ele>954.0000000000001</ele><time>2026-05-01T14:25:44.999Z</time></trkpt><trkpt lat="41.915894922027384" lon="13.876759465775061"><ele>954.0000000000001</ele><time>2026-05-01T14:25:45.999Z</time></trkpt><trkpt lat="41.91594934454885" lon="13.87666117958756"><ele>954.0</ele><time>2026-05-01T14:25:46.999Z</time></trkpt><trkpt lat="41.916031365950815" lon="13.876562481939047"><ele>954.0</ele><time>2026-05-01T14:25:47.999Z</time></trkpt><trkpt lat="41.916118415519854" lon="13.876487453584627"><ele>958.6</ele><time>2026-05-01T14:25:48.999Z</time></trkpt><trkpt lat="41.91619769395415" lon="13.876398578489116"><ele>963.2</ele><time>2026-05-01T14:25:49.999Z</time></trkpt><trkpt lat="41.91627312079363" lon="13.876314021247609"><ele>967.8000000000001</ele><time>2026-05-01T14:25:50.999Z</time></trkpt><trkpt lat="41.91636177678578" lon="13.876213705661838"><ele>972.4000000000001</ele><time>2026-05-01T14:25:51.999Z</time></trkpt><trkpt lat="41.916462448097704" lon="13.876099120535875"><ele>977.0</ele><time>2026-05-01T14:25:52.999Z</time></trkpt><trkpt lat="41.916554446433366" lon="13.875987302951074"><ele>982.0</ele><time>2026-05-01T14:25:53.998Z</time></trkpt><trkpt lat="41.916639106710356" lon="13.875847986475193"><ele>987.0</ele><time>2026-05-01T14:25:54.998Z</time></trkpt><trkpt lat="41.916723730716924" lon="13.87572729568715"><ele>992.0</ele><time>2026-05-01T14:25:55.998Z</time></trkpt><trkpt lat="41.91680355822732" lon="13.875603345777776"><ele>997.0</ele><time>2026-05-01T14:25:56.998Z</time></trkpt><trkpt lat="41.91689715244906" lon="13.875487772180275"><ele>997.0</ele><time>2026-05-01T14:25:57.998Z</time></trkpt><trkpt lat="41.91697253171589" lon="13.87534472803402"><ele>997.0</ele><time>2026-05-01T14:25:58.998Z</time></trkpt><trkpt lat="41.91699716744469" lon="13.875207086700982"><ele>997.0</ele><time>2026-05-01T14:25:59.998Z</time></trkpt><trkpt lat="41.91703857174289" lon="13.875035548687089"><ele>997.0</ele><time>2026-05-01T14:26:00.998Z</time></trkpt><trkpt lat="41.9170785304499" lon="13.874873797975324"><ele>989.0</ele><time>2026-05-01T14:26:02Z</time></trkpt><trkpt lat="41.91713044135727" lon="13.87471215445297"><ele>981.0</ele><time>2026-05-01T14:26:03Z</time></trkpt><trkpt lat="41.91718616283269" lon="13.874558705654469"><ele>973.0</ele><time>2026-05-01T14:26:04Z</time></trkpt><trkpt lat="41.91725353964718" lon="13.874408667572716"><ele>965.0</ele><time>2026-05-01T14:26:05Z</time></trkpt><trkpt lat="41.91733207457984" lon="13.87427390024231"><ele>969.0</ele><time>2026-05-01T14:26:06Z</time></trkpt><trkpt lat="41.91741487034521" lon="13.874147136973676"><ele>973.0</ele><time>2026-05-01T14:26:07Z</time></trkpt><trkpt lat="41.91750610254193" lon="13.874024627304312"><ele>977.0</ele><time>2026-05-01T14:26:08Z</time></trkpt><trkpt lat="41.91759948995277" lon="13.873905881751885"><ele>981.0</ele><time>2026-05-01T14:26:09Z</time></trkpt><trkpt lat="41.91768470357933" lon="13.873798424723244"><ele>981.0</ele><time>2026-05-01T14:26:10Z</time></trkpt><trkpt lat="41.91778576098879" lon="13.87368777104386"><ele>981.0</ele><time>2026-05-01T14:26:11Z</time></trkpt><trkpt lat="41.91786804522558" lon="13.873561817678107"><ele>981.0</ele><time>2026-05-01T14:26:12Z</time></trkpt><trkpt lat="41.917936823664974" lon="13.873434748887261"><ele>981.0</ele><time>2026-05-01T14:26:13Z</time></trkpt><trkpt lat="41.91800048338332" lon="13.873320479285805"><ele>975.8</ele><time>2026-05-01T14:26:14Z</time></trkpt><trkpt lat="41.91806071137082" lon="13.873216284058591"><ele>970.5999999999999</ele><time>2026-05-01T14:26:15Z</time></trkpt><trkpt lat="41.918118095977675" lon="13.873112523260184"><ele>965.4</ele><time>2026-05-01T14:26:16Z</time></trkpt><trkpt lat="41.91817239205088" lon="13.87300409553142"><ele>960.2</ele><time>2026-05-01T14:26:17Z</time></trkpt><trkpt lat="41.918230402446866" lon="13.872920724924574"><ele>955.0</ele><time>2026-05-01T14:26:18Z</time></trkpt><trkpt lat="41.918282985122154" lon="13.872836722957581"><ele>954.9999999999999</ele><time>2026-05-01T14:26:19Z</time></trkpt><trkpt lat="41.9183462436271" lon="13.872761759789881"><ele>955.0</ele><time>2026-05-01T14:26:20Z</time></trkpt><trkpt lat="41.91839818027309" lon="13.872682870806894"><ele>955.0</ele><time>2026-05-01T14:26:21Z</time></trkpt><trkpt lat="41.91845651782607" lon="13.872580835737397"><ele>955.0</ele><time>2026-05-01T14:26:23Z</time></trkpt><trkpt lat="41.9185186068824" lon="13.872513667544162"><ele>954.9999999999999</ele><time>2026-05-01T14:26:26Z</time></trkpt><trkpt lat="41.91846234624299" lon="13.87246107902109"><ele>955.0</ele><time>2026-05-01T14:26:44Z</time></trkpt><trkpt lat="41.918528106055014" lon="13.872372673445014"><ele>954.6666666666666</ele><time>2026-05-01T14:26:49Z</time></trkpt><trkpt lat="41.9185892103139" lon="13.872292174801892"><ele>954.3333333333333</ele><time>2026-05-01T14:26:51Z</time></trkpt><trkpt lat="41.91864293128049" lon="13.872232820971089"><ele>954.0</ele><time>2026-05-01T14:26:53Z</time></trkpt><trkpt lat="41.91869936026131" lon="13.87218382706896"><ele>953.6666666666667</ele><time>2026-05-01T14:26:54.999Z</time></trkpt><trkpt lat="41.91876937395356" lon="13.87212298439445"><ele>953.3333333333334</ele><time>2026-05-01T14:26:56.999Z</time></trkpt><trkpt lat="41.91884508902229" lon="13.872071152268063"><ele>953.0</ele><time>2026-05-01T14:26:58.999Z</time></trkpt><trkpt lat="41.91892116989262" lon="13.872008607446626"><ele>953.0</ele><time>2026-05-01T14:27:00.999Z</time></trkpt><trkpt lat="41.919020081339305" lon="13.87193619969935"><ele>953.0</ele><time>2026-05-01T14:27:02.999Z</time></trkpt><trkpt lat="41.91909252891488" lon="13.871868397665235"><ele>953.0</ele><time>2026-05-01T14:27:03.999Z</time></trkpt><trkpt lat="41.91919967423736" lon="13.871876922549644"><ele>953.0</ele><time>2026-05-01T14:27:04.999Z</time></trkpt><trkpt lat="41.91926760617908" lon="13.871815988364803"><ele>953.0</ele><time>2026-05-01T14:27:05.999Z</time></trkpt><trkpt lat="41.91933172483215" lon="13.871757149201741"><ele>955.5999999999999</ele><time>2026-05-01T14:27:06.999Z</time></trkpt><trkpt lat="41.919390682184144" lon="13.871695451233505"><ele>958.1999999999999</ele><time>2026-05-01T14:27:07.999Z</time></trkpt><trkpt lat="41.91944577550974" lon="13.871637840895241"><ele>960.8</ele><time>2026-05-01T14:27:08.999Z</time></trkpt><trkpt lat="41.919516730224935" lon="13.871529121396037"><ele>963.4</ele><time>2026-05-01T14:27:10.999Z</time></trkpt><trkpt lat="41.9196074201399" lon="13.871408734523868"><ele>966.0</ele><time>2026-05-01T14:27:12.999Z</time></trkpt><trkpt lat="41.9196407302427" lon="13.871309865593425"><ele>966.0</ele><time>2026-05-01T14:27:13.999Z</time></trkpt><trkpt lat="41.919676374990225" lon="13.871221370441418"><ele>966.0</ele><time>2026-05-01T14:27:14.999Z</time></trkpt><trkpt lat="41.919715756347216" lon="13.871134174625"><ele>966.0</ele><time>2026-05-01T14:27:15.999Z</time></trkpt><trkpt lat="41.91977061958536" lon="13.871070787906776"><ele>966.0</ele><time>2026-05-01T14:27:16.999Z</time></trkpt><trkpt lat="41.91983531233706" lon="13.871020862448209"><ele>966.0</ele><time>2026-05-01T14:27:17.999Z</time></trkpt><trkpt lat="41.919900875241915" lon="13.870966772291508"><ele>966.0</ele><time>2026-05-01T14:27:18.999Z</time></trkpt><trkpt lat="41.91996507775816" lon="13.87090088582674"><ele>965.5999999999999</ele><time>2026-05-01T14:27:19.999Z</time></trkpt><trkpt lat="41.92002888235959" lon="13.87083384237031"><ele>965.1999999999999</ele><time>2026-05-01T14:27:20.999Z</time></trkpt><trkpt lat="41.92008747635251" lon="13.87074148998704"><ele>964.8000000000001</ele><time>2026-05-01T14:27:21.999Z</time></trkpt><trkpt lat="41.92013900067805" lon="13.870630457291318"><ele>964.4000000000001</ele><time>2026-05-01T14:27:22.999Z</time></trkpt><trkpt lat="41.92017740105284" lon="13.870496517347533"><ele>964.0</ele><time>2026-05-01T14:27:23.999Z</time></trkpt><trkpt lat="41.92020987230885" lon="13.87035619780465"><ele>964.0</ele><time>2026-05-01T14:27:24.999Z</time></trkpt><trkpt lat="41.92024262203658" lon="13.870213392360537"><ele>964.0000000000001</ele><time>2026-05-01T14:27:25.999Z</time></trkpt><trkpt lat="41.92027940791011" lon="13.870067038980388"><ele>964.0000000000001</ele><time>2026-05-01T14:27:26.999Z</time></trkpt><trkpt lat="41.920327136177185" lon="13.869928396407246"><ele>964.0</ele><time>2026-05-01T14:27:27.999Z</time></trkpt><trkpt lat="41.920377213842904" lon="13.869805426510768"><ele>964.0</ele><time>2026-05-01T14:27:28.999Z</time></trkpt><trkpt lat="41.92042566343054" lon="13.869691399374414"><ele>961.0</ele><time>2026-05-01T14:27:29.999Z</time></trkpt><trkpt lat="41.92046836525632" lon="13.869577211691263"><ele>958.0000000000001</ele><time>2026-05-01T14:27:30.999Z</time></trkpt><trkpt lat="41.92052468178197" lon="13.86947431501392"><ele>955.0000000000001</ele><time>2026-05-01T14:27:31.999Z</time></trkpt><trkpt lat="41.92059146655358" lon="13.869377751374262"><ele>952.0</ele><time>2026-05-01T14:27:32.999Z</time></trkpt><trkpt lat="41.92066304219703" lon="13.869280175569786"><ele>949.0</ele><time>2026-05-01T14:27:33.999Z</time></trkpt><trkpt lat="41.920736074494435" lon="13.86918665958262"><ele>947.0</ele><time>2026-05-01T14:27:34.999Z</time></trkpt><trkpt lat="41.92080473617145" lon="13.86909821695988"><ele>945.0000000000001</ele><time>2026-05-01T14:27:35.999Z</time></trkpt><trkpt lat="41.92087142048203" lon="13.869016333918228"><ele>943.0000000000001</ele><time>2026-05-01T14:27:36.999Z</time></trkpt><trkpt lat="41.9209596399452" lon="13.868992270955719"><ele>941.0</ele><time>2026-05-01T14:27:37.999Z</time></trkpt><trkpt lat="41.92104957375426" lon="13.868969305029026"><ele>939.0</ele><time>2026-05-01T14:27:38.999Z</time></trkpt><trkpt lat="41.921136529455524" lon="13.868946003510493"><ele>943.6</ele><time>2026-05-01T14:27:39.999Z</time></trkpt><trkpt lat="41.92122667425792" lon="13.86892149277259"><ele>948.2</ele><time>2026-05-01T14:27:40.999Z</time></trkpt><trkpt lat="41.921318224775504" lon="13.868893869928245"><ele>952.8000000000001</ele><time>2026-05-01T14:27:41.999Z</time></trkpt><trkpt lat="41.9214101602983" lon="13.868859853408368"><ele>957.4000000000001</ele><time>2026-05-01T14:27:42.999Z</time></trkpt><trkpt lat="41.92150240750276" lon="13.868817972198546"><ele>962.0</ele><time>2026-05-01T14:27:43.999Z</time></trkpt><trkpt lat="41.92159506535799" lon="13.868769276417426"><ele>962.0</ele><time>2026-05-01T14:27:44.999Z</time></trkpt><trkpt lat="41.921688278262636" lon="13.868715006145901"><ele>962.0</ele><time>2026-05-01T14:27:45.999Z</time></trkpt><trkpt lat="41.9217796023813" lon="13.868654133493177"><ele>962.0</ele><time>2026-05-01T14:27:46.999Z</time></trkpt><trkpt lat="41.921867532035684" lon="13.86858747530364"><ele>962.0</ele><time>2026-05-01T14:27:47.999Z</time></trkpt><trkpt lat="41.92195371678048" lon="13.86851870975289"><ele>962.0</ele><time>2026-05-01T14:27:48.998Z</time></trkpt><trkpt lat="41.922039863921455" lon="13.868447436777263"><ele>958.2</ele><time>2026-05-01T14:27:49.998Z</time></trkpt><trkpt lat="41.922117145311375" lon="13.868361883208753"><ele>954.4000000000001</ele><time>2026-05-01T14:27:50.998Z</time></trkpt><trkpt lat="41.92221266535609" lon="13.868316522280713"><ele>950.5999999999999</ele><time>2026-05-01T14:27:51.998Z</time></trkpt><trkpt lat="41.92230298026576" lon="13.86826026092825"><ele>946.8</ele><time>2026-05-01T14:27:52.998Z</time></trkpt><trkpt lat="41.92240009062511" lon="13.868200462553633"><ele>943.0</ele><time>2026-05-01T14:27:53.998Z</time></trkpt><trkpt lat="41.92249709042338" lon="13.868136778284397"><ele>943.0</ele><time>2026-05-01T14:27:54.998Z</time></trkpt><trkpt lat="41.922590395767905" lon="13.868058482081734"><ele>943.0</ele><time>2026-05-01T14:27:55.998Z</time></trkpt><trkpt lat="41.92267861148484" lon="13.867962915626903"><ele>943.0</ele><time>2026-05-01T14:27:56.998Z</time></trkpt><trkpt lat="41.92274870162195" lon="13.867843737802998"><ele>943.0</ele><time>2026-05-01T14:27:57.998Z</time></trkpt><trkpt lat="41.92282247131779" lon="13.867729606345273"><ele>943.0</ele><time>2026-05-01T14:27:58.998Z</time></trkpt><trkpt lat="41.922888475873705" lon="13.867607551504891"><ele>943.0</ele><time>2026-05-01T14:27:59.998Z</time></trkpt><trkpt lat="41.92297359724239" lon="13.867507322021666"><ele>943.0</ele><time>2026-05-01T14:28:00.998Z</time></trkpt><trkpt lat="41.92305999992891" lon="13.867410275950656"><ele>943.0</ele><time>2026-05-01T14:28:01.998Z</time></trkpt><trkpt lat="41.92313635140254" lon="13.86731496289317"><ele>943.0</ele><time>2026-05-01T14:28:02.998Z</time></trkpt><trkpt lat="41.923202805931396" lon="13.867212748227082"><ele>943.0</ele><time>2026-05-01T14:28:03.998Z</time></trkpt><trkpt lat="41.92326125646207" lon="13.867111440897675"><ele>943.0</ele><time>2026-05-01T14:28:04.998Z</time></trkpt><trkpt lat="41.92331021640625" lon="13.867005789125443"><ele>943.0</ele><time>2026-05-01T14:28:05.998Z</time></trkpt><trkpt lat="41.92334353641318" lon="13.866894649905085"><ele>943.0</ele><time>2026-05-01T14:28:07Z</time></trkpt><trkpt lat="41.92336786934252" lon="13.866781376338936"><ele>943.0</ele><time>2026-05-01T14:28:08Z</time></trkpt><trkpt lat="41.92338392679451" lon="13.86666122392628"><ele>943.0</ele><time>2026-05-01T14:28:09Z</time></trkpt><trkpt lat="41.923410625598024" lon="13.866540588169533"><ele>943.2</ele><time>2026-05-01T14:28:10Z</time></trkpt><trkpt lat="41.92345449226248" lon="13.866430368159978"><ele>943.4</ele><time>2026-05-01T14:28:11Z</time></trkpt><trkpt lat="41.92350576855909" lon="13.866327377126312"><ele>943.6000000000001</ele><time>2026-05-01T14:28:12Z</time></trkpt><trkpt lat="41.92356294371051" lon="13.86622862418513"><ele>943.8000000000001</ele><time>2026-05-01T14:28:13Z</time></trkpt><trkpt lat="41.923630011966196" lon="13.866137296588825"><ele>944.0</ele><time>2026-05-01T14:28:14Z</time></trkpt><trkpt lat="41.92370708744643" lon="13.866061513380004"><ele>944.0</ele><time>2026-05-01T14:28:15Z</time></trkpt><trkpt lat="41.92379074866982" lon="13.86599696495381"><ele>944.0000000000001</ele><time>2026-05-01T14:28:16Z</time></trkpt><trkpt lat="41.923880601677794" lon="13.865942628534174"><ele>944.0000000000001</ele><time>2026-05-01T14:28:17Z</time></trkpt><trkpt lat="41.92396936995747" lon="13.86591006594814"><ele>944.0</ele><time>2026-05-01T14:28:18Z</time></trkpt><trkpt lat="41.92405858354993" lon="13.865882473088536"><ele>944.0</ele><time>2026-05-01T14:28:19Z</time></trkpt><trkpt lat="41.92414592318071" lon="13.865855160414512"><ele>942.6666666666667</ele><time>2026-05-01T14:28:20Z</time></trkpt><trkpt lat="41.924226791096686" lon="13.865827135670813"><ele>941.3333333333334</ele><time>2026-05-01T14:28:21Z</time></trkpt><trkpt lat="41.924311395796025" lon="13.86579614342472"><ele>940.0</ele><time>2026-05-01T14:28:22Z</time></trkpt><trkpt lat="41.924389396977105" lon="13.865745011528775"><ele>938.6666666666667</ele><time>2026-05-01T14:28:23Z</time></trkpt><trkpt lat="41.92446421913772" lon="13.865682816428688"><ele>937.3333333333334</ele><time>2026-05-01T14:28:24Z</time></trkpt><trkpt lat="41.92453416599903" lon="13.865607558738988"><ele>936.0</ele><time>2026-05-01T14:28:25Z</time></trkpt><trkpt lat="41.924589265188" lon="13.865524550794177"><ele>936.1999999999999</ele><time>2026-05-01T14:28:26Z</time></trkpt><trkpt lat="41.92463217024038" lon="13.86541792209541"><ele>936.3999999999999</ele><time>2026-05-01T14:28:27Z</time></trkpt><trkpt lat="41.924674613733565" lon="13.865298015047646"><ele>936.6</ele><time>2026-05-01T14:28:28Z</time></trkpt><trkpt lat="41.92471293526418" lon="13.86518214787044"><ele>936.8</ele><time>2026-05-01T14:28:29Z</time></trkpt><trkpt lat="41.92474929108613" lon="13.865062668958647"><ele>937.0</ele><time>2026-05-01T14:28:30Z</time></trkpt><trkpt lat="41.92479328622234" lon="13.86494892554331"><ele>937.0</ele><time>2026-05-01T14:28:31Z</time></trkpt><trkpt lat="41.92484767758129" lon="13.86484023034536"><ele>937.0</ele><time>2026-05-01T14:28:32Z</time></trkpt><trkpt lat="41.92491075966736" lon="13.864726092202407"><ele>937.0</ele><time>2026-05-01T14:28:33Z</time></trkpt><trkpt lat="41.92498300606298" lon="13.864618645775497"><ele>937.0</ele><time>2026-05-01T14:28:34Z</time></trkpt><trkpt lat="41.92506646335002" lon="13.864519587058007"><ele>937.0</ele><time>2026-05-01T14:28:35Z</time></trkpt><trkpt lat="41.92515807313018" lon="13.86442270458099"><ele>937.8</ele><time>2026-05-01T14:28:36Z</time></trkpt><trkpt lat="41.925251633739414" lon="13.864334529838308"><ele>938.6</ele><time>2026-05-01T14:28:37Z</time></trkpt><trkpt lat="41.92534189620997" lon="13.864242588234015"><ele>939.3999999999999</ele><time>2026-05-01T14:28:38Z</time></trkpt><trkpt lat="41.92542898685039" lon="13.864155179566678"><ele>940.1999999999999</ele><time>2026-05-01T14:28:39Z</time></trkpt><trkpt lat="41.92552178211685" lon="13.864071015120853"><ele>941.0</ele><time>2026-05-01T14:28:40Z</time></trkpt><trkpt lat="41.92561202610349" lon="13.863988327290686"><ele>941.0</ele><time>2026-05-01T14:28:41Z</time></trkpt><trkpt lat="41.925703679686784" lon="13.863907242251942"><ele>940.9999999999999</ele><time>2026-05-01T14:28:42Z</time></trkpt><trkpt lat="41.92579321155759" lon="13.863826553758173"><ele>940.9999999999999</ele><time>2026-05-01T14:28:43Z</time></trkpt><trkpt lat="41.92587236440479" lon="13.863750019548599"><ele>941.0</ele><time>2026-05-01T14:28:44Z</time></trkpt><trkpt lat="41.92594470947341" lon="13.86367088961456"><ele>941.0</ele><time>2026-05-01T14:28:45Z</time></trkpt><trkpt lat="41.92601236532142" lon="13.863589922700498"><ele>942.0000000000001</ele><time>2026-05-01T14:28:46Z</time></trkpt><trkpt lat="41.92607692124146" lon="13.863510341237724"><ele>943.0</ele><time>2026-05-01T14:28:47Z</time></trkpt><trkpt lat="41.926138759142646" lon="13.863436216275586"><ele>944.0</ele><time>2026-05-01T14:28:48Z</time></trkpt><trkpt lat="41.926195826583566" lon="13.863362018388631"><ele>945.0</ele><time>2026-05-01T14:28:49Z</time></trkpt><trkpt lat="41.92625089331927" lon="13.863292034949861"><ele>946.0000000000001</ele><time>2026-05-01T14:28:50Z</time></trkpt><trkpt lat="41.92630148757257" lon="13.863224223455417"><ele>947.0</ele><time>2026-05-01T14:28:51Z</time></trkpt><trkpt lat="41.92634747526709" lon="13.863158023861054"><ele>947.0000000000001</ele><time>2026-05-01T14:28:52Z</time></trkpt><trkpt lat="41.926389295220105" lon="13.863091573719423"><ele>947.0</ele><time>2026-05-01T14:28:53Z</time></trkpt><trkpt lat="41.926426814546765" lon="13.863023512887281"><ele>947.0</ele><time>2026-05-01T14:28:54Z</time></trkpt><trkpt lat="41.92651587136767" lon="13.862903127793803"><ele>947.0</ele><time>2026-05-01T14:28:56Z</time></trkpt><trkpt lat="41.92656133663228" lon="13.862834215942526"><ele>947.0000000000001</ele><time>2026-05-01T14:28:57Z</time></trkpt><trkpt lat="41.926613413920236" lon="13.862769216913527"><ele>947.0</ele><time>2026-05-01T14:28:58Z</time></trkpt><trkpt lat="41.92667716006729" lon="13.862717028272492"><ele>949.3333333333334</ele><time>2026-05-01T14:28:58.999Z</time></trkpt><trkpt lat="41.92674028992344" lon="13.86265495960717"><ele>951.6666666666667</ele><time>2026-05-01T14:28:59.999Z</time></trkpt><trkpt lat="41.92679641941277" lon="13.862570873112631"><ele>954.0</ele><time>2026-05-01T14:29:00.999Z</time></trkpt><trkpt lat="41.92684122802569" lon="13.86247060074874"><ele>956.3333333333333</ele><time>2026-05-01T14:29:01.999Z</time></trkpt><trkpt lat="41.926874805007955" lon="13.862351858919679"><ele>958.6666666666666</ele><time>2026-05-01T14:29:02.999Z</time></trkpt><trkpt lat="41.9268999586116" lon="13.862218109357045"><ele>961.0</ele><time>2026-05-01T14:29:03.999Z</time></trkpt><trkpt lat="41.92691155273252" lon="13.862086290068692"><ele>961.0</ele><time>2026-05-01T14:29:04.999Z</time></trkpt><trkpt lat="41.926904475387666" lon="13.861943866808378"><ele>960.9999999999999</ele><time>2026-05-01T14:29:05.999Z</time></trkpt><trkpt lat="41.92689299528514" lon="13.861816441397956"><ele>960.9999999999999</ele><time>2026-05-01T14:29:06.999Z</time></trkpt><trkpt lat="41.92686219634094" lon="13.861703988708397"><ele>961.0</ele><time>2026-05-01T14:29:07.999Z</time></trkpt><trkpt lat="41.926832343324165" lon="13.861593991888546"><ele>961.0</ele><time>2026-05-01T14:29:08.999Z</time></trkpt><trkpt lat="41.92680659543891" lon="13.861490977811007"><ele>959.9999999999999</ele><time>2026-05-01T14:29:09.999Z</time></trkpt><trkpt lat="41.92678310259564" lon="13.86140522094691"><ele>959.0</ele><time>2026-05-01T14:29:10.999Z</time></trkpt><trkpt lat="41.926781146487784" lon="13.861302234090694"><ele>958.0</ele><time>2026-05-01T14:29:11.999Z</time></trkpt><trkpt lat="41.926789785984916" lon="13.861194223580624"><ele>957.0</ele><time>2026-05-01T14:29:12.999Z</time></trkpt><trkpt lat="41.92680846146896" lon="13.861073203868104"><ele>955.9999999999999</ele><time>2026-05-01T14:29:13.999Z</time></trkpt><trkpt lat="41.92685457403724" lon="13.860978000838406"><ele>955.0</ele><time>2026-05-01T14:29:14.999Z</time></trkpt><trkpt lat="41.92690219000325" lon="13.860871478889072"><ele>954.3333333333333</ele><time>2026-05-01T14:29:15.999Z</time></trkpt><trkpt lat="41.92694333072449" lon="13.860757990686338"><ele>953.6666666666666</ele><time>2026-05-01T14:29:16.999Z</time></trkpt><trkpt lat="41.92698488065696" lon="13.860642940897774"><ele>953.0</ele><time>2026-05-01T14:29:17.999Z</time></trkpt><trkpt lat="41.92702956219788" lon="13.860535249000671"><ele>952.3333333333333</ele><time>2026-05-01T14:29:18.999Z</time></trkpt><trkpt lat="41.9270710114204" lon="13.86043573155354"><ele>951.6666666666666</ele><time>2026-05-01T14:29:19.999Z</time></trkpt><trkpt lat="41.92711952336605" lon="13.860348681275644"><ele>951.0</ele><time>2026-05-01T14:29:20.999Z</time></trkpt><trkpt lat="41.92718154243794" lon="13.860278416322164"><ele>951.0</ele><time>2026-05-01T14:29:21.999Z</time></trkpt><trkpt lat="41.92725918977129" lon="13.860230348685617"><ele>951.0</ele><time>2026-05-01T14:29:22.999Z</time></trkpt><trkpt lat="41.92733373534885" lon="13.860180806921354"><ele>951.0</ele><time>2026-05-01T14:29:23.999Z</time></trkpt><trkpt lat="41.92740902045667" lon="13.860137215245903"><ele>951.0</ele><time>2026-05-01T14:29:24.999Z</time></trkpt><trkpt lat="41.927489008368696" lon="13.860091114042882"><ele>951.0</ele><time>2026-05-01T14:29:25.999Z</time></trkpt><trkpt lat="41.927572581697554" lon="13.860034307775457"><ele>951.0</ele><time>2026-05-01T14:29:26.999Z</time></trkpt><trkpt lat="41.927633262841205" lon="13.859933570780617"><ele>953.3333333333334</ele><time>2026-05-01T14:29:27.999Z</time></trkpt><trkpt lat="41.92768793737051" lon="13.859842588622357"><ele>955.6666666666667</ele><time>2026-05-01T14:29:28.999Z</time></trkpt><trkpt lat="41.9277125376083" lon="13.859735183782133"><ele>958.0</ele><time>2026-05-01T14:29:29.999Z</time></trkpt><trkpt lat="41.92770455398326" lon="13.859626865649"><ele>960.3333333333334</ele><time>2026-05-01T14:29:30.999Z</time></trkpt><trkpt lat="41.92768250114101" lon="13.859516058463697"><ele>962.6666666666667</ele><time>2026-05-01T14:29:31.999Z</time></trkpt><trkpt lat="41.92763514631273" lon="13.859397024983876"><ele>965.0</ele><time>2026-05-01T14:29:32.999Z</time></trkpt><trkpt lat="41.92760357715097" lon="13.859294452149781"><ele>964.0000000000001</ele><time>2026-05-01T14:29:33.999Z</time></trkpt><trkpt lat="41.927580916171856" lon="13.85918039710584"><ele>963.0</ele><time>2026-05-01T14:29:34.999Z</time></trkpt><trkpt lat="41.92755409086394" lon="13.859060741830337"><ele>962.0</ele><time>2026-05-01T14:29:35.999Z</time></trkpt><trkpt lat="41.92752868130867" lon="13.858956869565066"><ele>961.0</ele><time>2026-05-01T14:29:36.999Z</time></trkpt><trkpt lat="41.92749445150133" lon="13.858849967063316"><ele>960.0000000000001</ele><time>2026-05-01T14:29:37.999Z</time></trkpt><trkpt lat="41.92747213421432" lon="13.858735430425657"><ele>959.0</ele><time>2026-05-01T14:29:38.999Z</time></trkpt><trkpt lat="41.9274451241434" lon="13.858617024496676"><ele>954.6</ele><time>2026-05-01T14:29:39.999Z</time></trkpt><trkpt lat="41.92741531829132" lon="13.858503437927222"><ele>950.2</ele><time>2026-05-01T14:29:40.999Z</time></trkpt><trkpt lat="41.92736622313839" lon="13.858370289269484"><ele>945.8000000000001</ele><time>2026-05-01T14:29:41.999Z</time></trkpt><trkpt lat="41.92730852917173" lon="13.858253842178566"><ele>941.4000000000001</ele><time>2026-05-01T14:29:42.999Z</time></trkpt><trkpt lat="41.92725820913259" lon="13.858133757834032"><ele>937.0</ele><time>2026-05-01T14:29:43.999Z</time></trkpt><trkpt lat="41.92721433855454" lon="13.85800909924447"><ele>937.0</ele><time>2026-05-01T14:29:44.999Z</time></trkpt><trkpt lat="41.92718002037842" lon="13.857876713120683"><ele>937.0</ele><time>2026-05-01T14:29:45.999Z</time></trkpt><trkpt lat="41.92718301265906" lon="13.857748621397151"><ele>937.0</ele><time>2026-05-01T14:29:46.999Z</time></trkpt><trkpt lat="41.927219269993394" lon="13.857617434994841"><ele>937.0</ele><time>2026-05-01T14:29:47.999Z</time></trkpt><trkpt lat="41.92730357759171" lon="13.857537605159235"><ele>937.0</ele><time>2026-05-01T14:29:48.999Z</time></trkpt><trkpt lat="41.927392301177754" lon="13.857466772660443"><ele>936.25</ele><time>2026-05-01T14:29:49.999Z</time></trkpt><trkpt lat="41.927492677030955" lon="13.857402207832239"><ele>935.5</ele><time>2026-05-01T14:29:50.999Z</time></trkpt><trkpt lat="41.92760008424559" lon="13.857318034118276"><ele>934.75</ele><time>2026-05-01T14:29:51.999Z</time></trkpt><trkpt lat="41.92770417561772" lon="13.857226549490532"><ele>934.0</ele><time>2026-05-01T14:29:52.999Z</time></trkpt><trkpt lat="41.927790603757906" lon="13.85710957195513"><ele>934.2</ele><time>2026-05-01T14:29:53.998Z</time></trkpt><trkpt lat="41.92788162117173" lon="13.856996313555504"><ele>934.4000000000001</ele><time>2026-05-01T14:29:54.998Z</time></trkpt><trkpt lat="41.92795867135806" lon="13.856881893968206"><ele>934.6</ele><time>2026-05-01T14:29:55.998Z</time></trkpt><trkpt lat="41.928032872846345" lon="13.856789744343407"><ele>934.8</ele><time>2026-05-01T14:29:56.998Z</time></trkpt><trkpt lat="41.92805510026553" lon="13.856671780584247"><ele>935.0</ele><time>2026-05-01T14:29:57.998Z</time></trkpt><trkpt lat="41.928063934475176" lon="13.856538062828188"><ele>935.0</ele><time>2026-05-01T14:29:58.998Z</time></trkpt><trkpt lat="41.928058574855136" lon="13.856377615319609"><ele>935.0</ele><time>2026-05-01T14:29:59.998Z</time></trkpt><trkpt lat="41.928040396505644" lon="13.856155973422604"><ele>935.0</ele><time>2026-05-01T14:30:00.998Z</time></trkpt><trkpt lat="41.92800380592862" lon="13.85597353224931"><ele>935.0</ele><time>2026-05-01T14:30:01.998Z</time></trkpt><trkpt lat="41.9279880486393" lon="13.855801730857854"><ele>934.8</ele><time>2026-05-01T14:30:02.998Z</time></trkpt><trkpt lat="41.92796326172761" lon="13.8556419365006"><ele>934.6</ele><time>2026-05-01T14:30:03.998Z</time></trkpt><trkpt lat="41.92794455006033" lon="13.85548995310028"><ele>934.4000000000001</ele><time>2026-05-01T14:30:04.998Z</time></trkpt><trkpt lat="41.92793623265995" lon="13.855348167051739"><ele>934.2</ele><time>2026-05-01T14:30:05.998Z</time></trkpt><trkpt lat="41.9279210197854" lon="13.855214659414473"><ele>934.0</ele><time>2026-05-01T14:30:06.998Z</time></trkpt><trkpt lat="41.927902271012854" lon="13.855071389171052"><ele>935.0</ele><time>2026-05-01T14:30:07.998Z</time></trkpt><trkpt lat="41.92787941427262" lon="13.854930695480215"><ele>936.0000000000001</ele><time>2026-05-01T14:30:08.998Z</time></trkpt><trkpt lat="41.92785349204232" lon="13.854792313803843"><ele>937.0000000000001</ele><time>2026-05-01T14:30:09.998Z</time></trkpt><trkpt lat="41.92783625094006" lon="13.854652474495195"><ele>938.0</ele><time>2026-05-01T14:30:10.998Z</time></trkpt><trkpt lat="41.927822064916725" lon="13.85450368021082"><ele>939.0</ele><time>2026-05-01T14:30:11.998Z</time></trkpt><trkpt lat="41.9278012087413" lon="13.85436476995655"><ele>939.8000000000001</ele><time>2026-05-01T14:30:13Z</time></trkpt><trkpt lat="41.92777301530147" lon="13.854223396168427"><ele>940.6000000000001</ele><time>2026-05-01T14:30:14Z</time></trkpt><trkpt lat="41.927750676255215" lon="13.85407247423992"><ele>941.4</ele><time>2026-05-01T14:30:15Z</time></trkpt><trkpt lat="41.92773505958523" lon="13.853943305650839"><ele>942.2</ele><time>2026-05-01T14:30:16Z</time></trkpt><trkpt lat="41.92772591637072" lon="13.853809100687622"><ele>943.0</ele><time>2026-05-01T14:30:17Z</time></trkpt><trkpt lat="41.927728240409216" lon="13.85366864567694"><ele>943.0</ele><time>2026-05-01T14:30:18Z</time></trkpt><trkpt lat="41.9277522854774" lon="13.853529000742263"><ele>943.0</ele><time>2026-05-01T14:30:19Z</time></trkpt><trkpt lat="41.927789300867595" lon="13.853392552144399"><ele>943.0</ele><time>2026-05-01T14:30:20Z</time></trkpt><trkpt lat="41.927844508883666" lon="13.85325514070368"><ele>943.0</ele><time>2026-05-01T14:30:21Z</time></trkpt><trkpt lat="41.92791788521505" lon="13.853134330139666"><ele>943.0</ele><time>2026-05-01T14:30:22Z</time></trkpt><trkpt lat="41.927997815919746" lon="13.853022585899199"><ele>941.75</ele><time>2026-05-01T14:30:23Z</time></trkpt><trkpt lat="41.92809295809742" lon="13.852918679050797"><ele>940.5</ele><time>2026-05-01T14:30:24Z</time></trkpt><trkpt lat="41.92819005163961" lon="13.852819655146716"><ele>939.25</ele><time>2026-05-01T14:30:25Z</time></trkpt><trkpt lat="41.92829348161958" lon="13.852699440745642"><ele>938.0</ele><time>2026-05-01T14:30:26Z</time></trkpt><trkpt lat="41.92839895187832" lon="13.852588105633775"><ele>936.5</ele><time>2026-05-01T14:30:27Z</time></trkpt><trkpt lat="41.92852093098167" lon="13.852472990103973"><ele>935.0</ele><time>2026-05-01T14:30:28Z</time></trkpt><trkpt lat="41.92864107621187" lon="13.85235857365852"><ele>933.5</ele><time>2026-05-01T14:30:29Z</time></trkpt><trkpt lat="41.928757221775214" lon="13.852246722086162"><ele>932.0</ele><time>2026-05-01T14:30:30Z</time></trkpt><trkpt lat="41.9288691824175" lon="13.852133783107657"><ele>932.0</ele><time>2026-05-01T14:30:31Z</time></trkpt><trkpt lat="41.92897687722472" lon="13.852021613102545"><ele>932.0</ele><time>2026-05-01T14:30:32Z</time></trkpt><trkpt lat="41.92908534424152" lon="13.851921297809513"><ele>932.0</ele><time>2026-05-01T14:30:33Z</time></trkpt><trkpt lat="41.92918980057836" lon="13.851826896617812"><ele>932.0</ele><time>2026-05-01T14:30:34Z</time></trkpt><trkpt lat="41.92928800992188" lon="13.851728314132547"><ele>931.5</ele><time>2026-05-01T14:30:35Z</time></trkpt><trkpt lat="41.9293861579852" lon="13.851630618935161"><ele>931.0</ele><time>2026-05-01T14:30:36Z</time></trkpt><trkpt lat="41.929484196564104" lon="13.85153751843557"><ele>930.5</ele><time>2026-05-01T14:30:37Z</time></trkpt><trkpt lat="41.92958413598425" lon="13.851462646052612"><ele>930.0</ele><time>2026-05-01T14:30:38Z</time></trkpt><trkpt lat="41.92969237069985" lon="13.851403871436585"><ele>930.0</ele><time>2026-05-01T14:30:39Z</time></trkpt><trkpt lat="41.92981284437595" lon="13.851380261699122"><ele>930.0</ele><time>2026-05-01T14:30:40Z</time></trkpt><trkpt lat="41.929942775638956" lon="13.85135934986221"><ele>930.0</ele><time>2026-05-01T14:30:41Z</time></trkpt><trkpt lat="41.93008154319587" lon="13.851348562406578"><ele>930.0</ele><time>2026-05-01T14:30:42Z</time></trkpt><trkpt lat="41.93023811778333" lon="13.851332997028624"><ele>930.75</ele><time>2026-05-01T14:30:43Z</time></trkpt><trkpt lat="41.9303829271308" lon="13.851316540460715"><ele>931.5</ele><time>2026-05-01T14:30:44Z</time></trkpt><trkpt lat="41.93052274262078" lon="13.851301241589042"><ele>932.25</ele><time>2026-05-01T14:30:45Z</time></trkpt><trkpt lat="41.93065422451774" lon="13.851288514306294"><ele>933.0</ele><time>2026-05-01T14:30:46Z</time></trkpt><trkpt lat="41.9307690610711" lon="13.851277445080235"><ele>933.0</ele><time>2026-05-01T14:30:47Z</time></trkpt><trkpt lat="41.93087820775822" lon="13.851267147618314"><ele>933.0</ele><time>2026-05-01T14:30:48Z</time></trkpt><trkpt lat="41.93099231120823" lon="13.85125638251259"><ele>933.0</ele><time>2026-05-01T14:30:49Z</time></trkpt><trkpt lat="41.93110926869368" lon="13.851245330173331"><ele>933.0</ele><time>2026-05-01T14:30:50Z</time></trkpt><trkpt lat="41.9312312657336" lon="13.85123369852756"><ele>933.5</ele><time>2026-05-01T14:30:51Z</time></trkpt><trkpt lat="41.93134847940019" lon="13.851222187279513"><ele>934.0</ele><time>2026-05-01T14:30:52Z</time></trkpt><trkpt lat="41.93146272049661" lon="13.851188190965996"><ele>934.5</ele><time>2026-05-01T14:30:53Z</time></trkpt><trkpt lat="41.93157221462195" lon="13.851181335857987"><ele>935.0</ele><time>2026-05-01T14:30:54Z</time></trkpt><trkpt lat="41.93168904630804" lon="13.851177210170249"><ele>933.25</ele><time>2026-05-01T14:30:55Z</time></trkpt><trkpt lat="41.931801744256546" lon="13.85115760685065"><ele>931.5</ele><time>2026-05-01T14:30:56Z</time></trkpt><trkpt lat="41.93191856734622" lon="13.8511464551253"><ele>929.75</ele><time>2026-05-01T14:30:57Z</time></trkpt><trkpt lat="41.932038492587004" lon="13.85114081791317"><ele>928.0</ele><time>2026-05-01T14:30:58Z</time></trkpt><trkpt lat="41.932156345070105" lon="13.85112970444027"><ele>928.0</ele><time>2026-05-01T14:30:59Z</time></trkpt><trkpt lat="41.93227976796717" lon="13.851120934283042"><ele>928.0</ele><time>2026-05-01T14:31:00Z</time></trkpt><trkpt lat="41.93240348887282" lon="13.851114009938428"><ele>928.0</ele><time>2026-05-01T14:31:01Z</time></trkpt><trkpt lat="41.93253195139399" lon="13.85110225890836"><ele>928.0</ele><time>2026-05-01T14:31:02Z</time></trkpt><trkpt lat="41.932655323307706" lon="13.851088135728183"><ele>928.75</ele><time>2026-05-01T14:31:03Z</time></trkpt><trkpt lat="41.932778941672964" lon="13.85108660698009"><ele>929.5</ele><time>2026-05-01T14:31:04Z</time></trkpt><trkpt lat="41.932897337800384" lon="13.851077596594841"><ele>930.25</ele><time>2026-05-01T14:31:05Z</time></trkpt><trkpt lat="41.933016261015176" lon="13.851057421618325"><ele>931.0</ele><time>2026-05-01T14:31:05.999Z</time></trkpt><trkpt lat="41.933135499554346" lon="13.85104002006564"><ele>931.0</ele><time>2026-05-01T14:31:06.999Z</time></trkpt><trkpt lat="41.93325417650413" lon="13.851016145797592"><ele>931.0</ele><time>2026-05-01T14:31:07.999Z</time></trkpt><trkpt lat="41.93337164155807" lon="13.850982790846759"><ele>931.0</ele><time>2026-05-01T14:31:08.999Z</time></trkpt><trkpt lat="41.93348666206067" lon="13.850935842087386"><ele>931.0</ele><time>2026-05-01T14:31:09.999Z</time></trkpt><trkpt lat="41.933598224106206" lon="13.850878563933472"><ele>930.0</ele><time>2026-05-01T14:31:10.999Z</time></trkpt><trkpt lat="41.933705223731295" lon="13.850801795057679"><ele>929.0</ele><time>2026-05-01T14:31:11.999Z</time></trkpt><trkpt lat="41.9338054329723" lon="13.850715524779408"><ele>928.0</ele><time>2026-05-01T14:31:12.999Z</time></trkpt><trkpt lat="41.93389743355387" lon="13.850632760527965"><ele>927.0</ele><time>2026-05-01T14:31:13.999Z</time></trkpt><trkpt lat="41.933985574158626" lon="13.850537357900128"><ele>927.0</ele><time>2026-05-01T14:31:14.999Z</time></trkpt><trkpt lat="41.93406684988274" lon="13.850427661783128"><ele>927.0</ele><time>2026-05-01T14:31:15.999Z</time></trkpt><trkpt lat="41.934147211670236" lon="13.850315489719817"><ele>927.0</ele><time>2026-05-01T14:31:16.999Z</time></trkpt><trkpt lat="41.934223302170516" lon="13.850194620331402"><ele>927.0</ele><time>2026-05-01T14:31:17.999Z</time></trkpt><trkpt lat="41.93430051512909" lon="13.850044192793217"><ele>927.0</ele><time>2026-05-01T14:31:18.999Z</time></trkpt><trkpt lat="41.934380781415875" lon="13.849887020478192"><ele>927.0</ele><time>2026-05-01T14:31:19.999Z</time></trkpt><trkpt lat="41.93446878202921" lon="13.849718320102584"><ele>927.0</ele><time>2026-05-01T14:31:20.999Z</time></trkpt><trkpt lat="41.934548514766085" lon="13.849533625093347"><ele>927.0</ele><time>2026-05-01T14:31:21.999Z</time></trkpt><trkpt lat="41.934628949051444" lon="13.849372719654081"><ele>927.0</ele><time>2026-05-01T14:31:22.999Z</time></trkpt><trkpt lat="41.93471139374757" lon="13.849211746921101"><ele>927.0</ele><time>2026-05-01T14:31:23.999Z</time></trkpt><trkpt lat="41.934792951333925" lon="13.849048734168685"><ele>927.0</ele><time>2026-05-01T14:31:24.999Z</time></trkpt><trkpt lat="41.934877200611325" lon="13.848875260805027"><ele>926.0</ele><time>2026-05-01T14:31:25.999Z</time></trkpt><trkpt lat="41.93496550627858" lon="13.848696641186944"><ele>925.0</ele><time>2026-05-01T14:31:26.999Z</time></trkpt><trkpt lat="41.93505226564293" lon="13.8485288356011"><ele>924.0</ele><time>2026-05-01T14:31:27.999Z</time></trkpt><trkpt lat="41.93513453120054" lon="13.84834780346576"><ele>924.0</ele><time>2026-05-01T14:31:28.999Z</time></trkpt><trkpt lat="41.93522516855962" lon="13.848148353007263"><ele>924.0</ele><time>2026-05-01T14:31:29.999Z</time></trkpt><trkpt lat="41.935321765052365" lon="13.847943237380868"><ele>924.0</ele><time>2026-05-01T14:31:30.999Z</time></trkpt><trkpt lat="41.93542893129618" lon="13.847738386106565"><ele>923.6666666666667</ele><time>2026-05-01T14:31:31.999Z</time></trkpt><trkpt lat="41.935513307151055" lon="13.847514470853179"><ele>923.3333333333334</ele><time>2026-05-01T14:31:32.999Z</time></trkpt><trkpt lat="41.935569722623256" lon="13.847261086021879"><ele>923.0</ele><time>2026-05-01T14:31:33.999Z</time></trkpt><trkpt lat="41.93560026613336" lon="13.846988524162356"><ele>922.0</ele><time>2026-05-01T14:31:34.999Z</time></trkpt><trkpt lat="41.935600895263825" lon="13.846703711061666"><ele>921.0</ele><time>2026-05-01T14:31:35.999Z</time></trkpt><trkpt lat="41.935566773018216" lon="13.846428806869472"><ele>920.0</ele><time>2026-05-01T14:31:36.999Z</time></trkpt><trkpt lat="41.935506190871436" lon="13.846152610745154"><ele>920.0</ele><time>2026-05-01T14:31:37.999Z</time></trkpt><trkpt lat="41.93543548858391" lon="13.845880237060113"><ele>920.0</ele><time>2026-05-01T14:31:38.999Z</time></trkpt><trkpt lat="41.93537172250545" lon="13.84560724363809"><ele>920.0</ele><time>2026-05-01T14:31:39.999Z</time></trkpt><trkpt lat="41.93530850305458" lon="13.845339133481323"><ele>920.6666666666667</ele><time>2026-05-01T14:31:40.999Z</time></trkpt><trkpt lat="41.93524820781454" lon="13.845081295937334"><ele>921.3333333333333</ele><time>2026-05-01T14:31:41.999Z</time></trkpt><trkpt lat="41.93518778257792" lon="13.844829793762887"><ele>922.0</ele><time>2026-05-01T14:31:42.999Z</time></trkpt><trkpt lat="41.93513246327142" lon="13.844583774512069"><ele>922.0</ele><time>2026-05-01T14:31:43.999Z</time></trkpt><trkpt lat="41.93508404424279" lon="13.844347553993398"><ele>922.0</ele><time>2026-05-01T14:31:44.999Z</time></trkpt><trkpt lat="41.935040669636805" lon="13.844118929508475"><ele>922.0</ele><time>2026-05-01T14:31:45.999Z</time></trkpt><trkpt lat="41.93500037293993" lon="13.843897520995501"><ele>921.3333333333333</ele><time>2026-05-01T14:31:46.999Z</time></trkpt><trkpt lat="41.93496491519346" lon="13.843683991735032"><ele>920.6666666666667</ele><time>2026-05-01T14:31:47.999Z</time></trkpt><trkpt lat="41.93490258518799" lon="13.84345065730434"><ele>920.0</ele><time>2026-05-01T14:31:48.999Z</time></trkpt><trkpt lat="41.934823743092316" lon="13.84320294120094"><ele>918.5</ele><time>2026-05-01T14:31:49.999Z</time></trkpt><trkpt lat="41.93475823515104" lon="13.843021205272846"><ele>917.0</ele><time>2026-05-01T14:31:50.999Z</time></trkpt><trkpt lat="41.93472525014979" lon="13.842837757705626"><ele>915.5</ele><time>2026-05-01T14:31:51.999Z</time></trkpt><trkpt lat="41.9347328462357" lon="13.84267187130795"><ele>914.0</ele><time>2026-05-01T14:31:52.999Z</time></trkpt><trkpt lat="41.93478072427259" lon="13.84252712850988"><ele>913.0</ele><time>2026-05-01T14:31:53.999Z</time></trkpt><trkpt lat="41.934852211654636" lon="13.842396623579548"><ele>912.0</ele><time>2026-05-01T14:31:54.999Z</time></trkpt><trkpt lat="41.93494952510032" lon="13.842302016770855"><ele>911.0</ele><time>2026-05-01T14:31:55.999Z</time></trkpt><trkpt lat="41.935049376043196" lon="13.842214520780049"><ele>910.0</ele><time>2026-05-01T14:31:56.999Z</time></trkpt><trkpt lat="41.93515122254857" lon="13.842162503884017"><ele>909.8</ele><time>2026-05-01T14:31:57.999Z</time></trkpt><trkpt lat="41.9352493440375" lon="13.842194719827791"><ele>909.6</ele><time>2026-05-01T14:31:58.999Z</time></trkpt><trkpt lat="41.93534465913632" lon="13.842190930868307"><ele>909.4000000000001</ele><time>2026-05-01T14:31:59.999Z</time></trkpt><trkpt lat="41.935434315778274" lon="13.842197514093154"><ele>909.2</ele><time>2026-05-01T14:32:00.998Z</time></trkpt><trkpt lat="41.935548520598346" lon="13.842202490232747"><ele>909.0</ele><time>2026-05-01T14:32:01.998Z</time></trkpt><trkpt lat="41.935655025099926" lon="13.842196967806052"><ele>909.0</ele><time>2026-05-01T14:32:02.998Z</time></trkpt><trkpt lat="41.935762126746674" lon="13.842193560612149"><ele>909.0000000000001</ele><time>2026-05-01T14:32:03.998Z</time></trkpt><trkpt lat="41.93586966872392" lon="13.84218664644903"><ele>909.0000000000001</ele><time>2026-05-01T14:32:04.998Z</time></trkpt><trkpt lat="41.935976473074966" lon="13.842165069203324"><ele>909.0</ele><time>2026-05-01T14:32:05.998Z</time></trkpt><trkpt lat="41.9360679727451" lon="13.842114911731379"><ele>909.0</ele><time>2026-05-01T14:32:06.998Z</time></trkpt><trkpt lat="41.936142752325544" lon="13.842078067366446"><ele>909.6666666666666</ele><time>2026-05-01T14:32:07.998Z</time></trkpt><trkpt lat="41.93621570285509" lon="13.842044070746882"><ele>910.3333333333333</ele><time>2026-05-01T14:32:08.998Z</time></trkpt><trkpt lat="41.936288644727526" lon="13.841992275113803"><ele>911.0</ele><time>2026-05-01T14:32:09.998Z</time></trkpt><trkpt lat="41.93635400849981" lon="13.841941734435652"><ele>911.6666666666666</ele><time>2026-05-01T14:32:10.998Z</time></trkpt><trkpt lat="41.93643438062814" lon="13.841833615677189"><ele>912.3333333333333</ele><time>2026-05-01T14:32:12.998Z</time></trkpt><trkpt lat="41.93648563524158" lon="13.841783781597103"><ele>913.0</ele><time>2026-05-01T14:32:13.998Z</time></trkpt><trkpt lat="41.93653918948299" lon="13.841736548679942"><ele>912.3333333333333</ele><time>2026-05-01T14:32:14.998Z</time></trkpt><trkpt lat="41.93659824679951" lon="13.841699944648267"><ele>911.6666666666666</ele><time>2026-05-01T14:32:15.998Z</time></trkpt><trkpt lat="41.93665282753169" lon="13.841649888900749"><ele>911.0</ele><time>2026-05-01T14:32:16.998Z</time></trkpt><trkpt lat="41.93675038263137" lon="13.841565917613666"><ele>910.3333333333333</ele><time>2026-05-01T14:32:19Z</time></trkpt><trkpt lat="41.93681915396983" lon="13.841501752030974"><ele>909.6666666666666</ele><time>2026-05-01T14:32:23Z</time></trkpt><trkpt lat="41.93687928710536" lon="13.841463972898799"><ele>909.0</ele><time>2026-05-01T14:32:25Z</time></trkpt><trkpt lat="41.93694585631581" lon="13.841425407394075"><ele>909.0</ele><time>2026-05-01T14:32:27Z</time></trkpt><trkpt lat="41.93702194187713" lon="13.84138713420706"><ele>909.0000000000001</ele><time>2026-05-01T14:32:29Z</time></trkpt><trkpt lat="41.93706590668747" lon="13.841301249853892"><ele>909.0000000000001</ele><time>2026-05-01T14:32:31Z</time></trkpt><trkpt lat="41.937084440861376" lon="13.841153902861324"><ele>909.0</ele><time>2026-05-01T14:32:33Z</time></trkpt><trkpt lat="41.937140975773175" lon="13.841032842248355"><ele>909.0</ele><time>2026-05-01T14:32:35Z</time></trkpt><trkpt lat="41.937142142093194" lon="13.84088374774696"><ele>907.6666666666666</ele><time>2026-05-01T14:32:37Z</time></trkpt><trkpt lat="41.93715404121418" lon="13.840720930319144"><ele>906.3333333333333</ele><time>2026-05-01T14:32:39Z</time></trkpt><trkpt lat="41.93719878697517" lon="13.840577007291056"><ele>905.0</ele><time>2026-05-01T14:32:41Z</time></trkpt><trkpt lat="41.93723679896155" lon="13.84049889453997"><ele>903.6666666666666</ele><time>2026-05-01T14:32:44Z</time></trkpt><trkpt lat="41.93726999459696" lon="13.840426047181765"><ele>902.3333333333333</ele><time>2026-05-01T14:32:48Z</time></trkpt><trkpt lat="41.93732682996971" lon="13.840357769463338"><ele>901.0</ele><time>2026-05-01T14:32:57Z</time></trkpt><trkpt lat="41.93737316032023" lon="13.840277329197463"><ele>900.9999999999999</ele><time>2026-05-01T14:33:01Z</time></trkpt><trkpt lat="41.93744060884155" lon="13.840181402255308"><ele>901.0</ele><time>2026-05-01T14:33:05Z</time></trkpt><trkpt lat="41.937518245245066" lon="13.840073387706806"><ele>901.0</ele><time>2026-05-01T14:33:07Z</time></trkpt><trkpt lat="41.93756898380944" lon="13.840016551019723"><ele>901.0</ele><time>2026-05-01T14:33:07.999Z</time></trkpt><trkpt lat="41.93762098474081" lon="13.83995831421316"><ele>900.9999999999999</ele><time>2026-05-01T14:33:08.999Z</time></trkpt><trkpt lat="41.93767389967829" lon="13.839902396315939"><ele>901.0</ele><time>2026-05-01T14:33:09.999Z</time></trkpt><trkpt lat="41.937725803915455" lon="13.83983383989077"><ele>902.6666666666666</ele><time>2026-05-01T14:33:10.999Z</time></trkpt><trkpt lat="41.937785053228886" lon="13.839774541717777"><ele>904.3333333333333</ele><time>2026-05-01T14:33:11.999Z</time></trkpt><trkpt lat="41.93784593162214" lon="13.83971384449451"><ele>906.0</ele><time>2026-05-01T14:33:12.999Z</time></trkpt><trkpt lat="41.937916293446555" lon="13.839662306250355"><ele>907.6666666666667</ele><time>2026-05-01T14:33:13.999Z</time></trkpt><trkpt lat="41.937976836120704" lon="13.839587298378172"><ele>909.3333333333334</ele><time>2026-05-01T14:33:14.999Z</time></trkpt><trkpt lat="41.938037674740215" lon="13.839508648481853"><ele>911.0</ele><time>2026-05-01T14:33:15.999Z</time></trkpt><trkpt lat="41.93808437292891" lon="13.839400091554252"><ele>911.0000000000001</ele><time>2026-05-01T14:33:16.999Z</time></trkpt><trkpt lat="41.938141158033275" lon="13.839309206029304"><ele>911.0</ele><time>2026-05-01T14:33:17.999Z</time></trkpt><trkpt lat="41.938170430306634" lon="13.839219761243527"><ele>911.0</ele><time>2026-05-01T14:33:18.999Z</time></trkpt><trkpt lat="41.93821026495882" lon="13.83912936902403"><ele>911.0</ele><time>2026-05-01T14:33:19.999Z</time></trkpt><trkpt lat="41.93825936526442" lon="13.838972223342143"><ele>911.0000000000001</ele><time>2026-05-01T14:33:21.999Z</time></trkpt><trkpt lat="41.938270365822916" lon="13.838887912683477"><ele>911.0</ele><time>2026-05-01T14:33:22.999Z</time></trkpt><trkpt lat="41.93830442916675" lon="13.838731565489763"><ele>908.0</ele><time>2026-05-01T14:33:24.999Z</time></trkpt><trkpt lat="41.93827722144532" lon="13.838639847452793"><ele>905.0</ele><time>2026-05-01T14:33:25.999Z</time></trkpt><trkpt lat="41.938280184867494" lon="13.83854188245414"><ele>902.0</ele><time>2026-05-01T14:33:26.999Z</time></trkpt><trkpt lat="41.93827102648294" lon="13.838441081082083"><ele>899.0</ele><time>2026-05-01T14:33:27.999Z</time></trkpt><trkpt lat="41.938270583548274" lon="13.838338887325667"><ele>896.0</ele><time>2026-05-01T14:33:28.999Z</time></trkpt><trkpt lat="41.938284938482205" lon="13.838238890728858"><ele>893.0</ele><time>2026-05-01T14:33:29.999Z</time></trkpt><trkpt lat="41.93830698966037" lon="13.838153979670818"><ele>890.0</ele><time>2026-05-01T14:33:30.999Z</time></trkpt><trkpt lat="41.938333368781315" lon="13.838033424834913"><ele>887.6666666666667</ele><time>2026-05-01T14:33:32.999Z</time></trkpt><trkpt lat="41.93835253270729" lon="13.83793915120796"><ele>885.3333333333334</ele><time>2026-05-01T14:33:34.999Z</time></trkpt><trkpt lat="41.93838565190598" lon="13.837842475536817"><ele>883.0</ele><time>2026-05-01T14:33:36.999Z</time></trkpt><trkpt lat="41.938419918910334" lon="13.837742517013877"><ele>880.6666666666667</ele><time>2026-05-01T14:33:39.999Z</time></trkpt><trkpt lat="41.93844564443493" lon="13.837630239620678"><ele>878.3333333333334</ele><time>2026-05-01T14:33:43.999Z</time></trkpt><trkpt lat="41.9384697863412" lon="13.837529074091705"><ele>876.0</ele><time>2026-05-01T14:33:45.999Z</time></trkpt><trkpt lat="41.93850132023359" lon="13.83741888056107"><ele>878.1666666666666</ele><time>2026-05-01T14:33:47.999Z</time></trkpt><trkpt lat="41.93854889767491" lon="13.83731273052163"><ele>880.3333333333333</ele><time>2026-05-01T14:33:49.999Z</time></trkpt><trkpt lat="41.93858320582206" lon="13.83717071130821"><ele>882.5</ele><time>2026-05-01T14:33:51.999Z</time></trkpt><trkpt lat="41.938593576942445" lon="13.837051336927109"><ele>884.6666666666666</ele><time>2026-05-01T14:33:53.999Z</time></trkpt><trkpt lat="41.938604204370606" lon="13.836956011266949"><ele>886.8333333333333</ele><time>2026-05-01T14:33:55.999Z</time></trkpt><trkpt lat="41.93861142849125" lon="13.836866988563958"><ele>889.0</ele><time>2026-05-01T14:33:57.999Z</time></trkpt><trkpt lat="41.93859389945899" lon="13.83675495599216"><ele>888.9999999999999</ele><time>2026-05-01T14:34:00.999Z</time></trkpt><trkpt lat="41.93859439544354" lon="13.836628109199573"><ele>889.0</ele><time>2026-05-01T14:34:03.998Z</time></trkpt><trkpt lat="41.938596124961165" lon="13.836509876290767"><ele>889.0</ele><time>2026-05-01T14:34:05.998Z</time></trkpt><trkpt lat="41.93860453236817" lon="13.83638957683234"><ele>889.0</ele><time>2026-05-01T14:34:07.998Z</time></trkpt><trkpt lat="41.93864522640609" lon="13.836257526585815"><ele>888.9999999999999</ele><time>2026-05-01T14:34:09.998Z</time></trkpt><trkpt lat="41.9386890075731" lon="13.836191540311422"><ele>889.0</ele><time>2026-05-01T14:34:10.998Z</time></trkpt><trkpt lat="41.938792463675064" lon="13.836108095580897"><ele>889.0</ele><time>2026-05-01T14:34:12.998Z</time></trkpt><trkpt lat="41.93884786009586" lon="13.836058394073978"><ele>889.0</ele><time>2026-05-01T14:34:13.998Z</time></trkpt><trkpt lat="41.93890861192133" lon="13.83600847283386"><ele>889.0</ele><time>2026-05-01T14:34:14.998Z</time></trkpt><trkpt lat="41.93897134085761" lon="13.835956483200315"><ele>889.0</ele><time>2026-05-01T14:34:15.998Z</time></trkpt><trkpt lat="41.939039087721454" lon="13.835908021991505"><ele>889.0</ele><time>2026-05-01T14:34:16.998Z</time></trkpt><trkpt lat="41.93910920904252" lon="13.83585918255612"><ele>889.0</ele><time>2026-05-01T14:34:17.998Z</time></trkpt><trkpt lat="41.93918120437399" lon="13.835807455834795"><ele>889.0</ele><time>2026-05-01T14:34:18.998Z</time></trkpt><trkpt lat="41.9392525702647" lon="13.835749815652525"><ele>890.4999999999999</ele><time>2026-05-01T14:34:19.998Z</time></trkpt><trkpt lat="41.93932401094879" lon="13.835680697364486"><ele>892.0</ele><time>2026-05-01T14:34:20.998Z</time></trkpt><trkpt lat="41.93938827720398" lon="13.83560362675588"><ele>893.5</ele><time>2026-05-01T14:34:21.998Z</time></trkpt><trkpt lat="41.939444766374976" lon="13.835511206893903"><ele>895.0</ele><time>2026-05-01T14:34:22.998Z</time></trkpt><trkpt lat="41.93949275789356" lon="13.835405403733812"><ele>896.4999999999999</ele><time>2026-05-01T14:34:24Z</time></trkpt><trkpt lat="41.93953370339972" lon="13.835305086444313"><ele>898.0</ele><time>2026-05-01T14:34:25Z</time></trkpt><trkpt lat="41.93957283071775" lon="13.835209709921173"><ele>891.4999999999999</ele><time>2026-05-01T14:34:26Z</time></trkpt><trkpt lat="41.93962494346784" lon="13.835129348827383"><ele>885.0</ele><time>2026-05-01T14:34:27Z</time></trkpt><trkpt lat="41.939676033708714" lon="13.835047316229947"><ele>878.5</ele><time>2026-05-01T14:34:28Z</time></trkpt><trkpt lat="41.939737780776845" lon="13.834977200046634"><ele>872.0</ele><time>2026-05-01T14:34:29Z</time></trkpt><trkpt lat="41.93981024357979" lon="13.83491121414779"><ele>865.4999999999999</ele><time>2026-05-01T14:34:30Z</time></trkpt><trkpt lat="41.93988206504876" lon="13.834852458676831"><ele>859.0</ele><time>2026-05-01T14:34:31Z</time></trkpt><trkpt lat="41.939951273014366" lon="13.834785607491463"><ele>859.0</ele><time>2026-05-01T14:34:32Z</time></trkpt><trkpt lat="41.94002497273267" lon="13.83471564363799"><ele>859.0000000000001</ele><time>2026-05-01T14:34:33Z</time></trkpt><trkpt lat="41.94010073151764" lon="13.834650628182706"><ele>859.0000000000001</ele><time>2026-05-01T14:34:34Z</time></trkpt><trkpt lat="41.94017756527606" lon="13.834585570803373"><ele>859.0</ele><time>2026-05-01T14:34:35Z</time></trkpt><trkpt lat="41.94025246692339" lon="13.8345160055781"><ele>859.0</ele><time>2026-05-01T14:34:36Z</time></trkpt><trkpt lat="41.94033644289159" lon="13.834462799635281"><ele>861.6</ele><time>2026-05-01T14:34:37Z</time></trkpt><trkpt lat="41.94040284855055" lon="13.834392345849894"><ele>864.2</ele><time>2026-05-01T14:34:38Z</time></trkpt><trkpt lat="41.940464030295026" lon="13.834326039963178"><ele>866.8000000000001</ele><time>2026-05-01T14:34:39Z</time></trkpt><trkpt lat="41.940519664619316" lon="13.834281172405039"><ele>869.4000000000001</ele><time>2026-05-01T14:34:40Z</time></trkpt><trkpt lat="41.940607984268915" lon="13.834158667938283"><ele>872.0</ele><time>2026-05-01T14:34:42Z</time></trkpt><trkpt lat="41.94065483170874" lon="13.83404524239387"><ele>872.0000000000001</ele><time>2026-05-01T14:34:44Z</time></trkpt><trkpt lat="41.94064221820559" lon="13.833864497007536"><ele>872.0</ele><time>2026-05-01T14:34:46Z</time></trkpt><trkpt lat="41.940633196235346" lon="13.833769492617687"><ele>872.0</ele><time>2026-05-01T14:34:47Z</time></trkpt><trkpt lat="41.94063157023173" lon="13.833669545940355"><ele>872.0</ele><time>2026-05-01T14:34:48Z</time></trkpt><trkpt lat="41.940640192232635" lon="13.833568510010544"><ele>872.0000000000001</ele><time>2026-05-01T14:34:49Z</time></trkpt><trkpt lat="41.94065407546897" lon="13.833465007316988"><ele>872.0</ele><time>2026-05-01T14:34:50Z</time></trkpt><trkpt lat="41.94067112699419" lon="13.8333564715791"><ele>867.8333333333334</ele><time>2026-05-01T14:34:51Z</time></trkpt><trkpt lat="41.94069270871585" lon="13.833247471798664"><ele>863.6666666666667</ele><time>2026-05-01T14:34:52Z</time></trkpt><trkpt lat="41.94072481580719" lon="13.83315032700041"><ele>859.5</ele><time>2026-05-01T14:34:53Z</time></trkpt><trkpt lat="41.94076184043721" lon="13.833057940327604"><ele>855.3333333333333</ele><time>2026-05-01T14:34:54Z</time></trkpt><trkpt lat="41.94081083928968" lon="13.83297423072363"><ele>851.1666666666666</ele><time>2026-05-01T14:34:55Z</time></trkpt><trkpt lat="41.94086332830817" lon="13.832904928901918"><ele>847.0</ele><time>2026-05-01T14:34:56Z</time></trkpt><trkpt lat="41.94093008751431" lon="13.832836837078448"><ele>851.4999999999999</ele><time>2026-05-01T14:34:58Z</time></trkpt><trkpt lat="41.940971133661485" lon="13.83277134323883"><ele>856.0</ele><time>2026-05-01T14:35:02Z</time></trkpt><trkpt lat="41.94102048970879" lon="13.832659428572848"><ele>860.5</ele><time>2026-05-01T14:35:06Z</time></trkpt><trkpt lat="41.941050524135974" lon="13.832562626841414"><ele>865.0</ele><time>2026-05-01T14:35:09Z</time></trkpt><trkpt lat="41.941047468376574" lon="13.832419716347147"><ele>869.4999999999999</ele><time>2026-05-01T14:35:11Z</time></trkpt><trkpt lat="41.94103750978453" lon="13.832303816496493"><ele>874.0</ele><time>2026-05-01T14:35:12.999Z</time></trkpt><trkpt lat="41.94105763496107" lon="13.832156623095216"><ele>874.0</ele><time>2026-05-01T14:35:14.999Z</time></trkpt><trkpt lat="41.941119623512" lon="13.83204241631586"><ele>874.0</ele><time>2026-05-01T14:35:16.999Z</time></trkpt><trkpt lat="41.94116789067043" lon="13.83197763088896"><ele>874.0</ele><time>2026-05-01T14:35:17.999Z</time></trkpt><trkpt lat="41.941210176053474" lon="13.8319078602436"><ele>874.0</ele><time>2026-05-01T14:35:18.999Z</time></trkpt><trkpt lat="41.941254130839894" lon="13.831838909063146"><ele>874.0</ele><time>2026-05-01T14:35:19.999Z</time></trkpt><trkpt lat="41.94129879985402" lon="13.831773777963011"><ele>874.0</ele><time>2026-05-01T14:35:20.999Z</time></trkpt><trkpt lat="41.941346785329415" lon="13.831710402542514"><ele>874.0</ele><time>2026-05-01T14:35:21.999Z</time></trkpt><trkpt lat="41.941390150499295" lon="13.831617198566935"><ele>875.7142857142857</ele><time>2026-05-01T14:35:22.999Z</time></trkpt><trkpt lat="41.94143764342867" lon="13.831534084726785"><ele>877.4285714285714</ele><time>2026-05-01T14:35:23.999Z</time></trkpt><trkpt lat="41.94148297182598" lon="13.831451645454173"><ele>879.1428571428571</ele><time>2026-05-01T14:35:24.999Z</time></trkpt><trkpt lat="41.94152724073124" lon="13.831371702135986"><ele>880.8571428571429</ele><time>2026-05-01T14:35:25.999Z</time></trkpt><trkpt lat="41.941575149333566" lon="13.83129652952166"><ele>882.5714285714287</ele><time>2026-05-01T14:35:26.999Z</time></trkpt><trkpt lat="41.94162404581648" lon="13.831214153327915"><ele>884.2857142857143</ele><time>2026-05-01T14:35:27.999Z</time></trkpt><trkpt lat="41.94166667312089" lon="13.83114416278777"><ele>886.0</ele><time>2026-05-01T14:35:28.999Z</time></trkpt><trkpt lat="41.94176756045375" lon="13.831045119757519"><ele>885.9999999999999</ele><time>2026-05-01T14:35:30.999Z</time></trkpt><trkpt lat="41.941841879317515" lon="13.831092797476757"><ele>886.0</ele><time>2026-05-01T14:35:31.999Z</time></trkpt><trkpt lat="41.94190843451336" lon="13.831095094887331"><ele>886.0</ele><time>2026-05-01T14:35:32.999Z</time></trkpt><trkpt lat="41.941975145117894" lon="13.831084749401928"><ele>886.0</ele><time>2026-05-01T14:35:33.999Z</time></trkpt><trkpt lat="41.942074844889014" lon="13.83103580479253"><ele>885.9999999999999</ele><time>2026-05-01T14:35:35.999Z</time></trkpt><trkpt lat="41.9421593555952" lon="13.831007956919564"><ele>886.0</ele><time>2026-05-01T14:35:37.999Z</time></trkpt><trkpt lat="41.94220880687202" lon="13.830936489750014"><ele>880.1666666666666</ele><time>2026-05-01T14:35:40.999Z</time></trkpt><trkpt lat="41.94225628078935" lon="13.830857794018236"><ele>874.3333333333333</ele><time>2026-05-01T14:35:52.999Z</time></trkpt><trkpt lat="41.94228111860744" lon="13.830769198604727"><ele>868.5</ele><time>2026-05-01T14:35:54.999Z</time></trkpt><trkpt lat="41.942313893460614" lon="13.83067437257304"><ele>862.6666666666667</ele><time>2026-05-01T14:35:57.999Z</time></trkpt><trkpt lat="41.94232306368189" lon="13.830555708037684"><ele>856.8333333333334</ele><time>2026-05-01T14:36:00.999Z</time></trkpt><trkpt lat="41.942347783058935" lon="13.83047727833137"><ele>851.0</ele><time>2026-05-01T14:36:03.999Z</time></trkpt><trkpt lat="41.942394523152274" lon="13.830262808731971"><ele>853.0</ele><time>2026-05-01T14:36:20.998Z</time></trkpt><trkpt lat="41.94241356052687" lon="13.830116653147792"><ele>855.0</ele><time>2026-05-01T14:36:22.998Z</time></trkpt><trkpt lat="41.94244497937522" lon="13.829978919262922"><ele>856.9999999999999</ele><time>2026-05-01T14:36:24.998Z</time></trkpt><trkpt lat="41.94248658671926" lon="13.829847522045856"><ele>859.0</ele><time>2026-05-01T14:36:26.998Z</time></trkpt><trkpt lat="41.942522813373714" lon="13.829713827624726"><ele>861.0</ele><time>2026-05-01T14:36:28.998Z</time></trkpt><trkpt lat="41.94257384979893" lon="13.829581417430525"><ele>861.0</ele><time>2026-05-01T14:36:31Z</time></trkpt><trkpt lat="41.942678201068475" lon="13.829509515549088"><ele>861.0</ele><time>2026-05-01T14:36:33Z</time></trkpt><trkpt lat="41.94276777021986" lon="13.829466439571865"><ele>861.0</ele><time>2026-05-01T14:36:35Z</time></trkpt><trkpt lat="41.94282710352298" lon="13.829413126450074"><ele>861.0</ele><time>2026-05-01T14:36:38Z</time></trkpt><trkpt lat="41.94304197023002" lon="13.829313018265044"><ele>858.3333333333334</ele><time>2026-05-01T14:36:44Z</time></trkpt><trkpt lat="41.9431372233998" lon="13.82925195936716"><ele>855.6666666666667</ele><time>2026-05-01T14:36:46Z</time></trkpt><trkpt lat="41.943250222855156" lon="13.829192719152731"><ele>853.0</ele><time>2026-05-01T14:36:48Z</time></trkpt><trkpt lat="41.943308167405135" lon="13.829157330182246"><ele>850.3333333333334</ele><time>2026-05-01T14:36:49Z</time></trkpt><trkpt lat="41.94336534919767" lon="13.829115224277103"><ele>847.6666666666667</ele><time>2026-05-01T14:36:50Z</time></trkpt><trkpt lat="41.94342038854036" lon="13.829061124606847"><ele>845.0</ele><time>2026-05-01T14:36:51Z</time></trkpt><trkpt lat="41.94345310898636" lon="13.828968458600905"><ele>845.0000000000001</ele><time>2026-05-01T14:36:52Z</time></trkpt><trkpt lat="41.943522128517294" lon="13.828862923936619"><ele>845.0</ele><time>2026-05-01T14:36:54Z</time></trkpt><trkpt lat="41.94357721713976" lon="13.828785289988339"><ele>845.0</ele><time>2026-05-01T14:36:56Z</time></trkpt><trkpt lat="41.94362587268786" lon="13.828726121599868"><ele>845.0</ele><time>2026-05-01T14:37:02Z</time></trkpt><trkpt lat="41.94371842936576" lon="13.828673561667514"><ele>845.0000000000001</ele><time>2026-05-01T14:37:11Z</time></trkpt><trkpt lat="41.94381510680768" lon="13.828645119841452"><ele>845.0</ele><time>2026-05-01T14:37:13Z</time></trkpt><trkpt lat="41.94390788452344" lon="13.828632916809195"><ele>845.0</ele><time>2026-05-01T14:37:15Z</time></trkpt><trkpt lat="41.94399185475868" lon="13.828633468855688"><ele>845.0</ele><time>2026-05-01T14:37:17Z</time></trkpt><trkpt lat="41.944092519327405" lon="13.828625600547127"><ele>845.0</ele><time>2026-05-01T14:37:19Z</time></trkpt><trkpt lat="41.944204645174096" lon="13.828628554661956"><ele>845.0</ele><time>2026-05-01T14:37:20.999Z</time></trkpt><trkpt lat="41.94426816664667" lon="13.82863146136468"><ele>845.0</ele><time>2026-05-01T14:37:21.999Z</time></trkpt><trkpt lat="41.94438602321307" lon="13.828642293391841"><ele>842.2</ele><time>2026-05-01T14:37:23.999Z</time></trkpt><trkpt lat="41.944494029708224" lon="13.828655764231833"><ele>839.4</ele><time>2026-05-01T14:37:25.999Z</time></trkpt><trkpt lat="41.94459496466308" lon="13.82870559164549"><ele>836.5999999999999</ele><time>2026-05-01T14:37:27.999Z</time></trkpt><trkpt lat="41.94469808901282" lon="13.828796726655531"><ele>833.8</ele><time>2026-05-01T14:37:29.999Z</time></trkpt><trkpt lat="41.944761749833944" lon="13.828829888834782"><ele>831.0</ele><time>2026-05-01T14:37:30.999Z</time></trkpt><trkpt lat="41.94482720294249" lon="13.828850940437995"><ele>831.0</ele><time>2026-05-01T14:37:31.999Z</time></trkpt><trkpt lat="41.94489232537725" lon="13.828854437750724"><ele>831.0</ele><time>2026-05-01T14:37:32.999Z</time></trkpt><trkpt lat="41.94499547615965" lon="13.82888280837837"><ele>831.0</ele><time>2026-05-01T14:37:34.999Z</time></trkpt><trkpt lat="41.94509045638931" lon="13.828941116329398"><ele>831.0</ele><time>2026-05-01T14:37:36.999Z</time></trkpt><trkpt lat="41.94520825774401" lon="13.82897585448589"><ele>831.0</ele><time>2026-05-01T14:37:38.999Z</time></trkpt><trkpt lat="41.94527449771775" lon="13.828984589856747"><ele>832.5714285714286</ele><time>2026-05-01T14:37:39.999Z</time></trkpt><trkpt lat="41.94534400737822" lon="13.828979268032105"><ele>834.1428571428571</ele><time>2026-05-01T14:37:40.999Z</time></trkpt><trkpt lat="41.94541760135794" lon="13.828947398800493"><ele>835.7142857142858</ele><time>2026-05-01T14:37:41.999Z</time></trkpt><trkpt lat="41.945486488597446" lon="13.828912882605382"><ele>837.2857142857142</ele><time>2026-05-01T14:37:42.999Z</time></trkpt><trkpt lat="41.945546963521814" lon="13.828875203907588"><ele>838.8571428571429</ele><time>2026-05-01T14:37:43.999Z</time></trkpt><trkpt lat="41.945610353119854" lon="13.82884734017588"><ele>840.4285714285714</ele><time>2026-05-01T14:37:44.999Z</time></trkpt><trkpt lat="41.94566928233114" lon="13.828806014710745"><ele>842.0</ele><time>2026-05-01T14:37:45.999Z</time></trkpt><trkpt lat="41.94573126025798" lon="13.828762569841292"><ele>842.0</ele><time>2026-05-01T14:37:46.999Z</time></trkpt><trkpt lat="41.945788668511824" lon="13.828725879861011"><ele>842.0</ele><time>2026-05-01T14:37:47.999Z</time></trkpt><trkpt lat="41.94589312046547" lon="13.828649090128833"><ele>842.0</ele><time>2026-05-01T14:37:49.999Z</time></trkpt><trkpt lat="41.945979196220435" lon="13.82855574255962"><ele>842.0</ele><time>2026-05-01T14:37:51.999Z</time></trkpt><trkpt lat="41.94604623178426" lon="13.828457603067145"><ele>842.0</ele><time>2026-05-01T14:37:53.999Z</time></trkpt><trkpt lat="41.94609328857155" lon="13.828365454402904"><ele>841.0</ele><time>2026-05-01T14:37:55.999Z</time></trkpt><trkpt lat="41.94614151054645" lon="13.828293885215706"><ele>840.0</ele><time>2026-05-01T14:37:57.999Z</time></trkpt><trkpt lat="41.94622381084516" lon="13.828209326879213"><ele>839.0</ele><time>2026-05-01T14:37:59.999Z</time></trkpt><trkpt lat="41.946314428551254" lon="13.828130836249679"><ele>838.0</ele><time>2026-05-01T14:38:01.999Z</time></trkpt><trkpt lat="41.94639653111598" lon="13.828061156193789"><ele>837.0</ele><time>2026-05-01T14:38:03.999Z</time></trkpt><trkpt lat="41.94647890586711" lon="13.827963474434876"><ele>837.0</ele><time>2026-05-01T14:38:05.999Z</time></trkpt><trkpt lat="41.94656680583627" lon="13.827864344874776"><ele>837.0</ele><time>2026-05-01T14:38:07.999Z</time></trkpt><trkpt lat="41.946672983214064" lon="13.827780878778842"><ele>837.0</ele><time>2026-05-01T14:38:09.999Z</time></trkpt><trkpt lat="41.94678547034858" lon="13.827739699717766"><ele>837.0</ele><time>2026-05-01T14:38:11.999Z</time></trkpt><trkpt lat="41.9469066064423" lon="13.82775422668145"><ele>835.1666666666666</ele><time>2026-05-01T14:38:13.999Z</time></trkpt><trkpt lat="41.9470167986939" lon="13.827663886518472"><ele>833.3333333333333</ele><time>2026-05-01T14:38:15.999Z</time></trkpt><trkpt lat="41.947061859123664" lon="13.827594617383047"><ele>831.5</ele><time>2026-05-01T14:38:16.999Z</time></trkpt><trkpt lat="41.94709786014873" lon="13.827525141534151"><ele>829.6666666666666</ele><time>2026-05-01T14:38:17.998Z</time></trkpt><trkpt lat="41.94713571478533" lon="13.827442492042504"><ele>827.8333333333333</ele><time>2026-05-01T14:38:18.998Z</time></trkpt><trkpt lat="41.947183330412855" lon="13.827367427865278"><ele>826.0</ele><time>2026-05-01T14:38:19.998Z</time></trkpt><trkpt lat="41.94724152157491" lon="13.827298547100336"><ele>825.9999999999999</ele><time>2026-05-01T14:38:20.998Z</time></trkpt><trkpt lat="41.94731001191957" lon="13.827243578420306"><ele>826.0</ele><time>2026-05-01T14:38:21.998Z</time></trkpt><trkpt lat="41.94738224258253" lon="13.827196154303113"><ele>826.0</ele><time>2026-05-01T14:38:22.998Z</time></trkpt><trkpt lat="41.94746031441697" lon="13.827174059504685"><ele>826.0</ele><time>2026-05-01T14:38:23.998Z</time></trkpt><trkpt lat="41.94752775150289" lon="13.827234558425333"><ele>825.9999999999999</ele><time>2026-05-01T14:38:24.998Z</time></trkpt><trkpt lat="41.94759946880423" lon="13.827263345647285"><ele>826.0</ele><time>2026-05-01T14:38:25.998Z</time></trkpt><trkpt lat="41.9476690850329" lon="13.827285883458664"><ele>831.6666666666666</ele><time>2026-05-01T14:38:26.998Z</time></trkpt><trkpt lat="41.94774593244972" lon="13.827285234537339"><ele>837.3333333333333</ele><time>2026-05-01T14:38:27.998Z</time></trkpt><trkpt lat="41.94782632758904" lon="13.827251747002466"><ele>843.0</ele><time>2026-05-01T14:38:28.998Z</time></trkpt><trkpt lat="41.94789761845734" lon="13.827198424982608"><ele>848.6666666666667</ele><time>2026-05-01T14:38:29.998Z</time></trkpt><trkpt lat="41.94795855740154" lon="13.827134322482342"><ele>854.3333333333334</ele><time>2026-05-01T14:38:30.998Z</time></trkpt><trkpt lat="41.9480090920486" lon="13.827052489659783"><ele>860.0</ele><time>2026-05-01T14:38:31.998Z</time></trkpt><trkpt lat="41.94803724199551" lon="13.82695225815388"><ele>860.0000000000001</ele><time>2026-05-01T14:38:32.998Z</time></trkpt><trkpt lat="41.948074082241945" lon="13.826849161062512"><ele>860.0</ele><time>2026-05-01T14:38:33.998Z</time></trkpt><trkpt lat="41.94809193319098" lon="13.826723225030028"><ele>860.0</ele><time>2026-05-01T14:38:35Z</time></trkpt><trkpt lat="41.94809680629067" lon="13.82661299621269"><ele>860.0</ele><time>2026-05-01T14:38:36Z</time></trkpt><trkpt lat="41.948127969470896" lon="13.826513186501918"><ele>860.0000000000001</ele><time>2026-05-01T14:38:37Z</time></trkpt><trkpt lat="41.948154311986286" lon="13.826398839027286"><ele>860.0</ele><time>2026-05-01T14:38:38Z</time></trkpt><trkpt lat="41.9482018328429" lon="13.826308024878726"><ele>857.6666666666667</ele><time>2026-05-01T14:38:39Z</time></trkpt><trkpt lat="41.9482461280512" lon="13.826225008488509"><ele>855.3333333333334</ele><time>2026-05-01T14:38:40Z</time></trkpt><trkpt lat="41.948302757535465" lon="13.82615718393391"><ele>853.0</ele><time>2026-05-01T14:38:41Z</time></trkpt><trkpt lat="41.94837209732666" lon="13.826118669097154"><ele>850.6666666666667</ele><time>2026-05-01T14:38:42Z</time></trkpt><trkpt lat="41.94843789291467" lon="13.826056196397754"><ele>848.3333333333334</ele><time>2026-05-01T14:38:43Z</time></trkpt><trkpt lat="41.94850023245767" lon="13.825993190219698"><ele>846.0</ele><time>2026-05-01T14:38:44Z</time></trkpt><trkpt lat="41.94856715420912" lon="13.825930417999766"><ele>839.0</ele><time>2026-05-01T14:38:45Z</time></trkpt><trkpt lat="41.94863601084755" lon="13.825889445484375"><ele>832.0</ele><time>2026-05-01T14:38:46Z</time></trkpt><trkpt lat="41.94870398640108" lon="13.82591433349777"><ele>825.0</ele><time>2026-05-01T14:38:47Z</time></trkpt><trkpt lat="41.948786273662456" lon="13.82593004347113"><ele>818.0</ele><time>2026-05-01T14:38:48Z</time></trkpt><trkpt lat="41.94887492237199" lon="13.825942351822821"><ele>811.0</ele><time>2026-05-01T14:38:49Z</time></trkpt><trkpt lat="41.94896761405121" lon="13.825945408545985"><ele>804.0</ele><time>2026-05-01T14:38:50Z</time></trkpt><trkpt lat="41.949071233972866" lon="13.825899509810325"><ele>804.0</ele><time>2026-05-01T14:38:51Z</time></trkpt><trkpt lat="41.94915862223573" lon="13.825848313600787"><ele>804.0</ele><time>2026-05-01T14:38:52Z</time></trkpt><trkpt lat="41.94924007094507" lon="13.825802372074703"><ele>804.0</ele><time>2026-05-01T14:38:53Z</time></trkpt><trkpt lat="41.94932738351977" lon="13.825753875972842"><ele>804.0</ele><time>2026-05-01T14:38:54Z</time></trkpt><trkpt lat="41.949414736058685" lon="13.825708690425113"><ele>804.0</ele><time>2026-05-01T14:38:55Z</time></trkpt><trkpt lat="41.9495064034522" lon="13.825681114186658"><ele>805.1666666666666</ele><time>2026-05-01T14:38:56Z</time></trkpt><trkpt lat="41.94959459356126" lon="13.825680585987156"><ele>806.3333333333333</ele><time>2026-05-01T14:38:57Z</time></trkpt><trkpt lat="41.94969078645034" lon="13.825675015261929"><ele>807.5</ele><time>2026-05-01T14:38:58Z</time></trkpt><trkpt lat="41.94977799183251" lon="13.8256844594085"><ele>808.6666666666666</ele><time>2026-05-01T14:38:59Z</time></trkpt><trkpt lat="41.94984510274479" lon="13.825648767388657"><ele>809.8333333333333</ele><time>2026-05-01T14:39:00Z</time></trkpt><trkpt lat="41.94991362514915" lon="13.82561638303651"><ele>811.0</ele><time>2026-05-01T14:39:01Z</time></trkpt><trkpt lat="41.94995784000449" lon="13.825552303924905"><ele>810.9999999999999</ele><time>2026-05-01T14:39:02Z</time></trkpt><trkpt lat="41.95003802476539" lon="13.825475755703605"><ele>811.0</ele><time>2026-05-01T14:39:04Z</time></trkpt><trkpt lat="41.950124819105646" lon="13.82537963662105"><ele>811.0</ele><time>2026-05-01T14:39:06Z</time></trkpt><trkpt lat="41.95016846417727" lon="13.825285093202575"><ele>811.0</ele><time>2026-05-01T14:39:07Z</time></trkpt><trkpt lat="41.95023289833369" lon="13.82527408562815"><ele>810.9999999999999</ele><time>2026-05-01T14:39:08Z</time></trkpt><trkpt lat="41.950303171151546" lon="13.825244242281986"><ele>811.0</ele><time>2026-05-01T14:39:09Z</time></trkpt><trkpt lat="41.95038273094615" lon="13.825218103675754"><ele>807.1999999999999</ele><time>2026-05-01T14:39:10Z</time></trkpt><trkpt lat="41.95047242108175" lon="13.825199608977718"><ele>803.4</ele><time>2026-05-01T14:39:11Z</time></trkpt><trkpt lat="41.95056647591145" lon="13.82518656255574"><ele>799.6</ele><time>2026-05-01T14:39:12Z</time></trkpt><trkpt lat="41.950661810140176" lon="13.825173556143028"><ele>795.8</ele><time>2026-05-01T14:39:13Z</time></trkpt><trkpt lat="41.950755666438326" lon="13.825159301752999"><ele>792.0</ele><time>2026-05-01T14:39:14Z</time></trkpt><trkpt lat="41.95084254877851" lon="13.825137753559316"><ele>798.6</ele><time>2026-05-01T14:39:15Z</time></trkpt><trkpt lat="41.95092851222478" lon="13.825095816237726"><ele>805.2</ele><time>2026-05-01T14:39:16Z</time></trkpt><trkpt lat="41.951000116673136" lon="13.824995922953505"><ele>811.8</ele><time>2026-05-01T14:39:17Z</time></trkpt><trkpt lat="41.95104823835102" lon="13.824876744767005"><ele>818.4</ele><time>2026-05-01T14:39:18Z</time></trkpt><trkpt lat="41.95109174815472" lon="13.824772565027375"><ele>825.0</ele><time>2026-05-01T14:39:19Z</time></trkpt><trkpt lat="41.95113608606211" lon="13.82466548655917"><ele>825.0</ele><time>2026-05-01T14:39:20Z</time></trkpt><trkpt lat="41.951180805078195" lon="13.824557437344488"><ele>825.0</ele><time>2026-05-01T14:39:21Z</time></trkpt><trkpt lat="41.95122473840394" lon="13.824450509738595"><ele>825.0</ele><time>2026-05-01T14:39:22Z</time></trkpt><trkpt lat="41.951269209397914" lon="13.824341773918336"><ele>825.0</ele><time>2026-05-01T14:39:23Z</time></trkpt><trkpt lat="41.95130076693153" lon="13.824223633380631"><ele>825.0</ele><time>2026-05-01T14:39:24Z</time></trkpt><trkpt lat="41.95134533787148" lon="13.824120569804428"><ele>819.8333333333334</ele><time>2026-05-01T14:39:25Z</time></trkpt><trkpt lat="41.95138903899476" lon="13.824019298088263"><ele>814.6666666666667</ele><time>2026-05-01T14:39:26Z</time></trkpt><trkpt lat="41.95143506094771" lon="13.823917850806193"><ele>809.5</ele><time>2026-05-01T14:39:27Z</time></trkpt><trkpt lat="41.95148448291399" lon="13.823817857306189"><ele>804.3333333333334</ele><time>2026-05-01T14:39:28Z</time></trkpt><trkpt lat="41.9515376332896" lon="13.823718058113014"><ele>799.1666666666667</ele><time>2026-05-01T14:39:29Z</time></trkpt><trkpt lat="41.951598922498846" lon="13.823627923209076"><ele>794.0</ele><time>2026-05-01T14:39:29.999Z</time></trkpt><trkpt lat="41.95167067976542" lon="13.823555164569514"><ele>791.6</ele><time>2026-05-01T14:39:30.999Z</time></trkpt><trkpt lat="41.95174691723188" lon="13.823489186117257"><ele>789.2</ele><time>2026-05-01T14:39:31.999Z</time></trkpt><trkpt lat="41.95183180860076" lon="13.823428600605679"><ele>786.8000000000001</ele><time>2026-05-01T14:39:32.999Z</time></trkpt><trkpt lat="41.951917085067166" lon="13.823363983402748"><ele>784.4000000000001</ele><time>2026-05-01T14:39:33.999Z</time></trkpt><trkpt lat="41.951996897516594" lon="13.82328628499018"><ele>782.0</ele><time>2026-05-01T14:39:34.999Z</time></trkpt><trkpt lat="41.952072728636715" lon="13.823208913416645"><ele>782.0</ele><time>2026-05-01T14:39:35.999Z</time></trkpt><trkpt lat="41.95215367051726" lon="13.823149925299898"><ele>782.0</ele><time>2026-05-01T14:39:36.999Z</time></trkpt><trkpt lat="41.95224024768538" lon="13.823114114187263"><ele>782.0</ele><time>2026-05-01T14:39:37.999Z</time></trkpt><trkpt lat="41.95233172886623" lon="13.823100443834216"><ele>782.0</ele><time>2026-05-01T14:39:38.999Z</time></trkpt><trkpt lat="41.95242137258941" lon="13.823110868355464"><ele>782.0</ele><time>2026-05-01T14:39:39.999Z</time></trkpt><trkpt lat="41.95251359726269" lon="13.82314220536694"><ele>781.8</ele><time>2026-05-01T14:39:40.999Z</time></trkpt><trkpt lat="41.95260277845872" lon="13.823174781211359"><ele>781.6</ele><time>2026-05-01T14:39:41.999Z</time></trkpt><trkpt lat="41.95269702250074" lon="13.823223933317916"><ele>781.4</ele><time>2026-05-01T14:39:42.999Z</time></trkpt><trkpt lat="41.95279288044756" lon="13.823298838280246"><ele>781.1999999999999</ele><time>2026-05-01T14:39:43.999Z</time></trkpt><trkpt lat="41.95288815227454" lon="13.823368501538447"><ele>781.0</ele><time>2026-05-01T14:39:44.999Z</time></trkpt><trkpt lat="41.9529932810442" lon="13.82348614180467"><ele>781.0</ele><time>2026-05-01T14:39:45.999Z</time></trkpt><trkpt lat="41.95308876432864" lon="13.823600087336434"><ele>781.0</ele><time>2026-05-01T14:39:46.999Z</time></trkpt><trkpt lat="41.95316803804036" lon="13.82372139738101"><ele>781.0</ele><time>2026-05-01T14:39:47.999Z</time></trkpt><trkpt lat="41.95324633977255" lon="13.823833058470138"><ele>781.0</ele><time>2026-05-01T14:39:48.999Z</time></trkpt><trkpt lat="41.95332436777137" lon="13.82394821080873"><ele>780.0</ele><time>2026-05-01T14:39:49.999Z</time></trkpt><trkpt lat="41.95340170770688" lon="13.824064135823196"><ele>779.0</ele><time>2026-05-01T14:39:50.999Z</time></trkpt><trkpt lat="41.953491206066104" lon="13.824185667455044"><ele>778.0</ele><time>2026-05-01T14:39:51.999Z</time></trkpt><trkpt lat="41.953569522379155" lon="13.824306908664788"><ele>777.0</ele><time>2026-05-01T14:39:52.999Z</time></trkpt><trkpt lat="41.95363735140515" lon="13.824430145091599"><ele>777.0</ele><time>2026-05-01T14:39:53.999Z</time></trkpt><trkpt lat="41.953711066661036" lon="13.824550985521743"><ele>777.0</ele><time>2026-05-01T14:39:54.999Z</time></trkpt><trkpt lat="41.95379593621758" lon="13.824679468396795"><ele>777.0</ele><time>2026-05-01T14:39:55.999Z</time></trkpt><trkpt lat="41.953885141129454" lon="13.824802532441907"><ele>777.0</ele><time>2026-05-01T14:39:56.999Z</time></trkpt><trkpt lat="41.95397838814986" lon="13.824914566854195"><ele>777.0</ele><time>2026-05-01T14:39:57.999Z</time></trkpt><trkpt lat="41.954074050171116" lon="13.825020331139598"><ele>777.0</ele><time>2026-05-01T14:39:58.999Z</time></trkpt><trkpt lat="41.954167613741106" lon="13.825124143741572"><ele>777.0</ele><time>2026-05-01T14:39:59.999Z</time></trkpt><trkpt lat="41.95425906495451" lon="13.825216688394375"><ele>777.0</ele><time>2026-05-01T14:40:00.999Z</time></trkpt><trkpt lat="41.95435622863947" lon="13.825297931568421"><ele>780.0</ele><time>2026-05-01T14:40:01.999Z</time></trkpt><trkpt lat="41.95444754301795" lon="13.825373148187214"><ele>783.0</ele><time>2026-05-01T14:40:02.999Z</time></trkpt><trkpt lat="41.95454088852661" lon="13.82544006371045"><ele>786.0</ele><time>2026-05-01T14:40:03.999Z</time></trkpt><trkpt lat="41.954646456918525" lon="13.825499448576405"><ele>789.0</ele><time>2026-05-01T14:40:04.999Z</time></trkpt><trkpt lat="41.9547477347557" lon="13.825523163170471"><ele>792.0</ele><time>2026-05-01T14:40:05.999Z</time></trkpt><trkpt lat="41.95486475245178" lon="13.825522921930423"><ele>792.0</ele><time>2026-05-01T14:40:06.999Z</time></trkpt><trkpt lat="41.9549929311032" lon="13.825506049641309"><ele>792.0</ele><time>2026-05-01T14:40:07.999Z</time></trkpt><trkpt lat="41.95512999048355" lon="13.825411152468876"><ele>792.0</ele><time>2026-05-01T14:40:08.999Z</time></trkpt><trkpt lat="41.95528278420274" lon="13.825341789168547"><ele>792.0</ele><time>2026-05-01T14:40:09.999Z</time></trkpt><trkpt lat="41.95544688265384" lon="13.825282450243614"><ele>793.0</ele><time>2026-05-01T14:40:10.999Z</time></trkpt><trkpt lat="41.95562142821968" lon="13.825225442654743"><ele>794.0</ele><time>2026-05-01T14:40:11.999Z</time></trkpt><trkpt lat="41.95580100126726" lon="13.825157867987466"><ele>795.0</ele><time>2026-05-01T14:40:12.999Z</time></trkpt><trkpt lat="41.95598263709018" lon="13.825087004415007"><ele>790.3333333333333</ele><time>2026-05-01T14:40:13.999Z</time></trkpt><trkpt lat="41.95617832324979" lon="13.825000966129844"><ele>785.6666666666666</ele><time>2026-05-01T14:40:14.999Z</time></trkpt><trkpt lat="41.95636593500862" lon="13.824915892943665"><ele>781.0</ele><time>2026-05-01T14:40:15.999Z</time></trkpt><trkpt lat="41.95654710622329" lon="13.824841899556127"><ele>785.3333333333333</ele><time>2026-05-01T14:40:16.999Z</time></trkpt><trkpt lat="41.95673106593006" lon="13.824764770228725"><ele>789.6666666666667</ele><time>2026-05-01T14:40:17.999Z</time></trkpt><trkpt lat="41.95691319944222" lon="13.82469366111866"><ele>794.0</ele><time>2026-05-01T14:40:18.999Z</time></trkpt><trkpt lat="41.95709638429595" lon="13.82462727020664"><ele>794.0</ele><time>2026-05-01T14:40:19.999Z</time></trkpt><trkpt lat="41.95727369963225" lon="13.824554749833178"><ele>794.0</ele><time>2026-05-01T14:40:20.999Z</time></trkpt><trkpt lat="41.957453716237474" lon="13.824486086539629"><ele>794.0</ele><time>2026-05-01T14:40:21.999Z</time></trkpt><trkpt lat="41.95762227916985" lon="13.824420675031089"><ele>800.0</ele><time>2026-05-01T14:40:22.999Z</time></trkpt><trkpt lat="41.957789916292285" lon="13.82435614374044"><ele>806.0</ele><time>2026-05-01T14:40:23.999Z</time></trkpt><trkpt lat="41.957961130651" lon="13.82429457115981"><ele>812.0</ele><time>2026-05-01T14:40:24.999Z</time></trkpt><trkpt lat="41.958126310762474" lon="13.82422009336108"><ele>801.6666666666667</ele><time>2026-05-01T14:40:25.999Z</time></trkpt><trkpt lat="41.958297690677426" lon="13.824160836580798"><ele>791.3333333333333</ele><time>2026-05-01T14:40:26.998Z</time></trkpt><trkpt lat="41.958468496466544" lon="13.824102042694463"><ele>781.0</ele><time>2026-05-01T14:40:27.998Z</time></trkpt><trkpt lat="41.95864009167038" lon="13.824048092626843"><ele>781.0</ele><time>2026-05-01T14:40:28.998Z</time></trkpt><trkpt lat="41.958815590657906" lon="13.824008946629219"><ele>781.0</ele><time>2026-05-01T14:40:29.998Z</time></trkpt><trkpt lat="41.958987722837534" lon="13.82398169462402"><ele>781.0</ele><time>2026-05-01T14:40:30.998Z</time></trkpt><trkpt lat="41.95916690089079" lon="13.823986372268639"><ele>779.3333333333333</ele><time>2026-05-01T14:40:31.998Z</time></trkpt><trkpt lat="41.959349490906234" lon="13.824009430708106"><ele>777.6666666666667</ele><time>2026-05-01T14:40:32.998Z</time></trkpt><trkpt lat="41.959540050340856" lon="13.824044821306417"><ele>776.0</ele><time>2026-05-01T14:40:33.998Z</time></trkpt><trkpt lat="41.95973458215438" lon="13.824072794915452"><ele>776.0</ele><time>2026-05-01T14:40:34.998Z</time></trkpt><trkpt lat="41.9599246690108" lon="13.824073358271987"><ele>776.0</ele><time>2026-05-01T14:40:35.998Z</time></trkpt><trkpt lat="41.96010094563638" lon="13.824052166554894"><ele>776.0</ele><time>2026-05-01T14:40:36.998Z</time></trkpt><trkpt lat="41.96028509877048" lon="13.824008180188585"><ele>778.3333333333334</ele><time>2026-05-01T14:40:37.998Z</time></trkpt><trkpt lat="41.96045916851141" lon="13.82396180044828"><ele>780.6666666666667</ele><time>2026-05-01T14:40:38.998Z</time></trkpt><trkpt lat="41.96063767202377" lon="13.823910700001235"><ele>783.0</ele><time>2026-05-01T14:40:39.998Z</time></trkpt><trkpt lat="41.96082171240278" lon="13.823866178500545"><ele>783.0</ele><time>2026-05-01T14:40:41Z</time></trkpt><trkpt lat="41.96100101708848" lon="13.823823130059008"><ele>783.0</ele><time>2026-05-01T14:40:42Z</time></trkpt><trkpt lat="41.9611745088905" lon="13.823789218682878"><ele>783.0</ele><time>2026-05-01T14:40:43Z</time></trkpt><trkpt lat="41.9613412131043" lon="13.823759857479518"><ele>783.0</ele><time>2026-05-01T14:40:44Z</time></trkpt><trkpt lat="41.96149770849166" lon="13.823724625747085"><ele>783.0</ele><time>2026-05-01T14:40:45Z</time></trkpt><trkpt lat="41.96163502660166" lon="13.823652776797195"><ele>783.0</ele><time>2026-05-01T14:40:46Z</time></trkpt><trkpt lat="41.96176596670563" lon="13.82357532535917"><ele>783.0</ele><time>2026-05-01T14:40:47Z</time></trkpt><trkpt lat="41.96189762279952" lon="13.823467035091214"><ele>779.75</ele><time>2026-05-01T14:40:48Z</time></trkpt><trkpt lat="41.96202301130431" lon="13.823385772948797"><ele>776.5</ele><time>2026-05-01T14:40:49Z</time></trkpt><trkpt lat="41.96214111036066" lon="13.82332009409207"><ele>773.25</ele><time>2026-05-01T14:40:50Z</time></trkpt><trkpt lat="41.96224764582949" lon="13.823268587562053"><ele>770.0</ele><time>2026-05-01T14:40:51Z</time></trkpt><trkpt lat="41.962352918267186" lon="13.823212583309308"><ele>770.0</ele><time>2026-05-01T14:40:52Z</time></trkpt><trkpt lat="41.962456111311546" lon="13.823177616486987"><ele>770.0</ele><time>2026-05-01T14:40:53Z</time></trkpt><trkpt lat="41.96257459412956" lon="13.823156835817418"><ele>770.0</ele><time>2026-05-01T14:40:54Z</time></trkpt><trkpt lat="41.96268467912124" lon="13.82315720579184"><ele>770.0</ele><time>2026-05-01T14:40:55Z</time></trkpt><trkpt lat="41.96279830198213" lon="13.823176656075693"><ele>773.8</ele><time>2026-05-01T14:40:56Z</time></trkpt><trkpt lat="41.962885126327194" lon="13.823161380929331"><ele>777.6</ele><time>2026-05-01T14:40:57Z</time></trkpt><trkpt lat="41.962974682075" lon="13.823177990463748"><ele>781.4000000000001</ele><time>2026-05-01T14:40:58Z</time></trkpt><trkpt lat="41.963056690740835" lon="13.823194603885074"><ele>785.2</ele><time>2026-05-01T14:40:59Z</time></trkpt><trkpt lat="41.96316733069515" lon="13.823207287182274"><ele>789.0</ele><time>2026-05-01T14:41:00Z</time></trkpt><trkpt lat="41.96325507039479" lon="13.823120481808417"><ele>789.0</ele><time>2026-05-01T14:41:01Z</time></trkpt><trkpt lat="41.963345031440255" lon="13.82301307744395"><ele>789.0</ele><time>2026-05-01T14:41:02Z</time></trkpt><trkpt lat="41.96346421256945" lon="13.822907988146321"><ele>789.0</ele><time>2026-05-01T14:41:03Z</time></trkpt><trkpt lat="41.963597351276405" lon="13.822775639809068"><ele>789.0</ele><time>2026-05-01T14:41:04Z</time></trkpt><trkpt lat="41.963740133718915" lon="13.822658610438298"><ele>786.0</ele><time>2026-05-01T14:41:05Z</time></trkpt><trkpt lat="41.96388960034694" lon="13.822554663831282"><ele>783.0</ele><time>2026-05-01T14:41:06Z</time></trkpt><trkpt lat="41.964025047195086" lon="13.822457447457765"><ele>780.0</ele><time>2026-05-01T14:41:07Z</time></trkpt><trkpt lat="41.96412938101729" lon="13.82231577948778"><ele>780.0</ele><time>2026-05-01T14:41:08Z</time></trkpt><trkpt lat="41.96419017367507" lon="13.82209516793271"><ele>780.0</ele><time>2026-05-01T14:41:09Z</time></trkpt><trkpt lat="41.96422286683444" lon="13.821886184321066"><ele>780.0</ele><time>2026-05-01T14:41:10Z</time></trkpt><trkpt lat="41.964236934327424" lon="13.821671156321855"><ele>781.2</ele><time>2026-05-01T14:41:11Z</time></trkpt><trkpt lat="41.964263007641065" lon="13.821514113949478"><ele>782.4</ele><time>2026-05-01T14:41:12Z</time></trkpt><trkpt lat="41.964307430832584" lon="13.821378950411177"><ele>783.5999999999999</ele><time>2026-05-01T14:41:13Z</time></trkpt><trkpt lat="41.96436875999733" lon="13.821239173492325"><ele>784.8</ele><time>2026-05-01T14:41:14Z</time></trkpt><trkpt lat="41.96442556922903" lon="13.82114503826694"><ele>786.0</ele><time>2026-05-01T14:41:15Z</time></trkpt><trkpt lat="41.96446738091135" lon="13.821062804368713"><ele>783.8</ele><time>2026-05-01T14:41:17Z</time></trkpt><trkpt lat="41.96452872137625" lon="13.820981603241622"><ele>781.5999999999999</ele><time>2026-05-01T14:41:21Z</time></trkpt><trkpt lat="41.96460491562716" lon="13.820897543947646"><ele>779.4</ele><time>2026-05-01T14:41:23Z</time></trkpt><trkpt lat="41.9646946107725" lon="13.820886447613871"><ele>777.2</ele><time>2026-05-01T14:41:25Z</time></trkpt><trkpt lat="41.96481786614145" lon="13.820904202264872"><ele>775.0</ele><time>2026-05-01T14:41:27Z</time></trkpt><trkpt lat="41.964908936999294" lon="13.820904540537695"><ele>775.0</ele><time>2026-05-01T14:41:28Z</time></trkpt><trkpt lat="41.964978054626165" lon="13.82088911507233"><ele>775.0</ele><time>2026-05-01T14:41:29Z</time></trkpt><trkpt lat="41.96507442228817" lon="13.820876376886051"><ele>775.0</ele><time>2026-05-01T14:41:30Z</time></trkpt><trkpt lat="41.965209687402" lon="13.820880104390566"><ele>775.0</ele><time>2026-05-01T14:41:31Z</time></trkpt><trkpt lat="41.965295740260174" lon="13.820826804364636"><ele>775.0</ele><time>2026-05-01T14:41:32Z</time></trkpt><trkpt lat="41.96538499773072" lon="13.820760087862954"><ele>776.6</ele><time>2026-05-01T14:41:33Z</time></trkpt><trkpt lat="41.96546810380774" lon="13.820690333638414"><ele>778.2</ele><time>2026-05-01T14:41:34Z</time></trkpt><trkpt lat="41.965552723833454" lon="13.82059105088729"><ele>779.8</ele><time>2026-05-01T14:41:35Z</time></trkpt><trkpt lat="41.965607292299325" lon="13.820496910862458"><ele>781.4</ele><time>2026-05-01T14:41:35.999Z</time></trkpt><trkpt lat="41.96566211913549" lon="13.820392215883802"><ele>783.0</ele><time>2026-05-01T14:41:36.999Z</time></trkpt><trkpt lat="41.96573491151797" lon="13.820294773605518"><ele>783.0</ele><time>2026-05-01T14:41:37.999Z</time></trkpt><trkpt lat="41.965800972846466" lon="13.820170137348736"><ele>783.0</ele><time>2026-05-01T14:41:38.999Z</time></trkpt><trkpt lat="41.965927699956914" lon="13.820074716488813"><ele>783.0</ele><time>2026-05-01T14:41:39.999Z</time></trkpt><trkpt lat="41.966046753622074" lon="13.820013108278216"><ele>783.0</ele><time>2026-05-01T14:41:40.999Z</time></trkpt><trkpt lat="41.96616704103587" lon="13.819935820912418"><ele>781.2</ele><time>2026-05-01T14:41:41.999Z</time></trkpt><trkpt lat="41.966285767952044" lon="13.81988618778293"><ele>779.4</ele><time>2026-05-01T14:41:42.999Z</time></trkpt><trkpt lat="41.96639035206799" lon="13.819841256429568"><ele>777.6</ele><time>2026-05-01T14:41:43.999Z</time></trkpt><trkpt lat="41.96649377435598" lon="13.81979250423144"><ele>775.8000000000001</ele><time>2026-05-01T14:41:44.999Z</time></trkpt><trkpt lat="41.96657993849132" lon="13.819711694185386"><ele>774.0</ele><time>2026-05-01T14:41:45.999Z</time></trkpt><trkpt lat="41.9666450497921" lon="13.819610404561528"><ele>776.0</ele><time>2026-05-01T14:41:46.999Z</time></trkpt><trkpt lat="41.96670842611285" lon="13.819525870914466"><ele>778.0</ele><time>2026-05-01T14:41:47.999Z</time></trkpt><trkpt lat="41.96680026965918" lon="13.81946777369857"><ele>780.0</ele><time>2026-05-01T14:41:48.999Z</time></trkpt><trkpt lat="41.96686676499989" lon="13.81940366215167"><ele>782.0</ele><time>2026-05-01T14:41:49.999Z</time></trkpt><trkpt lat="41.96695076821027" lon="13.819337976999321"><ele>784.0</ele><time>2026-05-01T14:41:50.999Z</time></trkpt><trkpt lat="41.96705101715921" lon="13.819294904748821"><ele>784.0</ele><time>2026-05-01T14:41:51.999Z</time></trkpt><trkpt lat="41.96713104518044" lon="13.819235730692277"><ele>784.0</ele><time>2026-05-01T14:41:52.999Z</time></trkpt><trkpt lat="41.96723109162568" lon="13.81920220113839"><ele>784.0</ele><time>2026-05-01T14:41:53.999Z</time></trkpt><trkpt lat="41.96728955039077" lon="13.819129197146642"><ele>784.0</ele><time>2026-05-01T14:41:54.999Z</time></trkpt><trkpt lat="41.9673721002315" lon="13.81906851148353"><ele>784.0</ele><time>2026-05-01T14:41:55.999Z</time></trkpt><trkpt lat="41.96744500168621" lon="13.819011986585135"><ele>784.0</ele><time>2026-05-01T14:41:56.999Z</time></trkpt><trkpt lat="41.96751339899401" lon="13.818958463778047"><ele>784.0</ele><time>2026-05-01T14:41:57.999Z</time></trkpt><trkpt lat="41.96757638444445" lon="13.818920047560303"><ele>784.0</ele><time>2026-05-01T14:41:58.999Z</time></trkpt><trkpt lat="41.96764343047742" lon="13.818832245363778"><ele>784.0</ele><time>2026-05-01T14:41:59.999Z</time></trkpt><trkpt lat="41.967684621819544" lon="13.818717394034426"><ele>784.0</ele><time>2026-05-01T14:42:00.999Z</time></trkpt><trkpt lat="41.96773138125003" lon="13.81856659080601"><ele>789.0</ele><time>2026-05-01T14:42:01.999Z</time></trkpt><trkpt lat="41.967791731186736" lon="13.818441493464544"><ele>794.0</ele><time>2026-05-01T14:42:02.999Z</time></trkpt><trkpt lat="41.96786878975049" lon="13.818303295274793"><ele>799.0</ele><time>2026-05-01T14:42:03.999Z</time></trkpt><trkpt lat="41.967915408857195" lon="13.8181468298078"><ele>804.0</ele><time>2026-05-01T14:42:04.999Z</time></trkpt><trkpt lat="41.967968320698965" lon="13.817982172049161"><ele>804.0</ele><time>2026-05-01T14:42:05.999Z</time></trkpt><trkpt lat="41.968026213654205" lon="13.817820644048824"><ele>804.0</ele><time>2026-05-01T14:42:06.999Z</time></trkpt><trkpt lat="41.96807943531384" lon="13.817677137170291"><ele>804.0</ele><time>2026-05-01T14:42:07.999Z</time></trkpt><trkpt lat="41.968149503740484" lon="13.817548267495367"><ele>804.0</ele><time>2026-05-01T14:42:08.999Z</time></trkpt><trkpt lat="41.96822751294326" lon="13.817421787814"><ele>799.75</ele><time>2026-05-01T14:42:09.999Z</time></trkpt><trkpt lat="41.96829265004931" lon="13.817291188543152"><ele>795.5</ele><time>2026-05-01T14:42:10.999Z</time></trkpt><trkpt lat="41.96835228188718" lon="13.8171390659703"><ele>791.25</ele><time>2026-05-01T14:42:11.999Z</time></trkpt><trkpt lat="41.968399045705205" lon="13.816973903633322"><ele>787.0</ele><time>2026-05-01T14:42:12.999Z</time></trkpt><trkpt lat="41.96843599710501" lon="13.816803439466158"><ele>787.0</ele><time>2026-05-01T14:42:13.999Z</time></trkpt><trkpt lat="41.96849789739852" lon="13.816629704644466"><ele>787.0</ele><time>2026-05-01T14:42:14.999Z</time></trkpt><trkpt lat="41.9685783277425" lon="13.816466818665795"><ele>787.0</ele><time>2026-05-01T14:42:15.999Z</time></trkpt><trkpt lat="41.96867048447991" lon="13.81633242812072"><ele>787.0</ele><time>2026-05-01T14:42:16.999Z</time></trkpt><trkpt lat="41.968753285203945" lon="13.816230256943534"><ele>787.0</ele><time>2026-05-01T14:42:17.999Z</time></trkpt><trkpt lat="41.968865956870935" lon="13.816102933011544"><ele>787.0</ele><time>2026-05-01T14:42:18.999Z</time></trkpt><trkpt lat="41.968996175926456" lon="13.815995256119956"><ele>787.0</ele><time>2026-05-01T14:42:19.999Z</time></trkpt><trkpt lat="41.96910491406474" lon="13.815894232803549"><ele>787.0</ele><time>2026-05-01T14:42:20.999Z</time></trkpt><trkpt lat="41.96919739968987" lon="13.815801294194722"><ele>786.5</ele><time>2026-05-01T14:42:21.999Z</time></trkpt><trkpt lat="41.96930849996055" lon="13.815703631404237"><ele>786.0</ele><time>2026-05-01T14:42:22.999Z</time></trkpt><trkpt lat="41.969396666144384" lon="13.815608644083564"><ele>785.5</ele><time>2026-05-01T14:42:23.999Z</time></trkpt><trkpt lat="41.969496001437804" lon="13.815547225548256"><ele>785.0</ele><time>2026-05-01T14:42:24.999Z</time></trkpt><trkpt lat="41.96958538510557" lon="13.815440429033906"><ele>785.0</ele><time>2026-05-01T14:42:25.999Z</time></trkpt><trkpt lat="41.969689288158094" lon="13.81531151021145"><ele>785.0</ele><time>2026-05-01T14:42:26.999Z</time></trkpt><trkpt lat="41.96978210516711" lon="13.815222566893155"><ele>785.0</ele><time>2026-05-01T14:42:27.999Z</time></trkpt><trkpt lat="41.969895259987624" lon="13.815169431195706"><ele>785.0</ele><time>2026-05-01T14:42:28.999Z</time></trkpt><trkpt lat="41.97000682154511" lon="13.815124633122092"><ele>778.0</ele><time>2026-05-01T14:42:29.999Z</time></trkpt><trkpt lat="41.97013233531147" lon="13.815110834557832"><ele>771.0</ele><time>2026-05-01T14:42:30.999Z</time></trkpt><trkpt lat="41.970270294092984" lon="13.815107107460904"><ele>764.0</ele><time>2026-05-01T14:42:31.999Z</time></trkpt><trkpt lat="41.97037568465867" lon="13.815071711253983"><ele>757.0</ele><time>2026-05-01T14:42:32.998Z</time></trkpt><trkpt lat="41.97045290750139" lon="13.814985632303744"><ele>757.0</ele><time>2026-05-01T14:42:33.998Z</time></trkpt><trkpt lat="41.97047534305915" lon="13.814848432984927"><ele>757.0</ele><time>2026-05-01T14:42:34.998Z</time></trkpt><trkpt lat="41.970522507978785" lon="13.814596873574267"><ele>757.0</ele><time>2026-05-01T14:42:36.998Z</time></trkpt><trkpt lat="41.97055827223561" lon="13.814447790180212"><ele>757.0</ele><time>2026-05-01T14:42:37.998Z</time></trkpt><trkpt lat="41.97065483284574" lon="13.814341931468725"><ele>759.5</ele><time>2026-05-01T14:42:38.998Z</time></trkpt><trkpt lat="41.97076761031752" lon="13.814243841959007"><ele>762.0</ele><time>2026-05-01T14:42:39.998Z</time></trkpt><trkpt lat="41.97091101853128" lon="13.814185846319988"><ele>764.5</ele><time>2026-05-01T14:42:40.998Z</time></trkpt><trkpt lat="41.971008266928514" lon="13.814166566181093"><ele>767.0</ele><time>2026-05-01T14:42:41.998Z</time></trkpt><trkpt lat="41.97108562326861" lon="13.814119389440014"><ele>757.5</ele><time>2026-05-01T14:42:42.998Z</time></trkpt><trkpt lat="41.97118387910965" lon="13.814059314911125"><ele>748.0</ele><time>2026-05-01T14:42:43.998Z</time></trkpt><trkpt lat="41.97129851806459" lon="13.814013417732209"><ele>738.5</ele><time>2026-05-01T14:42:44.998Z</time></trkpt><trkpt lat="41.971393651259824" lon="13.813947350264884"><ele>729.0</ele><time>2026-05-01T14:42:45.998Z</time></trkpt><trkpt lat="41.97149830893826" lon="13.81387761024675"><ele>729.0</ele><time>2026-05-01T14:42:47Z</time></trkpt><trkpt lat="41.971595808915325" lon="13.813781600646633"><ele>729.0</ele><time>2026-05-01T14:42:48Z</time></trkpt><trkpt lat="41.971677334804944" lon="13.813688956077742"><ele>729.0</ele><time>2026-05-01T14:42:49Z</time></trkpt><trkpt lat="41.97174944401736" lon="13.813589302989103"><ele>729.0</ele><time>2026-05-01T14:42:50Z</time></trkpt><trkpt lat="41.97184882525115" lon="13.81352465076715"><ele>729.0</ele><time>2026-05-01T14:42:51Z</time></trkpt><trkpt lat="41.97194767366764" lon="13.81346382417227"><ele>728.0</ele><time>2026-05-01T14:42:52Z</time></trkpt><trkpt lat="41.972033667546285" lon="13.813406500086058"><ele>727.0</ele><time>2026-05-01T14:42:53Z</time></trkpt><trkpt lat="41.97212716785065" lon="13.81336930768902"><ele>726.0</ele><time>2026-05-01T14:42:54Z</time></trkpt><trkpt lat="41.972200837568124" lon="13.813346149101415"><ele>725.0</ele><time>2026-05-01T14:42:55Z</time></trkpt><trkpt lat="41.972305643834254" lon="13.81329596259821"><ele>724.0</ele><time>2026-05-01T14:42:56Z</time></trkpt><trkpt lat="41.97238204155971" lon="13.813188560704326"><ele>724.0</ele><time>2026-05-01T14:42:57Z</time></trkpt><trkpt lat="41.97248650395748" lon="13.81311077336645"><ele>724.0</ele><time>2026-05-01T14:42:58Z</time></trkpt><trkpt lat="41.97258412536057" lon="13.813064319263486"><ele>724.0</ele><time>2026-05-01T14:42:59Z</time></trkpt><trkpt lat="41.97270473440596" lon="13.813046414821613"><ele>724.0</ele><time>2026-05-01T14:43:00Z</time></trkpt><trkpt lat="41.972788943136756" lon="13.812965437188558"><ele>724.0</ele><time>2026-05-01T14:43:01Z</time></trkpt><trkpt lat="41.97286717745085" lon="13.812958087543581"><ele>721.4000000000001</ele><time>2026-05-01T14:43:02Z</time></trkpt><trkpt lat="41.97295788677918" lon="13.812914175027231"><ele>718.8</ele><time>2026-05-01T14:43:03Z</time></trkpt><trkpt lat="41.973023816558786" lon="13.812892519228715"><ele>716.2</ele><time>2026-05-01T14:43:04Z</time></trkpt><trkpt lat="41.97311015810857" lon="13.812836471326056"><ele>713.5999999999999</ele><time>2026-05-01T14:43:05Z</time></trkpt><trkpt lat="41.97319755443718" lon="13.812797158966271"><ele>711.0</ele><time>2026-05-01T14:43:06Z</time></trkpt><trkpt lat="41.97330002574642" lon="13.812735194009273"><ele>710.75</ele><time>2026-05-01T14:43:07Z</time></trkpt><trkpt lat="41.97340344968447" lon="13.812667413684277"><ele>710.5</ele><time>2026-05-01T14:43:08Z</time></trkpt><trkpt lat="41.973511650458015" lon="13.81261173581486"><ele>710.25</ele><time>2026-05-01T14:43:09Z</time></trkpt><trkpt lat="41.973629810792545" lon="13.812560986607245"><ele>710.0</ele><time>2026-05-01T14:43:10Z</time></trkpt><trkpt lat="41.974764523557845" lon="13.812347987308092"><ele>708.2</ele><time>2026-05-01T14:43:19Z</time></trkpt><trkpt lat="41.97487441458901" lon="13.812377830030519"><ele>706.4</ele><time>2026-05-01T14:43:20Z</time></trkpt><trkpt lat="41.97498428188962" lon="13.812382239576753"><ele>704.5999999999999</ele><time>2026-05-01T14:43:21Z</time></trkpt><trkpt lat="41.975077639573115" lon="13.812370526940539"><ele>702.8</ele><time>2026-05-01T14:43:22Z</time></trkpt><trkpt lat="41.97515971729567" lon="13.812350466026201"><ele>701.0</ele><time>2026-05-01T14:43:23Z</time></trkpt><trkpt lat="41.97523987600104" lon="13.812362771975964"><ele>699.5</ele><time>2026-05-01T14:43:24Z</time></trkpt><trkpt lat="41.97530411958231" lon="13.812423414295337"><ele>698.0</ele><time>2026-05-01T14:43:25Z</time></trkpt><trkpt lat="41.97536353063306" lon="13.812509656643854"><ele>696.5</ele><time>2026-05-01T14:43:26Z</time></trkpt><trkpt lat="41.97542766006438" lon="13.81259924984295"><ele>695.0</ele><time>2026-05-01T14:43:27Z</time></trkpt><trkpt lat="41.97549593091161" lon="13.81268435565216"><ele>693.5</ele><time>2026-05-01T14:43:28Z</time></trkpt><trkpt lat="41.97557021149402" lon="13.812768005802873"><ele>692.0</ele><time>2026-05-01T14:43:29Z</time></trkpt><trkpt lat="41.975653737286514" lon="13.812830304317584"><ele>696.8</ele><time>2026-05-01T14:43:30Z</time></trkpt><trkpt lat="41.97574787475285" lon="13.812855841853821"><ele>701.6</ele><time>2026-05-01T14:43:31Z</time></trkpt><trkpt lat="41.975845277549055" lon="13.812856378175429"><ele>706.4</ele><time>2026-05-01T14:43:32Z</time></trkpt><trkpt lat="41.975944071425275" lon="13.812859903652422"><ele>711.1999999999999</ele><time>2026-05-01T14:43:33Z</time></trkpt><trkpt lat="41.97603987496584" lon="13.81286907362317"><ele>716.0</ele><time>2026-05-01T14:43:34Z</time></trkpt><trkpt lat="41.97612826903429" lon="13.812883078969449"><ele>716.0</ele><time>2026-05-01T14:43:35Z</time></trkpt><trkpt lat="41.97621707411215" lon="13.812896430224077"><ele>716.0</ele><time>2026-05-01T14:43:36Z</time></trkpt><trkpt lat="41.9763032557004" lon="13.812899629270904"><ele>716.0</ele><time>2026-05-01T14:43:37Z</time></trkpt><trkpt lat="41.97637953224907" lon="13.812909614346323"><ele>716.0</ele><time>2026-05-01T14:43:38Z</time></trkpt><trkpt lat="41.97644943725929" lon="13.812907602997955"><ele>716.0</ele><time>2026-05-01T14:43:39Z</time></trkpt><trkpt lat="41.97653465214034" lon="13.812895732363792"><ele>716.0</ele><time>2026-05-01T14:43:41Z</time></trkpt><trkpt lat="41.97662286843466" lon="13.812873401522847"><ele>718.5999999999999</ele><time>2026-05-01T14:43:43Z</time></trkpt><trkpt lat="41.97670877319407" lon="13.812831647055038"><ele>721.2</ele><time>2026-05-01T14:43:45Z</time></trkpt><trkpt lat="41.976794322048846" lon="13.812782188263071"><ele>723.8</ele><time>2026-05-01T14:43:46.999Z</time></trkpt><trkpt lat="41.976866226928614" lon="13.812696497750839"><ele>726.4000000000001</ele><time>2026-05-01T14:43:48.999Z</time></trkpt><trkpt lat="41.97694898041493" lon="13.812640551032002"><ele>729.0</ele><time>2026-05-01T14:43:50.999Z</time></trkpt><trkpt lat="41.97705384631407" lon="13.812628560007244"><ele>729.0</ele><time>2026-05-01T14:43:52.999Z</time></trkpt><trkpt lat="41.97718526726658" lon="13.812666447018781"><ele>729.0</ele><time>2026-05-01T14:43:54.999Z</time></trkpt><trkpt lat="41.977260097339126" lon="13.812678969869387"><ele>729.0</ele><time>2026-05-01T14:43:55.999Z</time></trkpt><trkpt lat="41.97734240919055" lon="13.812653056299114"><ele>729.0</ele><time>2026-05-01T14:43:56.999Z</time></trkpt><trkpt lat="41.97742857289283" lon="13.812611082084448"><ele>729.0</ele><time>2026-05-01T14:43:57.999Z</time></trkpt><trkpt lat="41.9775140014415" lon="13.81256729592546"><ele>723.0</ele><time>2026-05-01T14:43:58.999Z</time></trkpt><trkpt lat="41.977597598854395" lon="13.812520240960504"><ele>717.0</ele><time>2026-05-01T14:43:59.999Z</time></trkpt><trkpt lat="41.97768075802922" lon="13.812481380464384"><ele>711.0</ele><time>2026-05-01T14:44:00.999Z</time></trkpt><trkpt lat="41.977766080036794" lon="13.8124362630354"><ele>705.0</ele><time>2026-05-01T14:44:01.999Z</time></trkpt><trkpt lat="41.97785701846567" lon="13.812395204181854"><ele>699.0</ele><time>2026-05-01T14:44:02.999Z</time></trkpt><trkpt lat="41.97795999070816" lon="13.812367614803843"><ele>699.0</ele><time>2026-05-01T14:44:03.999Z</time></trkpt><trkpt lat="41.97805999993274" lon="13.812344625806162"><ele>699.0</ele><time>2026-05-01T14:44:04.999Z</time></trkpt><trkpt lat="41.97815707824686" lon="13.812326757989165"><ele>699.0</ele><time>2026-05-01T14:44:05.999Z</time></trkpt><trkpt lat="41.97824529751032" lon="13.81230114568993"><ele>699.0</ele><time>2026-05-01T14:44:06.999Z</time></trkpt><trkpt lat="41.97833614167202" lon="13.812263338052565"><ele>699.0</ele><time>2026-05-01T14:44:07.999Z</time></trkpt><trkpt lat="41.97843086030745" lon="13.812215703617397"><ele>701.0</ele><time>2026-05-01T14:44:08.999Z</time></trkpt><trkpt lat="41.978535891137525" lon="13.812179685959105"><ele>703.0</ele><time>2026-05-01T14:44:09.999Z</time></trkpt><trkpt lat="41.978646433862934" lon="13.812153001067077"><ele>705.0</ele><time>2026-05-01T14:44:10.999Z</time></trkpt><trkpt lat="41.97875275737777" lon="13.812124509209701"><ele>707.0</ele><time>2026-05-01T14:44:11.999Z</time></trkpt><trkpt lat="41.97885120997675" lon="13.812080448109036"><ele>709.0</ele><time>2026-05-01T14:44:12.999Z</time></trkpt><trkpt lat="41.97894277532952" lon="13.812028115765075"><ele>709.0</ele><time>2026-05-01T14:44:13.999Z</time></trkpt><trkpt lat="41.979033892015494" lon="13.811974424439239"><ele>709.0</ele><time>2026-05-01T14:44:14.999Z</time></trkpt><trkpt lat="41.97912001438221" lon="13.811923435024864"><ele>709.0</ele><time>2026-05-01T14:44:15.999Z</time></trkpt><trkpt lat="41.97920392203555" lon="13.81187693646509"><ele>709.0</ele><time>2026-05-01T14:44:16.999Z</time></trkpt><trkpt lat="41.979291535515586" lon="13.811831094281906"><ele>709.0</ele><time>2026-05-01T14:44:17.999Z</time></trkpt><trkpt lat="41.97938950940319" lon="13.811784357714837"><ele>702.0</ele><time>2026-05-01T14:44:18.999Z</time></trkpt><trkpt lat="41.979490578492054" lon="13.811743293254912"><ele>695.0</ele><time>2026-05-01T14:44:19.999Z</time></trkpt><trkpt lat="41.97959425813927" lon="13.811710830662737"><ele>688.0</ele><time>2026-05-01T14:44:20.999Z</time></trkpt><trkpt lat="41.97969911841168" lon="13.811681260351115"><ele>681.0</ele><time>2026-05-01T14:44:21.999Z</time></trkpt><trkpt lat="41.97980569787744" lon="13.811656795940317"><ele>674.0</ele><time>2026-05-01T14:44:22.999Z</time></trkpt><trkpt lat="41.97991421665805" lon="13.811636700781355"><ele>676.25</ele><time>2026-05-01T14:44:23.999Z</time></trkpt><trkpt lat="41.980027930383955" lon="13.811615314159667"><ele>678.5</ele><time>2026-05-01T14:44:24.999Z</time></trkpt><trkpt lat="41.98014712203389" lon="13.811595448320755"><ele>680.75</ele><time>2026-05-01T14:44:25.999Z</time></trkpt><trkpt lat="41.98026522570349" lon="13.811577210370325"><ele>683.0</ele><time>2026-05-01T14:44:26.999Z</time></trkpt><trkpt lat="41.98038062492366" lon="13.811558230846362"><ele>683.0</ele><time>2026-05-01T14:44:27.999Z</time></trkpt><trkpt lat="41.98049210372234" lon="13.811541131243908"><ele>683.0</ele><time>2026-05-01T14:44:28.999Z</time></trkpt><trkpt lat="41.98060455355975" lon="13.811526649181978"><ele>683.0</ele><time>2026-05-01T14:44:29.999Z</time></trkpt><trkpt lat="41.98071287011162" lon="13.811601920167181"><ele>683.0</ele><time>2026-05-01T14:44:30.999Z</time></trkpt><trkpt lat="41.9808216283611" lon="13.811603395455835"><ele>682.0</ele><time>2026-05-01T14:44:31.999Z</time></trkpt><trkpt lat="41.98093141257723" lon="13.811613205435272"><ele>681.0</ele><time>2026-05-01T14:44:32.999Z</time></trkpt><trkpt lat="41.981041689727476" lon="13.811627023671017"><ele>680.0</ele><time>2026-05-01T14:44:33.999Z</time></trkpt><trkpt lat="41.98115459180848" lon="13.811639633800326"><ele>679.0</ele><time>2026-05-01T14:44:34.999Z</time></trkpt><trkpt lat="41.98127367553564" lon="13.811636285830321"><ele>679.0</ele><time>2026-05-01T14:44:35.999Z</time></trkpt><trkpt lat="41.98139055352794" lon="13.811587698068463"><ele>679.0</ele><time>2026-05-01T14:44:36.999Z</time></trkpt><trkpt lat="41.981493086924935" lon="13.8114925302954"><ele>679.0</ele><time>2026-05-01T14:44:37.999Z</time></trkpt><trkpt lat="41.98157358936586" lon="13.811359939214471"><ele>679.0</ele><time>2026-05-01T14:44:38.999Z</time></trkpt><trkpt lat="41.98162554001367" lon="13.811218180753013"><ele>679.0</ele><time>2026-05-01T14:44:39.999Z</time></trkpt><trkpt lat="41.98168059966789" lon="13.811091411035376"><ele>679.0</ele><time>2026-05-01T14:44:40.999Z</time></trkpt><trkpt lat="41.981739011630175" lon="13.810981273909173"><ele>679.0</ele><time>2026-05-01T14:44:41.999Z</time></trkpt><trkpt lat="41.98181241916854" lon="13.810867529173754"><ele>679.0</ele><time>2026-05-01T14:44:42.999Z</time></trkpt><trkpt lat="41.98190148723728" lon="13.810751343979899"><ele>679.0</ele><time>2026-05-01T14:44:43.999Z</time></trkpt><trkpt lat="41.98200638421751" lon="13.810618768849377"><ele>683.0</ele><time>2026-05-01T14:44:44.998Z</time></trkpt><trkpt lat="41.982124738461735" lon="13.81046985823581"><ele>687.0</ele><time>2026-05-01T14:44:45.998Z</time></trkpt><trkpt lat="41.98224188999303" lon="13.810321399610226"><ele>691.0</ele><time>2026-05-01T14:44:46.998Z</time></trkpt><trkpt lat="41.98234906751256" lon="13.810183203549236"><ele>691.0</ele><time>2026-05-01T14:44:47.998Z</time></trkpt><trkpt lat="41.982448502310596" lon="13.810056998738315"><ele>691.0</ele><time>2026-05-01T14:44:48.998Z</time></trkpt><trkpt lat="41.98254642571315" lon="13.80994349454051"><ele>691.0</ele><time>2026-05-01T14:44:49.998Z</time></trkpt><trkpt lat="41.98264755565137" lon="13.809843761196278"><ele>691.0</ele><time>2026-05-01T14:44:50.998Z</time></trkpt><trkpt lat="41.9827501572058" lon="13.809757966681538"><ele>691.0</ele><time>2026-05-01T14:44:52Z</time></trkpt><trkpt lat="41.98286053982904" lon="13.809669722533892"><ele>691.0</ele><time>2026-05-01T14:44:53Z</time></trkpt><trkpt lat="41.982971159140455" lon="13.809580271556879"><ele>691.0</ele><time>2026-05-01T14:44:54Z</time></trkpt><trkpt lat="41.9830783348049" lon="13.809490201933226"><ele>691.0</ele><time>2026-05-01T14:44:55Z</time></trkpt><trkpt lat="41.98317846757774" lon="13.809399947979152"><ele>691.5</ele><time>2026-05-01T14:44:56Z</time></trkpt><trkpt lat="41.98327215962526" lon="13.809298335047933"><ele>692.0</ele><time>2026-05-01T14:44:57Z</time></trkpt><trkpt lat="41.98335589999334" lon="13.809186110542193"><ele>692.5</ele><time>2026-05-01T14:44:58Z</time></trkpt><trkpt lat="41.983436163912025" lon="13.809059600115537"><ele>693.0</ele><time>2026-05-01T14:44:59Z</time></trkpt><trkpt lat="41.983514850956446" lon="13.808920023667035"><ele>693.0</ele><time>2026-05-01T14:45:00Z</time></trkpt><trkpt lat="41.98359464347729" lon="13.808774929284851"><ele>693.0</ele><time>2026-05-01T14:45:01Z</time></trkpt><trkpt lat="41.98367589754273" lon="13.80862615944352"><ele>693.0</ele><time>2026-05-01T14:45:02Z</time></trkpt><trkpt lat="41.983753740976155" lon="13.808480984731032"><ele>693.0</ele><time>2026-05-01T14:45:03Z</time></trkpt><trkpt lat="41.98382947077112" lon="13.808339751951753"><ele>686.75</ele><time>2026-05-01T14:45:04Z</time></trkpt><trkpt lat="41.983903964278234" lon="13.808207649084943"><ele>680.5</ele><time>2026-05-01T14:45:05Z</time></trkpt><trkpt lat="41.98397810327632" lon="13.808076150997103"><ele>674.25</ele><time>2026-05-01T14:45:06Z</time></trkpt><trkpt lat="41.98405352457611" lon="13.807943668083142"><ele>668.0</ele><time>2026-05-01T14:45:07Z</time></trkpt><trkpt lat="41.9841289096414" lon="13.807812074305664"><ele>671.0</ele><time>2026-05-01T14:45:08Z</time></trkpt><trkpt lat="41.984201768346864" lon="13.807684890656967"><ele>674.0</ele><time>2026-05-01T14:45:09Z</time></trkpt><trkpt lat="41.98427497600443" lon="13.807556098339829"><ele>677.0</ele><time>2026-05-01T14:45:10Z</time></trkpt><trkpt lat="41.9843482063835" lon="13.807418192256184"><ele>680.0</ele><time>2026-05-01T14:45:11Z</time></trkpt><trkpt lat="41.9844170970394" lon="13.807273630918317"><ele>680.0</ele><time>2026-05-01T14:45:12Z</time></trkpt><trkpt lat="41.984474688564454" lon="13.80712269779963"><ele>680.0</ele><time>2026-05-01T14:45:13Z</time></trkpt><trkpt lat="41.984518350603125" lon="13.806957903191227"><ele>680.0</ele><time>2026-05-01T14:45:14Z</time></trkpt><trkpt lat="41.98454657709478" lon="13.806765750047187"><ele>680.0</ele><time>2026-05-01T14:45:15Z</time></trkpt><trkpt lat="41.98455997798463" lon="13.806563869607077"><ele>677.5</ele><time>2026-05-01T14:45:16Z</time></trkpt><trkpt lat="41.984563362994955" lon="13.80637261390271"><ele>675.0</ele><time>2026-05-01T14:45:17Z</time></trkpt><trkpt lat="41.984564867893" lon="13.806195638072294"><ele>672.5</ele><time>2026-05-01T14:45:18Z</time></trkpt><trkpt lat="41.984549214100035" lon="13.80603616181072"><ele>670.0</ele><time>2026-05-01T14:45:19Z</time></trkpt><trkpt lat="41.984544897963666" lon="13.805895381934224"><ele>669.5</ele><time>2026-05-01T14:45:20Z</time></trkpt><trkpt lat="41.98454104818634" lon="13.805768637302698"><ele>669.0</ele><time>2026-05-01T14:45:21Z</time></trkpt><trkpt lat="41.98453092534768" lon="13.805646790363129"><ele>668.5</ele><time>2026-05-01T14:45:22Z</time></trkpt><trkpt lat="41.98451579238234" lon="13.805534824512169"><ele>668.0</ele><time>2026-05-01T14:45:23Z</time></trkpt><trkpt lat="41.98449521127021" lon="13.805426223677753"><ele>667.5</ele><time>2026-05-01T14:45:24Z</time></trkpt><trkpt lat="41.98446707499519" lon="13.805329085771849"><ele>667.0</ele><time>2026-05-01T14:45:25Z</time></trkpt><trkpt lat="41.98441861930333" lon="13.80524387832718"><ele>667.0</ele><time>2026-05-01T14:45:26Z</time></trkpt><trkpt lat="41.98435841883852" lon="13.80517349639595"><ele>667.0</ele><time>2026-05-01T14:45:27Z</time></trkpt><trkpt lat="41.984305397201204" lon="13.80510848084942"><ele>667.0</ele><time>2026-05-01T14:45:28Z</time></trkpt><trkpt lat="41.9842698920241" lon="13.80503690637907"><ele>667.0</ele><time>2026-05-01T14:45:29Z</time></trkpt><trkpt lat="41.9842706313615" lon="13.804871573124851"><ele>667.0</ele><time>2026-05-01T14:45:31Z</time></trkpt><trkpt lat="41.98430606755719" lon="13.804770971558574"><ele>667.0</ele><time>2026-05-01T14:45:32Z</time></trkpt><trkpt lat="41.98434338418445" lon="13.80466256869726"><ele>666.4000000000001</ele><time>2026-05-01T14:45:33Z</time></trkpt><trkpt lat="41.984381265385586" lon="13.804539792237957"><ele>665.8000000000001</ele><time>2026-05-01T14:45:34Z</time></trkpt><trkpt lat="41.98440563066057" lon="13.804402176772294"><ele>665.2</ele><time>2026-05-01T14:45:35Z</time></trkpt><trkpt lat="41.98440447325248" lon="13.8042489692196"><ele>664.6</ele><time>2026-05-01T14:45:36Z</time></trkpt><trkpt lat="41.98438963124361" lon="13.804091333530147"><ele>664.0</ele><time>2026-05-01T14:45:37Z</time></trkpt><trkpt lat="41.984375444015086" lon="13.803943465414855"><ele>662.6</ele><time>2026-05-01T14:45:38Z</time></trkpt><trkpt lat="41.984367811634904" lon="13.803799622921611"><ele>661.2</ele><time>2026-05-01T14:45:39Z</time></trkpt><trkpt lat="41.98437538563042" lon="13.803665537060965"><ele>659.8000000000001</ele><time>2026-05-01T14:45:40Z</time></trkpt><trkpt lat="41.984406983583135" lon="13.803540017199419"><ele>658.4000000000001</ele><time>2026-05-01T14:45:41Z</time></trkpt><trkpt lat="41.984450637296575" lon="13.80342431494523"><ele>657.0</ele><time>2026-05-01T14:45:42Z</time></trkpt><trkpt lat="41.984484786146794" lon="13.80328533495264"><ele>652.5</ele><time>2026-05-01T14:45:43Z</time></trkpt><trkpt lat="41.98453186107128" lon="13.803119004577548"><ele>648.0</ele><time>2026-05-01T14:45:44Z</time></trkpt><trkpt lat="41.984552370787725" lon="13.802938929561149"><ele>643.5</ele><time>2026-05-01T14:45:45Z</time></trkpt><trkpt lat="41.98459160326384" lon="13.802772004901742"><ele>639.0</ele><time>2026-05-01T14:45:46Z</time></trkpt><trkpt lat="41.98461828012219" lon="13.802612404281136"><ele>638.3333333333334</ele><time>2026-05-01T14:45:47Z</time></trkpt><trkpt lat="41.98463212767582" lon="13.802459160631757"><ele>637.6666666666666</ele><time>2026-05-01T14:45:48Z</time></trkpt><trkpt lat="41.98464232842362" lon="13.80232471752502"><ele>637.0</ele><time>2026-05-01T14:45:49Z</time></trkpt><trkpt lat="41.98465575118004" lon="13.802210137486462"><ele>636.3333333333333</ele><time>2026-05-01T14:45:50Z</time></trkpt><trkpt lat="41.98467000578311" lon="13.802113337007766"><ele>635.6666666666666</ele><time>2026-05-01T14:45:51Z</time></trkpt><trkpt lat="41.98469600551246" lon="13.802025094331213"><ele>635.0</ele><time>2026-05-01T14:45:52Z</time></trkpt><trkpt lat="41.984732219808194" lon="13.801947529627698"><ele>635.0</ele><time>2026-05-01T14:45:53Z</time></trkpt><trkpt lat="41.984790656719014" lon="13.801883289562864"><ele>635.0</ele><time>2026-05-01T14:45:54Z</time></trkpt><trkpt lat="41.984863527276175" lon="13.801822553563175"><ele>635.0</ele><time>2026-05-01T14:45:55Z</time></trkpt><trkpt lat="41.98493497528055" lon="13.801749069004778"><ele>635.0</ele><time>2026-05-01T14:45:55.999Z</time></trkpt><trkpt lat="41.984995958559544" lon="13.80164951536469"><ele>635.0</ele><time>2026-05-01T14:45:56.999Z</time></trkpt><trkpt lat="41.98503925249065" lon="13.801525680465648"><ele>635.0</ele><time>2026-05-01T14:45:57.999Z</time></trkpt><trkpt lat="41.98507656734893" lon="13.801404317596727"><ele>635.3333333333333</ele><time>2026-05-01T14:45:58.999Z</time></trkpt><trkpt lat="41.9851332249728" lon="13.801306922422226"><ele>635.6666666666666</ele><time>2026-05-01T14:45:59.999Z</time></trkpt><trkpt lat="41.985190730137695" lon="13.80122108844815"><ele>636.0</ele><time>2026-05-01T14:46:00.999Z</time></trkpt><trkpt lat="41.98525337663394" lon="13.80114716401373"><ele>636.3333333333334</ele><time>2026-05-01T14:46:01.999Z</time></trkpt><trkpt lat="41.98531779103182" lon="13.801084778485853"><ele>636.6666666666667</ele><time>2026-05-01T14:46:02.999Z</time></trkpt><trkpt lat="41.98538336192668" lon="13.801031814989878"><ele>637.0</ele><time>2026-05-01T14:46:03.999Z</time></trkpt><trkpt lat="41.98545024027492" lon="13.800986393875885"><ele>637.0</ele><time>2026-05-01T14:46:04.999Z</time></trkpt><trkpt lat="41.98551710749551" lon="13.800939303528025"><ele>637.0</ele><time>2026-05-01T14:46:05.999Z</time></trkpt><trkpt lat="41.98558376302661" lon="13.800901043604725"><ele>637.0</ele><time>2026-05-01T14:46:06.999Z</time></trkpt><trkpt lat="41.98566293848277" lon="13.800891621048697"><ele>637.0</ele><time>2026-05-01T14:46:07.999Z</time></trkpt><trkpt lat="41.985747793688155" lon="13.80089438995889"><ele>637.0</ele><time>2026-05-01T14:46:08.999Z</time></trkpt><trkpt lat="41.985833382415485" lon="13.800881987854956"><ele>637.0</ele><time>2026-05-01T14:46:09.999Z</time></trkpt><trkpt lat="41.985916808680834" lon="13.8008461133077"><ele>630.5</ele><time>2026-05-01T14:46:10.999Z</time></trkpt><trkpt lat="41.98599645145417" lon="13.800798612062406"><ele>624.0</ele><time>2026-05-01T14:46:11.999Z</time></trkpt><trkpt lat="41.98607345796776" lon="13.80074751014577"><ele>617.5</ele><time>2026-05-01T14:46:12.999Z</time></trkpt><trkpt lat="41.986149469509876" lon="13.800705006985421"><ele>611.0</ele><time>2026-05-01T14:46:13.999Z</time></trkpt><trkpt lat="41.98622345306822" lon="13.800663004807154"><ele>604.5</ele><time>2026-05-01T14:46:14.999Z</time></trkpt><trkpt lat="41.986289543087054" lon="13.800612084673991"><ele>598.0</ele><time>2026-05-01T14:46:15.999Z</time></trkpt><trkpt lat="41.986344228327546" lon="13.800543915902328"><ele>598.0</ele><time>2026-05-01T14:46:16.999Z</time></trkpt><trkpt lat="41.98637925033655" lon="13.800448759208912"><ele>598.0</ele><time>2026-05-01T14:46:17.999Z</time></trkpt><trkpt lat="41.986390403403306" lon="13.800333297729624"><ele>598.0</ele><time>2026-05-01T14:46:18.999Z</time></trkpt><trkpt lat="41.98637731951555" lon="13.800216941193057"><ele>598.0</ele><time>2026-05-01T14:46:19.999Z</time></trkpt><trkpt lat="41.98636097802885" lon="13.800105015585228"><ele>598.0</ele><time>2026-05-01T14:46:20.999Z</time></trkpt><trkpt lat="41.98635843965566" lon="13.799999696169332"><ele>598.0</ele><time>2026-05-01T14:46:21.999Z</time></trkpt><trkpt lat="41.986370100389124" lon="13.799896323240388"><ele>600.8333333333334</ele><time>2026-05-01T14:46:22.999Z</time></trkpt><trkpt lat="41.986406715193496" lon="13.799811340461924"><ele>603.6666666666667</ele><time>2026-05-01T14:46:23.999Z</time></trkpt><trkpt lat="41.98646625467998" lon="13.799755823263844"><ele>606.5</ele><time>2026-05-01T14:46:24.999Z</time></trkpt><trkpt lat="41.986539615548466" lon="13.799725475917825"><ele>609.3333333333334</ele><time>2026-05-01T14:46:25.999Z</time></trkpt><trkpt lat="41.986616595124595" lon="13.799698463443463"><ele>612.1666666666666</ele><time>2026-05-01T14:46:26.999Z</time></trkpt><trkpt lat="41.98668978043308" lon="13.799680016349962"><ele>615.0</ele><time>2026-05-01T14:46:27.999Z</time></trkpt><trkpt lat="41.98676189811966" lon="13.799699383576543"><ele>615.0</ele><time>2026-05-01T14:46:28.999Z</time></trkpt><trkpt lat="41.986878875129754" lon="13.799719484837873"><ele>615.0</ele><time>2026-05-01T14:46:30.999Z</time></trkpt><trkpt lat="41.986975584636966" lon="13.799743812096997"><ele>615.0</ele><time>2026-05-01T14:46:32.999Z</time></trkpt><trkpt lat="41.98705385278729" lon="13.799736974177698"><ele>615.0</ele><time>2026-05-01T14:46:34.999Z</time></trkpt><trkpt lat="41.98712773780248" lon="13.79971421800195"><ele>615.0</ele><time>2026-05-01T14:46:36.999Z</time></trkpt><trkpt lat="41.98720654837202" lon="13.799654346942017"><ele>615.0</ele><time>2026-05-01T14:46:38.999Z</time></trkpt><trkpt lat="41.987281109442186" lon="13.799596380658155"><ele>615.0</ele><time>2026-05-01T14:46:40.999Z</time></trkpt><trkpt lat="41.987353769404336" lon="13.799529783310087"><ele>615.0</ele><time>2026-05-01T14:46:42.999Z</time></trkpt><trkpt lat="41.9874520392515" lon="13.799477403017034"><ele>615.0</ele><time>2026-05-01T14:46:44.999Z</time></trkpt><trkpt lat="41.98756766478961" lon="13.799470427220026"><ele>615.0</ele><time>2026-05-01T14:46:46.999Z</time></trkpt><trkpt lat="41.987624933274624" lon="13.799508198785144"><ele>614.3333333333334</ele><time>2026-05-01T14:46:47.999Z</time></trkpt><trkpt lat="41.98768666427647" lon="13.799555330300976"><ele>613.6666666666666</ele><time>2026-05-01T14:46:48.999Z</time></trkpt><trkpt lat="41.9877591040429" lon="13.799592551591019"><ele>613.0</ele><time>2026-05-01T14:46:49.999Z</time></trkpt><trkpt lat="41.98784436205423" lon="13.79960217291723"><ele>612.3333333333333</ele><time>2026-05-01T14:46:50.999Z</time></trkpt><trkpt lat="41.98793587938193" lon="13.799581674096304"><ele>611.6666666666666</ele><time>2026-05-01T14:46:51.999Z</time></trkpt><trkpt lat="41.98802417435487" lon="13.799549222991217"><ele>611.0</ele><time>2026-05-01T14:46:52.999Z</time></trkpt><trkpt lat="41.98810770259154" lon="13.799512836105183"><ele>611.0</ele><time>2026-05-01T14:46:53.999Z</time></trkpt><trkpt lat="41.9881867747195" lon="13.79948472294319"><ele>611.0</ele><time>2026-05-01T14:46:54.999Z</time></trkpt><trkpt lat="41.9882635091187" lon="13.79945552094368"><ele>611.0</ele><time>2026-05-01T14:46:55.998Z</time></trkpt><trkpt lat="41.98834076498658" lon="13.79942327669093"><ele>611.0</ele><time>2026-05-01T14:46:56.998Z</time></trkpt><trkpt lat="41.98841511805711" lon="13.799392759138858"><ele>611.0</ele><time>2026-05-01T14:46:58Z</time></trkpt><trkpt lat="41.98848863453684" lon="13.799367702842904"><ele>611.0</ele><time>2026-05-01T14:46:59Z</time></trkpt><trkpt lat="41.98856772838822" lon="13.799351384839587"><ele>611.0</ele><time>2026-05-01T14:47:00Z</time></trkpt><trkpt lat="41.988654017085864" lon="13.79934998154274"><ele>611.0</ele><time>2026-05-01T14:47:01Z</time></trkpt><trkpt lat="41.988743895142235" lon="13.799369545401577"><ele>611.0</ele><time>2026-05-01T14:47:02Z</time></trkpt><trkpt lat="41.98883013267206" lon="13.799427593415434"><ele>611.0</ele><time>2026-05-01T14:47:03Z</time></trkpt><trkpt lat="41.988919369572976" lon="13.79942598181421"><ele>611.0</ele><time>2026-05-01T14:47:04Z</time></trkpt><trkpt lat="41.98900577989356" lon="13.799428004777276"><ele>611.0</ele><time>2026-05-01T14:47:05Z</time></trkpt><trkpt lat="41.989090622145746" lon="13.799406589746852"><ele>613.5</ele><time>2026-05-01T14:47:06Z</time></trkpt><trkpt lat="41.98917080311786" lon="13.799365046337238"><ele>616.0</ele><time>2026-05-01T14:47:07Z</time></trkpt><trkpt lat="41.98924733821037" lon="13.799317760796932"><ele>618.5</ele><time>2026-05-01T14:47:08Z</time></trkpt><trkpt lat="41.98931769375426" lon="13.799264968987082"><ele>621.0</ele><time>2026-05-01T14:47:09Z</time></trkpt><trkpt lat="41.98938460538746" lon="13.799217989254325"><ele>623.5</ele><time>2026-05-01T14:47:10Z</time></trkpt><trkpt lat="41.98945370924128" lon="13.799181762588843"><ele>626.0</ele><time>2026-05-01T14:47:11Z</time></trkpt><trkpt lat="41.989524434944975" lon="13.799164366640628"><ele>626.0</ele><time>2026-05-01T14:47:12Z</time></trkpt><trkpt lat="41.98959153236923" lon="13.79918570765909"><ele>626.0</ele><time>2026-05-01T14:47:13Z</time></trkpt><trkpt lat="41.989657985347286" lon="13.799171765799167"><ele>626.0</ele><time>2026-05-01T14:47:14Z</time></trkpt><trkpt lat="41.98972211461519" lon="13.799182618779465"><ele>626.0</ele><time>2026-05-01T14:47:15Z</time></trkpt><trkpt lat="41.98978502263404" lon="13.799202170770196"><ele>626.0</ele><time>2026-05-01T14:47:16Z</time></trkpt><trkpt lat="41.98985624342886" lon="13.799213018688812"><ele>626.0</ele><time>2026-05-01T14:47:17Z</time></trkpt><trkpt lat="41.989930192237324" lon="13.799197134825715"><ele>626.0</ele><time>2026-05-01T14:47:18Z</time></trkpt><trkpt lat="41.989995132956494" lon="13.799155232460722"><ele>628.0</ele><time>2026-05-01T14:47:19Z</time></trkpt><trkpt lat="41.99005410535784" lon="13.799099423402605"><ele>630.0</ele><time>2026-05-01T14:47:20Z</time></trkpt><trkpt lat="41.99010351239385" lon="13.79902601988118"><ele>632.0</ele><time>2026-05-01T14:47:21Z</time></trkpt><trkpt lat="41.99015339131063" lon="13.798954926436469"><ele>634.0</ele><time>2026-05-01T14:47:22Z</time></trkpt><trkpt lat="41.990217816398285" lon="13.79890497128089"><ele>636.0</ele><time>2026-05-01T14:47:23Z</time></trkpt><trkpt lat="41.99028208258087" lon="13.798875357633655"><ele>638.0</ele><time>2026-05-01T14:47:24Z</time></trkpt><trkpt lat="41.990374297717395" lon="13.798785527056308"><ele>638.0</ele><time>2026-05-01T14:47:26Z</time></trkpt><trkpt lat="41.99043452891676" lon="13.798654806713719"><ele>638.0</ele><time>2026-05-01T14:47:28Z</time></trkpt><trkpt lat="41.99050018290491" lon="13.798539613313732"><ele>638.0</ele><time>2026-05-01T14:47:30Z</time></trkpt><trkpt lat="41.99054434974379" lon="13.798461823733918"><ele>638.0</ele><time>2026-05-01T14:47:32Z</time></trkpt><trkpt lat="41.99060392725981" lon="13.798373081903694"><ele>638.0</ele><time>2026-05-01T14:47:35Z</time></trkpt><trkpt lat="41.99070066513056" lon="13.798383056585823"><ele>641.3333333333333</ele><time>2026-05-01T14:47:38Z</time></trkpt><trkpt lat="41.99076903473373" lon="13.798423788223134"><ele>644.6666666666666</ele><time>2026-05-01T14:47:40Z</time></trkpt><trkpt lat="41.990854036980075" lon="13.798481397931202"><ele>648.0</ele><time>2026-05-01T14:47:42Z</time></trkpt><trkpt lat="41.99091887570907" lon="13.798563512776749"><ele>651.3333333333334</ele><time>2026-05-01T14:47:44Z</time></trkpt><trkpt lat="41.99097577945162" lon="13.79865690578078"><ele>654.6666666666667</ele><time>2026-05-01T14:47:46Z</time></trkpt><trkpt lat="41.991004599495525" lon="13.79873223887101"><ele>658.0</ele><time>2026-05-01T14:47:47Z</time></trkpt><trkpt lat="41.991077894770356" lon="13.798864540437433"><ele>658.0</ele><time>2026-05-01T14:47:49Z</time></trkpt><trkpt lat="41.99115651222265" lon="13.79899308015699"><ele>658.0</ele><time>2026-05-01T14:47:51Z</time></trkpt><trkpt lat="41.99120288827818" lon="13.799057428910764"><ele>658.0</ele><time>2026-05-01T14:47:52.073Z</time></trkpt><trkpt lat="41.99127945471465" lon="13.799192998213584"><ele>658.0</ele><time>2026-05-01T14:47:54.038Z</time></trkpt><trkpt lat="41.99143047196402" lon="13.799360882337053"><ele>644.25</ele><time>2026-05-01T14:47:57.999Z</time></trkpt><trkpt lat="41.99163881546497" lon="13.799578250479351"><ele>630.5</ele><time>2026-05-01T14:47:59.999Z</time></trkpt><trkpt lat="41.99169490950033" lon="13.799641388544382"><ele>616.75</ele><time>2026-05-01T14:48:00.999Z</time></trkpt><trkpt lat="41.99171108618907" lon="13.799723483691503"><ele>603.0</ele><time>2026-05-01T14:48:01.999Z</time></trkpt><trkpt lat="41.99175887367241" lon="13.799838123562758"><ele>603.0</ele><time>2026-05-01T14:48:03.999Z</time></trkpt><trkpt lat="41.99181096686478" lon="13.79992323651745"><ele>603.0</ele><time>2026-05-01T14:48:05.999Z</time></trkpt><trkpt lat="41.99190162823643" lon="13.79996685382207"><ele>603.0</ele><time>2026-05-01T14:48:07.999Z</time></trkpt><trkpt lat="41.99198722862057" lon="13.79996343917113"><ele>603.0</ele><time>2026-05-01T14:48:09.999Z</time></trkpt><trkpt lat="41.99207407577327" lon="13.79988693864862"><ele>603.0</ele><time>2026-05-01T14:48:11.999Z</time></trkpt><trkpt lat="41.99215106421262" lon="13.799774158721004"><ele>603.0</ele><time>2026-05-01T14:48:13.999Z</time></trkpt><trkpt lat="41.99224705487897" lon="13.799673195967543"><ele>603.0</ele><time>2026-05-01T14:48:15.999Z</time></trkpt><trkpt lat="41.99231339956592" lon="13.799647408306653"><ele>603.0</ele><time>2026-05-01T14:48:16.999Z</time></trkpt><trkpt lat="41.99238169738652" lon="13.799618622670577"><ele>603.0</ele><time>2026-05-01T14:48:17.999Z</time></trkpt><trkpt lat="41.992435844009805" lon="13.799571062058718"><ele>603.0</ele><time>2026-05-01T14:48:18.999Z</time></trkpt><trkpt lat="41.992515196406636" lon="13.79945553063099"><ele>603.0</ele><time>2026-05-01T14:48:20.999Z</time></trkpt><trkpt lat="41.99262377407445" lon="13.799404479721218"><ele>608.1666666666666</ele><time>2026-05-01T14:48:22.999Z</time></trkpt><trkpt lat="41.992725238981805" lon="13.79932170679791"><ele>613.3333333333334</ele><time>2026-05-01T14:48:24.999Z</time></trkpt><trkpt lat="41.99278741514423" lon="13.799288499711361"><ele>618.5</ele><time>2026-05-01T14:48:25.999Z</time></trkpt><trkpt lat="41.99282469482724" lon="13.799218707267523"><ele>623.6666666666667</ele><time>2026-05-01T14:48:26.999Z</time></trkpt><trkpt lat="41.99286952661989" lon="13.799146895882144"><ele>628.8333333333334</ele><time>2026-05-01T14:48:27.999Z</time></trkpt><trkpt lat="41.992938409957056" lon="13.799089991469234"><ele>634.0</ele><time>2026-05-01T14:48:28.999Z</time></trkpt><trkpt lat="41.993028135690814" lon="13.79905908868394"><ele>634.0</ele><time>2026-05-01T14:48:29.999Z</time></trkpt><trkpt lat="41.99312667050064" lon="13.79905866686797"><ele>634.0</ele><time>2026-05-01T14:48:30.999Z</time></trkpt><trkpt lat="41.99322527879933" lon="13.799067623993633"><ele>634.0</ele><time>2026-05-01T14:48:31.999Z</time></trkpt><trkpt lat="41.99332913775534" lon="13.799081072616449"><ele>634.0</ele><time>2026-05-01T14:48:32.999Z</time></trkpt><trkpt lat="41.9934257786136" lon="13.799119039469717"><ele>634.0</ele><time>2026-05-01T14:48:33.999Z</time></trkpt><trkpt lat="41.99351412307081" lon="13.79915988148457"><ele>637.25</ele><time>2026-05-01T14:48:34.999Z</time></trkpt><trkpt lat="41.993589924031774" lon="13.79921093106502"><ele>640.5</ele><time>2026-05-01T14:48:35.999Z</time></trkpt><trkpt lat="41.993667034909315" lon="13.799272827605334"><ele>643.75</ele><time>2026-05-01T14:48:37.067Z</time></trkpt><trkpt lat="41.993861494322466" lon="13.799143569989592"><ele>647.0</ele><time>2026-05-01T14:48:38.999Z</time></trkpt><trkpt lat="41.993941516460666" lon="13.79919603200893"><ele>647.0</ele><time>2026-05-01T14:48:39.999Z</time></trkpt><trkpt lat="41.99402788781797" lon="13.799322183316997"><ele>647.0</ele><time>2026-05-01T14:48:40.999Z</time></trkpt><trkpt lat="41.99397010764486" lon="13.799676009256256"><ele>647.0</ele><time>2026-05-01T14:48:41.999Z</time></trkpt><trkpt lat="41.99408202493896" lon="13.799873429976202"><ele>645.0</ele><time>2026-05-01T14:48:42.999Z</time></trkpt><trkpt lat="41.99416877367193" lon="13.800016839048006"><ele>643.0</ele><time>2026-05-01T14:48:43.999Z</time></trkpt><trkpt lat="41.994270646530644" lon="13.800185250698698"><ele>641.0</ele><time>2026-05-01T14:48:44.999Z</time></trkpt><trkpt lat="41.994338665702074" lon="13.800297992470433"><ele>639.0</ele><time>2026-05-01T14:48:45.999Z</time></trkpt><trkpt lat="41.994413240148646" lon="13.800430054292805"><ele>639.0</ele><time>2026-05-01T14:48:46.999Z</time></trkpt><trkpt lat="41.99448670363741" lon="13.800565638810067"><ele>639.0</ele><time>2026-05-01T14:48:47.999Z</time></trkpt><trkpt lat="41.99456262320836" lon="13.800697515340552"><ele>639.0</ele><time>2026-05-01T14:48:48.999Z</time></trkpt><trkpt lat="41.99464136283021" lon="13.800816117251454"><ele>639.0</ele><time>2026-05-01T14:48:49.999Z</time></trkpt><trkpt lat="41.99471876042113" lon="13.800930762403242"><ele>632.5</ele><time>2026-05-01T14:48:50.999Z</time></trkpt><trkpt lat="41.994804019023086" lon="13.801043162844953"><ele>626.0</ele><time>2026-05-01T14:48:51.999Z</time></trkpt><trkpt lat="41.99578777976705" lon="13.801946836214352"><ele>624.25</ele><time>2026-05-01T14:49:01.785Z</time></trkpt><trkpt lat="41.99590832908525" lon="13.802001745256355"><ele>622.5</ele><time>2026-05-01T14:49:02.782Z</time></trkpt><trkpt lat="41.996020083585336" lon="13.802073836383551"><ele>620.75</ele><time>2026-05-01T14:49:03.782Z</time></trkpt><trkpt lat="41.99614668295203" lon="13.802108891811956"><ele>619.0</ele><time>2026-05-01T14:49:04.78Z</time></trkpt><trkpt lat="41.99626843079936" lon="13.802152841136593"><ele>619.0</ele><time>2026-05-01T14:49:05.785Z</time></trkpt><trkpt lat="41.996393588232124" lon="13.802174344385625"><ele>619.0</ele><time>2026-05-01T14:49:06.785Z</time></trkpt><trkpt lat="41.996508939578106" lon="13.802240104548414"><ele>619.0</ele><time>2026-05-01T14:49:07.782Z</time></trkpt><trkpt lat="41.99663241765499" lon="13.80227040693215"><ele>619.0</ele><time>2026-05-01T14:49:08.78Z</time></trkpt><trkpt lat="41.996759868244055" lon="13.80227234709963"><ele>619.25</ele><time>2026-05-01T14:49:09.784Z</time></trkpt><trkpt lat="41.996883039792294" lon="13.802297415182952"><ele>619.5</ele><time>2026-05-01T14:49:10.784Z</time></trkpt><trkpt lat="41.99700278170891" lon="13.802347618980667"><ele>619.75</ele><time>2026-05-01T14:49:11.784Z</time></trkpt><trkpt lat="41.99712471121633" lon="13.802377833597724"><ele>620.0</ele><time>2026-05-01T14:49:12.78Z</time></trkpt><trkpt lat="41.997246361733815" lon="13.802411604027823"><ele>620.0</ele><time>2026-05-01T14:49:13.78Z</time></trkpt><trkpt lat="41.997371884637715" lon="13.80242621596951"><ele>620.0</ele><time>2026-05-01T14:49:14.784Z</time></trkpt><trkpt lat="41.997492844121815" lon="13.802466188426717"><ele>620.0</ele><time>2026-05-01T14:49:15.784Z</time></trkpt><trkpt lat="41.99761261661671" lon="13.802512135511732"><ele>620.0</ele><time>2026-05-01T14:49:16.784Z</time></trkpt><trkpt lat="41.99773161917786" lon="13.802561493702845"><ele>621.0</ele><time>2026-05-01T14:49:17.784Z</time></trkpt><trkpt lat="41.99784969935309" lon="13.802613452488085"><ele>622.0</ele><time>2026-05-01T14:49:18.782Z</time></trkpt><trkpt lat="41.99796707674394" lon="13.802669241708834"><ele>623.0</ele><time>2026-05-01T14:49:19.782Z</time></trkpt><trkpt lat="41.99807862526507" lon="13.802746942312616"><ele>624.0</ele><time>2026-05-01T14:49:20.783Z</time></trkpt><trkpt lat="41.99820086827668" lon="13.802784046196411"><ele>620.0</ele><time>2026-05-01T14:49:21.78Z</time></trkpt><trkpt lat="41.998318130336344" lon="13.802842486600507"><ele>616.0</ele><time>2026-05-01T14:49:22.784Z</time></trkpt><trkpt lat="41.99843490403129" lon="13.80290068361615"><ele>612.0</ele><time>2026-05-01T14:49:23.784Z</time></trkpt><trkpt lat="41.99855229398847" lon="13.802956556619499"><ele>608.0</ele><time>2026-05-01T14:49:24.784Z</time></trkpt><trkpt lat="41.99845147071231" lon="13.803294154952866"><ele>602.0</ele><time>2026-05-01T14:49:28.998Z</time></trkpt><trkpt lat="41.99892491933034" lon="13.803190999206304"><ele>602.0</ele><time>2026-05-01T14:49:31.998Z</time></trkpt><trkpt lat="41.99909454303377" lon="13.803235288869535"><ele>602.0</ele><time>2026-05-01T14:49:33.998Z</time></trkpt><trkpt lat="41.99916397897199" lon="13.80324532134935"><ele>602.0</ele><time>2026-05-01T14:49:34.999Z</time></trkpt><trkpt lat="41.999280631551706" lon="13.803257125997348"><ele>602.0</ele><time>2026-05-01T14:49:35.999Z</time></trkpt><trkpt lat="41.99934440866133" lon="13.803234869252085"><ele>602.0</ele><time>2026-05-01T14:49:36.999Z</time></trkpt><trkpt lat="41.99940989758079" lon="13.803187462517995"><ele>602.2</ele><time>2026-05-01T14:49:37.999Z</time></trkpt><trkpt lat="41.9995048961086" lon="13.803114652116648"><ele>602.4000000000001</ele><time>2026-05-01T14:49:38.999Z</time></trkpt><trkpt lat="41.9995788476493" lon="13.803072801317994"><ele>602.5999999999999</ele><time>2026-05-01T14:49:39.999Z</time></trkpt><trkpt lat="41.999673241816865" lon="13.803018935733606"><ele>602.8</ele><time>2026-05-01T14:49:40.999Z</time></trkpt><trkpt lat="41.999758194126215" lon="13.80296838810888"><ele>603.0</ele><time>2026-05-01T14:49:41.999Z</time></trkpt><trkpt lat="41.999826718845746" lon="13.802940872463994"><ele>603.0</ele><time>2026-05-01T14:49:42.999Z</time></trkpt><trkpt lat="41.999900623662704" lon="13.802898096077064"><ele>603.0</ele><time>2026-05-01T14:49:43.999Z</time></trkpt><trkpt lat="41.99996576480871" lon="13.802857319270716"><ele>603.0</ele><time>2026-05-01T14:49:44.999Z</time></trkpt><trkpt lat="42.000027491861964" lon="13.802819934918906"><ele>603.0</ele><time>2026-05-01T14:49:45.999Z</time></trkpt><trkpt lat="42.00009243175481" lon="13.802785543271627"><ele>603.0</ele><time>2026-05-01T14:49:47Z</time></trkpt><trkpt lat="42.00014868150728" lon="13.802854006951856"><ele>603.0</ele><time>2026-05-01T14:49:48Z</time></trkpt><trkpt lat="42.00025551262032" lon="13.802883221742361"><ele>603.0</ele><time>2026-05-01T14:49:49Z</time></trkpt><trkpt lat="42.000324286427656" lon="13.80294953297678"><ele>603.0</ele><time>2026-05-01T14:49:50Z</time></trkpt><trkpt lat="42.00041105957661" lon="13.802993343865596"><ele>603.0</ele><time>2026-05-01T14:49:51Z</time></trkpt><trkpt lat="42.000505895744396" lon="13.803047600787409"><ele>603.0</ele><time>2026-05-01T14:49:52Z</time></trkpt><trkpt lat="42.00059272104233" lon="13.80311118381268"><ele>603.0</ele><time>2026-05-01T14:49:53Z</time></trkpt><trkpt lat="42.00068076908853" lon="13.803152753480795"><ele>603.0</ele><time>2026-05-01T14:49:54Z</time></trkpt><trkpt lat="42.0007664532783" lon="13.803195835803143"><ele>603.0</ele><time>2026-05-01T14:49:55Z</time></trkpt><trkpt lat="42.0008588144094" lon="13.803249407712897"><ele>603.0</ele><time>2026-05-01T14:49:56Z</time></trkpt><trkpt lat="42.000951201480554" lon="13.803296783948158"><ele>603.0</ele><time>2026-05-01T14:49:57Z</time></trkpt><trkpt lat="42.00104171679673" lon="13.80336871705566"><ele>603.0</ele><time>2026-05-01T14:49:58Z</time></trkpt><trkpt lat="42.00114131105821" lon="13.803415429606241"><ele>605.25</ele><time>2026-05-01T14:49:59Z</time></trkpt><trkpt lat="42.0012574268428" lon="13.803426255819161"><ele>607.5</ele><time>2026-05-01T14:50:00Z</time></trkpt><trkpt lat="42.0013706272005" lon="13.803390158180465"><ele>609.75</ele><time>2026-05-01T14:50:01Z</time></trkpt><trkpt lat="42.00147916057492" lon="13.803358946023373"><ele>612.0</ele><time>2026-05-01T14:50:02Z</time></trkpt><trkpt lat="42.00159456898717" lon="13.803331372501875"><ele>612.6</ele><time>2026-05-01T14:50:03Z</time></trkpt><trkpt lat="42.0017041431869" lon="13.803304704145486"><ele>613.2</ele><time>2026-05-01T14:50:04Z</time></trkpt><trkpt lat="42.001813270510546" lon="13.803263397007333"><ele>613.8</ele><time>2026-05-01T14:50:05Z</time></trkpt><trkpt lat="42.00190871787388" lon="13.803197747502566"><ele>614.4</ele><time>2026-05-01T14:50:06Z</time></trkpt><trkpt lat="42.0019779530975" lon="13.803087472491866"><ele>615.0</ele><time>2026-05-01T14:50:07Z</time></trkpt><trkpt lat="42.00204887023479" lon="13.80297835586051"><ele>615.0</ele><time>2026-05-01T14:50:08Z</time></trkpt><trkpt lat="42.002123077217206" lon="13.802853393958356"><ele>615.0</ele><time>2026-05-01T14:50:09Z</time></trkpt><trkpt lat="42.00218289728233" lon="13.802739493895402"><ele>615.0</ele><time>2026-05-01T14:50:10Z</time></trkpt><trkpt lat="42.00223714526336" lon="13.802603111227615"><ele>615.0</ele><time>2026-05-01T14:50:11Z</time></trkpt><trkpt lat="42.002271140821755" lon="13.802463874711965"><ele>615.0</ele><time>2026-05-01T14:50:12Z</time></trkpt><trkpt lat="42.0022914235807" lon="13.802319767366766"><ele>617.5</ele><time>2026-05-01T14:50:13Z</time></trkpt><trkpt lat="42.00231822346307" lon="13.80216721395364"><ele>620.0</ele><time>2026-05-01T14:50:14Z</time></trkpt><trkpt lat="42.002352860496416" lon="13.802025287729016"><ele>622.5</ele><time>2026-05-01T14:50:15Z</time></trkpt><trkpt lat="42.00242255864968" lon="13.801886808346378"><ele>625.0</ele><time>2026-05-01T14:50:16Z</time></trkpt><trkpt lat="42.0025185559053" lon="13.801773607470732"><ele>626.0</ele><time>2026-05-01T14:50:17Z</time></trkpt><trkpt lat="42.00259472861564" lon="13.801648552444655"><ele>627.0</ele><time>2026-05-01T14:50:18Z</time></trkpt><trkpt lat="42.00272590434096" lon="13.801597834914757"><ele>628.0</ele><time>2026-05-01T14:50:19Z</time></trkpt><trkpt lat="42.00282451367247" lon="13.801500299907463"><ele>629.0</ele><time>2026-05-01T14:50:19.999Z</time></trkpt><trkpt lat="42.00292747130928" lon="13.80141759990809"><ele>629.0</ele><time>2026-05-01T14:50:20.999Z</time></trkpt><trkpt lat="42.00303129097058" lon="13.801326241931529"><ele>629.0</ele><time>2026-05-01T14:50:21.999Z</time></trkpt><trkpt lat="42.003128529961394" lon="13.801228502234277"><ele>629.0</ele><time>2026-05-01T14:50:22.999Z</time></trkpt><trkpt lat="42.00322978241992" lon="13.80112746183507"><ele>629.0</ele><time>2026-05-01T14:50:23.999Z</time></trkpt><trkpt lat="42.00333907754099" lon="13.801043079308169"><ele>630.25</ele><time>2026-05-01T14:50:24.999Z</time></trkpt><trkpt lat="42.00344406373278" lon="13.800949581911594"><ele>631.5</ele><time>2026-05-01T14:50:25.999Z</time></trkpt><trkpt lat="42.0035477599218" lon="13.800850695801918"><ele>632.75</ele><time>2026-05-01T14:50:26.999Z</time></trkpt><trkpt lat="42.00364449465216" lon="13.800747553806751"><ele>634.0</ele><time>2026-05-01T14:50:27.999Z</time></trkpt><trkpt lat="42.00373969817854" lon="13.800643853243782"><ele>634.0</ele><time>2026-05-01T14:50:28.999Z</time></trkpt><trkpt lat="42.00383253026866" lon="13.800546709687588"><ele>634.0</ele><time>2026-05-01T14:50:29.999Z</time></trkpt><trkpt lat="42.003925661802334" lon="13.800457109252152"><ele>634.0</ele><time>2026-05-01T14:50:30.999Z</time></trkpt><trkpt lat="42.00401728366113" lon="13.800364024064997"><ele>634.0</ele><time>2026-05-01T14:50:31.999Z</time></trkpt><trkpt lat="42.00410708577945" lon="13.800260229606812"><ele>635.5</ele><time>2026-05-01T14:50:32.999Z</time></trkpt><trkpt lat="42.00419766914738" lon="13.800155025556103"><ele>637.0</ele><time>2026-05-01T14:50:33.999Z</time></trkpt><trkpt lat="42.00428978128105" lon="13.80005128486039"><ele>638.5</ele><time>2026-05-01T14:50:34.999Z</time></trkpt><trkpt lat="42.00438050448009" lon="13.799952172740616"><ele>640.0</ele><time>2026-05-01T14:50:35.999Z</time></trkpt><trkpt lat="42.00447462019738" lon="13.799854905362372"><ele>640.0</ele><time>2026-05-01T14:50:36.999Z</time></trkpt><trkpt lat="42.00456851288439" lon="13.799765065427433"><ele>640.0</ele><time>2026-05-01T14:50:37.999Z</time></trkpt><trkpt lat="42.004661670012545" lon="13.799670221629446"><ele>640.0</ele><time>2026-05-01T14:50:38.999Z</time></trkpt><trkpt lat="42.00475551018424" lon="13.799578926002917"><ele>640.0</ele><time>2026-05-01T14:50:39.999Z</time></trkpt><trkpt lat="42.004850659795935" lon="13.799493906866534"><ele>640.0</ele><time>2026-05-01T14:50:40.999Z</time></trkpt><trkpt lat="42.00495206339094" lon="13.799417507458424"><ele>640.0</ele><time>2026-05-01T14:50:41.999Z</time></trkpt><trkpt lat="42.005059674244094" lon="13.799354928407647"><ele>640.0</ele><time>2026-05-01T14:50:42.999Z</time></trkpt><trkpt lat="42.00516789567749" lon="13.799296294566824"><ele>640.0</ele><time>2026-05-01T14:50:43.999Z</time></trkpt><trkpt lat="42.005270331473554" lon="13.799227490299304"><ele>642.0</ele><time>2026-05-01T14:50:44.999Z</time></trkpt><trkpt lat="42.005367163931616" lon="13.799142189549233"><ele>644.0</ele><time>2026-05-01T14:50:45.999Z</time></trkpt><trkpt lat="42.00545565204948" lon="13.799047922670223"><ele>646.0</ele><time>2026-05-01T14:50:46.999Z</time></trkpt><trkpt lat="42.00553976496192" lon="13.798955308142496"><ele>648.0</ele><time>2026-05-01T14:50:47.999Z</time></trkpt><trkpt lat="42.00560464924189" lon="13.798831093213034"><ele>648.0</ele><time>2026-05-01T14:50:48.999Z</time></trkpt><trkpt lat="42.00568757118536" lon="13.798708445874583"><ele>648.0</ele><time>2026-05-01T14:50:49.999Z</time></trkpt><trkpt lat="42.00576763269688" lon="13.798592227575838"><ele>648.0</ele><time>2026-05-01T14:50:50.999Z</time></trkpt><trkpt lat="42.00585138734784" lon="13.798478236265"><ele>648.0</ele><time>2026-05-01T14:50:51.999Z</time></trkpt><trkpt lat="42.00593242946963" lon="13.79837727282774"><ele>648.4</ele><time>2026-05-01T14:50:52.999Z</time></trkpt><trkpt lat="42.00599373621335" lon="13.79826265906516"><ele>648.8</ele><time>2026-05-01T14:50:53.999Z</time></trkpt><trkpt lat="42.00605612150665" lon="13.798160262201254"><ele>649.2</ele><time>2026-05-01T14:50:54.999Z</time></trkpt><trkpt lat="42.006126106677485" lon="13.798055056059404"><ele>649.6</ele><time>2026-05-01T14:50:55.999Z</time></trkpt><trkpt lat="42.00616001505478" lon="13.797926742431292"><ele>650.0</ele><time>2026-05-01T14:50:56.999Z</time></trkpt><trkpt lat="42.00618535666361" lon="13.797788842218035"><ele>652.0</ele><time>2026-05-01T14:50:57.999Z</time></trkpt><trkpt lat="42.00620058528075" lon="13.79765235475506"><ele>654.0</ele><time>2026-05-01T14:50:58.999Z</time></trkpt><trkpt lat="42.00622695058171" lon="13.797523616556289"><ele>656.0</ele><time>2026-05-01T14:50:59.999Z</time></trkpt><trkpt lat="42.00627708788435" lon="13.797407576805254"><ele>658.0</ele><time>2026-05-01T14:51:00.999Z</time></trkpt><trkpt lat="42.006346132719884" lon="13.79731986215407"><ele>660.0</ele><time>2026-05-01T14:51:01.999Z</time></trkpt><trkpt lat="42.00641588866409" lon="13.797252148450355"><ele>660.0000000000001</ele><time>2026-05-01T14:51:02.999Z</time></trkpt><trkpt lat="42.006478318384936" lon="13.797190843105302"><ele>660.0</ele><time>2026-05-01T14:51:03.999Z</time></trkpt><trkpt lat="42.0065319155066" lon="13.797131537620775"><ele>660.0</ele><time>2026-05-01T14:51:04.999Z</time></trkpt><trkpt lat="42.00658401956485" lon="13.797076200413615"><ele>660.0</ele><time>2026-05-01T14:51:05.999Z</time></trkpt><trkpt lat="42.00663970797705" lon="13.797021784278604"><ele>660.0</ele><time>2026-05-01T14:51:06.999Z</time></trkpt><trkpt lat="42.0067018101981" lon="13.796965263104335"><ele>660.0000000000001</ele><time>2026-05-01T14:51:07.999Z</time></trkpt><trkpt lat="42.00676575385782" lon="13.796899712348564"><ele>660.0</ele><time>2026-05-01T14:51:08.999Z</time></trkpt><trkpt lat="42.00683698241211" lon="13.796827550015387"><ele>660.4</ele><time>2026-05-01T14:51:09.999Z</time></trkpt><trkpt lat="42.00690750874081" lon="13.796752853292867"><ele>660.8</ele><time>2026-05-01T14:51:10.999Z</time></trkpt><trkpt lat="42.00698198106126" lon="13.796674065944078"><ele>661.2</ele><time>2026-05-01T14:51:11.999Z</time></trkpt><trkpt lat="42.007055432803774" lon="13.796589204996867"><ele>661.6</ele><time>2026-05-01T14:51:12.999Z</time></trkpt><trkpt lat="42.00712839060807" lon="13.796508860098859"><ele>662.0</ele><time>2026-05-01T14:51:13.999Z</time></trkpt><trkpt lat="42.00720656501179" lon="13.796432282542359"><ele>662.0</ele><time>2026-05-01T14:51:14.999Z</time></trkpt><trkpt lat="42.007284945123025" lon="13.796358161717524"><ele>662.0</ele><time>2026-05-01T14:51:15.999Z</time></trkpt><trkpt lat="42.00736373724593" lon="13.796268963106929"><ele>662.0</ele><time>2026-05-01T14:51:16.999Z</time></trkpt><trkpt lat="42.00744367402594" lon="13.796172391200608"><ele>662.0</ele><time>2026-05-01T14:51:17.999Z</time></trkpt><trkpt lat="42.007525595905285" lon="13.796076069801902"><ele>662.0</ele><time>2026-05-01T14:51:18.999Z</time></trkpt><trkpt lat="42.0076163879271" lon="13.795991738849201"><ele>664.0</ele><time>2026-05-01T14:51:19.999Z</time></trkpt><trkpt lat="42.00770954265211" lon="13.79590800641012"><ele>666.0</ele><time>2026-05-01T14:51:20.999Z</time></trkpt><trkpt lat="42.00778871759938" lon="13.79581874822248"><ele>668.0</ele><time>2026-05-01T14:51:21.999Z</time></trkpt><trkpt lat="42.007888285716675" lon="13.795711726918464"><ele>670.0</ele><time>2026-05-01T14:51:22.999Z</time></trkpt><trkpt lat="42.00798256732031" lon="13.795614146844201"><ele>670.0</ele><time>2026-05-01T14:51:23.999Z</time></trkpt><trkpt lat="42.00807453925535" lon="13.7955131090599"><ele>670.0</ele><time>2026-05-01T14:51:24.999Z</time></trkpt><trkpt lat="42.00817093597472" lon="13.79541343640875"><ele>670.0</ele><time>2026-05-01T14:51:25.999Z</time></trkpt><trkpt lat="42.00826868871196" lon="13.79531388173994"><ele>670.0</ele><time>2026-05-01T14:51:26.999Z</time></trkpt><trkpt lat="42.00836205948975" lon="13.795209898761813"><ele>671.75</ele><time>2026-05-01T14:51:27.999Z</time></trkpt><trkpt lat="42.00844382050703" lon="13.795090056861765"><ele>673.5</ele><time>2026-05-01T14:51:28.999Z</time></trkpt><trkpt lat="42.00852864378093" lon="13.79496730960011"><ele>675.25</ele><time>2026-05-01T14:51:29.999Z</time></trkpt><trkpt lat="42.00860475583262" lon="13.794834214615598"><ele>677.0</ele><time>2026-05-01T14:51:30.999Z</time></trkpt><trkpt lat="42.00866604253207" lon="13.794690526036707"><ele>677.0</ele><time>2026-05-01T14:51:31.999Z</time></trkpt><trkpt lat="42.00872632849177" lon="13.794536855197913"><ele>677.0</ele><time>2026-05-01T14:51:32.998Z</time></trkpt><trkpt lat="42.00878451738165" lon="13.794388204046255"><ele>677.0</ele><time>2026-05-01T14:51:33.998Z</time></trkpt><trkpt lat="42.00884558291979" lon="13.794243658677729"><ele>677.0</ele><time>2026-05-01T14:51:34.998Z</time></trkpt><trkpt lat="42.008917434936485" lon="13.794104098131392"><ele>676.5</ele><time>2026-05-01T14:51:35.998Z</time></trkpt><trkpt lat="42.00900373216335" lon="13.793975285825676"><ele>676.0</ele><time>2026-05-01T14:51:36.998Z</time></trkpt><trkpt lat="42.00909780316053" lon="13.793858666949358"><ele>675.5</ele><time>2026-05-01T14:51:37.998Z</time></trkpt><trkpt lat="42.009185494598704" lon="13.793736464684207"><ele>675.0</ele><time>2026-05-01T14:51:38.998Z</time></trkpt><trkpt lat="42.00926302491239" lon="13.793604336750551"><ele>678.5</ele><time>2026-05-01T14:51:40Z</time></trkpt><trkpt lat="42.009334345045524" lon="13.793462151626963"><ele>682.0</ele><time>2026-05-01T14:51:41Z</time></trkpt><trkpt lat="42.00939646768242" lon="13.793314876576032"><ele>685.5</ele><time>2026-05-01T14:51:42Z</time></trkpt><trkpt lat="42.009448561267845" lon="13.793172754488483"><ele>689.0</ele><time>2026-05-01T14:51:43Z</time></trkpt><trkpt lat="42.009503825876735" lon="13.7930373864524"><ele>689.0</ele><time>2026-05-01T14:51:44Z</time></trkpt><trkpt lat="42.0095644118073" lon="13.79290980849446"><ele>689.0</ele><time>2026-05-01T14:51:45Z</time></trkpt><trkpt lat="42.00963689737012" lon="13.792794461209182"><ele>689.0</ele><time>2026-05-01T14:51:46Z</time></trkpt><trkpt lat="42.00972164411241" lon="13.792693834689778"><ele>689.0</ele><time>2026-05-01T14:51:47Z</time></trkpt><trkpt lat="42.009806761682974" lon="13.792591891423253"><ele>693.2</ele><time>2026-05-01T14:51:48Z</time></trkpt><trkpt lat="42.00986985561206" lon="13.79247027978238"><ele>697.4000000000001</ele><time>2026-05-01T14:51:49Z</time></trkpt><trkpt lat="42.00991284817539" lon="13.792340552166692"><ele>701.6</ele><time>2026-05-01T14:51:50Z</time></trkpt><trkpt lat="42.009944814701974" lon="13.792212502310663"><ele>705.8</ele><time>2026-05-01T14:51:51Z</time></trkpt><trkpt lat="42.00997058298416" lon="13.792084107122443"><ele>710.0</ele><time>2026-05-01T14:51:52Z</time></trkpt><trkpt lat="42.009988605391186" lon="13.791962100156267"><ele>709.0</ele><time>2026-05-01T14:51:53Z</time></trkpt><trkpt lat="42.01001827668214" lon="13.79183995016189"><ele>708.0</ele><time>2026-05-01T14:51:54Z</time></trkpt><trkpt lat="42.010061632743" lon="13.791720457171996"><ele>707.0</ele><time>2026-05-01T14:51:55Z</time></trkpt><trkpt lat="42.01011249347287" lon="13.79160837768036"><ele>706.0</ele><time>2026-05-01T14:51:56Z</time></trkpt><trkpt lat="42.01016956897675" lon="13.791507177791614"><ele>705.0</ele><time>2026-05-01T14:51:57Z</time></trkpt><trkpt lat="42.01022689157216" lon="13.791413151201803"><ele>704.9999999999999</ele><time>2026-05-01T14:51:58Z</time></trkpt><trkpt lat="42.01027545377044" lon="13.791328892797845"><ele>705.0</ele><time>2026-05-01T14:51:59Z</time></trkpt><trkpt lat="42.01031562523912" lon="13.79125402517837"><ele>705.0</ele><time>2026-05-01T14:52:00Z</time></trkpt><trkpt lat="42.01036088437752" lon="13.791181447951553"><ele>705.0</ele><time>2026-05-01T14:52:01Z</time></trkpt><trkpt lat="42.010404733084464" lon="13.791104932473383"><ele>705.0</ele><time>2026-05-01T14:52:02Z</time></trkpt><trkpt lat="42.010442718657586" lon="13.791028278222864"><ele>704.9999999999999</ele><time>2026-05-01T14:52:03Z</time></trkpt><trkpt lat="42.010482194588555" lon="13.790957908753844"><ele>705.0</ele><time>2026-05-01T14:52:04Z</time></trkpt><trkpt lat="42.01052554294513" lon="13.790880497994134"><ele>704.5</ele><time>2026-05-01T14:52:05Z</time></trkpt><trkpt lat="42.010573506633406" lon="13.79080217171567"><ele>704.0</ele><time>2026-05-01T14:52:06Z</time></trkpt><trkpt lat="42.01063279375378" lon="13.790728967129985"><ele>703.5</ele><time>2026-05-01T14:52:07Z</time></trkpt><trkpt lat="42.01069396663321" lon="13.790660713710732"><ele>703.0</ele><time>2026-05-01T14:52:08Z</time></trkpt><trkpt lat="42.01076450082478" lon="13.790596698154264"><ele>702.5</ele><time>2026-05-01T14:52:09Z</time></trkpt><trkpt lat="42.01084185832897" lon="13.790541653965368"><ele>702.0</ele><time>2026-05-01T14:52:10Z</time></trkpt><trkpt lat="42.01091919837617" lon="13.790479132483803"><ele>702.0</ele><time>2026-05-01T14:52:11Z</time></trkpt><trkpt lat="42.01099203677981" lon="13.790401282075235"><ele>702.0</ele><time>2026-05-01T14:52:12Z</time></trkpt><trkpt lat="42.011065042724915" lon="13.79032460615154"><ele>702.0</ele><time>2026-05-01T14:52:13Z</time></trkpt><trkpt lat="42.01114778856287" lon="13.79026086273048"><ele>702.0</ele><time>2026-05-01T14:52:14Z</time></trkpt><trkpt lat="42.01123605719116" lon="13.790198805360214"><ele>702.0</ele><time>2026-05-01T14:52:15Z</time></trkpt><trkpt lat="42.01132487600387" lon="13.790139454015996"><ele>704.0</ele><time>2026-05-01T14:52:16Z</time></trkpt><trkpt lat="42.011415167124966" lon="13.790089441808048"><ele>706.0</ele><time>2026-05-01T14:52:17Z</time></trkpt><trkpt lat="42.0115114621365" lon="13.790048136078083"><ele>708.0</ele><time>2026-05-01T14:52:18Z</time></trkpt><trkpt lat="42.01160737008427" lon="13.79002531567477"><ele>710.0</ele><time>2026-05-01T14:52:19Z</time></trkpt><trkpt lat="42.0117093897943" lon="13.790002166617713"><ele>712.0</ele><time>2026-05-01T14:52:20Z</time></trkpt><trkpt lat="42.011814895271435" lon="13.789981170350543"><ele>712.0</ele><time>2026-05-01T14:52:21Z</time></trkpt><trkpt lat="42.011919743034156" lon="13.78995856855308"><ele>712.0</ele><time>2026-05-01T14:52:22Z</time></trkpt><trkpt lat="42.01202597194421" lon="13.789927343879622"><ele>712.0</ele><time>2026-05-01T14:52:23Z</time></trkpt><trkpt lat="42.01213489923697" lon="13.78989464590522"><ele>712.0</ele><time>2026-05-01T14:52:24Z</time></trkpt><trkpt lat="42.01224618908348" lon="13.789852858171969"><ele>712.0</ele><time>2026-05-01T14:52:25Z</time></trkpt><trkpt lat="42.012358802813154" lon="13.789805906756527"><ele>712.0</ele><time>2026-05-01T14:52:26Z</time></trkpt><trkpt lat="42.01247147273669" lon="13.78976109417934"><ele>712.0</ele><time>2026-05-01T14:52:27Z</time></trkpt><trkpt lat="42.01258343999528" lon="13.789720821375182"><ele>712.0</ele><time>2026-05-01T14:52:28Z</time></trkpt><trkpt lat="42.01269502788784" lon="13.78968371443837"><ele>712.0</ele><time>2026-05-01T14:52:29Z</time></trkpt><trkpt lat="42.01280284010196" lon="13.789646967833303"><ele>712.4000000000001</ele><time>2026-05-01T14:52:30Z</time></trkpt><trkpt lat="42.0129042740845" lon="13.789601999839228"><ele>712.8000000000001</ele><time>2026-05-01T14:52:31Z</time></trkpt><trkpt lat="42.013000650926365" lon="13.789534350997396"><ele>713.2</ele><time>2026-05-01T14:52:32Z</time></trkpt><trkpt lat="42.01308422313655" lon="13.789448089108593"><ele>713.6</ele><time>2026-05-01T14:52:33Z</time></trkpt><trkpt lat="42.013159901188324" lon="13.789353313168517"><ele>714.0</ele><time>2026-05-01T14:52:34Z</time></trkpt><trkpt lat="42.013232719932745" lon="13.78926661070905"><ele>716.6666666666666</ele><time>2026-05-01T14:52:35Z</time></trkpt><trkpt lat="42.013308803803845" lon="13.789194613756731"><ele>719.3333333333334</ele><time>2026-05-01T14:52:36Z</time></trkpt><trkpt lat="42.013387133607466" lon="13.789147319731839"><ele>722.0</ele><time>2026-05-01T14:52:37Z</time></trkpt><trkpt lat="42.01346814415377" lon="13.789127842353073"><ele>724.6666666666667</ele><time>2026-05-01T14:52:38Z</time></trkpt><trkpt lat="42.01354634867929" lon="13.789147257992498"><ele>727.3333333333334</ele><time>2026-05-01T14:52:39Z</time></trkpt><trkpt lat="42.01362123012496" lon="13.789187602971552"><ele>730.0</ele><time>2026-05-01T14:52:40Z</time></trkpt><trkpt lat="42.01369323138577" lon="13.789235029807308"><ele>730.0</ele><time>2026-05-01T14:52:41Z</time></trkpt><trkpt lat="42.013747081603455" lon="13.78931721981826"><ele>730.0</ele><time>2026-05-01T14:52:42Z</time></trkpt><trkpt lat="42.0138187211382" lon="13.789370470571587"><ele>730.0</ele><time>2026-05-01T14:52:43Z</time></trkpt><trkpt lat="42.013877606289704" lon="13.78943357782975"><ele>730.0</ele><time>2026-05-01T14:52:44Z</time></trkpt><trkpt lat="42.01393619530959" lon="13.789497638184766"><ele>730.0</ele><time>2026-05-01T14:52:45Z</time></trkpt><trkpt lat="42.01399127293891" lon="13.789572611928355"><ele>730.0</ele><time>2026-05-01T14:52:46Z</time></trkpt><trkpt lat="42.01405349161811" lon="13.789643460932556"><ele>729.5</ele><time>2026-05-01T14:52:47Z</time></trkpt><trkpt lat="42.01412375136623" lon="13.789703579978367"><ele>729.0</ele><time>2026-05-01T14:52:48Z</time></trkpt><trkpt lat="42.01419691511059" lon="13.789758610975555"><ele>728.5</ele><time>2026-05-01T14:52:49Z</time></trkpt><trkpt lat="42.01427656279304" lon="13.789808091879637"><ele>728.0</ele><time>2026-05-01T14:52:50Z</time></trkpt><trkpt lat="42.01435417552251" lon="13.789855471603373"><ele>727.5</ele><time>2026-05-01T14:52:51Z</time></trkpt><trkpt lat="42.01443906024611" lon="13.789886410401515"><ele>727.0</ele><time>2026-05-01T14:52:52Z</time></trkpt><trkpt lat="42.01452293689836" lon="13.789896047649414"><ele>727.0</ele><time>2026-05-01T14:52:53Z</time></trkpt><trkpt lat="42.01460635633517" lon="13.789900237850526"><ele>727.0</ele><time>2026-05-01T14:52:54Z</time></trkpt><trkpt lat="42.01468582654648" lon="13.78989502634166"><ele>727.0</ele><time>2026-05-01T14:52:55Z</time></trkpt><trkpt lat="42.01476006897281" lon="13.789861010939278"><ele>727.0</ele><time>2026-05-01T14:52:56Z</time></trkpt><trkpt lat="42.01483501864885" lon="13.789824154350724"><ele>727.0</ele><time>2026-05-01T14:52:57Z</time></trkpt><trkpt lat="42.0149055203059" lon="13.78978168620887"><ele>727.0</ele><time>2026-05-01T14:52:58Z</time></trkpt><trkpt lat="42.01496971679371" lon="13.78972724124056"><ele>728.0</ele><time>2026-05-01T14:52:59Z</time></trkpt><trkpt lat="42.015020967745485" lon="13.789643603939869"><ele>729.0</ele><time>2026-05-01T14:53:00Z</time></trkpt><trkpt lat="42.01506228660029" lon="13.789547534022327"><ele>730.0</ele><time>2026-05-01T14:53:00.999Z</time></trkpt><trkpt lat="42.01510527379202" lon="13.789454415188336"><ele>731.0</ele><time>2026-05-01T14:53:01.999Z</time></trkpt><trkpt lat="42.01515581656266" lon="13.789362298234833"><ele>732.0</ele><time>2026-05-01T14:53:02.999Z</time></trkpt><trkpt lat="42.015195505916104" lon="13.789274580440951"><ele>733.0</ele><time>2026-05-01T14:53:03.999Z</time></trkpt><trkpt lat="42.015241069139364" lon="13.789191204680149"><ele>734.2857142857142</ele><time>2026-05-01T14:53:04.999Z</time></trkpt><trkpt lat="42.01528374612367" lon="13.789109229220532"><ele>735.5714285714286</ele><time>2026-05-01T14:53:05.999Z</time></trkpt><trkpt lat="42.01532603249964" lon="13.789026932548953"><ele>736.8571428571429</ele><time>2026-05-01T14:53:06.999Z</time></trkpt><trkpt lat="42.015369997890055" lon="13.78894409908637"><ele>738.1428571428571</ele><time>2026-05-01T14:53:07.999Z</time></trkpt><trkpt lat="42.015420312248175" lon="13.788867692773715"><ele>739.4285714285714</ele><time>2026-05-01T14:53:08.999Z</time></trkpt><trkpt lat="42.015478018907395" lon="13.788802169902006"><ele>740.7142857142857</ele><time>2026-05-01T14:53:09.999Z</time></trkpt><trkpt lat="42.01552751993782" lon="13.788742300858818"><ele>742.0</ele><time>2026-05-01T14:53:10.999Z</time></trkpt><trkpt lat="42.015575138985334" lon="13.788673149997381"><ele>742.0</ele><time>2026-05-01T14:53:11.999Z</time></trkpt><trkpt lat="42.01561660220283" lon="13.788587588127786"><ele>742.0</ele><time>2026-05-01T14:53:12.999Z</time></trkpt><trkpt lat="42.015645673041476" lon="13.788487604933763"><ele>742.0</ele><time>2026-05-01T14:53:13.999Z</time></trkpt><trkpt lat="42.01567009977898" lon="13.788382878567996"><ele>742.0</ele><time>2026-05-01T14:53:14.999Z</time></trkpt><trkpt lat="42.01568595064104" lon="13.788270290092449"><ele>742.0</ele><time>2026-05-01T14:53:15.999Z</time></trkpt><trkpt lat="42.015699389603796" lon="13.78815226061534"><ele>742.0</ele><time>2026-05-01T14:53:16.999Z</time></trkpt><trkpt lat="42.01572140934836" lon="13.788037642169712"><ele>743.2</ele><time>2026-05-01T14:53:17.999Z</time></trkpt><trkpt lat="42.01574561842162" lon="13.78792101259992"><ele>744.4000000000001</ele><time>2026-05-01T14:53:18.999Z</time></trkpt><trkpt lat="42.01577545510371" lon="13.78780414584396"><ele>745.5999999999999</ele><time>2026-05-01T14:53:19.999Z</time></trkpt><trkpt lat="42.01580637115693" lon="13.787688433521428"><ele>746.8</ele><time>2026-05-01T14:53:20.999Z</time></trkpt><trkpt lat="42.01582900683472" lon="13.787569705813938"><ele>748.0</ele><time>2026-05-01T14:53:21.999Z</time></trkpt><trkpt lat="42.01585783052198" lon="13.787451697027542"><ele>748.3333333333334</ele><time>2026-05-01T14:53:22.999Z</time></trkpt><trkpt lat="42.01588280141551" lon="13.787333379112575"><ele>748.6666666666667</ele><time>2026-05-01T14:53:23.999Z</time></trkpt><trkpt lat="42.01591102831731" lon="13.787224207609201"><ele>749.0</ele><time>2026-05-01T14:53:24.999Z</time></trkpt><trkpt lat="42.01595006795902" lon="13.787116256027081"><ele>749.3333333333334</ele><time>2026-05-01T14:53:25.999Z</time></trkpt><trkpt lat="42.01599234840467" lon="13.78700890805802"><ele>749.6666666666666</ele><time>2026-05-01T14:53:26.999Z</time></trkpt><trkpt lat="42.016032872974364" lon="13.786897946845137"><ele>750.0</ele><time>2026-05-01T14:53:27.999Z</time></trkpt><trkpt lat="42.01607298615982" lon="13.786786413272036"><ele>751.4</ele><time>2026-05-01T14:53:28.999Z</time></trkpt><trkpt lat="42.01611682991931" lon="13.786676007764639"><ele>752.8</ele><time>2026-05-01T14:53:29.999Z</time></trkpt><trkpt lat="42.01616362561513" lon="13.786571226538754"><ele>754.2</ele><time>2026-05-01T14:53:30.999Z</time></trkpt><trkpt lat="42.016210275354574" lon="13.786463410549661"><ele>755.6</ele><time>2026-05-01T14:53:31.999Z</time></trkpt><trkpt lat="42.01625727284012" lon="13.786355180393114"><ele>757.0</ele><time>2026-05-01T14:53:32.999Z</time></trkpt><trkpt lat="42.01630867372966" lon="13.786247764399718"><ele>757.0</ele><time>2026-05-01T14:53:33.999Z</time></trkpt><trkpt lat="42.01636235920199" lon="13.786139422627196"><ele>757.0</ele><time>2026-05-01T14:53:34.999Z</time></trkpt><trkpt lat="42.01642041600523" lon="13.786030987604908"><ele>757.0</ele><time>2026-05-01T14:53:35.999Z</time></trkpt><trkpt lat="42.0164882527837" lon="13.785927780182378"><ele>757.0</ele><time>2026-05-01T14:53:36.999Z</time></trkpt><trkpt lat="42.0165586222052" lon="13.78582417460333"><ele>757.0</ele><time>2026-05-01T14:53:37.999Z</time></trkpt><trkpt lat="42.01662737518682" lon="13.785716995732557"><ele>757.6</ele><time>2026-05-01T14:53:38.999Z</time></trkpt><trkpt lat="42.01669543627096" lon="13.785601482628461"><ele>758.2</ele><time>2026-05-01T14:53:39.999Z</time></trkpt><trkpt lat="42.016760785073025" lon="13.785480571947337"><ele>758.8</ele><time>2026-05-01T14:53:40.999Z</time></trkpt><trkpt lat="42.016815908200854" lon="13.785348483743698"><ele>759.4</ele><time>2026-05-01T14:53:41.999Z</time></trkpt><trkpt lat="42.01685436389222" lon="13.785211111898034"><ele>760.0</ele><time>2026-05-01T14:53:42.999Z</time></trkpt><trkpt lat="42.01688405766868" lon="13.785062890270448"><ele>761.2</ele><time>2026-05-01T14:53:43.999Z</time></trkpt><trkpt lat="42.01692068924809" lon="13.78491994769923"><ele>762.4</ele><time>2026-05-01T14:53:44.999Z</time></trkpt><trkpt lat="42.01697313401983" lon="13.784789752260144"><ele>763.5999999999999</ele><time>2026-05-01T14:53:46.001Z</time></trkpt><trkpt lat="42.017037537080164" lon="13.784666091395385"><ele>764.8</ele><time>2026-05-01T14:53:47.001Z</time></trkpt><trkpt lat="42.01710178861026" lon="13.784543481656476"><ele>766.0</ele><time>2026-05-01T14:53:48.001Z</time></trkpt><trkpt lat="42.01717407247714" lon="13.784433670372135"><ele>767.25</ele><time>2026-05-01T14:53:49.001Z</time></trkpt><trkpt lat="42.01725585215919" lon="13.784334270164372"><ele>768.5</ele><time>2026-05-01T14:53:50.001Z</time></trkpt><trkpt lat="42.01735048394632" lon="13.784243896072912"><ele>769.75</ele><time>2026-05-01T14:53:51.001Z</time></trkpt><trkpt lat="42.01744788246122" lon="13.784161592734693"><ele>771.0</ele><time>2026-05-01T14:53:52.001Z</time></trkpt><trkpt lat="42.01755002279038" lon="13.784085358433446"><ele>771.0</ele><time>2026-05-01T14:53:53.001Z</time></trkpt><trkpt lat="42.017652761958196" lon="13.784011005939917"><ele>771.0</ele><time>2026-05-01T14:53:54.001Z</time></trkpt><trkpt lat="42.017754793865834" lon="13.783937688500195"><ele>771.0</ele><time>2026-05-01T14:53:55.001Z</time></trkpt><trkpt lat="42.01786032748965" lon="13.783867118493719"><ele>771.0</ele><time>2026-05-01T14:53:56.001Z</time></trkpt><trkpt lat="42.017965025421404" lon="13.783798568814241"><ele>771.0</ele><time>2026-05-01T14:53:57.001Z</time></trkpt><trkpt lat="42.018073994515625" lon="13.783732987831831"><ele>771.0</ele><time>2026-05-01T14:53:58.001Z</time></trkpt><trkpt lat="42.018176980810104" lon="13.78367933303315"><ele>771.0</ele><time>2026-05-01T14:53:59.001Z</time></trkpt><trkpt lat="42.01827742762685" lon="13.783625064814185"><ele>771.0</ele><time>2026-05-01T14:54:00.001Z</time></trkpt><trkpt lat="42.018377826117955" lon="13.783576659828615"><ele>771.0</ele><time>2026-05-01T14:54:01.001Z</time></trkpt><trkpt lat="42.01847736745504" lon="13.783533432337975"><ele>773.1999999999999</ele><time>2026-05-01T14:54:02.001Z</time></trkpt><trkpt lat="42.01857400727661" lon="13.783480888520405"><ele>775.4</ele><time>2026-05-01T14:54:03.001Z</time></trkpt><trkpt lat="42.018660669741195" lon="13.783410726418511"><ele>777.6</ele><time>2026-05-01T14:54:04.001Z</time></trkpt><trkpt lat="42.01873778211321" lon="13.783312371311329"><ele>779.8</ele><time>2026-05-01T14:54:05.001Z</time></trkpt><trkpt lat="42.018807315537025" lon="13.78319671366248"><ele>782.0</ele><time>2026-05-01T14:54:06.001Z</time></trkpt><trkpt lat="42.01886148159152" lon="13.783059209951634"><ele>782.0</ele><time>2026-05-01T14:54:07.001Z</time></trkpt><trkpt lat="42.01891449579101" lon="13.782922487146026"><ele>782.0</ele><time>2026-05-01T14:54:08.001Z</time></trkpt><trkpt lat="42.018973435254104" lon="13.782795254652692"><ele>782.0</ele><time>2026-05-01T14:54:09.001Z</time></trkpt><trkpt lat="42.01904620230623" lon="13.782669018053996"><ele>782.0</ele><time>2026-05-01T14:54:10.001Z</time></trkpt><trkpt lat="42.0191260218308" lon="13.782555152189362"><ele>782.6</ele><time>2026-05-01T14:54:11.001Z</time></trkpt><trkpt lat="42.019219901680536" lon="13.78246623404725"><ele>783.2</ele><time>2026-05-01T14:54:12.001Z</time></trkpt><trkpt lat="42.0193145765988" lon="13.782419347198712"><ele>783.8</ele><time>2026-05-01T14:54:13.001Z</time></trkpt><trkpt lat="42.01941685355211" lon="13.782374635367296"><ele>784.4</ele><time>2026-05-01T14:54:14Z</time></trkpt><trkpt lat="42.01951607401286" lon="13.782331342067298"><ele>785.0</ele><time>2026-05-01T14:54:15Z</time></trkpt><trkpt lat="42.01960532799074" lon="13.78229303850502"><ele>785.0</ele><time>2026-05-01T14:54:16Z</time></trkpt><trkpt lat="42.0196936017676" lon="13.782256019584596"><ele>785.0</ele><time>2026-05-01T14:54:17Z</time></trkpt><trkpt lat="42.019783358016824" lon="13.782218379069231"><ele>785.0</ele><time>2026-05-01T14:54:18Z</time></trkpt><trkpt lat="42.01987237759336" lon="13.782181047496307"><ele>785.0</ele><time>2026-05-01T14:54:19Z</time></trkpt><trkpt lat="42.01995882573526" lon="13.782143746726257"><ele>785.0</ele><time>2026-05-01T14:54:20Z</time></trkpt><trkpt lat="42.0200429632666" lon="13.782104698471704"><ele>784.3333333333334</ele><time>2026-05-01T14:54:21Z</time></trkpt><trkpt lat="42.02012597907239" lon="13.782066170795009"><ele>783.6666666666667</ele><time>2026-05-01T14:54:22Z</time></trkpt><trkpt lat="42.02020559530084" lon="13.782010460433183"><ele>783.0</ele><time>2026-05-01T14:54:23Z</time></trkpt><trkpt lat="42.020287405919674" lon="13.781970266208097"><ele>782.3333333333333</ele><time>2026-05-01T14:54:24Z</time></trkpt><trkpt lat="42.02037066638491" lon="13.781933069816137"><ele>781.6666666666666</ele><time>2026-05-01T14:54:25Z</time></trkpt><trkpt lat="42.02045784090146" lon="13.781895094855244"><ele>781.0</ele><time>2026-05-01T14:54:26Z</time></trkpt><trkpt lat="42.020546924601945" lon="13.781858153857328"><ele>783.8</ele><time>2026-05-01T14:54:27Z</time></trkpt><trkpt lat="42.02063770863655" lon="13.781820598564227"><ele>786.5999999999999</ele><time>2026-05-01T14:54:28Z</time></trkpt><trkpt lat="42.02073268543258" lon="13.781790745020672"><ele>789.4</ele><time>2026-05-01T14:54:29Z</time></trkpt><trkpt lat="42.02083043000706" lon="13.781770790385396"><ele>792.2</ele><time>2026-05-01T14:54:30Z</time></trkpt><trkpt lat="42.02092456440084" lon="13.781759497071818"><ele>795.0</ele><time>2026-05-01T14:54:31Z</time></trkpt><trkpt lat="42.02102262138612" lon="13.781765123270453"><ele>795.0</ele><time>2026-05-01T14:54:32Z</time></trkpt><trkpt lat="42.0211089721405" lon="13.781797234461717"><ele>795.0</ele><time>2026-05-01T14:54:33Z</time></trkpt><trkpt lat="42.02121203400002" lon="13.781830380424823"><ele>795.0</ele><time>2026-05-01T14:54:34Z</time></trkpt><trkpt lat="42.02131282452615" lon="13.781846875908927"><ele>795.0</ele><time>2026-05-01T14:54:35Z</time></trkpt><trkpt lat="42.021423075704384" lon="13.781830173389894"><ele>795.0</ele><time>2026-05-01T14:54:36Z</time></trkpt><trkpt lat="42.021534151463854" lon="13.781819676239397"><ele>795.0</ele><time>2026-05-01T14:54:37Z</time></trkpt><trkpt lat="42.02162661118968" lon="13.781734115587362"><ele>795.0</ele><time>2026-05-01T14:54:38Z</time></trkpt><trkpt lat="42.021719368495454" lon="13.781646339486585"><ele>795.0</ele><time>2026-05-01T14:54:39Z</time></trkpt><trkpt lat="42.02180788279155" lon="13.781549682591622"><ele>795.0</ele><time>2026-05-01T14:54:40Z</time></trkpt><trkpt lat="42.02189539014355" lon="13.781459147544421"><ele>793.5</ele><time>2026-05-01T14:54:41Z</time></trkpt><trkpt lat="42.02198589680665" lon="13.781366891140479"><ele>792.0</ele><time>2026-05-01T14:54:42Z</time></trkpt><trkpt lat="42.02207874853204" lon="13.781274373966351"><ele>790.5</ele><time>2026-05-01T14:54:43Z</time></trkpt><trkpt lat="42.02217642726487" lon="13.781195914378848"><ele>789.0</ele><time>2026-05-01T14:54:44Z</time></trkpt><trkpt lat="42.0222792251812" lon="13.781127943201627"><ele>789.0</ele><time>2026-05-01T14:54:45Z</time></trkpt><trkpt lat="42.02238439587313" lon="13.781072442054398"><ele>789.0</ele><time>2026-05-01T14:54:46Z</time></trkpt><trkpt lat="42.02248935213688" lon="13.781020224263079"><ele>789.0</ele><time>2026-05-01T14:54:47Z</time></trkpt><trkpt lat="42.02259720674578" lon="13.780979064819842"><ele>789.0</ele><time>2026-05-01T14:54:48Z</time></trkpt><trkpt lat="42.02270560925752" lon="13.780953803051633"><ele>789.0</ele><time>2026-05-01T14:54:49Z</time></trkpt><trkpt lat="42.02281987156226" lon="13.780940855448847"><ele>791.25</ele><time>2026-05-01T14:54:50Z</time></trkpt><trkpt lat="42.02293686047685" lon="13.780940923882312"><ele>793.5</ele><time>2026-05-01T14:54:51Z</time></trkpt><trkpt lat="42.02305424452991" lon="13.780950495170305"><ele>795.75</ele><time>2026-05-01T14:54:52Z</time></trkpt><trkpt lat="42.02317201805549" lon="13.780963898479714"><ele>798.0</ele><time>2026-05-01T14:54:53Z</time></trkpt><trkpt lat="42.02329080845516" lon="13.780981098573537"><ele>798.0</ele><time>2026-05-01T14:54:54Z</time></trkpt><trkpt lat="42.023410321546486" lon="13.781003409842926"><ele>798.0</ele><time>2026-05-01T14:54:55Z</time></trkpt><trkpt lat="42.02353010523862" lon="13.781032535566872"><ele>798.0</ele><time>2026-05-01T14:54:56Z</time></trkpt><trkpt lat="42.02365453811541" lon="13.781051373610582"><ele>798.0</ele><time>2026-05-01T14:54:57Z</time></trkpt><trkpt lat="42.02377698207475" lon="13.781072784519399"><ele>794.5</ele><time>2026-05-01T14:54:58Z</time></trkpt><trkpt lat="42.023900324505" lon="13.781087553225738"><ele>791.0</ele><time>2026-05-01T14:54:59Z</time></trkpt><trkpt lat="42.0240236842504" lon="13.78110729434031"><ele>787.5</ele><time>2026-05-01T14:55:00Z</time></trkpt><trkpt lat="42.024147877242626" lon="13.781121705895789"><ele>784.0</ele><time>2026-05-01T14:55:01Z</time></trkpt><trkpt lat="42.02427189082209" lon="13.781126104051095"><ele>784.0</ele><time>2026-05-01T14:55:02Z</time></trkpt><trkpt lat="42.02439992300531" lon="13.781121266670054"><ele>784.0</ele><time>2026-05-01T14:55:03Z</time></trkpt><trkpt lat="42.024527452887085" lon="13.781105601488743"><ele>784.0</ele><time>2026-05-01T14:55:04Z</time></trkpt><trkpt lat="42.024654278671925" lon="13.781074761927691"><ele>784.0</ele><time>2026-05-01T14:55:05Z</time></trkpt><trkpt lat="42.024778209953624" lon="13.781026044420278"><ele>786.0</ele><time>2026-05-01T14:55:06Z</time></trkpt><trkpt lat="42.02490027315751" lon="13.780967658146734"><ele>788.0</ele><time>2026-05-01T14:55:07Z</time></trkpt><trkpt lat="42.025018666324115" lon="13.780899291597365"><ele>790.0</ele><time>2026-05-01T14:55:08Z</time></trkpt><trkpt lat="42.02513530220567" lon="13.78082636070337"><ele>792.0</ele><time>2026-05-01T14:55:09Z</time></trkpt><trkpt lat="42.02525185201277" lon="13.780749709953534"><ele>792.0</ele><time>2026-05-01T14:55:10Z</time></trkpt><trkpt lat="42.02536858518845" lon="13.780670204198845"><ele>792.0</ele><time>2026-05-01T14:55:11Z</time></trkpt><trkpt lat="42.025488559448284" lon="13.78059578485515"><ele>792.0</ele><time>2026-05-01T14:55:12Z</time></trkpt><trkpt lat="42.025611485187284" lon="13.780535754739638"><ele>792.0</ele><time>2026-05-01T14:55:13Z</time></trkpt><trkpt lat="42.02573679291385" lon="13.780488820192282"><ele>790.75</ele><time>2026-05-01T14:55:14Z</time></trkpt><trkpt lat="42.02586340944388" lon="13.780451043874677"><ele>789.5</ele><time>2026-05-01T14:55:15Z</time></trkpt><trkpt lat="42.02599653783184" lon="13.780421788501636"><ele>788.25</ele><time>2026-05-01T14:55:16Z</time></trkpt><trkpt lat="42.02613507847253" lon="13.78040016698848"><ele>787.0</ele><time>2026-05-01T14:55:16.999Z</time></trkpt><trkpt lat="42.02627650450918" lon="13.780387122751707"><ele>787.0</ele><time>2026-05-01T14:55:17.999Z</time></trkpt><trkpt lat="42.026420224727666" lon="13.780384017145122"><ele>787.0</ele><time>2026-05-01T14:55:18.999Z</time></trkpt><trkpt lat="42.02656395693389" lon="13.78037636751799"><ele>787.0</ele><time>2026-05-01T14:55:19.999Z</time></trkpt><trkpt lat="42.02670762409752" lon="13.780349125928982"><ele>787.0</ele><time>2026-05-01T14:55:20.999Z</time></trkpt><trkpt lat="42.02684777636578" lon="13.780295487744418"><ele>785.3333333333333</ele><time>2026-05-01T14:55:21.999Z</time></trkpt><trkpt lat="42.02698505070211" lon="13.780227824901221"><ele>783.6666666666667</ele><time>2026-05-01T14:55:22.999Z</time></trkpt><trkpt lat="42.027126300376956" lon="13.78014514816982"><ele>782.0</ele><time>2026-05-01T14:55:23.999Z</time></trkpt><trkpt lat="42.02726236910619" lon="13.780054156173563"><ele>782.25</ele><time>2026-05-01T14:55:24.999Z</time></trkpt><trkpt lat="42.02739308849616" lon="13.779972106823994"><ele>782.5</ele><time>2026-05-01T14:55:25.999Z</time></trkpt><trkpt lat="42.02752101039899" lon="13.779890351431064"><ele>782.75</ele><time>2026-05-01T14:55:26.999Z</time></trkpt><trkpt lat="42.027653830461894" lon="13.779816108445164"><ele>783.0</ele><time>2026-05-01T14:55:27.999Z</time></trkpt><trkpt lat="42.02778693706051" lon="13.779746377312081"><ele>783.0</ele><time>2026-05-01T14:55:28.999Z</time></trkpt><trkpt lat="42.02792151076819" lon="13.779685861401118"><ele>783.0</ele><time>2026-05-01T14:55:29.999Z</time></trkpt><trkpt lat="42.02805863602382" lon="13.77963858042548"><ele>783.0</ele><time>2026-05-01T14:55:30.999Z</time></trkpt><trkpt lat="42.028197465290724" lon="13.779601827457562"><ele>783.0</ele><time>2026-05-01T14:55:31.999Z</time></trkpt><trkpt lat="42.028337403332316" lon="13.779576172309536"><ele>783.5</ele><time>2026-05-01T14:55:32.999Z</time></trkpt><trkpt lat="42.028477898432214" lon="13.779571653140994"><ele>784.0</ele><time>2026-05-01T14:55:33.999Z</time></trkpt><trkpt lat="42.02861694411971" lon="13.779589641121047"><ele>784.5</ele><time>2026-05-01T14:55:34.999Z</time></trkpt><trkpt lat="42.02875386960074" lon="13.779624419612167"><ele>785.0</ele><time>2026-05-01T14:55:35.999Z</time></trkpt><trkpt lat="42.02888810316881" lon="13.77967334325431"><ele>785.0</ele><time>2026-05-01T14:55:36.999Z</time></trkpt><trkpt lat="42.029016686279526" lon="13.779738621916643"><ele>785.0</ele><time>2026-05-01T14:55:37.999Z</time></trkpt><trkpt lat="42.02913340521208" lon="13.779821586597361"><ele>785.0</ele><time>2026-05-01T14:55:38.999Z</time></trkpt><trkpt lat="42.029236449061045" lon="13.779920160830715"><ele>785.0</ele><time>2026-05-01T14:55:39.998Z</time></trkpt><trkpt lat="42.029331902205804" lon="13.780026912138293"><ele>785.75</ele><time>2026-05-01T14:55:40.998Z</time></trkpt><trkpt lat="42.02941971481378" lon="13.780140990763424"><ele>786.5</ele><time>2026-05-01T14:55:41.998Z</time></trkpt><trkpt lat="42.02950389326527" lon="13.780263951090731"><ele>787.25</ele><time>2026-05-01T14:55:42.998Z</time></trkpt><trkpt lat="42.0295783813821" lon="13.78040016870952"><ele>788.0</ele><time>2026-05-01T14:55:43.998Z</time></trkpt><trkpt lat="42.02964188748253" lon="13.780553309720926"><ele>786.25</ele><time>2026-05-01T14:55:44.998Z</time></trkpt><trkpt lat="42.02969942090668" lon="13.780715188616622"><ele>784.5</ele><time>2026-05-01T14:55:45.998Z</time></trkpt><trkpt lat="42.02974253966085" lon="13.780885216450205"><ele>782.75</ele><time>2026-05-01T14:55:46.998Z</time></trkpt><trkpt lat="42.02977131957044" lon="13.781067482656232"><ele>781.0</ele><time>2026-05-01T14:55:47.998Z</time></trkpt><trkpt lat="42.02976914423598" lon="13.78125656526143"><ele>780.75</ele><time>2026-05-01T14:55:48.998Z</time></trkpt><trkpt lat="42.029768911285295" lon="13.78144705007877"><ele>780.5</ele><time>2026-05-01T14:55:49.998Z</time></trkpt><trkpt lat="42.02977360306632" lon="13.78164063892403"><ele>780.25</ele><time>2026-05-01T14:55:50.998Z</time></trkpt><trkpt lat="42.029728631656546" lon="13.781826601950737"><ele>780.0</ele><time>2026-05-01T14:55:52Z</time></trkpt><trkpt lat="42.02967945732294" lon="13.782014195279768"><ele>780.75</ele><time>2026-05-01T14:55:53Z</time></trkpt><trkpt lat="42.029619759927456" lon="13.782193732398186"><ele>781.5</ele><time>2026-05-01T14:55:54Z</time></trkpt><trkpt lat="42.02954446893103" lon="13.782364706825927"><ele>782.25</ele><time>2026-05-01T14:55:55Z</time></trkpt><trkpt lat="42.02945513689225" lon="13.782524525904151"><ele>783.0</ele><time>2026-05-01T14:55:56Z</time></trkpt><trkpt lat="42.029366451164016" lon="13.78268745974555"><ele>783.5</ele><time>2026-05-01T14:55:57Z</time></trkpt><trkpt lat="42.02926176304977" lon="13.7828294251713"><ele>784.0</ele><time>2026-05-01T14:55:58Z</time></trkpt><trkpt lat="42.02914171323918" lon="13.782933961211448"><ele>784.5</ele><time>2026-05-01T14:55:59Z</time></trkpt><trkpt lat="42.02904360724603" lon="13.78306210811254"><ele>785.0</ele><time>2026-05-01T14:56:00Z</time></trkpt><trkpt lat="42.02893513405189" lon="13.783161055784412"><ele>785.0</ele><time>2026-05-01T14:56:01Z</time></trkpt><trkpt lat="42.02881956070199" lon="13.78322859826663"><ele>785.0</ele><time>2026-05-01T14:56:02Z</time></trkpt><trkpt lat="42.02871528592992" lon="13.783306567375801"><ele>785.0</ele><time>2026-05-01T14:56:03Z</time></trkpt><trkpt lat="42.028618412524075" lon="13.78337835962059"><ele>785.0</ele><time>2026-05-01T14:56:04Z</time></trkpt><trkpt lat="42.02852668249646" lon="13.783444671613676"><ele>785.0000000000001</ele><time>2026-05-01T14:56:05Z</time></trkpt><trkpt lat="42.0284406103247" lon="13.783506893650275"><ele>785.0</ele><time>2026-05-01T14:56:06Z</time></trkpt><trkpt lat="42.02836579644234" lon="13.783576540299174"><ele>785.0</ele><time>2026-05-01T14:56:07Z</time></trkpt><trkpt lat="42.02829122415278" lon="13.783619556737229"><ele>785.0</ele><time>2026-05-01T14:56:08Z</time></trkpt><trkpt lat="42.02822189239389" lon="13.783660437710198"><ele>785.0000000000001</ele><time>2026-05-01T14:56:09Z</time></trkpt><trkpt lat="42.02815674015882" lon="13.783697678780442"><ele>785.0</ele><time>2026-05-01T14:56:10Z</time></trkpt><trkpt lat="42.02805746107525" lon="13.78375776985457"><ele>785.5000000000001</ele><time>2026-05-01T14:56:12Z</time></trkpt><trkpt lat="42.02797740969814" lon="13.783811140007925"><ele>786.0</ele><time>2026-05-01T14:56:14Z</time></trkpt><trkpt lat="42.027907672679355" lon="13.783865690289545"><ele>786.5</ele><time>2026-05-01T14:56:16Z</time></trkpt><trkpt lat="42.027842805619315" lon="13.783906355981067"><ele>787.0</ele><time>2026-05-01T14:56:18Z</time></trkpt><trkpt lat="42.02778171791103" lon="13.783972118283984"><ele>787.5000000000001</ele><time>2026-05-01T14:56:21.999Z</time></trkpt><trkpt lat="42.027719338210034" lon="13.78400203762693"><ele>788.0</ele><time>2026-05-01T14:56:25.999Z</time></trkpt><trkpt lat="42.02765097507826" lon="13.784048833872475"><ele>788.0</ele><time>2026-05-01T14:56:29.999Z</time></trkpt><trkpt lat="42.02758127425585" lon="13.784095665125763"><ele>788.0</ele><time>2026-05-01T14:56:32.999Z</time></trkpt><trkpt lat="42.02751568917791" lon="13.784139161096888"><ele>788.0</ele><time>2026-05-01T14:56:35.999Z</time></trkpt><trkpt lat="42.0274561671817" lon="13.784179414153073"><ele>788.0</ele><time>2026-05-01T14:56:37.999Z</time></trkpt><trkpt lat="42.027379043795236" lon="13.784231570567883"><ele>788.0</ele><time>2026-05-01T14:56:39.999Z</time></trkpt><trkpt lat="42.02732003029964" lon="13.784271416414194"><ele>788.0</ele><time>2026-05-01T14:56:41.999Z</time></trkpt><trkpt lat="42.027263619388634" lon="13.784329604457191"><ele>788.0</ele><time>2026-05-01T14:56:43.999Z</time></trkpt><trkpt lat="42.02719798361971" lon="13.784323631807123"><ele>789.4</ele><time>2026-05-01T14:56:45.999Z</time></trkpt><trkpt lat="42.02714505762445" lon="13.784377108297717"><ele>790.8</ele><time>2026-05-01T14:56:47.999Z</time></trkpt><trkpt lat="42.02707956635544" lon="13.784423604934446"><ele>792.2</ele><time>2026-05-01T14:56:50.999Z</time></trkpt><trkpt lat="42.02692387703884" lon="13.7845191192453"><ele>793.6</ele><time>2026-05-01T14:57:45.998Z</time></trkpt><trkpt lat="42.02683936273817" lon="13.784575018954392"><ele>795.0</ele><time>2026-05-01T14:57:46.998Z</time></trkpt><trkpt lat="42.02674537509745" lon="13.784640797016303"><ele>792.75</ele><time>2026-05-01T14:57:47.998Z</time></trkpt><trkpt lat="42.02664085587662" lon="13.784714623079847"><ele>790.5</ele><time>2026-05-01T14:57:48.998Z</time></trkpt><trkpt lat="42.026532885730504" lon="13.784789908624726"><ele>788.25</ele><time>2026-05-01T14:57:49.998Z</time></trkpt><trkpt lat="42.02642103470953" lon="13.78486653547628"><ele>786.0</ele><time>2026-05-01T14:57:50.998Z</time></trkpt><trkpt lat="42.026306274872425" lon="13.784952934124714"><ele>786.0</ele><time>2026-05-01T14:57:51.998Z</time></trkpt><trkpt lat="42.02619119807244" lon="13.785048649761995"><ele>786.0</ele><time>2026-05-01T14:57:52.998Z</time></trkpt><trkpt lat="42.02607552188719" lon="13.785153353109541"><ele>786.0</ele><time>2026-05-01T14:57:53.998Z</time></trkpt><trkpt lat="42.02596370719856" lon="13.785260396972037"><ele>786.0</ele><time>2026-05-01T14:57:54.998Z</time></trkpt><trkpt lat="42.02585264665567" lon="13.7853747110053"><ele>787.5</ele><time>2026-05-01T14:57:55.998Z</time></trkpt><trkpt lat="42.02574242666708" lon="13.785488149208994"><ele>789.0</ele><time>2026-05-01T14:57:56.998Z</time></trkpt><trkpt lat="42.02563754586215" lon="13.78560105838828"><ele>790.5</ele><time>2026-05-01T14:57:58Z</time></trkpt><trkpt lat="42.025535340664334" lon="13.785706408477825"><ele>792.0</ele><time>2026-05-01T14:57:59Z</time></trkpt><trkpt lat="42.02543167750004" lon="13.785805262772312"><ele>792.0</ele><time>2026-05-01T14:58:00Z</time></trkpt><trkpt lat="42.025324992232385" lon="13.785886503318716"><ele>792.0</ele><time>2026-05-01T14:58:01Z</time></trkpt><trkpt lat="42.02520992807306" lon="13.785928520500606"><ele>792.0</ele><time>2026-05-01T14:58:02Z</time></trkpt><trkpt lat="42.0250927830751" lon="13.785919564171511"><ele>792.0</ele><time>2026-05-01T14:58:03Z</time></trkpt><trkpt lat="42.0249876692711" lon="13.785868307612693"><ele>790.25</ele><time>2026-05-01T14:58:04Z</time></trkpt><trkpt lat="42.02489741463474" lon="13.785775795130611"><ele>788.5</ele><time>2026-05-01T14:58:05Z</time></trkpt><trkpt lat="42.02482916529797" lon="13.785652776879012"><ele>786.75</ele><time>2026-05-01T14:58:06Z</time></trkpt><trkpt lat="42.02479162794983" lon="13.785508315146764"><ele>785.0</ele><time>2026-05-01T14:58:07Z</time></trkpt><trkpt lat="42.02479243392606" lon="13.78535168662659"><ele>785.0</ele><time>2026-05-01T14:58:08Z</time></trkpt><trkpt lat="42.02482906230023" lon="13.785194020914187"><ele>785.0</ele><time>2026-05-01T14:58:09Z</time></trkpt><trkpt lat="42.02488715534775" lon="13.785042902800688"><ele>785.0</ele><time>2026-05-01T14:58:10Z</time></trkpt><trkpt lat="42.02493372497113" lon="13.784883457021264"><ele>785.0</ele><time>2026-05-01T14:58:11Z</time></trkpt><trkpt lat="42.02502418760967" lon="13.784746304893627"><ele>785.0</ele><time>2026-05-01T14:58:12Z</time></trkpt><trkpt lat="42.02510245940713" lon="13.78459969429358"><ele>785.0</ele><time>2026-05-01T14:58:13Z</time></trkpt><trkpt lat="42.02518000956327" lon="13.784446910645775"><ele>785.0</ele><time>2026-05-01T14:58:14Z</time></trkpt><trkpt lat="42.025257017993404" lon="13.784289177113207"><ele>785.0</ele><time>2026-05-01T14:58:15Z</time></trkpt><trkpt lat="42.02533098720378" lon="13.784126832334167"><ele>782.25</ele><time>2026-05-01T14:58:16Z</time></trkpt><trkpt lat="42.02540813399412" lon="13.783963497715078"><ele>779.5</ele><time>2026-05-01T14:58:17Z</time></trkpt><trkpt lat="42.025482141891366" lon="13.783795289957718"><ele>776.75</ele><time>2026-05-01T14:58:18Z</time></trkpt><trkpt lat="42.025555545165524" lon="13.78362243873062"><ele>774.0</ele><time>2026-05-01T14:58:19Z</time></trkpt><trkpt lat="42.025630896149636" lon="13.783448589855764"><ele>771.6666666666666</ele><time>2026-05-01T14:58:20Z</time></trkpt><trkpt lat="42.0257052584809" lon="13.783268366532967"><ele>769.3333333333333</ele><time>2026-05-01T14:58:21Z</time></trkpt><trkpt lat="42.025774344090685" lon="13.783081391761186"><ele>767.0</ele><time>2026-05-01T14:58:22Z</time></trkpt><trkpt lat="42.02584170200016" lon="13.78288544900599"><ele>768.6666666666666</ele><time>2026-05-01T14:58:23Z</time></trkpt><trkpt lat="42.02590971896196" lon="13.78267176404085"><ele>770.3333333333333</ele><time>2026-05-01T14:58:24Z</time></trkpt><trkpt lat="42.025978459734844" lon="13.782444597731812"><ele>772.0</ele><time>2026-05-01T14:58:24.999Z</time></trkpt><trkpt lat="42.02605040065283" lon="13.78220597844613"><ele>772.0</ele><time>2026-05-01T14:58:25.999Z</time></trkpt><trkpt lat="42.02612195694145" lon="13.781961904026657"><ele>772.0</ele><time>2026-05-01T14:58:26.999Z</time></trkpt><trkpt lat="42.026193145891675" lon="13.78171288990606"><ele>772.0</ele><time>2026-05-01T14:58:27.999Z</time></trkpt><trkpt lat="42.026257424754505" lon="13.781467862344886"><ele>774.3333333333333</ele><time>2026-05-01T14:58:28.999Z</time></trkpt><trkpt lat="42.02631618449224" lon="13.781221392395857"><ele>776.6666666666667</ele><time>2026-05-01T14:58:29.999Z</time></trkpt><trkpt lat="42.02636949127313" lon="13.780970679600838"><ele>779.0</ele><time>2026-05-01T14:58:30.999Z</time></trkpt><trkpt lat="42.02642145994988" lon="13.780718482583465"><ele>781.6666666666667</ele><time>2026-05-01T14:58:31.999Z</time></trkpt><trkpt lat="42.02647345720214" lon="13.780458753166291"><ele>784.3333333333333</ele><time>2026-05-01T14:58:32.999Z</time></trkpt><trkpt lat="42.02651988300079" lon="13.78018296219336"><ele>787.0</ele><time>2026-05-01T14:58:33.999Z</time></trkpt><trkpt lat="42.02656320104378" lon="13.779901989621951"><ele>790.6666666666666</ele><time>2026-05-01T14:58:34.999Z</time></trkpt><trkpt lat="42.026602373637594" lon="13.779613605475745"><ele>794.3333333333333</ele><time>2026-05-01T14:58:35.999Z</time></trkpt><trkpt lat="42.026637185945496" lon="13.77932222570607"><ele>798.0</ele><time>2026-05-01T14:58:36.999Z</time></trkpt><trkpt lat="42.0266662215467" lon="13.779023774396588"><ele>801.5</ele><time>2026-05-01T14:58:37.999Z</time></trkpt><trkpt lat="42.02668988369946" lon="13.778724370373823"><ele>805.0</ele><time>2026-05-01T14:58:38.999Z</time></trkpt><trkpt lat="42.02670647421037" lon="13.778420780617473"><ele>811.0</ele><time>2026-05-01T14:58:39.999Z</time></trkpt><trkpt lat="42.026717910263834" lon="13.77811573687453"><ele>817.0</ele><time>2026-05-01T14:58:40.999Z</time></trkpt><trkpt lat="42.02672362736511" lon="13.777805210625496"><ele>826.0</ele><time>2026-05-01T14:58:41.999Z</time></trkpt><trkpt lat="42.026721626125955" lon="13.777485212360618"><ele>835.0</ele><time>2026-05-01T14:58:42.999Z</time></trkpt><trkpt lat="42.02671152138539" lon="13.777159174733535"><ele>848.5</ele><time>2026-05-01T14:58:43.999Z</time></trkpt><trkpt lat="42.026696577859305" lon="13.776829087523021"><ele>862.0</ele><time>2026-05-01T14:58:44.999Z</time></trkpt><trkpt lat="42.026677890871916" lon="13.776497255090346"><ele>862.0</ele><time>2026-05-01T14:58:45.999Z</time></trkpt><trkpt lat="42.02665794276989" lon="13.776163803134233"><ele>862.0</ele><time>2026-05-01T14:58:46.999Z</time></trkpt><trkpt lat="42.02663094179058" lon="13.7758018350823"><ele>887.5</ele><time>2026-05-01T14:58:48.071Z</time></trkpt><trkpt lat="42.026597446889376" lon="13.77546403052626"><ele>913.0</ele><time>2026-05-01T14:58:49.062Z</time></trkpt><trkpt lat="42.02656228377649" lon="13.775121191456233"><ele>932.0</ele><time>2026-05-01T14:58:50.061Z</time></trkpt><trkpt lat="42.02652304380868" lon="13.774776985673371"><ele>951.0</ele><time>2026-05-01T14:58:51.058Z</time></trkpt><trkpt lat="42.02648068778081" lon="13.774441435539105"><ele>972.5</ele><time>2026-05-01T14:58:52.059Z</time></trkpt><trkpt lat="42.02643978758845" lon="13.774113141528893"><ele>994.0</ele><time>2026-05-01T14:58:53.046Z</time></trkpt><trkpt lat="42.020599944473666" lon="13.721297901510082"><ele>926.5</ele><time>2026-05-01T15:01:12.997Z</time></trkpt><trkpt lat="42.02060609832217" lon="13.72089036983401"><ele>859.0</ele><time>2026-05-01T15:01:13.997Z</time></trkpt><trkpt lat="42.02045870793851" lon="13.720682289545257"><ele>859.0</ele><time>2026-05-01T15:01:14.997Z</time></trkpt><trkpt lat="42.02040631407457" lon="13.72030672262106"><ele>859.0</ele><time>2026-05-01T15:01:15.997Z</time></trkpt><trkpt lat="42.02036051318254" lon="13.719921319512475"><ele>858.0</ele><time>2026-05-01T15:01:16.997Z</time></trkpt><trkpt lat="42.02028857884317" lon="13.71950552579844"><ele>857.0</ele><time>2026-05-01T15:01:17.997Z</time></trkpt><trkpt lat="42.02024878518554" lon="13.719110009308816"><ele>856.0</ele><time>2026-05-01T15:01:19Z</time></trkpt><trkpt lat="42.02022555739108" lon="13.718696131877662"><ele>855.0</ele><time>2026-05-01T15:01:20Z</time></trkpt><trkpt lat="42.02019142890186" lon="13.71829442869382"><ele>855.5</ele><time>2026-05-01T15:01:21Z</time></trkpt><trkpt lat="42.0201620689681" lon="13.717888138198042"><ele>856.0</ele><time>2026-05-01T15:01:22Z</time></trkpt><trkpt lat="42.02013480360888" lon="13.717484866945753"><ele>856.0</ele><time>2026-05-01T15:01:23Z</time></trkpt><trkpt lat="42.020112251152725" lon="13.717081848482588"><ele>856.0</ele><time>2026-05-01T15:01:24Z</time></trkpt><trkpt lat="42.020092802948966" lon="13.716679182226864"><ele>856.0</ele><time>2026-05-01T15:01:25Z</time></trkpt><trkpt lat="42.02007985601912" lon="13.716275143554565"><ele>856.0</ele><time>2026-05-01T15:01:26Z</time></trkpt><trkpt lat="42.02007210374133" lon="13.715869854420855"><ele>856.0</ele><time>2026-05-01T15:01:27Z</time></trkpt><trkpt lat="42.020068729567825" lon="13.715467272233148"><ele>856.0</ele><time>2026-05-01T15:01:28Z</time></trkpt><trkpt lat="42.02006809104702" lon="13.715065593851767"><ele>856.0</ele><time>2026-05-01T15:01:29Z</time></trkpt><trkpt lat="42.020067269175236" lon="13.714658922247084"><ele>856.0</ele><time>2026-05-01T15:01:30Z</time></trkpt><trkpt lat="42.02006764790706" lon="13.714254687878235"><ele>858.0</ele><time>2026-05-01T15:01:31Z</time></trkpt><trkpt lat="42.02007108691762" lon="13.713852747369623"><ele>860.0</ele><time>2026-05-01T15:01:32Z</time></trkpt><trkpt lat="42.02007908432949" lon="13.713449317688603"><ele>860.0</ele><time>2026-05-01T15:01:33Z</time></trkpt><trkpt lat="42.02009159876662" lon="13.71304868235692"><ele>860.0</ele><time>2026-05-01T15:01:34Z</time></trkpt><trkpt lat="42.02010922064738" lon="13.712650923745118"><ele>860.0</ele><time>2026-05-01T15:01:35Z</time></trkpt><trkpt lat="42.02012887365288" lon="13.712250411226519"><ele>860.0</ele><time>2026-05-01T15:01:36Z</time></trkpt><trkpt lat="42.02015064384505" lon="13.711847706493442"><ele>860.5</ele><time>2026-05-01T15:01:37Z</time></trkpt><trkpt lat="42.02017485863899" lon="13.71144631344146"><ele>861.0</ele><time>2026-05-01T15:01:38Z</time></trkpt><trkpt lat="42.020203446130225" lon="13.711044097443299"><ele>863.0</ele><time>2026-05-01T15:01:39Z</time></trkpt><trkpt lat="42.02023673625156" lon="13.710639593221932"><ele>865.0</ele><time>2026-05-01T15:01:40Z</time></trkpt><trkpt lat="42.02027463178536" lon="13.7102362892173"><ele>866.0</ele><time>2026-05-01T15:01:41Z</time></trkpt><trkpt lat="42.02031603204231" lon="13.709832562115581"><ele>867.0</ele><time>2026-05-01T15:01:42Z</time></trkpt><trkpt lat="42.02036108334175" lon="13.709428944053876"><ele>866.5</ele><time>2026-05-01T15:01:43Z</time></trkpt><trkpt lat="42.0204111564994" lon="13.709024056471177"><ele>866.0</ele><time>2026-05-01T15:01:44Z</time></trkpt><trkpt lat="42.02046381709691" lon="13.708619583201314"><ele>866.5</ele><time>2026-05-01T15:01:45Z</time></trkpt><trkpt lat="42.02051915066226" lon="13.708215830496167"><ele>867.0</ele><time>2026-05-01T15:01:46Z</time></trkpt><trkpt lat="42.02057763170113" lon="13.707814255992533"><ele>867.0</ele><time>2026-05-01T15:01:46.999Z</time></trkpt><trkpt lat="42.02063979765404" lon="13.70741374688681"><ele>867.0</ele><time>2026-05-01T15:01:47.999Z</time></trkpt><trkpt lat="42.02070451931179" lon="13.707013951371497"><ele>868.5</ele><time>2026-05-01T15:01:48.999Z</time></trkpt><trkpt lat="42.020772544830415" lon="13.706613417037333"><ele>870.0</ele><time>2026-05-01T15:01:49.999Z</time></trkpt><trkpt lat="42.02084608373926" lon="13.706214268082949"><ele>869.0</ele><time>2026-05-01T15:01:50.999Z</time></trkpt><trkpt lat="42.02092175740569" lon="13.70581709862092"><ele>868.0</ele><time>2026-05-01T15:01:51.999Z</time></trkpt><trkpt lat="42.02099943827498" lon="13.705421291429275"><ele>867.5</ele><time>2026-05-01T15:01:52.999Z</time></trkpt><trkpt lat="42.02107935043333" lon="13.705027277851812"><ele>867.0</ele><time>2026-05-01T15:01:53.999Z</time></trkpt><trkpt lat="42.02116177574536" lon="13.70463496322954"><ele>866.0</ele><time>2026-05-01T15:01:54.999Z</time></trkpt><trkpt lat="42.02124990218311" lon="13.704246052761901"><ele>865.0</ele><time>2026-05-01T15:01:55.999Z</time></trkpt><trkpt lat="42.02134365203332" lon="13.703861718183497"><ele>864.0</ele><time>2026-05-01T15:01:56.999Z</time></trkpt><trkpt lat="42.021440515473834" lon="13.703479042268569"><ele>863.0</ele><time>2026-05-01T15:01:57.999Z</time></trkpt><trkpt lat="42.02154008081421" lon="13.703097071528118"><ele>862.5</ele><time>2026-05-01T15:01:58.999Z</time></trkpt><trkpt lat="42.02164294466797" lon="13.70271548492462"><ele>862.0</ele><time>2026-05-01T15:01:59.999Z</time></trkpt><trkpt lat="42.02174963885251" lon="13.702335057433954"><ele>866.5</ele><time>2026-05-01T15:02:00.999Z</time></trkpt><trkpt lat="42.02186008041542" lon="13.70195627444844"><ele>871.0</ele><time>2026-05-01T15:02:01.999Z</time></trkpt><trkpt lat="42.02197636735245" lon="13.701577232712246"><ele>871.0</ele><time>2026-05-01T15:02:02.999Z</time></trkpt><trkpt lat="42.02209868480577" lon="13.70120067886137"><ele>871.0</ele><time>2026-05-01T15:02:03.999Z</time></trkpt><trkpt lat="42.022225323487476" lon="13.700824414019255"><ele>869.5</ele><time>2026-05-01T15:02:04.999Z</time></trkpt><trkpt lat="42.022355868003835" lon="13.700450456857393"><ele>868.0</ele><time>2026-05-01T15:02:05.999Z</time></trkpt><trkpt lat="42.022491720567366" lon="13.70007633803099"><ele>868.5</ele><time>2026-05-01T15:02:06.999Z</time></trkpt><trkpt lat="42.022629330364865" lon="13.699704427137362"><ele>869.0</ele><time>2026-05-01T15:02:07.999Z</time></trkpt><trkpt lat="42.022769420916234" lon="13.699333482041846"><ele>869.0</ele><time>2026-05-01T15:02:08.999Z</time></trkpt><trkpt lat="42.02291385545171" lon="13.698961383303399"><ele>869.0</ele><time>2026-05-01T15:02:09.999Z</time></trkpt><trkpt lat="42.02306162279831" lon="13.698588564984842"><ele>872.0</ele><time>2026-05-01T15:02:10.999Z</time></trkpt><trkpt lat="42.02321317651543" lon="13.698217531967567"><ele>875.0</ele><time>2026-05-01T15:02:11.999Z</time></trkpt><trkpt lat="42.02337039322081" lon="13.697846303779732"><ele>872.0</ele><time>2026-05-01T15:02:12.999Z</time></trkpt><trkpt lat="42.023528635325754" lon="13.69747443651596"><ele>869.0</ele><time>2026-05-01T15:02:13.999Z</time></trkpt><trkpt lat="42.02368897302008" lon="13.697103642372014"><ele>865.5</ele><time>2026-05-01T15:02:14.999Z</time></trkpt><trkpt lat="42.02385273565675" lon="13.696735523216626"><ele>862.0</ele><time>2026-05-01T15:02:15.999Z</time></trkpt><trkpt lat="42.02402435640988" lon="13.696370855639572"><ele>862.0</ele><time>2026-05-01T15:02:16.999Z</time></trkpt><trkpt lat="42.024202609934825" lon="13.69601193326452"><ele>862.0</ele><time>2026-05-01T15:02:17.999Z</time></trkpt><trkpt lat="42.02438473256049" lon="13.69565790180227"><ele>862.0</ele><time>2026-05-01T15:02:18.999Z</time></trkpt><trkpt lat="42.02457238642156" lon="13.695308718193862"><ele>862.0</ele><time>2026-05-01T15:02:19.999Z</time></trkpt><trkpt lat="42.0247625258907" lon="13.694960964060876"><ele>859.0</ele><time>2026-05-01T15:02:20.999Z</time></trkpt><trkpt lat="42.02495133973496" lon="13.694611403425844"><ele>856.0</ele><time>2026-05-01T15:02:21.999Z</time></trkpt><trkpt lat="42.02513953270418" lon="13.694259537682974"><ele>856.0</ele><time>2026-05-01T15:02:22.999Z</time></trkpt><trkpt lat="42.025325599646294" lon="13.693913957557186"><ele>856.0</ele><time>2026-05-01T15:02:23.999Z</time></trkpt><trkpt lat="42.02551236189764" lon="13.693571892108988"><ele>859.0</ele><time>2026-05-01T15:02:24.999Z</time></trkpt><trkpt lat="42.025698604096746" lon="13.693234366595235"><ele>862.0</ele><time>2026-05-01T15:02:25.999Z</time></trkpt><trkpt lat="42.0258849505181" lon="13.692900744497283"><ele>856.0</ele><time>2026-05-01T15:02:26.999Z</time></trkpt><trkpt lat="42.02606910461548" lon="13.692569133442243"><ele>850.0</ele><time>2026-05-01T15:02:27.999Z</time></trkpt><trkpt lat="42.02625178272242" lon="13.692238679903143"><ele>844.0</ele><time>2026-05-01T15:02:28.999Z</time></trkpt><trkpt lat="42.026434429425365" lon="13.69190662287023"><ele>838.0</ele><time>2026-05-01T15:02:29.999Z</time></trkpt><trkpt lat="42.026618809992286" lon="13.691573657860737"><ele>841.5</ele><time>2026-05-01T15:02:30.999Z</time></trkpt><trkpt lat="42.026804494573504" lon="13.691238443675807"><ele>845.0</ele><time>2026-05-01T15:02:31.999Z</time></trkpt><trkpt lat="42.026992221940056" lon="13.690901163347645"><ele>845.0</ele><time>2026-05-01T15:02:32.999Z</time></trkpt><trkpt lat="42.027180889739" lon="13.690564657701929"><ele>845.0</ele><time>2026-05-01T15:02:33.999Z</time></trkpt><trkpt lat="42.02736785863285" lon="13.690232011156223"><ele>849.5</ele><time>2026-05-01T15:02:34.999Z</time></trkpt><trkpt lat="42.027554675832114" lon="13.689897945676755"><ele>854.0</ele><time>2026-05-01T15:02:35.999Z</time></trkpt><trkpt lat="42.027740472160744" lon="13.689562092107904"><ele>848.0</ele><time>2026-05-01T15:02:36.999Z</time></trkpt><trkpt lat="42.02792669851066" lon="13.689229896958361"><ele>842.0</ele><time>2026-05-01T15:02:37.999Z</time></trkpt><trkpt lat="42.028114577661945" lon="13.688901776851393"><ele>842.5</ele><time>2026-05-01T15:02:38.999Z</time></trkpt><trkpt lat="42.02830037191831" lon="13.688574515357166"><ele>843.0</ele><time>2026-05-01T15:02:39.999Z</time></trkpt><trkpt lat="42.02848242896554" lon="13.688246346158342"><ele>848.0</ele><time>2026-05-01T15:02:40.999Z</time></trkpt><trkpt lat="42.02866266105582" lon="13.6879235691026"><ele>853.0</ele><time>2026-05-01T15:02:41.999Z</time></trkpt><trkpt lat="42.028840028889185" lon="13.687604235909616"><ele>853.0</ele><time>2026-05-01T15:02:42.999Z</time></trkpt><trkpt lat="42.029012193325556" lon="13.687284328692419"><ele>853.0</ele><time>2026-05-01T15:02:43.999Z</time></trkpt><trkpt lat="42.029183211194436" lon="13.686965128386438"><ele>852.0</ele><time>2026-05-01T15:02:44.999Z</time></trkpt><trkpt lat="42.02935586055061" lon="13.686647619573932"><ele>851.0</ele><time>2026-05-01T15:02:45.998Z</time></trkpt><trkpt lat="42.02952980160862" lon="13.686333770253228"><ele>848.5</ele><time>2026-05-01T15:02:46.998Z</time></trkpt><trkpt lat="42.02970565663945" lon="13.686024019599603"><ele>846.0</ele><time>2026-05-01T15:02:47.998Z</time></trkpt><trkpt lat="42.02988136159122" lon="13.685712092482468"><ele>849.0</ele><time>2026-05-01T15:02:48.998Z</time></trkpt><trkpt lat="42.0300547440584" lon="13.68539838948177"><ele>852.0</ele><time>2026-05-01T15:02:49.998Z</time></trkpt><trkpt lat="42.03022775986449" lon="13.685084697736661"><ele>852.0</ele><time>2026-05-01T15:02:50.998Z</time></trkpt><trkpt lat="42.03040281708945" lon="13.684772222711311"><ele>852.0</ele><time>2026-05-01T15:02:51.998Z</time></trkpt><trkpt lat="42.03057846371232" lon="13.684459145621123"><ele>852.0</ele><time>2026-05-01T15:02:52.998Z</time></trkpt><trkpt lat="42.030753633241844" lon="13.684144821939503"><ele>852.0</ele><time>2026-05-01T15:02:53.998Z</time></trkpt><trkpt lat="42.03092800324626" lon="13.683829114876175"><ele>852.5</ele><time>2026-05-01T15:02:54.998Z</time></trkpt><trkpt lat="42.0311004996588" lon="13.683509844153587"><ele>853.0</ele><time>2026-05-01T15:02:55.998Z</time></trkpt><trkpt lat="42.03127391325392" lon="13.683188515171846"><ele>853.0</ele><time>2026-05-01T15:02:56.998Z</time></trkpt><trkpt lat="42.03144647826403" lon="13.682863017864012"><ele>853.0</ele><time>2026-05-01T15:02:57.998Z</time></trkpt><trkpt lat="42.03162035428231" lon="13.68254100747249"><ele>853.0</ele><time>2026-05-01T15:02:58.998Z</time></trkpt><trkpt lat="42.03179427923223" lon="13.682215861948592"><ele>853.0</ele><time>2026-05-01T15:02:59.998Z</time></trkpt><trkpt lat="42.03196343225736" lon="13.68188915140879"><ele>853.0</ele><time>2026-05-01T15:03:00.998Z</time></trkpt><trkpt lat="42.03212852682535" lon="13.681560108589137"><ele>853.0</ele><time>2026-05-01T15:03:01.998Z</time></trkpt><trkpt lat="42.0322929158412" lon="13.68123033955369"><ele>854.5</ele><time>2026-05-01T15:03:02.998Z</time></trkpt><trkpt lat="42.03245482588687" lon="13.680896286864726"><ele>856.0</ele><time>2026-05-01T15:03:03.998Z</time></trkpt><trkpt lat="42.03261431248093" lon="13.680558625036895"><ele>855.0</ele><time>2026-05-01T15:03:04.998Z</time></trkpt><trkpt lat="42.032771768835076" lon="13.680218388178"><ele>854.0</ele><time>2026-05-01T15:03:05.998Z</time></trkpt><trkpt lat="42.03292330028223" lon="13.679872663980861"><ele>854.0</ele><time>2026-05-01T15:03:06.998Z</time></trkpt><trkpt lat="42.03306860340848" lon="13.679521535997234"><ele>854.0</ele><time>2026-05-01T15:03:07.998Z</time></trkpt><trkpt lat="42.03320738305619" lon="13.679165289655023"><ele>855.0</ele><time>2026-05-01T15:03:08.998Z</time></trkpt><trkpt lat="42.03334275902042" lon="13.6788058247889"><ele>856.0</ele><time>2026-05-01T15:03:09.998Z</time></trkpt><trkpt lat="42.03347148248886" lon="13.67844517241866"><ele>854.0</ele><time>2026-05-01T15:03:10.998Z</time></trkpt><trkpt lat="42.0335928700333" lon="13.678081176081673"><ele>852.0</ele><time>2026-05-01T15:03:11.998Z</time></trkpt><trkpt lat="42.03370786349882" lon="13.67771408501918"><ele>849.0</ele><time>2026-05-01T15:03:12.998Z</time></trkpt><trkpt lat="42.03381477277702" lon="13.677343526617738"><ele>846.0</ele><time>2026-05-01T15:03:13.998Z</time></trkpt><trkpt lat="42.03391450032527" lon="13.676970075241949"><ele>837.5</ele><time>2026-05-01T15:03:14.998Z</time></trkpt><trkpt lat="42.03400742936512" lon="13.67659187870687"><ele>829.0</ele><time>2026-05-01T15:03:15.998Z</time></trkpt><trkpt lat="42.03408965388645" lon="13.676213517196029"><ele>831.0</ele><time>2026-05-01T15:03:16.998Z</time></trkpt><trkpt lat="42.03416665573286" lon="13.67583711393307"><ele>833.0</ele><time>2026-05-01T15:03:17.998Z</time></trkpt><trkpt lat="42.03423470911972" lon="13.67546004072279"><ele>824.0</ele><time>2026-05-01T15:03:18.998Z</time></trkpt><trkpt lat="42.03429329111105" lon="13.675084398870132"><ele>815.0</ele><time>2026-05-01T15:03:19.998Z</time></trkpt><trkpt lat="42.034344591900854" lon="13.674708898153218"><ele>811.0</ele><time>2026-05-01T15:03:20.998Z</time></trkpt><trkpt lat="42.034387824482735" lon="13.674333981777671"><ele>807.0</ele><time>2026-05-01T15:03:21.998Z</time></trkpt><trkpt lat="42.034422262034674" lon="13.673959728219968"><ele>811.5</ele><time>2026-05-01T15:03:22.998Z</time></trkpt><trkpt lat="42.034452605034986" lon="13.673581849224972"><ele>816.0</ele><time>2026-05-01T15:03:24Z</time></trkpt><trkpt lat="42.03447951430769" lon="13.673206636258204"><ele>816.0</ele><time>2026-05-01T15:03:25Z</time></trkpt><trkpt lat="42.03450211304389" lon="13.672834453763667"><ele>816.0</ele><time>2026-05-01T15:03:26Z</time></trkpt><trkpt lat="42.03452117234122" lon="13.672460395898641"><ele>821.5</ele><time>2026-05-01T15:03:27Z</time></trkpt><trkpt lat="42.03453931203331" lon="13.672085304372688"><ele>827.0</ele><time>2026-05-01T15:03:28Z</time></trkpt><trkpt lat="42.034555767281844" lon="13.671708168246123"><ele>830.5</ele><time>2026-05-01T15:03:29Z</time></trkpt><trkpt lat="42.034571092675314" lon="13.671328318836746"><ele>834.0</ele><time>2026-05-01T15:03:30Z</time></trkpt><trkpt lat="42.034585908206964" lon="13.670946569130653"><ele>837.0</ele><time>2026-05-01T15:03:31Z</time></trkpt><trkpt lat="42.03460430637356" lon="13.670564313426446"><ele>840.0</ele><time>2026-05-01T15:03:32Z</time></trkpt><trkpt lat="42.034625309244404" lon="13.670181268524697"><ele>842.5</ele><time>2026-05-01T15:03:33Z</time></trkpt><trkpt lat="42.034650019399386" lon="13.669798946460979"><ele>845.0</ele><time>2026-05-01T15:03:34Z</time></trkpt><trkpt lat="42.03468100349735" lon="13.66941782405688"><ele>847.0</ele><time>2026-05-01T15:03:35Z</time></trkpt><trkpt lat="42.03471729781215" lon="13.669033962848033"><ele>849.0</ele><time>2026-05-01T15:03:36Z</time></trkpt><trkpt lat="42.034759156852665" lon="13.66865337339265"><ele>851.5</ele><time>2026-05-01T15:03:37Z</time></trkpt><trkpt lat="42.03480761621704" lon="13.668274351991668"><ele>854.0</ele><time>2026-05-01T15:03:38Z</time></trkpt><trkpt lat="42.034864263331556" lon="13.667896117251654"><ele>852.5</ele><time>2026-05-01T15:03:39Z</time></trkpt><trkpt lat="42.034930162921825" lon="13.667520894398113"><ele>851.0</ele><time>2026-05-01T15:03:40Z</time></trkpt><trkpt lat="42.035004200218935" lon="13.667147984476978"><ele>853.5</ele><time>2026-05-01T15:03:41Z</time></trkpt><trkpt lat="42.03508706857252" lon="13.666776236103034"><ele>856.0</ele><time>2026-05-01T15:03:42Z</time></trkpt><trkpt lat="42.03517540071845" lon="13.666407345972454"><ele>856.5</ele><time>2026-05-01T15:03:43Z</time></trkpt><trkpt lat="42.03526946404074" lon="13.666039774115273"><ele>857.0</ele><time>2026-05-01T15:03:44Z</time></trkpt><trkpt lat="42.035369741964324" lon="13.665677810117087"><ele>857.0</ele><time>2026-05-01T15:03:45Z</time></trkpt><trkpt lat="42.03547768306586" lon="13.66531910412909"><ele>857.0</ele><time>2026-05-01T15:03:46Z</time></trkpt><trkpt lat="42.03559359058977" lon="13.664967616331637"><ele>857.5</ele><time>2026-05-01T15:03:46.999Z</time></trkpt><trkpt lat="42.03571698958111" lon="13.664619483061667"><ele>858.0</ele><time>2026-05-01T15:03:47.999Z</time></trkpt><trkpt lat="42.03584627272161" lon="13.664273878561083"><ele>858.0</ele><time>2026-05-01T15:03:48.999Z</time></trkpt><trkpt lat="42.03598297139179" lon="13.663931674114112"><ele>858.0</ele><time>2026-05-01T15:03:49.999Z</time></trkpt><trkpt lat="42.03612723979595" lon="13.663595958346004"><ele>859.5</ele><time>2026-05-01T15:03:50.999Z</time></trkpt><trkpt lat="42.036280043911574" lon="13.663268020927958"><ele>861.0</ele><time>2026-05-01T15:03:51.999Z</time></trkpt><trkpt lat="42.03643926221475" lon="13.662943666534726"><ele>862.0</ele><time>2026-05-01T15:03:52.999Z</time></trkpt><trkpt lat="42.03660417601448" lon="13.662624207715174"><ele>863.0</ele><time>2026-05-01T15:03:53.999Z</time></trkpt><trkpt lat="42.03677633413537" lon="13.66231072871408"><ele>863.0</ele><time>2026-05-01T15:03:54.999Z</time></trkpt><trkpt lat="42.03695088682911" lon="13.66200216293584"><ele>863.0</ele><time>2026-05-01T15:03:55.999Z</time></trkpt><trkpt lat="42.03713276858266" lon="13.661699722124252"><ele>864.5</ele><time>2026-05-01T15:03:56.999Z</time></trkpt><trkpt lat="42.03732299202561" lon="13.66140692911502"><ele>866.0</ele><time>2026-05-01T15:03:57.999Z</time></trkpt><trkpt lat="42.03751766384863" lon="13.661119604836518"><ele>865.0</ele><time>2026-05-01T15:03:58.999Z</time></trkpt><trkpt lat="42.037719551996176" lon="13.660839410047519"><ele>864.0</ele><time>2026-05-01T15:03:59.999Z</time></trkpt><trkpt lat="42.037925758865484" lon="13.660565073780877"><ele>864.0</ele><time>2026-05-01T15:04:00.999Z</time></trkpt><trkpt lat="42.03813759079037" lon="13.66029630546061"><ele>864.0</ele><time>2026-05-01T15:04:01.999Z</time></trkpt><trkpt lat="42.03835437058571" lon="13.660036018821971"><ele>864.0</ele><time>2026-05-01T15:04:02.999Z</time></trkpt><trkpt lat="42.03857544027868" lon="13.659782464560877"><ele>864.0</ele><time>2026-05-01T15:04:03.999Z</time></trkpt><trkpt lat="42.03880415230054" lon="13.659542815395579"><ele>863.0</ele><time>2026-05-01T15:04:04.999Z</time></trkpt><trkpt lat="42.03903827877168" lon="13.659308406022284"><ele>862.0</ele><time>2026-05-01T15:04:05.999Z</time></trkpt><trkpt lat="42.03927677481216" lon="13.65908189884001"><ele>861.0</ele><time>2026-05-01T15:04:06.999Z</time></trkpt><trkpt lat="42.039520784584376" lon="13.658862474190624"><ele>860.0</ele><time>2026-05-01T15:04:07.999Z</time></trkpt><trkpt lat="42.03977099973432" lon="13.6586529726457"><ele>858.5</ele><time>2026-05-01T15:04:08.999Z</time></trkpt><trkpt lat="42.040024994990254" lon="13.658451453054994"><ele>857.0</ele><time>2026-05-01T15:04:09.999Z</time></trkpt><trkpt lat="42.040282188724845" lon="13.65825851072648"><ele>857.0</ele><time>2026-05-01T15:04:10.999Z</time></trkpt><trkpt lat="42.0405452835337" lon="13.658072899529877"><ele>857.0</ele><time>2026-05-01T15:04:11.999Z</time></trkpt><trkpt lat="42.04081271567628" lon="13.657894334901293"><ele>857.5</ele><time>2026-05-01T15:04:12.999Z</time></trkpt><trkpt lat="42.041084295224216" lon="13.657728335717929"><ele>858.0</ele><time>2026-05-01T15:04:13.999Z</time></trkpt><trkpt lat="42.041358695980314" lon="13.657574914479682"><ele>859.0</ele><time>2026-05-01T15:04:14.999Z</time></trkpt><trkpt lat="42.04163656461202" lon="13.657429289329185"><ele>860.0</ele><time>2026-05-01T15:04:15.999Z</time></trkpt><trkpt lat="42.04191615316296" lon="13.657285605082583"><ele>860.0</ele><time>2026-05-01T15:04:16.999Z</time></trkpt><trkpt lat="42.042195606129795" lon="13.657145970611284"><ele>860.0</ele><time>2026-05-01T15:04:17.999Z</time></trkpt><trkpt lat="42.042474801283404" lon="13.657007250108718"><ele>858.5</ele><time>2026-05-01T15:04:18.999Z</time></trkpt><trkpt lat="42.04275247685205" lon="13.656866126702727"><ele>857.0</ele><time>2026-05-01T15:04:19.999Z</time></trkpt><trkpt lat="42.0430287736416" lon="13.656727291431372"><ele>856.0</ele><time>2026-05-01T15:04:20.999Z</time></trkpt><trkpt lat="42.04330590318648" lon="13.656592730578312"><ele>855.0</ele><time>2026-05-01T15:04:21.999Z</time></trkpt><trkpt lat="42.043584577789744" lon="13.656461847732581"><ele>855.0</ele><time>2026-05-01T15:04:22.999Z</time></trkpt><trkpt lat="42.043861273983744" lon="13.656329838974507"><ele>855.0</ele><time>2026-05-01T15:04:23.999Z</time></trkpt><trkpt lat="42.0441341171622" lon="13.656193577182833"><ele>852.5</ele><time>2026-05-01T15:04:24.999Z</time></trkpt><trkpt lat="42.044404596440636" lon="13.656052658394383"><ele>850.0</ele><time>2026-05-01T15:04:25.999Z</time></trkpt><trkpt lat="42.04467452580839" lon="13.65590689527092"><ele>850.0</ele><time>2026-05-01T15:04:26.999Z</time></trkpt><trkpt lat="42.04494287695421" lon="13.655752756420565"><ele>850.0</ele><time>2026-05-01T15:04:27.999Z</time></trkpt><trkpt lat="42.04520951746752" lon="13.655592288306359"><ele>851.0</ele><time>2026-05-01T15:04:28.999Z</time></trkpt><trkpt lat="42.04547365905751" lon="13.655423361319563"><ele>852.0</ele><time>2026-05-01T15:04:29.999Z</time></trkpt><trkpt lat="42.04573332722671" lon="13.6552436811967"><ele>850.5</ele><time>2026-05-01T15:04:30.999Z</time></trkpt><trkpt lat="42.04598933976368" lon="13.655051289200696"><ele>849.0</ele><time>2026-05-01T15:04:31.999Z</time></trkpt><trkpt lat="42.04624154106585" lon="13.654851963007392"><ele>849.0</ele><time>2026-05-01T15:04:32.999Z</time></trkpt><trkpt lat="42.04649155867213" lon="13.654645590406595"><ele>849.0</ele><time>2026-05-01T15:04:33.999Z</time></trkpt><trkpt lat="42.04673866666017" lon="13.65442991029525"><ele>851.5</ele><time>2026-05-01T15:04:34.999Z</time></trkpt><trkpt lat="42.046979513608925" lon="13.654203862387195"><ele>854.0</ele><time>2026-05-01T15:04:35.999Z</time></trkpt><trkpt lat="42.047214691239915" lon="13.653967610070335"><ele>854.0</ele><time>2026-05-01T15:04:36.999Z</time></trkpt><trkpt lat="42.04744827315893" lon="13.653721652258298"><ele>854.0</ele><time>2026-05-01T15:04:37.999Z</time></trkpt><trkpt lat="42.04767967780242" lon="13.65346851598194"><ele>853.0</ele><time>2026-05-01T15:04:38.999Z</time></trkpt><trkpt lat="42.04790778487082" lon="13.653209439851889"><ele>852.0</ele><time>2026-05-01T15:04:39.999Z</time></trkpt><trkpt lat="42.048132426940874" lon="13.652941860305436"><ele>850.5</ele><time>2026-05-01T15:04:40.999Z</time></trkpt><trkpt lat="42.04835345821065" lon="13.652665414548098"><ele>849.0</ele><time>2026-05-01T15:04:41.999Z</time></trkpt><trkpt lat="42.048571621487255" lon="13.652383893802371"><ele>849.0</ele><time>2026-05-01T15:04:42.999Z</time></trkpt><trkpt lat="42.04878644102612" lon="13.652096149883588"><ele>849.0</ele><time>2026-05-01T15:04:43.999Z</time></trkpt><trkpt lat="42.04899742216161" lon="13.65180278417492"><ele>849.5</ele><time>2026-05-01T15:04:44.999Z</time></trkpt><trkpt lat="42.04920549939817" lon="13.65151042649911"><ele>850.0</ele><time>2026-05-01T15:04:45.999Z</time></trkpt><trkpt lat="42.049411590251246" lon="13.651219366116926"><ele>848.5</ele><time>2026-05-01T15:04:46.998Z</time></trkpt><trkpt lat="42.049616766845155" lon="13.65092753207018"><ele>847.0</ele><time>2026-05-01T15:04:47.998Z</time></trkpt><trkpt lat="42.049820154645275" lon="13.650632293169254"><ele>847.5</ele><time>2026-05-01T15:04:48.998Z</time></trkpt><trkpt lat="42.0500216417747" lon="13.650332007156846"><ele>848.0</ele><time>2026-05-01T15:04:49.998Z</time></trkpt><trkpt lat="42.05021883029365" lon="13.650028480347283"><ele>848.0</ele><time>2026-05-01T15:04:50.998Z</time></trkpt><trkpt lat="42.05041601304471" lon="13.649725355137447"><ele>848.0</ele><time>2026-05-01T15:04:51.998Z</time></trkpt><trkpt lat="42.05061196960505" lon="13.649422649709496"><ele>848.0</ele><time>2026-05-01T15:04:52.998Z</time></trkpt><trkpt lat="42.05080497770269" lon="13.64911586406962"><ele>848.0</ele><time>2026-05-01T15:04:53.998Z</time></trkpt><trkpt lat="42.050993354854086" lon="13.648805913879988"><ele>846.0</ele><time>2026-05-01T15:04:54.998Z</time></trkpt><trkpt lat="42.051179997527065" lon="13.648495453321907"><ele>844.0</ele><time>2026-05-01T15:04:55.998Z</time></trkpt><trkpt lat="42.05136519963733" lon="13.648183910079972"><ele>844.0</ele><time>2026-05-01T15:04:56.998Z</time></trkpt><trkpt lat="42.051547372966866" lon="13.647870660045895"><ele>844.0</ele><time>2026-05-01T15:04:57.998Z</time></trkpt><trkpt lat="42.051726945848735" lon="13.647555676551383"><ele>846.0</ele><time>2026-05-01T15:04:58.998Z</time></trkpt><trkpt lat="42.051905633970044" lon="13.647241020433865"><ele>848.0</ele><time>2026-05-01T15:04:59.998Z</time></trkpt><trkpt lat="42.05208273516175" lon="13.646922649921116"><ele>848.0</ele><time>2026-05-01T15:05:00.998Z</time></trkpt><trkpt lat="42.052259240663766" lon="13.646599257954458"><ele>848.0</ele><time>2026-05-01T15:05:01.998Z</time></trkpt><trkpt lat="42.05243384389202" lon="13.646271249886764"><ele>850.0</ele><time>2026-05-01T15:05:02.998Z</time></trkpt><trkpt lat="42.052608028109745" lon="13.645938326547512"><ele>852.0</ele><time>2026-05-01T15:05:03.998Z</time></trkpt><trkpt lat="42.052782353834836" lon="13.645603920553585"><ele>852.0</ele><time>2026-05-01T15:05:04.998Z</time></trkpt><trkpt lat="42.052954159940505" lon="13.645267061566363"><ele>852.0</ele><time>2026-05-01T15:05:05.998Z</time></trkpt><trkpt lat="42.05312425746401" lon="13.644925680235087"><ele>851.0</ele><time>2026-05-01T15:05:06.998Z</time></trkpt><trkpt lat="42.053291851077844" lon="13.64457961796757"><ele>850.0</ele><time>2026-05-01T15:05:07.998Z</time></trkpt><trkpt lat="42.05345738121831" lon="13.64423088447748"><ele>847.0</ele><time>2026-05-01T15:05:08.998Z</time></trkpt><trkpt lat="42.05362091388079" lon="13.643878575886884"><ele>844.0</ele><time>2026-05-01T15:05:09.998Z</time></trkpt><trkpt lat="42.05378407258504" lon="13.643522142289571"><ele>839.5</ele><time>2026-05-01T15:05:10.998Z</time></trkpt><trkpt lat="42.05394595070598" lon="13.643164960909141"><ele>835.0</ele><time>2026-05-01T15:05:11.998Z</time></trkpt><trkpt lat="42.05410547854351" lon="13.642808659769672"><ele>838.5</ele><time>2026-05-01T15:05:12.998Z</time></trkpt><trkpt lat="42.054263648702246" lon="13.642449099723605"><ele>842.0</ele><time>2026-05-01T15:05:13.998Z</time></trkpt><trkpt lat="42.054420353572446" lon="13.642087339334546"><ele>839.5</ele><time>2026-05-01T15:05:14.998Z</time></trkpt><trkpt lat="42.05457293486708" lon="13.641722317735706"><ele>837.0</ele><time>2026-05-01T15:05:15.998Z</time></trkpt><trkpt lat="42.054721764318124" lon="13.64135642608697"><ele>836.5</ele><time>2026-05-01T15:05:16.998Z</time></trkpt><trkpt lat="42.05486678163865" lon="13.640984872838727"><ele>836.0</ele><time>2026-05-01T15:05:17.998Z</time></trkpt><trkpt lat="42.05500896949924" lon="13.640609661100825"><ele>836.5</ele><time>2026-05-01T15:05:18.998Z</time></trkpt><trkpt lat="42.055145100399535" lon="13.640233352101635"><ele>837.0</ele><time>2026-05-01T15:05:19.998Z</time></trkpt><trkpt lat="42.05527673112938" lon="13.639851338686892"><ele>837.0</ele><time>2026-05-01T15:05:20.998Z</time></trkpt><trkpt lat="42.055402726225374" lon="13.639467466404513"><ele>837.0</ele><time>2026-05-01T15:05:21.998Z</time></trkpt><trkpt lat="42.055524965786184" lon="13.639079979577314"><ele>834.5</ele><time>2026-05-01T15:05:22.998Z</time></trkpt><trkpt lat="42.05564233530755" lon="13.638688524479015"><ele>832.0</ele><time>2026-05-01T15:05:23.998Z</time></trkpt><trkpt lat="42.05575356366517" lon="13.638292626557428"><ele>829.5</ele><time>2026-05-01T15:05:24.998Z</time></trkpt><trkpt lat="42.05585588622299" lon="13.63789386700382"><ele>827.0</ele><time>2026-05-01T15:05:25.998Z</time></trkpt><trkpt lat="42.05594915336549" lon="13.637493929217943"><ele>825.0</ele><time>2026-05-01T15:05:26.998Z</time></trkpt><trkpt lat="42.056033899473654" lon="13.637090292841254"><ele>823.0</ele><time>2026-05-01T15:05:27.998Z</time></trkpt><trkpt lat="42.0561104983044" lon="13.636686765230587"><ele>820.5</ele><time>2026-05-01T15:05:28.998Z</time></trkpt><trkpt lat="42.056179414960575" lon="13.636281990075872"><ele>818.0</ele><time>2026-05-01T15:05:30Z</time></trkpt><trkpt lat="42.05624035653618" lon="13.635879216673294"><ele>817.5</ele><time>2026-05-01T15:05:31Z</time></trkpt><trkpt lat="42.056295724714815" lon="13.63547178116885"><ele>817.0</ele><time>2026-05-01T15:05:32Z</time></trkpt><trkpt lat="42.056341104555784" lon="13.635063729255503"><ele>817.0</ele><time>2026-05-01T15:05:33Z</time></trkpt><trkpt lat="42.05637701990881" lon="13.6346543330437"><ele>817.0</ele><time>2026-05-01T15:05:34Z</time></trkpt><trkpt lat="42.056404821374954" lon="13.634241480980046"><ele>814.5</ele><time>2026-05-01T15:05:35Z</time></trkpt><trkpt lat="42.056425401991184" lon="13.633828630199101"><ele>812.0</ele><time>2026-05-01T15:05:36Z</time></trkpt><trkpt lat="42.05643461498974" lon="13.633415486839322"><ele>807.5</ele><time>2026-05-01T15:05:37Z</time></trkpt><trkpt lat="42.05643648481528" lon="13.632998900045408"><ele>803.0</ele><time>2026-05-01T15:05:38Z</time></trkpt><trkpt lat="42.05642949283426" lon="13.632582417633607"><ele>797.5</ele><time>2026-05-01T15:05:39Z</time></trkpt><trkpt lat="42.05641325305051" lon="13.63216554464416"><ele>792.0</ele><time>2026-05-01T15:05:40Z</time></trkpt><trkpt lat="42.056387752361296" lon="13.63174826073627"><ele>787.0</ele><time>2026-05-01T15:05:41Z</time></trkpt><trkpt lat="42.05635239283129" lon="13.63133244243174"><ele>782.0</ele><time>2026-05-01T15:05:42Z</time></trkpt><trkpt lat="42.0563091595798" lon="13.630916685506621"><ele>781.5</ele><time>2026-05-01T15:05:43Z</time></trkpt><trkpt lat="42.05625760244582" lon="13.630503047322774"><ele>781.0</ele><time>2026-05-01T15:05:44Z</time></trkpt><trkpt lat="42.056201813953585" lon="13.630090726018674"><ele>781.0</ele><time>2026-05-01T15:05:45Z</time></trkpt><trkpt lat="42.05614216678502" lon="13.629677938477574"><ele>781.0</ele><time>2026-05-01T15:05:45.999Z</time></trkpt><trkpt lat="42.05607597919313" lon="13.629269075337454"><ele>786.5</ele><time>2026-05-01T15:05:46.999Z</time></trkpt><trkpt lat="42.05600724867933" lon="13.628862000352237"><ele>792.0</ele><time>2026-05-01T15:05:47.999Z</time></trkpt><trkpt lat="42.055936842378586" lon="13.628453996392233"><ele>796.5</ele><time>2026-05-01T15:05:48.999Z</time></trkpt><trkpt lat="42.055866409463526" lon="13.628047828441899"><ele>801.0</ele><time>2026-05-01T15:05:49.999Z</time></trkpt><trkpt lat="42.055796853460976" lon="13.627642474463718"><ele>797.5</ele><time>2026-05-01T15:05:50.999Z</time></trkpt><trkpt lat="42.05572817677405" lon="13.627238963771342"><ele>794.0</ele><time>2026-05-01T15:05:51.999Z</time></trkpt><trkpt lat="42.05566047581178" lon="13.62683534244787"><ele>794.0</ele><time>2026-05-01T15:05:52.999Z</time></trkpt><trkpt lat="42.05559460413495" lon="13.626433122080986"><ele>794.0</ele><time>2026-05-01T15:05:53.999Z</time></trkpt><trkpt lat="42.05553168778814" lon="13.626032263850128"><ele>794.5</ele><time>2026-05-01T15:05:54.999Z</time></trkpt><trkpt lat="42.05547247615632" lon="13.625630540717484"><ele>795.0</ele><time>2026-05-01T15:05:55.999Z</time></trkpt><trkpt lat="42.05541759146374" lon="13.62522805250472"><ele>799.5</ele><time>2026-05-01T15:05:56.999Z</time></trkpt><trkpt lat="42.05536960492511" lon="13.624822535941382"><ele>804.0</ele><time>2026-05-01T15:05:57.999Z</time></trkpt><trkpt lat="42.05532793670687" lon="13.624414493639778"><ele>807.0</ele><time>2026-05-01T15:05:58.999Z</time></trkpt><trkpt lat="42.05529185330826" lon="13.624006273052764"><ele>810.0</ele><time>2026-05-01T15:05:59.999Z</time></trkpt><trkpt lat="42.05526589338707" lon="13.62359501375753"><ele>810.0</ele><time>2026-05-01T15:06:00.999Z</time></trkpt><trkpt lat="42.05524886452082" lon="13.623180479333287"><ele>810.0</ele><time>2026-05-01T15:06:01.999Z</time></trkpt><trkpt lat="42.05524369758605" lon="13.62276407461038"><ele>809.0</ele><time>2026-05-01T15:06:02.999Z</time></trkpt><trkpt lat="42.055245503953564" lon="13.622348059078826"><ele>808.0</ele><time>2026-05-01T15:06:03.999Z</time></trkpt><trkpt lat="42.05525600495817" lon="13.621931038534417"><ele>807.5</ele><time>2026-05-01T15:06:04.999Z</time></trkpt><trkpt lat="42.055274765628845" lon="13.621512247814278"><ele>807.0</ele><time>2026-05-01T15:06:05.999Z</time></trkpt><trkpt lat="42.05530153881367" lon="13.621094111111388"><ele>806.5</ele><time>2026-05-01T15:06:06.999Z</time></trkpt><trkpt lat="42.05533502537145" lon="13.62068041093655"><ele>806.0</ele><time>2026-05-01T15:06:07.999Z</time></trkpt><trkpt lat="42.05537817805681" lon="13.620266656238194"><ele>803.5</ele><time>2026-05-01T15:06:08.999Z</time></trkpt><trkpt lat="42.05543251498321" lon="13.619855778431267"><ele>801.0</ele><time>2026-05-01T15:06:09.999Z</time></trkpt><trkpt lat="42.055496172597664" lon="13.61944746497622"><ele>796.5</ele><time>2026-05-01T15:06:10.999Z</time></trkpt><trkpt lat="42.05556957700282" lon="13.619038358338997"><ele>792.0</ele><time>2026-05-01T15:06:11.999Z</time></trkpt><trkpt lat="42.05565072885533" lon="13.618630727806734"><ele>789.5</ele><time>2026-05-01T15:06:12.999Z</time></trkpt><trkpt lat="42.05573807614865" lon="13.618226354214514"><ele>787.0</ele><time>2026-05-01T15:06:13.999Z</time></trkpt><trkpt lat="42.05583188965884" lon="13.617824710577803"><ele>792.0</ele><time>2026-05-01T15:06:14.999Z</time></trkpt><trkpt lat="42.05593108283789" lon="13.617428219947012"><ele>797.0</ele><time>2026-05-01T15:06:15.999Z</time></trkpt><trkpt lat="42.056035083453274" lon="13.61703043299699"><ele>794.5</ele><time>2026-05-01T15:06:16.999Z</time></trkpt><trkpt lat="42.05614189943461" lon="13.616633541206872"><ele>792.0</ele><time>2026-05-01T15:06:17.999Z</time></trkpt><trkpt lat="42.05625262194079" lon="13.616235924217882"><ele>789.0</ele><time>2026-05-01T15:06:18.999Z</time></trkpt><trkpt lat="42.05636688514708" lon="13.615838293780277"><ele>786.0</ele><time>2026-05-01T15:06:19.999Z</time></trkpt><trkpt lat="42.05648308498406" lon="13.615440437165686"><ele>784.5</ele><time>2026-05-01T15:06:20.999Z</time></trkpt><trkpt lat="42.0565999264296" lon="13.61504338432149"><ele>783.0</ele><time>2026-05-01T15:06:21.999Z</time></trkpt><trkpt lat="42.05671727316093" lon="13.614646750626928"><ele>783.0</ele><time>2026-05-01T15:06:22.999Z</time></trkpt><trkpt lat="42.05683434905705" lon="13.614248599055294"><ele>783.0</ele><time>2026-05-01T15:06:23.999Z</time></trkpt><trkpt lat="42.05695034265157" lon="13.613849386714342"><ele>779.0</ele><time>2026-05-01T15:06:24.999Z</time></trkpt><trkpt lat="42.05706467078475" lon="13.613450402734758"><ele>775.0</ele><time>2026-05-01T15:06:25.999Z</time></trkpt><trkpt lat="42.057177438761656" lon="13.613050047822995"><ele>770.0</ele><time>2026-05-01T15:06:26.999Z</time></trkpt><trkpt lat="42.05728718358696" lon="13.612648653170455"><ele>765.0</ele><time>2026-05-01T15:06:27.999Z</time></trkpt><trkpt lat="42.057392899409834" lon="13.612246402203871"><ele>760.5</ele><time>2026-05-01T15:06:28.999Z</time></trkpt><trkpt lat="42.0574937911478" lon="13.611842802207619"><ele>756.0</ele><time>2026-05-01T15:06:29.999Z</time></trkpt><trkpt lat="42.057588578380624" lon="13.611436674202787"><ele>752.5</ele><time>2026-05-01T15:06:30.999Z</time></trkpt><trkpt lat="42.05767877083739" lon="13.611030563025537"><ele>749.0</ele><time>2026-05-01T15:06:31.999Z</time></trkpt><trkpt lat="42.05776618166577" lon="13.610624408548686"><ele>748.5</ele><time>2026-05-01T15:06:32.999Z</time></trkpt><trkpt lat="42.05784637350201" lon="13.610217449050305"><ele>748.0</ele><time>2026-05-01T15:06:33.999Z</time></trkpt><trkpt lat="42.05791897360483" lon="13.609807151942455"><ele>750.5</ele><time>2026-05-01T15:06:34.999Z</time></trkpt><trkpt lat="42.05798919154371" lon="13.609392567769063"><ele>753.0</ele><time>2026-05-01T15:06:35.999Z</time></trkpt><trkpt lat="42.05805896524856" lon="13.60898009134495"><ele>756.5</ele><time>2026-05-01T15:06:36.999Z</time></trkpt><trkpt lat="42.05812771389595" lon="13.60856362205468"><ele>760.0</ele><time>2026-05-01T15:06:37.999Z</time></trkpt><trkpt lat="42.05819408838271" lon="13.608146449502783"><ele>759.5</ele><time>2026-05-01T15:06:38.999Z</time></trkpt><trkpt lat="42.058261855363554" lon="13.60772799841746"><ele>759.0</ele><time>2026-05-01T15:06:39.999Z</time></trkpt><trkpt lat="42.05833138614799" lon="13.607308727977253"><ele>761.5</ele><time>2026-05-01T15:06:40.999Z</time></trkpt><trkpt lat="42.05840046591961" lon="13.60688755452373"><ele>764.0</ele><time>2026-05-01T15:06:41.999Z</time></trkpt><trkpt lat="42.058464877094984" lon="13.606465639306382"><ele>762.5</ele><time>2026-05-01T15:06:42.999Z</time></trkpt><trkpt lat="42.05852185325353" lon="13.606039901902827"><ele>761.0</ele><time>2026-05-01T15:06:43.999Z</time></trkpt><trkpt lat="42.058571595465075" lon="13.605612692540383"><ele>758.5</ele><time>2026-05-01T15:06:44.999Z</time></trkpt><trkpt lat="42.058615287721935" lon="13.6051834099623"><ele>756.0</ele><time>2026-05-01T15:06:45.999Z</time></trkpt><trkpt lat="42.058654146081224" lon="13.604753601484942"><ele>754.0</ele><time>2026-05-01T15:06:46.999Z</time></trkpt><trkpt lat="42.058689849077744" lon="13.604325863205329"><ele>752.0</ele><time>2026-05-01T15:06:47.998Z</time></trkpt><trkpt lat="42.05872281986517" lon="13.603898475335939"><ele>749.5</ele><time>2026-05-01T15:06:48.998Z</time></trkpt><trkpt lat="42.058753095812826" lon="13.603470071388779"><ele>747.0</ele><time>2026-05-01T15:06:49.998Z</time></trkpt><trkpt lat="42.05877885864265" lon="13.60304454232387"><ele>744.5</ele><time>2026-05-01T15:06:50.998Z</time></trkpt><trkpt lat="42.05880057558524" lon="13.602618435850937"><ele>742.0</ele><time>2026-05-01T15:06:51.998Z</time></trkpt><trkpt lat="42.058818937539584" lon="13.602193821704448"><ele>742.0</ele><time>2026-05-01T15:06:52.998Z</time></trkpt><trkpt lat="42.05883304401423" lon="13.601770532535703"><ele>742.0</ele><time>2026-05-01T15:06:53.998Z</time></trkpt><trkpt lat="42.05884137378022" lon="13.601350133913538"><ele>744.0</ele><time>2026-05-01T15:06:54.998Z</time></trkpt><trkpt lat="42.05884820083834" lon="13.600927973984037"><ele>746.0</ele><time>2026-05-01T15:06:55.998Z</time></trkpt><trkpt lat="42.05885257002738" lon="13.600506335810305"><ele>745.5</ele><time>2026-05-01T15:06:56.998Z</time></trkpt><trkpt lat="42.05885414405701" lon="13.600084546617792"><ele>745.0</ele><time>2026-05-01T15:06:57.998Z</time></trkpt><trkpt lat="42.05885464090489" lon="13.599660888589703"><ele>743.5</ele><time>2026-05-01T15:06:58.998Z</time></trkpt><trkpt lat="42.05884994990426" lon="13.599235970835121"><ele>742.0</ele><time>2026-05-01T15:06:59.998Z</time></trkpt><trkpt lat="42.05884532517702" lon="13.598811304711813"><ele>740.5</ele><time>2026-05-01T15:07:00.998Z</time></trkpt><trkpt lat="42.05883930340294" lon="13.598387737440996"><ele>739.0</ele><time>2026-05-01T15:07:01.998Z</time></trkpt><trkpt lat="42.05883494514244" lon="13.59796297112585"><ele>738.5</ele><time>2026-05-01T15:07:02.998Z</time></trkpt><trkpt lat="42.05882998359572" lon="13.597539546974945"><ele>738.0</ele><time>2026-05-01T15:07:03.998Z</time></trkpt><trkpt lat="42.05882570543454" lon="13.597115305295274"><ele>738.0</ele><time>2026-05-01T15:07:04.998Z</time></trkpt><trkpt lat="42.05882246953559" lon="13.596689643780886"><ele>738.0</ele><time>2026-05-01T15:07:05.998Z</time></trkpt><trkpt lat="42.05881624062792" lon="13.596264737610541"><ele>737.0</ele><time>2026-05-01T15:07:06.998Z</time></trkpt><trkpt lat="42.05881161701572" lon="13.595841119089544"><ele>736.0</ele><time>2026-05-01T15:07:07.998Z</time></trkpt><trkpt lat="42.05880851967432" lon="13.595413890839549"><ele>735.5</ele><time>2026-05-01T15:07:08.998Z</time></trkpt><trkpt lat="42.05880468004735" lon="13.594990302799296"><ele>735.0</ele><time>2026-05-01T15:07:09.998Z</time></trkpt><trkpt lat="42.058803109700996" lon="13.594566528686103"><ele>734.0</ele><time>2026-05-01T15:07:10.998Z</time></trkpt><trkpt lat="42.058806843435555" lon="13.594137696542166"><ele>733.0</ele><time>2026-05-01T15:07:11.998Z</time></trkpt><trkpt lat="42.05881026738034" lon="13.59371145518008"><ele>730.5</ele><time>2026-05-01T15:07:12.998Z</time></trkpt><trkpt lat="42.05881435225251" lon="13.593284385167994"><ele>728.0</ele><time>2026-05-01T15:07:13.998Z</time></trkpt><trkpt lat="42.05881955371277" lon="13.592857876019389"><ele>727.5</ele><time>2026-05-01T15:07:14.998Z</time></trkpt><trkpt lat="42.05883033660078" lon="13.592432851161956"><ele>727.0</ele><time>2026-05-01T15:07:15.998Z</time></trkpt><trkpt lat="42.058845124178006" lon="13.592009549383745"><ele>728.5</ele><time>2026-05-01T15:07:16.998Z</time></trkpt><trkpt lat="42.058863234800235" lon="13.591586555973556"><ele>730.0</ele><time>2026-05-01T15:07:17.998Z</time></trkpt><trkpt lat="42.05888395938578" lon="13.591164259079383"><ele>730.0</ele><time>2026-05-01T15:07:18.998Z</time></trkpt><trkpt lat="42.05890976354914" lon="13.590743068414957"><ele>730.0</ele><time>2026-05-01T15:07:19.998Z</time></trkpt><trkpt lat="42.05893938061209" lon="13.590320195200494"><ele>730.0</ele><time>2026-05-01T15:07:20.998Z</time></trkpt><trkpt lat="42.05897199269516" lon="13.58989830685366"><ele>730.0</ele><time>2026-05-01T15:07:21.998Z</time></trkpt><trkpt lat="42.059008647088284" lon="13.589476815964273"><ele>727.0</ele><time>2026-05-01T15:07:22.998Z</time></trkpt><trkpt lat="42.05905066630607" lon="13.58905729260505"><ele>724.0</ele><time>2026-05-01T15:07:23.998Z</time></trkpt><trkpt lat="42.05909562362963" lon="13.588639047853837"><ele>725.0</ele><time>2026-05-01T15:07:24.998Z</time></trkpt><trkpt lat="42.059140432747114" lon="13.588219230848935"><ele>726.0</ele><time>2026-05-01T15:07:25.998Z</time></trkpt><trkpt lat="42.05918863583554" lon="13.58780416437164"><ele>726.0</ele><time>2026-05-01T15:07:26.998Z</time></trkpt><trkpt lat="42.05923782944337" lon="13.587388680159965"><ele>726.0</ele><time>2026-05-01T15:07:27.998Z</time></trkpt><trkpt lat="42.05929223164821" lon="13.586976324862114"><ele>724.5</ele><time>2026-05-01T15:07:28.998Z</time></trkpt><trkpt lat="42.05935162959214" lon="13.586568730068022"><ele>723.0</ele><time>2026-05-01T15:07:29.998Z</time></trkpt><trkpt lat="42.05941553086558" lon="13.586162889793572"><ele>722.0</ele><time>2026-05-01T15:07:30.998Z</time></trkpt><trkpt lat="42.05948221848758" lon="13.58575613472859"><ele>721.0</ele><time>2026-05-01T15:07:31.998Z</time></trkpt><trkpt lat="42.05955126870934" lon="13.585352337954278"><ele>719.5</ele><time>2026-05-01T15:07:32.998Z</time></trkpt><trkpt lat="42.05962270566843" lon="13.584949124074205"><ele>718.0</ele><time>2026-05-01T15:07:33.998Z</time></trkpt><trkpt lat="42.05969856426427" lon="13.584545784820676"><ele>716.5</ele><time>2026-05-01T15:07:34.998Z</time></trkpt><trkpt lat="42.059778566748605" lon="13.584143226229182"><ele>715.0</ele><time>2026-05-01T15:07:35.999Z</time></trkpt><trkpt lat="42.05985942190541" lon="13.583741127523233"><ele>714.0</ele><time>2026-05-01T15:07:36.999Z</time></trkpt><trkpt lat="42.059941024311115" lon="13.583339420837884"><ele>713.0</ele><time>2026-05-01T15:07:37.999Z</time></trkpt><trkpt lat="42.06002572520323" lon="13.582936601434893"><ele>715.5</ele><time>2026-05-01T15:07:38.999Z</time></trkpt><trkpt lat="42.060109474020976" lon="13.582534066951574"><ele>718.0</ele><time>2026-05-01T15:07:40Z</time></trkpt><trkpt lat="42.06019134412911" lon="13.582130967485252"><ele>716.5</ele><time>2026-05-01T15:07:40.999Z</time></trkpt><trkpt lat="42.06027193578037" lon="13.581731747444255"><ele>715.0</ele><time>2026-05-01T15:07:42Z</time></trkpt><trkpt lat="42.060353296172075" lon="13.58132775965618"><ele>713.5</ele><time>2026-05-01T15:07:43Z</time></trkpt><trkpt lat="42.06043446079951" lon="13.580923621379242"><ele>712.0</ele><time>2026-05-01T15:07:44Z</time></trkpt><trkpt lat="42.06051686518327" lon="13.58051875571193"><ele>710.0</ele><time>2026-05-01T15:07:45Z</time></trkpt><trkpt lat="42.06059705855517" lon="13.580111072623788"><ele>708.0</ele><time>2026-05-01T15:07:46Z</time></trkpt><trkpt lat="42.0606772698055" lon="13.579702763482148"><ele>706.0</ele><time>2026-05-01T15:07:47Z</time></trkpt><trkpt lat="42.06075509916774" lon="13.579292632500035"><ele>704.0</ele><time>2026-05-01T15:07:48Z</time></trkpt><trkpt lat="42.06083119473827" lon="13.578881421594248"><ele>708.0</ele><time>2026-05-01T15:07:49Z</time></trkpt><trkpt lat="42.06090561058803" lon="13.578467240625168"><ele>712.0</ele><time>2026-05-01T15:07:50Z</time></trkpt><trkpt lat="42.06097523559404" lon="13.578053420549026"><ele>711.0</ele><time>2026-05-01T15:07:51Z</time></trkpt><trkpt lat="42.06104220123948" lon="13.577639444899898"><ele>710.0</ele><time>2026-05-01T15:07:51.999Z</time></trkpt><trkpt lat="42.06110563730851" lon="13.577224141231289"><ele>709.0</ele><time>2026-05-01T15:07:52.999Z</time></trkpt><trkpt lat="42.06116526523042" lon="13.57680465463455"><ele>708.0</ele><time>2026-05-01T15:07:53.999Z</time></trkpt><trkpt lat="42.0612206102928" lon="13.576386239433885"><ele>707.0</ele><time>2026-05-01T15:07:54.999Z</time></trkpt><trkpt lat="42.06127321149018" lon="13.575966770272252"><ele>706.0</ele><time>2026-05-01T15:07:55.999Z</time></trkpt><trkpt lat="42.061322177405046" lon="13.575545638784028"><ele>705.5</ele><time>2026-05-01T15:07:56.999Z</time></trkpt><trkpt lat="42.06136834146766" lon="13.575124378040117"><ele>705.0</ele><time>2026-05-01T15:07:57.999Z</time></trkpt><trkpt lat="42.06140979342986" lon="13.574704214965308"><ele>703.5</ele><time>2026-05-01T15:07:58.999Z</time></trkpt><trkpt lat="42.06144626743022" lon="13.574282738912828"><ele>702.0</ele><time>2026-05-01T15:07:59.999Z</time></trkpt><trkpt lat="42.061478613054234" lon="13.573860577671939"><ele>700.5</ele><time>2026-05-01T15:08:00.999Z</time></trkpt><trkpt lat="42.0615095970756" lon="13.573438140265079"><ele>699.0</ele><time>2026-05-01T15:08:01.999Z</time></trkpt><trkpt lat="42.061536021201725" lon="13.573012468802396"><ele>699.5</ele><time>2026-05-01T15:08:02.999Z</time></trkpt><trkpt lat="42.06155782140952" lon="13.572587387253815"><ele>700.0</ele><time>2026-05-01T15:08:03.999Z</time></trkpt><trkpt lat="42.061576393504275" lon="13.572158643122092"><ele>700.0</ele><time>2026-05-01T15:08:04.999Z</time></trkpt><trkpt lat="42.06159221243392" lon="13.57173080950614"><ele>700.0</ele><time>2026-05-01T15:08:05.999Z</time></trkpt><trkpt lat="42.061604771501834" lon="13.57130029652347"><ele>699.0</ele><time>2026-05-01T15:08:06.999Z</time></trkpt><trkpt lat="42.061614131395764" lon="13.570870117040638"><ele>698.0</ele><time>2026-05-01T15:08:07.999Z</time></trkpt><trkpt lat="42.061620337207735" lon="13.570438705212725"><ele>701.0</ele><time>2026-05-01T15:08:08.999Z</time></trkpt><trkpt lat="42.06162097046483" lon="13.570006221445684"><ele>704.0</ele><time>2026-05-01T15:08:09.999Z</time></trkpt><trkpt lat="42.06161813403729" lon="13.569574036032762"><ele>702.0</ele><time>2026-05-01T15:08:10.999Z</time></trkpt><trkpt lat="42.06161374549798" lon="13.569142061365833"><ele>700.0</ele><time>2026-05-01T15:08:11.999Z</time></trkpt><trkpt lat="42.06160706644185" lon="13.568712358920736"><ele>700.0</ele><time>2026-05-01T15:08:12.999Z</time></trkpt><trkpt lat="42.06159875406033" lon="13.568282627232476"><ele>700.0</ele><time>2026-05-01T15:08:13.999Z</time></trkpt><trkpt lat="42.06158857342309" lon="13.567856013987134"><ele>700.0</ele><time>2026-05-01T15:08:14.999Z</time></trkpt><trkpt lat="42.061579060870606" lon="13.567430773704642"><ele>700.0</ele><time>2026-05-01T15:08:15.999Z</time></trkpt><trkpt lat="42.061569572229416" lon="13.567005279325874"><ele>699.0</ele><time>2026-05-01T15:08:16.999Z</time></trkpt><trkpt lat="42.061557638239606" lon="13.566577436170869"><ele>698.0</ele><time>2026-05-01T15:08:17.999Z</time></trkpt><trkpt lat="42.06154456743732" lon="13.566150571418218"><ele>698.0</ele><time>2026-05-01T15:08:18.999Z</time></trkpt><trkpt lat="42.061531203523636" lon="13.56572506113572"><ele>698.0</ele><time>2026-05-01T15:08:19.999Z</time></trkpt><trkpt lat="42.06151646598308" lon="13.565302332624638"><ele>697.0</ele><time>2026-05-01T15:08:20.999Z</time></trkpt><trkpt lat="42.06150269489138" lon="13.564878009747618"><ele>696.0</ele><time>2026-05-01T15:08:21.999Z</time></trkpt><trkpt lat="42.06148939841257" lon="13.564456382742854"><ele>695.5</ele><time>2026-05-01T15:08:22.999Z</time></trkpt><trkpt lat="42.06147917841318" lon="13.564032927132086"><ele>695.0</ele><time>2026-05-01T15:08:23.999Z</time></trkpt><trkpt lat="42.061465707731735" lon="13.563614202989037"><ele>694.5</ele><time>2026-05-01T15:08:24.999Z</time></trkpt><trkpt lat="42.061451758191524" lon="13.56319746939392"><ele>694.0</ele><time>2026-05-01T15:08:25.999Z</time></trkpt><trkpt lat="42.06144013115527" lon="13.562777750934078"><ele>694.0</ele><time>2026-05-01T15:08:26.999Z</time></trkpt><trkpt lat="42.06142871737569" lon="13.562356482133548"><ele>694.0</ele><time>2026-05-01T15:08:27.999Z</time></trkpt><trkpt lat="42.06141941715784" lon="13.561936119533668"><ele>694.0</ele><time>2026-05-01T15:08:28.999Z</time></trkpt><trkpt lat="42.061413098623156" lon="13.561517245272618"><ele>694.0</ele><time>2026-05-01T15:08:29.999Z</time></trkpt><trkpt lat="42.06140864394569" lon="13.561099601890131"><ele>695.0</ele><time>2026-05-01T15:08:30.999Z</time></trkpt><trkpt lat="42.06140519338378" lon="13.560680995975666"><ele>696.0</ele><time>2026-05-01T15:08:31.999Z</time></trkpt><trkpt lat="42.06140338215189" lon="13.560258722479032"><ele>696.5</ele><time>2026-05-01T15:08:32.999Z</time></trkpt><trkpt lat="42.06140322357075" lon="13.55983790459215"><ele>697.0</ele><time>2026-05-01T15:08:33.999Z</time></trkpt><trkpt lat="42.06140479658071" lon="13.559417573489384"><ele>697.0</ele><time>2026-05-01T15:08:34.999Z</time></trkpt><trkpt lat="42.06140841981555" lon="13.558996196558963"><ele>697.0</ele><time>2026-05-01T15:08:35.999Z</time></trkpt><trkpt lat="42.06141457293593" lon="13.558575606283027"><ele>696.5</ele><time>2026-05-01T15:08:36.999Z</time></trkpt><trkpt lat="42.06142547690127" lon="13.558151375010024"><ele>696.0</ele><time>2026-05-01T15:08:37.999Z</time></trkpt><trkpt lat="42.06144254116271" lon="13.557728905829688"><ele>696.0</ele><time>2026-05-01T15:08:38.999Z</time></trkpt><trkpt lat="42.061465004077476" lon="13.557304518238592"><ele>696.0</ele><time>2026-05-01T15:08:39.999Z</time></trkpt><trkpt lat="42.06149000357527" lon="13.55688288169363"><ele>696.5</ele><time>2026-05-01T15:08:40.999Z</time></trkpt><trkpt lat="42.06151636250608" lon="13.556463607131242"><ele>697.0</ele><time>2026-05-01T15:08:41.999Z</time></trkpt><trkpt lat="42.06154158299002" lon="13.55604392652698"><ele>697.0</ele><time>2026-05-01T15:08:42.999Z</time></trkpt><trkpt lat="42.06156742404403" lon="13.555623265263428"><ele>697.0</ele><time>2026-05-01T15:08:43.999Z</time></trkpt><trkpt lat="42.06159525504756" lon="13.555205802159662"><ele>698.0</ele><time>2026-05-01T15:08:44.999Z</time></trkpt><trkpt lat="42.061625634607076" lon="13.554789001887867"><ele>699.0</ele><time>2026-05-01T15:08:45.999Z</time></trkpt><trkpt lat="42.06165864021447" lon="13.554373756615384"><ele>699.5</ele><time>2026-05-01T15:08:46.999Z</time></trkpt><trkpt lat="42.06169309746542" lon="13.553960334579479"><ele>700.0</ele><time>2026-05-01T15:08:47.999Z</time></trkpt><trkpt lat="42.06172960945494" lon="13.553550147233574"><ele>700.0</ele><time>2026-05-01T15:08:48.999Z</time></trkpt><trkpt lat="42.06176818426629" lon="13.553141765377381"><ele>700.0</ele><time>2026-05-01T15:08:49.999Z</time></trkpt><trkpt lat="42.061809024047975" lon="13.552734376553222"><ele>700.0</ele><time>2026-05-01T15:08:50.999Z</time></trkpt><trkpt lat="42.06185222291378" lon="13.552324945898194"><ele>700.0</ele><time>2026-05-01T15:08:51.999Z</time></trkpt><trkpt lat="42.061897250416" lon="13.55191425300326"><ele>700.0</ele><time>2026-05-01T15:08:52.999Z</time></trkpt><trkpt lat="42.06194152554005" lon="13.551503520751488"><ele>700.0</ele><time>2026-05-01T15:08:53.999Z</time></trkpt><trkpt lat="42.06198887137749" lon="13.551093249098285"><ele>700.0</ele><time>2026-05-01T15:08:54.999Z</time></trkpt><trkpt lat="42.06204106328067" lon="13.550682839739922"><ele>700.0</ele><time>2026-05-01T15:08:55.998Z</time></trkpt><trkpt lat="42.06209598273552" lon="13.550272256775802"><ele>700.0</ele><time>2026-05-01T15:08:56.998Z</time></trkpt><trkpt lat="42.06215280429218" lon="13.549860561711707"><ele>700.0</ele><time>2026-05-01T15:08:57.998Z</time></trkpt><trkpt lat="42.06220942089958" lon="13.5494493647534"><ele>699.5</ele><time>2026-05-01T15:08:58.998Z</time></trkpt><trkpt lat="42.062266685536805" lon="13.5490381810244"><ele>699.0</ele><time>2026-05-01T15:08:59.998Z</time></trkpt><trkpt lat="42.06232736395057" lon="13.548626618059505"><ele>699.0</ele><time>2026-05-01T15:09:00.998Z</time></trkpt><trkpt lat="42.06238915453381" lon="13.548215192648438"><ele>699.0</ele><time>2026-05-01T15:09:01.998Z</time></trkpt><trkpt lat="42.06245480363207" lon="13.547803981489773"><ele>699.0</ele><time>2026-05-01T15:09:02.998Z</time></trkpt><trkpt lat="42.06252279832315" lon="13.547394298223182"><ele>699.0</ele><time>2026-05-01T15:09:03.998Z</time></trkpt><trkpt lat="42.062591689942764" lon="13.546985433573367"><ele>699.0</ele><time>2026-05-01T15:09:04.998Z</time></trkpt><trkpt lat="42.06266199989059" lon="13.546577982857734"><ele>699.0</ele><time>2026-05-01T15:09:05.998Z</time></trkpt><trkpt lat="42.06273195466611" lon="13.546168486503396"><ele>699.0</ele><time>2026-05-01T15:09:06.998Z</time></trkpt><trkpt lat="42.06280250818089" lon="13.545758729377518"><ele>699.0</ele><time>2026-05-01T15:09:07.998Z</time></trkpt><trkpt lat="42.06287535468249" lon="13.545347456484652"><ele>699.0</ele><time>2026-05-01T15:09:08.998Z</time></trkpt><trkpt lat="42.062951382068704" lon="13.544939573646902"><ele>699.0</ele><time>2026-05-01T15:09:09.998Z</time></trkpt><trkpt lat="42.06303056685463" lon="13.544531685791911"><ele>699.0</ele><time>2026-05-01T15:09:10.998Z</time></trkpt><trkpt lat="42.063112522680036" lon="13.544122356652496"><ele>699.0</ele><time>2026-05-01T15:09:11.998Z</time></trkpt><trkpt lat="42.06319595023512" lon="13.543713248529214"><ele>699.5</ele><time>2026-05-01T15:09:12.998Z</time></trkpt><trkpt lat="42.06328071479596" lon="13.543303448090564"><ele>700.0</ele><time>2026-05-01T15:09:13.998Z</time></trkpt><trkpt lat="42.06336765031671" lon="13.542894900328116"><ele>699.0</ele><time>2026-05-01T15:09:14.998Z</time></trkpt><trkpt lat="42.0634564709779" lon="13.54248727364233"><ele>698.0</ele><time>2026-05-01T15:09:15.998Z</time></trkpt><trkpt lat="42.06354892817542" lon="13.542082476747686"><ele>697.5</ele><time>2026-05-01T15:09:16.998Z</time></trkpt><trkpt lat="42.063645307947624" lon="13.541680060510183"><ele>697.0</ele><time>2026-05-01T15:09:17.998Z</time></trkpt><trkpt lat="42.0637427509797" lon="13.541278626507182"><ele>697.0</ele><time>2026-05-01T15:09:18.998Z</time></trkpt><trkpt lat="42.06383980920564" lon="13.540878485313804"><ele>697.0</ele><time>2026-05-01T15:09:19.998Z</time></trkpt><trkpt lat="42.063934992454534" lon="13.540477922773908"><ele>697.0</ele><time>2026-05-01T15:09:20.998Z</time></trkpt><trkpt lat="42.06402561327998" lon="13.540074990532123"><ele>697.0</ele><time>2026-05-01T15:09:21.998Z</time></trkpt><trkpt lat="42.064110951449216" lon="13.539669498447335"><ele>697.5</ele><time>2026-05-01T15:09:22.998Z</time></trkpt><trkpt lat="42.06419483261574" lon="13.539263569066794"><ele>698.0</ele><time>2026-05-01T15:09:23.998Z</time></trkpt><trkpt lat="42.0642800357804" lon="13.538856241152633"><ele>697.5</ele><time>2026-05-01T15:09:24.998Z</time></trkpt><trkpt lat="42.06436491932412" lon="13.538448432217239"><ele>697.0</ele><time>2026-05-01T15:09:25.998Z</time></trkpt><trkpt lat="42.064449103715724" lon="13.538040107210486"><ele>696.5</ele><time>2026-05-01T15:09:26.998Z</time></trkpt><trkpt lat="42.06453121452445" lon="13.537631889612095"><ele>696.0</ele><time>2026-05-01T15:09:27.998Z</time></trkpt><trkpt lat="42.064609297163415" lon="13.537222259934854"><ele>695.5</ele><time>2026-05-01T15:09:28.998Z</time></trkpt><trkpt lat="42.064685786011864" lon="13.536810966966193"><ele>695.0</ele><time>2026-05-01T15:09:29.998Z</time></trkpt><trkpt lat="42.06475901919729" lon="13.536397191707481"><ele>695.0</ele><time>2026-05-01T15:09:30.998Z</time></trkpt><trkpt lat="42.064829399892574" lon="13.535984041924676"><ele>695.0</ele><time>2026-05-01T15:09:31.998Z</time></trkpt><trkpt lat="42.06489656992371" lon="13.535570673763635"><ele>694.5</ele><time>2026-05-01T15:09:32.998Z</time></trkpt><trkpt lat="42.06495992702304" lon="13.535155297745243"><ele>694.0</ele><time>2026-05-01T15:09:33.998Z</time></trkpt><trkpt lat="42.065019305571916" lon="13.534739014725778"><ele>693.0</ele><time>2026-05-01T15:09:34.998Z</time></trkpt><trkpt lat="42.0650771820958" lon="13.534321770931577"><ele>692.0</ele><time>2026-05-01T15:09:35.998Z</time></trkpt><trkpt lat="42.06513386810573" lon="13.533904574360863"><ele>691.5</ele><time>2026-05-01T15:09:36.998Z</time></trkpt><trkpt lat="42.06518807213922" lon="13.533488381906674"><ele>691.0</ele><time>2026-05-01T15:09:37.998Z</time></trkpt><trkpt lat="42.06523997539038" lon="13.533070940461394"><ele>691.0</ele><time>2026-05-01T15:09:38.998Z</time></trkpt><trkpt lat="42.06528676270994" lon="13.532656475681783"><ele>691.0</ele><time>2026-05-01T15:09:39.998Z</time></trkpt><trkpt lat="42.06533121963365" lon="13.532241576750042"><ele>690.0</ele><time>2026-05-01T15:09:40.998Z</time></trkpt><trkpt lat="42.0653743072957" lon="13.531826691337088"><ele>689.0</ele><time>2026-05-01T15:09:42Z</time></trkpt><trkpt lat="42.06541333027016" lon="13.531412119548932"><ele>689.0</ele><time>2026-05-01T15:09:43Z</time></trkpt><trkpt lat="42.06544941232071" lon="13.53099607586765"><ele>689.0</ele><time>2026-05-01T15:09:44Z</time></trkpt><trkpt lat="42.065483601024" lon="13.530581531841976"><ele>689.0</ele><time>2026-05-01T15:09:45Z</time></trkpt><trkpt lat="42.065515320055425" lon="13.530165660594195"><ele>689.0</ele><time>2026-05-01T15:09:46Z</time></trkpt><trkpt lat="42.06554434480935" lon="13.529749485194182"><ele>689.0</ele><time>2026-05-01T15:09:47Z</time></trkpt><trkpt lat="42.065571908661305" lon="13.529332555918495"><ele>689.0</ele><time>2026-05-01T15:09:48Z</time></trkpt><trkpt lat="42.06559684662474" lon="13.528915823981471"><ele>689.0</ele><time>2026-05-01T15:09:49Z</time></trkpt><trkpt lat="42.0656189380506" lon="13.528500664166607"><ele>689.0</ele><time>2026-05-01T15:09:50Z</time></trkpt><trkpt lat="42.06563752495453" lon="13.528084977516881"><ele>689.0</ele><time>2026-05-01T15:09:51Z</time></trkpt><trkpt lat="42.06565415975661" lon="13.527669360556288"><ele>689.0</ele><time>2026-05-01T15:09:52Z</time></trkpt><trkpt lat="42.06566881751444" lon="13.527255562403766"><ele>689.0</ele><time>2026-05-01T15:09:53Z</time></trkpt><trkpt lat="42.06568141910997" lon="13.526842249272882"><ele>689.0</ele><time>2026-05-01T15:09:54Z</time></trkpt><trkpt lat="42.06569048903458" lon="13.526430031159729"><ele>688.5</ele><time>2026-05-01T15:09:55Z</time></trkpt><trkpt lat="42.06569595099797" lon="13.526016449935794"><ele>688.0</ele><time>2026-05-01T15:09:56Z</time></trkpt><trkpt lat="42.065696749997336" lon="13.525603146050399"><ele>690.0</ele><time>2026-05-01T15:09:57Z</time></trkpt><trkpt lat="42.06569532031025" lon="13.525188727865626"><ele>692.0</ele><time>2026-05-01T15:09:58Z</time></trkpt><trkpt lat="42.0656928089565" lon="13.524772957994402"><ele>692.5</ele><time>2026-05-01T15:09:59Z</time></trkpt><trkpt lat="42.065687329619635" lon="13.524357922860656"><ele>693.0</ele><time>2026-05-01T15:10:00Z</time></trkpt><trkpt lat="42.06567894841087" lon="13.523940049016078"><ele>693.5</ele><time>2026-05-01T15:10:01Z</time></trkpt><trkpt lat="42.06566831876536" lon="13.523520144854993"><ele>694.0</ele><time>2026-05-01T15:10:02Z</time></trkpt><trkpt lat="42.065653625174505" lon="13.523100348654888"><ele>693.5</ele><time>2026-05-01T15:10:03Z</time></trkpt><trkpt lat="42.06563708462532" lon="13.522679236813397"><ele>693.0</ele><time>2026-05-01T15:10:04Z</time></trkpt><trkpt lat="42.06561824210705" lon="13.522259644904024"><ele>692.5</ele><time>2026-05-01T15:10:05Z</time></trkpt><trkpt lat="42.065598278497994" lon="13.52183980119083"><ele>692.0</ele><time>2026-05-01T15:10:05.999Z</time></trkpt><trkpt lat="42.06557808260003" lon="13.521421265003893"><ele>692.0</ele><time>2026-05-01T15:10:06.999Z</time></trkpt><trkpt lat="42.06555932392615" lon="13.520999009037746"><ele>692.0</ele><time>2026-05-01T15:10:07.999Z</time></trkpt><trkpt lat="42.06554260858367" lon="13.52057955665629"><ele>691.5</ele><time>2026-05-01T15:10:08.999Z</time></trkpt><trkpt lat="42.06552811377278" lon="13.520160038060713"><ele>691.0</ele><time>2026-05-01T15:10:09.999Z</time></trkpt><trkpt lat="42.06551505643703" lon="13.519742523887581"><ele>690.5</ele><time>2026-05-01T15:10:10.999Z</time></trkpt><trkpt lat="42.06550244750936" lon="13.519324055173993"><ele>690.0</ele><time>2026-05-01T15:10:11.999Z</time></trkpt><trkpt lat="42.06549184317694" lon="13.518905533650615"><ele>690.0</ele><time>2026-05-01T15:10:12.999Z</time></trkpt><trkpt lat="42.06548338189194" lon="13.518487026089694"><ele>690.0</ele><time>2026-05-01T15:10:13.999Z</time></trkpt><trkpt lat="42.06547940001277" lon="13.51806757612825"><ele>690.0</ele><time>2026-05-01T15:10:14.999Z</time></trkpt><trkpt lat="42.06547767305364" lon="13.517648528590518"><ele>690.0</ele><time>2026-05-01T15:10:15.999Z</time></trkpt><trkpt lat="42.065474053174974" lon="13.517228329649816"><ele>690.0</ele><time>2026-05-01T15:10:16.999Z</time></trkpt><trkpt lat="42.06547202755536" lon="13.51680759938188"><ele>690.0</ele><time>2026-05-01T15:10:17.999Z</time></trkpt><trkpt lat="42.06547129071339" lon="13.516387916578834"><ele>689.5</ele><time>2026-05-01T15:10:18.999Z</time></trkpt><trkpt lat="42.06547514681053" lon="13.515966986630694"><ele>689.0</ele><time>2026-05-01T15:10:19.999Z</time></trkpt><trkpt lat="42.065484225180086" lon="13.515547451250194"><ele>689.5</ele><time>2026-05-01T15:10:20.999Z</time></trkpt><trkpt lat="42.06549941406947" lon="13.51512937160339"><ele>690.0</ele><time>2026-05-01T15:10:21.999Z</time></trkpt><trkpt lat="42.06551621540431" lon="13.514710638007715"><ele>689.5</ele><time>2026-05-01T15:10:22.999Z</time></trkpt><trkpt lat="42.06553355712313" lon="13.514291077176987"><ele>689.0</ele><time>2026-05-01T15:10:23.999Z</time></trkpt><trkpt lat="42.065550134231835" lon="13.513873182721571"><ele>689.5</ele><time>2026-05-01T15:10:24.999Z</time></trkpt><trkpt lat="42.065567673540116" lon="13.513455930182094"><ele>690.0</ele><time>2026-05-01T15:10:25.999Z</time></trkpt><trkpt lat="42.06558819137989" lon="13.513038438140047"><ele>689.0</ele><time>2026-05-01T15:10:26.999Z</time></trkpt><trkpt lat="42.06561284477438" lon="13.512621003993644"><ele>688.0</ele><time>2026-05-01T15:10:27.999Z</time></trkpt><trkpt lat="42.06564039987574" lon="13.512203673968706"><ele>687.5</ele><time>2026-05-01T15:10:28.999Z</time></trkpt><trkpt lat="42.06566926393253" lon="13.51178606606372"><ele>687.0</ele><time>2026-05-01T15:10:29.999Z</time></trkpt><trkpt lat="42.065700232393894" lon="13.511369367360047"><ele>687.0</ele><time>2026-05-01T15:10:30.999Z</time></trkpt><trkpt lat="42.065734950369766" lon="13.510951384237675"><ele>687.0</ele><time>2026-05-01T15:10:31.999Z</time></trkpt><trkpt lat="42.06577270059681" lon="13.510534113000816"><ele>688.0</ele><time>2026-05-01T15:10:32.999Z</time></trkpt><trkpt lat="42.06581327922103" lon="13.51011809521148"><ele>689.0</ele><time>2026-05-01T15:10:33.999Z</time></trkpt><trkpt lat="42.065857020763886" lon="13.509702468035089"><ele>688.5</ele><time>2026-05-01T15:10:34.999Z</time></trkpt><trkpt lat="42.06590250812785" lon="13.509287694276146"><ele>688.0</ele><time>2026-05-01T15:10:35.999Z</time></trkpt><trkpt lat="42.06595161507782" lon="13.50887313202303"><ele>689.0</ele><time>2026-05-01T15:10:36.999Z</time></trkpt><trkpt lat="42.06600134801167" lon="13.508458522153031"><ele>690.0</ele><time>2026-05-01T15:10:37.999Z</time></trkpt><trkpt lat="42.06605251487785" lon="13.50804388141583"><ele>690.5</ele><time>2026-05-01T15:10:38.999Z</time></trkpt><trkpt lat="42.06610691516947" lon="13.507631238864818"><ele>691.0</ele><time>2026-05-01T15:10:39.999Z</time></trkpt><trkpt lat="42.0661636033635" lon="13.507221818708997"><ele>690.0</ele><time>2026-05-01T15:10:40.999Z</time></trkpt><trkpt lat="42.06622470033344" lon="13.50681330453281"><ele>689.0</ele><time>2026-05-01T15:10:41.999Z</time></trkpt><trkpt lat="42.066289076515524" lon="13.506406844727017"><ele>688.0</ele><time>2026-05-01T15:10:42.999Z</time></trkpt><trkpt lat="42.06635542279985" lon="13.506001373992564"><ele>687.0</ele><time>2026-05-01T15:10:43.999Z</time></trkpt><trkpt lat="42.066423026369684" lon="13.505597183485952"><ele>687.0</ele><time>2026-05-01T15:10:44.999Z</time></trkpt><trkpt lat="42.06649117184007" lon="13.505193056396715"><ele>687.0</ele><time>2026-05-01T15:10:45.999Z</time></trkpt><trkpt lat="42.066558254885656" lon="13.504789068637592"><ele>688.5</ele><time>2026-05-01T15:10:46.999Z</time></trkpt><trkpt lat="42.066624496334576" lon="13.504387510443228"><ele>690.0</ele><time>2026-05-01T15:10:47.999Z</time></trkpt><trkpt lat="42.06669180821236" lon="13.503986432012567"><ele>689.5</ele><time>2026-05-01T15:10:48.999Z</time></trkpt><trkpt lat="42.06675513826747" lon="13.503583791937794"><ele>689.0</ele><time>2026-05-01T15:10:49.999Z</time></trkpt><trkpt lat="42.06681342747867" lon="13.503180832765583"><ele>689.5</ele><time>2026-05-01T15:10:50.999Z</time></trkpt><trkpt lat="42.066869589097486" lon="13.502777345737028"><ele>690.0</ele><time>2026-05-01T15:10:51.999Z</time></trkpt><trkpt lat="42.06692309856195" lon="13.502371364843572"><ele>690.5</ele><time>2026-05-01T15:10:52.999Z</time></trkpt><trkpt lat="42.066974739965396" lon="13.501965149493586"><ele>691.0</ele><time>2026-05-01T15:10:53.999Z</time></trkpt><trkpt lat="42.06702472580419" lon="13.501556630844437"><ele>690.0</ele><time>2026-05-01T15:10:54.999Z</time></trkpt><trkpt lat="42.06707041766813" lon="13.501145771653091"><ele>689.0</ele><time>2026-05-01T15:10:55.999Z</time></trkpt><trkpt lat="42.06710822056662" lon="13.500730552089303"><ele>689.0</ele><time>2026-05-01T15:10:56.999Z</time></trkpt><trkpt lat="42.06713863415666" lon="13.500312525317614"><ele>689.0</ele><time>2026-05-01T15:10:57.999Z</time></trkpt><trkpt lat="42.06716199159654" lon="13.499893050927767"><ele>689.5</ele><time>2026-05-01T15:10:58.999Z</time></trkpt><trkpt lat="42.06717981635011" lon="13.499472116838723"><ele>690.0</ele><time>2026-05-01T15:10:59.999Z</time></trkpt><trkpt lat="42.06719133990351" lon="13.499050226104249"><ele>690.0</ele><time>2026-05-01T15:11:00.999Z</time></trkpt><trkpt lat="42.06719332449948" lon="13.498627427791135"><ele>690.0</ele><time>2026-05-01T15:11:01.999Z</time></trkpt><trkpt lat="42.06718739125403" lon="13.498205896210035"><ele>689.5</ele><time>2026-05-01T15:11:02.999Z</time></trkpt><trkpt lat="42.06717640761257" lon="13.497787453306717"><ele>689.0</ele><time>2026-05-01T15:11:03.999Z</time></trkpt><trkpt lat="42.067159890054704" lon="13.49736939348943"><ele>688.5</ele><time>2026-05-01T15:11:04.999Z</time></trkpt><trkpt lat="42.06713634660294" lon="13.496953228616658"><ele>688.0</ele><time>2026-05-01T15:11:05.999Z</time></trkpt><trkpt lat="42.06710222336351" lon="13.496539714494734"><ele>689.0</ele><time>2026-05-01T15:11:06.999Z</time></trkpt><trkpt lat="42.06706122433436" lon="13.496126202762712"><ele>690.0</ele><time>2026-05-01T15:11:07.998Z</time></trkpt><trkpt lat="42.067015792421024" lon="13.495714733196346"><ele>691.0</ele><time>2026-05-01T15:11:08.998Z</time></trkpt><trkpt lat="42.06696418142401" lon="13.495303300236888"><ele>692.0</ele><time>2026-05-01T15:11:09.998Z</time></trkpt><trkpt lat="42.06690535673751" lon="13.494897429674607"><ele>693.0</ele><time>2026-05-01T15:11:10.998Z</time></trkpt><trkpt lat="42.06683799621098" lon="13.494494179222187"><ele>694.0</ele><time>2026-05-01T15:11:11.998Z</time></trkpt><trkpt lat="42.06676333933132" lon="13.49409491033929"><ele>695.5</ele><time>2026-05-01T15:11:12.998Z</time></trkpt><trkpt lat="42.06668130544202" lon="13.49370028671318"><ele>697.0</ele><time>2026-05-01T15:11:13.998Z</time></trkpt><trkpt lat="42.06659387205758" lon="13.493308478888316"><ele>695.5</ele><time>2026-05-01T15:11:14.998Z</time></trkpt><trkpt lat="42.06650222775711" lon="13.492920243538048"><ele>694.0</ele><time>2026-05-01T15:11:15.998Z</time></trkpt><trkpt lat="42.06640468371166" lon="13.492537722459383"><ele>694.0</ele><time>2026-05-01T15:11:16.998Z</time></trkpt><trkpt lat="42.06630009187205" lon="13.49215772514026"><ele>694.0</ele><time>2026-05-01T15:11:17.998Z</time></trkpt><trkpt lat="42.06619078443253" lon="13.491783886678142"><ele>695.0</ele><time>2026-05-01T15:11:18.998Z</time></trkpt><trkpt lat="42.06607677093797" lon="13.491413299155061"><ele>696.0</ele><time>2026-05-01T15:11:19.998Z</time></trkpt><trkpt lat="42.065958915797104" lon="13.49104642061319"><ele>695.0</ele><time>2026-05-01T15:11:20.998Z</time></trkpt><trkpt lat="42.06583692780581" lon="13.49068123949981"><ele>694.0</ele><time>2026-05-01T15:11:21.998Z</time></trkpt><trkpt lat="42.06571256105573" lon="13.490319033394302"><ele>694.0</ele><time>2026-05-01T15:11:22.998Z</time></trkpt><trkpt lat="42.065586737172254" lon="13.489959322143662"><ele>694.0</ele><time>2026-05-01T15:11:23.998Z</time></trkpt><trkpt lat="42.065459228228214" lon="13.489599225120122"><ele>697.5</ele><time>2026-05-01T15:11:24.998Z</time></trkpt><trkpt lat="42.065330049477716" lon="13.489240094663446"><ele>701.0</ele><time>2026-05-01T15:11:25.998Z</time></trkpt><trkpt lat="42.065197805214574" lon="13.488884917542503"><ele>698.0</ele><time>2026-05-01T15:11:26.998Z</time></trkpt><trkpt lat="42.0650655495166" lon="13.488529359124302"><ele>695.0</ele><time>2026-05-01T15:11:27.998Z</time></trkpt><trkpt lat="42.06493338294784" lon="13.488175045055435"><ele>698.5</ele><time>2026-05-01T15:11:28.998Z</time></trkpt><trkpt lat="42.06480292535914" lon="13.487822059704555"><ele>702.0</ele><time>2026-05-01T15:11:29.998Z</time></trkpt><trkpt lat="42.064671937038796" lon="13.487470234912328"><ele>702.0</ele><time>2026-05-01T15:11:30.998Z</time></trkpt><trkpt lat="42.06454037046736" lon="13.487120155530596"><ele>702.0</ele><time>2026-05-01T15:11:31.998Z</time></trkpt><trkpt lat="42.06441110787021" lon="13.486771082137551"><ele>706.5</ele><time>2026-05-01T15:11:32.998Z</time></trkpt><trkpt lat="42.06428343260553" lon="13.486422741408745"><ele>711.0</ele><time>2026-05-01T15:11:33.998Z</time></trkpt><trkpt lat="42.064159946368264" lon="13.48607364035716"><ele>712.5</ele><time>2026-05-01T15:11:34.998Z</time></trkpt><trkpt lat="42.06403992633707" lon="13.485722011002476"><ele>714.0</ele><time>2026-05-01T15:11:35.998Z</time></trkpt><trkpt lat="42.06392227290858" lon="13.48536905398809"><ele>714.0</ele><time>2026-05-01T15:11:36.998Z</time></trkpt><trkpt lat="42.06380490888477" lon="13.485018990735743"><ele>714.0</ele><time>2026-05-01T15:11:37.998Z</time></trkpt><trkpt lat="42.06368863576916" lon="13.48466779484552"><ele>719.5</ele><time>2026-05-01T15:11:38.998Z</time></trkpt><trkpt lat="42.0635728065095" lon="13.484317087979594"><ele>725.0</ele><time>2026-05-01T15:11:39.998Z</time></trkpt><trkpt lat="42.06346038192089" lon="13.48396645190053"><ele>722.5</ele><time>2026-05-01T15:11:40.998Z</time></trkpt><trkpt lat="42.063350457928195" lon="13.48361589390919"><ele>720.0</ele><time>2026-05-01T15:11:41.998Z</time></trkpt><trkpt lat="42.06324394315032" lon="13.483265159504178"><ele>724.0</ele><time>2026-05-01T15:11:42.998Z</time></trkpt><trkpt lat="42.063140284314045" lon="13.482913848557873"><ele>728.0</ele><time>2026-05-01T15:11:43.998Z</time></trkpt><trkpt lat="42.063037582311956" lon="13.482564113779336"><ele>728.0</ele><time>2026-05-01T15:11:44.998Z</time></trkpt><trkpt lat="42.06293545381272" lon="13.482216580068409"><ele>728.0</ele><time>2026-05-01T15:11:45.998Z</time></trkpt><trkpt lat="42.06283598585062" lon="13.481869967025357"><ele>730.5</ele><time>2026-05-01T15:11:46.998Z</time></trkpt><trkpt lat="42.0627372773741" lon="13.481526372553992"><ele>733.0</ele><time>2026-05-01T15:11:48Z</time></trkpt><trkpt lat="42.06263883073811" lon="13.481182730429897"><ele>735.0</ele><time>2026-05-01T15:11:49Z</time></trkpt><trkpt lat="42.06254233380478" lon="13.480838651035983"><ele>737.0</ele><time>2026-05-01T15:11:50Z</time></trkpt><trkpt lat="42.06244671013857" lon="13.480493294301281"><ele>731.0</ele><time>2026-05-01T15:11:51Z</time></trkpt><trkpt lat="42.06235043504402" lon="13.480144165287184"><ele>725.0</ele><time>2026-05-01T15:11:52Z</time></trkpt><trkpt lat="42.06225147550978" lon="13.47979564492348"><ele>728.5</ele><time>2026-05-01T15:11:53Z</time></trkpt><trkpt lat="42.06215096391996" lon="13.479445761398335"><ele>732.0</ele><time>2026-05-01T15:11:54Z</time></trkpt><trkpt lat="42.06204514211605" lon="13.479094313373952"><ele>737.0</ele><time>2026-05-01T15:11:55Z</time></trkpt><trkpt lat="42.06193451919898" lon="13.47874557553382"><ele>742.0</ele><time>2026-05-01T15:11:56Z</time></trkpt><trkpt lat="42.06182256672352" lon="13.478394283258456"><ele>742.0</ele><time>2026-05-01T15:11:57Z</time></trkpt><trkpt lat="42.06170760322685" lon="13.478044607472718"><ele>742.0</ele><time>2026-05-01T15:11:58Z</time></trkpt><trkpt lat="42.06159101362549" lon="13.47769500408561"><ele>740.0</ele><time>2026-05-01T15:11:59Z</time></trkpt><trkpt lat="42.06147236972284" lon="13.477346210046935"><ele>738.0</ele><time>2026-05-01T15:12:00Z</time></trkpt><trkpt lat="42.06135008570778" lon="13.476998041640696"><ele>738.0</ele><time>2026-05-01T15:12:01Z</time></trkpt><trkpt lat="42.061223617287965" lon="13.476654562362038"><ele>738.0</ele><time>2026-05-01T15:12:02Z</time></trkpt><trkpt lat="42.06109554210654" lon="13.476311716403485"><ele>743.0</ele><time>2026-05-01T15:12:03Z</time></trkpt><trkpt lat="42.06096587276161" lon="13.475970589050084"><ele>748.0</ele><time>2026-05-01T15:12:04Z</time></trkpt><trkpt lat="42.06083301667203" lon="13.475629005708663"><ele>746.0</ele><time>2026-05-01T15:12:05Z</time></trkpt><trkpt lat="42.06069929247289" lon="13.475286025999745"><ele>744.0</ele><time>2026-05-01T15:12:06Z</time></trkpt><trkpt lat="42.06056698293414" lon="13.474942070231739"><ele>746.5</ele><time>2026-05-01T15:12:07Z</time></trkpt><trkpt lat="42.0604341928208" lon="13.47459809789668"><ele>749.0</ele><time>2026-05-01T15:12:08Z</time></trkpt><trkpt lat="42.060300169818426" lon="13.474253442296476"><ele>749.0</ele><time>2026-05-01T15:12:09Z</time></trkpt><trkpt lat="42.0601672259759" lon="13.473906510020315"><ele>749.0</ele><time>2026-05-01T15:12:10Z</time></trkpt><trkpt lat="42.0600367392432" lon="13.473555998720382"><ele>736.5</ele><time>2026-05-01T15:12:11Z</time></trkpt><trkpt lat="42.059907044770355" lon="13.47320462913898"><ele>724.0</ele><time>2026-05-01T15:12:12Z</time></trkpt><trkpt lat="42.059779572019146" lon="13.472851555235309"><ele>724.0</ele><time>2026-05-01T15:12:13Z</time></trkpt><trkpt lat="42.05965344451409" lon="13.472495475480951"><ele>724.0</ele><time>2026-05-01T15:12:14Z</time></trkpt><trkpt lat="42.059529378377775" lon="13.472137922843851"><ele>729.5</ele><time>2026-05-01T15:12:14.999Z</time></trkpt><trkpt lat="42.05940697734603" lon="13.471775914869198"><ele>735.0</ele><time>2026-05-01T15:12:15.999Z</time></trkpt><trkpt lat="42.05928962888286" lon="13.471411971151769"><ele>741.5</ele><time>2026-05-01T15:12:16.999Z</time></trkpt><trkpt lat="42.05917833646412" lon="13.471040665211968"><ele>748.0</ele><time>2026-05-01T15:12:17.999Z</time></trkpt><trkpt lat="42.059069128222816" lon="13.470670488890768"><ele>738.0</ele><time>2026-05-01T15:12:18.999Z</time></trkpt><trkpt lat="42.05896200430046" lon="13.470296121421507"><ele>728.0</ele><time>2026-05-01T15:12:19.999Z</time></trkpt><trkpt lat="42.05885628132604" lon="13.469917595904448"><ele>732.5</ele><time>2026-05-01T15:12:20.999Z</time></trkpt><trkpt lat="42.05875583799642" lon="13.46953559461695"><ele>737.0</ele><time>2026-05-01T15:12:21.999Z</time></trkpt><trkpt lat="42.05865664633783" lon="13.469152040485747"><ele>741.5</ele><time>2026-05-01T15:12:22.999Z</time></trkpt><trkpt lat="42.058558288206484" lon="13.468766672846224"><ele>746.0</ele><time>2026-05-01T15:12:23.999Z</time></trkpt><trkpt lat="42.05846593128903" lon="13.46837575988159"><ele>746.0</ele><time>2026-05-01T15:12:24.999Z</time></trkpt><trkpt lat="42.05837656930099" lon="13.467982282764922"><ele>746.0</ele><time>2026-05-01T15:12:25.999Z</time></trkpt><trkpt lat="42.0582883939364" lon="13.467588587165505"><ele>737.5</ele><time>2026-05-01T15:12:26.999Z</time></trkpt><trkpt lat="42.05820254394584" lon="13.467194960848348"><ele>729.0</ele><time>2026-05-01T15:12:27.999Z</time></trkpt><trkpt lat="42.05811644520459" lon="13.466800835336874"><ele>729.0</ele><time>2026-05-01T15:12:28.999Z</time></trkpt><trkpt lat="42.05803111331213" lon="13.466405985272214"><ele>729.0</ele><time>2026-05-01T15:12:29.999Z</time></trkpt><trkpt lat="42.05794647748374" lon="13.466011338898678"><ele>730.5</ele><time>2026-05-01T15:12:30.999Z</time></trkpt><trkpt lat="42.05786123480133" lon="13.465618202998368"><ele>732.0</ele><time>2026-05-01T15:12:31.999Z</time></trkpt><trkpt lat="42.057775208576516" lon="13.465225726254591"><ele>734.0</ele><time>2026-05-01T15:12:32.999Z</time></trkpt><trkpt lat="42.05768853593967" lon="13.464834146496392"><ele>736.0</ele><time>2026-05-01T15:12:33.999Z</time></trkpt><trkpt lat="42.05760192050547" lon="13.464442218719567"><ele>738.0</ele><time>2026-05-01T15:12:34.999Z</time></trkpt><trkpt lat="42.05751570885366" lon="13.46405058845432"><ele>740.0</ele><time>2026-05-01T15:12:35.999Z</time></trkpt><trkpt lat="42.05742679886216" lon="13.463659017030139"><ele>733.5</ele><time>2026-05-01T15:12:36.999Z</time></trkpt><trkpt lat="42.057336762857034" lon="13.463270337458553"><ele>727.0</ele><time>2026-05-01T15:12:37.999Z</time></trkpt><trkpt lat="42.05724294724015" lon="13.462882948749398"><ele>727.0</ele><time>2026-05-01T15:12:38.999Z</time></trkpt><trkpt lat="42.05714328800452" lon="13.462495869917468"><ele>727.0</ele><time>2026-05-01T15:12:39.999Z</time></trkpt><trkpt lat="42.05704150437451" lon="13.462110971072978"><ele>728.5</ele><time>2026-05-01T15:12:40.999Z</time></trkpt><trkpt lat="42.05693756377985" lon="13.461726455043367"><ele>730.0</ele><time>2026-05-01T15:12:41.999Z</time></trkpt><trkpt lat="42.05682852127907" lon="13.461345033485683"><ele>732.5</ele><time>2026-05-01T15:12:42.999Z</time></trkpt><trkpt lat="42.05671483187333" lon="13.460963571346534"><ele>735.0</ele><time>2026-05-01T15:12:43.999Z</time></trkpt><trkpt lat="42.05659812037769" lon="13.460589021155114"><ele>731.5</ele><time>2026-05-01T15:12:44.999Z</time></trkpt><trkpt lat="42.05647914016082" lon="13.460212894408665"><ele>728.0</ele><time>2026-05-01T15:12:45.999Z</time></trkpt><trkpt lat="42.05635814366239" lon="13.4598402818657"><ele>730.0</ele><time>2026-05-01T15:12:46.999Z</time></trkpt><trkpt lat="42.05623589084294" lon="13.459467596215124"><ele>732.0</ele><time>2026-05-01T15:12:47.999Z</time></trkpt><trkpt lat="42.056111483270705" lon="13.459096344293457"><ele>735.0</ele><time>2026-05-01T15:12:48.999Z</time></trkpt><trkpt lat="42.05598282036738" lon="13.458725840249949"><ele>738.0</ele><time>2026-05-01T15:12:49.999Z</time></trkpt><trkpt lat="42.055855371602306" lon="13.458353931542485"><ele>735.0</ele><time>2026-05-01T15:12:50.999Z</time></trkpt><trkpt lat="42.05572722671824" lon="13.457980783072403"><ele>732.0</ele><time>2026-05-01T15:12:51.999Z</time></trkpt><trkpt lat="42.0555998835393" lon="13.457607432300769"><ele>732.0</ele><time>2026-05-01T15:12:52.999Z</time></trkpt><trkpt lat="42.055473687114805" lon="13.457232542186693"><ele>732.0</ele><time>2026-05-01T15:12:53.999Z</time></trkpt><trkpt lat="42.05534849963649" lon="13.456859040184778"><ele>734.0</ele><time>2026-05-01T15:12:54.999Z</time></trkpt><trkpt lat="42.05522131558927" lon="13.456488268180669"><ele>736.0</ele><time>2026-05-01T15:12:55.999Z</time></trkpt><trkpt lat="42.05509265040852" lon="13.456120068495233"><ele>736.0</ele><time>2026-05-01T15:12:56.999Z</time></trkpt><trkpt lat="42.054967510555684" lon="13.455751449466462"><ele>736.0</ele><time>2026-05-01T15:12:57.999Z</time></trkpt><trkpt lat="42.054845178122044" lon="13.45538149359944"><ele>730.0</ele><time>2026-05-01T15:12:58.999Z</time></trkpt><trkpt lat="42.05472682369229" lon="13.455009545030256"><ele>724.0</ele><time>2026-05-01T15:12:59.999Z</time></trkpt><trkpt lat="42.05461234230004" lon="13.454635991427402"><ele>725.5</ele><time>2026-05-01T15:13:00.999Z</time></trkpt><trkpt lat="42.05450046743713" lon="13.454262596470498"><ele>727.0</ele><time>2026-05-01T15:13:01.999Z</time></trkpt><trkpt lat="42.054390387411146" lon="13.453886367237727"><ele>729.0</ele><time>2026-05-01T15:13:02.999Z</time></trkpt><trkpt lat="42.05428328802313" lon="13.453510714756288"><ele>731.0</ele><time>2026-05-01T15:13:03.999Z</time></trkpt><trkpt lat="42.05418061318152" lon="13.453133042815482"><ele>733.0</ele><time>2026-05-01T15:13:04.999Z</time></trkpt><trkpt lat="42.054082234159125" lon="13.452754368854926"><ele>735.0</ele><time>2026-05-01T15:13:05.999Z</time></trkpt><trkpt lat="42.05399062255477" lon="13.452373559915252"><ele>735.5</ele><time>2026-05-01T15:13:06.999Z</time></trkpt><trkpt lat="42.05390182782344" lon="13.451988719509753"><ele>736.0</ele><time>2026-05-01T15:13:07.999Z</time></trkpt><trkpt lat="42.05381597276319" lon="13.451600325856855"><ele>736.5</ele><time>2026-05-01T15:13:08.999Z</time></trkpt><trkpt lat="42.053735218933845" lon="13.451210315090579"><ele>737.0</ele><time>2026-05-01T15:13:09.999Z</time></trkpt><trkpt lat="42.05365979323972" lon="13.450816788603241"><ele>738.0</ele><time>2026-05-01T15:13:10.999Z</time></trkpt><trkpt lat="42.05359085759003" lon="13.450421673475867"><ele>739.0</ele><time>2026-05-01T15:13:11.999Z</time></trkpt><trkpt lat="42.05352877831849" lon="13.450022574175609"><ele>740.0</ele><time>2026-05-01T15:13:12.999Z</time></trkpt><trkpt lat="42.05347350681466" lon="13.449621367361857"><ele>741.0</ele><time>2026-05-01T15:13:13.999Z</time></trkpt><trkpt lat="42.053424034001935" lon="13.449220453341047"><ele>741.0</ele><time>2026-05-01T15:13:14.999Z</time></trkpt><trkpt lat="42.0533805016486" lon="13.448817558528813"><ele>741.0</ele><time>2026-05-01T15:13:15.999Z</time></trkpt><trkpt lat="42.05334142002579" lon="13.44841381991706"><ele>740.0</ele><time>2026-05-01T15:13:16.998Z</time></trkpt><trkpt lat="42.05331163368758" lon="13.448012270292518"><ele>739.0</ele><time>2026-05-01T15:13:17.998Z</time></trkpt><trkpt lat="42.05328542553838" lon="13.447611401479591"><ele>741.0</ele><time>2026-05-01T15:13:18.998Z</time></trkpt><trkpt lat="42.05326286008457" lon="13.447212911409016"><ele>743.0</ele><time>2026-05-01T15:13:19.998Z</time></trkpt><trkpt lat="42.05324712275569" lon="13.446812675332582"><ele>743.0</ele><time>2026-05-01T15:13:20.998Z</time></trkpt><trkpt lat="42.05323784801687" lon="13.44641116446235"><ele>743.0</ele><time>2026-05-01T15:13:21.998Z</time></trkpt><trkpt lat="42.0532344117208" lon="13.446010498856927"><ele>743.5</ele><time>2026-05-01T15:13:22.998Z</time></trkpt><trkpt lat="42.05323740033861" lon="13.445610326071668"><ele>744.0</ele><time>2026-05-01T15:13:23.998Z</time></trkpt><trkpt lat="42.05324627937841" lon="13.445210576910883"><ele>744.0</ele><time>2026-05-01T15:13:24.998Z</time></trkpt><trkpt lat="42.053259037927674" lon="13.44480944220239"><ele>744.0</ele><time>2026-05-01T15:13:25.998Z</time></trkpt><trkpt lat="42.05327774370109" lon="13.444408024509599"><ele>746.5</ele><time>2026-05-01T15:13:26.998Z</time></trkpt><trkpt lat="42.05330174744758" lon="13.444008963063041"><ele>749.0</ele><time>2026-05-01T15:13:27.998Z</time></trkpt><trkpt lat="42.05333010800189" lon="13.443609804354388"><ele>749.0</ele><time>2026-05-01T15:13:28.998Z</time></trkpt><trkpt lat="42.053362887201644" lon="13.443211110428415"><ele>749.0</ele><time>2026-05-01T15:13:29.998Z</time></trkpt><trkpt lat="42.053400357618806" lon="13.442814162985789"><ele>750.5</ele><time>2026-05-01T15:13:30.998Z</time></trkpt><trkpt lat="42.0534430939554" lon="13.442418563336163"><ele>752.0</ele><time>2026-05-01T15:13:31.998Z</time></trkpt><trkpt lat="42.053491127847174" lon="13.442023837404955"><ele>752.5</ele><time>2026-05-01T15:13:32.998Z</time></trkpt><trkpt lat="42.053543436282396" lon="13.441629649679507"><ele>753.0</ele><time>2026-05-01T15:13:33.998Z</time></trkpt><trkpt lat="42.053598930237854" lon="13.441239709621401"><ele>753.5</ele><time>2026-05-01T15:13:34.998Z</time></trkpt><trkpt lat="42.05366056290197" lon="13.440852999583257"><ele>754.0</ele><time>2026-05-01T15:13:35.998Z</time></trkpt><trkpt lat="42.05372951676316" lon="13.440468714034761"><ele>754.0</ele><time>2026-05-01T15:13:36.998Z</time></trkpt><trkpt lat="42.053804740600334" lon="13.440087599171063"><ele>754.0</ele><time>2026-05-01T15:13:37.998Z</time></trkpt><trkpt lat="42.0538834018107" lon="13.43970951131581"><ele>754.5</ele><time>2026-05-01T15:13:38.998Z</time></trkpt><trkpt lat="42.05396601687667" lon="13.439331134181062"><ele>755.0</ele><time>2026-05-01T15:13:39.998Z</time></trkpt><trkpt lat="42.05404940598118" lon="13.43895268253444"><ele>756.0</ele><time>2026-05-01T15:13:40.998Z</time></trkpt><trkpt lat="42.05413422073909" lon="13.438575221347653"><ele>757.0</ele><time>2026-05-01T15:13:41.998Z</time></trkpt><trkpt lat="42.05422116332298" lon="13.438198829602403"><ele>758.0</ele><time>2026-05-01T15:13:42.998Z</time></trkpt><trkpt lat="42.05431296800525" lon="13.437822902614721"><ele>759.0</ele><time>2026-05-01T15:13:43.998Z</time></trkpt><trkpt lat="42.05440775021185" lon="13.437443256624753"><ele>758.5</ele><time>2026-05-01T15:13:44.998Z</time></trkpt><trkpt lat="42.054503049957965" lon="13.437066543931408"><ele>758.0</ele><time>2026-05-01T15:13:45.998Z</time></trkpt><trkpt lat="42.0546011717692" lon="13.436692176500815"><ele>758.0</ele><time>2026-05-01T15:13:46.998Z</time></trkpt><trkpt lat="42.05469936834407" lon="13.436319335839071"><ele>758.0</ele><time>2026-05-01T15:13:47.998Z</time></trkpt><trkpt lat="42.054792088524884" lon="13.435943369556343"><ele>757.5</ele><time>2026-05-01T15:13:48.998Z</time></trkpt><trkpt lat="42.05488496423063" lon="13.435564166322244"><ele>757.0</ele><time>2026-05-01T15:13:49.998Z</time></trkpt><trkpt lat="42.05497958860935" lon="13.435184160077684"><ele>759.0</ele><time>2026-05-01T15:13:50.998Z</time></trkpt><trkpt lat="42.05507542522399" lon="13.434803511045683"><ele>761.0</ele><time>2026-05-01T15:13:51.998Z</time></trkpt><trkpt lat="42.05517267925359" lon="13.434424289324047"><ele>761.0</ele><time>2026-05-01T15:13:52.998Z</time></trkpt><trkpt lat="42.055269756849356" lon="13.43404404586221"><ele>761.0</ele><time>2026-05-01T15:13:54Z</time></trkpt><trkpt lat="42.0553653308775" lon="13.433663058551573"><ele>761.0</ele><time>2026-05-01T15:13:55Z</time></trkpt><trkpt lat="42.05545693673129" lon="13.4332772386488"><ele>761.0</ele><time>2026-05-01T15:13:56Z</time></trkpt><trkpt lat="42.05554577551934" lon="13.432889373363807"><ele>761.5</ele><time>2026-05-01T15:13:57Z</time></trkpt><trkpt lat="42.05563289880082" lon="13.43250181777366"><ele>762.0</ele><time>2026-05-01T15:13:58Z</time></trkpt><trkpt lat="42.05571357014192" lon="13.432109930069007"><ele>762.5</ele><time>2026-05-01T15:13:59Z</time></trkpt><trkpt lat="42.055790421930034" lon="13.431715217474471"><ele>763.0</ele><time>2026-05-01T15:14:00Z</time></trkpt><trkpt lat="42.05586208996308" lon="13.431323359495876"><ele>763.5</ele><time>2026-05-01T15:14:01Z</time></trkpt><trkpt lat="42.05592799989789" lon="13.430930523233744"><ele>764.0</ele><time>2026-05-01T15:14:02Z</time></trkpt><trkpt lat="42.05599013324284" lon="13.430538450592264"><ele>764.0</ele><time>2026-05-01T15:14:03Z</time></trkpt><trkpt lat="42.0560503675715" lon="13.430147526203196"><ele>764.0</ele><time>2026-05-01T15:14:04Z</time></trkpt><trkpt lat="42.05610860880222" lon="13.429756129176992"><ele>764.0</ele><time>2026-05-01T15:14:05Z</time></trkpt><trkpt lat="42.056164546542746" lon="13.429361453672318"><ele>764.0</ele><time>2026-05-01T15:14:06Z</time></trkpt><trkpt lat="42.0562144151185" lon="13.428963968495784"><ele>763.5</ele><time>2026-05-01T15:14:07Z</time></trkpt><trkpt lat="42.05625811061538" lon="13.428566113308989"><ele>763.0</ele><time>2026-05-01T15:14:08Z</time></trkpt><trkpt lat="42.05629430741154" lon="13.42816336661477"><ele>762.5</ele><time>2026-05-01T15:14:09Z</time></trkpt><trkpt lat="42.05632388841251" lon="13.427758645634029"><ele>762.0</ele><time>2026-05-01T15:14:10Z</time></trkpt><trkpt lat="42.05634676423569" lon="13.427352191450861"><ele>762.0</ele><time>2026-05-01T15:14:11Z</time></trkpt><trkpt lat="42.05636226498695" lon="13.426941666448764"><ele>762.0</ele><time>2026-05-01T15:14:12Z</time></trkpt><trkpt lat="42.056374950693126" lon="13.426533421561027"><ele>762.0</ele><time>2026-05-01T15:14:13Z</time></trkpt><trkpt lat="42.05638892531533" lon="13.42612284343867"><ele>762.0</ele><time>2026-05-01T15:14:14Z</time></trkpt><trkpt lat="42.05640148216639" lon="13.425712864075548"><ele>761.5</ele><time>2026-05-01T15:14:15Z</time></trkpt><trkpt lat="42.056409418661765" lon="13.425303157932701"><ele>761.0</ele><time>2026-05-01T15:14:16Z</time></trkpt><trkpt lat="42.05641042208113" lon="13.42489142168717"><ele>761.0</ele><time>2026-05-01T15:14:17Z</time></trkpt><trkpt lat="42.0564045171696" lon="13.424479429727748"><ele>761.0</ele><time>2026-05-01T15:14:18Z</time></trkpt><trkpt lat="42.05639925362231" lon="13.42406665756418"><ele>760.5</ele><time>2026-05-01T15:14:19Z</time></trkpt><trkpt lat="42.056397985737554" lon="13.423653315965034"><ele>760.0</ele><time>2026-05-01T15:14:20Z</time></trkpt><trkpt lat="42.056400801815144" lon="13.423241492563687"><ele>759.5</ele><time>2026-05-01T15:14:21Z</time></trkpt><trkpt lat="42.05640609090621" lon="13.422828800065856"><ele>759.0</ele><time>2026-05-01T15:14:22Z</time></trkpt><trkpt lat="42.05641334314765" lon="13.422416352699114"><ele>759.5</ele><time>2026-05-01T15:14:22.999Z</time></trkpt><trkpt lat="42.05642143241896" lon="13.42200611900274"><ele>760.0</ele><time>2026-05-01T15:14:23.999Z</time></trkpt><trkpt lat="42.05642936690462" lon="13.421598833436555"><ele>759.0</ele><time>2026-05-01T15:14:24.999Z</time></trkpt><trkpt lat="42.05643857037002" lon="13.421195306525687"><ele>758.0</ele><time>2026-05-01T15:14:25.999Z</time></trkpt><trkpt lat="42.056450029732765" lon="13.420792309373084"><ele>758.0</ele><time>2026-05-01T15:14:26.999Z</time></trkpt><trkpt lat="42.05646511135835" lon="13.420389548316718"><ele>758.0</ele><time>2026-05-01T15:14:27.999Z</time></trkpt><trkpt lat="42.05648277964163" lon="13.419986112082045"><ele>757.0</ele><time>2026-05-01T15:14:28.999Z</time></trkpt><trkpt lat="42.05650302012895" lon="13.419584170275597"><ele>756.0</ele><time>2026-05-01T15:14:29.999Z</time></trkpt><trkpt lat="42.056529342363014" lon="13.419181815589921"><ele>756.5</ele><time>2026-05-01T15:14:30.999Z</time></trkpt><trkpt lat="42.056561149195296" lon="13.418781633898998"><ele>757.0</ele><time>2026-05-01T15:14:31.999Z</time></trkpt><trkpt lat="42.05660026236788" lon="13.418380770789929"><ele>759.5</ele><time>2026-05-01T15:14:32.999Z</time></trkpt><trkpt lat="42.05664310437055" lon="13.417979562025966"><ele>762.0</ele><time>2026-05-01T15:14:33.999Z</time></trkpt><trkpt lat="42.05668931559795" lon="13.417577363461223"><ele>762.0</ele><time>2026-05-01T15:14:34.999Z</time></trkpt><trkpt lat="42.05673836749207" lon="13.417174730128778"><ele>762.0</ele><time>2026-05-01T15:14:35.999Z</time></trkpt><trkpt lat="42.05679063025471" lon="13.41677305861994"><ele>761.0</ele><time>2026-05-01T15:14:36.999Z</time></trkpt><trkpt lat="42.05684593773083" lon="13.416370672490643"><ele>760.0</ele><time>2026-05-01T15:14:37.999Z</time></trkpt><trkpt lat="42.056905101978856" lon="13.415967817722555"><ele>759.5</ele><time>2026-05-01T15:14:38.999Z</time></trkpt><trkpt lat="42.0569694417371" lon="13.415565298348177"><ele>759.0</ele><time>2026-05-01T15:14:39.999Z</time></trkpt><trkpt lat="42.05703939481656" lon="13.415163306402603"><ele>759.0</ele><time>2026-05-01T15:14:40.999Z</time></trkpt><trkpt lat="42.05711442959544" lon="13.414762670118824"><ele>759.0</ele><time>2026-05-01T15:14:41.999Z</time></trkpt><trkpt lat="42.05719396523259" lon="13.414364142333051"><ele>758.5</ele><time>2026-05-01T15:14:42.999Z</time></trkpt><trkpt lat="42.05727751203851" lon="13.41396720019453"><ele>758.0</ele><time>2026-05-01T15:14:43.999Z</time></trkpt><trkpt lat="42.05736464466856" lon="13.413572565002369"><ele>757.5</ele><time>2026-05-01T15:14:44.999Z</time></trkpt><trkpt lat="42.05745474014579" lon="13.41317849770616"><ele>757.0</ele><time>2026-05-01T15:14:45.999Z</time></trkpt><trkpt lat="42.05755162465198" lon="13.412788065949583"><ele>756.5</ele><time>2026-05-01T15:14:46.999Z</time></trkpt><trkpt lat="42.05765189591364" lon="13.412400299294868"><ele>756.0</ele><time>2026-05-01T15:14:47.999Z</time></trkpt><trkpt lat="42.05775679644801" lon="13.412013928664132"><ele>756.0</ele><time>2026-05-01T15:14:48.999Z</time></trkpt><trkpt lat="42.05786509138664" lon="13.411627285391603"><ele>756.0</ele><time>2026-05-01T15:14:49.999Z</time></trkpt><trkpt lat="42.057979240635675" lon="13.411244306246882"><ele>754.5</ele><time>2026-05-01T15:14:50.999Z</time></trkpt><trkpt lat="42.05809694938933" lon="13.41086411111235"><ele>753.0</ele><time>2026-05-01T15:14:51.999Z</time></trkpt><trkpt lat="42.05821768414404" lon="13.410484140650063"><ele>753.5</ele><time>2026-05-01T15:14:52.999Z</time></trkpt><trkpt lat="42.05834333045341" lon="13.410105920382323"><ele>754.0</ele><time>2026-05-01T15:14:53.999Z</time></trkpt><trkpt lat="42.05847281765182" lon="13.409730272816029"><ele>753.5</ele><time>2026-05-01T15:14:54.999Z</time></trkpt><trkpt lat="42.058605036322234" lon="13.409357767420538"><ele>753.0</ele><time>2026-05-01T15:14:55.999Z</time></trkpt><trkpt lat="42.058743266869854" lon="13.408984678414676"><ele>750.5</ele><time>2026-05-01T15:14:56.999Z</time></trkpt><trkpt lat="42.058884255410625" lon="13.40861465867066"><ele>748.0</ele><time>2026-05-01T15:14:57.999Z</time></trkpt><trkpt lat="42.05902979313307" lon="13.40824748314541"><ele>748.5</ele><time>2026-05-01T15:14:58.999Z</time></trkpt><trkpt lat="42.05917746526958" lon="13.407879649370994"><ele>749.0</ele><time>2026-05-01T15:14:59.999Z</time></trkpt><trkpt lat="42.059326992158866" lon="13.407513700752357"><ele>748.5</ele><time>2026-05-01T15:15:00.999Z</time></trkpt><trkpt lat="42.05947816013139" lon="13.407147382338355"><ele>748.0</ele><time>2026-05-01T15:15:01.999Z</time></trkpt><trkpt lat="42.059632880585546" lon="13.406783692053232"><ele>748.0</ele><time>2026-05-01T15:15:02.999Z</time></trkpt><trkpt lat="42.059793797770325" lon="13.406417865257962"><ele>748.0</ele><time>2026-05-01T15:15:03.999Z</time></trkpt><trkpt lat="42.05995387679826" lon="13.406053242307005"><ele>746.5</ele><time>2026-05-01T15:15:04.999Z</time></trkpt><trkpt lat="42.06011392028898" lon="13.405690612760939"><ele>745.0</ele><time>2026-05-01T15:15:05.999Z</time></trkpt><trkpt lat="42.0602757645811" lon="13.405329648101386"><ele>744.5</ele><time>2026-05-01T15:15:06.999Z</time></trkpt><trkpt lat="42.06043611972622" lon="13.404969585066334"><ele>744.0</ele><time>2026-05-01T15:15:07.999Z</time></trkpt><trkpt lat="42.06059748254266" lon="13.404608908787779"><ele>743.0</ele><time>2026-05-01T15:15:08.999Z</time></trkpt><trkpt lat="42.060759042349645" lon="13.404247750506107"><ele>742.0</ele><time>2026-05-01T15:15:09.999Z</time></trkpt><trkpt lat="42.06092159217091" lon="13.403888956188421"><ele>740.5</ele><time>2026-05-01T15:15:10.999Z</time></trkpt><trkpt lat="42.06108710331906" lon="13.403531311393843"><ele>739.0</ele><time>2026-05-01T15:15:11.999Z</time></trkpt><trkpt lat="42.06125486178659" lon="13.40317613932755"><ele>737.0</ele><time>2026-05-01T15:15:12.999Z</time></trkpt><trkpt lat="42.061423121891096" lon="13.40282093919601"><ele>735.0</ele><time>2026-05-01T15:15:13.999Z</time></trkpt><trkpt lat="42.061592051101044" lon="13.402466344687973"><ele>734.0</ele><time>2026-05-01T15:15:14.999Z</time></trkpt><trkpt lat="42.0617602747103" lon="13.402109492665373"><ele>733.0</ele><time>2026-05-01T15:15:15.999Z</time></trkpt><trkpt lat="42.061927510022336" lon="13.401748915109001"><ele>733.0</ele><time>2026-05-01T15:15:16.999Z</time></trkpt><trkpt lat="42.06209369976318" lon="13.401385473444343"><ele>733.0</ele><time>2026-05-01T15:15:17.999Z</time></trkpt><trkpt lat="42.062261299105536" lon="13.401022913085185"><ele>732.0</ele><time>2026-05-01T15:15:18.999Z</time></trkpt><trkpt lat="42.06243063879985" lon="13.4006622625428"><ele>731.0</ele><time>2026-05-01T15:15:19.999Z</time></trkpt><trkpt lat="42.06260021113931" lon="13.400301572831488"><ele>730.0</ele><time>2026-05-01T15:15:20.999Z</time></trkpt><trkpt lat="42.062768927579796" lon="13.399939699848272"><ele>729.0</ele><time>2026-05-01T15:15:21.999Z</time></trkpt><trkpt lat="42.06293777074395" lon="13.39957717190441"><ele>728.0</ele><time>2026-05-01T15:15:22.999Z</time></trkpt><trkpt lat="42.063107295520446" lon="13.399214692920491"><ele>727.0</ele><time>2026-05-01T15:15:23.999Z</time></trkpt><trkpt lat="42.063277198893815" lon="13.398851082564004"><ele>726.5</ele><time>2026-05-01T15:15:24.998Z</time></trkpt><trkpt lat="42.06344836666325" lon="13.398485709012816"><ele>726.0</ele><time>2026-05-01T15:15:25.998Z</time></trkpt><trkpt lat="42.063619638936075" lon="13.398121338707375"><ele>725.5</ele><time>2026-05-01T15:15:26.998Z</time></trkpt><trkpt lat="42.06379327835859" lon="13.397757699582154"><ele>725.0</ele><time>2026-05-01T15:15:27.998Z</time></trkpt><trkpt lat="42.06396843778881" lon="13.397395456629432"><ele>723.5</ele><time>2026-05-01T15:15:28.998Z</time></trkpt><trkpt lat="42.06414518779368" lon="13.39703469530755"><ele>722.0</ele><time>2026-05-01T15:15:29.998Z</time></trkpt><trkpt lat="42.064322161116756" lon="13.396674703010666"><ele>721.0</ele><time>2026-05-01T15:15:30.998Z</time></trkpt><trkpt lat="42.06449859663039" lon="13.396315600897593"><ele>720.0</ele><time>2026-05-01T15:15:31.998Z</time></trkpt><trkpt lat="42.06467309540654" lon="13.395955720833763"><ele>720.0</ele><time>2026-05-01T15:15:32.998Z</time></trkpt><trkpt lat="42.06484706387285" lon="13.395595979561529"><ele>720.0</ele><time>2026-05-01T15:15:33.998Z</time></trkpt><trkpt lat="42.065021470922524" lon="13.395236690636404"><ele>718.5</ele><time>2026-05-01T15:15:34.998Z</time></trkpt><trkpt lat="42.0651974197599" lon="13.394879044313601"><ele>717.0</ele><time>2026-05-01T15:15:35.998Z</time></trkpt><trkpt lat="42.065373031610726" lon="13.394523647738547"><ele>717.0</ele><time>2026-05-01T15:15:36.998Z</time></trkpt><trkpt lat="42.065548879034814" lon="13.39416862187957"><ele>717.0</ele><time>2026-05-01T15:15:37.998Z</time></trkpt><trkpt lat="42.06572562632713" lon="13.393814234720505"><ele>717.5</ele><time>2026-05-01T15:15:38.998Z</time></trkpt><trkpt lat="42.06590413705732" lon="13.393461163125753"><ele>718.0</ele><time>2026-05-01T15:15:39.998Z</time></trkpt><trkpt lat="42.06608433017427" lon="13.393107790311536"><ele>716.0</ele><time>2026-05-01T15:15:40.998Z</time></trkpt><trkpt lat="42.06626439704858" lon="13.392756243046346"><ele>714.0</ele><time>2026-05-01T15:15:41.998Z</time></trkpt><trkpt lat="42.06644345019632" lon="13.392401699971622"><ele>712.5</ele><time>2026-05-01T15:15:42.998Z</time></trkpt><trkpt lat="42.06662170671185" lon="13.392045755184759"><ele>711.0</ele><time>2026-05-01T15:15:43.998Z</time></trkpt><trkpt lat="42.066800003631265" lon="13.391691022324265"><ele>711.0</ele><time>2026-05-01T15:15:44.998Z</time></trkpt><trkpt lat="42.06698001882049" lon="13.391338169787725"><ele>711.0</ele><time>2026-05-01T15:15:45.998Z</time></trkpt><trkpt lat="42.06716005159311" lon="13.39098658707567"><ele>711.0</ele><time>2026-05-01T15:15:46.998Z</time></trkpt><trkpt lat="42.067339974302165" lon="13.390636347393741"><ele>711.0</ele><time>2026-05-01T15:15:47.998Z</time></trkpt><trkpt lat="42.067520186757385" lon="13.39028724446375"><ele>711.5</ele><time>2026-05-01T15:15:48.998Z</time></trkpt><trkpt lat="42.067699337179135" lon="13.389941070367312"><ele>712.0</ele><time>2026-05-01T15:15:49.998Z</time></trkpt><trkpt lat="42.06787876016653" lon="13.389594292396783"><ele>712.5</ele><time>2026-05-01T15:15:50.998Z</time></trkpt><trkpt lat="42.06805779086473" lon="13.389249175329757"><ele>713.0</ele><time>2026-05-01T15:15:51.998Z</time></trkpt><trkpt lat="42.068237618420724" lon="13.388904995008891"><ele>713.0</ele><time>2026-05-01T15:15:52.998Z</time></trkpt><trkpt lat="42.068417261296645" lon="13.388563303157138"><ele>713.0</ele><time>2026-05-01T15:15:53.998Z</time></trkpt><trkpt lat="42.06859930132732" lon="13.388221988616973"><ele>712.5</ele><time>2026-05-01T15:15:54.998Z</time></trkpt><trkpt lat="42.06878125228745" lon="13.387886195828983"><ele>712.0</ele><time>2026-05-01T15:15:55.998Z</time></trkpt><trkpt lat="42.06896103285836" lon="13.387550138448692"><ele>713.0</ele><time>2026-05-01T15:15:56.998Z</time></trkpt><trkpt lat="42.069141315152095" lon="13.387216071989322"><ele>714.0</ele><time>2026-05-01T15:15:57.998Z</time></trkpt><trkpt lat="42.069321498535736" lon="13.386882858237056"><ele>714.0</ele><time>2026-05-01T15:15:58.998Z</time></trkpt><trkpt lat="42.06950119289846" lon="13.386549319467584"><ele>714.0</ele><time>2026-05-01T15:16:00Z</time></trkpt><trkpt lat="42.06968133128739" lon="13.386217787799882"><ele>714.0</ele><time>2026-05-01T15:16:01Z</time></trkpt><trkpt lat="42.06986203039151" lon="13.385886576938839"><ele>714.0</ele><time>2026-05-01T15:16:02Z</time></trkpt><trkpt lat="42.07004320433641" lon="13.385554844276596"><ele>715.5</ele><time>2026-05-01T15:16:03Z</time></trkpt><trkpt lat="42.07022682738417" lon="13.385224424780333"><ele>717.0</ele><time>2026-05-01T15:16:04Z</time></trkpt><trkpt lat="42.07041118210136" lon="13.384893779805621"><ele>717.5</ele><time>2026-05-01T15:16:05Z</time></trkpt><trkpt lat="42.07059360421445" lon="13.3845620787803"><ele>718.0</ele><time>2026-05-01T15:16:06Z</time></trkpt><trkpt lat="42.0707754558373" lon="13.384230361219387"><ele>719.0</ele><time>2026-05-01T15:16:07Z</time></trkpt><trkpt lat="42.07096051049041" lon="13.383901120607685"><ele>720.0</ele><time>2026-05-01T15:16:08Z</time></trkpt><trkpt lat="42.07114650075917" lon="13.383572082588522"><ele>721.0</ele><time>2026-05-01T15:16:09Z</time></trkpt><trkpt lat="42.07133351593015" lon="13.383242363908225"><ele>722.0</ele><time>2026-05-01T15:16:10Z</time></trkpt><trkpt lat="42.07151990659411" lon="13.38291032844327"><ele>722.0</ele><time>2026-05-01T15:16:11Z</time></trkpt><trkpt lat="42.07170625407231" lon="13.382576377903307"><ele>722.0</ele><time>2026-05-01T15:16:12Z</time></trkpt><trkpt lat="42.07189170922761" lon="13.382243317913442"><ele>721.0</ele><time>2026-05-01T15:16:13Z</time></trkpt><trkpt lat="42.07207839696069" lon="13.381908708395656"><ele>720.0</ele><time>2026-05-01T15:16:14Z</time></trkpt><trkpt lat="42.07226587402357" lon="13.3815737189549"><ele>722.0</ele><time>2026-05-01T15:16:15Z</time></trkpt><trkpt lat="42.07245245877107" lon="13.38123788693755"><ele>724.0</ele><time>2026-05-01T15:16:16Z</time></trkpt><trkpt lat="42.07263888230147" lon="13.380901003034502"><ele>724.0</ele><time>2026-05-01T15:16:17Z</time></trkpt><trkpt lat="42.072826493038136" lon="13.380563098592875"><ele>724.0</ele><time>2026-05-01T15:16:18Z</time></trkpt><trkpt lat="42.07301527252188" lon="13.380227233334201"><ele>723.5</ele><time>2026-05-01T15:16:19Z</time></trkpt><trkpt lat="42.07320444160159" lon="13.379893767141038"><ele>723.0</ele><time>2026-05-01T15:16:20Z</time></trkpt><trkpt lat="42.073393780836625" lon="13.37955936918732"><ele>723.0</ele><time>2026-05-01T15:16:21Z</time></trkpt><trkpt lat="42.073584687806466" lon="13.37922642453035"><ele>723.0</ele><time>2026-05-01T15:16:22Z</time></trkpt><trkpt lat="42.07377544701993" lon="13.37889255323439"><ele>723.5</ele><time>2026-05-01T15:16:23Z</time></trkpt><trkpt lat="42.07396687130983" lon="13.378559869334497"><ele>724.0</ele><time>2026-05-01T15:16:24Z</time></trkpt><trkpt lat="42.07415770038163" lon="13.37822824088917"><ele>722.5</ele><time>2026-05-01T15:16:25Z</time></trkpt><trkpt lat="42.07434867595549" lon="13.377897486591596"><ele>721.0</ele><time>2026-05-01T15:16:26Z</time></trkpt><trkpt lat="42.07453893585839" lon="13.37756867073939"><ele>721.0</ele><time>2026-05-01T15:16:27Z</time></trkpt><trkpt lat="42.07472969264349" lon="13.377240378069947"><ele>721.0</ele><time>2026-05-01T15:16:28Z</time></trkpt><trkpt lat="42.07492166974325" lon="13.376912064841672"><ele>721.0</ele><time>2026-05-01T15:16:29Z</time></trkpt><trkpt lat="42.07511453199475" lon="13.376585944917615"><ele>721.0</ele><time>2026-05-01T15:16:29.999Z</time></trkpt><trkpt lat="42.075306245421714" lon="13.376258239525804"><ele>720.5</ele><time>2026-05-01T15:16:30.999Z</time></trkpt><trkpt lat="42.07549570513805" lon="13.375928369468065"><ele>720.0</ele><time>2026-05-01T15:16:31.999Z</time></trkpt><trkpt lat="42.07569065903866" lon="13.375596822614751"><ele>719.5</ele><time>2026-05-01T15:16:32.999Z</time></trkpt><trkpt lat="42.07588704950923" lon="13.375269886540728"><ele>719.0</ele><time>2026-05-01T15:16:33.999Z</time></trkpt><trkpt lat="42.07608229591924" lon="13.374941234676658"><ele>717.0</ele><time>2026-05-01T15:16:34.999Z</time></trkpt><trkpt lat="42.07627900423641" lon="13.374609741024894"><ele>715.0</ele><time>2026-05-01T15:16:35.999Z</time></trkpt><trkpt lat="42.07647725846401" lon="13.374278898216287"><ele>715.0</ele><time>2026-05-01T15:16:36.999Z</time></trkpt><trkpt lat="42.07667620347271" lon="13.373948768824715"><ele>715.0</ele><time>2026-05-01T15:16:37.999Z</time></trkpt><trkpt lat="42.07687625610221" lon="13.373619111562675"><ele>715.0</ele><time>2026-05-01T15:16:38.999Z</time></trkpt><trkpt lat="42.07707717537345" lon="13.373289362454702"><ele>715.0</ele><time>2026-05-01T15:16:39.999Z</time></trkpt><trkpt lat="42.07727822962996" lon="13.372958421378751"><ele>715.0</ele><time>2026-05-01T15:16:40.999Z</time></trkpt><trkpt lat="42.07748018230427" lon="13.372629091830344"><ele>715.0</ele><time>2026-05-01T15:16:41.999Z</time></trkpt><trkpt lat="42.07768189897535" lon="13.372300764801436"><ele>714.5</ele><time>2026-05-01T15:16:42.999Z</time></trkpt><trkpt lat="42.077884956630776" lon="13.371971746977236"><ele>714.0</ele><time>2026-05-01T15:16:43.999Z</time></trkpt><trkpt lat="42.07808711571133" lon="13.371643841693455"><ele>713.0</ele><time>2026-05-01T15:16:44.999Z</time></trkpt><trkpt lat="42.078289475523775" lon="13.371316232004379"><ele>712.0</ele><time>2026-05-01T15:16:45.999Z</time></trkpt><trkpt lat="42.07849290447985" lon="13.370989252199951"><ele>712.0</ele><time>2026-05-01T15:16:46.999Z</time></trkpt><trkpt lat="42.07869591508186" lon="13.370661695937654"><ele>712.0</ele><time>2026-05-01T15:16:47.999Z</time></trkpt><trkpt lat="42.07889732233734" lon="13.370336928164255"><ele>710.5</ele><time>2026-05-01T15:16:48.999Z</time></trkpt><trkpt lat="42.079100577357096" lon="13.370013719000282"><ele>709.0</ele><time>2026-05-01T15:16:49.999Z</time></trkpt><trkpt lat="42.079304196379866" lon="13.369690925007509"><ele>709.0</ele><time>2026-05-01T15:16:50.999Z</time></trkpt><trkpt lat="42.079508033825036" lon="13.369374488024008"><ele>709.0</ele><time>2026-05-01T15:16:51.999Z</time></trkpt><trkpt lat="42.07971158176285" lon="13.369060793191105"><ele>708.5</ele><time>2026-05-01T15:16:52.999Z</time></trkpt><trkpt lat="42.079915339097326" lon="13.368745887309139"><ele>708.0</ele><time>2026-05-01T15:16:53.999Z</time></trkpt><trkpt lat="42.08011750374466" lon="13.36843125541288"><ele>709.0</ele><time>2026-05-01T15:16:54.999Z</time></trkpt><trkpt lat="42.080319476895234" lon="13.368116844626433"><ele>710.0</ele><time>2026-05-01T15:16:55.999Z</time></trkpt><trkpt lat="42.08052225340958" lon="13.367805767623526"><ele>710.0</ele><time>2026-05-01T15:16:56.999Z</time></trkpt><trkpt lat="42.0807255731745" lon="13.367494328972088"><ele>710.0</ele><time>2026-05-01T15:16:57.999Z</time></trkpt><trkpt lat="42.080928546899855" lon="13.367182486544381"><ele>709.5</ele><time>2026-05-01T15:16:58.999Z</time></trkpt><trkpt lat="42.08113044496283" lon="13.366871457560375"><ele>709.0</ele><time>2026-05-01T15:16:59.999Z</time></trkpt><trkpt lat="42.081333355241604" lon="13.366560413671777"><ele>708.5</ele><time>2026-05-01T15:17:00.999Z</time></trkpt><trkpt lat="42.08153652789738" lon="13.366248724246645"><ele>708.0</ele><time>2026-05-01T15:17:01.999Z</time></trkpt><trkpt lat="42.08173956440519" lon="13.365937046464222"><ele>708.0</ele><time>2026-05-01T15:17:02.999Z</time></trkpt><trkpt lat="42.08194238164207" lon="13.365625719254519"><ele>708.0</ele><time>2026-05-01T15:17:03.999Z</time></trkpt><trkpt lat="42.08214686427437" lon="13.365315029001698"><ele>708.0</ele><time>2026-05-01T15:17:04.999Z</time></trkpt><trkpt lat="42.082351906341444" lon="13.365003173185556"><ele>708.0</ele><time>2026-05-01T15:17:05.999Z</time></trkpt><trkpt lat="42.082556565325625" lon="13.364693233984461"><ele>708.0</ele><time>2026-05-01T15:17:06.999Z</time></trkpt><trkpt lat="42.08276389730322" lon="13.364383716416981"><ele>708.0</ele><time>2026-05-01T15:17:07.999Z</time></trkpt><trkpt lat="42.08297368399492" lon="13.364077477949063"><ele>708.0</ele><time>2026-05-01T15:17:08.999Z</time></trkpt><trkpt lat="42.08318265226152" lon="13.363769241769381"><ele>708.0</ele><time>2026-05-01T15:17:09.999Z</time></trkpt><trkpt lat="42.08339107866162" lon="13.363462617000707"><ele>708.0</ele><time>2026-05-01T15:17:10.999Z</time></trkpt><trkpt lat="42.08360016832718" lon="13.363157991540623"><ele>708.0</ele><time>2026-05-01T15:17:11.999Z</time></trkpt><trkpt lat="42.083809670441575" lon="13.3628523994809"><ele>708.0</ele><time>2026-05-01T15:17:12.999Z</time></trkpt><trkpt lat="42.08401894321285" lon="13.362547149657805"><ele>708.0</ele><time>2026-05-01T15:17:13.999Z</time></trkpt><trkpt lat="42.08422850329511" lon="13.36224227066418"><ele>707.0</ele><time>2026-05-01T15:17:14.999Z</time></trkpt><trkpt lat="42.084437428267584" lon="13.361935868740101"><ele>706.0</ele><time>2026-05-01T15:17:15.999Z</time></trkpt><trkpt lat="42.08464570385764" lon="13.361625400213503"><ele>705.5</ele><time>2026-05-01T15:17:16.999Z</time></trkpt><trkpt lat="42.08485339844571" lon="13.361314218855501"><ele>705.0</ele><time>2026-05-01T15:17:17.999Z</time></trkpt><trkpt lat="42.08506373310247" lon="13.3610025488831"><ele>705.0</ele><time>2026-05-01T15:17:18.999Z</time></trkpt><trkpt lat="42.08527526715989" lon="13.360691746235865"><ele>705.0</ele><time>2026-05-01T15:17:19.999Z</time></trkpt><trkpt lat="42.0854859628767" lon="13.360377540054463"><ele>704.0</ele><time>2026-05-01T15:17:20.999Z</time></trkpt><trkpt lat="42.08569817190636" lon="13.360066772089944"><ele>703.0</ele><time>2026-05-01T15:17:21.999Z</time></trkpt><trkpt lat="42.0859116513158" lon="13.35975972674252"><ele>703.0</ele><time>2026-05-01T15:17:22.999Z</time></trkpt><trkpt lat="42.08612585345933" lon="13.359450608495077"><ele>703.0</ele><time>2026-05-01T15:17:23.999Z</time></trkpt><trkpt lat="42.086341982488705" lon="13.359145476801855"><ele>701.5</ele><time>2026-05-01T15:17:24.999Z</time></trkpt><trkpt lat="42.08655901883178" lon="13.358841907113744"><ele>700.0</ele><time>2026-05-01T15:17:25.999Z</time></trkpt><trkpt lat="42.08677654444132" lon="13.358541896212357"><ele>700.0</ele><time>2026-05-01T15:17:26.999Z</time></trkpt><trkpt lat="42.0869941215254" lon="13.358243521536032"><ele>700.0</ele><time>2026-05-01T15:17:27.999Z</time></trkpt><trkpt lat="42.08721128770574" lon="13.357942606665832"><ele>699.5</ele><time>2026-05-01T15:17:28.999Z</time></trkpt><trkpt lat="42.08742272969316" lon="13.35763817911111"><ele>699.0</ele><time>2026-05-01T15:17:29.999Z</time></trkpt><trkpt lat="42.08763150518762" lon="13.357333285274056"><ele>699.0</ele><time>2026-05-01T15:17:30.999Z</time></trkpt><trkpt lat="42.08784391632637" lon="13.357032299554067"><ele>699.0</ele><time>2026-05-01T15:17:31.998Z</time></trkpt><trkpt lat="42.0880571924948" lon="13.356732269232694"><ele>699.0</ele><time>2026-05-01T15:17:32.998Z</time></trkpt><trkpt lat="42.088270756044636" lon="13.356432296181328"><ele>699.0</ele><time>2026-05-01T15:17:33.998Z</time></trkpt><trkpt lat="42.088482163644265" lon="13.356129672238517"><ele>699.0</ele><time>2026-05-01T15:17:34.998Z</time></trkpt><trkpt lat="42.088693399379814" lon="13.355826923259844"><ele>699.0</ele><time>2026-05-01T15:17:35.998Z</time></trkpt><trkpt lat="42.088904376580416" lon="13.355523628298997"><ele>698.5</ele><time>2026-05-01T15:17:36.998Z</time></trkpt><trkpt lat="42.089116088517706" lon="13.355215245701642"><ele>698.0</ele><time>2026-05-01T15:17:37.998Z</time></trkpt><trkpt lat="42.08932791930474" lon="13.35490568315008"><ele>697.0</ele><time>2026-05-01T15:17:38.998Z</time></trkpt><trkpt lat="42.08954039593445" lon="13.35459571231417"><ele>696.0</ele><time>2026-05-01T15:17:39.998Z</time></trkpt><trkpt lat="42.08975257402223" lon="13.354284491109857"><ele>696.0</ele><time>2026-05-01T15:17:40.998Z</time></trkpt><trkpt lat="42.08996233557553" lon="13.353970175427463"><ele>696.0</ele><time>2026-05-01T15:17:41.998Z</time></trkpt><trkpt lat="42.09017217469865" lon="13.35365331029159"><ele>696.0</ele><time>2026-05-01T15:17:42.998Z</time></trkpt><trkpt lat="42.090379283027495" lon="13.353333954639774"><ele>696.0</ele><time>2026-05-01T15:17:43.998Z</time></trkpt><trkpt lat="42.0905835369039" lon="13.353012522160666"><ele>696.5</ele><time>2026-05-01T15:17:44.998Z</time></trkpt><trkpt lat="42.09078636579476" lon="13.3526886394792"><ele>697.0</ele><time>2026-05-01T15:17:45.998Z</time></trkpt><trkpt lat="42.0909894786718" lon="13.352364608720283"><ele>697.0</ele><time>2026-05-01T15:17:46.998Z</time></trkpt><trkpt lat="42.09119190803857" lon="13.352040243412624"><ele>697.0</ele><time>2026-05-01T15:17:47.998Z</time></trkpt><trkpt lat="42.091392074899716" lon="13.351713281748582"><ele>697.0</ele><time>2026-05-01T15:17:48.998Z</time></trkpt><trkpt lat="42.09158941135252" lon="13.351387115400831"><ele>697.0</ele><time>2026-05-01T15:17:49.998Z</time></trkpt><trkpt lat="42.091785468622014" lon="13.351059722017876"><ele>697.0</ele><time>2026-05-01T15:17:50.998Z</time></trkpt><trkpt lat="42.09197925242045" lon="13.350733423622305"><ele>697.0</ele><time>2026-05-01T15:17:51.998Z</time></trkpt><trkpt lat="42.09217321676923" lon="13.350406134159435"><ele>697.0</ele><time>2026-05-01T15:17:52.998Z</time></trkpt><trkpt lat="42.092365950550935" lon="13.35007804687369"><ele>697.0</ele><time>2026-05-01T15:17:53.998Z</time></trkpt><trkpt lat="42.09255870628445" lon="13.349750132439477"><ele>697.0</ele><time>2026-05-01T15:17:54.998Z</time></trkpt><trkpt lat="42.092748301285056" lon="13.349419057778821"><ele>697.0</ele><time>2026-05-01T15:17:55.998Z</time></trkpt><trkpt lat="42.09293617136481" lon="13.349087833989156"><ele>697.0</ele><time>2026-05-01T15:17:56.998Z</time></trkpt><trkpt lat="42.0931226186602" lon="13.348756601369532"><ele>697.0</ele><time>2026-05-01T15:17:57.998Z</time></trkpt><trkpt lat="42.093308853185285" lon="13.348422699241478"><ele>697.0</ele><time>2026-05-01T15:17:58.998Z</time></trkpt><trkpt lat="42.09349319894418" lon="13.348086503009096"><ele>697.0</ele><time>2026-05-01T15:17:59.998Z</time></trkpt><trkpt lat="42.093675451053734" lon="13.347745912233673"><ele>697.5</ele><time>2026-05-01T15:18:00.998Z</time></trkpt><trkpt lat="42.093853735728125" lon="13.347402828121568"><ele>698.0</ele><time>2026-05-01T15:18:01.998Z</time></trkpt><trkpt lat="42.09403224294855" lon="13.347058601361649"><ele>698.0</ele><time>2026-05-01T15:18:02.998Z</time></trkpt><trkpt lat="42.09420953586186" lon="13.346711741682581"><ele>698.0</ele><time>2026-05-01T15:18:03.998Z</time></trkpt><trkpt lat="42.09438822339952" lon="13.346365978018676"><ele>697.5</ele><time>2026-05-01T15:18:05Z</time></trkpt><trkpt lat="42.09456546321655" lon="13.346019697449607"><ele>697.0</ele><time>2026-05-01T15:18:06Z</time></trkpt><trkpt lat="42.09473936533472" lon="13.345669577274721"><ele>696.5</ele><time>2026-05-01T15:18:07Z</time></trkpt><trkpt lat="42.094914372239316" lon="13.345315929228493"><ele>696.0</ele><time>2026-05-01T15:18:08Z</time></trkpt><trkpt lat="42.09508752433807" lon="13.344963318224723"><ele>696.0</ele><time>2026-05-01T15:18:09Z</time></trkpt><trkpt lat="42.095262276014054" lon="13.344608414744567"><ele>696.0</ele><time>2026-05-01T15:18:10Z</time></trkpt><trkpt lat="42.09543196495378" lon="13.34425128061415"><ele>696.0</ele><time>2026-05-01T15:18:11Z</time></trkpt><trkpt lat="42.09560129945892" lon="13.343893043455706"><ele>696.0</ele><time>2026-05-01T15:18:12Z</time></trkpt><trkpt lat="42.095767816320866" lon="13.343532302684043"><ele>696.0</ele><time>2026-05-01T15:18:13Z</time></trkpt><trkpt lat="42.09593378779975" lon="13.343169820791811"><ele>696.0</ele><time>2026-05-01T15:18:14Z</time></trkpt><trkpt lat="42.096096795208695" lon="13.342806936286177"><ele>696.0</ele><time>2026-05-01T15:18:15Z</time></trkpt><trkpt lat="42.09625856733192" lon="13.342444939358996"><ele>696.0</ele><time>2026-05-01T15:18:16Z</time></trkpt><trkpt lat="42.09642023229672" lon="13.34208338619283"><ele>695.5</ele><time>2026-05-01T15:18:17Z</time></trkpt><trkpt lat="42.09657913045252" lon="13.341720931633372"><ele>695.0</ele><time>2026-05-01T15:18:18Z</time></trkpt><trkpt lat="42.096739763464775" lon="13.34136023582687"><ele>696.0</ele><time>2026-05-01T15:18:19Z</time></trkpt><trkpt lat="42.09689704704958" lon="13.340995213177187"><ele>697.0</ele><time>2026-05-01T15:18:20Z</time></trkpt><trkpt lat="42.09704928991137" lon="13.340627064332914"><ele>697.0</ele><time>2026-05-01T15:18:21Z</time></trkpt><trkpt lat="42.09720461273748" lon="13.34025823081672"><ele>697.0</ele><time>2026-05-01T15:18:22Z</time></trkpt><trkpt lat="42.097355248140566" lon="13.339888224840747"><ele>697.5</ele><time>2026-05-01T15:18:23Z</time></trkpt><trkpt lat="42.09750231353052" lon="13.339516921148567"><ele>698.0</ele><time>2026-05-01T15:18:24Z</time></trkpt><trkpt lat="42.09764372584275" lon="13.33914139678413"><ele>697.0</ele><time>2026-05-01T15:18:25Z</time></trkpt><trkpt lat="42.09778557585789" lon="13.338768208485838"><ele>696.0</ele><time>2026-05-01T15:18:26Z</time></trkpt><trkpt lat="42.097925804048046" lon="13.338396438077112"><ele>696.0</ele><time>2026-05-01T15:18:27Z</time></trkpt><trkpt lat="42.098064888821376" lon="13.338023253836825"><ele>696.0</ele><time>2026-05-01T15:18:28Z</time></trkpt><trkpt lat="42.09820391780009" lon="13.337653339330606"><ele>696.5</ele><time>2026-05-01T15:18:29Z</time></trkpt><trkpt lat="42.09834108857489" lon="13.33728310836907"><ele>697.0</ele><time>2026-05-01T15:18:30Z</time></trkpt><trkpt lat="42.09847961448153" lon="13.336910464286493"><ele>697.0</ele><time>2026-05-01T15:18:31Z</time></trkpt><trkpt lat="42.09862373823584" lon="13.336539417221223"><ele>697.0</ele><time>2026-05-01T15:18:32Z</time></trkpt><trkpt lat="42.09876468736526" lon="13.336164961597023"><ele>695.0</ele><time>2026-05-01T15:18:33Z</time></trkpt><trkpt lat="42.09890174589469" lon="13.335787825515073"><ele>693.0</ele><time>2026-05-01T15:18:34Z</time></trkpt><trkpt lat="42.099036028526946" lon="13.335406554970595"><ele>693.5</ele><time>2026-05-01T15:18:35Z</time></trkpt><trkpt lat="42.09916512532501" lon="13.335023641596326"><ele>694.0</ele><time>2026-05-01T15:18:35.999Z</time></trkpt><trkpt lat="42.09929051888368" lon="13.334641022367592"><ele>694.0</ele><time>2026-05-01T15:18:36.999Z</time></trkpt><trkpt lat="42.09941565204285" lon="13.334258378717546"><ele>694.0</ele><time>2026-05-01T15:18:37.999Z</time></trkpt><trkpt lat="42.09953923048548" lon="13.333875133297875"><ele>695.0</ele><time>2026-05-01T15:18:38.999Z</time></trkpt><trkpt lat="42.09965977102526" lon="13.333491777255192"><ele>696.0</ele><time>2026-05-01T15:18:39.999Z</time></trkpt><trkpt lat="42.099778112623554" lon="13.333108681107166"><ele>695.5</ele><time>2026-05-01T15:18:40.999Z</time></trkpt><trkpt lat="42.09989820849068" lon="13.332726660041889"><ele>695.0</ele><time>2026-05-01T15:18:41.999Z</time></trkpt><trkpt lat="42.10001385134155" lon="13.332343514982238"><ele>695.5</ele><time>2026-05-01T15:18:42.999Z</time></trkpt><trkpt lat="42.10012698779411" lon="13.331958871544584"><ele>696.0</ele><time>2026-05-01T15:18:43.999Z</time></trkpt><trkpt lat="42.10023862412117" lon="13.331574088991191"><ele>695.5</ele><time>2026-05-01T15:18:44.999Z</time></trkpt><trkpt lat="42.10034955440362" lon="13.331189374762124"><ele>695.0</ele><time>2026-05-01T15:18:45.999Z</time></trkpt><trkpt lat="42.1004593353068" lon="13.33080375222912"><ele>695.0</ele><time>2026-05-01T15:18:46.999Z</time></trkpt><trkpt lat="42.10056613280973" lon="13.330419984423617"><ele>695.0</ele><time>2026-05-01T15:18:47.999Z</time></trkpt><trkpt lat="42.1006802978214" lon="13.33003711011002"><ele>695.5</ele><time>2026-05-01T15:18:48.999Z</time></trkpt><trkpt lat="42.10078362609437" lon="13.329649982634738"><ele>696.0</ele><time>2026-05-01T15:18:49.999Z</time></trkpt><trkpt lat="42.10088834486476" lon="13.329262431061489"><ele>695.0</ele><time>2026-05-01T15:18:50.999Z</time></trkpt><trkpt lat="42.100994130304855" lon="13.328873002116222"><ele>694.0</ele><time>2026-05-01T15:18:51.999Z</time></trkpt><trkpt lat="42.10110032917536" lon="13.328482567164597"><ele>694.0</ele><time>2026-05-01T15:18:52.999Z</time></trkpt><trkpt lat="42.10120743149321" lon="13.328093828313198"><ele>694.0</ele><time>2026-05-01T15:18:53.999Z</time></trkpt><trkpt lat="42.10131554521387" lon="13.327704795637592"><ele>695.5</ele><time>2026-05-01T15:18:54.999Z</time></trkpt><trkpt lat="42.101422451344746" lon="13.327315427955924"><ele>697.0</ele><time>2026-05-01T15:18:55.999Z</time></trkpt><trkpt lat="42.10152994169732" lon="13.32692509055029"><ele>697.5</ele><time>2026-05-01T15:18:56.999Z</time></trkpt><trkpt lat="42.10163930625751" lon="13.326534744163578"><ele>698.0</ele><time>2026-05-01T15:18:57.999Z</time></trkpt><trkpt lat="42.10174776757122" lon="13.32614379816134"><ele>698.0</ele><time>2026-05-01T15:18:58.999Z</time></trkpt><trkpt lat="42.101855623514034" lon="13.325752434699316"><ele>698.0</ele><time>2026-05-01T15:18:59.999Z</time></trkpt><trkpt lat="42.10196537337429" lon="13.325360422666817"><ele>701.5</ele><time>2026-05-01T15:19:00.999Z</time></trkpt><trkpt lat="42.102076013253004" lon="13.324966016312255"><ele>705.0</ele><time>2026-05-01T15:19:01.999Z</time></trkpt><trkpt lat="42.10218908549081" lon="13.324572595568467"><ele>707.5</ele><time>2026-05-01T15:19:02.999Z</time></trkpt><trkpt lat="42.10230426436689" lon="13.324178077552661"><ele>710.0</ele><time>2026-05-01T15:19:03.999Z</time></trkpt><trkpt lat="42.10242266370797" lon="13.323783786917438"><ele>705.0</ele><time>2026-05-01T15:19:04.999Z</time></trkpt><trkpt lat="42.102542096643454" lon="13.323388986734605"><ele>700.0</ele><time>2026-05-01T15:19:05.999Z</time></trkpt><trkpt lat="42.10266225739962" lon="13.32299551832285"><ele>700.0</ele><time>2026-05-01T15:19:06.999Z</time></trkpt><trkpt lat="42.102783579284115" lon="13.322603304391322"><ele>700.0</ele><time>2026-05-01T15:19:07.999Z</time></trkpt><trkpt lat="42.102906536941234" lon="13.322212005822804"><ele>702.0</ele><time>2026-05-01T15:19:08.999Z</time></trkpt><trkpt lat="42.103034094124055" lon="13.321822070596523"><ele>704.0</ele><time>2026-05-01T15:19:09.999Z</time></trkpt><trkpt lat="42.10316301571608" lon="13.321435202277778"><ele>700.5</ele><time>2026-05-01T15:19:10.999Z</time></trkpt><trkpt lat="42.103292498458586" lon="13.3210510152145"><ele>697.0</ele><time>2026-05-01T15:19:11.999Z</time></trkpt><trkpt lat="42.103423133886906" lon="13.320668167348229"><ele>698.0</ele><time>2026-05-01T15:19:12.999Z</time></trkpt><trkpt lat="42.103555146777246" lon="13.320286727376402"><ele>699.0</ele><time>2026-05-01T15:19:13.999Z</time></trkpt><trkpt lat="42.103690261155855" lon="13.319908230442696"><ele>701.5</ele><time>2026-05-01T15:19:14.999Z</time></trkpt><trkpt lat="42.10382629885585" lon="13.319530983363956"><ele>704.0</ele><time>2026-05-01T15:19:15.999Z</time></trkpt><trkpt lat="42.10396397934558" lon="13.319157613210164"><ele>701.0</ele><time>2026-05-01T15:19:16.999Z</time></trkpt><trkpt lat="42.1041024353327" lon="13.318785921645532"><ele>698.0</ele><time>2026-05-01T15:19:17.999Z</time></trkpt><trkpt lat="42.1042443864006" lon="13.318418645819428"><ele>701.0</ele><time>2026-05-01T15:19:18.999Z</time></trkpt><trkpt lat="42.10438786153806" lon="13.318055180034573"><ele>704.0</ele><time>2026-05-01T15:19:19.999Z</time></trkpt><trkpt lat="42.104535453798384" lon="13.317689029651811"><ele>704.0</ele><time>2026-05-01T15:19:20.999Z</time></trkpt><trkpt lat="42.10468513399906" lon="13.317325848475143"><ele>704.0</ele><time>2026-05-01T15:19:21.999Z</time></trkpt><trkpt lat="42.10483650110123" lon="13.316963551110888"><ele>702.0</ele><time>2026-05-01T15:19:22.999Z</time></trkpt><trkpt lat="42.10499105352515" lon="13.316604682624765"><ele>700.0</ele><time>2026-05-01T15:19:23.999Z</time></trkpt><trkpt lat="42.105150804834196" lon="13.31624883027131"><ele>700.0</ele><time>2026-05-01T15:19:24.999Z</time></trkpt><trkpt lat="42.105314838699364" lon="13.315894998413073"><ele>700.0</ele><time>2026-05-01T15:19:25.999Z</time></trkpt><trkpt lat="42.10548265431053" lon="13.315543191480337"><ele>699.0</ele><time>2026-05-01T15:19:26.999Z</time></trkpt><trkpt lat="42.10565018494852" lon="13.315195264708734"><ele>698.0</ele><time>2026-05-01T15:19:27.999Z</time></trkpt><trkpt lat="42.10581887760067" lon="13.31485143305904"><ele>700.5</ele><time>2026-05-01T15:19:28.999Z</time></trkpt><trkpt lat="42.10599069590169" lon="13.314508904681944"><ele>703.0</ele><time>2026-05-01T15:19:29.999Z</time></trkpt><trkpt lat="42.106163102388656" lon="13.314163957107699"><ele>705.5</ele><time>2026-05-01T15:19:30.999Z</time></trkpt><trkpt lat="42.106338996835596" lon="13.313820314104614"><ele>708.0</ele><time>2026-05-01T15:19:31.999Z</time></trkpt><trkpt lat="42.10651435997913" lon="13.313476586860203"><ele>704.0</ele><time>2026-05-01T15:19:32.999Z</time></trkpt><trkpt lat="42.10669034519102" lon="13.313133808391123"><ele>700.0</ele><time>2026-05-01T15:19:33.999Z</time></trkpt><trkpt lat="42.10686588905628" lon="13.312790172635376"><ele>700.0</ele><time>2026-05-01T15:19:34.999Z</time></trkpt><trkpt lat="42.107039385848964" lon="13.31244534016768"><ele>700.0</ele><time>2026-05-01T15:19:35.999Z</time></trkpt><trkpt lat="42.1072168171952" lon="13.312101776038734"><ele>698.0</ele><time>2026-05-01T15:19:36.998Z</time></trkpt><trkpt lat="42.10739629293794" lon="13.311760195258625"><ele>696.0</ele><time>2026-05-01T15:19:37.998Z</time></trkpt><trkpt lat="42.107577663359294" lon="13.311419840127877"><ele>702.0</ele><time>2026-05-01T15:19:38.998Z</time></trkpt><trkpt lat="42.10775965056558" lon="13.311079565335227"><ele>708.0</ele><time>2026-05-01T15:19:39.998Z</time></trkpt><trkpt lat="42.107940393146364" lon="13.310736615250855"><ele>704.0</ele><time>2026-05-01T15:19:40.998Z</time></trkpt><trkpt lat="42.10812023641284" lon="13.310390710949576"><ele>700.0</ele><time>2026-05-01T15:19:41.998Z</time></trkpt><trkpt lat="42.1082961553479" lon="13.310040710795443"><ele>701.0</ele><time>2026-05-01T15:19:42.998Z</time></trkpt><trkpt lat="42.1084725077481" lon="13.30968961570026"><ele>702.0</ele><time>2026-05-01T15:19:43.998Z</time></trkpt><trkpt lat="42.1086444087528" lon="13.309337104827934"><ele>702.0</ele><time>2026-05-01T15:19:44.998Z</time></trkpt><trkpt lat="42.10881592643694" lon="13.308984558549232"><ele>702.0</ele><time>2026-05-01T15:19:45.998Z</time></trkpt><trkpt lat="42.108989167489746" lon="13.308633033043808"><ele>700.5</ele><time>2026-05-01T15:19:46.998Z</time></trkpt><trkpt lat="42.109161823960285" lon="13.308281981688214"><ele>699.0</ele><time>2026-05-01T15:19:47.998Z</time></trkpt><trkpt lat="42.10933621962189" lon="13.30792862168943"><ele>699.0</ele><time>2026-05-01T15:19:48.998Z</time></trkpt><trkpt lat="42.109511108327816" lon="13.307572785314667"><ele>699.0</ele><time>2026-05-01T15:19:49.998Z</time></trkpt><trkpt lat="42.109681956822186" lon="13.307211337758199"><ele>700.5</ele><time>2026-05-01T15:19:50.998Z</time></trkpt><trkpt lat="42.10985475460659" lon="13.30685141705719"><ele>702.0</ele><time>2026-05-01T15:19:51.998Z</time></trkpt><trkpt lat="42.110027404103" lon="13.306492268593505"><ele>700.0</ele><time>2026-05-01T15:19:52.998Z</time></trkpt><trkpt lat="42.11020007416541" lon="13.306131677956106"><ele>698.0</ele><time>2026-05-01T15:19:53.998Z</time></trkpt><trkpt lat="42.11036986742244" lon="13.305771827630174"><ele>702.5</ele><time>2026-05-01T15:19:54.998Z</time></trkpt><trkpt lat="42.110537907872356" lon="13.305409960454444"><ele>707.0</ele><time>2026-05-01T15:19:55.998Z</time></trkpt><trkpt lat="42.11070684240917" lon="13.305050222653831"><ele>703.0</ele><time>2026-05-01T15:19:56.998Z</time></trkpt><trkpt lat="42.110874348082575" lon="13.304690181941716"><ele>699.0</ele><time>2026-05-01T15:19:57.998Z</time></trkpt><trkpt lat="42.111042225991845" lon="13.30433665201363"><ele>699.0</ele><time>2026-05-01T15:19:58.998Z</time></trkpt><trkpt lat="42.111211450964" lon="13.303988436550055"><ele>699.0</ele><time>2026-05-01T15:19:59.998Z</time></trkpt><trkpt lat="42.11138030366701" lon="13.303643384909975"><ele>698.5</ele><time>2026-05-01T15:20:00.998Z</time></trkpt><trkpt lat="42.11155071543862" lon="13.303298273032961"><ele>698.0</ele><time>2026-05-01T15:20:01.998Z</time></trkpt><trkpt lat="42.11172318553093" lon="13.302958732596046"><ele>698.0</ele><time>2026-05-01T15:20:02.998Z</time></trkpt><trkpt lat="42.11190074342073" lon="13.302626808186247"><ele>698.0</ele><time>2026-05-01T15:20:03.998Z</time></trkpt><trkpt lat="42.11208561270825" lon="13.302299397962267"><ele>697.0</ele><time>2026-05-01T15:20:04.998Z</time></trkpt><trkpt lat="42.11227998882258" lon="13.301980353482614"><ele>696.0</ele><time>2026-05-01T15:20:05.998Z</time></trkpt><trkpt lat="42.112483670478156" lon="13.301669636705746"><ele>701.5</ele><time>2026-05-01T15:20:06.998Z</time></trkpt><trkpt lat="42.11269406386232" lon="13.30136220430364"><ele>707.0</ele><time>2026-05-01T15:20:07.998Z</time></trkpt><trkpt lat="42.11291019260644" lon="13.301061469197672"><ele>707.0</ele><time>2026-05-01T15:20:08.998Z</time></trkpt><trkpt lat="42.11313589632093" lon="13.30076957875916"><ele>707.0</ele><time>2026-05-01T15:20:09.998Z</time></trkpt><trkpt lat="42.113369235557464" lon="13.300486908985022"><ele>703.5</ele><time>2026-05-01T15:20:11Z</time></trkpt><trkpt lat="42.11360952736766" lon="13.300217297849244"><ele>700.0</ele><time>2026-05-01T15:20:12Z</time></trkpt><trkpt lat="42.11385832232432" lon="13.29996494027618"><ele>698.0</ele><time>2026-05-01T15:20:13Z</time></trkpt><trkpt lat="42.114112889595205" lon="13.299721665001147"><ele>696.0</ele><time>2026-05-01T15:20:14Z</time></trkpt><trkpt lat="42.11437270753979" lon="13.299493960517157"><ele>696.0</ele><time>2026-05-01T15:20:15Z</time></trkpt><trkpt lat="42.11463991825352" lon="13.299276497468062"><ele>696.0</ele><time>2026-05-01T15:20:16Z</time></trkpt><trkpt lat="42.11491218180335" lon="13.299073601387452"><ele>696.0</ele><time>2026-05-01T15:20:17Z</time></trkpt><trkpt lat="42.115187706079965" lon="13.29887777327789"><ele>696.0</ele><time>2026-05-01T15:20:18Z</time></trkpt><trkpt lat="42.115468166737536" lon="13.298691710845114"><ele>695.0</ele><time>2026-05-01T15:20:19Z</time></trkpt><trkpt lat="42.11574687370605" lon="13.298501584031554"><ele>694.0</ele><time>2026-05-01T15:20:20Z</time></trkpt><trkpt lat="42.116025249796024" lon="13.298307785293865"><ele>694.0</ele><time>2026-05-01T15:20:21Z</time></trkpt><trkpt lat="42.11629716432841" lon="13.298107077942845"><ele>694.0</ele><time>2026-05-01T15:20:22Z</time></trkpt><trkpt lat="42.11657272563358" lon="13.297902147178654"><ele>697.0</ele><time>2026-05-01T15:20:23Z</time></trkpt><trkpt lat="42.1168453549918" lon="13.29768956492973"><ele>700.0</ele><time>2026-05-01T15:20:24Z</time></trkpt><trkpt lat="42.11710090653526" lon="13.297462512731938"><ele>700.0</ele><time>2026-05-01T15:20:25Z</time></trkpt><trkpt lat="42.11735805064626" lon="13.297228183851068"><ele>700.0</ele><time>2026-05-01T15:20:26Z</time></trkpt><trkpt lat="42.11760716810259" lon="13.296976530227987"><ele>700.0</ele><time>2026-05-01T15:20:27Z</time></trkpt><trkpt lat="42.11784920102332" lon="13.296699565064484"><ele>700.0</ele><time>2026-05-01T15:20:28Z</time></trkpt><trkpt lat="42.11808047341071" lon="13.296411049355184"><ele>697.5</ele><time>2026-05-01T15:20:29Z</time></trkpt><trkpt lat="42.11830412103386" lon="13.296116099483624"><ele>695.0</ele><time>2026-05-01T15:20:30Z</time></trkpt><trkpt lat="42.11851394370135" lon="13.2958101771247"><ele>696.5</ele><time>2026-05-01T15:20:31Z</time></trkpt><trkpt lat="42.11872240702501" lon="13.295492584611344"><ele>698.0</ele><time>2026-05-01T15:20:32Z</time></trkpt><trkpt lat="42.11892324339922" lon="13.295164106707219"><ele>696.5</ele><time>2026-05-01T15:20:33Z</time></trkpt><trkpt lat="42.119116047496185" lon="13.29482810593484"><ele>695.0</ele><time>2026-05-01T15:20:34Z</time></trkpt><trkpt lat="42.11930111667472" lon="13.294482786748594"><ele>695.0</ele><time>2026-05-01T15:20:35Z</time></trkpt><trkpt lat="42.11948216063692" lon="13.294138918956484"><ele>695.0</ele><time>2026-05-01T15:20:36Z</time></trkpt><trkpt lat="42.11966537576646" lon="13.293794561366592"><ele>695.5</ele><time>2026-05-01T15:20:37Z</time></trkpt><trkpt lat="42.119849564805165" lon="13.293448234932265"><ele>696.0</ele><time>2026-05-01T15:20:38Z</time></trkpt><trkpt lat="42.1200338774269" lon="13.293099696102049"><ele>694.0</ele><time>2026-05-01T15:20:39Z</time></trkpt><trkpt lat="42.12021823117718" lon="13.292755240640357"><ele>692.0</ele><time>2026-05-01T15:20:40Z</time></trkpt><trkpt lat="42.1204004013438" lon="13.292409905747768"><ele>692.5</ele><time>2026-05-01T15:20:41Z</time></trkpt><trkpt lat="42.1205825188206" lon="13.29206448953248"><ele>693.0</ele><time>2026-05-01T15:20:42Z</time></trkpt><trkpt lat="42.120764526901816" lon="13.291718066884076"><ele>693.5</ele><time>2026-05-01T15:20:43Z</time></trkpt><trkpt lat="42.12094692729139" lon="13.29137148312741"><ele>694.0</ele><time>2026-05-01T15:20:44Z</time></trkpt><trkpt lat="42.12112991619665" lon="13.29102589793319"><ele>694.0</ele><time>2026-05-01T15:20:45Z</time></trkpt><trkpt lat="42.12131502809217" lon="13.290681730132402"><ele>694.0</ele><time>2026-05-01T15:20:46Z</time></trkpt><trkpt lat="42.12150394965557" lon="13.290340457471645"><ele>693.5</ele><time>2026-05-01T15:20:46.999Z</time></trkpt><trkpt lat="42.12169792361402" lon="13.290001616253646"><ele>693.0</ele><time>2026-05-01T15:20:47.999Z</time></trkpt><trkpt lat="42.1218970126101" lon="13.289670970824213"><ele>695.0</ele><time>2026-05-01T15:20:48.999Z</time></trkpt><trkpt lat="42.122099449729845" lon="13.289346282872339"><ele>697.0</ele><time>2026-05-01T15:20:49.999Z</time></trkpt><trkpt lat="42.122306254521256" lon="13.28902497094692"><ele>695.5</ele><time>2026-05-01T15:20:50.999Z</time></trkpt><trkpt lat="42.12251549412865" lon="13.28870690997715"><ele>694.0</ele><time>2026-05-01T15:20:51.999Z</time></trkpt><trkpt lat="42.122725123619965" lon="13.288392174700231"><ele>694.0</ele><time>2026-05-01T15:20:52.999Z</time></trkpt><trkpt lat="42.12293916946559" lon="13.288081339169"><ele>694.0</ele><time>2026-05-01T15:20:53.999Z</time></trkpt><trkpt lat="42.12315752134942" lon="13.287772733552133"><ele>693.5</ele><time>2026-05-01T15:20:54.999Z</time></trkpt><trkpt lat="42.12337963097466" lon="13.287468391234095"><ele>693.0</ele><time>2026-05-01T15:20:55.999Z</time></trkpt><trkpt lat="42.12360368423194" lon="13.287169948506751"><ele>693.0</ele><time>2026-05-01T15:20:56.999Z</time></trkpt><trkpt lat="42.12383050884196" lon="13.286873792828676"><ele>693.0</ele><time>2026-05-01T15:20:57.999Z</time></trkpt><trkpt lat="42.12406102883963" lon="13.28658247645841"><ele>693.0</ele><time>2026-05-01T15:20:58.999Z</time></trkpt><trkpt lat="42.12429739752222" lon="13.28629123277131"><ele>693.0</ele><time>2026-05-01T15:20:59.999Z</time></trkpt><trkpt lat="42.12453768064964" lon="13.286008303703682"><ele>693.0</ele><time>2026-05-01T15:21:00.999Z</time></trkpt><trkpt lat="42.124779868015075" lon="13.285733037788226"><ele>693.0</ele><time>2026-05-01T15:21:01.999Z</time></trkpt><trkpt lat="42.125022096118" lon="13.285457011645855"><ele>693.0</ele><time>2026-05-01T15:21:02.999Z</time></trkpt><trkpt lat="42.125267026174186" lon="13.285185128904612"><ele>693.0</ele><time>2026-05-01T15:21:03.999Z</time></trkpt><trkpt lat="42.125516407396596" lon="13.284918780960462"><ele>693.5</ele><time>2026-05-01T15:21:04.999Z</time></trkpt><trkpt lat="42.125769824269064" lon="13.284659175606414"><ele>694.0</ele><time>2026-05-01T15:21:05.999Z</time></trkpt><trkpt lat="42.12602517562263" lon="13.284404032650903"><ele>694.0</ele><time>2026-05-01T15:21:06.999Z</time></trkpt><trkpt lat="42.126282180146" lon="13.284154654369786"><ele>694.0</ele><time>2026-05-01T15:21:07.999Z</time></trkpt><trkpt lat="42.12653923710242" lon="13.28390751068215"><ele>693.5</ele><time>2026-05-01T15:21:08.999Z</time></trkpt><trkpt lat="42.12680019515664" lon="13.28366739738812"><ele>693.0</ele><time>2026-05-01T15:21:09.999Z</time></trkpt><trkpt lat="42.12706263471227" lon="13.283431414552675"><ele>693.0</ele><time>2026-05-01T15:21:10.999Z</time></trkpt><trkpt lat="42.12732721894963" lon="13.283200229446685"><ele>693.0</ele><time>2026-05-01T15:21:11.999Z</time></trkpt><trkpt lat="42.127594050157576" lon="13.282973322212467"><ele>693.5</ele><time>2026-05-01T15:21:12.999Z</time></trkpt><trkpt lat="42.127862664013364" lon="13.282752136885682"><ele>694.0</ele><time>2026-05-01T15:21:13.999Z</time></trkpt><trkpt lat="42.12813264942934" lon="13.282532122536036"><ele>693.5</ele><time>2026-05-01T15:21:14.999Z</time></trkpt><trkpt lat="42.1284043555286" lon="13.282315711045083"><ele>693.0</ele><time>2026-05-01T15:21:15.999Z</time></trkpt><trkpt lat="42.128678186352914" lon="13.282102345574696"><ele>692.5</ele><time>2026-05-01T15:21:16.999Z</time></trkpt><trkpt lat="42.128952267970405" lon="13.281889090839316"><ele>692.0</ele><time>2026-05-01T15:21:17.999Z</time></trkpt><trkpt lat="42.129225722735804" lon="13.2816754849731"><ele>691.5</ele><time>2026-05-01T15:21:18.999Z</time></trkpt><trkpt lat="42.12949644126096" lon="13.281461305885738"><ele>691.0</ele><time>2026-05-01T15:21:19.999Z</time></trkpt><trkpt lat="42.129767903529356" lon="13.281249013195032"><ele>691.5</ele><time>2026-05-01T15:21:20.999Z</time></trkpt><trkpt lat="42.13003728036643" lon="13.281035405348568"><ele>692.0</ele><time>2026-05-01T15:21:21.999Z</time></trkpt><trkpt lat="42.130306267146715" lon="13.280819209956826"><ele>692.5</ele><time>2026-05-01T15:21:22.999Z</time></trkpt><trkpt lat="42.130575167955634" lon="13.280599121978693"><ele>693.0</ele><time>2026-05-01T15:21:23.999Z</time></trkpt><trkpt lat="42.13084370677717" lon="13.280378565699278"><ele>693.0</ele><time>2026-05-01T15:21:24.999Z</time></trkpt><trkpt lat="42.13111156011912" lon="13.280156180550868"><ele>693.0</ele><time>2026-05-01T15:21:25.999Z</time></trkpt><trkpt lat="42.1313807159221" lon="13.279933737952106"><ele>692.5</ele><time>2026-05-01T15:21:26.999Z</time></trkpt><trkpt lat="42.1316497082774" lon="13.279712567843474"><ele>692.0</ele><time>2026-05-01T15:21:27.999Z</time></trkpt><trkpt lat="42.13191617229509" lon="13.279491427240671"><ele>692.0</ele><time>2026-05-01T15:21:28.999Z</time></trkpt><trkpt lat="42.13218239237151" lon="13.279267107161866"><ele>692.0</ele><time>2026-05-01T15:21:29.999Z</time></trkpt><trkpt lat="42.13244786293816" lon="13.279039209516485"><ele>692.5</ele><time>2026-05-01T15:21:30.999Z</time></trkpt><trkpt lat="42.132712916157764" lon="13.278810250456209"><ele>693.0</ele><time>2026-05-01T15:21:31.999Z</time></trkpt><trkpt lat="42.132974403275135" lon="13.278578466295997"><ele>693.0</ele><time>2026-05-01T15:21:32.999Z</time></trkpt><trkpt lat="42.13323547495184" lon="13.278340237258195"><ele>693.0</ele><time>2026-05-01T15:21:33.999Z</time></trkpt><trkpt lat="42.133493790532874" lon="13.27809274260595"><ele>691.5</ele><time>2026-05-01T15:21:34.999Z</time></trkpt><trkpt lat="42.13375332033421" lon="13.277842141840159"><ele>690.0</ele><time>2026-05-01T15:21:35.999Z</time></trkpt><trkpt lat="42.134007631006185" lon="13.277587086199249"><ele>690.5</ele><time>2026-05-01T15:21:36.999Z</time></trkpt><trkpt lat="42.1342585522746" lon="13.277325267925232"><ele>691.0</ele><time>2026-05-01T15:21:37.999Z</time></trkpt><trkpt lat="42.134510964858386" lon="13.277059067448484"><ele>691.0</ele><time>2026-05-01T15:21:38.999Z</time></trkpt><trkpt lat="42.13476246636819" lon="13.276796903184838"><ele>691.0</ele><time>2026-05-01T15:21:39.999Z</time></trkpt><trkpt lat="42.135014532869974" lon="13.276533338335874"><ele>691.0</ele><time>2026-05-01T15:21:40.999Z</time></trkpt><trkpt lat="42.1352633466612" lon="13.276269623573448"><ele>691.0</ele><time>2026-05-01T15:21:41.999Z</time></trkpt><trkpt lat="42.135512466822064" lon="13.276004721269707"><ele>691.0</ele><time>2026-05-01T15:21:42.999Z</time></trkpt><trkpt lat="42.13575828236168" lon="13.275737436960387"><ele>691.0</ele><time>2026-05-01T15:21:43.999Z</time></trkpt><trkpt lat="42.136001985672195" lon="13.275470729078602"><ele>692.0</ele><time>2026-05-01T15:21:44.999Z</time></trkpt><trkpt lat="42.13624228363999" lon="13.275200292385964"><ele>693.0</ele><time>2026-05-01T15:21:45.999Z</time></trkpt><trkpt lat="42.13648329118908" lon="13.27493014087921"><ele>693.5</ele><time>2026-05-01T15:21:46.999Z</time></trkpt><trkpt lat="42.13672761561364" lon="13.274666238570356"><ele>694.0</ele><time>2026-05-01T15:21:47.998Z</time></trkpt><trkpt lat="42.1369756026054" lon="13.27440827808602"><ele>694.0</ele><time>2026-05-01T15:21:48.998Z</time></trkpt><trkpt lat="42.137223899243246" lon="13.274152095045421"><ele>694.0</ele><time>2026-05-01T15:21:49.998Z</time></trkpt><trkpt lat="42.13747094302148" lon="13.273894498853666"><ele>693.5</ele><time>2026-05-01T15:21:50.998Z</time></trkpt><trkpt lat="42.13771470730035" lon="13.273635495989641"><ele>693.0</ele><time>2026-05-01T15:21:51.998Z</time></trkpt><trkpt lat="42.13795851737838" lon="13.273373048975277"><ele>693.0</ele><time>2026-05-01T15:21:52.998Z</time></trkpt><trkpt lat="42.138198695087254" lon="13.273108549720895"><ele>693.0</ele><time>2026-05-01T15:21:53.998Z</time></trkpt><trkpt lat="42.138438315002865" lon="13.272844376887535"><ele>694.0</ele><time>2026-05-01T15:21:54.998Z</time></trkpt><trkpt lat="42.138678591893395" lon="13.272581754980317"><ele>695.0</ele><time>2026-05-01T15:21:55.998Z</time></trkpt><trkpt lat="42.13891991039814" lon="13.272321777868262"><ele>695.5</ele><time>2026-05-01T15:21:56.998Z</time></trkpt><trkpt lat="42.13916225609081" lon="13.27206483669488"><ele>696.0</ele><time>2026-05-01T15:21:57.998Z</time></trkpt><trkpt lat="42.139405661397966" lon="13.271806539257573"><ele>696.0</ele><time>2026-05-01T15:21:58.998Z</time></trkpt><trkpt lat="42.13964881500543" lon="13.27154878749576"><ele>696.0</ele><time>2026-05-01T15:21:59.998Z</time></trkpt><trkpt lat="42.139893239443346" lon="13.271294911486468"><ele>696.5</ele><time>2026-05-01T15:22:00.998Z</time></trkpt><trkpt lat="42.14013865279648" lon="13.27104684551713"><ele>697.0</ele><time>2026-05-01T15:22:01.998Z</time></trkpt><trkpt lat="42.14038795782937" lon="13.270807447263314"><ele>696.5</ele><time>2026-05-01T15:22:02.998Z</time></trkpt><trkpt lat="42.140643301365415" lon="13.27057791575266"><ele>696.0</ele><time>2026-05-01T15:22:03.998Z</time></trkpt><trkpt lat="42.14090345902736" lon="13.270360897650466"><ele>696.0</ele><time>2026-05-01T15:22:04.998Z</time></trkpt><trkpt lat="42.14116852213486" lon="13.270158040510328"><ele>696.0</ele><time>2026-05-01T15:22:05.998Z</time></trkpt><trkpt lat="42.14143723613789" lon="13.2699683090649"><ele>697.0</ele><time>2026-05-01T15:22:06.998Z</time></trkpt><trkpt lat="42.1417081504414" lon="13.269790964170792"><ele>698.0</ele><time>2026-05-01T15:22:07.998Z</time></trkpt><trkpt lat="42.141979827444366" lon="13.269621135073791"><ele>698.5</ele><time>2026-05-01T15:22:08.998Z</time></trkpt><trkpt lat="42.142252202566645" lon="13.269457646639937"><ele>699.0</ele><time>2026-05-01T15:22:09.998Z</time></trkpt><trkpt lat="42.142527126036065" lon="13.269297700344493"><ele>700.0</ele><time>2026-05-01T15:22:10.998Z</time></trkpt><trkpt lat="42.14280199323681" lon="13.269142451252735"><ele>701.0</ele><time>2026-05-01T15:22:11.998Z</time></trkpt><trkpt lat="42.143076387065534" lon="13.268992628991354"><ele>702.0</ele><time>2026-05-01T15:22:12.998Z</time></trkpt><trkpt lat="42.14334942988029" lon="13.268837220987587"><ele>703.0</ele><time>2026-05-01T15:22:13.998Z</time></trkpt><trkpt lat="42.14362038702992" lon="13.268676755721735"><ele>703.0</ele><time>2026-05-01T15:22:14.998Z</time></trkpt><trkpt lat="42.1438889097169" lon="13.268509874799747"><ele>703.0</ele><time>2026-05-01T15:22:15.998Z</time></trkpt><trkpt lat="42.14415499816881" lon="13.268332158124798"><ele>703.0</ele><time>2026-05-01T15:22:17Z</time></trkpt><trkpt lat="42.14441375760725" lon="13.268143628852012"><ele>703.0</ele><time>2026-05-01T15:22:18Z</time></trkpt><trkpt lat="42.144663647936504" lon="13.267936076457074"><ele>705.5</ele><time>2026-05-01T15:22:19Z</time></trkpt><trkpt lat="42.14490564151719" lon="13.267707879057085"><ele>708.0</ele><time>2026-05-01T15:22:20Z</time></trkpt><trkpt lat="42.14513672278212" lon="13.267461042032492"><ele>708.0</ele><time>2026-05-01T15:22:21Z</time></trkpt><trkpt lat="42.1453574261453" lon="13.267194246721656"><ele>708.0</ele><time>2026-05-01T15:22:22Z</time></trkpt><trkpt lat="42.14556521855254" lon="13.266906576893208"><ele>710.0</ele><time>2026-05-01T15:22:23Z</time></trkpt><trkpt lat="42.1457553783441" lon="13.266595480137754"><ele>712.0</ele><time>2026-05-01T15:22:24Z</time></trkpt><trkpt lat="42.14593184188731" lon="13.266270646099924"><ele>712.0</ele><time>2026-05-01T15:22:25Z</time></trkpt><trkpt lat="42.146092540811644" lon="13.265932955760245"><ele>712.0</ele><time>2026-05-01T15:22:26Z</time></trkpt><trkpt lat="42.146221906755926" lon="13.265572714898322"><ele>710.5</ele><time>2026-05-01T15:22:27Z</time></trkpt><trkpt lat="42.14633306585097" lon="13.265191433025267"><ele>709.0</ele><time>2026-05-01T15:22:28Z</time></trkpt><trkpt lat="42.14642760345165" lon="13.264806505550675"><ele>707.0</ele><time>2026-05-01T15:22:29Z</time></trkpt><trkpt lat="42.14650378358075" lon="13.264419559121702"><ele>705.0</ele><time>2026-05-01T15:22:30Z</time></trkpt><trkpt lat="42.146555848846326" lon="13.264021721891018"><ele>705.0</ele><time>2026-05-01T15:22:31Z</time></trkpt><trkpt lat="42.14658777614977" lon="13.263616859580422"><ele>705.0</ele><time>2026-05-01T15:22:32Z</time></trkpt><trkpt lat="42.14659070968586" lon="13.263207426462317"><ele>704.5</ele><time>2026-05-01T15:22:33Z</time></trkpt><trkpt lat="42.14657602087879" lon="13.2627987438935"><ele>704.0</ele><time>2026-05-01T15:22:34Z</time></trkpt><trkpt lat="42.14654428766146" lon="13.262389471559485"><ele>702.5</ele><time>2026-05-01T15:22:35Z</time></trkpt><trkpt lat="42.14650715933069" lon="13.261980195247277"><ele>701.0</ele><time>2026-05-01T15:22:36Z</time></trkpt><trkpt lat="42.1464701318268" lon="13.261565455904941"><ele>701.0</ele><time>2026-05-01T15:22:37Z</time></trkpt><trkpt lat="42.14643629754168" lon="13.2611463343043"><ele>701.0</ele><time>2026-05-01T15:22:38Z</time></trkpt><trkpt lat="42.14641011871889" lon="13.260724619138115"><ele>700.5</ele><time>2026-05-01T15:22:39Z</time></trkpt><trkpt lat="42.146395849141705" lon="13.26029983859655"><ele>700.0</ele><time>2026-05-01T15:22:40Z</time></trkpt><trkpt lat="42.14639384294812" lon="13.259872947131889"><ele>699.0</ele><time>2026-05-01T15:22:41Z</time></trkpt><trkpt lat="42.1464078779837" lon="13.259443218762575"><ele>698.0</ele><time>2026-05-01T15:22:42Z</time></trkpt><trkpt lat="42.146437512525026" lon="13.259015283980869"><ele>699.0</ele><time>2026-05-01T15:22:43Z</time></trkpt><trkpt lat="42.146484505537124" lon="13.258592451131516"><ele>700.0</ele><time>2026-05-01T15:22:44Z</time></trkpt><trkpt lat="42.14654565945565" lon="13.258176357675863"><ele>699.5</ele><time>2026-05-01T15:22:45Z</time></trkpt><trkpt lat="42.14662005659807" lon="13.25776513792776"><ele>699.0</ele><time>2026-05-01T15:22:46Z</time></trkpt><trkpt lat="42.14670718455134" lon="13.257358806034965"><ele>697.5</ele><time>2026-05-01T15:22:47Z</time></trkpt><trkpt lat="42.146805409477764" lon="13.256955327590873"><ele>696.0</ele><time>2026-05-01T15:22:48Z</time></trkpt><trkpt lat="42.14691330872078" lon="13.256561775962705"><ele>695.0</ele><time>2026-05-01T15:22:49Z</time></trkpt><trkpt lat="42.14702944064935" lon="13.25616966998928"><ele>694.0</ele><time>2026-05-01T15:22:50Z</time></trkpt><trkpt lat="42.147146148012844" lon="13.255785572965198"><ele>693.5</ele><time>2026-05-01T15:22:51Z</time></trkpt><trkpt lat="42.14726286845857" lon="13.255406320126747"><ele>693.0</ele><time>2026-05-01T15:22:51.999Z</time></trkpt><trkpt lat="42.14737773553672" lon="13.255023184965081"><ele>692.0</ele><time>2026-05-01T15:22:52.999Z</time></trkpt><trkpt lat="42.14749006348695" lon="13.254639936584795"><ele>691.0</ele><time>2026-05-01T15:22:53.999Z</time></trkpt><trkpt lat="42.14760152150467" lon="13.254256932087005"><ele>689.5</ele><time>2026-05-01T15:22:54.999Z</time></trkpt><trkpt lat="42.14771420433525" lon="13.253873774876586"><ele>688.0</ele><time>2026-05-01T15:22:55.999Z</time></trkpt><trkpt lat="42.14782457243878" lon="13.253496109850337"><ele>686.5</ele><time>2026-05-01T15:22:56.999Z</time></trkpt><trkpt lat="42.1479394060667" lon="13.253119957038104"><ele>685.0</ele><time>2026-05-01T15:22:57.999Z</time></trkpt><trkpt lat="42.14805772393664" lon="13.252746708091586"><ele>685.0</ele><time>2026-05-01T15:22:58.999Z</time></trkpt><trkpt lat="42.14817922896594" lon="13.252378710677382"><ele>685.0</ele><time>2026-05-01T15:22:59.999Z</time></trkpt><trkpt lat="42.14830045165403" lon="13.252012147947804"><ele>682.5</ele><time>2026-05-01T15:23:00.999Z</time></trkpt><trkpt lat="42.14841934111735" lon="13.251645779093867"><ele>680.0</ele><time>2026-05-01T15:23:01.999Z</time></trkpt><trkpt lat="42.148536551984904" lon="13.251278536842703"><ele>680.0</ele><time>2026-05-01T15:23:02.999Z</time></trkpt><trkpt lat="42.148649860274745" lon="13.250911026106385"><ele>680.0</ele><time>2026-05-01T15:23:03.999Z</time></trkpt><trkpt lat="42.14876096476469" lon="13.250542598115015"><ele>680.5</ele><time>2026-05-01T15:23:04.999Z</time></trkpt><trkpt lat="42.14886574001239" lon="13.250175189606468"><ele>681.0</ele><time>2026-05-01T15:23:05.999Z</time></trkpt><trkpt lat="42.14896429569579" lon="13.249805756345934"><ele>681.5</ele><time>2026-05-01T15:23:06.999Z</time></trkpt><trkpt lat="42.14905135601199" lon="13.249430665857474"><ele>682.0</ele><time>2026-05-01T15:23:07.999Z</time></trkpt><trkpt lat="42.14912582526292" lon="13.24905294616056"><ele>689.0</ele><time>2026-05-01T15:23:08.999Z</time></trkpt><trkpt lat="42.14918756260387" lon="13.248672753453183"><ele>696.0</ele><time>2026-05-01T15:23:09.999Z</time></trkpt><trkpt lat="42.14923732777296" lon="13.248289699529721"><ele>709.0</ele><time>2026-05-01T15:23:10.999Z</time></trkpt><trkpt lat="42.1492817934428" lon="13.247904546407526"><ele>722.0</ele><time>2026-05-01T15:23:11.999Z</time></trkpt><trkpt lat="42.14932227775523" lon="13.2475151416867"><ele>730.5</ele><time>2026-05-01T15:23:12.999Z</time></trkpt><trkpt lat="42.14935762334291" lon="13.247121223256947"><ele>739.0</ele><time>2026-05-01T15:23:13.999Z</time></trkpt><trkpt lat="42.14938498133431" lon="13.246735295493307"><ele>745.5</ele><time>2026-05-01T15:23:14.999Z</time></trkpt><trkpt lat="42.149411346190625" lon="13.246338789546298"><ele>752.0</ele><time>2026-05-01T15:23:15.999Z</time></trkpt><trkpt lat="42.14943705783005" lon="13.245941992830659"><ele>754.5</ele><time>2026-05-01T15:23:16.999Z</time></trkpt><trkpt lat="42.14946731529192" lon="13.24554513479518"><ele>757.0</ele><time>2026-05-01T15:23:17.999Z</time></trkpt><trkpt lat="42.14950278882227" lon="13.245147270145802"><ele>763.0</ele><time>2026-05-01T15:23:18.999Z</time></trkpt><trkpt lat="42.14954399921891" lon="13.244753776185771"><ele>769.0</ele><time>2026-05-01T15:23:19.999Z</time></trkpt><trkpt lat="42.149591923862786" lon="13.24436190673775"><ele>769.0</ele><time>2026-05-01T15:23:20.999Z</time></trkpt><trkpt lat="42.14964589390244" lon="13.243971251362684"><ele>769.0</ele><time>2026-05-01T15:23:21.999Z</time></trkpt><trkpt lat="42.14970323885543" lon="13.243583284927354"><ele>773.5</ele><time>2026-05-01T15:23:22.999Z</time></trkpt><trkpt lat="42.149765767880396" lon="13.243194073209375"><ele>778.0</ele><time>2026-05-01T15:23:23.999Z</time></trkpt><trkpt lat="42.149832039368256" lon="13.2428074682214"><ele>761.0</ele><time>2026-05-01T15:23:24.999Z</time></trkpt><trkpt lat="42.14990144782047" lon="13.242424039589432"><ele>744.0</ele><time>2026-05-01T15:23:25.999Z</time></trkpt><trkpt lat="42.149976443790656" lon="13.242042164768083"><ele>744.0</ele><time>2026-05-01T15:23:26.999Z</time></trkpt><trkpt lat="42.150056018547595" lon="13.241662579625682"><ele>744.0</ele><time>2026-05-01T15:23:27.999Z</time></trkpt><trkpt lat="42.1501393481909" lon="13.241288047367938"><ele>750.0</ele><time>2026-05-01T15:23:28.999Z</time></trkpt><trkpt lat="42.15022531932194" lon="13.240920652581769"><ele>756.0</ele><time>2026-05-01T15:23:29.999Z</time></trkpt><trkpt lat="42.150328926879716" lon="13.24055984091235"><ele>762.5</ele><time>2026-05-01T15:23:30.999Z</time></trkpt><trkpt lat="42.15045047234531" lon="13.240209453144303"><ele>769.0</ele><time>2026-05-01T15:23:31.999Z</time></trkpt><trkpt lat="42.150583826655414" lon="13.239870663720527"><ele>760.0</ele><time>2026-05-01T15:23:32.999Z</time></trkpt><trkpt lat="42.150721499464645" lon="13.2395342243836"><ele>751.0</ele><time>2026-05-01T15:23:33.999Z</time></trkpt><trkpt lat="42.150858616869236" lon="13.239202572008614"><ele>762.0</ele><time>2026-05-01T15:23:34.999Z</time></trkpt><trkpt lat="42.150996992871235" lon="13.23886267026649"><ele>773.0</ele><time>2026-05-01T15:23:35.999Z</time></trkpt><trkpt lat="42.151136151014" lon="13.238531948508621"><ele>773.0</ele><time>2026-05-01T15:23:36.999Z</time></trkpt><trkpt lat="42.15127601862847" lon="13.23820151937464"><ele>773.0</ele><time>2026-05-01T15:23:37.999Z</time></trkpt><trkpt lat="42.15140498783942" lon="13.23786705705018"><ele>766.5</ele><time>2026-05-01T15:23:38.999Z</time></trkpt><trkpt lat="42.151514902720876" lon="13.237522295242039"><ele>760.0</ele><time>2026-05-01T15:23:39.999Z</time></trkpt><trkpt lat="42.15160324778837" lon="13.237166260945921"><ele>760.0</ele><time>2026-05-01T15:23:40.999Z</time></trkpt><trkpt lat="42.151675710294384" lon="13.23680223750097"><ele>760.0</ele><time>2026-05-01T15:23:41.999Z</time></trkpt><trkpt lat="42.151737814937704" lon="13.236437017280826"><ele>766.0</ele><time>2026-05-01T15:23:42.999Z</time></trkpt><trkpt lat="42.15177994663733" lon="13.236065207520486"><ele>772.0</ele><time>2026-05-01T15:23:43.999Z</time></trkpt><trkpt lat="42.15180461737015" lon="13.235688944341446"><ele>774.5</ele><time>2026-05-01T15:23:44.999Z</time></trkpt><trkpt lat="42.15181153401938" lon="13.235313946933159"><ele>777.0</ele><time>2026-05-01T15:23:45.999Z</time></trkpt><trkpt lat="42.1518036355496" lon="13.234931664577786"><ele>779.5</ele><time>2026-05-01T15:23:46.999Z</time></trkpt><trkpt lat="42.151787576608776" lon="13.234550203505929"><ele>782.0</ele><time>2026-05-01T15:23:47.999Z</time></trkpt><trkpt lat="42.15176807220043" lon="13.234169171892226"><ele>784.0</ele><time>2026-05-01T15:23:48.999Z</time></trkpt><trkpt lat="42.15174998183981" lon="13.233787949386976"><ele>786.0</ele><time>2026-05-01T15:23:49.999Z</time></trkpt><trkpt lat="42.15172944774492" lon="13.2334093460696"><ele>784.0</ele><time>2026-05-01T15:23:50.999Z</time></trkpt><trkpt lat="42.15171138175958" lon="13.233027507882648"><ele>782.0</ele><time>2026-05-01T15:23:51.998Z</time></trkpt><trkpt lat="42.15169311845341" lon="13.232648261630942"><ele>784.0</ele><time>2026-05-01T15:23:52.998Z</time></trkpt><trkpt lat="42.15167538853957" lon="13.232266952341313"><ele>786.0</ele><time>2026-05-01T15:23:53.998Z</time></trkpt><trkpt lat="42.15167081902923" lon="13.231885976619429"><ele>786.0</ele><time>2026-05-01T15:23:54.998Z</time></trkpt><trkpt lat="42.151680034997746" lon="13.231505069011748"><ele>786.0</ele><time>2026-05-01T15:23:55.998Z</time></trkpt><trkpt lat="42.15169887155455" lon="13.231123274695522"><ele>786.0</ele><time>2026-05-01T15:23:56.998Z</time></trkpt><trkpt lat="42.15172527480899" lon="13.230742810833224"><ele>786.0</ele><time>2026-05-01T15:23:57.998Z</time></trkpt><trkpt lat="42.15175664509607" lon="13.230364137096903"><ele>788.0</ele><time>2026-05-01T15:23:58.998Z</time></trkpt><trkpt lat="42.15178588382272" lon="13.229981210460007"><ele>790.0</ele><time>2026-05-01T15:23:59.998Z</time></trkpt><trkpt lat="42.1518134263676" lon="13.229596088061983"><ele>792.5</ele><time>2026-05-01T15:24:00.998Z</time></trkpt><trkpt lat="42.15183530511786" lon="13.229208425444092"><ele>795.0</ele><time>2026-05-01T15:24:01.998Z</time></trkpt><trkpt lat="42.15185048071128" lon="13.22881883511774"><ele>797.0</ele><time>2026-05-01T15:24:02.998Z</time></trkpt><trkpt lat="42.151857799041245" lon="13.228431931437086"><ele>799.0</ele><time>2026-05-01T15:24:03.998Z</time></trkpt><trkpt lat="42.15185711571564" lon="13.228044122738188"><ele>800.0</ele><time>2026-05-01T15:24:04.998Z</time></trkpt><trkpt lat="42.15184736753515" lon="13.227655711447943"><ele>801.0</ele><time>2026-05-01T15:24:05.998Z</time></trkpt><trkpt lat="42.1518293669551" lon="13.22726616450514"><ele>802.5</ele><time>2026-05-01T15:24:06.998Z</time></trkpt><trkpt lat="42.15180371203322" lon="13.226878566928848"><ele>804.0</ele><time>2026-05-01T15:24:07.998Z</time></trkpt><trkpt lat="42.15176871138786" lon="13.226494698910898"><ele>801.0</ele><time>2026-05-01T15:24:08.998Z</time></trkpt><trkpt lat="42.15172621957159" lon="13.226114331466182"><ele>798.0</ele><time>2026-05-01T15:24:09.998Z</time></trkpt><trkpt lat="42.15167497935149" lon="13.225737832642587"><ele>796.5</ele><time>2026-05-01T15:24:10.998Z</time></trkpt><trkpt lat="42.15161481667435" lon="13.225364479837824"><ele>795.0</ele><time>2026-05-01T15:24:11.998Z</time></trkpt><trkpt lat="42.15154585102868" lon="13.224995416791934"><ele>816.5</ele><time>2026-05-01T15:24:12.998Z</time></trkpt><trkpt lat="42.15147051806655" lon="13.2246284061339"><ele>838.0</ele><time>2026-05-01T15:24:13.998Z</time></trkpt><trkpt lat="42.15139100208239" lon="13.22426359506431"><ele>830.0</ele><time>2026-05-01T15:24:14.998Z</time></trkpt><trkpt lat="42.15130542965175" lon="13.22390375931305"><ele>822.0</ele><time>2026-05-01T15:24:15.998Z</time></trkpt><trkpt lat="42.15121505123986" lon="13.22354595090544"><ele>822.0</ele><time>2026-05-01T15:24:16.998Z</time></trkpt><trkpt lat="42.151118015119465" lon="13.223192617917041"><ele>822.0</ele><time>2026-05-01T15:24:17.998Z</time></trkpt><trkpt lat="42.15101565159948" lon="13.222843629219012"><ele>817.0</ele><time>2026-05-01T15:24:18.998Z</time></trkpt><trkpt lat="42.1509077633946" lon="13.22249775372397"><ele>812.0</ele><time>2026-05-01T15:24:19.998Z</time></trkpt><trkpt lat="42.1507972726281" lon="13.222155009580435"><ele>824.5</ele><time>2026-05-01T15:24:20.998Z</time></trkpt><trkpt lat="42.15068738731801" lon="13.221810110576225"><ele>837.0</ele><time>2026-05-01T15:24:21.998Z</time></trkpt><trkpt lat="42.15057832578427" lon="13.221465767996639"><ele>837.0</ele><time>2026-05-01T15:24:23Z</time></trkpt><trkpt lat="42.1504736191504" lon="13.221117502909559"><ele>837.0</ele><time>2026-05-01T15:24:24Z</time></trkpt><trkpt lat="42.15037541818194" lon="13.220765266450666"><ele>832.5</ele><time>2026-05-01T15:24:25Z</time></trkpt><trkpt lat="42.15028452004764" lon="13.220406773319143"><ele>828.0</ele><time>2026-05-01T15:24:26Z</time></trkpt><trkpt lat="42.150203072403464" lon="13.2200450813775"><ele>825.5</ele><time>2026-05-01T15:24:27Z</time></trkpt><trkpt lat="42.15013274242828" lon="13.219677538892613"><ele>823.0</ele><time>2026-05-01T15:24:28Z</time></trkpt><trkpt lat="42.15007424180425" lon="13.219307073748686"><ele>823.0</ele><time>2026-05-01T15:24:29Z</time></trkpt><trkpt lat="42.15002611583985" lon="13.21893177682836"><ele>823.0</ele><time>2026-05-01T15:24:30Z</time></trkpt><trkpt lat="42.14998993582889" lon="13.218556233939491"><ele>823.0</ele><time>2026-05-01T15:24:31Z</time></trkpt><trkpt lat="42.14996474499047" lon="13.218180167881904"><ele>823.0</ele><time>2026-05-01T15:24:32Z</time></trkpt><trkpt lat="42.14995145562553" lon="13.217800319979254"><ele>823.0</ele><time>2026-05-01T15:24:33Z</time></trkpt><trkpt lat="42.149953093038405" lon="13.217420374053852"><ele>823.0</ele><time>2026-05-01T15:24:34Z</time></trkpt><trkpt lat="42.14996705605543" lon="13.21703972705847"><ele>823.0</ele><time>2026-05-01T15:24:35Z</time></trkpt><trkpt lat="42.14999344406526" lon="13.216665428604339"><ele>823.0</ele><time>2026-05-01T15:24:36Z</time></trkpt><trkpt lat="42.15002374580473" lon="13.216289284576451"><ele>825.5</ele><time>2026-05-01T15:24:37Z</time></trkpt><trkpt lat="42.15007544421127" lon="13.215920904388502"><ele>828.0</ele><time>2026-05-01T15:24:38Z</time></trkpt><trkpt lat="42.150142480258154" lon="13.215555637438053"><ele>834.0</ele><time>2026-05-01T15:24:39Z</time></trkpt><trkpt lat="42.15022502103752" lon="13.215195081380395"><ele>840.0</ele><time>2026-05-01T15:24:40Z</time></trkpt><trkpt lat="42.150313615285" lon="13.214838533537757"><ele>848.0</ele><time>2026-05-01T15:24:41Z</time></trkpt><trkpt lat="42.15040153213996" lon="13.214482281551994"><ele>856.0</ele><time>2026-05-01T15:24:42Z</time></trkpt><trkpt lat="42.15048889972625" lon="13.214127441110703"><ele>865.5</ele><time>2026-05-01T15:24:43Z</time></trkpt><trkpt lat="42.150580787580594" lon="13.213775208508839"><ele>875.0</ele><time>2026-05-01T15:24:44Z</time></trkpt><trkpt lat="42.15067550354595" lon="13.213421784831771"><ele>859.0</ele><time>2026-05-01T15:24:45Z</time></trkpt><trkpt lat="42.150766192617944" lon="13.213070897679264"><ele>843.0</ele><time>2026-05-01T15:24:46Z</time></trkpt><trkpt lat="42.15085389124534" lon="13.212716175024589"><ele>843.0</ele><time>2026-05-01T15:24:47Z</time></trkpt><trkpt lat="42.150936799259725" lon="13.212361136835632"><ele>843.0</ele><time>2026-05-01T15:24:48Z</time></trkpt><trkpt lat="42.15101560234607" lon="13.212003133555498"><ele>852.5</ele><time>2026-05-01T15:24:49Z</time></trkpt><trkpt lat="42.15108783579534" lon="13.211641647967966"><ele>862.0</ele><time>2026-05-01T15:24:50Z</time></trkpt><trkpt lat="42.15115393808371" lon="13.211271080342572"><ele>873.5</ele><time>2026-05-01T15:24:51Z</time></trkpt><trkpt lat="42.15120711283794" lon="13.210898913008519"><ele>885.0</ele><time>2026-05-01T15:24:52Z</time></trkpt><trkpt lat="42.15124512970768" lon="13.210522658092819"><ele>897.0</ele><time>2026-05-01T15:24:53Z</time></trkpt><trkpt lat="42.15127028216093" lon="13.210145627216287"><ele>909.0</ele><time>2026-05-01T15:24:54Z</time></trkpt><trkpt lat="42.151287117389316" lon="13.20976775864665"><ele>919.5</ele><time>2026-05-01T15:24:55Z</time></trkpt><trkpt lat="42.15129467520901" lon="13.20939217618662"><ele>930.0</ele><time>2026-05-01T15:24:56Z</time></trkpt><trkpt lat="42.151289699278074" lon="13.2089840891679"><ele>945.0</ele><time>2026-05-01T15:24:57.073Z</time></trkpt><trkpt lat="42.15127383351825" lon="13.208610172659387"><ele>960.0</ele><time>2026-05-01T15:24:58.066Z</time></trkpt><trkpt lat="42.15124341153197" lon="13.208238850862507"><ele>975.0</ele><time>2026-05-01T15:24:59.054Z</time></trkpt><trkpt lat="42.1512081224677" lon="13.207866966155889"><ele>990.0</ele><time>2026-05-01T15:25:00.052Z</time></trkpt><trkpt lat="42.149763508478095" lon="13.205133631807152"><ele>1052.6666666666667</ele><time>2026-05-01T15:25:13.467Z</time></trkpt><trkpt lat="42.14968944877189" lon="13.20500376346206"><ele>1115.3333333333335</ele><time>2026-05-01T15:25:14.487Z</time></trkpt><trkpt lat="42.149575364642764" lon="13.204790481633617"><ele>1178.0</ele><time>2026-05-01T15:25:16.15Z</time></trkpt><trkpt lat="42.149279334336114" lon="13.20425870010593"><ele>1174.6666666666667</ele><time>2026-05-01T15:25:20.567Z</time></trkpt><trkpt lat="42.14906753251602" lon="13.2039396157892"><ele>1171.3333333333333</ele><time>2026-05-01T15:25:23.568Z</time></trkpt><trkpt lat="42.14901238566647" lon="13.20383740093035"><ele>1168.0</ele><time>2026-05-01T15:25:24.481Z</time></trkpt><trkpt lat="42.14547474202903" lon="13.192493353899899"><ele>1023.0</ele><time>2026-05-01T15:25:43.999Z</time></trkpt><trkpt lat="42.14535303445676" lon="13.192255068950011"><ele>878.0</ele><time>2026-05-01T15:25:44.999Z</time></trkpt><trkpt lat="42.145137641774404" lon="13.191859441265075"><ele>876.5</ele><time>2026-05-01T15:25:45.999Z</time></trkpt><trkpt lat="42.14492246675424" lon="13.191470965874569"><ele>875.0</ele><time>2026-05-01T15:25:46.999Z</time></trkpt><trkpt lat="42.14472742646786" lon="13.191126558611494"><ele>879.5</ele><time>2026-05-01T15:25:47.999Z</time></trkpt><trkpt lat="42.1445598402764" lon="13.190809188823094"><ele>884.0</ele><time>2026-05-01T15:25:48.999Z</time></trkpt><trkpt lat="42.144376293823235" lon="13.190502513281633"><ele>884.0</ele><time>2026-05-01T15:25:49.999Z</time></trkpt><trkpt lat="42.144183417134215" lon="13.190208570051958"><ele>884.0</ele><time>2026-05-01T15:25:50.999Z</time></trkpt><trkpt lat="42.14397818349759" lon="13.189927824118985"><ele>890.0</ele><time>2026-05-01T15:25:51.999Z</time></trkpt><trkpt lat="42.14376912931029" lon="13.189645888759888"><ele>896.0</ele><time>2026-05-01T15:25:52.999Z</time></trkpt><trkpt lat="42.14355437055163" lon="13.189366474793625"><ele>896.0</ele><time>2026-05-01T15:25:53.999Z</time></trkpt><trkpt lat="42.14334187653186" lon="13.18907998539964"><ele>896.0</ele><time>2026-05-01T15:25:54.999Z</time></trkpt><trkpt lat="42.143134453554545" lon="13.188793045798423"><ele>897.0</ele><time>2026-05-01T15:25:55.999Z</time></trkpt><trkpt lat="42.142932849452016" lon="13.188500453754399"><ele>898.0</ele><time>2026-05-01T15:25:56.999Z</time></trkpt><trkpt lat="42.14273702557094" lon="13.188198783435642"><ele>893.5</ele><time>2026-05-01T15:25:57.999Z</time></trkpt><trkpt lat="42.14255527518976" lon="13.187887915029318"><ele>889.0</ele><time>2026-05-01T15:25:58.998Z</time></trkpt><trkpt lat="42.142392458969226" lon="13.187562439915515"><ele>891.5</ele><time>2026-05-01T15:25:59.998Z</time></trkpt><trkpt lat="42.14224811639206" lon="13.187221026657959"><ele>894.0</ele><time>2026-05-01T15:26:00.998Z</time></trkpt><trkpt lat="42.14211760171662" lon="13.186872356143988"><ele>894.0</ele><time>2026-05-01T15:26:01.998Z</time></trkpt><trkpt lat="42.14200285030226" lon="13.18652168764085"><ele>894.0</ele><time>2026-05-01T15:26:02.998Z</time></trkpt><trkpt lat="42.141904184624714" lon="13.186161271568299"><ele>896.5</ele><time>2026-05-01T15:26:03.998Z</time></trkpt><trkpt lat="42.141826641787105" lon="13.185796278279147"><ele>899.0</ele><time>2026-05-01T15:26:04.998Z</time></trkpt><trkpt lat="42.14175943596159" lon="13.185425072413103"><ele>902.5</ele><time>2026-05-01T15:26:05.998Z</time></trkpt><trkpt lat="42.14170399270447" lon="13.185048500822024"><ele>906.0</ele><time>2026-05-01T15:26:06.998Z</time></trkpt><trkpt lat="42.14166277262169" lon="13.184674108772844"><ele>913.0</ele><time>2026-05-01T15:26:07.998Z</time></trkpt><trkpt lat="42.141644664394455" lon="13.184297285985076"><ele>920.0</ele><time>2026-05-01T15:26:08.998Z</time></trkpt><trkpt lat="42.141640930747926" lon="13.183918317781323"><ele>928.5</ele><time>2026-05-01T15:26:09.998Z</time></trkpt><trkpt lat="42.14164470440845" lon="13.183531827533853"><ele>937.0</ele><time>2026-05-01T15:26:10.998Z</time></trkpt><trkpt lat="42.14165028088533" lon="13.183139217302765"><ele>945.5</ele><time>2026-05-01T15:26:11.998Z</time></trkpt><trkpt lat="42.14165557945624" lon="13.182744347635767"><ele>954.0</ele><time>2026-05-01T15:26:12.998Z</time></trkpt><trkpt lat="42.141661917432764" lon="13.182346607430649"><ele>961.0</ele><time>2026-05-01T15:26:13.998Z</time></trkpt><trkpt lat="42.14166709928636" lon="13.181946676846296"><ele>968.0</ele><time>2026-05-01T15:26:14.998Z</time></trkpt><trkpt lat="42.14167221973691" lon="13.18151514043901"><ele>974.5</ele><time>2026-05-01T15:26:16.07Z</time></trkpt><trkpt lat="42.141677727639035" lon="13.181117175170796"><ele>981.0</ele><time>2026-05-01T15:26:17.055Z</time></trkpt><trkpt lat="42.14170375270897" lon="13.179247993356793"><ele>886.0</ele><time>2026-05-01T15:26:28.592Z</time></trkpt><trkpt lat="42.1420570419919" lon="13.168302599946813"><ele>884.0</ele><time>2026-05-01T15:26:47.998Z</time></trkpt><trkpt lat="42.14208800588364" lon="13.167898314523049"><ele>882.0</ele><time>2026-05-01T15:26:48.998Z</time></trkpt><trkpt lat="42.14219917773033" lon="13.167505057031493"><ele>880.0</ele><time>2026-05-01T15:26:49.998Z</time></trkpt><trkpt lat="42.14224213204681" lon="13.167104823815405"><ele>878.0</ele><time>2026-05-01T15:26:50.998Z</time></trkpt><trkpt lat="42.14230074280988" lon="13.166691728423872"><ele>871.0</ele><time>2026-05-01T15:26:51.998Z</time></trkpt><trkpt lat="42.14234503555682" lon="13.166292616589518"><ele>864.0</ele><time>2026-05-01T15:26:52.998Z</time></trkpt><trkpt lat="42.14237254533344" lon="13.165884280321347"><ele>871.0</ele><time>2026-05-01T15:26:53.998Z</time></trkpt><trkpt lat="42.14242016993779" lon="13.165477499707094"><ele>878.0</ele><time>2026-05-01T15:26:54.998Z</time></trkpt><trkpt lat="42.14247420519674" lon="13.16506860603847"><ele>876.0</ele><time>2026-05-01T15:26:55.998Z</time></trkpt><trkpt lat="42.14253298363719" lon="13.164657759410389"><ele>874.0</ele><time>2026-05-01T15:26:56.998Z</time></trkpt><trkpt lat="42.142600673259736" lon="13.164252585662501"><ele>870.5</ele><time>2026-05-01T15:26:57.998Z</time></trkpt><trkpt lat="42.14266733637616" lon="13.163841234508753"><ele>867.0</ele><time>2026-05-01T15:26:59Z</time></trkpt><trkpt lat="42.14273642433539" lon="13.163429739151463"><ele>863.5</ele><time>2026-05-01T15:27:00Z</time></trkpt><trkpt lat="42.142800962814306" lon="13.163018681010827"><ele>860.0</ele><time>2026-05-01T15:27:01Z</time></trkpt><trkpt lat="42.14286498403133" lon="13.162606748553769"><ele>855.5</ele><time>2026-05-01T15:27:02Z</time></trkpt><trkpt lat="42.142931316537876" lon="13.162198793987187"><ele>851.0</ele><time>2026-05-01T15:27:03Z</time></trkpt><trkpt lat="42.143003383159325" lon="13.161791053565096"><ele>848.5</ele><time>2026-05-01T15:27:04Z</time></trkpt><trkpt lat="42.14307315863417" lon="13.161380706238084"><ele>846.0</ele><time>2026-05-01T15:27:05Z</time></trkpt><trkpt lat="42.14314004247994" lon="13.160970341831872"><ele>844.0</ele><time>2026-05-01T15:27:06Z</time></trkpt><trkpt lat="42.14320833823633" lon="13.16056281620504"><ele>842.0</ele><time>2026-05-01T15:27:07Z</time></trkpt><trkpt lat="42.14327494622785" lon="13.160156221763884"><ele>853.0</ele><time>2026-05-01T15:27:08Z</time></trkpt><trkpt lat="42.143338553439825" lon="13.159752732946492"><ele>864.0</ele><time>2026-05-01T15:27:09Z</time></trkpt><trkpt lat="42.14340142947045" lon="13.159353158638766"><ele>864.0</ele><time>2026-05-01T15:27:10Z</time></trkpt><trkpt lat="42.14345831091419" lon="13.158954322167734"><ele>864.0</ele><time>2026-05-01T15:27:11Z</time></trkpt><trkpt lat="42.14351300438613" lon="13.158556799562296"><ele>862.5</ele><time>2026-05-01T15:27:12Z</time></trkpt><trkpt lat="42.143560489952065" lon="13.15815960926794"><ele>861.0</ele><time>2026-05-01T15:27:13Z</time></trkpt><trkpt lat="42.14359227639334" lon="13.157759946886658"><ele>860.0</ele><time>2026-05-01T15:27:14Z</time></trkpt><trkpt lat="42.14361542778499" lon="13.157357832672705"><ele>859.0</ele><time>2026-05-01T15:27:15Z</time></trkpt><trkpt lat="42.143629213420105" lon="13.15695240544804"><ele>859.0</ele><time>2026-05-01T15:27:16Z</time></trkpt><trkpt lat="42.143634168996" lon="13.156547152784679"><ele>859.0</ele><time>2026-05-01T15:27:17Z</time></trkpt><trkpt lat="42.14362548551223" lon="13.156140023975333"><ele>859.0</ele><time>2026-05-01T15:27:18Z</time></trkpt><trkpt lat="42.14360523406926" lon="13.155730998419198"><ele>859.0</ele><time>2026-05-01T15:27:19Z</time></trkpt><trkpt lat="42.14357508303785" lon="13.15531939013203"><ele>857.5</ele><time>2026-05-01T15:27:20Z</time></trkpt><trkpt lat="42.14353329422222" lon="13.15490836629067"><ele>856.0</ele><time>2026-05-01T15:27:21Z</time></trkpt><trkpt lat="42.143482282183165" lon="13.15450060095921"><ele>860.5</ele><time>2026-05-01T15:27:22Z</time></trkpt><trkpt lat="42.143423430782434" lon="13.154093961920475"><ele>865.0</ele><time>2026-05-01T15:27:23Z</time></trkpt><trkpt lat="42.143350090500256" lon="13.15368897929997"><ele>870.0</ele><time>2026-05-01T15:27:24Z</time></trkpt><trkpt lat="42.14326684735147" lon="13.153290361523771"><ele>875.0</ele><time>2026-05-01T15:27:25Z</time></trkpt><trkpt lat="42.143172480746856" lon="13.152894640579971"><ele>865.0</ele><time>2026-05-01T15:27:26Z</time></trkpt><trkpt lat="42.14306825540611" lon="13.15250170361741"><ele>855.0</ele><time>2026-05-01T15:27:27Z</time></trkpt><trkpt lat="42.14295232590978" lon="13.152120294529444"><ele>855.0</ele><time>2026-05-01T15:27:28Z</time></trkpt><trkpt lat="42.14282608827474" lon="13.151743382035189"><ele>855.0</ele><time>2026-05-01T15:27:29Z</time></trkpt><trkpt lat="42.14268335662238" lon="13.151369813499612"><ele>851.5</ele><time>2026-05-01T15:27:30Z</time></trkpt><trkpt lat="42.1425298506681" lon="13.15100355774463"><ele>848.0</ele><time>2026-05-01T15:27:31Z</time></trkpt><trkpt lat="42.1423714108767" lon="13.150646491459678"><ele>848.0</ele><time>2026-05-01T15:27:32Z</time></trkpt><trkpt lat="42.14219990115771" lon="13.15030099782655"><ele>848.0</ele><time>2026-05-01T15:27:33Z</time></trkpt><trkpt lat="42.14201816640276" lon="13.149967209188658"><ele>856.0</ele><time>2026-05-01T15:27:34Z</time></trkpt><trkpt lat="42.141820957515925" lon="13.149643714313369"><ele>864.0</ele><time>2026-05-01T15:27:35Z</time></trkpt><trkpt lat="42.14160699108879" lon="13.149330806424835"><ele>857.5</ele><time>2026-05-01T15:27:36Z</time></trkpt><trkpt lat="42.141378854409915" lon="13.149040043900097"><ele>851.0</ele><time>2026-05-01T15:27:37Z</time></trkpt><trkpt lat="42.1411378286909" lon="13.148762336213586"><ele>851.0</ele><time>2026-05-01T15:27:37.999Z</time></trkpt><trkpt lat="42.14088646352121" lon="13.14849855823424"><ele>851.0</ele><time>2026-05-01T15:27:38.999Z</time></trkpt><trkpt lat="42.1406347748653" lon="13.148249929173977"><ele>849.0</ele><time>2026-05-01T15:27:39.999Z</time></trkpt><trkpt lat="42.140370184561334" lon="13.148013359113103"><ele>847.0</ele><time>2026-05-01T15:27:40.999Z</time></trkpt><trkpt lat="42.14009285970549" lon="13.147789898936228"><ele>848.0</ele><time>2026-05-01T15:27:41.999Z</time></trkpt><trkpt lat="42.13980407458824" lon="13.147580495538019"><ele>849.0</ele><time>2026-05-01T15:27:42.999Z</time></trkpt><trkpt lat="42.13951570784112" lon="13.147367496478319"><ele>849.0</ele><time>2026-05-01T15:27:43.999Z</time></trkpt><trkpt lat="42.13922996021932" lon="13.147150553285092"><ele>849.0</ele><time>2026-05-01T15:27:44.999Z</time></trkpt><trkpt lat="42.138948394948955" lon="13.146915651486887"><ele>850.0</ele><time>2026-05-01T15:27:45.999Z</time></trkpt><trkpt lat="42.13867693876684" lon="13.14666571246053"><ele>851.0</ele><time>2026-05-01T15:27:46.999Z</time></trkpt><trkpt lat="42.13841461220248" lon="13.146398861648557"><ele>840.5</ele><time>2026-05-01T15:27:47.999Z</time></trkpt><trkpt lat="42.13816676509356" lon="13.14611940976658"><ele>830.0</ele><time>2026-05-01T15:27:48.999Z</time></trkpt><trkpt lat="42.13793608797559" lon="13.145817088772045"><ele>835.5</ele><time>2026-05-01T15:27:49.999Z</time></trkpt><trkpt lat="42.13772760416845" lon="13.145490050443206"><ele>841.0</ele><time>2026-05-01T15:27:50.999Z</time></trkpt><trkpt lat="42.13754155564696" lon="13.14514133961446"><ele>831.5</ele><time>2026-05-01T15:27:51.999Z</time></trkpt><trkpt lat="42.1373799940706" lon="13.144779017749556"><ele>822.0</ele><time>2026-05-01T15:27:52.999Z</time></trkpt><trkpt lat="42.1372378334487" lon="13.144403240787348"><ele>824.0</ele><time>2026-05-01T15:27:53.999Z</time></trkpt><trkpt lat="42.137119213515696" lon="13.144016704438346"><ele>826.0</ele><time>2026-05-01T15:27:54.999Z</time></trkpt><trkpt lat="42.137022386028775" lon="13.143622686335291"><ele>826.0</ele><time>2026-05-01T15:27:55.999Z</time></trkpt><trkpt lat="42.136949131160144" lon="13.143221070222365"><ele>826.0</ele><time>2026-05-01T15:27:56.999Z</time></trkpt><trkpt lat="42.13689376040531" lon="13.142816388282412"><ele>826.5</ele><time>2026-05-01T15:27:57.999Z</time></trkpt><trkpt lat="42.13686034689408" lon="13.142411939313027"><ele>827.0</ele><time>2026-05-01T15:27:58.999Z</time></trkpt><trkpt lat="42.136833401084814" lon="13.14200845080337"><ele>827.5</ele><time>2026-05-01T15:27:59.999Z</time></trkpt><trkpt lat="42.13680980619653" lon="13.141604667567629"><ele>828.0</ele><time>2026-05-01T15:28:00.999Z</time></trkpt><trkpt lat="42.13678758956838" lon="13.141199907334416"><ele>824.0</ele><time>2026-05-01T15:28:01.999Z</time></trkpt><trkpt lat="42.136765774612925" lon="13.140792451900396"><ele>820.0</ele><time>2026-05-01T15:28:02.999Z</time></trkpt><trkpt lat="42.136737065488504" lon="13.14038204073564"><ele>819.0</ele><time>2026-05-01T15:28:03.999Z</time></trkpt><trkpt lat="42.136699221866685" lon="13.139970477148085"><ele>818.0</ele><time>2026-05-01T15:28:04.999Z</time></trkpt><trkpt lat="42.13664899900948" lon="13.139556571882046"><ele>818.0</ele><time>2026-05-01T15:28:05.999Z</time></trkpt><trkpt lat="42.13657903570796" lon="13.1391514583753"><ele>818.0</ele><time>2026-05-01T15:28:06.999Z</time></trkpt><trkpt lat="42.13648880587537" lon="13.13875264616544"><ele>824.5</ele><time>2026-05-01T15:28:07.999Z</time></trkpt><trkpt lat="42.1363836224365" lon="13.138361859086784"><ele>831.0</ele><time>2026-05-01T15:28:08.999Z</time></trkpt><trkpt lat="42.136262910306385" lon="13.137980368927048"><ele>833.5</ele><time>2026-05-01T15:28:09.999Z</time></trkpt><trkpt lat="42.136132124113054" lon="13.137604437675853"><ele>836.0</ele><time>2026-05-01T15:28:10.999Z</time></trkpt><trkpt lat="42.13599640041591" lon="13.137227588136705"><ele>840.0</ele><time>2026-05-01T15:28:11.999Z</time></trkpt><trkpt lat="42.13585870914349" lon="13.13684911947996"><ele>844.0</ele><time>2026-05-01T15:28:12.999Z</time></trkpt><trkpt lat="42.135718119750095" lon="13.136470983140944"><ele>857.0</ele><time>2026-05-01T15:28:13.999Z</time></trkpt><trkpt lat="42.13557689586435" lon="13.136090168369149"><ele>870.0</ele><time>2026-05-01T15:28:14.999Z</time></trkpt><trkpt lat="42.135435037284395" lon="13.135709082969957"><ele>875.0</ele><time>2026-05-01T15:28:15.999Z</time></trkpt><trkpt lat="42.1352921470243" lon="13.13532721966972"><ele>880.0</ele><time>2026-05-01T15:28:16.999Z</time></trkpt><trkpt lat="42.135139628540045" lon="13.134916983240656"><ele>883.0</ele><time>2026-05-01T15:28:18.07Z</time></trkpt><trkpt lat="42.13500049092468" lon="13.134537062685604"><ele>886.0</ele><time>2026-05-01T15:28:19.055Z</time></trkpt><trkpt lat="42.13486008664459" lon="13.134149584314313"><ele>870.0</ele><time>2026-05-01T15:28:20.057Z</time></trkpt><trkpt lat="42.134151994471736" lon="13.132373224156376"><ele>871.5</ele><time>2026-05-01T15:28:24.745Z</time></trkpt><trkpt lat="42.13400834016463" lon="13.13199004162645"><ele>873.0</ele><time>2026-05-01T15:28:25.744Z</time></trkpt><trkpt lat="42.13386480560387" lon="13.13160717850715"><ele>866.5</ele><time>2026-05-01T15:28:26.742Z</time></trkpt><trkpt lat="42.13372095975907" lon="13.131223721258147"><ele>860.0</ele><time>2026-05-01T15:28:27.742Z</time></trkpt><trkpt lat="42.13357673579444" lon="13.130840267621304"><ele>856.0</ele><time>2026-05-01T15:28:28.743Z</time></trkpt><trkpt lat="42.13343213139179" lon="13.130455986231905"><ele>852.0</ele><time>2026-05-01T15:28:29.746Z</time></trkpt><trkpt lat="42.13328822302296" lon="13.130073541552957"><ele>852.0</ele><time>2026-05-01T15:28:30.744Z</time></trkpt><trkpt lat="42.13314394431164" lon="13.129689474925247"><ele>852.0</ele><time>2026-05-01T15:28:31.746Z</time></trkpt><trkpt lat="42.13300062562564" lon="13.129307963862967"><ele>843.0</ele><time>2026-05-01T15:28:32.741Z</time></trkpt><trkpt lat="42.132856525474985" lon="13.128924372559643"><ele>834.0</ele><time>2026-05-01T15:28:33.742Z</time></trkpt><trkpt lat="42.13271202278055" lon="13.128539492518897"><ele>826.5</ele><time>2026-05-01T15:28:34.746Z</time></trkpt><trkpt lat="42.132568353131795" lon="13.128156368572808"><ele>819.0</ele><time>2026-05-01T15:28:35.745Z</time></trkpt><trkpt lat="42.13242513787215" lon="13.12777445634645"><ele>812.5</ele><time>2026-05-01T15:28:36.741Z</time></trkpt><trkpt lat="42.1322806486157" lon="13.12738914675199"><ele>806.0</ele><time>2026-05-01T15:28:37.746Z</time></trkpt><trkpt lat="42.13213685573609" lon="13.127005694186122"><ele>806.0</ele><time>2026-05-01T15:28:38.746Z</time></trkpt><trkpt lat="42.13199304271513" lon="13.126622187909273"><ele>806.0</ele><time>2026-05-01T15:28:39.746Z</time></trkpt><trkpt lat="42.13184954360799" lon="13.126239518746631"><ele>736.0</ele><time>2026-05-01T15:28:40.744Z</time></trkpt><trkpt lat="42.13078963853327" lon="13.12313729958892"><ele>745.5</ele><time>2026-05-01T15:28:47.998Z</time></trkpt><trkpt lat="42.13065822790268" lon="13.122744465549776"><ele>755.0</ele><time>2026-05-01T15:28:48.998Z</time></trkpt><trkpt lat="42.13050736613409" lon="13.122421281059056"><ele>744.5</ele><time>2026-05-01T15:28:49.998Z</time></trkpt><trkpt lat="42.130368880896924" lon="13.122017799986956"><ele>734.0</ele><time>2026-05-01T15:28:50.998Z</time></trkpt><trkpt lat="42.130261719378645" lon="13.121616044894498"><ele>727.5</ele><time>2026-05-01T15:28:51.998Z</time></trkpt><trkpt lat="42.13017275331914" lon="13.12125008896541"><ele>721.0</ele><time>2026-05-01T15:28:52.998Z</time></trkpt><trkpt lat="42.13010739749359" lon="13.120842138414746"><ele>718.5</ele><time>2026-05-01T15:28:53.998Z</time></trkpt><trkpt lat="42.13001699591857" lon="13.120437765604667"><ele>716.0</ele><time>2026-05-01T15:28:54.998Z</time></trkpt><trkpt lat="42.1299297535348" lon="13.120034587288913"><ele>722.5</ele><time>2026-05-01T15:28:55.998Z</time></trkpt><trkpt lat="42.12983810247267" lon="13.119631793887995"><ele>729.0</ele><time>2026-05-01T15:28:56.998Z</time></trkpt><trkpt lat="42.129747210657015" lon="13.119234640126662"><ele>728.5</ele><time>2026-05-01T15:28:57.998Z</time></trkpt><trkpt lat="42.129650410935994" lon="13.118827235157124"><ele>728.0</ele><time>2026-05-01T15:28:58.998Z</time></trkpt><trkpt lat="42.12954446957599" lon="13.118419254385326"><ele>723.5</ele><time>2026-05-01T15:28:59.998Z</time></trkpt><trkpt lat="42.12942179665665" lon="13.118021681042947"><ele>719.0</ele><time>2026-05-01T15:29:00.998Z</time></trkpt><trkpt lat="42.12928120621078" lon="13.117635204050067"><ele>722.0</ele><time>2026-05-01T15:29:01.998Z</time></trkpt><trkpt lat="42.12912423452855" lon="13.117257750838727"><ele>725.0</ele><time>2026-05-01T15:29:02.998Z</time></trkpt><trkpt lat="42.128952158073346" lon="13.116889801643651"><ele>716.0</ele><time>2026-05-01T15:29:04Z</time></trkpt><trkpt lat="42.128760205227174" lon="13.116539216355035"><ele>707.0</ele><time>2026-05-01T15:29:05Z</time></trkpt><trkpt lat="42.12854918757418" lon="13.116219002903996"><ele>707.0</ele><time>2026-05-01T15:29:06Z</time></trkpt><trkpt lat="42.12831920189017" lon="13.115925431464024"><ele>707.0</ele><time>2026-05-01T15:29:07Z</time></trkpt><trkpt lat="42.128071603321025" lon="13.115654589500787"><ele>690.0</ele><time>2026-05-01T15:29:08Z</time></trkpt><trkpt lat="42.12780993259779" lon="13.115415794088182"><ele>673.0</ele><time>2026-05-01T15:29:09Z</time></trkpt><trkpt lat="42.12753833251114" lon="13.1152004632348"><ele>673.0</ele><time>2026-05-01T15:29:10Z</time></trkpt><trkpt lat="42.12725557730769" lon="13.115011987196185"><ele>673.0</ele><time>2026-05-01T15:29:11Z</time></trkpt><trkpt lat="42.12696569852989" lon="13.114850725770978"><ele>666.5</ele><time>2026-05-01T15:29:12Z</time></trkpt><trkpt lat="42.1266686120814" lon="13.114716256823414"><ele>660.0</ele><time>2026-05-01T15:29:13Z</time></trkpt><trkpt lat="42.126363521495584" lon="13.11461298265369"><ele>658.0</ele><time>2026-05-01T15:29:14Z</time></trkpt><trkpt lat="42.12605583367424" lon="13.114546352681884"><ele>656.0</ele><time>2026-05-01T15:29:15Z</time></trkpt><trkpt lat="42.12574661926504" lon="13.114509125860089"><ele>654.0</ele><time>2026-05-01T15:29:16Z</time></trkpt><trkpt lat="42.12544094965436" lon="13.114509980745204"><ele>652.0</ele><time>2026-05-01T15:29:17Z</time></trkpt><trkpt lat="42.12514068216954" lon="13.114533204552352"><ele>650.5</ele><time>2026-05-01T15:29:18Z</time></trkpt><trkpt lat="42.124843533180034" lon="13.11457732333608"><ele>649.0</ele><time>2026-05-01T15:29:19Z</time></trkpt><trkpt lat="42.12455090032549" lon="13.114632056106386"><ele>649.0</ele><time>2026-05-01T15:29:20Z</time></trkpt><trkpt lat="42.12426010730128" lon="13.11470210924567"><ele>649.0</ele><time>2026-05-01T15:29:21Z</time></trkpt><trkpt lat="42.12397086728454" lon="13.11478502320142"><ele>650.0</ele><time>2026-05-01T15:29:22Z</time></trkpt><trkpt lat="42.123681243392845" lon="13.114882552470002"><ele>651.0</ele><time>2026-05-01T15:29:23Z</time></trkpt><trkpt lat="42.12339169524034" lon="13.114983159863932"><ele>652.5</ele><time>2026-05-01T15:29:24Z</time></trkpt><trkpt lat="42.12309924116026" lon="13.11508832533035"><ele>654.0</ele><time>2026-05-01T15:29:25Z</time></trkpt><trkpt lat="42.12280647909791" lon="13.115195545402608"><ele>654.0</ele><time>2026-05-01T15:29:26Z</time></trkpt><trkpt lat="42.12251267408388" lon="13.115305233174405"><ele>654.0</ele><time>2026-05-01T15:29:27Z</time></trkpt><trkpt lat="42.122215909632686" lon="13.115415090555045"><ele>654.0</ele><time>2026-05-01T15:29:28Z</time></trkpt><trkpt lat="42.12192029906064" lon="13.115524472924434"><ele>654.0</ele><time>2026-05-01T15:29:29Z</time></trkpt><trkpt lat="42.121622809950544" lon="13.115635128919658"><ele>664.0</ele><time>2026-05-01T15:29:30Z</time></trkpt><trkpt lat="42.12132493446679" lon="13.115743460508233"><ele>674.0</ele><time>2026-05-01T15:29:31Z</time></trkpt><trkpt lat="42.12102638510386" lon="13.115846823569576"><ele>673.0</ele><time>2026-05-01T15:29:32Z</time></trkpt><trkpt lat="42.12072365412888" lon="13.115946892406495"><ele>672.0</ele><time>2026-05-01T15:29:33Z</time></trkpt><trkpt lat="42.12042083758475" lon="13.116046663930186"><ele>672.0</ele><time>2026-05-01T15:29:34Z</time></trkpt><trkpt lat="42.120117005657484" lon="13.11614882798943"><ele>672.0</ele><time>2026-05-01T15:29:35Z</time></trkpt><trkpt lat="42.119812901096076" lon="13.11625565252403"><ele>670.5</ele><time>2026-05-01T15:29:36Z</time></trkpt><trkpt lat="42.11950448625899" lon="13.116362092734214"><ele>669.0</ele><time>2026-05-01T15:29:37Z</time></trkpt><trkpt lat="42.11919601556007" lon="13.11646665024636"><ele>683.5</ele><time>2026-05-01T15:29:38Z</time></trkpt><trkpt lat="42.11888432239477" lon="13.11657453439839"><ele>698.0</ele><time>2026-05-01T15:29:39Z</time></trkpt><trkpt lat="42.11857258709651" lon="13.116674632383491"><ele>698.0</ele><time>2026-05-01T15:29:40Z</time></trkpt><trkpt lat="42.118256367987144" lon="13.116767972492488"><ele>698.0</ele><time>2026-05-01T15:29:41Z</time></trkpt><trkpt lat="42.117937079093664" lon="13.116846451996345"><ele>698.0</ele><time>2026-05-01T15:29:42Z</time></trkpt><trkpt lat="42.11761385696123" lon="13.11690160456919"><ele>698.0</ele><time>2026-05-01T15:29:43Z</time></trkpt><trkpt lat="42.11728711695563" lon="13.116928736528688"><ele>695.0</ele><time>2026-05-01T15:29:44Z</time></trkpt><trkpt lat="42.11695729700029" lon="13.11692802765078"><ele>692.0</ele><time>2026-05-01T15:29:45Z</time></trkpt><trkpt lat="42.11662732011478" lon="13.116897062874623"><ele>686.0</ele><time>2026-05-01T15:29:46Z</time></trkpt><trkpt lat="42.11630420152881" lon="13.116834562422001"><ele>680.0</ele><time>2026-05-01T15:29:47Z</time></trkpt><trkpt lat="42.11599047007691" lon="13.116743949609337"><ele>668.0</ele><time>2026-05-01T15:29:47.999Z</time></trkpt><trkpt lat="42.11568344838671" lon="13.116610403189979"><ele>656.0</ele><time>2026-05-01T15:29:48.999Z</time></trkpt><trkpt lat="42.11538522986907" lon="13.11643430127199"><ele>656.5</ele><time>2026-05-01T15:29:49.999Z</time></trkpt><trkpt lat="42.11509636265297" lon="13.116225872673242"><ele>657.0</ele><time>2026-05-01T15:29:50.999Z</time></trkpt><trkpt lat="42.11481721264852" lon="13.11599413595581"><ele>657.0</ele><time>2026-05-01T15:29:51.999Z</time></trkpt><trkpt lat="42.11455188818382" lon="13.115740154104367"><ele>657.0</ele><time>2026-05-01T15:29:52.999Z</time></trkpt><trkpt lat="42.11430920207872" lon="13.115452349773243"><ele>660.5</ele><time>2026-05-01T15:29:53.999Z</time></trkpt><trkpt lat="42.11405765367349" lon="13.115196153355168"><ele>664.0</ele><time>2026-05-01T15:29:54.999Z</time></trkpt><trkpt lat="42.113806706045246" lon="13.11495110684053"><ele>666.5</ele><time>2026-05-01T15:29:55.999Z</time></trkpt><trkpt lat="42.113689736170365" lon="13.114456170492078"><ele>669.0</ele><time>2026-05-01T15:29:56.999Z</time></trkpt><trkpt lat="42.11352053307339" lon="13.114082191692937"><ele>668.5</ele><time>2026-05-01T15:29:57.999Z</time></trkpt><trkpt lat="42.11337393720156" lon="13.113694153248854"><ele>668.0</ele><time>2026-05-01T15:29:58.999Z</time></trkpt><trkpt lat="42.113248110852794" lon="13.113291084633595"><ele>676.0</ele><time>2026-05-01T15:29:59.999Z</time></trkpt><trkpt lat="42.11314748680756" lon="13.112872837827982"><ele>684.0</ele><time>2026-05-01T15:30:00.999Z</time></trkpt><trkpt lat="42.11307887161549" lon="13.112448003910709"><ele>683.5</ele><time>2026-05-01T15:30:01.999Z</time></trkpt><trkpt lat="42.11303487802509" lon="13.112010120204983"><ele>683.0</ele><time>2026-05-01T15:30:02.999Z</time></trkpt><trkpt lat="42.11300805743259" lon="13.11157015085184"><ele>685.5</ele><time>2026-05-01T15:30:03.999Z</time></trkpt><trkpt lat="42.113009062018484" lon="13.111129910653457"><ele>688.0</ele><time>2026-05-01T15:30:04.999Z</time></trkpt><trkpt lat="42.113023846721646" lon="13.110691280851556"><ele>695.5</ele><time>2026-05-01T15:30:05.999Z</time></trkpt><trkpt lat="42.11305751490404" lon="13.110258843362274"><ele>703.0</ele><time>2026-05-01T15:30:06.999Z</time></trkpt><trkpt lat="42.11309928904271" lon="13.109829717152323"><ele>703.0</ele><time>2026-05-01T15:30:07.999Z</time></trkpt><trkpt lat="42.11315051050722" lon="13.10939726292796"><ele>703.0</ele><time>2026-05-01T15:30:08.999Z</time></trkpt><trkpt lat="42.113218372873085" lon="13.108968450217075"><ele>688.0</ele><time>2026-05-01T15:30:09.999Z</time></trkpt><trkpt lat="42.11328884779775" lon="13.108538060155169"><ele>673.0</ele><time>2026-05-01T15:30:10.999Z</time></trkpt><trkpt lat="42.113361512449686" lon="13.10810883415606"><ele>669.0</ele><time>2026-05-01T15:30:11.999Z</time></trkpt><trkpt lat="42.11343306738136" lon="13.107682042456606"><ele>665.0</ele><time>2026-05-01T15:30:12.999Z</time></trkpt><trkpt lat="42.11351081630344" lon="13.107256226021"><ele>663.5</ele><time>2026-05-01T15:30:13.999Z</time></trkpt><trkpt lat="42.11359288471921" lon="13.10683153968771"><ele>662.0</ele><time>2026-05-01T15:30:14.999Z</time></trkpt><trkpt lat="42.11367606085864" lon="13.10640945947097"><ele>671.0</ele><time>2026-05-01T15:30:15.999Z</time></trkpt><trkpt lat="42.11376317122737" lon="13.105986843928552"><ele>680.0</ele><time>2026-05-01T15:30:16.999Z</time></trkpt><trkpt lat="42.11385326335178" lon="13.105565146630315"><ele>680.0</ele><time>2026-05-01T15:30:17.999Z</time></trkpt><trkpt lat="42.113948185566784" lon="13.10514363586509"><ele>680.0</ele><time>2026-05-01T15:30:18.999Z</time></trkpt><trkpt lat="42.11404505586593" lon="13.104727696465313"><ele>667.5</ele><time>2026-05-01T15:30:19.999Z</time></trkpt><trkpt lat="42.114146696286795" lon="13.104307574980648"><ele>655.0</ele><time>2026-05-01T15:30:20.999Z</time></trkpt><trkpt lat="42.11425031144202" lon="13.103887325065154"><ele>655.0</ele><time>2026-05-01T15:30:21.999Z</time></trkpt><trkpt lat="42.11435922286359" lon="13.103470391069603"><ele>655.0</ele><time>2026-05-01T15:30:22.999Z</time></trkpt><trkpt lat="42.1144732863749" lon="13.103051437331258"><ele>655.0</ele><time>2026-05-01T15:30:23.999Z</time></trkpt><trkpt lat="42.11459141004977" lon="13.102636351415367"><ele>655.0</ele><time>2026-05-01T15:30:24.999Z</time></trkpt><trkpt lat="42.11471316577072" lon="13.102223531415895"><ele>654.0</ele><time>2026-05-01T15:30:25.999Z</time></trkpt><trkpt lat="42.11483933788336" lon="13.101813840491374"><ele>653.0</ele><time>2026-05-01T15:30:26.999Z</time></trkpt><trkpt lat="42.11496497925673" lon="13.101403613304084"><ele>653.0</ele><time>2026-05-01T15:30:27.999Z</time></trkpt><trkpt lat="42.115086835747846" lon="13.100993039414659"><ele>653.0</ele><time>2026-05-01T15:30:28.999Z</time></trkpt><trkpt lat="42.11520273180455" lon="13.100579293486668"><ele>658.0</ele><time>2026-05-01T15:30:29.999Z</time></trkpt><trkpt lat="42.11531670527882" lon="13.10016340965799"><ele>663.0</ele><time>2026-05-01T15:30:30.999Z</time></trkpt><trkpt lat="42.11542778541383" lon="13.099748114641642"><ele>669.0</ele><time>2026-05-01T15:30:31.999Z</time></trkpt><trkpt lat="42.11552557193369" lon="13.099328410979563"><ele>675.0</ele><time>2026-05-01T15:30:32.999Z</time></trkpt><trkpt lat="42.11560482765205" lon="13.098901282311596"><ele>676.0</ele><time>2026-05-01T15:30:33.999Z</time></trkpt><trkpt lat="42.11566638311392" lon="13.098466958659259"><ele>677.0</ele><time>2026-05-01T15:30:34.999Z</time></trkpt><trkpt lat="42.11571714153416" lon="13.098026135412129"><ele>666.0</ele><time>2026-05-01T15:30:35.999Z</time></trkpt><trkpt lat="42.115754289773264" lon="13.097584375004535"><ele>655.0</ele><time>2026-05-01T15:30:36.999Z</time></trkpt><trkpt lat="42.1157728701814" lon="13.097145335403031"><ele>655.0</ele><time>2026-05-01T15:30:37.999Z</time></trkpt><trkpt lat="42.11577745045426" lon="13.096702650946256"><ele>655.0</ele><time>2026-05-01T15:30:38.999Z</time></trkpt><trkpt lat="42.11576460640029" lon="13.096261764465806"><ele>660.0</ele><time>2026-05-01T15:30:39.999Z</time></trkpt><trkpt lat="42.11573435579324" lon="13.095821568021783"><ele>665.0</ele><time>2026-05-01T15:30:40.999Z</time></trkpt><trkpt lat="42.11568839392101" lon="13.095386114259957"><ele>665.0</ele><time>2026-05-01T15:30:41.999Z</time></trkpt><trkpt lat="42.115624726246786" lon="13.094954370057902"><ele>665.0</ele><time>2026-05-01T15:30:42.999Z</time></trkpt><trkpt lat="42.11555005246501" lon="13.094528308039363"><ele>658.5</ele><time>2026-05-01T15:30:43.999Z</time></trkpt><trkpt lat="42.11546312169972" lon="13.094110199125861"><ele>652.0</ele><time>2026-05-01T15:30:44.999Z</time></trkpt><trkpt lat="42.11536525031236" lon="13.093699462781204"><ele>652.0</ele><time>2026-05-01T15:30:45.999Z</time></trkpt><trkpt lat="42.1152559897538" lon="13.093296769241194"><ele>652.0</ele><time>2026-05-01T15:30:46.999Z</time></trkpt><trkpt lat="42.11513355512362" lon="13.092901355835457"><ele>653.0</ele><time>2026-05-01T15:30:47.998Z</time></trkpt><trkpt lat="42.1149991116204" lon="13.092517470476603"><ele>654.0</ele><time>2026-05-01T15:30:48.998Z</time></trkpt><trkpt lat="42.114853130907875" lon="13.092144060037509"><ele>654.0</ele><time>2026-05-01T15:30:49.998Z</time></trkpt><trkpt lat="42.1146947063038" lon="13.091779782355138"><ele>654.0</ele><time>2026-05-01T15:30:50.998Z</time></trkpt><trkpt lat="42.11452162053931" lon="13.09142256464234"><ele>651.0</ele><time>2026-05-01T15:30:51.998Z</time></trkpt><trkpt lat="42.11433990942824" lon="13.091076997318314"><ele>648.0</ele><time>2026-05-01T15:30:52.998Z</time></trkpt><trkpt lat="42.1141478042483" lon="13.090741222693614"><ele>651.5</ele><time>2026-05-01T15:30:53.998Z</time></trkpt><trkpt lat="42.11394731061834" lon="13.09041377790154"><ele>655.0</ele><time>2026-05-01T15:30:54.998Z</time></trkpt><trkpt lat="42.11373856045771" lon="13.09009784754698"><ele>653.5</ele><time>2026-05-01T15:30:55.998Z</time></trkpt><trkpt lat="42.11351722947247" lon="13.08979588948717"><ele>652.0</ele><time>2026-05-01T15:30:56.998Z</time></trkpt><trkpt lat="42.11328691699816" lon="13.089507644087096"><ele>653.5</ele><time>2026-05-01T15:30:57.998Z</time></trkpt><trkpt lat="42.113045719133524" lon="13.089233412723836"><ele>655.0</ele><time>2026-05-01T15:30:58.998Z</time></trkpt><trkpt lat="42.1127956230049" lon="13.088974685711783"><ele>655.0</ele><time>2026-05-01T15:30:59.998Z</time></trkpt><trkpt lat="42.112538824924215" lon="13.088728164356413"><ele>655.0</ele><time>2026-05-01T15:31:00.998Z</time></trkpt><trkpt lat="42.112274274780916" lon="13.088492616772042"><ele>654.5</ele><time>2026-05-01T15:31:01.998Z</time></trkpt><trkpt lat="42.11200200925859" lon="13.088273444112318"><ele>654.0</ele><time>2026-05-01T15:31:02.998Z</time></trkpt><trkpt lat="42.111720872810174" lon="13.088072609328709"><ele>649.5</ele><time>2026-05-01T15:31:03.998Z</time></trkpt><trkpt lat="42.11143572226015" lon="13.087886054677336"><ele>645.0</ele><time>2026-05-01T15:31:04.998Z</time></trkpt><trkpt lat="42.11115024156702" lon="13.087713973919314"><ele>645.0</ele><time>2026-05-01T15:31:05.998Z</time></trkpt><trkpt lat="42.110858284101745" lon="13.087547950756822"><ele>645.0</ele><time>2026-05-01T15:31:06.998Z</time></trkpt><trkpt lat="42.1105600432503" lon="13.087388018492634"><ele>640.5</ele><time>2026-05-01T15:31:07.998Z</time></trkpt><trkpt lat="42.1102576754353" lon="13.087226965625042"><ele>636.0</ele><time>2026-05-01T15:31:09Z</time></trkpt><trkpt lat="42.109957097237555" lon="13.087067994178605"><ele>639.5</ele><time>2026-05-01T15:31:10Z</time></trkpt><trkpt lat="42.1096547406217" lon="13.086901973614326"><ele>643.0</ele><time>2026-05-01T15:31:11Z</time></trkpt><trkpt lat="42.10935618300189" lon="13.086737323668169"><ele>634.5</ele><time>2026-05-01T15:31:12Z</time></trkpt><trkpt lat="42.10905541239636" lon="13.08656965851765"><ele>626.0</ele><time>2026-05-01T15:31:13Z</time></trkpt><trkpt lat="42.108751090869546" lon="13.086405733731187"><ele>626.0</ele><time>2026-05-01T15:31:14Z</time></trkpt><trkpt lat="42.108445152237294" lon="13.086243277718014"><ele>626.0</ele><time>2026-05-01T15:31:15Z</time></trkpt><trkpt lat="42.10814294141465" lon="13.086079648535668"><ele>634.0</ele><time>2026-05-01T15:31:16Z</time></trkpt><trkpt lat="42.10784108013026" lon="13.085921884493787"><ele>642.0</ele><time>2026-05-01T15:31:17Z</time></trkpt><trkpt lat="42.10753993274917" lon="13.08576414844213"><ele>631.5</ele><time>2026-05-01T15:31:18Z</time></trkpt><trkpt lat="42.10724097838794" lon="13.085603041742152"><ele>621.0</ele><time>2026-05-01T15:31:19Z</time></trkpt><trkpt lat="42.10694446666198" lon="13.085441087485572"><ele>621.0</ele><time>2026-05-01T15:31:20Z</time></trkpt><trkpt lat="42.10664882265829" lon="13.08528242662113"><ele>621.0</ele><time>2026-05-01T15:31:21Z</time></trkpt><trkpt lat="42.106353232753115" lon="13.085127976331929"><ele>618.5</ele><time>2026-05-01T15:31:22Z</time></trkpt><trkpt lat="42.106056268474404" lon="13.084972466709159"><ele>616.0</ele><time>2026-05-01T15:31:23Z</time></trkpt><trkpt lat="42.10576259449374" lon="13.084817635634636"><ele>617.5</ele><time>2026-05-01T15:31:24Z</time></trkpt><trkpt lat="42.10546922272875" lon="13.084661261197915"><ele>619.0</ele><time>2026-05-01T15:31:25Z</time></trkpt><trkpt lat="42.105175763988754" lon="13.084503655680324"><ele>621.5</ele><time>2026-05-01T15:31:26Z</time></trkpt><trkpt lat="42.10488174360565" lon="13.084346547701005"><ele>624.0</ele><time>2026-05-01T15:31:27Z</time></trkpt><trkpt lat="42.10458885142069" lon="13.084189936819618"><ele>633.0</ele><time>2026-05-01T15:31:28Z</time></trkpt><trkpt lat="42.10429737196966" lon="13.084033721145525"><ele>642.0</ele><time>2026-05-01T15:31:29Z</time></trkpt><trkpt lat="42.10400357208297" lon="13.083883065350856"><ele>642.0</ele><time>2026-05-01T15:31:30Z</time></trkpt><trkpt lat="42.10370896711753" lon="13.083727306571205"><ele>642.0</ele><time>2026-05-01T15:31:31Z</time></trkpt><trkpt lat="42.10341363216458" lon="13.08357189170402"><ele>645.5</ele><time>2026-05-01T15:31:32Z</time></trkpt><trkpt lat="42.10311839744939" lon="13.083415610972414"><ele>649.0</ele><time>2026-05-01T15:31:33Z</time></trkpt><trkpt lat="42.102824009929556" lon="13.083257471501135"><ele>649.0</ele><time>2026-05-01T15:31:34Z</time></trkpt><trkpt lat="42.10252780013811" lon="13.083099648227298"><ele>649.0</ele><time>2026-05-01T15:31:35Z</time></trkpt><trkpt lat="42.10222890692747" lon="13.082944163170476"><ele>640.5</ele><time>2026-05-01T15:31:36Z</time></trkpt><trkpt lat="42.1019312949866" lon="13.082790591878467"><ele>632.0</ele><time>2026-05-01T15:31:37Z</time></trkpt><trkpt lat="42.10163163734374" lon="13.082638061723943"><ele>630.0</ele><time>2026-05-01T15:31:38Z</time></trkpt><trkpt lat="42.10133329787233" lon="13.082480594007256"><ele>628.0</ele><time>2026-05-01T15:31:39Z</time></trkpt><trkpt lat="42.101034600110104" lon="13.082322580796653"><ele>628.5</ele><time>2026-05-01T15:31:40Z</time></trkpt><trkpt lat="42.10073544274456" lon="13.082166093922899"><ele>629.0</ele><time>2026-05-01T15:31:41Z</time></trkpt><trkpt lat="42.10043516633837" lon="13.082011782514911"><ele>629.0</ele><time>2026-05-01T15:31:42Z</time></trkpt><trkpt lat="42.10013521038699" lon="13.081858207760773"><ele>629.0</ele><time>2026-05-01T15:31:43Z</time></trkpt><trkpt lat="42.099838266472915" lon="13.081705966631972"><ele>627.5</ele><time>2026-05-01T15:31:44Z</time></trkpt><trkpt lat="42.09954081391764" lon="13.081549286599627"><ele>626.0</ele><time>2026-05-01T15:31:45Z</time></trkpt><trkpt lat="42.099245585666935" lon="13.08138889874847"><ele>621.5</ele><time>2026-05-01T15:31:46Z</time></trkpt><trkpt lat="42.09895269005345" lon="13.081224915576437"><ele>617.0</ele><time>2026-05-01T15:31:47Z</time></trkpt><trkpt lat="42.09866059012385" lon="13.08105976456583"><ele>617.0</ele><time>2026-05-01T15:31:48Z</time></trkpt><trkpt lat="42.098369603918876" lon="13.080887102813788"><ele>617.0</ele><time>2026-05-01T15:31:49Z</time></trkpt><trkpt lat="42.09808067300955" lon="13.080708051244551"><ele>619.0</ele><time>2026-05-01T15:31:50Z</time></trkpt><trkpt lat="42.097797587818384" lon="13.080518437557194"><ele>621.0</ele><time>2026-05-01T15:31:51Z</time></trkpt><trkpt lat="42.0975179535276" lon="13.080315191780679"><ele>617.5</ele><time>2026-05-01T15:31:52Z</time></trkpt><trkpt lat="42.097243506269734" lon="13.080106772456547"><ele>614.0</ele><time>2026-05-01T15:31:53Z</time></trkpt><trkpt lat="42.096970687068385" lon="13.079886102010265"><ele>614.0</ele><time>2026-05-01T15:31:53.999Z</time></trkpt><trkpt lat="42.096703573021294" lon="13.079652837386384"><ele>614.0</ele><time>2026-05-01T15:31:54.999Z</time></trkpt><trkpt lat="42.096443832261194" lon="13.079404047538743"><ele>611.0</ele><time>2026-05-01T15:31:55.999Z</time></trkpt><trkpt lat="42.09619235487299" lon="13.079141151802347"><ele>608.0</ele><time>2026-05-01T15:31:56.999Z</time></trkpt><trkpt lat="42.09595045370847" lon="13.078863670411787"><ele>608.5</ele><time>2026-05-01T15:31:57.999Z</time></trkpt><trkpt lat="42.0957208270907" lon="13.078566894500543"><ele>609.0</ele><time>2026-05-01T15:31:58.999Z</time></trkpt><trkpt lat="42.09550267501984" lon="13.078254231212956"><ele>615.5</ele><time>2026-05-01T15:31:59.999Z</time></trkpt><trkpt lat="42.09529842438105" lon="13.077923170869203"><ele>622.0</ele><time>2026-05-01T15:32:00.999Z</time></trkpt><trkpt lat="42.09511556734692" lon="13.077576431340832"><ele>621.0</ele><time>2026-05-01T15:32:01.999Z</time></trkpt><trkpt lat="42.09495048723686" lon="13.077216736127339"><ele>620.0</ele><time>2026-05-01T15:32:02.999Z</time></trkpt><trkpt lat="42.094804323823254" lon="13.076844897592084"><ele>619.0</ele><time>2026-05-01T15:32:03.999Z</time></trkpt><trkpt lat="42.09467721250542" lon="13.07645871580971"><ele>618.0</ele><time>2026-05-01T15:32:04.999Z</time></trkpt><trkpt lat="42.094566002859885" lon="13.076064352336397"><ele>617.0</ele><time>2026-05-01T15:32:05.999Z</time></trkpt><trkpt lat="42.0944681876942" lon="13.07566131433106"><ele>616.0</ele><time>2026-05-01T15:32:06.999Z</time></trkpt><trkpt lat="42.094381287335494" lon="13.075251884981865"><ele>615.5</ele><time>2026-05-01T15:32:07.999Z</time></trkpt><trkpt lat="42.094301652626484" lon="13.074839455195447"><ele>615.0</ele><time>2026-05-01T15:32:08.999Z</time></trkpt><trkpt lat="42.09422961483664" lon="13.074425445704978"><ele>612.0</ele><time>2026-05-01T15:32:09.999Z</time></trkpt><trkpt lat="42.094168834882325" lon="13.074013303008726"><ele>609.0</ele><time>2026-05-01T15:32:10.999Z</time></trkpt><trkpt lat="42.09411907625384" lon="13.073605644761631"><ele>604.0</ele><time>2026-05-01T15:32:11.999Z</time></trkpt><trkpt lat="42.09407826130837" lon="13.073204817436231"><ele>599.0</ele><time>2026-05-01T15:32:12.999Z</time></trkpt><trkpt lat="42.094043290712676" lon="13.072810074974134"><ele>598.0</ele><time>2026-05-01T15:32:13.999Z</time></trkpt><trkpt lat="42.09401304769939" lon="13.072423021648433"><ele>597.0</ele><time>2026-05-01T15:32:14.999Z</time></trkpt><trkpt lat="42.09398549787826" lon="13.07203222844825"><ele>597.0</ele><time>2026-05-01T15:32:15.999Z</time></trkpt><trkpt lat="42.09395727502748" lon="13.071641354607772"><ele>597.0</ele><time>2026-05-01T15:32:16.999Z</time></trkpt><trkpt lat="42.09392926889868" lon="13.071248325549764"><ele>596.5</ele><time>2026-05-01T15:32:17.999Z</time></trkpt><trkpt lat="42.09389909162497" lon="13.070853478272193"><ele>596.0</ele><time>2026-05-01T15:32:18.999Z</time></trkpt><trkpt lat="42.09386160389022" lon="13.070457180800663"><ele>595.0</ele><time>2026-05-01T15:32:19.999Z</time></trkpt><trkpt lat="42.093821307214064" lon="13.070064523117283"><ele>594.0</ele><time>2026-05-01T15:32:20.999Z</time></trkpt><trkpt lat="42.093776803184596" lon="13.069683771296553"><ele>593.5</ele><time>2026-05-01T15:32:21.999Z</time></trkpt><trkpt lat="42.09372710308833" lon="13.06931533214971"><ele>593.0</ele><time>2026-05-01T15:32:22.999Z</time></trkpt><trkpt lat="42.093670940123125" lon="13.0689365250666"><ele>591.5</ele><time>2026-05-01T15:32:23.999Z</time></trkpt><trkpt lat="42.09360717232965" lon="13.068551335596066"><ele>590.0</ele><time>2026-05-01T15:32:24.999Z</time></trkpt><trkpt lat="42.093530491772725" lon="13.068167359115229"><ele>590.0</ele><time>2026-05-01T15:32:25.999Z</time></trkpt><trkpt lat="42.09344225860469" lon="13.067783663902032"><ele>590.0</ele><time>2026-05-01T15:32:26.999Z</time></trkpt><trkpt lat="42.09334464536553" lon="13.067398888298529"><ele>589.5</ele><time>2026-05-01T15:32:27.999Z</time></trkpt><trkpt lat="42.09323951558958" lon="13.067017584457696"><ele>589.0</ele><time>2026-05-01T15:32:28.999Z</time></trkpt><trkpt lat="42.09312394355774" lon="13.066638902188215"><ele>588.0</ele><time>2026-05-01T15:32:29.999Z</time></trkpt><trkpt lat="42.09299842903595" lon="13.066264684745482"><ele>587.0</ele><time>2026-05-01T15:32:30.999Z</time></trkpt><trkpt lat="42.09286067408238" lon="13.065895879433956"><ele>587.0</ele><time>2026-05-01T15:32:31.999Z</time></trkpt><trkpt lat="42.092713453416344" lon="13.065536375496942"><ele>587.0</ele><time>2026-05-01T15:32:32.999Z</time></trkpt><trkpt lat="42.09255707031163" lon="13.065187836446459"><ele>587.0</ele><time>2026-05-01T15:32:33.999Z</time></trkpt><trkpt lat="42.09239233068035" lon="13.064846402262669"><ele>587.0</ele><time>2026-05-01T15:32:34.999Z</time></trkpt><trkpt lat="42.09222130080192" lon="13.064506682157074"><ele>587.0</ele><time>2026-05-01T15:32:35.999Z</time></trkpt><trkpt lat="42.092043774066596" lon="13.06417645220728"><ele>587.0</ele><time>2026-05-01T15:32:36.999Z</time></trkpt><trkpt lat="42.091856700249416" lon="13.063854163669543"><ele>586.0</ele><time>2026-05-01T15:32:37.999Z</time></trkpt><trkpt lat="42.09166170271744" lon="13.063543604358943"><ele>585.0</ele><time>2026-05-01T15:32:38.999Z</time></trkpt><trkpt lat="42.0914585816431" lon="13.06324396076425"><ele>584.0</ele><time>2026-05-01T15:32:39.999Z</time></trkpt><trkpt lat="42.091248698052446" lon="13.06295477336759"><ele>583.0</ele><time>2026-05-01T15:32:40.999Z</time></trkpt><trkpt lat="42.091031941174386" lon="13.06267417729857"><ele>582.5</ele><time>2026-05-01T15:32:41.999Z</time></trkpt><trkpt lat="42.090811378312445" lon="13.062396084440921"><ele>582.0</ele><time>2026-05-01T15:32:42.999Z</time></trkpt><trkpt lat="42.090589632574115" lon="13.062118472408448"><ele>583.0</ele><time>2026-05-01T15:32:43.999Z</time></trkpt><trkpt lat="42.09036579506957" lon="13.061841667166044"><ele>584.0</ele><time>2026-05-01T15:32:44.999Z</time></trkpt><trkpt lat="42.09013901088388" lon="13.061571230260432"><ele>585.5</ele><time>2026-05-01T15:32:45.999Z</time></trkpt><trkpt lat="42.08991170907054" lon="13.06130484121084"><ele>587.0</ele><time>2026-05-01T15:32:46.999Z</time></trkpt><trkpt lat="42.08968533955801" lon="13.061039482620926"><ele>587.5</ele><time>2026-05-01T15:32:47.999Z</time></trkpt><trkpt lat="42.08946117631449" lon="13.060774668262773"><ele>588.0</ele><time>2026-05-01T15:32:48.999Z</time></trkpt><trkpt lat="42.08923855321112" lon="13.060510404308115"><ele>588.0</ele><time>2026-05-01T15:32:49.999Z</time></trkpt><trkpt lat="42.0890164823318" lon="13.060246765418553"><ele>588.0</ele><time>2026-05-01T15:32:50.999Z</time></trkpt><trkpt lat="42.08879398783933" lon="13.059983943761287"><ele>588.5</ele><time>2026-05-01T15:32:51.999Z</time></trkpt><trkpt lat="42.088570657902025" lon="13.059721572635045"><ele>589.0</ele><time>2026-05-01T15:32:52.999Z</time></trkpt><trkpt lat="42.08834759554398" lon="13.059460504246674"><ele>590.5</ele><time>2026-05-01T15:32:53.998Z</time></trkpt><trkpt lat="42.088124823035" lon="13.059197862755008"><ele>592.0</ele><time>2026-05-01T15:32:54.998Z</time></trkpt><trkpt lat="42.08790187719141" lon="13.058934718338074"><ele>592.0</ele><time>2026-05-01T15:32:55.998Z</time></trkpt><trkpt lat="42.0876780887149" lon="13.058670237335932"><ele>592.0</ele><time>2026-05-01T15:32:56.998Z</time></trkpt><trkpt lat="42.087453961259" lon="13.058403736229769"><ele>591.5</ele><time>2026-05-01T15:32:57.998Z</time></trkpt><trkpt lat="42.087229306029464" lon="13.05813529254749"><ele>591.0</ele><time>2026-05-01T15:32:58.998Z</time></trkpt><trkpt lat="42.08700606087264" lon="13.05785913248484"><ele>591.0</ele><time>2026-05-01T15:32:59.998Z</time></trkpt><trkpt lat="42.08678020897266" lon="13.057589589167963"><ele>591.0</ele><time>2026-05-01T15:33:00.998Z</time></trkpt><trkpt lat="42.08655381542771" lon="13.05731817163408"><ele>590.5</ele><time>2026-05-01T15:33:01.998Z</time></trkpt><trkpt lat="42.086326294437676" lon="13.057048223226008"><ele>590.0</ele><time>2026-05-01T15:33:02.998Z</time></trkpt><trkpt lat="42.086098596035185" lon="13.056776486017775"><ele>589.5</ele><time>2026-05-01T15:33:03.998Z</time></trkpt><trkpt lat="42.08587099863017" lon="13.056505878912297"><ele>589.0</ele><time>2026-05-01T15:33:04.998Z</time></trkpt><trkpt lat="42.085642597552805" lon="13.056235817923511"><ele>590.0</ele><time>2026-05-01T15:33:05.998Z</time></trkpt><trkpt lat="42.085414567040836" lon="13.055967449664745"><ele>591.0</ele><time>2026-05-01T15:33:06.998Z</time></trkpt><trkpt lat="42.08518572737633" lon="13.055698744450995"><ele>591.5</ele><time>2026-05-01T15:33:07.998Z</time></trkpt><trkpt lat="42.0849575031868" lon="13.0554277644457"><ele>592.0</ele><time>2026-05-01T15:33:08.998Z</time></trkpt><trkpt lat="42.084730641027164" lon="13.055155241605217"><ele>594.0</ele><time>2026-05-01T15:33:09.998Z</time></trkpt><trkpt lat="42.08450379126642" lon="13.054883471311173"><ele>596.0</ele><time>2026-05-01T15:33:10.998Z</time></trkpt><trkpt lat="42.08427630862291" lon="13.054611526616826"><ele>595.5</ele><time>2026-05-01T15:33:11.998Z</time></trkpt><trkpt lat="42.08404867289497" lon="13.054339925003484"><ele>595.0</ele><time>2026-05-01T15:33:12.998Z</time></trkpt><trkpt lat="42.08382026362493" lon="13.05406844382223"><ele>595.0</ele><time>2026-05-01T15:33:13.998Z</time></trkpt><trkpt lat="42.08358913515305" lon="13.05379421380703"><ele>595.0</ele><time>2026-05-01T15:33:15Z</time></trkpt><trkpt lat="42.08335810871867" lon="13.053520639723452"><ele>597.0</ele><time>2026-05-01T15:33:16Z</time></trkpt><trkpt lat="42.083126372028104" lon="13.053246508582644"><ele>599.0</ele><time>2026-05-01T15:33:17Z</time></trkpt><trkpt lat="42.08289645584238" lon="13.052976847693246"><ele>599.0</ele><time>2026-05-01T15:33:18Z</time></trkpt><trkpt lat="42.08266116794992" lon="13.05271203715931"><ele>599.0</ele><time>2026-05-01T15:33:19Z</time></trkpt><trkpt lat="42.08242204129695" lon="13.05245355125424"><ele>601.5</ele><time>2026-05-01T15:33:20Z</time></trkpt><trkpt lat="42.08218055878396" lon="13.052202708956404"><ele>604.0</ele><time>2026-05-01T15:33:21Z</time></trkpt><trkpt lat="42.08193266263562" lon="13.051962636079308"><ele>604.0</ele><time>2026-05-01T15:33:22Z</time></trkpt><trkpt lat="42.081679284717396" lon="13.051728116879419"><ele>604.0</ele><time>2026-05-01T15:33:23Z</time></trkpt><trkpt lat="42.08142201690552" lon="13.051500477101046"><ele>605.5</ele><time>2026-05-01T15:33:24Z</time></trkpt><trkpt lat="42.081161710475584" lon="13.051275790278611"><ele>607.0</ele><time>2026-05-01T15:33:25Z</time></trkpt><trkpt lat="42.08089789389349" lon="13.051058127523858"><ele>608.0</ele><time>2026-05-01T15:33:26Z</time></trkpt><trkpt lat="42.080629233901035" lon="13.050849187129602"><ele>609.0</ele><time>2026-05-01T15:33:27Z</time></trkpt><trkpt lat="42.08036064315734" lon="13.050649862972948"><ele>609.0</ele><time>2026-05-01T15:33:28Z</time></trkpt><trkpt lat="42.08008950173652" lon="13.050461369123122"><ele>609.0</ele><time>2026-05-01T15:33:29Z</time></trkpt><trkpt lat="42.07981653290907" lon="13.05027947538721"><ele>608.0</ele><time>2026-05-01T15:33:30Z</time></trkpt><trkpt lat="42.07954146221055" lon="13.050109771113524"><ele>607.0</ele><time>2026-05-01T15:33:31Z</time></trkpt><trkpt lat="42.07926126964641" lon="13.04994718825299"><ele>606.5</ele><time>2026-05-01T15:33:32Z</time></trkpt><trkpt lat="42.078978489665054" lon="13.049789516468158"><ele>606.0</ele><time>2026-05-01T15:33:33Z</time></trkpt><trkpt lat="42.07869195074012" lon="13.049638914370911"><ele>606.0</ele><time>2026-05-01T15:33:34Z</time></trkpt><trkpt lat="42.078403893794224" lon="13.049492713462303"><ele>606.0</ele><time>2026-05-01T15:33:35Z</time></trkpt><trkpt lat="42.07811398009222" lon="13.049348630023138"><ele>607.0</ele><time>2026-05-01T15:33:36Z</time></trkpt><trkpt lat="42.07782344079254" lon="13.049203928194517"><ele>608.0</ele><time>2026-05-01T15:33:37Z</time></trkpt><trkpt lat="42.07753543968343" lon="13.049057625860637"><ele>609.5</ele><time>2026-05-01T15:33:38Z</time></trkpt><trkpt lat="42.07724794128529" lon="13.048907405129336"><ele>611.0</ele><time>2026-05-01T15:33:39Z</time></trkpt><trkpt lat="42.076962146861334" lon="13.048758526674675"><ele>611.0</ele><time>2026-05-01T15:33:40Z</time></trkpt><trkpt lat="42.076676083163775" lon="13.048609443847537"><ele>611.0</ele><time>2026-05-01T15:33:41Z</time></trkpt><trkpt lat="42.07639073217498" lon="13.048458880608823"><ele>611.5</ele><time>2026-05-01T15:33:42Z</time></trkpt><trkpt lat="42.07610588565762" lon="13.048310237950568"><ele>612.0</ele><time>2026-05-01T15:33:43Z</time></trkpt><trkpt lat="42.075821306143744" lon="13.048160636312778"><ele>612.0</ele><time>2026-05-01T15:33:44Z</time></trkpt><trkpt lat="42.07553694005584" lon="13.04801170528063"><ele>612.0</ele><time>2026-05-01T15:33:45Z</time></trkpt><trkpt lat="42.075254642233816" lon="13.047859147485541"><ele>612.0</ele><time>2026-05-01T15:33:46Z</time></trkpt><trkpt lat="42.07497340386259" lon="13.047704314410378"><ele>612.0</ele><time>2026-05-01T15:33:47Z</time></trkpt><trkpt lat="42.07469230397443" lon="13.047548564073079"><ele>614.0</ele><time>2026-05-01T15:33:48Z</time></trkpt><trkpt lat="42.074412490676806" lon="13.04739094432568"><ele>616.0</ele><time>2026-05-01T15:33:49Z</time></trkpt><trkpt lat="42.07413206904019" lon="13.047233072431174"><ele>618.0</ele><time>2026-05-01T15:33:50Z</time></trkpt><trkpt lat="42.07385431542295" lon="13.047070146978452"><ele>620.0</ele><time>2026-05-01T15:33:51Z</time></trkpt><trkpt lat="42.07357910974184" lon="13.0468997091645"><ele>620.0</ele><time>2026-05-01T15:33:52Z</time></trkpt><trkpt lat="42.07330592624399" lon="13.046722894738886"><ele>620.0</ele><time>2026-05-01T15:33:53Z</time></trkpt><trkpt lat="42.073032632895334" lon="13.046541671349777"><ele>622.5</ele><time>2026-05-01T15:33:54Z</time></trkpt><trkpt lat="42.07276041255988" lon="13.046357893546551"><ele>625.0</ele><time>2026-05-01T15:33:55Z</time></trkpt><trkpt lat="42.07248967435408" lon="13.046167774937985"><ele>623.5</ele><time>2026-05-01T15:33:56Z</time></trkpt><trkpt lat="42.0722210193251" lon="13.045969619571462"><ele>622.0</ele><time>2026-05-01T15:33:57Z</time></trkpt><trkpt lat="42.071954206326915" lon="13.045764935660864"><ele>622.0</ele><time>2026-05-01T15:33:58Z</time></trkpt><trkpt lat="42.07169024067861" lon="13.04555317010282"><ele>622.0</ele><time>2026-05-01T15:33:59Z</time></trkpt><trkpt lat="42.07142892485182" lon="13.04533229835418"><ele>621.5</ele><time>2026-05-01T15:33:59.999Z</time></trkpt><trkpt lat="42.071170728117295" lon="13.045102583462729"><ele>621.0</ele><time>2026-05-01T15:34:00.999Z</time></trkpt><trkpt lat="42.07091626497274" lon="13.044866486589001"><ele>624.0</ele><time>2026-05-01T15:34:01.999Z</time></trkpt><trkpt lat="42.07066592837954" lon="13.044616629302409"><ele>627.0</ele><time>2026-05-01T15:34:02.999Z</time></trkpt><trkpt lat="42.07042168964767" lon="13.044354792445933"><ele>624.0</ele><time>2026-05-01T15:34:03.999Z</time></trkpt><trkpt lat="42.070182015931614" lon="13.044086246964344"><ele>621.0</ele><time>2026-05-01T15:34:04.999Z</time></trkpt><trkpt lat="42.06994810641924" lon="13.043808256617337"><ele>623.5</ele><time>2026-05-01T15:34:05.999Z</time></trkpt><trkpt lat="42.06972050851919" lon="13.04352072795235"><ele>626.0</ele><time>2026-05-01T15:34:06.999Z</time></trkpt><trkpt lat="42.0694990788995" lon="13.043223014478142"><ele>627.5</ele><time>2026-05-01T15:34:07.999Z</time></trkpt><trkpt lat="42.06928174580432" lon="13.04291983782837"><ele>629.0</ele><time>2026-05-01T15:34:08.999Z</time></trkpt><trkpt lat="42.069067132550956" lon="13.042612421175022"><ele>629.5</ele><time>2026-05-01T15:34:09.999Z</time></trkpt><trkpt lat="42.06885497988362" lon="13.042299369010728"><ele>630.0</ele><time>2026-05-01T15:34:10.999Z</time></trkpt><trkpt lat="42.068649013538376" lon="13.04198003449775"><ele>630.0</ele><time>2026-05-01T15:34:11.999Z</time></trkpt><trkpt lat="42.06845080242728" lon="13.041647969688183"><ele>630.0</ele><time>2026-05-01T15:34:12.999Z</time></trkpt><trkpt lat="42.06826175273448" lon="13.041308229534451"><ele>629.0</ele><time>2026-05-01T15:34:13.999Z</time></trkpt><trkpt lat="42.06808112481795" lon="13.040960910809376"><ele>628.0</ele><time>2026-05-01T15:34:14.999Z</time></trkpt><trkpt lat="42.06790843305288" lon="13.040604965062524"><ele>628.0</ele><time>2026-05-01T15:34:15.999Z</time></trkpt><trkpt lat="42.067743462039545" lon="13.04024550373141"><ele>628.0</ele><time>2026-05-01T15:34:16.999Z</time></trkpt><trkpt lat="42.06758866850114" lon="13.03988355289062"><ele>627.0</ele><time>2026-05-01T15:34:17.999Z</time></trkpt><trkpt lat="42.067440167149606" lon="13.039520527879997"><ele>626.0</ele><time>2026-05-01T15:34:18.999Z</time></trkpt><trkpt lat="42.067300304573216" lon="13.03915730087603"><ele>624.0</ele><time>2026-05-01T15:34:19.999Z</time></trkpt><trkpt lat="42.06716575537335" lon="13.03878962222085"><ele>622.0</ele><time>2026-05-01T15:34:20.999Z</time></trkpt><trkpt lat="42.067036708692456" lon="13.038417954965016"><ele>620.5</ele><time>2026-05-01T15:34:21.999Z</time></trkpt><trkpt lat="42.06691532489635" lon="13.038041700395901"><ele>619.0</ele><time>2026-05-01T15:34:22.999Z</time></trkpt><trkpt lat="42.066801416846154" lon="13.03765632628036"><ele>619.0</ele><time>2026-05-01T15:34:23.999Z</time></trkpt><trkpt lat="42.066690734184405" lon="13.037274386891017"><ele>619.0</ele><time>2026-05-01T15:34:24.999Z</time></trkpt><trkpt lat="42.0665864337406" lon="13.036888225825113"><ele>617.0</ele><time>2026-05-01T15:34:25.999Z</time></trkpt><trkpt lat="42.06649473826641" lon="13.036502104756236"><ele>615.0</ele><time>2026-05-01T15:34:26.999Z</time></trkpt><trkpt lat="42.066412887537936" lon="13.03613236334577"><ele>613.0</ele><time>2026-05-01T15:34:27.999Z</time></trkpt><trkpt lat="42.06633146497261" lon="13.035769383275714"><ele>611.0</ele><time>2026-05-01T15:34:28.999Z</time></trkpt><trkpt lat="42.06625383801362" lon="13.035411941310535"><ele>611.0</ele><time>2026-05-01T15:34:29.999Z</time></trkpt><trkpt lat="42.06617733533219" lon="13.035062963431056"><ele>611.0</ele><time>2026-05-01T15:34:30.999Z</time></trkpt><trkpt lat="42.066098395171934" lon="13.034716248014728"><ele>610.0</ele><time>2026-05-01T15:34:31.999Z</time></trkpt><trkpt lat="42.06602300308881" lon="13.034377466848081"><ele>609.0</ele><time>2026-05-01T15:34:32.999Z</time></trkpt><trkpt lat="42.06595135220739" lon="13.03403615893876"><ele>608.0</ele><time>2026-05-01T15:34:33.999Z</time></trkpt><trkpt lat="42.06588389948113" lon="13.033686955876297"><ele>607.0</ele><time>2026-05-01T15:34:34.999Z</time></trkpt><trkpt lat="42.06581976874548" lon="13.0333327279408"><ele>611.0</ele><time>2026-05-01T15:34:35.999Z</time></trkpt><trkpt lat="42.065756933892004" lon="13.032969558941597"><ele>615.0</ele><time>2026-05-01T15:34:36.999Z</time></trkpt><trkpt lat="42.06569272649493" lon="13.032600118981131"><ele>613.0</ele><time>2026-05-01T15:34:37.999Z</time></trkpt><trkpt lat="42.0656274224434" lon="13.032227004638836"><ele>611.0</ele><time>2026-05-01T15:34:38.999Z</time></trkpt><trkpt lat="42.0655608616755" lon="13.031849197607908"><ele>610.5</ele><time>2026-05-01T15:34:39.999Z</time></trkpt><trkpt lat="42.065493716156084" lon="13.031465587845672"><ele>610.0</ele><time>2026-05-01T15:34:40.999Z</time></trkpt><trkpt lat="42.065425336119176" lon="13.031079581416671"><ele>609.5</ele><time>2026-05-01T15:34:41.999Z</time></trkpt><trkpt lat="42.0653566558631" lon="13.030689851142863"><ele>609.0</ele><time>2026-05-01T15:34:42.999Z</time></trkpt><trkpt lat="42.06528953727265" lon="13.030301788893853"><ele>611.5</ele><time>2026-05-01T15:34:43.999Z</time></trkpt><trkpt lat="42.06522035897411" lon="13.029912230467467"><ele>614.0</ele><time>2026-05-01T15:34:44.999Z</time></trkpt><trkpt lat="42.065152969776456" lon="13.02951849248833"><ele>616.5</ele><time>2026-05-01T15:34:45.999Z</time></trkpt><trkpt lat="42.0650836680693" lon="13.029124112235449"><ele>619.0</ele><time>2026-05-01T15:34:46.999Z</time></trkpt><trkpt lat="42.06501245076305" lon="13.028727199756826"><ele>615.5</ele><time>2026-05-01T15:34:47.999Z</time></trkpt><trkpt lat="42.06494176089283" lon="13.028329604555802"><ele>612.0</ele><time>2026-05-01T15:34:48.999Z</time></trkpt><trkpt lat="42.06487301274863" lon="13.027929060870143"><ele>610.0</ele><time>2026-05-01T15:34:49.999Z</time></trkpt><trkpt lat="42.06480399499132" lon="13.027527145817102"><ele>608.0</ele><time>2026-05-01T15:34:50.999Z</time></trkpt><trkpt lat="42.064736576952335" lon="13.027127151034302"><ele>606.0</ele><time>2026-05-01T15:34:51.999Z</time></trkpt><trkpt lat="42.06466227413751" lon="13.026730679772614"><ele>604.0</ele><time>2026-05-01T15:34:52.999Z</time></trkpt><trkpt lat="42.06458929751288" lon="13.026334057582115"><ele>602.0</ele><time>2026-05-01T15:34:53.999Z</time></trkpt><trkpt lat="42.06451773692342" lon="13.025939372152376"><ele>600.0</ele><time>2026-05-01T15:34:54.999Z</time></trkpt><trkpt lat="42.064446987639165" lon="13.025542746199635"><ele>598.5</ele><time>2026-05-01T15:34:55.999Z</time></trkpt><trkpt lat="42.06437732078586" lon="13.025146615441868"><ele>597.0</ele><time>2026-05-01T15:34:56.999Z</time></trkpt><trkpt lat="42.064308305748504" lon="13.024749888771487"><ele>596.5</ele><time>2026-05-01T15:34:57.999Z</time></trkpt><trkpt lat="42.0642417494002" lon="13.024349265320184"><ele>596.0</ele><time>2026-05-01T15:34:58.998Z</time></trkpt><trkpt lat="42.06417261726176" lon="13.023949274044886"><ele>596.0</ele><time>2026-05-01T15:34:59.998Z</time></trkpt><trkpt lat="42.06410417808977" lon="13.023549556593332"><ele>596.0</ele><time>2026-05-01T15:35:00.998Z</time></trkpt><trkpt lat="42.06403171536012" lon="13.02314746247123"><ele>602.5</ele><time>2026-05-01T15:35:01.998Z</time></trkpt><trkpt lat="42.06396131965753" lon="13.022744864046814"><ele>609.0</ele><time>2026-05-01T15:35:02.998Z</time></trkpt><trkpt lat="42.06389160821427" lon="13.022344204870953"><ele>608.5</ele><time>2026-05-01T15:35:03.998Z</time></trkpt><trkpt lat="42.06382262097071" lon="13.021943011382861"><ele>608.0</ele><time>2026-05-01T15:35:04.998Z</time></trkpt><trkpt lat="42.06375126561895" lon="13.021541903511682"><ele>608.0</ele><time>2026-05-01T15:35:05.998Z</time></trkpt><trkpt lat="42.063679592832756" lon="13.021138401552284"><ele>608.0</ele><time>2026-05-01T15:35:06.998Z</time></trkpt><trkpt lat="42.06360597943836" lon="13.020733670519986"><ele>608.0</ele><time>2026-05-01T15:35:07.998Z</time></trkpt><trkpt lat="42.06352877334167" lon="13.020329309499553"><ele>608.0</ele><time>2026-05-01T15:35:08.998Z</time></trkpt><trkpt lat="42.06344784953601" lon="13.019926258168685"><ele>608.0</ele><time>2026-05-01T15:35:09.998Z</time></trkpt><trkpt lat="42.063364776199464" lon="13.019522368863596"><ele>608.0</ele><time>2026-05-01T15:35:10.998Z</time></trkpt><trkpt lat="42.06327600659981" lon="13.019120617048378"><ele>607.5</ele><time>2026-05-01T15:35:11.998Z</time></trkpt><trkpt lat="42.06317945070456" lon="13.018719351912333"><ele>607.0</ele><time>2026-05-01T15:35:12.998Z</time></trkpt><trkpt lat="42.063074987959794" lon="13.018322008541343"><ele>609.5</ele><time>2026-05-01T15:35:13.998Z</time></trkpt><trkpt lat="42.06296427030147" lon="13.017927410655997"><ele>612.0</ele><time>2026-05-01T15:35:14.998Z</time></trkpt><trkpt lat="42.06284799035063" lon="13.017535133255517"><ele>609.5</ele><time>2026-05-01T15:35:15.998Z</time></trkpt><trkpt lat="42.062721673036876" lon="13.017148285601888"><ele>607.0</ele><time>2026-05-01T15:35:16.998Z</time></trkpt><trkpt lat="42.06258424267487" lon="13.016768759327647"><ele>605.5</ele><time>2026-05-01T15:35:17.998Z</time></trkpt><trkpt lat="42.06243480235005" lon="13.016398559478537"><ele>604.0</ele><time>2026-05-01T15:35:18.998Z</time></trkpt><trkpt lat="42.062276570022725" lon="13.016033533430877"><ele>606.0</ele><time>2026-05-01T15:35:19.998Z</time></trkpt><trkpt lat="42.062107128158026" lon="13.015677814746212"><ele>608.0</ele><time>2026-05-01T15:35:21Z</time></trkpt><trkpt lat="42.06192799235934" lon="13.015333831864028"><ele>608.0</ele><time>2026-05-01T15:35:22Z</time></trkpt><trkpt lat="42.06173624625372" lon="13.015003598889637"><ele>608.0</ele><time>2026-05-01T15:35:23Z</time></trkpt><trkpt lat="42.06153163486622" lon="13.014689273726475"><ele>606.5</ele><time>2026-05-01T15:35:24Z</time></trkpt><trkpt lat="42.06131666416613" lon="13.014388678666343"><ele>605.0</ele><time>2026-05-01T15:35:25Z</time></trkpt><trkpt lat="42.06109392237879" lon="13.014099431815465"><ele>604.0</ele><time>2026-05-01T15:35:26Z</time></trkpt><trkpt lat="42.06086207655175" lon="13.01382420343397"><ele>603.0</ele><time>2026-05-01T15:35:27Z</time></trkpt><trkpt lat="42.06062367800222" lon="13.013563147321966"><ele>608.0</ele><time>2026-05-01T15:35:28Z</time></trkpt><trkpt lat="42.06037756841194" lon="13.013313486458504"><ele>613.0</ele><time>2026-05-01T15:35:29Z</time></trkpt><trkpt lat="42.06012340598889" lon="13.01308478728955"><ele>609.0</ele><time>2026-05-01T15:35:30Z</time></trkpt><trkpt lat="42.05986197000601" lon="13.01287067184947"><ele>605.0</ele><time>2026-05-01T15:35:31Z</time></trkpt><trkpt lat="42.059587870697555" lon="13.012685219078259"><ele>605.0</ele><time>2026-05-01T15:35:32Z</time></trkpt><trkpt lat="42.05931360249716" lon="13.0125086870587"><ele>605.0</ele><time>2026-05-01T15:35:33Z</time></trkpt><trkpt lat="42.05903280342414" lon="13.01234543682077"><ele>596.5</ele><time>2026-05-01T15:35:34Z</time></trkpt><trkpt lat="42.058751348656" lon="13.0121912440927"><ele>588.0</ele><time>2026-05-01T15:35:35Z</time></trkpt><trkpt lat="42.058462145256094" lon="13.01206249367633"><ele>586.0</ele><time>2026-05-01T15:35:36Z</time></trkpt><trkpt lat="42.058171624032845" lon="13.011951016618312"><ele>584.0</ele><time>2026-05-01T15:35:37Z</time></trkpt><trkpt lat="42.05787881868637" lon="13.01186316768046"><ele>584.0</ele><time>2026-05-01T15:35:38Z</time></trkpt><trkpt lat="42.057586112432624" lon="13.011788362542026"><ele>584.0</ele><time>2026-05-01T15:35:39Z</time></trkpt><trkpt lat="42.05728962227498" lon="13.011728872719441"><ele>590.5</ele><time>2026-05-01T15:35:40Z</time></trkpt><trkpt lat="42.05699159603344" lon="13.011692095420289"><ele>597.0</ele><time>2026-05-01T15:35:41Z</time></trkpt><trkpt lat="42.056694306835105" lon="13.011677360693946"><ele>603.0</ele><time>2026-05-01T15:35:42Z</time></trkpt><trkpt lat="42.05639786712083" lon="13.011682430757993"><ele>609.0</ele><time>2026-05-01T15:35:43Z</time></trkpt><trkpt lat="42.05610456781179" lon="13.011697299077348"><ele>609.0</ele><time>2026-05-01T15:35:44Z</time></trkpt><trkpt lat="42.05581026939245" lon="13.011731387565607"><ele>609.0</ele><time>2026-05-01T15:35:45Z</time></trkpt><trkpt lat="42.055518570044725" lon="13.011774879487868"><ele>612.5</ele><time>2026-05-01T15:35:46Z</time></trkpt><trkpt lat="42.0552253261342" lon="13.011827753140619"><ele>616.0</ele><time>2026-05-01T15:35:47Z</time></trkpt><trkpt lat="42.054931483440065" lon="13.01188245259319"><ele>624.0</ele><time>2026-05-01T15:35:48Z</time></trkpt><trkpt lat="42.0546375468093" lon="13.01193536667752"><ele>632.0</ele><time>2026-05-01T15:35:49Z</time></trkpt><trkpt lat="42.054342906343976" lon="13.011991618534093"><ele>635.5</ele><time>2026-05-01T15:35:50Z</time></trkpt><trkpt lat="42.05404733368652" lon="13.012054152291423"><ele>639.0</ele><time>2026-05-01T15:35:51Z</time></trkpt><trkpt lat="42.05375035704498" lon="13.012107815443754"><ele>639.0</ele><time>2026-05-01T15:35:52Z</time></trkpt><trkpt lat="42.05345513535398" lon="13.01213996046266"><ele>639.0</ele><time>2026-05-01T15:35:53Z</time></trkpt><trkpt lat="42.05315943454891" lon="13.012166255956684"><ele>640.0</ele><time>2026-05-01T15:35:54Z</time></trkpt><trkpt lat="42.05285926559319" lon="13.012180722383983"><ele>641.0</ele><time>2026-05-01T15:35:55Z</time></trkpt><trkpt lat="42.05256275689185" lon="13.01218097977777"><ele>637.0</ele><time>2026-05-01T15:35:56Z</time></trkpt><trkpt lat="42.05226673904116" lon="13.012165590430735"><ele>633.0</ele><time>2026-05-01T15:35:57Z</time></trkpt><trkpt lat="42.05196935970539" lon="13.01213177947279"><ele>633.0</ele><time>2026-05-01T15:35:58Z</time></trkpt><trkpt lat="42.05167355493708" lon="13.012079988017392"><ele>633.0</ele><time>2026-05-01T15:35:59Z</time></trkpt><trkpt lat="42.05137701495562" lon="13.012011674928663"><ele>626.0</ele><time>2026-05-01T15:36:00Z</time></trkpt><trkpt lat="42.05107846305512" lon="13.011933241708244"><ele>619.0</ele><time>2026-05-01T15:36:01Z</time></trkpt><trkpt lat="42.05078574158801" lon="13.011847327843359"><ele>615.0</ele><time>2026-05-01T15:36:02Z</time></trkpt><trkpt lat="42.05049353461385" lon="13.011745386011585"><ele>611.0</ele><time>2026-05-01T15:36:03Z</time></trkpt><trkpt lat="42.05020365265669" lon="13.01162974399243"><ele>621.0</ele><time>2026-05-01T15:36:04Z</time></trkpt><trkpt lat="42.0499127691902" lon="13.011507383560366"><ele>631.0</ele><time>2026-05-01T15:36:05Z</time></trkpt><trkpt lat="42.04962174154975" lon="13.011384996487646"><ele>631.0</ele><time>2026-05-01T15:36:06Z</time></trkpt><trkpt lat="42.049327429631916" lon="13.011266554661642"><ele>631.0</ele><time>2026-05-01T15:36:07Z</time></trkpt><trkpt lat="42.049028668468914" lon="13.011157188107429"><ele>623.5</ele><time>2026-05-01T15:36:08Z</time></trkpt><trkpt lat="42.04872777214536" lon="13.011054687755664"><ele>616.0</ele><time>2026-05-01T15:36:09Z</time></trkpt><trkpt lat="42.048422352971706" lon="13.010970479909922"><ele>610.5</ele><time>2026-05-01T15:36:10Z</time></trkpt><trkpt lat="42.048114885624216" lon="13.010903543058912"><ele>605.0</ele><time>2026-05-01T15:36:11Z</time></trkpt><trkpt lat="42.04780567929819" lon="13.01085204657653"><ele>619.5</ele><time>2026-05-01T15:36:11.999Z</time></trkpt><trkpt lat="42.047492767509766" lon="13.010819331984697"><ele>634.0</ele><time>2026-05-01T15:36:12.999Z</time></trkpt><trkpt lat="42.047177264542874" lon="13.010805978254632"><ele>636.0</ele><time>2026-05-01T15:36:13.999Z</time></trkpt><trkpt lat="42.04686065026711" lon="13.010812737607123"><ele>638.0</ele><time>2026-05-01T15:36:14.999Z</time></trkpt><trkpt lat="42.046544752027515" lon="13.010841198102845"><ele>621.0</ele><time>2026-05-01T15:36:15.999Z</time></trkpt><trkpt lat="42.046228961323244" lon="13.010898894432199"><ele>604.0</ele><time>2026-05-01T15:36:16.999Z</time></trkpt><trkpt lat="42.0459147387529" lon="13.010975401578865"><ele>611.0</ele><time>2026-05-01T15:36:17.999Z</time></trkpt><trkpt lat="42.045605080214564" lon="13.011076226567228"><ele>618.0</ele><time>2026-05-01T15:36:18.999Z</time></trkpt><trkpt lat="42.04530196862895" lon="13.011196191303041"><ele>618.0</ele><time>2026-05-01T15:36:19.999Z</time></trkpt><trkpt lat="42.04500186439146" lon="13.011330045048553"><ele>618.0</ele><time>2026-05-01T15:36:20.999Z</time></trkpt><trkpt lat="42.04470333139167" lon="13.011474992015286"><ele>615.5</ele><time>2026-05-01T15:36:21.999Z</time></trkpt><trkpt lat="42.0444063261397" lon="13.011628857604643"><ele>613.0</ele><time>2026-05-01T15:36:22.999Z</time></trkpt><trkpt lat="42.04411083820192" lon="13.011791249276799"><ele>605.0</ele><time>2026-05-01T15:36:23.999Z</time></trkpt><trkpt lat="42.04381373379363" lon="13.011954692221888"><ele>597.0</ele><time>2026-05-01T15:36:24.999Z</time></trkpt><trkpt lat="42.043516148022135" lon="13.012110633315833"><ele>601.0</ele><time>2026-05-01T15:36:25.999Z</time></trkpt><trkpt lat="42.0432156654673" lon="13.012247202780141"><ele>605.0</ele><time>2026-05-01T15:36:26.999Z</time></trkpt><trkpt lat="42.04290634946091" lon="13.012355047847143"><ele>605.0</ele><time>2026-05-01T15:36:27.999Z</time></trkpt><trkpt lat="42.04258574465544" lon="13.012444048309355"><ele>605.0</ele><time>2026-05-01T15:36:28.999Z</time></trkpt><trkpt lat="42.0422701047067" lon="13.012506535011463"><ele>589.0</ele><time>2026-05-01T15:36:29.999Z</time></trkpt><trkpt lat="42.04195300036872" lon="13.012555552306674"><ele>573.0</ele><time>2026-05-01T15:36:30.999Z</time></trkpt><trkpt lat="42.04163242917057" lon="13.01257714873612"><ele>573.5</ele><time>2026-05-01T15:36:31.999Z</time></trkpt><trkpt lat="42.04131203394378" lon="13.012572858706626"><ele>574.0</ele><time>2026-05-01T15:36:32.999Z</time></trkpt><trkpt lat="42.04099342295467" lon="13.01254437988386"><ele>581.5</ele><time>2026-05-01T15:36:33.999Z</time></trkpt><trkpt lat="42.04067765278623" lon="13.01248946435655"><ele>589.0</ele><time>2026-05-01T15:36:34.999Z</time></trkpt><trkpt lat="42.04036656032521" lon="13.012415627047"><ele>589.0</ele><time>2026-05-01T15:36:35.999Z</time></trkpt><trkpt lat="42.04005546292601" lon="13.012329452762007"><ele>589.0</ele><time>2026-05-01T15:36:36.999Z</time></trkpt><trkpt lat="42.03974479978503" lon="13.012222608646066"><ele>583.0</ele><time>2026-05-01T15:36:37.999Z</time></trkpt><trkpt lat="42.03943839670385" lon="13.012095410303843"><ele>577.0</ele><time>2026-05-01T15:36:38.999Z</time></trkpt><trkpt lat="42.03913491997484" lon="13.011945176239934"><ele>575.0</ele><time>2026-05-01T15:36:39.999Z</time></trkpt><trkpt lat="42.038842464214014" lon="13.011771681495617"><ele>573.0</ele><time>2026-05-01T15:36:40.999Z</time></trkpt><trkpt lat="42.03855836888067" lon="13.011580299003082"><ele>562.5</ele><time>2026-05-01T15:36:41.999Z</time></trkpt><trkpt lat="42.03827933575037" lon="13.011376048659901"><ele>552.0</ele><time>2026-05-01T15:36:42.999Z</time></trkpt><trkpt lat="42.0380107159001" lon="13.011156248131652"><ele>552.0</ele><time>2026-05-01T15:36:43.999Z</time></trkpt><trkpt lat="42.03774630904019" lon="13.010926793323966"><ele>552.0</ele><time>2026-05-01T15:36:44.999Z</time></trkpt><trkpt lat="42.037485101649224" lon="13.010692999810683"><ele>551.0</ele><time>2026-05-01T15:36:45.999Z</time></trkpt><trkpt lat="42.03721895768664" lon="13.01046395414767"><ele>550.0</ele><time>2026-05-01T15:36:46.999Z</time></trkpt><trkpt lat="42.036956095604005" lon="13.010233945187236"><ele>550.0</ele><time>2026-05-01T15:36:47.999Z</time></trkpt><trkpt lat="42.03669225607298" lon="13.010002980326822"><ele>550.0</ele><time>2026-05-01T15:36:48.999Z</time></trkpt><trkpt lat="42.0364295803347" lon="13.009773022780033"><ele>551.5</ele><time>2026-05-01T15:36:49.999Z</time></trkpt><trkpt lat="42.03616401395483" lon="13.009542579131587"><ele>553.0</ele><time>2026-05-01T15:36:50.999Z</time></trkpt><trkpt lat="42.03590077178552" lon="13.009311536824178"><ele>560.0</ele><time>2026-05-01T15:36:51.999Z</time></trkpt><trkpt lat="42.03564058801237" lon="13.009081903664928"><ele>567.0</ele><time>2026-05-01T15:36:52.999Z</time></trkpt><trkpt lat="42.035383147221424" lon="13.00885275620572"><ele>567.0</ele><time>2026-05-01T15:36:53.999Z</time></trkpt><trkpt lat="42.03512597584364" lon="13.008623708852586"><ele>567.0</ele><time>2026-05-01T15:36:54.999Z</time></trkpt><trkpt lat="42.03486992297733" lon="13.0083980262696"><ele>571.5</ele><time>2026-05-01T15:36:55.999Z</time></trkpt><trkpt lat="42.03461391771312" lon="13.008172753156954"><ele>576.0</ele><time>2026-05-01T15:36:56.999Z</time></trkpt><trkpt lat="42.03435970706205" lon="13.007946977152876"><ele>577.0</ele><time>2026-05-01T15:36:57.999Z</time></trkpt><trkpt lat="42.03410645660548" lon="13.007717161177364"><ele>578.0</ele><time>2026-05-01T15:36:58.999Z</time></trkpt><trkpt lat="42.03385368092842" lon="13.00748258853593"><ele>578.0</ele><time>2026-05-01T15:36:59.999Z</time></trkpt><trkpt lat="42.03360283890098" lon="13.00724727105249"><ele>578.0</ele><time>2026-05-01T15:37:00.999Z</time></trkpt><trkpt lat="42.03335493795207" lon="13.007006889129245"><ele>576.5</ele><time>2026-05-01T15:37:01.999Z</time></trkpt><trkpt lat="42.03310728652152" lon="13.006764632669114"><ele>575.0</ele><time>2026-05-01T15:37:02.999Z</time></trkpt><trkpt lat="42.03285970912743" lon="13.006520972359331"><ele>575.0</ele><time>2026-05-01T15:37:03.999Z</time></trkpt><trkpt lat="42.032616526767306" lon="13.006276102016269"><ele>575.0</ele><time>2026-05-01T15:37:04.999Z</time></trkpt><trkpt lat="42.032374274459016" lon="13.006028663381503"><ele>581.5</ele><time>2026-05-01T15:37:05.999Z</time></trkpt><trkpt lat="42.032132689984415" lon="13.005779456003179"><ele>588.0</ele><time>2026-05-01T15:37:06.999Z</time></trkpt><trkpt lat="42.03189272929169" lon="13.005527856827186"><ele>588.0</ele><time>2026-05-01T15:37:07.999Z</time></trkpt><trkpt lat="42.03165686934321" lon="13.005273420147127"><ele>588.0</ele><time>2026-05-01T15:37:08.999Z</time></trkpt><trkpt lat="42.031424816386675" lon="13.005017546998685"><ele>602.5</ele><time>2026-05-01T15:37:09.998Z</time></trkpt><trkpt lat="42.03119082650731" lon="13.004757279936474"><ele>617.0</ele><time>2026-05-01T15:37:10.998Z</time></trkpt><trkpt lat="42.030958027661214" lon="13.004494223748654"><ele>624.0</ele><time>2026-05-01T15:37:11.998Z</time></trkpt><trkpt lat="42.03072776025558" lon="13.004228304410304"><ele>631.0</ele><time>2026-05-01T15:37:12.998Z</time></trkpt><trkpt lat="42.03050358504458" lon="13.00395559467039"><ele>650.0</ele><time>2026-05-01T15:37:13.998Z</time></trkpt><trkpt lat="42.03026566010275" lon="13.003661085095377"><ele>669.0</ele><time>2026-05-01T15:37:15.07Z</time></trkpt><trkpt lat="42.03004990660882" lon="13.003378425166892"><ele>679.5</ele><time>2026-05-01T15:37:16.065Z</time></trkpt><trkpt lat="42.02983387318359" lon="13.003096168086628"><ele>690.0</ele><time>2026-05-01T15:37:17.066Z</time></trkpt><trkpt lat="42.0296253489703" lon="13.002810248046213"><ele>690.0</ele><time>2026-05-01T15:37:18.064Z</time></trkpt><trkpt lat="42.02942049355346" lon="13.002529175442211"><ele>690.0</ele><time>2026-05-01T15:37:19.061Z</time></trkpt><trkpt lat="42.02922725071864" lon="13.002238778508186"><ele>671.5</ele><time>2026-05-01T15:37:20.058Z</time></trkpt><trkpt lat="42.02903976405269" lon="13.001960660114158"><ele>653.0</ele><time>2026-05-01T15:37:21.031Z</time></trkpt><trkpt lat="42.02769863550202" lon="12.998038146165825"><ele>551.0</ele><time>2026-05-01T15:37:33.825Z</time></trkpt><trkpt lat="42.02757716682771" lon="12.996687310733423"><ele>549.0</ele><time>2026-05-01T15:37:34.998Z</time></trkpt><trkpt lat="42.02758361275832" lon="12.99627781045247"><ele>547.0</ele><time>2026-05-01T15:37:35.998Z</time></trkpt><trkpt lat="42.027625590266254" lon="12.995848338268825"><ele>544.0</ele><time>2026-05-01T15:37:36.998Z</time></trkpt><trkpt lat="42.027664668844" lon="12.995420868495007"><ele>541.0</ele><time>2026-05-01T15:37:37.998Z</time></trkpt><trkpt lat="42.02772305446981" lon="12.995030484310709"><ele>534.0</ele><time>2026-05-01T15:37:38.998Z</time></trkpt><trkpt lat="42.02779196708298" lon="12.994624324512213"><ele>527.0</ele><time>2026-05-01T15:37:39.998Z</time></trkpt><trkpt lat="42.027880680680894" lon="12.994201797227776"><ele>521.5</ele><time>2026-05-01T15:37:41Z</time></trkpt><trkpt lat="42.02799262323377" lon="12.993778422562166"><ele>516.0</ele><time>2026-05-01T15:37:42Z</time></trkpt><trkpt lat="42.02809950733799" lon="12.993383039037116"><ele>513.0</ele><time>2026-05-01T15:37:43Z</time></trkpt><trkpt lat="42.02820606584219" lon="12.99298173782849"><ele>510.0</ele><time>2026-05-01T15:37:44Z</time></trkpt><trkpt lat="42.02831835334152" lon="12.992584842121396"><ele>521.5</ele><time>2026-05-01T15:37:45Z</time></trkpt><trkpt lat="42.02844319267787" lon="12.992187905311804"><ele>533.0</ele><time>2026-05-01T15:37:46Z</time></trkpt><trkpt lat="42.028574426601246" lon="12.991798731533779"><ele>526.5</ele><time>2026-05-01T15:37:47Z</time></trkpt><trkpt lat="42.02871827415803" lon="12.99141654289547"><ele>520.0</ele><time>2026-05-01T15:37:48Z</time></trkpt><trkpt lat="42.02886201078669" lon="12.991028781039983"><ele>512.5</ele><time>2026-05-01T15:37:49Z</time></trkpt><trkpt lat="42.02901149410829" lon="12.990649426684106"><ele>505.0</ele><time>2026-05-01T15:37:50Z</time></trkpt><trkpt lat="42.02916600918732" lon="12.990267663237589"><ele>514.0</ele><time>2026-05-01T15:37:51Z</time></trkpt><trkpt lat="42.02932597185016" lon="12.989892251537231"><ele>523.0</ele><time>2026-05-01T15:37:52Z</time></trkpt><trkpt lat="42.02948816437405" lon="12.989530060978153"><ele>516.0</ele><time>2026-05-01T15:37:53Z</time></trkpt><trkpt lat="42.02964923619109" lon="12.989166936984402"><ele>509.0</ele><time>2026-05-01T15:37:54Z</time></trkpt><trkpt lat="42.029804108005536" lon="12.988845903414678"><ele>509.0</ele><time>2026-05-01T15:37:55Z</time></trkpt><trkpt lat="42.029960821477076" lon="12.988484865522521"><ele>509.0</ele><time>2026-05-01T15:37:56Z</time></trkpt><trkpt lat="42.03012356309781" lon="12.988126900160443"><ele>511.0</ele><time>2026-05-01T15:37:57Z</time></trkpt><trkpt lat="42.030289832583385" lon="12.987777332281906"><ele>513.0</ele><time>2026-05-01T15:37:58Z</time></trkpt><trkpt lat="42.030475862216036" lon="12.987433444991298"><ele>506.0</ele><time>2026-05-01T15:37:59Z</time></trkpt><trkpt lat="42.03064096468724" lon="12.987085409838073"><ele>499.0</ele><time>2026-05-01T15:38:00Z</time></trkpt><trkpt lat="42.030809403119214" lon="12.986737391173477"><ele>506.0</ele><time>2026-05-01T15:38:01Z</time></trkpt><trkpt lat="42.03096893666594" lon="12.986385229817529"><ele>513.0</ele><time>2026-05-01T15:38:02Z</time></trkpt><trkpt lat="42.03113121228616" lon="12.986036960674276"><ele>506.0</ele><time>2026-05-01T15:38:03Z</time></trkpt><trkpt lat="42.03129859159825" lon="12.98569043314014"><ele>499.0</ele><time>2026-05-01T15:38:04Z</time></trkpt><trkpt lat="42.031465622631565" lon="12.985344148618061"><ele>491.5</ele><time>2026-05-01T15:38:05Z</time></trkpt><trkpt lat="42.03162959523174" lon="12.984993442839075"><ele>484.0</ele><time>2026-05-01T15:38:06Z</time></trkpt><trkpt lat="42.03179135354897" lon="12.984637425801711"><ele>491.5</ele><time>2026-05-01T15:38:07Z</time></trkpt><trkpt lat="42.031959332667135" lon="12.984291014433634"><ele>499.0</ele><time>2026-05-01T15:38:08Z</time></trkpt><trkpt lat="42.03212887489751" lon="12.98394064052529"><ele>499.0</ele><time>2026-05-01T15:38:09Z</time></trkpt><trkpt lat="42.03229600240024" lon="12.983580139143752"><ele>499.0</ele><time>2026-05-01T15:38:10Z</time></trkpt><trkpt lat="42.03246858033389" lon="12.983219438009627"><ele>497.0</ele><time>2026-05-01T15:38:11Z</time></trkpt><trkpt lat="42.032642709582134" lon="12.982857023253095"><ele>495.0</ele><time>2026-05-01T15:38:12Z</time></trkpt><trkpt lat="42.03281446579892" lon="12.982495903667338"><ele>495.0</ele><time>2026-05-01T15:38:13Z</time></trkpt><trkpt lat="42.03299116847613" lon="12.982135158313962"><ele>495.0</ele><time>2026-05-01T15:38:14Z</time></trkpt><trkpt lat="42.033166495591075" lon="12.981778281308028"><ele>499.0</ele><time>2026-05-01T15:38:15Z</time></trkpt><trkpt lat="42.033349997094646" lon="12.981422071195478"><ele>503.0</ele><time>2026-05-01T15:38:16Z</time></trkpt><trkpt lat="42.03353115055068" lon="12.98106973154638"><ele>496.0</ele><time>2026-05-01T15:38:17Z</time></trkpt><trkpt lat="42.03370779073778" lon="12.980718162906498"><ele>489.0</ele><time>2026-05-01T15:38:18Z</time></trkpt><trkpt lat="42.033870855130225" lon="12.9803505689035"><ele>490.5</ele><time>2026-05-01T15:38:19Z</time></trkpt><trkpt lat="42.03402824991152" lon="12.979984811758209"><ele>492.0</ele><time>2026-05-01T15:38:20Z</time></trkpt><trkpt lat="42.03418889243114" lon="12.979623420445272"><ele>492.0</ele><time>2026-05-01T15:38:21Z</time></trkpt><trkpt lat="42.03434486235145" lon="12.979264782564186"><ele>492.0</ele><time>2026-05-01T15:38:22Z</time></trkpt><trkpt lat="42.03449005117093" lon="12.97890022362979"><ele>476.5</ele><time>2026-05-01T15:38:23Z</time></trkpt><trkpt lat="42.03462979557175" lon="12.978527250479889"><ele>461.0</ele><time>2026-05-01T15:38:24Z</time></trkpt><trkpt lat="42.03476426028519" lon="12.9781520006407"><ele>442.0</ele><time>2026-05-01T15:38:25Z</time></trkpt><trkpt lat="42.03489610425173" lon="12.977779013509089"><ele>423.0</ele><time>2026-05-01T15:38:26Z</time></trkpt><trkpt lat="42.03501913168263" lon="12.977400451512938"><ele>411.0</ele><time>2026-05-01T15:38:27Z</time></trkpt><trkpt lat="42.03513134437452" lon="12.97701621712225"><ele>399.0</ele><time>2026-05-01T15:38:28Z</time></trkpt><trkpt lat="42.03523725375833" lon="12.976622678775026"><ele>398.5</ele><time>2026-05-01T15:38:29Z</time></trkpt><trkpt lat="42.035340342854084" lon="12.976230083681624"><ele>398.0</ele><time>2026-05-01T15:38:30Z</time></trkpt><trkpt lat="42.035441622519905" lon="12.975836250493426"><ele>417.0</ele><time>2026-05-01T15:38:30.999Z</time></trkpt><trkpt lat="42.03554235951682" lon="12.97544561825461"><ele>436.0</ele><time>2026-05-01T15:38:31.999Z</time></trkpt><trkpt lat="42.03563980912926" lon="12.975049920559224"><ele>442.5</ele><time>2026-05-01T15:38:32.999Z</time></trkpt><trkpt lat="42.035732154358485" lon="12.974644867851904"><ele>449.0</ele><time>2026-05-01T15:38:33.999Z</time></trkpt><trkpt lat="42.03581654651124" lon="12.974233185207806"><ele>457.5</ele><time>2026-05-01T15:38:34.999Z</time></trkpt><trkpt lat="42.03589848299981" lon="12.973820541832431"><ele>466.0</ele><time>2026-05-01T15:38:35.999Z</time></trkpt><trkpt lat="42.03598194923358" lon="12.973408995353326"><ele>464.0</ele><time>2026-05-01T15:38:36.999Z</time></trkpt><trkpt lat="42.0360670384085" lon="12.9729929938292"><ele>462.0</ele><time>2026-05-01T15:38:37.999Z</time></trkpt><trkpt lat="42.036149512998335" lon="12.972573445028175"><ele>456.5</ele><time>2026-05-01T15:38:38.999Z</time></trkpt><trkpt lat="42.03623281827459" lon="12.972153623511767"><ele>451.0</ele><time>2026-05-01T15:38:39.999Z</time></trkpt><trkpt lat="42.03631597782754" lon="12.971734186681289"><ele>442.5</ele><time>2026-05-01T15:38:40.999Z</time></trkpt><trkpt lat="42.03639936187242" lon="12.971315454972672"><ele>434.0</ele><time>2026-05-01T15:38:41.999Z</time></trkpt><trkpt lat="42.03648727259799" lon="12.970900479685161"><ele>441.5</ele><time>2026-05-01T15:38:42.999Z</time></trkpt><trkpt lat="42.03657913622168" lon="12.970488034325882"><ele>449.0</ele><time>2026-05-01T15:38:43.999Z</time></trkpt><trkpt lat="42.03667701417046" lon="12.970075575143753"><ele>451.0</ele><time>2026-05-01T15:38:44.999Z</time></trkpt><trkpt lat="42.03677494088652" lon="12.9696644503763"><ele>453.0</ele><time>2026-05-01T15:38:45.999Z</time></trkpt><trkpt lat="42.03687613072231" lon="12.969255528046041"><ele>452.5</ele><time>2026-05-01T15:38:46.999Z</time></trkpt><trkpt lat="42.03698105108247" lon="12.968846597461964"><ele>452.0</ele><time>2026-05-01T15:38:47.999Z</time></trkpt><trkpt lat="42.03709009120329" lon="12.968444245165559"><ele>447.5</ele><time>2026-05-01T15:38:48.999Z</time></trkpt><trkpt lat="42.03720699232815" lon="12.968046963346447"><ele>443.0</ele><time>2026-05-01T15:38:49.999Z</time></trkpt><trkpt lat="42.03733000434663" lon="12.967646430946935"><ele>445.0</ele><time>2026-05-01T15:38:50.999Z</time></trkpt><trkpt lat="42.03745574729827" lon="12.967249733857562"><ele>447.0</ele><time>2026-05-01T15:38:51.999Z</time></trkpt><trkpt lat="42.03758470646645" lon="12.966852320637287"><ele>440.0</ele><time>2026-05-01T15:38:52.999Z</time></trkpt><trkpt lat="42.03772182742845" lon="12.966463457882972"><ele>433.0</ele><time>2026-05-01T15:38:53.999Z</time></trkpt><trkpt lat="42.03786625571393" lon="12.966077970301857"><ele>425.5</ele><time>2026-05-01T15:38:54.999Z</time></trkpt><trkpt lat="42.038019877974556" lon="12.965699647566133"><ele>418.0</ele><time>2026-05-01T15:38:55.999Z</time></trkpt><trkpt lat="42.03818624217082" lon="12.965328851891215"><ele>427.0</ele><time>2026-05-01T15:38:56.999Z</time></trkpt><trkpt lat="42.038361500702756" lon="12.964968806517911"><ele>436.0</ele><time>2026-05-01T15:38:57.999Z</time></trkpt><trkpt lat="42.03855036709951" lon="12.964616603335521"><ele>436.0</ele><time>2026-05-01T15:38:58.999Z</time></trkpt><trkpt lat="42.03874243479745" lon="12.96426914859131"><ele>436.0</ele><time>2026-05-01T15:38:59.999Z</time></trkpt><trkpt lat="42.03892702366779" lon="12.96391666193648"><ele>430.5</ele><time>2026-05-01T15:39:00.999Z</time></trkpt><trkpt lat="42.03910639711747" lon="12.963557018827538"><ele>425.0</ele><time>2026-05-01T15:39:01.999Z</time></trkpt><trkpt lat="42.03928241726436" lon="12.963203155228186"><ele>425.0</ele><time>2026-05-01T15:39:02.999Z</time></trkpt><trkpt lat="42.03946073922948" lon="12.96284595209832"><ele>425.0</ele><time>2026-05-01T15:39:03.999Z</time></trkpt><trkpt lat="42.03963592639574" lon="12.962486877697184"><ele>416.5</ele><time>2026-05-01T15:39:04.999Z</time></trkpt><trkpt lat="42.039798920271956" lon="12.962116935724124"><ele>408.0</ele><time>2026-05-01T15:39:05.999Z</time></trkpt><trkpt lat="42.039947688589265" lon="12.961734127628416"><ele>417.5</ele><time>2026-05-01T15:39:06.999Z</time></trkpt><trkpt lat="42.04007715575103" lon="12.961341923932045"><ele>427.0</ele><time>2026-05-01T15:39:07.999Z</time></trkpt><trkpt lat="42.04020280223737" lon="12.960950599784237"><ele>421.5</ele><time>2026-05-01T15:39:08.999Z</time></trkpt><trkpt lat="42.0403213830497" lon="12.960557334194288"><ele>416.0</ele><time>2026-05-01T15:39:09.999Z</time></trkpt><trkpt lat="42.04043491595347" lon="12.960161318654611"><ele>411.5</ele><time>2026-05-01T15:39:10.999Z</time></trkpt><trkpt lat="42.04053643215129" lon="12.959762338411025"><ele>407.0</ele><time>2026-05-01T15:39:11.999Z</time></trkpt><trkpt lat="42.04062242546717" lon="12.959356831212254"><ele>400.0</ele><time>2026-05-01T15:39:12.999Z</time></trkpt><trkpt lat="42.04067665804949" lon="12.958946275248032"><ele>393.0</ele><time>2026-05-01T15:39:13.999Z</time></trkpt><trkpt lat="42.04070424170111" lon="12.95852606408938"><ele>389.0</ele><time>2026-05-01T15:39:14.999Z</time></trkpt><trkpt lat="42.04070884102859" lon="12.958107670866713"><ele>385.0</ele><time>2026-05-01T15:39:15.999Z</time></trkpt><trkpt lat="42.04069169991242" lon="12.957687704040412"><ele>386.5</ele><time>2026-05-01T15:39:16.999Z</time></trkpt><trkpt lat="42.04065650572928" lon="12.957271630963486"><ele>388.0</ele><time>2026-05-01T15:39:17.999Z</time></trkpt><trkpt lat="42.04060256799584" lon="12.956856155262077"><ele>393.5</ele><time>2026-05-01T15:39:18.999Z</time></trkpt><trkpt lat="42.040530363946374" lon="12.956441401648862"><ele>399.0</ele><time>2026-05-01T15:39:19.999Z</time></trkpt><trkpt lat="42.040444276641594" lon="12.956032435557914"><ele>402.5</ele><time>2026-05-01T15:39:20.999Z</time></trkpt><trkpt lat="42.0403403153758" lon="12.955628767487205"><ele>406.0</ele><time>2026-05-01T15:39:21.999Z</time></trkpt><trkpt lat="42.04021818712272" lon="12.95523379478506"><ele>407.0</ele><time>2026-05-01T15:39:22.999Z</time></trkpt><trkpt lat="42.04008234854689" lon="12.954844024853886"><ele>408.0</ele><time>2026-05-01T15:39:23.999Z</time></trkpt><trkpt lat="42.03993692210948" lon="12.954459642912584"><ele>388.0</ele><time>2026-05-01T15:39:24.999Z</time></trkpt><trkpt lat="42.039786229541505" lon="12.954076152490112"><ele>368.0</ele><time>2026-05-01T15:39:25.999Z</time></trkpt><trkpt lat="42.039633020758096" lon="12.953694868499714"><ele>355.5</ele><time>2026-05-01T15:39:26.999Z</time></trkpt><trkpt lat="42.03948390166123" lon="12.953312435374302"><ele>343.0</ele><time>2026-05-01T15:39:27.998Z</time></trkpt><trkpt lat="42.039339728207466" lon="12.952926291933474"><ele>343.0</ele><time>2026-05-01T15:39:28.998Z</time></trkpt><trkpt lat="42.039195999592074" lon="12.952543486756502"><ele>343.0</ele><time>2026-05-01T15:39:29.998Z</time></trkpt><trkpt lat="42.03905328907678" lon="12.952161207741257"><ele>336.0</ele><time>2026-05-01T15:39:30.998Z</time></trkpt><trkpt lat="42.03890567989308" lon="12.9517828353965"><ele>329.0</ele><time>2026-05-01T15:39:31.998Z</time></trkpt><trkpt lat="42.03875672769897" lon="12.951399167549948"><ele>329.0</ele><time>2026-05-01T15:39:32.998Z</time></trkpt><trkpt lat="42.038609039218464" lon="12.9510157452666"><ele>329.0</ele><time>2026-05-01T15:39:33.998Z</time></trkpt><trkpt lat="42.038463141011505" lon="12.950629343240275"><ele>342.5</ele><time>2026-05-01T15:39:34.998Z</time></trkpt><trkpt lat="42.0383172300292" lon="12.95024227559594"><ele>356.0</ele><time>2026-05-01T15:39:35.998Z</time></trkpt><trkpt lat="42.038168852234456" lon="12.949855220065498"><ele>363.0</ele><time>2026-05-01T15:39:36.998Z</time></trkpt><trkpt lat="42.03801974288206" lon="12.949467761855603"><ele>370.0</ele><time>2026-05-01T15:39:37.998Z</time></trkpt><trkpt lat="42.037870972224276" lon="12.949081020317221"><ele>384.0</ele><time>2026-05-01T15:39:38.998Z</time></trkpt><trkpt lat="42.03772581615021" lon="12.948687752851198"><ele>398.0</ele><time>2026-05-01T15:39:39.998Z</time></trkpt><trkpt lat="42.03758687816028" lon="12.94829475860405"><ele>397.5</ele><time>2026-05-01T15:39:40.998Z</time></trkpt><trkpt lat="42.03746030028278" lon="12.947892558528087"><ele>397.0</ele><time>2026-05-01T15:39:41.998Z</time></trkpt><trkpt lat="42.037346635781546" lon="12.947483640495483"><ele>397.0</ele><time>2026-05-01T15:39:42.998Z</time></trkpt><trkpt lat="42.037247482098365" lon="12.947066989607286"><ele>397.0</ele><time>2026-05-01T15:39:43.998Z</time></trkpt><trkpt lat="42.03716491548839" lon="12.946647249236866"><ele>391.0</ele><time>2026-05-01T15:39:44.998Z</time></trkpt><trkpt lat="42.03709948432565" lon="12.946220852444002"><ele>385.0</ele><time>2026-05-01T15:39:46Z</time></trkpt><trkpt lat="42.03705479092614" lon="12.94579073884443"><ele>376.0</ele><time>2026-05-01T15:39:47Z</time></trkpt><trkpt lat="42.03700770480844" lon="12.9453648207813"><ele>367.0</ele><time>2026-05-01T15:39:48Z</time></trkpt><trkpt lat="42.036961575650196" lon="12.944940016022326"><ele>366.0</ele><time>2026-05-01T15:39:49Z</time></trkpt><trkpt lat="42.036912521434445" lon="12.944520415459996"><ele>365.0</ele><time>2026-05-01T15:39:50Z</time></trkpt><trkpt lat="42.036865444822205" lon="12.944094239731035"><ele>365.0</ele><time>2026-05-01T15:39:51Z</time></trkpt><trkpt lat="42.03681859123787" lon="12.943668640013161"><ele>365.0</ele><time>2026-05-01T15:39:52Z</time></trkpt><trkpt lat="42.03677192783663" lon="12.943243944423132"><ele>371.5</ele><time>2026-05-01T15:39:53Z</time></trkpt><trkpt lat="42.036724694162885" lon="12.94281795331041"><ele>378.0</ele><time>2026-05-01T15:39:54Z</time></trkpt><trkpt lat="42.036675606509135" lon="12.942392927686841"><ele>379.5</ele><time>2026-05-01T15:39:55Z</time></trkpt><trkpt lat="42.03662745889524" lon="12.941969138529382"><ele>381.0</ele><time>2026-05-01T15:39:56Z</time></trkpt><trkpt lat="42.03658087716548" lon="12.941543831901857"><ele>376.5</ele><time>2026-05-01T15:39:57Z</time></trkpt><trkpt lat="42.03653196583719" lon="12.941116649229556"><ele>372.0</ele><time>2026-05-01T15:39:58Z</time></trkpt><trkpt lat="42.03648319520342" lon="12.940688742247488"><ele>372.5</ele><time>2026-05-01T15:39:59Z</time></trkpt><trkpt lat="42.036435344127874" lon="12.940260032251762"><ele>373.0</ele><time>2026-05-01T15:40:00Z</time></trkpt><trkpt lat="42.036387422408794" lon="12.939833905653444"><ele>373.0</ele><time>2026-05-01T15:40:01Z</time></trkpt><trkpt lat="42.03633773089674" lon="12.93940562897496"><ele>373.0</ele><time>2026-05-01T15:40:02Z</time></trkpt><trkpt lat="42.036285024625016" lon="12.938980339782114"><ele>376.5</ele><time>2026-05-01T15:40:03Z</time></trkpt><trkpt lat="42.03622843673142" lon="12.938554817844953"><ele>380.0</ele><time>2026-05-01T15:40:04Z</time></trkpt><trkpt lat="42.03616801432334" lon="12.938133717814376"><ele>381.5</ele><time>2026-05-01T15:40:05Z</time></trkpt><trkpt lat="42.036098163745045" lon="12.937710384758487"><ele>383.0</ele><time>2026-05-01T15:40:06Z</time></trkpt><trkpt lat="42.03602096354605" lon="12.93728999957354"><ele>383.0</ele><time>2026-05-01T15:40:07Z</time></trkpt><trkpt lat="42.03593446755322" lon="12.936873760014194"><ele>383.0</ele><time>2026-05-01T15:40:08Z</time></trkpt><trkpt lat="42.03583589404597" lon="12.936464876962212"><ele>369.0</ele><time>2026-05-01T15:40:09Z</time></trkpt><trkpt lat="42.03572563793259" lon="12.936059843037356"><ele>355.0</ele><time>2026-05-01T15:40:10Z</time></trkpt><trkpt lat="42.035608235669685" lon="12.935657706249426"><ele>354.0</ele><time>2026-05-01T15:40:11Z</time></trkpt><trkpt lat="42.03548096902602" lon="12.935264636336072"><ele>353.0</ele><time>2026-05-01T15:40:12Z</time></trkpt><trkpt lat="42.035345955644175" lon="12.934876594436416"><ele>352.0</ele><time>2026-05-01T15:40:13Z</time></trkpt><trkpt lat="42.035194844126224" lon="12.93449630059015"><ele>351.0</ele><time>2026-05-01T15:40:14Z</time></trkpt><trkpt lat="42.03502681172297" lon="12.934131996360003"><ele>344.0</ele><time>2026-05-01T15:40:15Z</time></trkpt><trkpt lat="42.03484506383743" lon="12.933778970807099"><ele>337.0</ele><time>2026-05-01T15:40:16Z</time></trkpt><trkpt lat="42.03465091966643" lon="12.933439870005992"><ele>340.5</ele><time>2026-05-01T15:40:17Z</time></trkpt><trkpt lat="42.03444192317613" lon="12.933117359944239"><ele>344.0</ele><time>2026-05-01T15:40:18Z</time></trkpt><trkpt lat="42.034220415358995" lon="12.932814129484742"><ele>344.5</ele><time>2026-05-01T15:40:19Z</time></trkpt><trkpt lat="42.0339842836526" lon="12.932536483712907"><ele>345.0</ele><time>2026-05-01T15:40:20Z</time></trkpt><trkpt lat="42.03373618196383" lon="12.932286629035291"><ele>345.0</ele><time>2026-05-01T15:40:21Z</time></trkpt><trkpt lat="42.033476364347045" lon="12.932061316219134"><ele>345.0</ele><time>2026-05-01T15:40:22Z</time></trkpt><trkpt lat="42.033203350066366" lon="12.93186208185039"><ele>352.0</ele><time>2026-05-01T15:40:23Z</time></trkpt><trkpt lat="42.03292782416405" lon="12.931679442932314"><ele>359.0</ele><time>2026-05-01T15:40:24Z</time></trkpt><trkpt lat="42.03264801843854" lon="12.93150731179706"><ele>359.5</ele><time>2026-05-01T15:40:25Z</time></trkpt><trkpt lat="42.0323585210988" lon="12.931352900467456"><ele>360.0</ele><time>2026-05-01T15:40:26Z</time></trkpt><trkpt lat="42.03206922368998" lon="12.931218159441944"><ele>360.0</ele><time>2026-05-01T15:40:27Z</time></trkpt><trkpt lat="42.03177460741883" lon="12.931096649773838"><ele>360.0</ele><time>2026-05-01T15:40:28Z</time></trkpt><trkpt lat="42.03147774511143" lon="12.930986901466394"><ele>365.0</ele><time>2026-05-01T15:40:29Z</time></trkpt><trkpt lat="42.03117941552782" lon="12.9308860776371"><ele>370.0</ele><time>2026-05-01T15:40:30Z</time></trkpt><trkpt lat="42.03088201440888" lon="12.930793407815838"><ele>370.0</ele><time>2026-05-01T15:40:31Z</time></trkpt><trkpt lat="42.03058425564927" lon="12.930702620340641"><ele>370.0</ele><time>2026-05-01T15:40:32Z</time></trkpt><trkpt lat="42.030282026682805" lon="12.930613266447809"><ele>370.0</ele><time>2026-05-01T15:40:33Z</time></trkpt><trkpt lat="42.029979373488445" lon="12.930521107245855"><ele>370.0</ele><time>2026-05-01T15:40:34Z</time></trkpt><trkpt lat="42.02967617733192" lon="12.930425780378206"><ele>369.0</ele><time>2026-05-01T15:40:35Z</time></trkpt><trkpt lat="42.029372636667965" lon="12.930329868928979"><ele>368.0</ele><time>2026-05-01T15:40:35.999Z</time></trkpt><trkpt lat="42.02907168848037" lon="12.930223817334392"><ele>366.5</ele><time>2026-05-01T15:40:36.999Z</time></trkpt><trkpt lat="42.02877027639619" lon="12.930115153473201"><ele>365.0</ele><time>2026-05-01T15:40:37.999Z</time></trkpt><trkpt lat="42.028470617862226" lon="12.93000051988851"><ele>362.0</ele><time>2026-05-01T15:40:38.999Z</time></trkpt><trkpt lat="42.02817141548322" lon="12.929880567650446"><ele>359.0</ele><time>2026-05-01T15:40:39.999Z</time></trkpt><trkpt lat="42.02787307768581" lon="12.92975459385948"><ele>359.0</ele><time>2026-05-01T15:40:40.999Z</time></trkpt><trkpt lat="42.02757714572587" lon="12.929615150794938"><ele>359.0</ele><time>2026-05-01T15:40:41.999Z</time></trkpt><trkpt lat="42.02728717299122" lon="12.929460847691512"><ele>358.0</ele><time>2026-05-01T15:40:42.999Z</time></trkpt><trkpt lat="42.02700183865044" lon="12.929291464285056"><ele>357.0</ele><time>2026-05-01T15:40:43.999Z</time></trkpt><trkpt lat="42.02671871586999" lon="12.929114638305647"><ele>355.5</ele><time>2026-05-01T15:40:44.999Z</time></trkpt><trkpt lat="42.02643551765313" lon="12.928937971828097"><ele>354.0</ele><time>2026-05-01T15:40:45.999Z</time></trkpt><trkpt lat="42.02615111335218" lon="12.92876190741528"><ele>354.0</ele><time>2026-05-01T15:40:46.999Z</time></trkpt><trkpt lat="42.025868253446355" lon="12.928576935496293"><ele>354.0</ele><time>2026-05-01T15:40:47.999Z</time></trkpt><trkpt lat="42.02558907250295" lon="12.928377232599074"><ele>351.0</ele><time>2026-05-01T15:40:48.999Z</time></trkpt><trkpt lat="42.025312988882774" lon="12.928168023217593"><ele>348.0</ele><time>2026-05-01T15:40:49.999Z</time></trkpt><trkpt lat="42.025043950332346" lon="12.927943472936969"><ele>346.0</ele><time>2026-05-01T15:40:50.999Z</time></trkpt><trkpt lat="42.02478041956769" lon="12.92770481146489"><ele>344.0</ele><time>2026-05-01T15:40:51.999Z</time></trkpt><trkpt lat="42.0245211112936" lon="12.927457414725778"><ele>344.0</ele><time>2026-05-01T15:40:52.999Z</time></trkpt><trkpt lat="42.02426608480724" lon="12.92720139797364"><ele>344.0</ele><time>2026-05-01T15:40:53.999Z</time></trkpt><trkpt lat="42.02401762930717" lon="12.9269309786915"><ele>343.5</ele><time>2026-05-01T15:40:54.999Z</time></trkpt><trkpt lat="42.02377767761952" lon="12.926649945679184"><ele>343.0</ele><time>2026-05-01T15:40:55.999Z</time></trkpt><trkpt lat="42.02354121941854" lon="12.926358960825345"><ele>337.0</ele><time>2026-05-01T15:40:56.999Z</time></trkpt><trkpt lat="42.02330956263083" lon="12.926063321375393"><ele>331.0</ele><time>2026-05-01T15:40:57.999Z</time></trkpt><trkpt lat="42.02308575404049" lon="12.92575916704847"><ele>331.0</ele><time>2026-05-01T15:40:58.999Z</time></trkpt><trkpt lat="42.02286671297566" lon="12.925446896010365"><ele>331.0</ele><time>2026-05-01T15:40:59.999Z</time></trkpt><trkpt lat="42.0226541910664" lon="12.92512975792874"><ele>328.5</ele><time>2026-05-01T15:41:00.999Z</time></trkpt><trkpt lat="42.02244339472948" lon="12.924812031012902"><ele>326.0</ele><time>2026-05-01T15:41:01.999Z</time></trkpt><trkpt lat="42.02223787709062" lon="12.924489478138982"><ele>329.5</ele><time>2026-05-01T15:41:02.999Z</time></trkpt><trkpt lat="42.02204039479965" lon="12.924158419515013"><ele>333.0</ele><time>2026-05-01T15:41:03.999Z</time></trkpt><trkpt lat="42.02185236687122" lon="12.923820483807347"><ele>333.0</ele><time>2026-05-01T15:41:04.999Z</time></trkpt><trkpt lat="42.02166892959375" lon="12.923477386649264"><ele>333.0</ele><time>2026-05-01T15:41:05.999Z</time></trkpt><trkpt lat="42.02149362774608" lon="12.92312833634175"><ele>332.0</ele><time>2026-05-01T15:41:06.999Z</time></trkpt><trkpt lat="42.021322845085486" lon="12.922775537169306"><ele>331.0</ele><time>2026-05-01T15:41:07.999Z</time></trkpt><trkpt lat="42.02116296741096" lon="12.922414502449412"><ele>331.0</ele><time>2026-05-01T15:41:08.999Z</time></trkpt><trkpt lat="42.021005439311736" lon="12.922056128313944"><ele>331.0</ele><time>2026-05-01T15:41:09.999Z</time></trkpt><trkpt lat="42.02085033592559" lon="12.921693068899053"><ele>325.0</ele><time>2026-05-01T15:41:10.999Z</time></trkpt><trkpt lat="42.02069835257207" lon="12.921329148952811"><ele>319.0</ele><time>2026-05-01T15:41:11.999Z</time></trkpt><trkpt lat="42.02054860975143" lon="12.920963384780919"><ele>316.0</ele><time>2026-05-01T15:41:12.999Z</time></trkpt><trkpt lat="42.02040569332006" lon="12.920597346209835"><ele>313.0</ele><time>2026-05-01T15:41:13.999Z</time></trkpt><trkpt lat="42.02026854422503" lon="12.920228380398168"><ele>310.0</ele><time>2026-05-01T15:41:14.999Z</time></trkpt><trkpt lat="42.02013745937989" lon="12.91986087776462"><ele>307.0</ele><time>2026-05-01T15:41:15.999Z</time></trkpt><trkpt lat="42.02000959954177" lon="12.919491857099196"><ele>314.5</ele><time>2026-05-01T15:41:16.999Z</time></trkpt><trkpt lat="42.01988067264568" lon="12.919124357641238"><ele>322.0</ele><time>2026-05-01T15:41:17.999Z</time></trkpt><trkpt lat="42.019755730899156" lon="12.918752594358017"><ele>322.5</ele><time>2026-05-01T15:41:18.999Z</time></trkpt><trkpt lat="42.01963416791604" lon="12.918378017033655"><ele>323.0</ele><time>2026-05-01T15:41:19.999Z</time></trkpt><trkpt lat="42.01951154664003" lon="12.91800396839047"><ele>323.0</ele><time>2026-05-01T15:41:20.999Z</time></trkpt><trkpt lat="42.019390209414425" lon="12.917625041033604"><ele>323.0</ele><time>2026-05-01T15:41:21.999Z</time></trkpt><trkpt lat="42.01926825621546" lon="12.91724707300181"><ele>324.0</ele><time>2026-05-01T15:41:22.999Z</time></trkpt><trkpt lat="42.01914487185056" lon="12.91687004605675"><ele>325.0</ele><time>2026-05-01T15:41:23.999Z</time></trkpt><trkpt lat="42.01902373721529" lon="12.916493245858845"><ele>326.5</ele><time>2026-05-01T15:41:24.999Z</time></trkpt><trkpt lat="42.0189045387108" lon="12.916111991794137"><ele>328.0</ele><time>2026-05-01T15:41:25.999Z</time></trkpt><trkpt lat="42.01878506356859" lon="12.915733538481375"><ele>329.0</ele><time>2026-05-01T15:41:26.999Z</time></trkpt><trkpt lat="42.018665133401015" lon="12.915354984049763"><ele>330.0</ele><time>2026-05-01T15:41:27.999Z</time></trkpt><trkpt lat="42.01854177043917" lon="12.914976069403156"><ele>331.0</ele><time>2026-05-01T15:41:28.999Z</time></trkpt><trkpt lat="42.0184175083203" lon="12.914598882779796"><ele>332.0</ele><time>2026-05-01T15:41:29.999Z</time></trkpt><trkpt lat="42.01829244976663" lon="12.91422159258251"><ele>335.0</ele><time>2026-05-01T15:41:30.999Z</time></trkpt><trkpt lat="42.018165351322246" lon="12.913846244184867"><ele>338.0</ele><time>2026-05-01T15:41:31.999Z</time></trkpt><trkpt lat="42.01803862849984" lon="12.913473783125074"><ele>334.5</ele><time>2026-05-01T15:41:32.998Z</time></trkpt><trkpt lat="42.01791356701858" lon="12.913102304222688"><ele>331.0</ele><time>2026-05-01T15:41:33.998Z</time></trkpt><trkpt lat="42.01779266610935" lon="12.912728232942746"><ele>327.5</ele><time>2026-05-01T15:41:34.998Z</time></trkpt><trkpt lat="42.01767428632488" lon="12.912351532046412"><ele>324.0</ele><time>2026-05-01T15:41:35.998Z</time></trkpt><trkpt lat="42.01755868532032" lon="12.911974849121533"><ele>328.0</ele><time>2026-05-01T15:41:36.998Z</time></trkpt><trkpt lat="42.01744108159998" lon="12.911601222967505"><ele>332.0</ele><time>2026-05-01T15:41:37.998Z</time></trkpt><trkpt lat="42.01732244154803" lon="12.9112259574657"><ele>331.5</ele><time>2026-05-01T15:41:38.998Z</time></trkpt><trkpt lat="42.01720544273837" lon="12.910852643261663"><ele>331.0</ele><time>2026-05-01T15:41:39.998Z</time></trkpt><trkpt lat="42.017087373934594" lon="12.910481464213921"><ele>331.0</ele><time>2026-05-01T15:41:40.998Z</time></trkpt><trkpt lat="42.01696506238586" lon="12.910112353272435"><ele>331.0</ele><time>2026-05-01T15:41:41.998Z</time></trkpt><trkpt lat="42.016831489817164" lon="12.90974543567414"><ele>330.0</ele><time>2026-05-01T15:41:42.998Z</time></trkpt><trkpt lat="42.01668989195292" lon="12.909388323966786"><ele>329.0</ele><time>2026-05-01T15:41:43.998Z</time></trkpt><trkpt lat="42.016535349435486" lon="12.909040489635633"><ele>325.5</ele><time>2026-05-01T15:41:44.998Z</time></trkpt><trkpt lat="42.01637072673968" lon="12.90870242031814"><ele>322.0</ele><time>2026-05-01T15:41:45.998Z</time></trkpt><trkpt lat="42.01619766704711" lon="12.90836953572589"><ele>312.0</ele><time>2026-05-01T15:41:46.998Z</time></trkpt><trkpt lat="42.01602253707349" lon="12.908038365977902"><ele>302.0</ele><time>2026-05-01T15:41:47.998Z</time></trkpt><trkpt lat="42.0158489444018" lon="12.907709093460987"><ele>313.5</ele><time>2026-05-01T15:41:48.998Z</time></trkpt><trkpt lat="42.015670690539935" lon="12.907382686196721"><ele>325.0</ele><time>2026-05-01T15:41:49.998Z</time></trkpt><trkpt lat="42.01549159930177" lon="12.907052223587714"><ele>327.0</ele><time>2026-05-01T15:41:50.998Z</time></trkpt><trkpt lat="42.01531883436133" lon="12.906725505244538"><ele>329.0</ele><time>2026-05-01T15:41:52Z</time></trkpt><trkpt lat="42.015146266371" lon="12.906401755549542"><ele>358.0</ele><time>2026-05-01T15:41:53Z</time></trkpt><trkpt lat="42.01497225731564" lon="12.906082693068644"><ele>387.0</ele><time>2026-05-01T15:41:54Z</time></trkpt><trkpt lat="42.01479698581703" lon="12.905758828610548"><ele>391.0</ele><time>2026-05-01T15:41:55Z</time></trkpt><trkpt lat="42.014625905890405" lon="12.905429318483948"><ele>395.0</ele><time>2026-05-01T15:41:56Z</time></trkpt><trkpt lat="42.01446211217759" lon="12.90508930636696"><ele>392.5</ele><time>2026-05-01T15:41:57Z</time></trkpt><trkpt lat="42.01430848698648" lon="12.904734618653446"><ele>390.0</ele><time>2026-05-01T15:41:58Z</time></trkpt><trkpt lat="42.01416608096786" lon="12.904366762823168"><ele>393.0</ele><time>2026-05-01T15:41:59Z</time></trkpt><trkpt lat="42.014028922895676" lon="12.903992407946347"><ele>396.0</ele><time>2026-05-01T15:42:00Z</time></trkpt><trkpt lat="42.01389848686266" lon="12.903608537316023"><ele>389.0</ele><time>2026-05-01T15:42:01Z</time></trkpt><trkpt lat="42.01376629538509" lon="12.903191266275007"><ele>382.0</ele><time>2026-05-01T15:42:02.059Z</time></trkpt><trkpt lat="42.01364703639531" lon="12.902793633785508"><ele>387.0</ele><time>2026-05-01T15:42:03.059Z</time></trkpt><trkpt lat="42.013561568396476" lon="12.902389746823191"><ele>392.0</ele><time>2026-05-01T15:42:04.057Z</time></trkpt><trkpt lat="42.01347964655105" lon="12.901981252364722"><ele>341.0</ele><time>2026-05-01T15:42:05.059Z</time></trkpt><trkpt lat="42.012990936049746" lon="12.898073824053819"><ele>340.0</ele><time>2026-05-01T15:42:15Z</time></trkpt><trkpt lat="42.01278435682778" lon="12.897503513430893"><ele>340.0</ele><time>2026-05-01T15:42:16Z</time></trkpt><trkpt lat="42.01270835604487" lon="12.897138028628808"><ele>340.0</ele><time>2026-05-01T15:42:17Z</time></trkpt><trkpt lat="42.0126389436891" lon="12.896756884267308"><ele>334.0</ele><time>2026-05-01T15:42:18Z</time></trkpt><trkpt lat="42.012552354996444" lon="12.896383899025395"><ele>328.0</ele><time>2026-05-01T15:42:19Z</time></trkpt><trkpt lat="42.012459285115774" lon="12.89600238514189"><ele>337.5</ele><time>2026-05-01T15:42:20Z</time></trkpt><trkpt lat="42.012371320043535" lon="12.895605839627232"><ele>347.0</ele><time>2026-05-01T15:42:21Z</time></trkpt><trkpt lat="42.012239483947674" lon="12.895234319016263"><ele>340.5</ele><time>2026-05-01T15:42:22Z</time></trkpt><trkpt lat="42.01210494299159" lon="12.894870417536518"><ele>334.0</ele><time>2026-05-01T15:42:23Z</time></trkpt><trkpt lat="42.01196865690268" lon="12.894505539422964"><ele>327.0</ele><time>2026-05-01T15:42:24Z</time></trkpt><trkpt lat="42.011823752450965" lon="12.894142034053841"><ele>320.0</ele><time>2026-05-01T15:42:25Z</time></trkpt><trkpt lat="42.01167380663747" lon="12.893785493130453"><ele>326.5</ele><time>2026-05-01T15:42:26Z</time></trkpt><trkpt lat="42.01151327797293" lon="12.893436038953755"><ele>333.0</ele><time>2026-05-01T15:42:27Z</time></trkpt><trkpt lat="42.01134027381083" lon="12.89309446427535"><ele>333.0</ele><time>2026-05-01T15:42:28Z</time></trkpt><trkpt lat="42.0111579240017" lon="12.892764533721854"><ele>333.0</ele><time>2026-05-01T15:42:29Z</time></trkpt><trkpt lat="42.01097156460542" lon="12.8924435057005"><ele>335.0</ele><time>2026-05-01T15:42:30Z</time></trkpt><trkpt lat="42.01078241721101" lon="12.892127977453708"><ele>337.0</ele><time>2026-05-01T15:42:31Z</time></trkpt><trkpt lat="42.010585288477145" lon="12.891828338012175"><ele>328.0</ele><time>2026-05-01T15:42:32Z</time></trkpt><trkpt lat="42.01038046371152" lon="12.891538599099942"><ele>319.0</ele><time>2026-05-01T15:42:33Z</time></trkpt><trkpt lat="42.01016632480504" lon="12.891257425965469"><ele>323.5</ele><time>2026-05-01T15:42:34Z</time></trkpt><trkpt lat="42.009951540732196" lon="12.890983565285605"><ele>328.0</ele><time>2026-05-01T15:42:35Z</time></trkpt><trkpt lat="42.00973288718068" lon="12.890722284534816"><ele>328.0</ele><time>2026-05-01T15:42:36Z</time></trkpt><trkpt lat="42.0095086360083" lon="12.8904742870885"><ele>328.0</ele><time>2026-05-01T15:42:37Z</time></trkpt><trkpt lat="42.00928289950956" lon="12.89024280834451"><ele>332.5</ele><time>2026-05-01T15:42:38Z</time></trkpt><trkpt lat="42.00905017262731" lon="12.890029474951788"><ele>337.0</ele><time>2026-05-01T15:42:39Z</time></trkpt><trkpt lat="42.00881996730531" lon="12.889817797677408"><ele>337.0</ele><time>2026-05-01T15:42:39.999Z</time></trkpt><trkpt lat="42.00858801921893" lon="12.889611438243444"><ele>337.0</ele><time>2026-05-01T15:42:40.999Z</time></trkpt><trkpt lat="42.008356136030045" lon="12.889412832056841"><ele>331.0</ele><time>2026-05-01T15:42:41.999Z</time></trkpt><trkpt lat="42.008117671793336" lon="12.889220259114087"><ele>325.0</ele><time>2026-05-01T15:42:42.999Z</time></trkpt><trkpt lat="42.007880492844095" lon="12.889026238208878"><ele>325.0</ele><time>2026-05-01T15:42:43.999Z</time></trkpt><trkpt lat="42.00764854557224" lon="12.888839184516042"><ele>325.0</ele><time>2026-05-01T15:42:44.999Z</time></trkpt><trkpt lat="42.00741761235409" lon="12.888651587140188"><ele>324.0</ele><time>2026-05-01T15:42:45.999Z</time></trkpt><trkpt lat="42.00718251008695" lon="12.888460814364631"><ele>323.0</ele><time>2026-05-01T15:42:46.999Z</time></trkpt><trkpt lat="42.00694514825564" lon="12.888278272105866"><ele>321.5</ele><time>2026-05-01T15:42:47.999Z</time></trkpt><trkpt lat="42.00671236809771" lon="12.888086597787263"><ele>320.0</ele><time>2026-05-01T15:42:48.999Z</time></trkpt><trkpt lat="42.006476902920944" lon="12.887898766925929"><ele>320.0</ele><time>2026-05-01T15:42:49.999Z</time></trkpt><trkpt lat="42.00624163015386" lon="12.887707570300345"><ele>320.0</ele><time>2026-05-01T15:42:50.999Z</time></trkpt><trkpt lat="42.00600605257254" lon="12.887521006612108"><ele>316.5</ele><time>2026-05-01T15:42:51.999Z</time></trkpt><trkpt lat="42.00576236985858" lon="12.887334849052484"><ele>313.0</ele><time>2026-05-01T15:42:52.999Z</time></trkpt><trkpt lat="42.005521055852306" lon="12.887143971641287"><ele>313.0</ele><time>2026-05-01T15:42:53.999Z</time></trkpt><trkpt lat="42.00527959294218" lon="12.886947737794214"><ele>313.0</ele><time>2026-05-01T15:42:54.999Z</time></trkpt><trkpt lat="42.00503580883231" lon="12.886756365340867"><ele>313.5</ele><time>2026-05-01T15:42:55.999Z</time></trkpt><trkpt lat="42.0047941793489" lon="12.886562760490365"><ele>314.0</ele><time>2026-05-01T15:42:56.999Z</time></trkpt><trkpt lat="42.00454964586481" lon="12.88636793972378"><ele>314.0</ele><time>2026-05-01T15:42:57.999Z</time></trkpt><trkpt lat="42.004305056502155" lon="12.886172960215019"><ele>314.0</ele><time>2026-05-01T15:42:58.999Z</time></trkpt><trkpt lat="42.00405833816845" lon="12.88597901579183"><ele>323.5</ele><time>2026-05-01T15:42:59.999Z</time></trkpt><trkpt lat="42.00381304327031" lon="12.885785280809664"><ele>333.0</ele><time>2026-05-01T15:43:00.999Z</time></trkpt><trkpt lat="42.003564864968375" lon="12.885590816509463"><ele>337.5</ele><time>2026-05-01T15:43:01.999Z</time></trkpt><trkpt lat="42.00331674552474" lon="12.885392395932378"><ele>342.0</ele><time>2026-05-01T15:43:02.999Z</time></trkpt><trkpt lat="42.00306687314801" lon="12.885195564972113"><ele>338.5</ele><time>2026-05-01T15:43:03.999Z</time></trkpt><trkpt lat="42.00281727693594" lon="12.88500039581073"><ele>335.0</ele><time>2026-05-01T15:43:04.999Z</time></trkpt><trkpt lat="42.00256891593328" lon="12.884803487450142"><ele>341.0</ele><time>2026-05-01T15:43:05.999Z</time></trkpt><trkpt lat="42.002320713331116" lon="12.884605410941836"><ele>347.0</ele><time>2026-05-01T15:43:06.999Z</time></trkpt><trkpt lat="42.002072136742" lon="12.884407692161542"><ele>343.5</ele><time>2026-05-01T15:43:07.999Z</time></trkpt><trkpt lat="42.0018222979342" lon="12.884208501876204"><ele>340.0</ele><time>2026-05-01T15:43:08.999Z</time></trkpt><trkpt lat="42.00157166988146" lon="12.884007317641863"><ele>340.0</ele><time>2026-05-01T15:43:09.999Z</time></trkpt><trkpt lat="42.00132163662115" lon="12.88380243096676"><ele>340.0</ele><time>2026-05-01T15:43:10.999Z</time></trkpt><trkpt lat="42.001070332168496" lon="12.88359632742714"><ele>340.5</ele><time>2026-05-01T15:43:11.999Z</time></trkpt><trkpt lat="42.000817182294334" lon="12.883392777156917"><ele>341.0</ele><time>2026-05-01T15:43:12.999Z</time></trkpt><trkpt lat="42.00056287985502" lon="12.883189699621385"><ele>341.0</ele><time>2026-05-01T15:43:13.999Z</time></trkpt><trkpt lat="42.00030796708563" lon="12.882986328606874"><ele>341.0</ele><time>2026-05-01T15:43:14.999Z</time></trkpt><trkpt lat="42.00005206840646" lon="12.882784379630822"><ele>335.5</ele><time>2026-05-01T15:43:15.999Z</time></trkpt><trkpt lat="41.99979435545593" lon="12.88258686763765"><ele>330.0</ele><time>2026-05-01T15:43:16.999Z</time></trkpt><trkpt lat="41.99953231678118" lon="12.882394021984355"><ele>330.0</ele><time>2026-05-01T15:43:17.999Z</time></trkpt><trkpt lat="41.99926598744651" lon="12.882208721547414"><ele>330.0</ele><time>2026-05-01T15:43:18.999Z</time></trkpt><trkpt lat="41.99899438263303" lon="12.882031532205916"><ele>329.5</ele><time>2026-05-01T15:43:19.999Z</time></trkpt><trkpt lat="41.998718086323386" lon="12.881868196892508"><ele>329.0</ele><time>2026-05-01T15:43:20.999Z</time></trkpt><trkpt lat="41.998434156924226" lon="12.88171952019255"><ele>329.5</ele><time>2026-05-01T15:43:21.999Z</time></trkpt><trkpt lat="41.99814623083029" lon="12.881584015849912"><ele>330.0</ele><time>2026-05-01T15:43:22.999Z</time></trkpt><trkpt lat="41.99785739137061" lon="12.88146463089474"><ele>330.0</ele><time>2026-05-01T15:43:23.999Z</time></trkpt><trkpt lat="41.99756512358497" lon="12.881361664754944"><ele>330.0</ele><time>2026-05-01T15:43:24.999Z</time></trkpt><trkpt lat="41.997271621037314" lon="12.881278820417968"><ele>336.0</ele><time>2026-05-01T15:43:25.999Z</time></trkpt><trkpt lat="41.99697276195992" lon="12.881214584217517"><ele>342.0</ele><time>2026-05-01T15:43:26.999Z</time></trkpt><trkpt lat="41.99667269368507" lon="12.88116159113925"><ele>344.5</ele><time>2026-05-01T15:43:27.999Z</time></trkpt><trkpt lat="41.99637281912748" lon="12.881112383315473"><ele>347.0</ele><time>2026-05-01T15:43:28.999Z</time></trkpt><trkpt lat="41.99607401369632" lon="12.88106582370095"><ele>346.0</ele><time>2026-05-01T15:43:29.999Z</time></trkpt><trkpt lat="41.99577416905797" lon="12.881015420013503"><ele>345.0</ele><time>2026-05-01T15:43:30.999Z</time></trkpt><trkpt lat="41.995471599829806" lon="12.880963652803667"><ele>336.5</ele><time>2026-05-01T15:43:31.999Z</time></trkpt><trkpt lat="41.99516410007998" lon="12.880917830584096"><ele>328.0</ele><time>2026-05-01T15:43:32.999Z</time></trkpt><trkpt lat="41.99486010007438" lon="12.880872619523263"><ele>328.0</ele><time>2026-05-01T15:43:33.999Z</time></trkpt><trkpt lat="41.994553905419096" lon="12.8808231036218"><ele>328.0</ele><time>2026-05-01T15:43:34.999Z</time></trkpt><trkpt lat="41.99424878368419" lon="12.880776002658106"><ele>330.5</ele><time>2026-05-01T15:43:35.998Z</time></trkpt><trkpt lat="41.99394499102196" lon="12.880730668130235"><ele>333.0</ele><time>2026-05-01T15:43:36.998Z</time></trkpt><trkpt lat="41.993643149818084" lon="12.880683909025407"><ele>333.0</ele><time>2026-05-01T15:43:37.998Z</time></trkpt><trkpt lat="41.99334132773214" lon="12.880637450568905"><ele>333.0</ele><time>2026-05-01T15:43:38.998Z</time></trkpt><trkpt lat="41.99303878319308" lon="12.880590464244138"><ele>336.0</ele><time>2026-05-01T15:43:39.998Z</time></trkpt><trkpt lat="41.99273591442676" lon="12.880543320548986"><ele>339.0</ele><time>2026-05-01T15:43:40.998Z</time></trkpt><trkpt lat="41.9924331968855" lon="12.880496268940709"><ele>332.0</ele><time>2026-05-01T15:43:41.998Z</time></trkpt><trkpt lat="41.992129508513194" lon="12.880449304167845"><ele>325.0</ele><time>2026-05-01T15:43:42.998Z</time></trkpt><trkpt lat="41.991826789885366" lon="12.88040226577552"><ele>322.0</ele><time>2026-05-01T15:43:43.998Z</time></trkpt><trkpt lat="41.99152382645513" lon="12.88035378411748"><ele>319.0</ele><time>2026-05-01T15:43:44.998Z</time></trkpt><trkpt lat="41.991221927020916" lon="12.880304834992973"><ele>319.0</ele><time>2026-05-01T15:43:45.998Z</time></trkpt><trkpt lat="41.99092052665491" lon="12.880257160559967"><ele>319.0</ele><time>2026-05-01T15:43:46.998Z</time></trkpt><trkpt lat="41.99061880585274" lon="12.880209311326883"><ele>329.5</ele><time>2026-05-01T15:43:47.998Z</time></trkpt><trkpt lat="41.990314179943745" lon="12.880164317153621"><ele>340.0</ele><time>2026-05-01T15:43:48.998Z</time></trkpt><trkpt lat="41.99000882023984" lon="12.880119899682203"><ele>338.5</ele><time>2026-05-01T15:43:49.998Z</time></trkpt><trkpt lat="41.98970224679575" lon="12.880073605323908"><ele>337.0</ele><time>2026-05-01T15:43:50.998Z</time></trkpt><trkpt lat="41.98939661293179" lon="12.88002779993765"><ele>336.5</ele><time>2026-05-01T15:43:51.998Z</time></trkpt><trkpt lat="41.98909119204061" lon="12.879981388436846"><ele>336.0</ele><time>2026-05-01T15:43:52.998Z</time></trkpt><trkpt lat="41.988787163369395" lon="12.879934506162122"><ele>336.0</ele><time>2026-05-01T15:43:53.998Z</time></trkpt><trkpt lat="41.988481902424674" lon="12.879886605730208"><ele>336.0</ele><time>2026-05-01T15:43:54.998Z</time></trkpt><trkpt lat="41.98817815150464" lon="12.879839339661334"><ele>337.0</ele><time>2026-05-01T15:43:55.998Z</time></trkpt><trkpt lat="41.98787440868546" lon="12.879791041313654"><ele>338.0</ele><time>2026-05-01T15:43:56.998Z</time></trkpt><trkpt lat="41.98757008586026" lon="12.879742247094633"><ele>339.5</ele><time>2026-05-01T15:43:58Z</time></trkpt><trkpt lat="41.98726585359431" lon="12.879695295023554"><ele>341.0</ele><time>2026-05-01T15:43:59Z</time></trkpt><trkpt lat="41.98696076569487" lon="12.879648042859138"><ele>334.0</ele><time>2026-05-01T15:44:00Z</time></trkpt><trkpt lat="41.98665501496342" lon="12.879600611584372"><ele>327.0</ele><time>2026-05-01T15:44:01Z</time></trkpt><trkpt lat="41.98634855467217" lon="12.879553420938988"><ele>327.0</ele><time>2026-05-01T15:44:02Z</time></trkpt><trkpt lat="41.986042494039545" lon="12.879505008768684"><ele>327.0</ele><time>2026-05-01T15:44:03Z</time></trkpt><trkpt lat="41.98573771507175" lon="12.879455012554459"><ele>320.0</ele><time>2026-05-01T15:44:04Z</time></trkpt><trkpt lat="41.98543264104505" lon="12.879406119449879"><ele>313.0</ele><time>2026-05-01T15:44:05Z</time></trkpt><trkpt lat="41.985128214728775" lon="12.879354992564142"><ele>314.0</ele><time>2026-05-01T15:44:06Z</time></trkpt><trkpt lat="41.98482445009777" lon="12.879306249448808"><ele>315.0</ele><time>2026-05-01T15:44:07Z</time></trkpt><trkpt lat="41.984520413081164" lon="12.879258106895652"><ele>315.0</ele><time>2026-05-01T15:44:08Z</time></trkpt><trkpt lat="41.984214676855885" lon="12.879213294457161"><ele>315.0</ele><time>2026-05-01T15:44:09Z</time></trkpt><trkpt lat="41.98390826652726" lon="12.879167150187435"><ele>326.5</ele><time>2026-05-01T15:44:10Z</time></trkpt><trkpt lat="41.98360245547477" lon="12.87912143716898"><ele>338.0</ele><time>2026-05-01T15:44:11Z</time></trkpt><trkpt lat="41.98329561184466" lon="12.879076164081535"><ele>339.5</ele><time>2026-05-01T15:44:12Z</time></trkpt><trkpt lat="41.982990421320075" lon="12.879031602441916"><ele>341.0</ele><time>2026-05-01T15:44:13Z</time></trkpt><trkpt lat="41.98268734753291" lon="12.878985177878858"><ele>335.5</ele><time>2026-05-01T15:44:14Z</time></trkpt><trkpt lat="41.982383202806055" lon="12.87893792628433"><ele>330.0</ele><time>2026-05-01T15:44:15Z</time></trkpt><trkpt lat="41.982079185249596" lon="12.878890611446483"><ele>330.0</ele><time>2026-05-01T15:44:16Z</time></trkpt><trkpt lat="41.98177648370678" lon="12.878843098000159"><ele>330.0</ele><time>2026-05-01T15:44:17Z</time></trkpt><trkpt lat="41.98147327321604" lon="12.878794646504135"><ele>323.0</ele><time>2026-05-01T15:44:18Z</time></trkpt><trkpt lat="41.98117041860015" lon="12.878744393846157"><ele>316.0</ele><time>2026-05-01T15:44:19Z</time></trkpt><trkpt lat="41.98086924045975" lon="12.878696103562454"><ele>310.0</ele><time>2026-05-01T15:44:20Z</time></trkpt><trkpt lat="41.98056585005174" lon="12.878645863197622"><ele>304.0</ele><time>2026-05-01T15:44:21Z</time></trkpt><trkpt lat="41.980262860057344" lon="12.878598232806299"><ele>305.0</ele><time>2026-05-01T15:44:22Z</time></trkpt><trkpt lat="41.97995889485692" lon="12.878548471632651"><ele>306.0</ele><time>2026-05-01T15:44:23Z</time></trkpt><trkpt lat="41.97965600837989" lon="12.878501290791354"><ele>306.0</ele><time>2026-05-01T15:44:24Z</time></trkpt><trkpt lat="41.97935111673338" lon="12.878453373905277"><ele>306.0</ele><time>2026-05-01T15:44:25Z</time></trkpt><trkpt lat="41.97904593916497" lon="12.878405114378824"><ele>303.5</ele><time>2026-05-01T15:44:26Z</time></trkpt><trkpt lat="41.978739926835466" lon="12.878356979890109"><ele>301.0</ele><time>2026-05-01T15:44:27Z</time></trkpt><trkpt lat="41.97843442028595" lon="12.878310553050678"><ele>307.5</ele><time>2026-05-01T15:44:28Z</time></trkpt><trkpt lat="41.97812731138055" lon="12.878265662653083"><ele>314.0</ele><time>2026-05-01T15:44:29Z</time></trkpt><trkpt lat="41.9778185175977" lon="12.878217032388093"><ele>322.0</ele><time>2026-05-01T15:44:30Z</time></trkpt><trkpt lat="41.977510262419486" lon="12.878170410066875"><ele>330.0</ele><time>2026-05-01T15:44:31Z</time></trkpt><trkpt lat="41.977200853930356" lon="12.878122366682172"><ele>330.0</ele><time>2026-05-01T15:44:32Z</time></trkpt><trkpt lat="41.976892323981836" lon="12.878073187507194"><ele>330.0</ele><time>2026-05-01T15:44:33Z</time></trkpt><trkpt lat="41.97658157636983" lon="12.878025799155646"><ele>336.0</ele><time>2026-05-01T15:44:34Z</time></trkpt><trkpt lat="41.97627258118567" lon="12.877975262117848"><ele>342.0</ele><time>2026-05-01T15:44:35Z</time></trkpt><trkpt lat="41.97596255806958" lon="12.877923071260183"><ele>344.0</ele><time>2026-05-01T15:44:36Z</time></trkpt><trkpt lat="41.97565267563769" lon="12.877867378934502"><ele>346.0</ele><time>2026-05-01T15:44:37Z</time></trkpt><trkpt lat="41.975342918119175" lon="12.877814704228888"><ele>346.0</ele><time>2026-05-01T15:44:38Z</time></trkpt><trkpt lat="41.97503285141685" lon="12.877771746118219"><ele>346.0</ele><time>2026-05-01T15:44:39Z</time></trkpt><trkpt lat="41.974719458650966" lon="12.877732424661735"><ele>347.5</ele><time>2026-05-01T15:44:40Z</time></trkpt><trkpt lat="41.97440456560516" lon="12.877698368651966"><ele>349.0</ele><time>2026-05-01T15:44:41Z</time></trkpt><trkpt lat="41.97408876697827" lon="12.877667843414539"><ele>349.0</ele><time>2026-05-01T15:44:42Z</time></trkpt><trkpt lat="41.97376798788272" lon="12.8776459942607"><ele>349.0</ele><time>2026-05-01T15:44:43Z</time></trkpt><trkpt lat="41.973448805277215" lon="12.87757957240088"><ele>342.0</ele><time>2026-05-01T15:44:44Z</time></trkpt><trkpt lat="41.97311447158177" lon="12.877527385015119"><ele>335.0</ele><time>2026-05-01T15:44:45Z</time></trkpt><trkpt lat="41.97281315145344" lon="12.877484336304784"><ele>331.0</ele><time>2026-05-01T15:44:46Z</time></trkpt><trkpt lat="41.97251508931913" lon="12.877411449939926"><ele>327.0</ele><time>2026-05-01T15:44:47Z</time></trkpt><trkpt lat="41.97220472138042" lon="12.877345458669199"><ele>327.0</ele><time>2026-05-01T15:44:48Z</time></trkpt><trkpt lat="41.97189022268608" lon="12.877280751140594"><ele>327.0</ele><time>2026-05-01T15:44:49Z</time></trkpt><trkpt lat="41.97157185177988" lon="12.87721049651105"><ele>323.0</ele><time>2026-05-01T15:44:49.999Z</time></trkpt><trkpt lat="41.971254255469404" lon="12.877130830404969"><ele>319.0</ele><time>2026-05-01T15:44:50.999Z</time></trkpt><trkpt lat="41.970938088352945" lon="12.87704406310044"><ele>316.5</ele><time>2026-05-01T15:44:51.999Z</time></trkpt><trkpt lat="41.97062115093447" lon="12.876946070644738"><ele>314.0</ele><time>2026-05-01T15:44:52.999Z</time></trkpt><trkpt lat="41.97030498256283" lon="12.876838003344"><ele>314.0</ele><time>2026-05-01T15:44:53.999Z</time></trkpt><trkpt lat="41.96999369194368" lon="12.876722449151597"><ele>314.0</ele><time>2026-05-01T15:44:54.999Z</time></trkpt><trkpt lat="41.96968389066947" lon="12.87659972945071"><ele>314.0</ele><time>2026-05-01T15:44:55.999Z</time></trkpt><trkpt lat="41.96937539593411" lon="12.87647299907857"><ele>314.0</ele><time>2026-05-01T15:44:56.999Z</time></trkpt><trkpt lat="41.9690686674266" lon="12.876339899382092"><ele>311.5</ele><time>2026-05-01T15:44:57.999Z</time></trkpt><trkpt lat="41.96876533322328" lon="12.876193992823762"><ele>309.0</ele><time>2026-05-01T15:44:58.999Z</time></trkpt><trkpt lat="41.96846589828111" lon="12.876036820213825"><ele>308.0</ele><time>2026-05-01T15:44:59.999Z</time></trkpt><trkpt lat="41.96816694790885" lon="12.87587965732057"><ele>307.0</ele><time>2026-05-01T15:45:00.999Z</time></trkpt><trkpt lat="41.96786546633156" lon="12.875726049466904"><ele>307.0</ele><time>2026-05-01T15:45:01.999Z</time></trkpt><trkpt lat="41.967569600260035" lon="12.8755589722073"><ele>307.0</ele><time>2026-05-01T15:45:02.999Z</time></trkpt><trkpt lat="41.967274529123486" lon="12.875385618923334"><ele>308.0</ele><time>2026-05-01T15:45:03.999Z</time></trkpt><trkpt lat="41.96698294843191" lon="12.875202115713215"><ele>309.0</ele><time>2026-05-01T15:45:04.999Z</time></trkpt><trkpt lat="41.96669550824469" lon="12.875012181044928"><ele>310.5</ele><time>2026-05-01T15:45:05.999Z</time></trkpt><trkpt lat="41.966408627328704" lon="12.874816954489004"><ele>312.0</ele><time>2026-05-01T15:45:06.999Z</time></trkpt><trkpt lat="41.96612514415069" lon="12.874616595142026"><ele>311.0</ele><time>2026-05-01T15:45:07.999Z</time></trkpt><trkpt lat="41.965842057798476" lon="12.874411384089706"><ele>310.0</ele><time>2026-05-01T15:45:08.999Z</time></trkpt><trkpt lat="41.96555518499035" lon="12.87419910838963"><ele>310.0</ele><time>2026-05-01T15:45:09.999Z</time></trkpt><trkpt lat="41.96527756398827" lon="12.873984498747351"><ele>310.0</ele><time>2026-05-01T15:45:10.999Z</time></trkpt><trkpt lat="41.96499753515617" lon="12.873772308039918"><ele>309.5</ele><time>2026-05-01T15:45:11.999Z</time></trkpt><trkpt lat="41.96471548941371" lon="12.873562705451755"><ele>309.0</ele><time>2026-05-01T15:45:12.999Z</time></trkpt><trkpt lat="41.964432057806086" lon="12.873351684830407"><ele>305.0</ele><time>2026-05-01T15:45:13.999Z</time></trkpt><trkpt lat="41.96414881593057" lon="12.873137461284148"><ele>301.0</ele><time>2026-05-01T15:45:14.999Z</time></trkpt><trkpt lat="41.96386590758062" lon="12.87291913856021"><ele>301.0</ele><time>2026-05-01T15:45:15.999Z</time></trkpt><trkpt lat="41.96358283208416" lon="12.872699111284557"><ele>301.0</ele><time>2026-05-01T15:45:16.999Z</time></trkpt><trkpt lat="41.96330196383668" lon="12.872473794416274"><ele>298.5</ele><time>2026-05-01T15:45:17.999Z</time></trkpt><trkpt lat="41.96302269936301" lon="12.872244770846692"><ele>296.0</ele><time>2026-05-01T15:45:18.999Z</time></trkpt><trkpt lat="41.96274497811678" lon="12.872010372471848"><ele>293.0</ele><time>2026-05-01T15:45:19.999Z</time></trkpt><trkpt lat="41.96246966575397" lon="12.871774259190936"><ele>290.0</ele><time>2026-05-01T15:45:20.999Z</time></trkpt><trkpt lat="41.96219448912387" lon="12.871536916740395"><ele>286.0</ele><time>2026-05-01T15:45:21.999Z</time></trkpt><trkpt lat="41.961923539109655" lon="12.871293866175801"><ele>282.0</ele><time>2026-05-01T15:45:22.999Z</time></trkpt><trkpt lat="41.96165372397875" lon="12.871049322221316"><ele>279.5</ele><time>2026-05-01T15:45:23.999Z</time></trkpt><trkpt lat="41.96138579828486" lon="12.870807122099748"><ele>277.0</ele><time>2026-05-01T15:45:24.999Z</time></trkpt><trkpt lat="41.96111980806838" lon="12.87056109630952"><ele>275.0</ele><time>2026-05-01T15:45:25.999Z</time></trkpt><trkpt lat="41.96085930959835" lon="12.870307657519158"><ele>273.0</ele><time>2026-05-01T15:45:26.999Z</time></trkpt><trkpt lat="41.960599085824406" lon="12.87005734960562"><ele>273.0</ele><time>2026-05-01T15:45:27.999Z</time></trkpt><trkpt lat="41.96033880987754" lon="12.869808015506495"><ele>273.0</ele><time>2026-05-01T15:45:28.999Z</time></trkpt><trkpt lat="41.96008125212893" lon="12.869556807328507"><ele>269.0</ele><time>2026-05-01T15:45:29.999Z</time></trkpt><trkpt lat="41.95982469586553" lon="12.869307782813186"><ele>265.0</ele><time>2026-05-01T15:45:30.999Z</time></trkpt><trkpt lat="41.95956888389778" lon="12.869058965797173"><ele>265.0</ele><time>2026-05-01T15:45:31.999Z</time></trkpt><trkpt lat="41.95931665263067" lon="12.868806106620342"><ele>265.0</ele><time>2026-05-01T15:45:32.999Z</time></trkpt><trkpt lat="41.959066190312626" lon="12.868551500876977"><ele>262.0</ele><time>2026-05-01T15:45:33.999Z</time></trkpt><trkpt lat="41.958819114666426" lon="12.868294409386456"><ele>259.0</ele><time>2026-05-01T15:45:34.999Z</time></trkpt><trkpt lat="41.95857561627509" lon="12.868033789680716"><ele>258.0</ele><time>2026-05-01T15:45:35.999Z</time></trkpt><trkpt lat="41.958334998362076" lon="12.867774197252622"><ele>257.0</ele><time>2026-05-01T15:45:36.999Z</time></trkpt><trkpt lat="41.95809554345025" lon="12.867512870236057"><ele>256.5</ele><time>2026-05-01T15:45:37.999Z</time></trkpt><trkpt lat="41.957858914737585" lon="12.867250526028235"><ele>256.0</ele><time>2026-05-01T15:45:38.999Z</time></trkpt><trkpt lat="41.95762117159741" lon="12.866991649193901"><ele>256.0</ele><time>2026-05-01T15:45:39.999Z</time></trkpt><trkpt lat="41.957382250095804" lon="12.866732892666723"><ele>256.0</ele><time>2026-05-01T15:45:40.999Z</time></trkpt><trkpt lat="41.95714330800832" lon="12.866473682160386"><ele>256.0</ele><time>2026-05-01T15:45:41.999Z</time></trkpt><trkpt lat="41.95690925266731" lon="12.866211307531517"><ele>256.0</ele><time>2026-05-01T15:45:42.999Z</time></trkpt><trkpt lat="41.956674912472586" lon="12.865948961861244"><ele>257.5</ele><time>2026-05-01T15:45:43.999Z</time></trkpt><trkpt lat="41.9564436372213" lon="12.865684667397199"><ele>259.0</ele><time>2026-05-01T15:45:44.999Z</time></trkpt><trkpt lat="41.956213105065366" lon="12.865418730042206"><ele>259.0</ele><time>2026-05-01T15:45:45.998Z</time></trkpt><trkpt lat="41.95598369558128" lon="12.865150635503104"><ele>259.0</ele><time>2026-05-01T15:45:46.998Z</time></trkpt><trkpt lat="41.955756717449695" lon="12.86488112501353"><ele>262.5</ele><time>2026-05-01T15:45:47.998Z</time></trkpt><trkpt lat="41.95553132434292" lon="12.864609112002666"><ele>266.0</ele><time>2026-05-01T15:45:48.998Z</time></trkpt><trkpt lat="41.955306405661375" lon="12.864337675859467"><ele>266.5</ele><time>2026-05-01T15:45:49.998Z</time></trkpt><trkpt lat="41.95508280626777" lon="12.86406419379014"><ele>267.0</ele><time>2026-05-01T15:45:50.998Z</time></trkpt><trkpt lat="41.95486134648953" lon="12.863786126839647"><ele>265.5</ele><time>2026-05-01T15:45:51.998Z</time></trkpt><trkpt lat="41.954641278848776" lon="12.863512885988312"><ele>264.0</ele><time>2026-05-01T15:45:52.998Z</time></trkpt><trkpt lat="41.954425421251344" lon="12.863236216413677"><ele>264.0</ele><time>2026-05-01T15:45:53.998Z</time></trkpt><trkpt lat="41.95420991112263" lon="12.862956827121547"><ele>264.0</ele><time>2026-05-01T15:45:54.998Z</time></trkpt><trkpt lat="41.95399729358725" lon="12.86267957682822"><ele>264.0</ele><time>2026-05-01T15:45:55.998Z</time></trkpt><trkpt lat="41.95378814036069" lon="12.862402094158218"><ele>264.0</ele><time>2026-05-01T15:45:56.998Z</time></trkpt><trkpt lat="41.953579407058946" lon="12.862126677196093"><ele>264.0</ele><time>2026-05-01T15:45:57.998Z</time></trkpt><trkpt lat="41.953373548711056" lon="12.861846348813373"><ele>264.0</ele><time>2026-05-01T15:45:58.998Z</time></trkpt><trkpt lat="41.953167974568586" lon="12.861568364996485"><ele>267.5</ele><time>2026-05-01T15:45:59.998Z</time></trkpt><trkpt lat="41.95296249405513" lon="12.861289523358009"><ele>271.0</ele><time>2026-05-01T15:46:00.998Z</time></trkpt><trkpt lat="41.952759891007915" lon="12.861006397343996"><ele>271.5</ele><time>2026-05-01T15:46:01.998Z</time></trkpt><trkpt lat="41.952558129320174" lon="12.86072115759009"><ele>272.0</ele><time>2026-05-01T15:46:02.998Z</time></trkpt><trkpt lat="41.95235479876696" lon="12.860435033803013"><ele>273.5</ele><time>2026-05-01T15:46:04Z</time></trkpt><trkpt lat="41.95215295078543" lon="12.86015181839739"><ele>275.0</ele><time>2026-05-01T15:46:05Z</time></trkpt><trkpt lat="41.951952263506215" lon="12.85986886908204"><ele>277.5</ele><time>2026-05-01T15:46:06Z</time></trkpt><trkpt lat="41.95175436871903" lon="12.859585733332224"><ele>280.0</ele><time>2026-05-01T15:46:07Z</time></trkpt><trkpt lat="41.95155679243758" lon="12.859303194664518"><ele>281.0</ele><time>2026-05-01T15:46:08Z</time></trkpt><trkpt lat="41.95135935504516" lon="12.859022002908041"><ele>282.0</ele><time>2026-05-01T15:46:09Z</time></trkpt><trkpt lat="41.95116215833949" lon="12.858739176077062"><ele>282.0</ele><time>2026-05-01T15:46:10Z</time></trkpt><trkpt lat="41.95096684771573" lon="12.858458807979265"><ele>282.0</ele><time>2026-05-01T15:46:11Z</time></trkpt><trkpt lat="41.95077373148809" lon="12.858177837524849"><ele>280.5</ele><time>2026-05-01T15:46:12Z</time></trkpt><trkpt lat="41.95057827543796" lon="12.857901750678764"><ele>279.0</ele><time>2026-05-01T15:46:13Z</time></trkpt><trkpt lat="41.950382520894266" lon="12.85762957717524"><ele>277.0</ele><time>2026-05-01T15:46:14Z</time></trkpt><trkpt lat="41.95018574332326" lon="12.857362556183656"><ele>275.0</ele><time>2026-05-01T15:46:15Z</time></trkpt><trkpt lat="41.94999154552614" lon="12.857095684759663"><ele>275.0</ele><time>2026-05-01T15:46:16Z</time></trkpt><trkpt lat="41.9497983656317" lon="12.856832484588363"><ele>275.0</ele><time>2026-05-01T15:46:17Z</time></trkpt><trkpt lat="41.949602664058055" lon="12.856576251784846"><ele>271.5</ele><time>2026-05-01T15:46:18Z</time></trkpt><trkpt lat="41.9494047236225" lon="12.856323030752844"><ele>268.0</ele><time>2026-05-01T15:46:19Z</time></trkpt><trkpt lat="41.94920315679611" lon="12.85607894666445"><ele>267.5</ele><time>2026-05-01T15:46:20Z</time></trkpt><trkpt lat="41.94900030992426" lon="12.855840516793954"><ele>267.0</ele><time>2026-05-01T15:46:21Z</time></trkpt><trkpt lat="41.94879903268513" lon="12.855601026095014"><ele>267.0</ele><time>2026-05-01T15:46:22Z</time></trkpt><trkpt lat="41.948594055003426" lon="12.855365998528482"><ele>267.0</ele><time>2026-05-01T15:46:23Z</time></trkpt><trkpt lat="41.94838827144544" lon="12.855132690315441"><ele>276.5</ele><time>2026-05-01T15:46:24Z</time></trkpt><trkpt lat="41.94817952029855" lon="12.854903205809707"><ele>286.0</ele><time>2026-05-01T15:46:25Z</time></trkpt><trkpt lat="41.94797013378837" lon="12.854671178909163"><ele>286.0</ele><time>2026-05-01T15:46:26Z</time></trkpt><trkpt lat="41.94775819098062" lon="12.854442957834955"><ele>286.0</ele><time>2026-05-01T15:46:27Z</time></trkpt><trkpt lat="41.94754342417476" lon="12.854216952524498"><ele>293.5</ele><time>2026-05-01T15:46:28Z</time></trkpt><trkpt lat="41.94732551190242" lon="12.853998544800755"><ele>301.0</ele><time>2026-05-01T15:46:29Z</time></trkpt><trkpt lat="41.94710419962337" lon="12.853785612940655"><ele>301.0</ele><time>2026-05-01T15:46:30Z</time></trkpt><trkpt lat="41.94687848186141" lon="12.853574452765091"><ele>301.0</ele><time>2026-05-01T15:46:31Z</time></trkpt><trkpt lat="41.946653215827205" lon="12.853363903185025"><ele>299.0</ele><time>2026-05-01T15:46:32Z</time></trkpt><trkpt lat="41.94642789686326" lon="12.853155248966859"><ele>297.0</ele><time>2026-05-01T15:46:33Z</time></trkpt><trkpt lat="41.94620115722619" lon="12.852946254537892"><ele>297.0</ele><time>2026-05-01T15:46:34Z</time></trkpt><trkpt lat="41.94597272910629" lon="12.852741199115279"><ele>297.0</ele><time>2026-05-01T15:46:35Z</time></trkpt><trkpt lat="41.94574150154007" lon="12.85254108809243"><ele>301.5</ele><time>2026-05-01T15:46:36Z</time></trkpt><trkpt lat="41.9455091797638" lon="12.852342255664498"><ele>306.0</ele><time>2026-05-01T15:46:37Z</time></trkpt><trkpt lat="41.945275837074696" lon="12.852144310445107"><ele>308.5</ele><time>2026-05-01T15:46:38Z</time></trkpt><trkpt lat="41.945039879037274" lon="12.851948275548011"><ele>311.0</ele><time>2026-05-01T15:46:39Z</time></trkpt><trkpt lat="41.94480258157234" lon="12.8517513533328"><ele>311.0</ele><time>2026-05-01T15:46:40Z</time></trkpt><trkpt lat="41.9445643347843" lon="12.851557294385092"><ele>311.0</ele><time>2026-05-01T15:46:41Z</time></trkpt><trkpt lat="41.94432256720708" lon="12.85136533504996"><ele>316.0</ele><time>2026-05-01T15:46:42Z</time></trkpt><trkpt lat="41.94407946899766" lon="12.85117738906783"><ele>321.0</ele><time>2026-05-01T15:46:43Z</time></trkpt><trkpt lat="41.94383264990353" lon="12.850994967122364"><ele>319.5</ele><time>2026-05-01T15:46:44Z</time></trkpt><trkpt lat="41.94358350870645" lon="12.8508106815099"><ele>318.0</ele><time>2026-05-01T15:46:45Z</time></trkpt><trkpt lat="41.94333694163873" lon="12.850625773368325"><ele>318.0</ele><time>2026-05-01T15:46:46Z</time></trkpt><trkpt lat="41.94308696151643" lon="12.85044819927524"><ele>318.0</ele><time>2026-05-01T15:46:47Z</time></trkpt><trkpt lat="41.94283320419205" lon="12.850270418583904"><ele>312.0</ele><time>2026-05-01T15:46:48Z</time></trkpt><trkpt lat="41.942576850561885" lon="12.850088193442685"><ele>306.0</ele><time>2026-05-01T15:46:49Z</time></trkpt><trkpt lat="41.9423172655052" lon="12.849905593155265"><ele>306.0</ele><time>2026-05-01T15:46:50Z</time></trkpt><trkpt lat="41.94205649259846" lon="12.849723881227616"><ele>306.0</ele><time>2026-05-01T15:46:51Z</time></trkpt><trkpt lat="41.94179142181576" lon="12.84954738552468"><ele>306.0</ele><time>2026-05-01T15:46:52Z</time></trkpt><trkpt lat="41.94152326102024" lon="12.849376375095492"><ele>306.0</ele><time>2026-05-01T15:46:53Z</time></trkpt><trkpt lat="41.941253592384946" lon="12.849207619740259"><ele>306.0</ele><time>2026-05-01T15:46:54Z</time></trkpt><trkpt lat="41.94098097594219" lon="12.849039919900017"><ele>306.0</ele><time>2026-05-01T15:46:55Z</time></trkpt><trkpt lat="41.940705259308864" lon="12.848877390694318"><ele>307.0</ele><time>2026-05-01T15:46:56Z</time></trkpt><trkpt lat="41.94042695471527" lon="12.848717694170386"><ele>308.0</ele><time>2026-05-01T15:46:56.999Z</time></trkpt><trkpt lat="41.9401483801327" lon="12.84855965334166"><ele>303.5</ele><time>2026-05-01T15:46:57.999Z</time></trkpt><trkpt lat="41.9398692286613" lon="12.848404208995143"><ele>299.0</ele><time>2026-05-01T15:46:58.999Z</time></trkpt><trkpt lat="41.93958787437026" lon="12.848250017317897"><ele>299.0</ele><time>2026-05-01T15:46:59.999Z</time></trkpt><trkpt lat="41.93930372417677" lon="12.848101649802487"><ele>299.0</ele><time>2026-05-01T15:47:00.999Z</time></trkpt><trkpt lat="41.93902114990787" lon="12.847953099714971"><ele>300.0</ele><time>2026-05-01T15:47:01.999Z</time></trkpt><trkpt lat="41.93873879710113" lon="12.847807034115656"><ele>301.0</ele><time>2026-05-01T15:47:02.999Z</time></trkpt><trkpt lat="41.93845748791645" lon="12.847662273331471"><ele>291.0</ele><time>2026-05-01T15:47:03.999Z</time></trkpt><trkpt lat="41.938176121780856" lon="12.84751897527602"><ele>281.0</ele><time>2026-05-01T15:47:04.999Z</time></trkpt><trkpt lat="41.93789403848252" lon="12.847377661335193"><ele>281.0</ele><time>2026-05-01T15:47:05.999Z</time></trkpt><trkpt lat="41.937608413241406" lon="12.847244253202534"><ele>281.0</ele><time>2026-05-01T15:47:06.999Z</time></trkpt><trkpt lat="41.93732104903399" lon="12.847121650678833"><ele>287.0</ele><time>2026-05-01T15:47:07.999Z</time></trkpt><trkpt lat="41.93703372711179" lon="12.847004507356495"><ele>293.0</ele><time>2026-05-01T15:47:08.999Z</time></trkpt><trkpt lat="41.936747482374585" lon="12.846891054454646"><ele>295.0</ele><time>2026-05-01T15:47:09.999Z</time></trkpt><trkpt lat="41.936461642345236" lon="12.846774231708958"><ele>297.0</ele><time>2026-05-01T15:47:10.999Z</time></trkpt><trkpt lat="41.93617531472101" lon="12.846655292598976"><ele>297.0</ele><time>2026-05-01T15:47:11.999Z</time></trkpt><trkpt lat="41.935887966614615" lon="12.846540495304039"><ele>297.0</ele><time>2026-05-01T15:47:12.999Z</time></trkpt><trkpt lat="41.93560037326783" lon="12.846430187616447"><ele>297.5</ele><time>2026-05-01T15:47:13.999Z</time></trkpt><trkpt lat="41.935311548563966" lon="12.846324765911037"><ele>298.0</ele><time>2026-05-01T15:47:14.999Z</time></trkpt><trkpt lat="41.93502349716547" lon="12.84622281462368"><ele>303.5</ele><time>2026-05-01T15:47:15.999Z</time></trkpt><trkpt lat="41.93473451698487" lon="12.846123808779963"><ele>309.0</ele><time>2026-05-01T15:47:16.999Z</time></trkpt><trkpt lat="41.93444499029" lon="12.846028274189802"><ele>302.0</ele><time>2026-05-01T15:47:17.999Z</time></trkpt><trkpt lat="41.934154415469436" lon="12.845936328950366"><ele>295.0</ele><time>2026-05-01T15:47:18.999Z</time></trkpt><trkpt lat="41.93386379127238" lon="12.8458488661079"><ele>295.0</ele><time>2026-05-01T15:47:19.999Z</time></trkpt><trkpt lat="41.93357283450542" lon="12.845763292327298"><ele>295.0</ele><time>2026-05-01T15:47:20.999Z</time></trkpt><trkpt lat="41.933282038586036" lon="12.845681576008637"><ele>290.5</ele><time>2026-05-01T15:47:21.999Z</time></trkpt><trkpt lat="41.93299045977373" lon="12.845604589068792"><ele>286.0</ele><time>2026-05-01T15:47:22.999Z</time></trkpt><trkpt lat="41.932700628279754" lon="12.845529729367485"><ele>287.5</ele><time>2026-05-01T15:47:23.999Z</time></trkpt><trkpt lat="41.93241105276704" lon="12.845455498659529"><ele>289.0</ele><time>2026-05-01T15:47:24.999Z</time></trkpt><trkpt lat="41.932121219076386" lon="12.845381781914199"><ele>289.0</ele><time>2026-05-01T15:47:25.999Z</time></trkpt><trkpt lat="41.93183205540355" lon="12.84530887454066"><ele>289.0</ele><time>2026-05-01T15:47:26.999Z</time></trkpt><trkpt lat="41.93154264551829" lon="12.845237156360579"><ele>295.0</ele><time>2026-05-01T15:47:27.999Z</time></trkpt><trkpt lat="41.93125258553465" lon="12.845164524406389"><ele>301.0</ele><time>2026-05-01T15:47:28.999Z</time></trkpt><trkpt lat="41.93096163269703" lon="12.845091544024612"><ele>301.5</ele><time>2026-05-01T15:47:29.999Z</time></trkpt><trkpt lat="41.93067061155691" lon="12.845012341766903"><ele>302.0</ele><time>2026-05-01T15:47:30.999Z</time></trkpt><trkpt lat="41.93037996314012" lon="12.844924599567397"><ele>302.0</ele><time>2026-05-01T15:47:31.999Z</time></trkpt><trkpt lat="41.93008991626485" lon="12.84483029563274"><ele>302.0</ele><time>2026-05-01T15:47:32.999Z</time></trkpt><trkpt lat="41.92979981962066" lon="12.844729494071423"><ele>301.5</ele><time>2026-05-01T15:47:33.999Z</time></trkpt><trkpt lat="41.92951042373815" lon="12.844622472795706"><ele>301.0</ele><time>2026-05-01T15:47:34.999Z</time></trkpt><trkpt lat="41.92922173961675" lon="12.844508412105698"><ele>297.5</ele><time>2026-05-01T15:47:35.999Z</time></trkpt><trkpt lat="41.9289341436035" lon="12.844386082635223"><ele>294.0</ele><time>2026-05-01T15:47:36.999Z</time></trkpt><trkpt lat="41.928648052780794" lon="12.844252162015156"><ele>296.0</ele><time>2026-05-01T15:47:37.999Z</time></trkpt><trkpt lat="41.928364817441555" lon="12.844104230916987"><ele>298.0</ele><time>2026-05-01T15:47:38.999Z</time></trkpt><trkpt lat="41.92808344987442" lon="12.843947046568822"><ele>298.0</ele><time>2026-05-01T15:47:39.999Z</time></trkpt><trkpt lat="41.92780393128677" lon="12.843779012539345"><ele>298.0</ele><time>2026-05-01T15:47:40.999Z</time></trkpt><trkpt lat="41.9275273702392" lon="12.843601363929164"><ele>296.0</ele><time>2026-05-01T15:47:41.999Z</time></trkpt><trkpt lat="41.92725310412268" lon="12.843412805566828"><ele>294.0</ele><time>2026-05-01T15:47:42.999Z</time></trkpt><trkpt lat="41.92698241515362" lon="12.843217091626851"><ele>292.5</ele><time>2026-05-01T15:47:43.999Z</time></trkpt><trkpt lat="41.92671425691736" lon="12.843013517189116"><ele>291.0</ele><time>2026-05-01T15:47:44.999Z</time></trkpt><trkpt lat="41.92644704052685" lon="12.842803025100157"><ele>286.5</ele><time>2026-05-01T15:47:45.999Z</time></trkpt><trkpt lat="41.92618367538183" lon="12.84258614809269"><ele>282.0</ele><time>2026-05-01T15:47:46.999Z</time></trkpt><trkpt lat="41.9259240815544" lon="12.842358752597193"><ele>282.0</ele><time>2026-05-01T15:47:47.999Z</time></trkpt><trkpt lat="41.92566789201257" lon="12.842120535811723"><ele>282.0</ele><time>2026-05-01T15:47:48.999Z</time></trkpt><trkpt lat="41.92541631398281" lon="12.841877390372284"><ele>282.0</ele><time>2026-05-01T15:47:49.999Z</time></trkpt><trkpt lat="41.92516900119242" lon="12.841625968167536"><ele>282.0</ele><time>2026-05-01T15:47:50.999Z</time></trkpt><trkpt lat="41.9249294156528" lon="12.84136578261684"><ele>282.0</ele><time>2026-05-01T15:47:51.998Z</time></trkpt><trkpt lat="41.92469487781821" lon="12.841097736724327"><ele>282.0</ele><time>2026-05-01T15:47:52.998Z</time></trkpt><trkpt lat="41.92446337423151" lon="12.84082458688955"><ele>287.5</ele><time>2026-05-01T15:47:53.998Z</time></trkpt><trkpt lat="41.92423493102613" lon="12.840544561137786"><ele>293.0</ele><time>2026-05-01T15:47:54.998Z</time></trkpt><trkpt lat="41.924009899816085" lon="12.84025896004316"><ele>302.0</ele><time>2026-05-01T15:47:55.998Z</time></trkpt><trkpt lat="41.92378878134771" lon="12.83996585809598"><ele>311.0</ele><time>2026-05-01T15:47:56.998Z</time></trkpt><trkpt lat="41.923572879430644" lon="12.839664816318614"><ele>315.0</ele><time>2026-05-01T15:47:57.998Z</time></trkpt><trkpt lat="41.92336109647525" lon="12.83935650405341"><ele>319.0</ele><time>2026-05-01T15:47:58.998Z</time></trkpt><trkpt lat="41.92314861479624" lon="12.8390457474712"><ele>320.5</ele><time>2026-05-01T15:47:59.998Z</time></trkpt><trkpt lat="41.92293637984193" lon="12.838732767966706"><ele>322.0</ele><time>2026-05-01T15:48:00.998Z</time></trkpt><trkpt lat="41.92272049224577" lon="12.838414418923888"><ele>329.0</ele><time>2026-05-01T15:48:01.998Z</time></trkpt><trkpt lat="41.92250269782252" lon="12.8380896562133"><ele>336.0</ele><time>2026-05-01T15:48:02.998Z</time></trkpt><trkpt lat="41.922294762963645" lon="12.837763242756138"><ele>336.0</ele><time>2026-05-01T15:48:03.998Z</time></trkpt><trkpt lat="41.922087022340804" lon="12.83742805861759"><ele>336.0</ele><time>2026-05-01T15:48:04.998Z</time></trkpt><trkpt lat="41.921863879422396" lon="12.837072317031463"><ele>348.5</ele><time>2026-05-01T15:48:06.07Z</time></trkpt><trkpt lat="41.921659413727475" lon="12.836770610659519"><ele>361.0</ele><time>2026-05-01T15:48:07.043Z</time></trkpt><trkpt lat="41.921452076415655" lon="12.836423530464788"><ele>361.0</ele><time>2026-05-01T15:48:08.033Z</time></trkpt><trkpt lat="41.92124272785099" lon="12.83608909538953"><ele>361.0</ele><time>2026-05-01T15:48:09.031Z</time></trkpt><trkpt lat="41.92103544912585" lon="12.835754006322725"><ele>244.0</ele><time>2026-05-01T15:48:10.027Z</time></trkpt><trkpt lat="41.91683825607961" lon="12.82774270107295"><ele>240.5</ele><time>2026-05-01T15:48:32.998Z</time></trkpt><trkpt lat="41.9166318421715" lon="12.827367133812432"><ele>237.0</ele><time>2026-05-01T15:48:33.998Z</time></trkpt><trkpt lat="41.916444553644816" lon="12.826995667336115"><ele>234.5</ele><time>2026-05-01T15:48:34.998Z</time></trkpt><trkpt lat="41.91626636318592" lon="12.826635035338263"><ele>232.0</ele><time>2026-05-01T15:48:35.998Z</time></trkpt><trkpt lat="41.91609439306607" lon="12.826289942820011"><ele>230.0</ele><time>2026-05-01T15:48:36.998Z</time></trkpt><trkpt lat="41.91591731527566" lon="12.825943550154305"><ele>228.0</ele><time>2026-05-01T15:48:37.998Z</time></trkpt><trkpt lat="41.91574326381263" lon="12.825586281137102"><ele>227.5</ele><time>2026-05-01T15:48:38.998Z</time></trkpt><trkpt lat="41.91557727641528" lon="12.82522211911476"><ele>227.0</ele><time>2026-05-01T15:48:40Z</time></trkpt><trkpt lat="41.91541251298777" lon="12.824854576438518"><ele>223.0</ele><time>2026-05-01T15:48:41Z</time></trkpt><trkpt lat="41.915251860580454" lon="12.824479673579763"><ele>219.0</ele><time>2026-05-01T15:48:42Z</time></trkpt><trkpt lat="41.9150963262153" lon="12.824104309594677"><ele>219.0</ele><time>2026-05-01T15:48:43Z</time></trkpt><trkpt lat="41.91494611401041" lon="12.823727032352188"><ele>219.0</ele><time>2026-05-01T15:48:44Z</time></trkpt><trkpt lat="41.914801464902034" lon="12.8233478348184"><ele>218.0</ele><time>2026-05-01T15:48:45Z</time></trkpt><trkpt lat="41.91466155639372" lon="12.822965529735812"><ele>217.0</ele><time>2026-05-01T15:48:46Z</time></trkpt><trkpt lat="41.91452459880073" lon="12.822580705492669"><ele>215.0</ele><time>2026-05-01T15:48:47Z</time></trkpt><trkpt lat="41.91439456964814" lon="12.82219271837581"><ele>213.0</ele><time>2026-05-01T15:48:48Z</time></trkpt><trkpt lat="41.91427102611702" lon="12.821801801269874"><ele>215.0</ele><time>2026-05-01T15:48:49Z</time></trkpt><trkpt lat="41.914158607120456" lon="12.821406704153926"><ele>217.0</ele><time>2026-05-01T15:48:50Z</time></trkpt><trkpt lat="41.9140548975947" lon="12.821008033643375"><ele>216.5</ele><time>2026-05-01T15:48:51Z</time></trkpt><trkpt lat="41.913959043940416" lon="12.820607103347031"><ele>216.0</ele><time>2026-05-01T15:48:52Z</time></trkpt><trkpt lat="41.91387050639359" lon="12.820203961775169"><ele>215.0</ele><time>2026-05-01T15:48:53Z</time></trkpt><trkpt lat="41.913789585015145" lon="12.81979963860413"><ele>214.0</ele><time>2026-05-01T15:48:54Z</time></trkpt><trkpt lat="41.91371548597669" lon="12.81939499485338"><ele>212.5</ele><time>2026-05-01T15:48:55Z</time></trkpt><trkpt lat="41.91364917161316" lon="12.818988824161945"><ele>211.0</ele><time>2026-05-01T15:48:56Z</time></trkpt><trkpt lat="41.9135931957121" lon="12.818583644360261"><ele>211.5</ele><time>2026-05-01T15:48:57Z</time></trkpt><trkpt lat="41.9135478298528" lon="12.818176637924005"><ele>212.0</ele><time>2026-05-01T15:48:58Z</time></trkpt><trkpt lat="41.91351219061635" lon="12.817771282821607"><ele>211.5</ele><time>2026-05-01T15:48:59Z</time></trkpt><trkpt lat="41.91348545180624" lon="12.81736495040619"><ele>211.0</ele><time>2026-05-01T15:49:00Z</time></trkpt><trkpt lat="41.9134675046115" lon="12.816957597189713"><ele>212.0</ele><time>2026-05-01T15:49:01Z</time></trkpt><trkpt lat="41.91346037918448" lon="12.81655241742082"><ele>213.0</ele><time>2026-05-01T15:49:02Z</time></trkpt><trkpt lat="41.91345786202393" lon="12.816147889179666"><ele>213.0</ele><time>2026-05-01T15:49:03Z</time></trkpt><trkpt lat="41.91346144005383" lon="12.815744551385453"><ele>213.0</ele><time>2026-05-01T15:49:04Z</time></trkpt><trkpt lat="41.91347542634454" lon="12.815338828987104"><ele>213.0</ele><time>2026-05-01T15:49:05Z</time></trkpt><trkpt lat="41.913497049209276" lon="12.814935602268218"><ele>213.0</ele><time>2026-05-01T15:49:06Z</time></trkpt><trkpt lat="41.91352913645625" lon="12.814533294725804"><ele>213.0</ele><time>2026-05-01T15:49:07Z</time></trkpt><trkpt lat="41.91357035604662" lon="12.814128334951576"><ele>213.0</ele><time>2026-05-01T15:49:08Z</time></trkpt><trkpt lat="41.913621062441344" lon="12.813724938167898"><ele>214.0</ele><time>2026-05-01T15:49:09Z</time></trkpt><trkpt lat="41.913677821075666" lon="12.813323584071089"><ele>215.0</ele><time>2026-05-01T15:49:10Z</time></trkpt><trkpt lat="41.913740356961306" lon="12.812921190283005"><ele>214.0</ele><time>2026-05-01T15:49:11Z</time></trkpt><trkpt lat="41.913809271353465" lon="12.812519476252833"><ele>213.0</ele><time>2026-05-01T15:49:12Z</time></trkpt><trkpt lat="41.91388402392577" lon="12.812117371373429"><ele>212.0</ele><time>2026-05-01T15:49:13Z</time></trkpt><trkpt lat="41.913964468857955" lon="12.811715747877802"><ele>211.0</ele><time>2026-05-01T15:49:14Z</time></trkpt><trkpt lat="41.914052090165704" lon="12.811317005646915"><ele>210.5</ele><time>2026-05-01T15:49:15Z</time></trkpt><trkpt lat="41.91414420834055" lon="12.810916880452254"><ele>210.0</ele><time>2026-05-01T15:49:16Z</time></trkpt><trkpt lat="41.91424144686562" lon="12.810518199344957"><ele>208.0</ele><time>2026-05-01T15:49:17Z</time></trkpt><trkpt lat="41.91434021498421" lon="12.810120046532008"><ele>206.0</ele><time>2026-05-01T15:49:18Z</time></trkpt><trkpt lat="41.914441055459804" lon="12.80971890379955"><ele>206.5</ele><time>2026-05-01T15:49:19Z</time></trkpt><trkpt lat="41.91454459038718" lon="12.809317167572859"><ele>207.0</ele><time>2026-05-01T15:49:20Z</time></trkpt><trkpt lat="41.91465028949403" lon="12.808916739438692"><ele>207.0</ele><time>2026-05-01T15:49:21Z</time></trkpt><trkpt lat="41.91475624915419" lon="12.808514692833782"><ele>207.0</ele><time>2026-05-01T15:49:22Z</time></trkpt><trkpt lat="41.91486431517497" lon="12.808111249523863"><ele>204.0</ele><time>2026-05-01T15:49:23Z</time></trkpt><trkpt lat="41.914971640302014" lon="12.807709389857662"><ele>201.0</ele><time>2026-05-01T15:49:24Z</time></trkpt><trkpt lat="41.91507961031773" lon="12.80730727420247"><ele>192.5</ele><time>2026-05-01T15:49:25Z</time></trkpt><trkpt lat="41.915188917349326" lon="12.806908273239937"><ele>184.0</ele><time>2026-05-01T15:49:26Z</time></trkpt><trkpt lat="41.915299379137096" lon="12.80650882269617"><ele>184.0</ele><time>2026-05-01T15:49:27Z</time></trkpt><trkpt lat="41.9154092661616" lon="12.806110183024417"><ele>184.0</ele><time>2026-05-01T15:49:28Z</time></trkpt><trkpt lat="41.91551870492289" lon="12.805713990184127"><ele>187.0</ele><time>2026-05-01T15:49:29Z</time></trkpt><trkpt lat="41.915628295383485" lon="12.805317208090633"><ele>190.0</ele><time>2026-05-01T15:49:30Z</time></trkpt><trkpt lat="41.915735929156156" lon="12.8049194186198"><ele>190.0</ele><time>2026-05-01T15:49:31Z</time></trkpt><trkpt lat="41.915843519206604" lon="12.804525708924228"><ele>190.0</ele><time>2026-05-01T15:49:32Z</time></trkpt><trkpt lat="41.9159533495337" lon="12.804134527903814"><ele>187.0</ele><time>2026-05-01T15:49:33Z</time></trkpt><trkpt lat="41.9160689759474" lon="12.803747308321643"><ele>184.0</ele><time>2026-05-01T15:49:33.999Z</time></trkpt><trkpt lat="41.9161869631987" lon="12.80336337560637"><ele>183.0</ele><time>2026-05-01T15:49:34.999Z</time></trkpt><trkpt lat="41.9163039856418" lon="12.802979040466358"><ele>182.0</ele><time>2026-05-01T15:49:35.999Z</time></trkpt><trkpt lat="41.916418331298175" lon="12.80259157977235"><ele>179.0</ele><time>2026-05-01T15:49:36.999Z</time></trkpt><trkpt lat="41.91652821220375" lon="12.802204142683085"><ele>176.0</ele><time>2026-05-01T15:49:37.999Z</time></trkpt><trkpt lat="41.91663687169368" lon="12.801812048772625"><ele>172.5</ele><time>2026-05-01T15:49:38.999Z</time></trkpt><trkpt lat="41.91674336513932" lon="12.801420037415813"><ele>169.0</ele><time>2026-05-01T15:49:39.999Z</time></trkpt><trkpt lat="41.91685338186024" lon="12.801030135938914"><ele>169.5</ele><time>2026-05-01T15:49:40.999Z</time></trkpt><trkpt lat="41.916963614051944" lon="12.800642042367167"><ele>170.0</ele><time>2026-05-01T15:49:41.999Z</time></trkpt><trkpt lat="41.91707665331941" lon="12.80025577699701"><ele>172.5</ele><time>2026-05-01T15:49:42.999Z</time></trkpt><trkpt lat="41.917188528724814" lon="12.799872974794653"><ele>175.0</ele><time>2026-05-01T15:49:43.999Z</time></trkpt><trkpt lat="41.917299544791184" lon="12.799486368444434"><ele>175.5</ele><time>2026-05-01T15:49:44.999Z</time></trkpt><trkpt lat="41.917408135033156" lon="12.799099393419738"><ele>176.0</ele><time>2026-05-01T15:49:45.999Z</time></trkpt><trkpt lat="41.91751538831303" lon="12.798713827132067"><ele>174.5</ele><time>2026-05-01T15:49:46.999Z</time></trkpt><trkpt lat="41.91762140345463" lon="12.79832615839719"><ele>173.0</ele><time>2026-05-01T15:49:47.999Z</time></trkpt><trkpt lat="41.91772722777912" lon="12.797940768187843"><ele>173.0</ele><time>2026-05-01T15:49:48.999Z</time></trkpt><trkpt lat="41.917832268690965" lon="12.797555567408313"><ele>173.0</ele><time>2026-05-01T15:49:49.999Z</time></trkpt><trkpt lat="41.917938979554876" lon="12.797173028282117"><ele>172.0</ele><time>2026-05-01T15:49:50.999Z</time></trkpt><trkpt lat="41.91804745209692" lon="12.796790060314175"><ele>171.0</ele><time>2026-05-01T15:49:51.999Z</time></trkpt><trkpt lat="41.918155308117605" lon="12.796408722812856"><ele>171.0</ele><time>2026-05-01T15:49:52.999Z</time></trkpt><trkpt lat="41.91826273951949" lon="12.796026328359847"><ele>171.0</ele><time>2026-05-01T15:49:53.999Z</time></trkpt><trkpt lat="41.918368740570386" lon="12.79564191248216"><ele>167.5</ele><time>2026-05-01T15:49:54.999Z</time></trkpt><trkpt lat="41.91847395479172" lon="12.795258350654425"><ele>164.0</ele><time>2026-05-01T15:49:55.999Z</time></trkpt><trkpt lat="41.918579366133336" lon="12.794872103051105"><ele>164.0</ele><time>2026-05-01T15:49:56.999Z</time></trkpt><trkpt lat="41.91868611954908" lon="12.794484100458206"><ele>164.0</ele><time>2026-05-01T15:49:57.999Z</time></trkpt><trkpt lat="41.918796122588454" lon="12.794096233082662"><ele>164.0</ele><time>2026-05-01T15:49:58.999Z</time></trkpt><trkpt lat="41.91890657082289" lon="12.79370603893952"><ele>164.0</ele><time>2026-05-01T15:49:59.999Z</time></trkpt><trkpt lat="41.9190178964337" lon="12.79331408241014"><ele>163.0</ele><time>2026-05-01T15:50:00.999Z</time></trkpt><trkpt lat="41.91912999941034" lon="12.79292188849988"><ele>162.0</ele><time>2026-05-01T15:50:01.999Z</time></trkpt><trkpt lat="41.919241459169655" lon="12.792526502342398"><ele>158.5</ele><time>2026-05-01T15:50:02.999Z</time></trkpt><trkpt lat="41.919352599695884" lon="12.792130334584073"><ele>155.0</ele><time>2026-05-01T15:50:03.999Z</time></trkpt><trkpt lat="41.91946194257863" lon="12.791731965849598"><ele>155.0</ele><time>2026-05-01T15:50:04.999Z</time></trkpt><trkpt lat="41.91957301555812" lon="12.791332704221295"><ele>155.0</ele><time>2026-05-01T15:50:05.999Z</time></trkpt><trkpt lat="41.91968397735943" lon="12.790934366003947"><ele>154.0</ele><time>2026-05-01T15:50:06.999Z</time></trkpt><trkpt lat="41.919795090949336" lon="12.790533666751706"><ele>153.0</ele><time>2026-05-01T15:50:07.999Z</time></trkpt><trkpt lat="41.9199056329377" lon="12.790134043853374"><ele>151.0</ele><time>2026-05-01T15:50:08.999Z</time></trkpt><trkpt lat="41.920016786634434" lon="12.789735538124258"><ele>149.0</ele><time>2026-05-01T15:50:09.999Z</time></trkpt><trkpt lat="41.92012853722748" lon="12.78933480955365"><ele>147.0</ele><time>2026-05-01T15:50:10.999Z</time></trkpt><trkpt lat="41.920241516307655" lon="12.788935194856684"><ele>145.0</ele><time>2026-05-01T15:50:11.999Z</time></trkpt><trkpt lat="41.92035745611291" lon="12.788533593065761"><ele>145.0</ele><time>2026-05-01T15:50:12.999Z</time></trkpt><trkpt lat="41.92047198009288" lon="12.788127064187005"><ele>145.0</ele><time>2026-05-01T15:50:13.999Z</time></trkpt><trkpt lat="41.92058755844497" lon="12.787721783427429"><ele>143.0</ele><time>2026-05-01T15:50:14.999Z</time></trkpt><trkpt lat="41.92070311751784" lon="12.787318032214984"><ele>141.0</ele><time>2026-05-01T15:50:15.999Z</time></trkpt><trkpt lat="41.92081413602669" lon="12.786915924328195"><ele>140.0</ele><time>2026-05-01T15:50:16.999Z</time></trkpt><trkpt lat="41.92092592641419" lon="12.786513408897354"><ele>139.0</ele><time>2026-05-01T15:50:17.999Z</time></trkpt><trkpt lat="41.921037038661304" lon="12.786110053599392"><ele>137.5</ele><time>2026-05-01T15:50:18.999Z</time></trkpt><trkpt lat="41.92114782353655" lon="12.78571086128715"><ele>136.0</ele><time>2026-05-01T15:50:19.999Z</time></trkpt><trkpt lat="41.92126079201603" lon="12.785316443254613"><ele>135.5</ele><time>2026-05-01T15:50:20.999Z</time></trkpt><trkpt lat="41.9213695753123" lon="12.784922754491111"><ele>135.0</ele><time>2026-05-01T15:50:21.999Z</time></trkpt><trkpt lat="41.921482555165014" lon="12.784530933515061"><ele>134.0</ele><time>2026-05-01T15:50:22.999Z</time></trkpt><trkpt lat="41.92159230736729" lon="12.784137614369476"><ele>133.0</ele><time>2026-05-01T15:50:23.999Z</time></trkpt><trkpt lat="41.92169976709247" lon="12.7837486998294"><ele>129.5</ele><time>2026-05-01T15:50:24.999Z</time></trkpt><trkpt lat="41.92180852506317" lon="12.783361862265167"><ele>126.0</ele><time>2026-05-01T15:50:25.999Z</time></trkpt><trkpt lat="41.92191677077047" lon="12.782975348606774"><ele>126.5</ele><time>2026-05-01T15:50:26.999Z</time></trkpt><trkpt lat="41.922023731928086" lon="12.782591108800425"><ele>127.0</ele><time>2026-05-01T15:50:27.999Z</time></trkpt><trkpt lat="41.922133420460995" lon="12.782207004252248"><ele>126.5</ele><time>2026-05-01T15:50:28.998Z</time></trkpt><trkpt lat="41.92224177118064" lon="12.781826024731568"><ele>126.0</ele><time>2026-05-01T15:50:29.998Z</time></trkpt><trkpt lat="41.92234895852278" lon="12.78144779840012"><ele>126.0</ele><time>2026-05-01T15:50:30.998Z</time></trkpt><trkpt lat="41.922456583953036" lon="12.781069335251482"><ele>126.0</ele><time>2026-05-01T15:50:31.998Z</time></trkpt><trkpt lat="41.92256164509497" lon="12.78069100671621"><ele>124.5</ele><time>2026-05-01T15:50:32.998Z</time></trkpt><trkpt lat="41.92266675297632" lon="12.780319749299233"><ele>123.0</ele><time>2026-05-01T15:50:33.998Z</time></trkpt><trkpt lat="41.9227745238727" lon="12.779947430024386"><ele>123.0</ele><time>2026-05-01T15:50:34.998Z</time></trkpt><trkpt lat="41.922881105250816" lon="12.779581200612569"><ele>123.0</ele><time>2026-05-01T15:50:35.998Z</time></trkpt><trkpt lat="41.922984820393836" lon="12.779208941501373"><ele>122.5</ele><time>2026-05-01T15:50:36.998Z</time></trkpt><trkpt lat="41.92308657494976" lon="12.778833420558737"><ele>122.0</ele><time>2026-05-01T15:50:37.998Z</time></trkpt><trkpt lat="41.92318860670312" lon="12.778457534606169"><ele>122.0</ele><time>2026-05-01T15:50:38.998Z</time></trkpt><trkpt lat="41.923294554058955" lon="12.778081112103662"><ele>122.0</ele><time>2026-05-01T15:50:39.998Z</time></trkpt><trkpt lat="41.92340018095012" lon="12.77770886904965"><ele>119.5</ele><time>2026-05-01T15:50:40.998Z</time></trkpt><trkpt lat="41.923504173313624" lon="12.77733592047968"><ele>117.0</ele><time>2026-05-01T15:50:41.998Z</time></trkpt><trkpt lat="41.92360645222213" lon="12.77696583747637"><ele>117.5</ele><time>2026-05-01T15:50:42.998Z</time></trkpt><trkpt lat="41.92371012476601" lon="12.77659864757793"><ele>118.0</ele><time>2026-05-01T15:50:43.998Z</time></trkpt><trkpt lat="41.92381445383242" lon="12.776232613327231"><ele>116.5</ele><time>2026-05-01T15:50:45Z</time></trkpt><trkpt lat="41.92391524344319" lon="12.775868240844687"><ele>115.0</ele><time>2026-05-01T15:50:46Z</time></trkpt><trkpt lat="41.9240149847061" lon="12.775507677502869"><ele>112.0</ele><time>2026-05-01T15:50:47Z</time></trkpt><trkpt lat="41.92411412928064" lon="12.77514536973613"><ele>109.0</ele><time>2026-05-01T15:50:48Z</time></trkpt><trkpt lat="41.92421341404394" lon="12.774791454885069"><ele>108.5</ele><time>2026-05-01T15:50:49Z</time></trkpt><trkpt lat="41.92431351184501" lon="12.77443404817782"><ele>108.0</ele><time>2026-05-01T15:50:50Z</time></trkpt><trkpt lat="41.92441413341097" lon="12.774075208196555"><ele>105.5</ele><time>2026-05-01T15:50:51Z</time></trkpt><trkpt lat="41.92451467490576" lon="12.773713128729163"><ele>103.0</ele><time>2026-05-01T15:50:52Z</time></trkpt><trkpt lat="41.92461801261904" lon="12.77334876288187"><ele>97.5</ele><time>2026-05-01T15:50:53Z</time></trkpt><trkpt lat="41.92472156652931" lon="12.772984566949454"><ele>92.0</ele><time>2026-05-01T15:50:54Z</time></trkpt><trkpt lat="41.92482295102094" lon="12.7726153979709"><ele>91.0</ele><time>2026-05-01T15:50:55Z</time></trkpt><trkpt lat="41.92492166228701" lon="12.772246058260812"><ele>90.0</ele><time>2026-05-01T15:50:56Z</time></trkpt><trkpt lat="41.92501804245605" lon="12.77186831411013"><ele>86.5</ele><time>2026-05-01T15:50:57Z</time></trkpt><trkpt lat="41.925118269095115" lon="12.771490446610581"><ele>83.0</ele><time>2026-05-01T15:50:58Z</time></trkpt><trkpt lat="41.925217329772124" lon="12.77111780531942"><ele>89.0</ele><time>2026-05-01T15:50:59Z</time></trkpt><trkpt lat="41.925318502641595" lon="12.770741304089217"><ele>95.0</ele><time>2026-05-01T15:51:00Z</time></trkpt><trkpt lat="41.92542398628842" lon="12.770366779008317"><ele>101.0</ele><time>2026-05-01T15:51:01Z</time></trkpt><trkpt lat="41.92553101257838" lon="12.769993497036397"><ele>107.0</ele><time>2026-05-01T15:51:02Z</time></trkpt><trkpt lat="41.92563865744023" lon="12.769622429230234"><ele>107.0</ele><time>2026-05-01T15:51:03Z</time></trkpt><trkpt lat="41.92574874462949" lon="12.769252409265958"><ele>107.0</ele><time>2026-05-01T15:51:04Z</time></trkpt><trkpt lat="41.92585608623898" lon="12.768877622815598"><ele>105.0</ele><time>2026-05-01T15:51:05Z</time></trkpt><trkpt lat="41.92596282146878" lon="12.76850376630047"><ele>103.0</ele><time>2026-05-01T15:51:06Z</time></trkpt><trkpt lat="41.92607071946755" lon="12.768129335828567"><ele>103.0</ele><time>2026-05-01T15:51:07Z</time></trkpt><trkpt lat="41.92617805274246" lon="12.76774999183"><ele>103.0</ele><time>2026-05-01T15:51:08Z</time></trkpt><trkpt lat="41.92628363519457" lon="12.767372389577915"><ele>104.0</ele><time>2026-05-01T15:51:09Z</time></trkpt><trkpt lat="41.92638808570849" lon="12.766992216999089"><ele>105.0</ele><time>2026-05-01T15:51:10Z</time></trkpt><trkpt lat="41.92649108663412" lon="12.766611767987516"><ele>105.0</ele><time>2026-05-01T15:51:11Z</time></trkpt><trkpt lat="41.92659044464509" lon="12.766226536764359"><ele>105.0</ele><time>2026-05-01T15:51:12Z</time></trkpt><trkpt lat="41.92668707950905" lon="12.765834817274634"><ele>105.0</ele><time>2026-05-01T15:51:13Z</time></trkpt><trkpt lat="41.92677672664116" lon="12.765448739103837"><ele>105.0</ele><time>2026-05-01T15:51:14Z</time></trkpt><trkpt lat="41.926870195782335" lon="12.765057503825743"><ele>103.0</ele><time>2026-05-01T15:51:15Z</time></trkpt><trkpt lat="41.92696055567608" lon="12.764664802660645"><ele>101.0</ele><time>2026-05-01T15:51:16Z</time></trkpt><trkpt lat="41.92704625396612" lon="12.764267364442457"><ele>101.0</ele><time>2026-05-01T15:51:17Z</time></trkpt><trkpt lat="41.92712902693468" lon="12.763863708368518"><ele>101.0</ele><time>2026-05-01T15:51:18Z</time></trkpt><trkpt lat="41.9272050271409" lon="12.763459029420368"><ele>97.0</ele><time>2026-05-01T15:51:19Z</time></trkpt><trkpt lat="41.92727493291822" lon="12.763057740062017"><ele>93.0</ele><time>2026-05-01T15:51:20Z</time></trkpt><trkpt lat="41.92734953574174" lon="12.76265190975965"><ele>86.5</ele><time>2026-05-01T15:51:21Z</time></trkpt><trkpt lat="41.92741950291086" lon="12.762247696555256"><ele>80.0</ele><time>2026-05-01T15:51:22Z</time></trkpt><trkpt lat="41.927481884092" lon="12.76184377984829"><ele>76.5</ele><time>2026-05-01T15:51:23Z</time></trkpt><trkpt lat="41.927540093111105" lon="12.761436951121896"><ele>73.0</ele><time>2026-05-01T15:51:24Z</time></trkpt><trkpt lat="41.9275936883104" lon="12.76103047510594"><ele>73.0</ele><time>2026-05-01T15:51:25Z</time></trkpt><trkpt lat="41.927648123259495" lon="12.760624950023901"><ele>73.0</ele><time>2026-05-01T15:51:26Z</time></trkpt><trkpt lat="41.92769202102604" lon="12.760221558402781"><ele>70.0</ele><time>2026-05-01T15:51:27Z</time></trkpt><trkpt lat="41.92773247714147" lon="12.759816126964283"><ele>67.0</ele><time>2026-05-01T15:51:28Z</time></trkpt><trkpt lat="41.92777027262064" lon="12.759410723768099"><ele>65.0</ele><time>2026-05-01T15:51:29Z</time></trkpt><trkpt lat="41.92780509142962" lon="12.759001982120521"><ele>63.0</ele><time>2026-05-01T15:51:30Z</time></trkpt><trkpt lat="41.92783689286987" lon="12.758590433834891"><ele>62.0</ele><time>2026-05-01T15:51:31Z</time></trkpt><trkpt lat="41.92786557625625" lon="12.758180218037241"><ele>61.0</ele><time>2026-05-01T15:51:32Z</time></trkpt><trkpt lat="41.92789124415529" lon="12.757767675834769"><ele>61.0</ele><time>2026-05-01T15:51:33Z</time></trkpt><trkpt lat="41.92791324581106" lon="12.757355637190647"><ele>61.0</ele><time>2026-05-01T15:51:34Z</time></trkpt><trkpt lat="41.92793151997753" lon="12.756944056325887"><ele>62.5</ele><time>2026-05-01T15:51:34.999Z</time></trkpt><trkpt lat="41.92794729476231" lon="12.756532806657253"><ele>64.0</ele><time>2026-05-01T15:51:35.999Z</time></trkpt><trkpt lat="41.92795681496282" lon="12.756122811935406"><ele>65.5</ele><time>2026-05-01T15:51:36.999Z</time></trkpt><trkpt lat="41.92796174736082" lon="12.75571161230263"><ele>67.0</ele><time>2026-05-01T15:51:37.999Z</time></trkpt><trkpt lat="41.92796473255591" lon="12.75529942311405"><ele>67.0</ele><time>2026-05-01T15:51:38.999Z</time></trkpt><trkpt lat="41.92796474188025" lon="12.754885313269456"><ele>67.0</ele><time>2026-05-01T15:51:39.999Z</time></trkpt><trkpt lat="41.92796278156213" lon="12.75447461828828"><ele>66.0</ele><time>2026-05-01T15:51:40.999Z</time></trkpt><trkpt lat="41.92795153501958" lon="12.754064455184562"><ele>65.0</ele><time>2026-05-01T15:51:41.999Z</time></trkpt><trkpt lat="41.92794052658357" lon="12.753654229562168"><ele>66.5</ele><time>2026-05-01T15:51:42.999Z</time></trkpt><trkpt lat="41.92793290878728" lon="12.753248750461337"><ele>68.0</ele><time>2026-05-01T15:51:43.999Z</time></trkpt><trkpt lat="41.92792251202377" lon="12.752852176990073"><ele>71.5</ele><time>2026-05-01T15:51:44.999Z</time></trkpt><trkpt lat="41.92791010698211" lon="12.752478803914286"><ele>75.0</ele><time>2026-05-01T15:51:45.999Z</time></trkpt><trkpt lat="41.927894940867105" lon="12.752134337835285"><ele>76.5</ele><time>2026-05-01T15:51:46.999Z</time></trkpt><trkpt lat="41.92788063080017" lon="12.751814743766007"><ele>78.0</ele><time>2026-05-01T15:51:47.999Z</time></trkpt><trkpt lat="41.92785709032307" lon="12.75148342960199"><ele>78.0</ele><time>2026-05-01T15:51:48.999Z</time></trkpt><trkpt lat="41.92784355734102" lon="12.751146136815485"><ele>78.0</ele><time>2026-05-01T15:51:49.999Z</time></trkpt><trkpt lat="41.9278419980456" lon="12.750808970191214"><ele>78.0</ele><time>2026-05-01T15:51:50.999Z</time></trkpt><trkpt lat="41.92784607520228" lon="12.750482003506239"><ele>78.0</ele><time>2026-05-01T15:51:51.999Z</time></trkpt><trkpt lat="41.92784953928378" lon="12.750168073612379"><ele>77.66666666666667</ele><time>2026-05-01T15:51:52.999Z</time></trkpt><trkpt lat="41.927849584907655" lon="12.749865742365118"><ele>77.33333333333334</ele><time>2026-05-01T15:51:53.999Z</time></trkpt><trkpt lat="41.92784454833055" lon="12.74957273731919"><ele>77.0</ele><time>2026-05-01T15:51:54.999Z</time></trkpt><trkpt lat="41.92784224838776" lon="12.74928578091226"><ele>74.66666666666667</ele><time>2026-05-01T15:51:55.999Z</time></trkpt><trkpt lat="41.9278411340096" lon="12.749009129795402"><ele>72.33333333333333</ele><time>2026-05-01T15:51:56.999Z</time></trkpt><trkpt lat="41.92784011767927" lon="12.748740812711887"><ele>70.0</ele><time>2026-05-01T15:51:57.999Z</time></trkpt><trkpt lat="41.927834599070096" lon="12.74848320881217"><ele>66.33333333333333</ele><time>2026-05-01T15:51:58.999Z</time></trkpt><trkpt lat="41.92783191460524" lon="12.748221734411617"><ele>62.66666666666667</ele><time>2026-05-01T15:51:59.999Z</time></trkpt><trkpt lat="41.92782671747849" lon="12.747957229003534"><ele>59.0</ele><time>2026-05-01T15:52:00.999Z</time></trkpt><trkpt lat="41.92782199467624" lon="12.747697446716085"><ele>56.333333333333336</ele><time>2026-05-01T15:52:01.999Z</time></trkpt><trkpt lat="41.92782297883358" lon="12.747434823351815"><ele>53.66666666666667</ele><time>2026-05-01T15:52:02.999Z</time></trkpt><trkpt lat="41.92782943245818" lon="12.747176512637035"><ele>51.0</ele><time>2026-05-01T15:52:03.999Z</time></trkpt><trkpt lat="41.92784115429385" lon="12.746922335954116"><ele>49.333333333333336</ele><time>2026-05-01T15:52:04.999Z</time></trkpt><trkpt lat="41.92785746703374" lon="12.746674236292783"><ele>47.66666666666667</ele><time>2026-05-01T15:52:05.999Z</time></trkpt><trkpt lat="41.927875038820524" lon="12.74643278982498"><ele>46.0</ele><time>2026-05-01T15:52:06.999Z</time></trkpt><trkpt lat="41.92790148979825" lon="12.746200567113913"><ele>45.66666666666667</ele><time>2026-05-01T15:52:07.999Z</time></trkpt><trkpt lat="41.927934668185145" lon="12.745979222554402"><ele>45.333333333333336</ele><time>2026-05-01T15:52:08.999Z</time></trkpt><trkpt lat="41.92797160751615" lon="12.745766883376342"><ele>45.0</ele><time>2026-05-01T15:52:09.999Z</time></trkpt><trkpt lat="41.92801455505151" lon="12.745563695093233"><ele>45.0</ele><time>2026-05-01T15:52:10.999Z</time></trkpt><trkpt lat="41.92806346722705" lon="12.745367573694637"><ele>45.0</ele><time>2026-05-01T15:52:11.999Z</time></trkpt><trkpt lat="41.92811102307404" lon="12.745162984151856"><ele>45.0</ele><time>2026-05-01T15:52:12.999Z</time></trkpt><trkpt lat="41.92816672822863" lon="12.744961341757769"><ele>45.0</ele><time>2026-05-01T15:52:13.999Z</time></trkpt><trkpt lat="41.92822903126396" lon="12.744760142712293"><ele>45.0</ele><time>2026-05-01T15:52:14.999Z</time></trkpt><trkpt lat="41.92829103926345" lon="12.744562165314916"><ele>45.0</ele><time>2026-05-01T15:52:15.999Z</time></trkpt><trkpt lat="41.92835664053238" lon="12.744367003315626"><ele>44.333333333333336</ele><time>2026-05-01T15:52:16.999Z</time></trkpt><trkpt lat="41.928421192390395" lon="12.744173542093929"><ele>43.66666666666667</ele><time>2026-05-01T15:52:17.999Z</time></trkpt><trkpt lat="41.9284900684404" lon="12.7439914040661"><ele>43.0</ele><time>2026-05-01T15:52:18.999Z</time></trkpt><trkpt lat="41.928565090754084" lon="12.74380833620156"><ele>43.0</ele><time>2026-05-01T15:52:19.999Z</time></trkpt><trkpt lat="41.92864920078717" lon="12.743616865857666"><ele>43.0</ele><time>2026-05-01T15:52:20.999Z</time></trkpt><trkpt lat="41.92873589536325" lon="12.743428545357473"><ele>43.0</ele><time>2026-05-01T15:52:21.999Z</time></trkpt><trkpt lat="41.928823107985025" lon="12.743233296601476"><ele>43.0</ele><time>2026-05-01T15:52:22.999Z</time></trkpt><trkpt lat="41.92890971906274" lon="12.743039106110286"><ele>43.0</ele><time>2026-05-01T15:52:23.999Z</time></trkpt><trkpt lat="41.92900106458139" lon="12.742842671059075"><ele>43.0</ele><time>2026-05-01T15:52:24.999Z</time></trkpt><trkpt lat="41.929094099047155" lon="12.742653595539718"><ele>43.333333333333336</ele><time>2026-05-01T15:52:25.999Z</time></trkpt><trkpt lat="41.92918626291191" lon="12.742475809436614"><ele>43.666666666666664</ele><time>2026-05-01T15:52:26.999Z</time></trkpt><trkpt lat="41.9292786025023" lon="12.742304082114998"><ele>44.0</ele><time>2026-05-01T15:52:27.999Z</time></trkpt><trkpt lat="41.92936748922616" lon="12.742125716921375"><ele>44.0</ele><time>2026-05-01T15:52:28.999Z</time></trkpt><trkpt lat="41.92945267410319" lon="12.74194555896354"><ele>44.0</ele><time>2026-05-01T15:52:29.998Z</time></trkpt><trkpt lat="41.92953702436344" lon="12.741767321881476"><ele>44.0</ele><time>2026-05-01T15:52:30.998Z</time></trkpt><trkpt lat="41.92961982248129" lon="12.741583184248352"><ele>45.0</ele><time>2026-05-01T15:52:31.998Z</time></trkpt><trkpt lat="41.929697008278346" lon="12.74139651787259"><ele>46.0</ele><time>2026-05-01T15:52:32.998Z</time></trkpt><trkpt lat="41.92977381799179" lon="12.741207621399528"><ele>47.0</ele><time>2026-05-01T15:52:33.998Z</time></trkpt><trkpt lat="41.92984805451287" lon="12.741017178423817"><ele>47.0</ele><time>2026-05-01T15:52:34.998Z</time></trkpt><trkpt lat="41.92991699564308" lon="12.740819815680492"><ele>47.0</ele><time>2026-05-01T15:52:35.998Z</time></trkpt><trkpt lat="41.929978055248" lon="12.740615538657647"><ele>47.0</ele><time>2026-05-01T15:52:36.998Z</time></trkpt><trkpt lat="41.93003616595225" lon="12.740405868430727"><ele>48.33333333333333</ele><time>2026-05-01T15:52:37.998Z</time></trkpt><trkpt lat="41.930091784193685" lon="12.740196402013229"><ele>49.666666666666664</ele><time>2026-05-01T15:52:38.998Z</time></trkpt><trkpt lat="41.930127239870316" lon="12.739985529869601"><ele>51.0</ele><time>2026-05-01T15:52:39.998Z</time></trkpt><trkpt lat="41.93015880382929" lon="12.739769741355252"><ele>51.0</ele><time>2026-05-01T15:52:40.998Z</time></trkpt><trkpt lat="41.93018186518488" lon="12.739551590729832"><ele>51.0</ele><time>2026-05-01T15:52:41.998Z</time></trkpt><trkpt lat="41.93019921306866" lon="12.739329996673181"><ele>51.0</ele><time>2026-05-01T15:52:42.998Z</time></trkpt><trkpt lat="41.930198639703654" lon="12.739105735992897"><ele>50.0</ele><time>2026-05-01T15:52:43.998Z</time></trkpt><trkpt lat="41.93018009297335" lon="12.73888429663591"><ele>49.0</ele><time>2026-05-01T15:52:44.998Z</time></trkpt><trkpt lat="41.93015438157847" lon="12.738658710327158"><ele>48.0</ele><time>2026-05-01T15:52:45.998Z</time></trkpt><trkpt lat="41.93011321532458" lon="12.738450437134478"><ele>47.666666666666664</ele><time>2026-05-01T15:52:46.998Z</time></trkpt><trkpt lat="41.930061428664274" lon="12.738249441418425"><ele>47.33333333333333</ele><time>2026-05-01T15:52:47.998Z</time></trkpt><trkpt lat="41.929998589629186" lon="12.738047573897665"><ele>47.0</ele><time>2026-05-01T15:52:48.998Z</time></trkpt><trkpt lat="41.92992049053321" lon="12.73784418958241"><ele>46.0</ele><time>2026-05-01T15:52:50Z</time></trkpt><trkpt lat="41.92982931271205" lon="12.737651011652463"><ele>45.0</ele><time>2026-05-01T15:52:51Z</time></trkpt><trkpt lat="41.929729695494494" lon="12.737468074384342"><ele>44.0</ele><time>2026-05-01T15:52:52Z</time></trkpt><trkpt lat="41.929618913056544" lon="12.737300049417462"><ele>44.0</ele><time>2026-05-01T15:52:53Z</time></trkpt><trkpt lat="41.92949718700471" lon="12.737147081370736"><ele>44.0</ele><time>2026-05-01T15:52:54Z</time></trkpt><trkpt lat="41.9293644464138" lon="12.737008122011359"><ele>44.0</ele><time>2026-05-01T15:52:55Z</time></trkpt><trkpt lat="41.929222671456245" lon="12.736879058126007"><ele>46.0</ele><time>2026-05-01T15:52:56Z</time></trkpt><trkpt lat="41.92907594347907" lon="12.736764918966912"><ele>48.0</ele><time>2026-05-01T15:52:57Z</time></trkpt><trkpt lat="41.928926320521754" lon="12.73665891070897"><ele>50.0</ele><time>2026-05-01T15:52:58Z</time></trkpt><trkpt lat="41.92877241623466" lon="12.736565981254426"><ele>50.0</ele><time>2026-05-01T15:52:59Z</time></trkpt><trkpt lat="41.92861208109887" lon="12.73649186282535"><ele>50.0</ele><time>2026-05-01T15:53:00Z</time></trkpt><trkpt lat="41.92844717453957" lon="12.736439402732355"><ele>50.0</ele><time>2026-05-01T15:53:01Z</time></trkpt><trkpt lat="41.92828663874277" lon="12.736400549443653"><ele>49.333333333333336</ele><time>2026-05-01T15:53:02Z</time></trkpt><trkpt lat="41.92812251887494" lon="12.736370756402081"><ele>48.66666666666667</ele><time>2026-05-01T15:53:03Z</time></trkpt><trkpt lat="41.92795483810935" lon="12.736358529854202"><ele>48.0</ele><time>2026-05-01T15:53:04Z</time></trkpt><trkpt lat="41.9277846368282" lon="12.736365506478336"><ele>48.0</ele><time>2026-05-01T15:53:05Z</time></trkpt><trkpt lat="41.927617078926204" lon="12.736392666044301"><ele>48.0</ele><time>2026-05-01T15:53:06Z</time></trkpt><trkpt lat="41.9274477004393" lon="12.736434373827674"><ele>48.0</ele><time>2026-05-01T15:53:07Z</time></trkpt><trkpt lat="41.92727839038561" lon="12.736488107571427"><ele>48.0</ele><time>2026-05-01T15:53:08Z</time></trkpt><trkpt lat="41.927112246183405" lon="12.736562016872819"><ele>48.0</ele><time>2026-05-01T15:53:09Z</time></trkpt><trkpt lat="41.92694699015448" lon="12.736650635980306"><ele>48.0</ele><time>2026-05-01T15:53:10Z</time></trkpt><trkpt lat="41.92678226073054" lon="12.736743692465799"><ele>47.666666666666664</ele><time>2026-05-01T15:53:11Z</time></trkpt><trkpt lat="41.9266266366986" lon="12.736853198352112"><ele>47.33333333333333</ele><time>2026-05-01T15:53:12Z</time></trkpt><trkpt lat="41.926478029990776" lon="12.736976275777014"><ele>47.0</ele><time>2026-05-01T15:53:13Z</time></trkpt><trkpt lat="41.926364204686514" lon="12.737113094331859"><ele>47.0</ele><time>2026-05-01T15:53:14Z</time></trkpt><trkpt lat="41.92623590863748" lon="12.737268589683735"><ele>47.0</ele><time>2026-05-01T15:53:15Z</time></trkpt><trkpt lat="41.92611759071043" lon="12.737431212808303"><ele>47.0</ele><time>2026-05-01T15:53:16Z</time></trkpt><trkpt lat="41.925998734755545" lon="12.73761992567157"><ele>46.33333333333333</ele><time>2026-05-01T15:53:17Z</time></trkpt><trkpt lat="41.92588417716555" lon="12.737809704996362"><ele>45.666666666666664</ele><time>2026-05-01T15:53:18Z</time></trkpt><trkpt lat="41.92576488215887" lon="12.737994620387466"><ele>45.0</ele><time>2026-05-01T15:53:19Z</time></trkpt><trkpt lat="41.92566533551446" lon="12.738195759934868"><ele>45.0</ele><time>2026-05-01T15:53:20Z</time></trkpt><trkpt lat="41.9255732266317" lon="12.738394837367027"><ele>45.0</ele><time>2026-05-01T15:53:21Z</time></trkpt><trkpt lat="41.925487208407155" lon="12.738607441100427"><ele>45.0</ele><time>2026-05-01T15:53:22Z</time></trkpt><trkpt lat="41.9253992360926" lon="12.738806776891536"><ele>46.0</ele><time>2026-05-01T15:53:23Z</time></trkpt><trkpt lat="41.92530668261341" lon="12.73900299119919"><ele>47.0</ele><time>2026-05-01T15:53:24Z</time></trkpt><trkpt lat="41.925221692402445" lon="12.739192721440903"><ele>48.0</ele><time>2026-05-01T15:53:25Z</time></trkpt><trkpt lat="41.925142969642664" lon="12.739388596892026"><ele>48.66666666666667</ele><time>2026-05-01T15:53:26Z</time></trkpt><trkpt lat="41.92506122952281" lon="12.739581589538819"><ele>49.333333333333336</ele><time>2026-05-01T15:53:27Z</time></trkpt><trkpt lat="41.924977309122106" lon="12.739763628017876"><ele>50.0</ele><time>2026-05-01T15:53:28Z</time></trkpt><trkpt lat="41.924888918244875" lon="12.739938634383845"><ele>50.0</ele><time>2026-05-01T15:53:29Z</time></trkpt><trkpt lat="41.92479861552818" lon="12.740111558143882"><ele>50.0</ele><time>2026-05-01T15:53:30Z</time></trkpt><trkpt lat="41.92471111535145" lon="12.74028081635514"><ele>50.0</ele><time>2026-05-01T15:53:31Z</time></trkpt><trkpt lat="41.924625407100685" lon="12.740447008994256"><ele>50.66666666666667</ele><time>2026-05-01T15:53:32Z</time></trkpt><trkpt lat="41.92453253743526" lon="12.740609382533732"><ele>51.33333333333333</ele><time>2026-05-01T15:53:33Z</time></trkpt><trkpt lat="41.9244335137527" lon="12.740768600867344"><ele>52.0</ele><time>2026-05-01T15:53:34Z</time></trkpt><trkpt lat="41.92433291434417" lon="12.74092654417968"><ele>53.0</ele><time>2026-05-01T15:53:35Z</time></trkpt><trkpt lat="41.924230210036825" lon="12.741085464612539"><ele>54.0</ele><time>2026-05-01T15:53:36Z</time></trkpt><trkpt lat="41.92412408287667" lon="12.741243488574629"><ele>55.0</ele><time>2026-05-01T15:53:37Z</time></trkpt><trkpt lat="41.924014224532094" lon="12.741396519966246"><ele>55.33333333333333</ele><time>2026-05-01T15:53:38Z</time></trkpt><trkpt lat="41.923900240526066" lon="12.741543693034656"><ele>55.66666666666667</ele><time>2026-05-01T15:53:39Z</time></trkpt><trkpt lat="41.923781153436444" lon="12.74169135137096"><ele>56.0</ele><time>2026-05-01T15:53:40Z</time></trkpt><trkpt lat="41.92365769702025" lon="12.741839842108966"><ele>57.0</ele><time>2026-05-01T15:53:41Z</time></trkpt><trkpt lat="41.92353003345789" lon="12.741983226067102"><ele>58.0</ele><time>2026-05-01T15:53:42Z</time></trkpt><trkpt lat="41.92339819604642" lon="12.742122158654436"><ele>59.0</ele><time>2026-05-01T15:53:43Z</time></trkpt><trkpt lat="41.92326252585515" lon="12.742258549744172"><ele>59.66666666666667</ele><time>2026-05-01T15:53:44Z</time></trkpt><trkpt lat="41.92312304155189" lon="12.742394248908575"><ele>60.33333333333333</ele><time>2026-05-01T15:53:45Z</time></trkpt><trkpt lat="41.92298013564694" lon="12.742527640744022"><ele>61.0</ele><time>2026-05-01T15:53:46Z</time></trkpt><trkpt lat="41.92283217904573" lon="12.74266436006897"><ele>61.33333333333333</ele><time>2026-05-01T15:53:46.999Z</time></trkpt><trkpt lat="41.9226780551586" lon="12.74280209034409"><ele>61.66666666666667</ele><time>2026-05-01T15:53:47.999Z</time></trkpt><trkpt lat="41.92251803814202" lon="12.742939468922987"><ele>62.0</ele><time>2026-05-01T15:53:48.999Z</time></trkpt><trkpt lat="41.922351138689486" lon="12.743069680799003"><ele>62.0</ele><time>2026-05-01T15:53:49.999Z</time></trkpt><trkpt lat="41.922174450721094" lon="12.743190970959692"><ele>62.0</ele><time>2026-05-01T15:53:50.999Z</time></trkpt><trkpt lat="41.92199042028219" lon="12.743307388271502"><ele>62.0</ele><time>2026-05-01T15:53:51.999Z</time></trkpt><trkpt lat="41.921803186728255" lon="12.743413588303262"><ele>61.333333333333336</ele><time>2026-05-01T15:53:52.999Z</time></trkpt><trkpt lat="41.92161077822398" lon="12.74351058692583"><ele>60.66666666666667</ele><time>2026-05-01T15:53:53.999Z</time></trkpt><trkpt lat="41.921417749462506" lon="12.74360885600587"><ele>60.0</ele><time>2026-05-01T15:53:54.999Z</time></trkpt><trkpt lat="41.92122534168357" lon="12.743711089224053"><ele>61.33333333333333</ele><time>2026-05-01T15:53:55.999Z</time></trkpt><trkpt lat="41.921031724668495" lon="12.743815512468405"><ele>62.666666666666664</ele><time>2026-05-01T15:53:56.999Z</time></trkpt><trkpt lat="41.920837387465234" lon="12.743918150481111"><ele>64.0</ele><time>2026-05-01T15:53:57.999Z</time></trkpt><trkpt lat="41.92064276585656" lon="12.744020550167855"><ele>64.33333333333333</ele><time>2026-05-01T15:53:58.999Z</time></trkpt><trkpt lat="41.92044543948655" lon="12.744122569219131"><ele>64.66666666666667</ele><time>2026-05-01T15:53:59.999Z</time></trkpt><trkpt lat="41.92024557020201" lon="12.744225407627134"><ele>65.0</ele><time>2026-05-01T15:54:00.999Z</time></trkpt><trkpt lat="41.920045450066155" lon="12.74432776709855"><ele>65.33333333333334</ele><time>2026-05-01T15:54:01.999Z</time></trkpt><trkpt lat="41.919842602842884" lon="12.744431277634726"><ele>65.66666666666667</ele><time>2026-05-01T15:54:02.999Z</time></trkpt><trkpt lat="41.91963303725222" lon="12.744538774839949"><ele>66.0</ele><time>2026-05-01T15:54:03.999Z</time></trkpt><trkpt lat="41.91942147406125" lon="12.744649277026063"><ele>67.0</ele><time>2026-05-01T15:54:04.999Z</time></trkpt><trkpt lat="41.91920587890492" lon="12.74476239955693"><ele>68.0</ele><time>2026-05-01T15:54:05.999Z</time></trkpt><trkpt lat="41.91898699654196" lon="12.74487720835189"><ele>68.0</ele><time>2026-05-01T15:54:06.999Z</time></trkpt><trkpt lat="41.91876359181792" lon="12.744994951105687"><ele>68.0</ele><time>2026-05-01T15:54:07.999Z</time></trkpt><trkpt lat="41.9185377108337" lon="12.745113434183653"><ele>70.5</ele><time>2026-05-01T15:54:08.999Z</time></trkpt><trkpt lat="41.91831746269416" lon="12.745228286406178"><ele>73.0</ele><time>2026-05-01T15:54:09.999Z</time></trkpt><trkpt lat="41.918094737825086" lon="12.745347726189689"><ele>73.0</ele><time>2026-05-01T15:54:10.999Z</time></trkpt><trkpt lat="41.917869635766976" lon="12.745472830137853"><ele>73.0</ele><time>2026-05-01T15:54:11.999Z</time></trkpt><trkpt lat="41.91764240457086" lon="12.745599622881636"><ele>75.5</ele><time>2026-05-01T15:54:12.999Z</time></trkpt><trkpt lat="41.917412969349634" lon="12.745723152577481"><ele>78.0</ele><time>2026-05-01T15:54:13.999Z</time></trkpt><trkpt lat="41.91718239668037" lon="12.745843544071121"><ele>78.0</ele><time>2026-05-01T15:54:14.999Z</time></trkpt><trkpt lat="41.91694844452189" lon="12.745964140451939"><ele>78.0</ele><time>2026-05-01T15:54:15.999Z</time></trkpt><trkpt lat="41.91671233688027" lon="12.746082100024621"><ele>82.0</ele><time>2026-05-01T15:54:16.999Z</time></trkpt><trkpt lat="41.91647432291146" lon="12.746202687660057"><ele>86.0</ele><time>2026-05-01T15:54:17.999Z</time></trkpt><trkpt lat="41.91623501490966" lon="12.746325299098313"><ele>86.0</ele><time>2026-05-01T15:54:18.999Z</time></trkpt><trkpt lat="41.91599409680785" lon="12.746451734406223"><ele>86.0</ele><time>2026-05-01T15:54:19.999Z</time></trkpt><trkpt lat="41.91575250192531" lon="12.746579050226075"><ele>88.0</ele><time>2026-05-01T15:54:20.999Z</time></trkpt><trkpt lat="41.915508016498045" lon="12.7467070313039"><ele>90.0</ele><time>2026-05-01T15:54:21.999Z</time></trkpt><trkpt lat="41.915262483981664" lon="12.746835837253196"><ele>93.0</ele><time>2026-05-01T15:54:22.999Z</time></trkpt><trkpt lat="41.915016726682005" lon="12.746964306447323"><ele>96.0</ele><time>2026-05-01T15:54:23.999Z</time></trkpt><trkpt lat="41.9147702591746" lon="12.74709380138237"><ele>96.0</ele><time>2026-05-01T15:54:24.999Z</time></trkpt><trkpt lat="41.914522908390886" lon="12.747221974044848"><ele>96.0</ele><time>2026-05-01T15:54:25.999Z</time></trkpt><trkpt lat="41.914274826176545" lon="12.747346899504404"><ele>94.5</ele><time>2026-05-01T15:54:26.999Z</time></trkpt><trkpt lat="41.914028941589216" lon="12.747468790545607"><ele>93.0</ele><time>2026-05-01T15:54:27.999Z</time></trkpt><trkpt lat="41.913785978009834" lon="12.74758823974426"><ele>93.0</ele><time>2026-05-01T15:54:28.999Z</time></trkpt><trkpt lat="41.91354760657524" lon="12.747703945217921"><ele>93.0</ele><time>2026-05-01T15:54:29.999Z</time></trkpt><trkpt lat="41.9133139640152" lon="12.74781797346267"><ele>94.0</ele><time>2026-05-01T15:54:30.999Z</time></trkpt><trkpt lat="41.91308519123115" lon="12.74793034343564"><ele>95.0</ele><time>2026-05-01T15:54:31.999Z</time></trkpt><trkpt lat="41.912859271066885" lon="12.748041373364725"><ele>95.0</ele><time>2026-05-01T15:54:32.999Z</time></trkpt><trkpt lat="41.912638215253146" lon="12.748148890014553"><ele>95.0</ele><time>2026-05-01T15:54:33.999Z</time></trkpt><trkpt lat="41.91241977565619" lon="12.74825780739514"><ele>95.5</ele><time>2026-05-01T15:54:34.999Z</time></trkpt><trkpt lat="41.91220341324871" lon="12.748366891605173"><ele>96.0</ele><time>2026-05-01T15:54:35.999Z</time></trkpt><trkpt lat="41.911986128603544" lon="12.748473817144552"><ele>96.0</ele><time>2026-05-01T15:54:36.999Z</time></trkpt><trkpt lat="41.911771094956656" lon="12.748581297646808"><ele>96.0</ele><time>2026-05-01T15:54:37.999Z</time></trkpt><trkpt lat="41.911554607526284" lon="12.748691333125716"><ele>98.0</ele><time>2026-05-01T15:54:38.999Z</time></trkpt><trkpt lat="41.91133797696987" lon="12.748799135596899"><ele>100.0</ele><time>2026-05-01T15:54:39.999Z</time></trkpt><trkpt lat="41.91112123606787" lon="12.748905186655328"><ele>102.0</ele><time>2026-05-01T15:54:40.999Z</time></trkpt><trkpt lat="41.91090285654795" lon="12.749006566080922"><ele>104.0</ele><time>2026-05-01T15:54:41.998Z</time></trkpt><trkpt lat="41.91068580746207" lon="12.7491109839917"><ele>104.0</ele><time>2026-05-01T15:54:42.998Z</time></trkpt><trkpt lat="41.91046937097801" lon="12.749219179327575"><ele>104.0</ele><time>2026-05-01T15:54:43.998Z</time></trkpt><trkpt lat="41.91025141035703" lon="12.749329098557114"><ele>106.0</ele><time>2026-05-01T15:54:44.998Z</time></trkpt><trkpt lat="41.91002824485136" lon="12.74943688914752"><ele>108.0</ele><time>2026-05-01T15:54:45.998Z</time></trkpt><trkpt lat="41.909803323379016" lon="12.74953967641743"><ele>108.0</ele><time>2026-05-01T15:54:46.998Z</time></trkpt><trkpt lat="41.90957824315556" lon="12.749642565469392"><ele>108.0</ele><time>2026-05-01T15:54:47.998Z</time></trkpt><trkpt lat="41.90935175130202" lon="12.74974798217292"><ele>107.0</ele><time>2026-05-01T15:54:48.998Z</time></trkpt><trkpt lat="41.90912308035795" lon="12.749852524922037"><ele>106.0</ele><time>2026-05-01T15:54:49.998Z</time></trkpt><trkpt lat="41.90889447875072" lon="12.749954664968303"><ele>106.0</ele><time>2026-05-01T15:54:50.998Z</time></trkpt><trkpt lat="41.908664689504434" lon="12.750055260402794"><ele>106.0</ele><time>2026-05-01T15:54:51.998Z</time></trkpt><trkpt lat="41.908433064792405" lon="12.750154614909171"><ele>108.0</ele><time>2026-05-01T15:54:52.998Z</time></trkpt><trkpt lat="41.908200189330366" lon="12.750251951350425"><ele>110.0</ele><time>2026-05-01T15:54:53.998Z</time></trkpt><trkpt lat="41.907967812355764" lon="12.750347471281147"><ele>110.0</ele><time>2026-05-01T15:54:55Z</time></trkpt><trkpt lat="41.90773645576107" lon="12.750443493306987"><ele>110.0</ele><time>2026-05-01T15:54:56Z</time></trkpt><trkpt lat="41.907502906081305" lon="12.750536986917824"><ele>108.0</ele><time>2026-05-01T15:54:57Z</time></trkpt><trkpt lat="41.907269922498564" lon="12.750631040068702"><ele>106.0</ele><time>2026-05-01T15:54:58Z</time></trkpt><trkpt lat="41.90703594914326" lon="12.750725253281203"><ele>106.0</ele><time>2026-05-01T15:54:59Z</time></trkpt><trkpt lat="41.9068016708366" lon="12.750819138287254"><ele>106.0</ele><time>2026-05-01T15:55:00Z</time></trkpt><trkpt lat="41.90656660319989" lon="12.750911808332882"><ele>105.5</ele><time>2026-05-01T15:55:01Z</time></trkpt><trkpt lat="41.90633103103095" lon="12.751004498183915"><ele>105.0</ele><time>2026-05-01T15:55:02Z</time></trkpt><trkpt lat="41.90609356376643" lon="12.7510962586763"><ele>104.5</ele><time>2026-05-01T15:55:03Z</time></trkpt><trkpt lat="41.90585664355267" lon="12.751188182054793"><ele>104.0</ele><time>2026-05-01T15:55:04Z</time></trkpt><trkpt lat="41.905618490421396" lon="12.751279682831347"><ele>104.0</ele><time>2026-05-01T15:55:05Z</time></trkpt><trkpt lat="41.90538098169264" lon="12.751370667095555"><ele>104.0</ele><time>2026-05-01T15:55:06Z</time></trkpt><trkpt lat="41.90514375627029" lon="12.75146089563729"><ele>106.5</ele><time>2026-05-01T15:55:07Z</time></trkpt><trkpt lat="41.904903751566934" lon="12.751554322216522"><ele>109.0</ele><time>2026-05-01T15:55:08Z</time></trkpt><trkpt lat="41.9046623788963" lon="12.751649324201432"><ele>109.0</ele><time>2026-05-01T15:55:09Z</time></trkpt><trkpt lat="41.90441979685511" lon="12.751744548412587"><ele>109.0</ele><time>2026-05-01T15:55:10Z</time></trkpt><trkpt lat="41.90417621733764" lon="12.751838619197946"><ele>109.5</ele><time>2026-05-01T15:55:11Z</time></trkpt><trkpt lat="41.9039326270377" lon="12.751931915480847"><ele>110.0</ele><time>2026-05-01T15:55:12Z</time></trkpt><trkpt lat="41.903687613288106" lon="12.752025500995824"><ele>110.0</ele><time>2026-05-01T15:55:13Z</time></trkpt><trkpt lat="41.90344086763707" lon="12.75211931261046"><ele>110.0</ele><time>2026-05-01T15:55:14Z</time></trkpt><trkpt lat="41.90319428394106" lon="12.752212415058247"><ele>110.5</ele><time>2026-05-01T15:55:15Z</time></trkpt><trkpt lat="41.90294670728743" lon="12.75230703147534"><ele>111.0</ele><time>2026-05-01T15:55:16Z</time></trkpt><trkpt lat="41.90269775870065" lon="12.752400984795417"><ele>113.0</ele><time>2026-05-01T15:55:17Z</time></trkpt><trkpt lat="41.902448967283775" lon="12.75249518769057"><ele>115.0</ele><time>2026-05-01T15:55:18Z</time></trkpt><trkpt lat="41.902199299481765" lon="12.752589951762724"><ele>115.0</ele><time>2026-05-01T15:55:19Z</time></trkpt><trkpt lat="41.9019496939736" lon="12.752683262644034"><ele>115.0</ele><time>2026-05-01T15:55:20Z</time></trkpt><trkpt lat="41.90169908749362" lon="12.752776171849053"><ele>115.0</ele><time>2026-05-01T15:55:21Z</time></trkpt><trkpt lat="41.90144920542876" lon="12.752868473991422"><ele>115.0</ele><time>2026-05-01T15:55:22Z</time></trkpt><trkpt lat="41.90119979139378" lon="12.752963049000098"><ele>115.0</ele><time>2026-05-01T15:55:23Z</time></trkpt><trkpt lat="41.90095077735989" lon="12.753057222642758"><ele>115.0</ele><time>2026-05-01T15:55:24Z</time></trkpt><trkpt lat="41.900702084175634" lon="12.753150570546946"><ele>116.0</ele><time>2026-05-01T15:55:25Z</time></trkpt><trkpt lat="41.90045312540556" lon="12.7532435274063"><ele>117.0</ele><time>2026-05-01T15:55:26Z</time></trkpt><trkpt lat="41.90020530635097" lon="12.753336955586459"><ele>117.0</ele><time>2026-05-01T15:55:27Z</time></trkpt><trkpt lat="41.899959739264645" lon="12.753430944994154"><ele>117.0</ele><time>2026-05-01T15:55:28Z</time></trkpt><trkpt lat="41.89971372914908" lon="12.753525928105379"><ele>118.0</ele><time>2026-05-01T15:55:29Z</time></trkpt><trkpt lat="41.89946852361012" lon="12.75362135449976"><ele>119.0</ele><time>2026-05-01T15:55:30Z</time></trkpt><trkpt lat="41.899222632718384" lon="12.75371387413528"><ele>119.5</ele><time>2026-05-01T15:55:31Z</time></trkpt><trkpt lat="41.89897868498072" lon="12.753803604974351"><ele>120.0</ele><time>2026-05-01T15:55:32Z</time></trkpt><trkpt lat="41.89873434523323" lon="12.753891900326211"><ele>120.0</ele><time>2026-05-01T15:55:33Z</time></trkpt><trkpt lat="41.89848893129504" lon="12.753987123010988"><ele>120.0</ele><time>2026-05-01T15:55:34Z</time></trkpt><trkpt lat="41.89824277443304" lon="12.754084398157257"><ele>121.0</ele><time>2026-05-01T15:55:35Z</time></trkpt><trkpt lat="41.89799670042208" lon="12.754181395635351"><ele>122.0</ele><time>2026-05-01T15:55:36Z</time></trkpt><trkpt lat="41.897750228847514" lon="12.754277750403862"><ele>123.5</ele><time>2026-05-01T15:55:37Z</time></trkpt><trkpt lat="41.89750372856716" lon="12.75437921792608"><ele>125.0</ele><time>2026-05-01T15:55:38Z</time></trkpt><trkpt lat="41.89725680807171" lon="12.754484603675078"><ele>125.0</ele><time>2026-05-01T15:55:39Z</time></trkpt><trkpt lat="41.897009491480794" lon="12.754596794772047"><ele>125.0</ele><time>2026-05-01T15:55:40Z</time></trkpt><trkpt lat="41.89676128140397" lon="12.754713133732523"><ele>125.0</ele><time>2026-05-01T15:55:41Z</time></trkpt><trkpt lat="41.89651247684923" lon="12.754833493821199"><ele>125.0</ele><time>2026-05-01T15:55:42Z</time></trkpt><trkpt lat="41.896264371551425" lon="12.754957686472057"><ele>125.0</ele><time>2026-05-01T15:55:43Z</time></trkpt><trkpt lat="41.89601750456242" lon="12.755084486425151"><ele>125.0</ele><time>2026-05-01T15:55:44Z</time></trkpt><trkpt lat="41.89576993585207" lon="12.75521401456358"><ele>125.5</ele><time>2026-05-01T15:55:45Z</time></trkpt><trkpt lat="41.89552421192875" lon="12.755347340063079"><ele>126.0</ele><time>2026-05-01T15:55:46Z</time></trkpt><trkpt lat="41.89527605159563" lon="12.755480975677411"><ele>128.5</ele><time>2026-05-01T15:55:47Z</time></trkpt><trkpt lat="41.89502841966185" lon="12.755607357401272"><ele>131.0</ele><time>2026-05-01T15:55:48Z</time></trkpt><trkpt lat="41.89478172749226" lon="12.755731384135723"><ele>131.0</ele><time>2026-05-01T15:55:49Z</time></trkpt><trkpt lat="41.89453543463967" lon="12.755857803638495"><ele>131.0</ele><time>2026-05-01T15:55:50Z</time></trkpt><trkpt lat="41.894292922037344" lon="12.75598860793113"><ele>131.5</ele><time>2026-05-01T15:55:51Z</time></trkpt><trkpt lat="41.89405493835178" lon="12.756129861132193"><ele>132.0</ele><time>2026-05-01T15:55:52Z</time></trkpt><trkpt lat="41.89382765703958" lon="12.756273523643566"><ele>132.0</ele><time>2026-05-01T15:55:52.999Z</time></trkpt><trkpt lat="41.89361248143411" lon="12.756408147873497"><ele>132.0</ele><time>2026-05-01T15:55:53.999Z</time></trkpt><trkpt lat="41.893407402139495" lon="12.756537281708724"><ele>132.33333333333334</ele><time>2026-05-01T15:55:54.999Z</time></trkpt><trkpt lat="41.89321522923467" lon="12.756662421624512"><ele>132.66666666666669</ele><time>2026-05-01T15:55:55.999Z</time></trkpt><trkpt lat="41.89302894559769" lon="12.75680015080205"><ele>133.0</ele><time>2026-05-01T15:55:56.999Z</time></trkpt><trkpt lat="41.89283998137838" lon="12.75693490780843"><ele>134.0</ele><time>2026-05-01T15:55:57.999Z</time></trkpt><trkpt lat="41.89264525915733" lon="12.757056834530049"><ele>135.0</ele><time>2026-05-01T15:55:58.999Z</time></trkpt><trkpt lat="41.892456860235065" lon="12.757163099752502"><ele>136.0</ele><time>2026-05-01T15:55:59.999Z</time></trkpt><trkpt lat="41.89226234041276" lon="12.757267137162462"><ele>136.33333333333334</ele><time>2026-05-01T15:56:00.999Z</time></trkpt><trkpt lat="41.892067583130654" lon="12.75737479167799"><ele>136.66666666666666</ele><time>2026-05-01T15:56:01.999Z</time></trkpt><trkpt lat="41.89187688185129" lon="12.75747974227894"><ele>137.0</ele><time>2026-05-01T15:56:02.999Z</time></trkpt><trkpt lat="41.8916819393028" lon="12.757575681773325"><ele>136.66666666666666</ele><time>2026-05-01T15:56:03.999Z</time></trkpt><trkpt lat="41.89149230219459" lon="12.75764563800554"><ele>136.33333333333334</ele><time>2026-05-01T15:56:04.999Z</time></trkpt><trkpt lat="41.89129736505336" lon="12.757694707085758"><ele>136.0</ele><time>2026-05-01T15:56:05.999Z</time></trkpt><trkpt lat="41.891122018367795" lon="12.757754801290762"><ele>136.0</ele><time>2026-05-01T15:56:06.999Z</time></trkpt><trkpt lat="41.89094602446377" lon="12.757813690979605"><ele>136.0</ele><time>2026-05-01T15:56:07.999Z</time></trkpt><trkpt lat="41.8908023549356" lon="12.757861764542874"><ele>136.0</ele><time>2026-05-01T15:56:08.999Z</time></trkpt><trkpt lat="41.890654010762944" lon="12.757910390689325"><ele>136.4</ele><time>2026-05-01T15:56:09.999Z</time></trkpt><trkpt lat="41.89053735793545" lon="12.757948438979092"><ele>136.8</ele><time>2026-05-01T15:56:10.999Z</time></trkpt><trkpt lat="41.89042103037759" lon="12.757986376835932"><ele>137.20000000000002</ele><time>2026-05-01T15:56:11.999Z</time></trkpt><trkpt lat="41.8903160138502" lon="12.7580212444492"><ele>137.6</ele><time>2026-05-01T15:56:12.999Z</time></trkpt><trkpt lat="41.89022659704715" lon="12.758050876327076"><ele>138.0</ele><time>2026-05-01T15:56:13.999Z</time></trkpt><trkpt lat="41.89013188396785" lon="12.7580819895949"><ele>137.4</ele><time>2026-05-01T15:56:14.999Z</time></trkpt><trkpt lat="41.89002853146496" lon="12.758115940917014"><ele>136.8</ele><time>2026-05-01T15:56:15.999Z</time></trkpt><trkpt lat="41.88992816722161" lon="12.758140987395885"><ele>136.2</ele><time>2026-05-01T15:56:16.999Z</time></trkpt><trkpt lat="41.88984432393909" lon="12.758257617641505"><ele>135.6</ele><time>2026-05-01T15:56:17.999Z</time></trkpt><trkpt lat="41.889773341022504" lon="12.75835460157989"><ele>135.0</ele><time>2026-05-01T15:56:18.999Z</time></trkpt><trkpt lat="41.88971323000276" lon="12.758463535197475"><ele>136.0</ele><time>2026-05-01T15:56:19.999Z</time></trkpt><trkpt lat="41.88967259257775" lon="12.758586494439527"><ele>137.0</ele><time>2026-05-01T15:56:20.999Z</time></trkpt><trkpt lat="41.88956166168666" lon="12.758630366607346"><ele>138.0</ele><time>2026-05-01T15:56:21.999Z</time></trkpt><trkpt lat="41.88947760846812" lon="12.758701028279468"><ele>139.0</ele><time>2026-05-01T15:56:22.999Z</time></trkpt><trkpt lat="41.889392938466045" lon="12.758757882311366"><ele>140.0</ele><time>2026-05-01T15:56:23.999Z</time></trkpt><trkpt lat="41.88931300639233" lon="12.758816039281104"><ele>139.83333333333331</ele><time>2026-05-01T15:56:24.999Z</time></trkpt><trkpt lat="41.88923958339966" lon="12.75887011329726"><ele>139.66666666666666</ele><time>2026-05-01T15:56:25.999Z</time></trkpt><trkpt lat="41.889175283048914" lon="12.758917907209801"><ele>139.5</ele><time>2026-05-01T15:56:26.999Z</time></trkpt><trkpt lat="41.88911166661128" lon="12.7589651927635"><ele>139.33333333333334</ele><time>2026-05-01T15:56:27.999Z</time></trkpt><trkpt lat="41.88905542103453" lon="12.759010081013896"><ele>139.16666666666669</ele><time>2026-05-01T15:56:28.999Z</time></trkpt><trkpt lat="41.889000097659924" lon="12.759054532798629"><ele>139.0</ele><time>2026-05-01T15:56:29.999Z</time></trkpt><trkpt lat="41.88889225218577" lon="12.75914787915345"><ele>139.0</ele><time>2026-05-01T15:56:31.999Z</time></trkpt><trkpt lat="41.88882063513107" lon="12.759278014813944"><ele>139.0</ele><time>2026-05-01T15:56:33.999Z</time></trkpt><trkpt lat="41.8887550510085" lon="12.759359290225111"><ele>139.0</ele><time>2026-05-01T15:56:35.999Z</time></trkpt><trkpt lat="41.888672805949106" lon="12.759420065249113"><ele>139.0</ele><time>2026-05-01T15:56:37.999Z</time></trkpt><trkpt lat="41.888586000317346" lon="12.759488996537298"><ele>139.0</ele><time>2026-05-01T15:56:39.999Z</time></trkpt><trkpt lat="41.88850423630395" lon="12.759559962931977"><ele>139.0</ele><time>2026-05-01T15:56:41.999Z</time></trkpt><trkpt lat="41.88851553422477" lon="12.759697842877209"><ele>139.0</ele><time>2026-05-01T15:56:42.999Z</time></trkpt><trkpt lat="41.88844331401949" lon="12.759758255524599"><ele>139.0</ele><time>2026-05-01T15:56:44.999Z</time></trkpt><trkpt lat="41.88839070909473" lon="12.759843426805013"><ele>139.0</ele><time>2026-05-01T15:56:46.998Z</time></trkpt><trkpt lat="41.888343741532324" lon="12.759909928482939"><ele>139.0</ele><time>2026-05-01T15:56:48.998Z</time></trkpt><trkpt lat="41.88828240037774" lon="12.759953100373101"><ele>139.0</ele><time>2026-05-01T15:56:51.998Z</time></trkpt><trkpt lat="41.88821041892177" lon="12.759978192986623"><ele>138.57142857142856</ele><time>2026-05-01T15:56:55.998Z</time></trkpt><trkpt lat="41.888148980492524" lon="12.759943114382324"><ele>138.14285714285714</ele><time>2026-05-01T15:57:05Z</time></trkpt><trkpt lat="41.88820415629872" lon="12.759894621250758"><ele>137.71428571428572</ele><time>2026-05-01T15:59:41Z</time></trkpt><trkpt lat="41.888249051416814" lon="12.759799450795018"><ele>137.28571428571428</ele><time>2026-05-01T16:00:21.999Z</time></trkpt><trkpt lat="41.88821296673653" lon="12.75972930749622"><ele>136.85714285714286</ele><time>2026-05-01T16:01:43Z</time></trkpt><trkpt lat="41.88825037944922" lon="12.759656278112862"><ele>136.42857142857142</ele><time>2026-05-01T16:01:54Z</time></trkpt><trkpt lat="41.88831842892019" lon="12.759663860348894"><ele>136.0</ele><time>2026-05-01T16:02:16.999Z</time></trkpt><trkpt lat="41.88825945705311" lon="12.759717410160748"><ele>136.0</ele><time>2026-05-01T16:02:20.999Z</time></trkpt><trkpt lat="41.88819363066279" lon="12.759764575676552"><ele>136.0</ele><time>2026-05-01T16:02:23.999Z</time></trkpt><trkpt lat="41.88826078422788" lon="12.759791228359028"><ele>136.0</ele><time>2026-05-01T16:05:57Z</time></trkpt><trkpt lat="41.888382057116395" lon="12.75982178666862"><ele>136.0</ele><time>2026-05-01T16:11:01.999Z</time></trkpt><trkpt lat="41.88837481737168" lon="12.759912749021908"><ele>136.0</ele><time>2026-05-01T16:11:02.999Z</time></trkpt><trkpt lat="41.888326503191806" lon="12.75997848023349"><ele>136.0</ele><time>2026-05-01T16:11:04.999Z</time></trkpt><trkpt lat="41.88825640822168" lon="12.760015350194116"><ele>136.0</ele><time>2026-05-01T16:11:07.999Z</time></trkpt><trkpt lat="41.88820460487013" lon="12.760090091635282"><ele>136.0</ele><time>2026-05-01T16:11:10.999Z</time></trkpt><trkpt lat="41.8881260091693" lon="12.760123939298898"><ele>136.0</ele><time>2026-05-01T16:11:13.999Z</time></trkpt><trkpt lat="41.888041566067166" lon="12.760162709147828"><ele>136.0</ele><time>2026-05-01T16:11:16.999Z</time></trkpt><trkpt lat="41.88797509346003" lon="12.760229369941351"><ele>136.0</ele><time>2026-05-01T16:11:18.999Z</time></trkpt><trkpt lat="41.887917468800154" lon="12.760315010577255"><ele>136.0</ele><time>2026-05-01T16:11:20.999Z</time></trkpt><trkpt lat="41.88785551905528" lon="12.760425334892863"><ele>136.16666666666669</ele><time>2026-05-01T16:11:22.999Z</time></trkpt><trkpt lat="41.88777733100205" lon="12.760542707679008"><ele>136.33333333333334</ele><time>2026-05-01T16:11:24.999Z</time></trkpt><trkpt lat="41.887728786691476" lon="12.760600925307651"><ele>136.5</ele><time>2026-05-01T16:11:25.999Z</time></trkpt><trkpt lat="41.88766880815765" lon="12.760664434933867"><ele>136.66666666666666</ele><time>2026-05-01T16:11:26.999Z</time></trkpt><trkpt lat="41.88761326589159" lon="12.760737971008199"><ele>136.83333333333331</ele><time>2026-05-01T16:11:27.999Z</time></trkpt><trkpt lat="41.88755698723525" lon="12.760823217096341"><ele>137.0</ele><time>2026-05-01T16:11:28.999Z</time></trkpt><trkpt lat="41.88750022028826" lon="12.760907940069895"><ele>137.0</ele><time>2026-05-01T16:11:29.999Z</time></trkpt><trkpt lat="41.88743248382261" lon="12.760994267893425"><ele>137.0</ele><time>2026-05-01T16:11:30.999Z</time></trkpt><trkpt lat="41.887362274448144" lon="12.761079560526895"><ele>137.0</ele><time>2026-05-01T16:11:31.999Z</time></trkpt><trkpt lat="41.88728367508806" lon="12.761166990722591"><ele>137.0</ele><time>2026-05-01T16:11:32.999Z</time></trkpt><trkpt lat="41.88719803300812" lon="12.761253292571878"><ele>137.0</ele><time>2026-05-01T16:11:33.999Z</time></trkpt><trkpt lat="41.8871258062296" lon="12.761366670677385"><ele>137.25</ele><time>2026-05-01T16:11:34.998Z</time></trkpt><trkpt lat="41.88700451904526" lon="12.761410935256775"><ele>137.5</ele><time>2026-05-01T16:11:36.001Z</time></trkpt><trkpt lat="41.88690110325384" lon="12.76148602392075"><ele>137.75</ele><time>2026-05-01T16:11:37.001Z</time></trkpt><trkpt lat="41.88679001880015" lon="12.761571489030937"><ele>138.0</ele><time>2026-05-01T16:11:38.001Z</time></trkpt><trkpt lat="41.886671449869255" lon="12.761661501916631"><ele>138.0</ele><time>2026-05-01T16:11:39.001Z</time></trkpt><trkpt lat="41.88654363450551" lon="12.761756908438112"><ele>138.0</ele><time>2026-05-01T16:11:40.001Z</time></trkpt><trkpt lat="41.88640765986483" lon="12.7618567899466"><ele>138.0</ele><time>2026-05-01T16:11:41.001Z</time></trkpt><trkpt lat="41.88626551017584" lon="12.761960767594907"><ele>138.66666666666666</ele><time>2026-05-01T16:11:42.001Z</time></trkpt><trkpt lat="41.88611600757732" lon="12.762069784254715"><ele>139.33333333333331</ele><time>2026-05-01T16:11:43.001Z</time></trkpt><trkpt lat="41.885959051511044" lon="12.762180400034172"><ele>140.0</ele><time>2026-05-01T16:11:44.001Z</time></trkpt><trkpt lat="41.88580097047367" lon="12.762290251086538"><ele>140.0</ele><time>2026-05-01T16:11:45.001Z</time></trkpt><trkpt lat="41.88563816891959" lon="12.762394904014943"><ele>140.0</ele><time>2026-05-01T16:11:46.001Z</time></trkpt><trkpt lat="41.885476114163325" lon="12.762499829962877"><ele>140.0</ele><time>2026-05-01T16:11:47Z</time></trkpt><trkpt lat="41.88531090026869" lon="12.762602772040987"><ele>139.66666666666666</ele><time>2026-05-01T16:11:48.001Z</time></trkpt><trkpt lat="41.885142215096494" lon="12.76270222436393"><ele>139.33333333333334</ele><time>2026-05-01T16:11:49.001Z</time></trkpt><trkpt lat="41.88496324706796" lon="12.762808784713963"><ele>139.0</ele><time>2026-05-01T16:11:50Z</time></trkpt><trkpt lat="41.884774296055426" lon="12.762916795422438"><ele>139.0</ele><time>2026-05-01T16:11:51Z</time></trkpt><trkpt lat="41.88458052836139" lon="12.76302323766046"><ele>139.0</ele><time>2026-05-01T16:11:52Z</time></trkpt><trkpt lat="41.88438010728958" lon="12.763129258903772"><ele>139.0</ele><time>2026-05-01T16:11:53Z</time></trkpt><trkpt lat="41.88417479997317" lon="12.763235316723325"><ele>137.0</ele><time>2026-05-01T16:11:54Z</time></trkpt><trkpt lat="41.88396476946858" lon="12.763338838058683"><ele>135.0</ele><time>2026-05-01T16:11:55Z</time></trkpt><trkpt lat="41.88375066361916" lon="12.763439925946786"><ele>136.5</ele><time>2026-05-01T16:11:56Z</time></trkpt><trkpt lat="41.88353164557164" lon="12.763535850689388"><ele>138.0</ele><time>2026-05-01T16:11:57Z</time></trkpt><trkpt lat="41.883308487161386" lon="12.76362700807225"><ele>139.0</ele><time>2026-05-01T16:11:58Z</time></trkpt><trkpt lat="41.88308400956298" lon="12.763717926838606"><ele>140.0</ele><time>2026-05-01T16:11:59Z</time></trkpt><trkpt lat="41.88285634570123" lon="12.763805367069518"><ele>140.0</ele><time>2026-05-01T16:12:00Z</time></trkpt><trkpt lat="41.88263163237091" lon="12.763890516110473"><ele>140.0</ele><time>2026-05-01T16:12:01Z</time></trkpt><trkpt lat="41.8824053410329" lon="12.763974252776428"><ele>141.5</ele><time>2026-05-01T16:12:02Z</time></trkpt><trkpt lat="41.882174863135795" lon="12.76405393843441"><ele>143.0</ele><time>2026-05-01T16:12:03Z</time></trkpt><trkpt lat="41.881939769304154" lon="12.764126862622781"><ele>142.0</ele><time>2026-05-01T16:12:04Z</time></trkpt><trkpt lat="41.88170286083392" lon="12.764195509203159"><ele>141.0</ele><time>2026-05-01T16:12:05Z</time></trkpt><trkpt lat="41.88146418824581" lon="12.764260086982944"><ele>141.0</ele><time>2026-05-01T16:12:06Z</time></trkpt><trkpt lat="41.88122270394637" lon="12.764323755663275"><ele>141.0</ele><time>2026-05-01T16:12:07Z</time></trkpt><trkpt lat="41.88098026953208" lon="12.764384079511784"><ele>141.5</ele><time>2026-05-01T16:12:08Z</time></trkpt><trkpt lat="41.88073874824682" lon="12.76443924102813"><ele>142.0</ele><time>2026-05-01T16:12:09Z</time></trkpt><trkpt lat="41.88049793606461" lon="12.76449011589284"><ele>142.0</ele><time>2026-05-01T16:12:10Z</time></trkpt><trkpt lat="41.88025561270589" lon="12.76453742413496"><ele>142.0</ele><time>2026-05-01T16:12:11Z</time></trkpt><trkpt lat="41.88001251139909" lon="12.764585272594038"><ele>142.0</ele><time>2026-05-01T16:12:12Z</time></trkpt><trkpt lat="41.879767691703385" lon="12.764630397295043"><ele>142.0</ele><time>2026-05-01T16:12:13Z</time></trkpt><trkpt lat="41.8795214059444" lon="12.764676772203746"><ele>142.0</ele><time>2026-05-01T16:12:14Z</time></trkpt><trkpt lat="41.87927413959321" lon="12.76472114047263"><ele>142.0</ele><time>2026-05-01T16:12:15Z</time></trkpt><trkpt lat="41.87902636460822" lon="12.764763292503702"><ele>141.5</ele><time>2026-05-01T16:12:16Z</time></trkpt><trkpt lat="41.878776700475164" lon="12.76480645027445"><ele>141.0</ele><time>2026-05-01T16:12:17Z</time></trkpt><trkpt lat="41.87852770217631" lon="12.764850540345712"><ele>141.5</ele><time>2026-05-01T16:12:18Z</time></trkpt><trkpt lat="41.87827804433662" lon="12.764895016055348"><ele>142.0</ele><time>2026-05-01T16:12:19Z</time></trkpt><trkpt lat="41.87802719936275" lon="12.764939764179166"><ele>142.0</ele><time>2026-05-01T16:12:20Z</time></trkpt><trkpt lat="41.87777614397122" lon="12.764984506570308"><ele>142.0</ele><time>2026-05-01T16:12:21Z</time></trkpt><trkpt lat="41.87752560166378" lon="12.765029471434765"><ele>143.0</ele><time>2026-05-01T16:12:22Z</time></trkpt><trkpt lat="41.877275022257095" lon="12.765077006164002"><ele>144.0</ele><time>2026-05-01T16:12:23Z</time></trkpt><trkpt lat="41.877026012397145" lon="12.76512575689287"><ele>144.0</ele><time>2026-05-01T16:12:24Z</time></trkpt><trkpt lat="41.8767761501968" lon="12.765175534464307"><ele>144.0</ele><time>2026-05-01T16:12:25Z</time></trkpt><trkpt lat="41.87652851905047" lon="12.765228654844941"><ele>144.5</ele><time>2026-05-01T16:12:26Z</time></trkpt><trkpt lat="41.87628300808804" lon="12.765282258426435"><ele>145.0</ele><time>2026-05-01T16:12:27Z</time></trkpt><trkpt lat="41.87603980968164" lon="12.765339291249058"><ele>144.5</ele><time>2026-05-01T16:12:28Z</time></trkpt><trkpt lat="41.87579955064562" lon="12.765399695319896"><ele>144.0</ele><time>2026-05-01T16:12:29Z</time></trkpt><trkpt lat="41.87556047771378" lon="12.765466955889993"><ele>144.0</ele><time>2026-05-01T16:12:30Z</time></trkpt><trkpt lat="41.875323837719236" lon="12.765539681899066"><ele>144.0</ele><time>2026-05-01T16:12:31Z</time></trkpt><trkpt lat="41.87508937814839" lon="12.765616512243673"><ele>145.5</ele><time>2026-05-01T16:12:32Z</time></trkpt><trkpt lat="41.87485709281616" lon="12.76569630806436"><ele>147.0</ele><time>2026-05-01T16:12:33Z</time></trkpt><trkpt lat="41.87462647986807" lon="12.765779704102371"><ele>147.0</ele><time>2026-05-01T16:12:34Z</time></trkpt><trkpt lat="41.8743940895752" lon="12.765868894312632"><ele>147.0</ele><time>2026-05-01T16:12:35Z</time></trkpt><trkpt lat="41.8741598259695" lon="12.765964892923412"><ele>148.0</ele><time>2026-05-01T16:12:36Z</time></trkpt><trkpt lat="41.873925080428485" lon="12.766069295867833"><ele>149.0</ele><time>2026-05-01T16:12:37Z</time></trkpt><trkpt lat="41.873687508388606" lon="12.76618008766969"><ele>149.0</ele><time>2026-05-01T16:12:38Z</time></trkpt><trkpt lat="41.873449036632906" lon="12.766298820519635"><ele>149.0</ele><time>2026-05-01T16:12:39Z</time></trkpt><trkpt lat="41.87320921897487" lon="12.766423318239672"><ele>149.0</ele><time>2026-05-01T16:12:40Z</time></trkpt><trkpt lat="41.87296889978574" lon="12.766553846529753"><ele>149.0</ele><time>2026-05-01T16:12:41Z</time></trkpt><trkpt lat="41.87272935886828" lon="12.766690533079998"><ele>149.0</ele><time>2026-05-01T16:12:42Z</time></trkpt><trkpt lat="41.872489399994755" lon="12.766833761794713"><ele>149.0</ele><time>2026-05-01T16:12:43Z</time></trkpt><trkpt lat="41.87225163719766" lon="12.766984078551207"><ele>153.0</ele><time>2026-05-01T16:12:44Z</time></trkpt><trkpt lat="41.87201645049688" lon="12.767141899626237"><ele>157.0</ele><time>2026-05-01T16:12:45Z</time></trkpt><trkpt lat="41.871783566843824" lon="12.767307557965166"><ele>156.0</ele><time>2026-05-01T16:12:46Z</time></trkpt><trkpt lat="41.87155308366189" lon="12.767480263881987"><ele>155.0</ele><time>2026-05-01T16:12:47Z</time></trkpt><trkpt lat="41.87132386477113" lon="12.767659353555421"><ele>158.0</ele><time>2026-05-01T16:12:47.999Z</time></trkpt><trkpt lat="41.871097319867225" lon="12.767843856851774"><ele>161.0</ele><time>2026-05-01T16:12:48.999Z</time></trkpt><trkpt lat="41.87087307233854" lon="12.768032199710698"><ele>161.0</ele><time>2026-05-01T16:12:49.999Z</time></trkpt><trkpt lat="41.87065095378689" lon="12.76822720438805"><ele>161.0</ele><time>2026-05-01T16:12:50.999Z</time></trkpt><trkpt lat="41.87043134527202" lon="12.768427748438738"><ele>163.5</ele><time>2026-05-01T16:12:51.999Z</time></trkpt><trkpt lat="41.870214368508044" lon="12.768632211284437"><ele>166.0</ele><time>2026-05-01T16:12:52.999Z</time></trkpt><trkpt lat="41.87000217340149" lon="12.768843293174745"><ele>166.0</ele><time>2026-05-01T16:12:53.999Z</time></trkpt><trkpt lat="41.869792406269376" lon="12.769060916027819"><ele>166.0</ele><time>2026-05-01T16:12:54.999Z</time></trkpt><trkpt lat="41.86958727984233" lon="12.769284502489173"><ele>166.5</ele><time>2026-05-01T16:12:55.999Z</time></trkpt><trkpt lat="41.869386337194" lon="12.769513196583288"><ele>167.0</ele><time>2026-05-01T16:12:56.999Z</time></trkpt><trkpt lat="41.869187506524355" lon="12.769748767569098"><ele>167.0</ele><time>2026-05-01T16:12:57.999Z</time></trkpt><trkpt lat="41.86899115703983" lon="12.769987653988927"><ele>167.0</ele><time>2026-05-01T16:12:58.999Z</time></trkpt><trkpt lat="41.86879648169183" lon="12.770229739110954"><ele>166.5</ele><time>2026-05-01T16:12:59.999Z</time></trkpt><trkpt lat="41.868604274821834" lon="12.770474974953009"><ele>166.0</ele><time>2026-05-01T16:13:00.999Z</time></trkpt><trkpt lat="41.868413716107824" lon="12.7707243390483"><ele>166.0</ele><time>2026-05-01T16:13:01.999Z</time></trkpt><trkpt lat="41.868225430460186" lon="12.77097638370285"><ele>166.0</ele><time>2026-05-01T16:13:02.999Z</time></trkpt><trkpt lat="41.86804023595136" lon="12.771232075087001"><ele>169.0</ele><time>2026-05-01T16:13:03.999Z</time></trkpt><trkpt lat="41.867856115145045" lon="12.771489898307543"><ele>172.0</ele><time>2026-05-01T16:13:04.999Z</time></trkpt><trkpt lat="41.86767330385006" lon="12.771751689309188"><ele>171.0</ele><time>2026-05-01T16:13:05.999Z</time></trkpt><trkpt lat="41.867489395947885" lon="12.772012658968658"><ele>170.0</ele><time>2026-05-01T16:13:06.999Z</time></trkpt><trkpt lat="41.8673045258593" lon="12.772275414167746"><ele>170.0</ele><time>2026-05-01T16:13:07.999Z</time></trkpt><trkpt lat="41.867120585328784" lon="12.772537956909026"><ele>170.0</ele><time>2026-05-01T16:13:08.999Z</time></trkpt><trkpt lat="41.86693579086248" lon="12.772801059004621"><ele>170.5</ele><time>2026-05-01T16:13:09.999Z</time></trkpt><trkpt lat="41.86675047838034" lon="12.773063215919517"><ele>171.0</ele><time>2026-05-01T16:13:10.999Z</time></trkpt><trkpt lat="41.86656511252039" lon="12.773327571481486"><ele>173.0</ele><time>2026-05-01T16:13:11.999Z</time></trkpt><trkpt lat="41.86637979604556" lon="12.773591553964065"><ele>175.0</ele><time>2026-05-01T16:13:12.999Z</time></trkpt><trkpt lat="41.866193447499626" lon="12.773855278384168"><ele>175.0</ele><time>2026-05-01T16:13:13.999Z</time></trkpt><trkpt lat="41.866005246554074" lon="12.77411913252277"><ele>175.0</ele><time>2026-05-01T16:13:14.999Z</time></trkpt><trkpt lat="41.86581638383764" lon="12.774382299752613"><ele>175.5</ele><time>2026-05-01T16:13:15.999Z</time></trkpt><trkpt lat="41.86562696772922" lon="12.77464404919024"><ele>176.0</ele><time>2026-05-01T16:13:16.999Z</time></trkpt><trkpt lat="41.8654375693954" lon="12.774901689429836"><ele>176.0</ele><time>2026-05-01T16:13:17.999Z</time></trkpt><trkpt lat="41.86524713101349" lon="12.775157831269548"><ele>176.0</ele><time>2026-05-01T16:13:18.999Z</time></trkpt><trkpt lat="41.86505500402965" lon="12.775412438580933"><ele>177.0</ele><time>2026-05-01T16:13:19.999Z</time></trkpt><trkpt lat="41.86486233984854" lon="12.775666464533414"><ele>178.0</ele><time>2026-05-01T16:13:20.999Z</time></trkpt><trkpt lat="41.86466679459134" lon="12.775917515170477"><ele>180.0</ele><time>2026-05-01T16:13:21.999Z</time></trkpt><trkpt lat="41.86446959437914" lon="12.776166334041514"><ele>182.0</ele><time>2026-05-01T16:13:22.999Z</time></trkpt><trkpt lat="41.86427342005431" lon="12.776412580924045"><ele>182.0</ele><time>2026-05-01T16:13:23.999Z</time></trkpt><trkpt lat="41.864074239518814" lon="12.776655544454604"><ele>182.0</ele><time>2026-05-01T16:13:24.999Z</time></trkpt><trkpt lat="41.863872729137256" lon="12.77689233461292"><ele>184.0</ele><time>2026-05-01T16:13:25.999Z</time></trkpt><trkpt lat="41.86366842813102" lon="12.777123996747244"><ele>186.0</ele><time>2026-05-01T16:13:26.999Z</time></trkpt><trkpt lat="41.863462383120165" lon="12.777352928439804"><ele>184.0</ele><time>2026-05-01T16:13:27.999Z</time></trkpt><trkpt lat="41.86325472655582" lon="12.777578235438344"><ele>182.0</ele><time>2026-05-01T16:13:28.998Z</time></trkpt><trkpt lat="41.86304574732637" lon="12.77780389498395"><ele>186.0</ele><time>2026-05-01T16:13:29.998Z</time></trkpt><trkpt lat="41.86283576695267" lon="12.778026574837071"><ele>190.0</ele><time>2026-05-01T16:13:30.998Z</time></trkpt><trkpt lat="41.86262375195468" lon="12.778246825427678"><ele>188.5</ele><time>2026-05-01T16:13:31.998Z</time></trkpt><trkpt lat="41.86241060292901" lon="12.778463465989468"><ele>187.0</ele><time>2026-05-01T16:13:32.998Z</time></trkpt><trkpt lat="41.86219583618837" lon="12.778675651919466"><ele>189.0</ele><time>2026-05-01T16:13:33.998Z</time></trkpt><trkpt lat="41.86197716989336" lon="12.778884599537337"><ele>191.0</ele><time>2026-05-01T16:13:34.998Z</time></trkpt><trkpt lat="41.86175518047637" lon="12.779091639331611"><ele>191.0</ele><time>2026-05-01T16:13:35.998Z</time></trkpt><trkpt lat="41.861530751576446" lon="12.779296026927604"><ele>191.0</ele><time>2026-05-01T16:13:36.998Z</time></trkpt><trkpt lat="41.86130438852951" lon="12.779497042634146"><ele>193.0</ele><time>2026-05-01T16:13:37.998Z</time></trkpt><trkpt lat="41.861076525756594" lon="12.779695512314868"><ele>195.0</ele><time>2026-05-01T16:13:38.998Z</time></trkpt><trkpt lat="41.860846258921114" lon="12.779889834200727"><ele>195.0</ele><time>2026-05-01T16:13:39.998Z</time></trkpt><trkpt lat="41.86061624412033" lon="12.780081613601057"><ele>195.0</ele><time>2026-05-01T16:13:40.998Z</time></trkpt><trkpt lat="41.86038336616985" lon="12.78027432495569"><ele>196.0</ele><time>2026-05-01T16:13:42Z</time></trkpt><trkpt lat="41.86014861961989" lon="12.780457458737962"><ele>197.0</ele><time>2026-05-01T16:13:43Z</time></trkpt><trkpt lat="41.859913628663975" lon="12.78063699235677"><ele>197.0</ele><time>2026-05-01T16:13:44Z</time></trkpt><trkpt lat="41.85967785456699" lon="12.780813490515245"><ele>197.0</ele><time>2026-05-01T16:13:45Z</time></trkpt><trkpt lat="41.85944180431606" lon="12.780989115552776"><ele>199.5</ele><time>2026-05-01T16:13:46Z</time></trkpt><trkpt lat="41.85920387505261" lon="12.781163289706624"><ele>202.0</ele><time>2026-05-01T16:13:47Z</time></trkpt><trkpt lat="41.85896550488158" lon="12.781336594675007"><ele>202.0</ele><time>2026-05-01T16:13:48Z</time></trkpt><trkpt lat="41.85872487650344" lon="12.781506869543348"><ele>202.0</ele><time>2026-05-01T16:13:49Z</time></trkpt><trkpt lat="41.858484699272125" lon="12.781675680177736"><ele>203.0</ele><time>2026-05-01T16:13:50Z</time></trkpt><trkpt lat="41.85824268910174" lon="12.78184564594367"><ele>204.0</ele><time>2026-05-01T16:13:51Z</time></trkpt><trkpt lat="41.85799971848517" lon="12.782014301404642"><ele>204.0</ele><time>2026-05-01T16:13:52Z</time></trkpt><trkpt lat="41.85775587197178" lon="12.782182473851607"><ele>204.0</ele><time>2026-05-01T16:13:53Z</time></trkpt><trkpt lat="41.85751121177901" lon="12.782350938225882"><ele>202.0</ele><time>2026-05-01T16:13:54Z</time></trkpt><trkpt lat="41.857265309946904" lon="12.782515887600164"><ele>200.0</ele><time>2026-05-01T16:13:55Z</time></trkpt><trkpt lat="41.857018782432455" lon="12.782678244081886"><ele>203.0</ele><time>2026-05-01T16:13:56Z</time></trkpt><trkpt lat="41.85677134295836" lon="12.782841183588486"><ele>206.0</ele><time>2026-05-01T16:13:57Z</time></trkpt><trkpt lat="41.85652528855977" lon="12.783004022790298"><ele>206.0</ele><time>2026-05-01T16:13:57.999Z</time></trkpt><trkpt lat="41.85627885157329" lon="12.78316846092329"><ele>206.0</ele><time>2026-05-01T16:13:58.999Z</time></trkpt><trkpt lat="41.85603352379249" lon="12.783333474752775"><ele>205.5</ele><time>2026-05-01T16:13:59.999Z</time></trkpt><trkpt lat="41.8557894509641" lon="12.783499986002814"><ele>205.0</ele><time>2026-05-01T16:14:00.999Z</time></trkpt><trkpt lat="41.855546091283806" lon="12.7836688647149"><ele>206.5</ele><time>2026-05-01T16:14:01.999Z</time></trkpt><trkpt lat="41.855303623903765" lon="12.7838382785358"><ele>208.0</ele><time>2026-05-01T16:14:02.999Z</time></trkpt><trkpt lat="41.85506091505949" lon="12.78400657136465"><ele>208.0</ele><time>2026-05-01T16:14:03.999Z</time></trkpt><trkpt lat="41.85481938052112" lon="12.78417429203081"><ele>208.0</ele><time>2026-05-01T16:14:04.999Z</time></trkpt><trkpt lat="41.85457773999395" lon="12.784344285106407"><ele>209.5</ele><time>2026-05-01T16:14:05.999Z</time></trkpt><trkpt lat="41.854336941660335" lon="12.784516299838465"><ele>211.0</ele><time>2026-05-01T16:14:06.999Z</time></trkpt><trkpt lat="41.85409551574751" lon="12.784690037474052"><ele>211.0</ele><time>2026-05-01T16:14:07.999Z</time></trkpt><trkpt lat="41.8538531183363" lon="12.784865069744411"><ele>211.0</ele><time>2026-05-01T16:14:08.999Z</time></trkpt><trkpt lat="41.853611312416" lon="12.785043067039137"><ele>213.5</ele><time>2026-05-01T16:14:09.999Z</time></trkpt><trkpt lat="41.85337062156988" lon="12.785225778639127"><ele>216.0</ele><time>2026-05-01T16:14:10.999Z</time></trkpt><trkpt lat="41.85313065938049" lon="12.785411881984611"><ele>216.0</ele><time>2026-05-01T16:14:11.999Z</time></trkpt><trkpt lat="41.8528907884032" lon="12.785596697233535"><ele>216.0</ele><time>2026-05-01T16:14:12.999Z</time></trkpt><trkpt lat="41.852650456257564" lon="12.785782695397394"><ele>214.5</ele><time>2026-05-01T16:14:13.999Z</time></trkpt><trkpt lat="41.852411300358966" lon="12.785971036177509"><ele>213.0</ele><time>2026-05-01T16:14:14.999Z</time></trkpt><trkpt lat="41.852173328693254" lon="12.786160284067918"><ele>215.5</ele><time>2026-05-01T16:14:15.999Z</time></trkpt><trkpt lat="41.8519377257314" lon="12.786355916392186"><ele>218.0</ele><time>2026-05-01T16:14:16.999Z</time></trkpt><trkpt lat="41.85170285334069" lon="12.786554720151997"><ele>218.0</ele><time>2026-05-01T16:14:17.999Z</time></trkpt><trkpt lat="41.85146852463899" lon="12.786755766629478"><ele>218.0</ele><time>2026-05-01T16:14:18.999Z</time></trkpt><trkpt lat="41.85123558976855" lon="12.786958890494207"><ele>219.0</ele><time>2026-05-01T16:14:19.999Z</time></trkpt><trkpt lat="41.851001573488084" lon="12.787165181644673"><ele>220.0</ele><time>2026-05-01T16:14:20.999Z</time></trkpt><trkpt lat="41.850766401869855" lon="12.78737225459224"><ele>220.0</ele><time>2026-05-01T16:14:21.999Z</time></trkpt><trkpt lat="41.85053356326783" lon="12.787581468478537"><ele>220.0</ele><time>2026-05-01T16:14:22.999Z</time></trkpt><trkpt lat="41.850302641804326" lon="12.787795063860566"><ele>221.0</ele><time>2026-05-01T16:14:23.999Z</time></trkpt><trkpt lat="41.85007452689089" lon="12.788009452950389"><ele>222.0</ele><time>2026-05-01T16:14:24.999Z</time></trkpt><trkpt lat="41.84984749499709" lon="12.788227959518226"><ele>222.0</ele><time>2026-05-01T16:14:25.999Z</time></trkpt><trkpt lat="41.84962261569371" lon="12.78844640568397"><ele>222.0</ele><time>2026-05-01T16:14:26.999Z</time></trkpt><trkpt lat="41.849398588196465" lon="12.788665850499358"><ele>224.0</ele><time>2026-05-01T16:14:27.999Z</time></trkpt><trkpt lat="41.849175557820864" lon="12.788887978598265"><ele>226.0</ele><time>2026-05-01T16:14:28.999Z</time></trkpt><trkpt lat="41.84895212002977" lon="12.789108526592445"><ele>226.0</ele><time>2026-05-01T16:14:29.999Z</time></trkpt><trkpt lat="41.84872981682201" lon="12.789330268141969"><ele>226.0</ele><time>2026-05-01T16:14:30.999Z</time></trkpt><trkpt lat="41.84850801223656" lon="12.78955411904065"><ele>226.5</ele><time>2026-05-01T16:14:31.999Z</time></trkpt><trkpt lat="41.848286219079014" lon="12.789780216495467"><ele>227.0</ele><time>2026-05-01T16:14:32.999Z</time></trkpt><trkpt lat="41.84806596980116" lon="12.79000458260472"><ele>228.5</ele><time>2026-05-01T16:14:33.999Z</time></trkpt><trkpt lat="41.84784659061978" lon="12.790227760130954"><ele>230.0</ele><time>2026-05-01T16:14:34.999Z</time></trkpt><trkpt lat="41.847627432821284" lon="12.790449397409958"><ele>228.0</ele><time>2026-05-01T16:14:35.999Z</time></trkpt><trkpt lat="41.847408042433905" lon="12.790668438864854"><ele>226.0</ele><time>2026-05-01T16:14:36.999Z</time></trkpt><trkpt lat="41.84718849917465" lon="12.79088653529411"><ele>227.5</ele><time>2026-05-01T16:14:37.999Z</time></trkpt><trkpt lat="41.8469694429243" lon="12.791104426421077"><ele>229.0</ele><time>2026-05-01T16:14:38.999Z</time></trkpt><trkpt lat="41.846746781248065" lon="12.79131820087337"><ele>229.5</ele><time>2026-05-01T16:14:39.999Z</time></trkpt><trkpt lat="41.84652209357985" lon="12.79153132783938"><ele>230.0</ele><time>2026-05-01T16:14:40.999Z</time></trkpt><trkpt lat="41.8462968845276" lon="12.791743568410139"><ele>232.0</ele><time>2026-05-01T16:14:41.999Z</time></trkpt><trkpt lat="41.84606992865361" lon="12.791955958612178"><ele>234.0</ele><time>2026-05-01T16:14:42.999Z</time></trkpt><trkpt lat="41.84584035427585" lon="12.792164179016709"><ele>234.0</ele><time>2026-05-01T16:14:43.999Z</time></trkpt><trkpt lat="41.84561005705764" lon="12.792370761942575"><ele>234.0</ele><time>2026-05-01T16:14:44.999Z</time></trkpt><trkpt lat="41.845378720264286" lon="12.792573853238435"><ele>236.0</ele><time>2026-05-01T16:14:45.999Z</time></trkpt><trkpt lat="41.845146545910225" lon="12.792774820494047"><ele>238.0</ele><time>2026-05-01T16:14:46.999Z</time></trkpt><trkpt lat="41.84491209685375" lon="12.792972895760352"><ele>238.0</ele><time>2026-05-01T16:14:47.999Z</time></trkpt><trkpt lat="41.84467434756044" lon="12.793167990861093"><ele>238.0</ele><time>2026-05-01T16:14:48.999Z</time></trkpt><trkpt lat="41.844432422481425" lon="12.79335836899942"><ele>242.5</ele><time>2026-05-01T16:14:49.999Z</time></trkpt><trkpt lat="41.84418949677964" lon="12.793546512732286"><ele>247.0</ele><time>2026-05-01T16:14:50.999Z</time></trkpt><trkpt lat="41.84394507661057" lon="12.793732645983571"><ele>247.0</ele><time>2026-05-01T16:14:51.999Z</time></trkpt><trkpt lat="41.84369755598822" lon="12.793914042007625"><ele>247.0</ele><time>2026-05-01T16:14:52.998Z</time></trkpt><trkpt lat="41.843447539852505" lon="12.794091559097728"><ele>247.0</ele><time>2026-05-01T16:14:53.998Z</time></trkpt><trkpt lat="41.843195669349974" lon="12.794265073274738"><ele>247.0</ele><time>2026-05-01T16:14:54.998Z</time></trkpt><trkpt lat="41.8429420741995" lon="12.79443175263177"><ele>247.0</ele><time>2026-05-01T16:14:55.998Z</time></trkpt><trkpt lat="41.842688420606066" lon="12.794597175362677"><ele>247.0</ele><time>2026-05-01T16:14:56.998Z</time></trkpt><trkpt lat="41.84243329767877" lon="12.794760010117756"><ele>246.0</ele><time>2026-05-01T16:14:57.998Z</time></trkpt><trkpt lat="41.84217656282161" lon="12.794919111365314"><ele>245.0</ele><time>2026-05-01T16:14:58.998Z</time></trkpt><trkpt lat="41.841919346914736" lon="12.795075232721985"><ele>250.5</ele><time>2026-05-01T16:14:59.998Z</time></trkpt><trkpt lat="41.841661842777405" lon="12.795233149336799"><ele>256.0</ele><time>2026-05-01T16:15:00.998Z</time></trkpt><trkpt lat="41.841403208161374" lon="12.795390083204477"><ele>256.0</ele><time>2026-05-01T16:15:01.998Z</time></trkpt><trkpt lat="41.84114397335396" lon="12.795542748964964"><ele>256.0</ele><time>2026-05-01T16:15:02.998Z</time></trkpt><trkpt lat="41.840884489019295" lon="12.795693264141441"><ele>254.0</ele><time>2026-05-01T16:15:03.998Z</time></trkpt><trkpt lat="41.84062359167232" lon="12.795840560052321"><ele>252.0</ele><time>2026-05-01T16:15:04.998Z</time></trkpt><trkpt lat="41.840361424574965" lon="12.795989727037218"><ele>256.0</ele><time>2026-05-01T16:15:05.998Z</time></trkpt><trkpt lat="41.8400978328579" lon="12.7961389746762"><ele>260.0</ele><time>2026-05-01T16:15:06.998Z</time></trkpt><trkpt lat="41.83983374001676" lon="12.796285570484914"><ele>260.0</ele><time>2026-05-01T16:15:07.998Z</time></trkpt><trkpt lat="41.83956969678829" lon="12.796431455940642"><ele>260.0</ele><time>2026-05-01T16:15:08.998Z</time></trkpt><trkpt lat="41.8393046303133" lon="12.796578227716598"><ele>259.0</ele><time>2026-05-01T16:15:09.998Z</time></trkpt><trkpt lat="41.839038606377784" lon="12.796722961111627"><ele>258.0</ele><time>2026-05-01T16:15:10.998Z</time></trkpt><trkpt lat="41.83877351840972" lon="12.796864787259592"><ele>259.0</ele><time>2026-05-01T16:15:11.998Z</time></trkpt><trkpt lat="41.838507420827554" lon="12.797002293624756"><ele>260.0</ele><time>2026-05-01T16:15:12.998Z</time></trkpt><trkpt lat="41.83824190511121" lon="12.79714099806901"><ele>260.0</ele><time>2026-05-01T16:15:13.998Z</time></trkpt><trkpt lat="41.83797610645898" lon="12.797282869991086"><ele>260.0</ele><time>2026-05-01T16:15:14.998Z</time></trkpt><trkpt lat="41.837711298992424" lon="12.79742303760425"><ele>257.5</ele><time>2026-05-01T16:15:15.998Z</time></trkpt><trkpt lat="41.837447386338674" lon="12.797562028041787"><ele>255.0</ele><time>2026-05-01T16:15:16.998Z</time></trkpt><trkpt lat="41.83718166669863" lon="12.79769947299237"><ele>255.0</ele><time>2026-05-01T16:15:17.998Z</time></trkpt><trkpt lat="41.83691564721871" lon="12.797834294926192"><ele>255.0</ele><time>2026-05-01T16:15:18.998Z</time></trkpt><trkpt lat="41.83664772355314" lon="12.79796654969631"><ele>258.0</ele><time>2026-05-01T16:15:19.998Z</time></trkpt><trkpt lat="41.83637947691457" lon="12.798099128112412"><ele>261.0</ele><time>2026-05-01T16:15:20.998Z</time></trkpt><trkpt lat="41.83611054600673" lon="12.798230568326925"><ele>261.5</ele><time>2026-05-01T16:15:21.998Z</time></trkpt><trkpt lat="41.835840526882855" lon="12.79835945434284"><ele>262.0</ele><time>2026-05-01T16:15:22.998Z</time></trkpt><trkpt lat="41.835571888109556" lon="12.798488201664295"><ele>266.0</ele><time>2026-05-01T16:15:23.998Z</time></trkpt><trkpt lat="41.83530251372096" lon="12.798615343376113"><ele>270.0</ele><time>2026-05-01T16:15:24.998Z</time></trkpt><trkpt lat="41.83503303470451" lon="12.798742189493893"><ele>270.0</ele><time>2026-05-01T16:15:25.998Z</time></trkpt><trkpt lat="41.834765153368025" lon="12.798870027430507"><ele>270.0</ele><time>2026-05-01T16:15:26.998Z</time></trkpt><trkpt lat="41.83449697528007" lon="12.798999477299462"><ele>267.5</ele><time>2026-05-01T16:15:27.998Z</time></trkpt><trkpt lat="41.83422790136648" lon="12.79913090311591"><ele>265.0</ele><time>2026-05-01T16:15:28.998Z</time></trkpt><trkpt lat="41.83395825483579" lon="12.799261066497118"><ele>264.0</ele><time>2026-05-01T16:15:29.998Z</time></trkpt><trkpt lat="41.83368638257914" lon="12.799387500586064"><ele>263.0</ele><time>2026-05-01T16:15:30.998Z</time></trkpt><trkpt lat="41.83341406622418" lon="12.799513563715802"><ele>263.0</ele><time>2026-05-01T16:15:31.998Z</time></trkpt><trkpt lat="41.83314098540768" lon="12.799639519025192"><ele>263.0</ele><time>2026-05-01T16:15:32.998Z</time></trkpt><trkpt lat="41.832867332259255" lon="12.799764678972803"><ele>265.0</ele><time>2026-05-01T16:15:33.998Z</time></trkpt><trkpt lat="41.83259458855296" lon="12.799890718597155"><ele>267.0</ele><time>2026-05-01T16:15:34.998Z</time></trkpt><trkpt lat="41.83232186801542" lon="12.800019323491721"><ele>267.0</ele><time>2026-05-01T16:15:35.998Z</time></trkpt><trkpt lat="41.83204954286955" lon="12.800148541840274"><ele>267.0</ele><time>2026-05-01T16:15:36.998Z</time></trkpt><trkpt lat="41.83177810659506" lon="12.800278552099483"><ele>271.0</ele><time>2026-05-01T16:15:37.998Z</time></trkpt><trkpt lat="41.8315075098446" lon="12.800408685908126"><ele>275.0</ele><time>2026-05-01T16:15:38.998Z</time></trkpt><trkpt lat="41.831237678436615" lon="12.800538041171825"><ele>273.0</ele><time>2026-05-01T16:15:39.998Z</time></trkpt><trkpt lat="41.83097100331329" lon="12.800669979325423"><ele>271.0</ele><time>2026-05-01T16:15:40.998Z</time></trkpt><trkpt lat="41.830703424281126" lon="12.800803903115346"><ele>271.0</ele><time>2026-05-01T16:15:41.998Z</time></trkpt><trkpt lat="41.83043709282405" lon="12.800936719228464"><ele>271.0</ele><time>2026-05-01T16:15:42.998Z</time></trkpt><trkpt lat="41.830170292838744" lon="12.801067734905017"><ele>273.0</ele><time>2026-05-01T16:15:43.998Z</time></trkpt><trkpt lat="41.82990467755099" lon="12.80119682954575"><ele>275.0</ele><time>2026-05-01T16:15:44.998Z</time></trkpt><trkpt lat="41.82963845677207" lon="12.801331531079068"><ele>275.0</ele><time>2026-05-01T16:15:45.998Z</time></trkpt><trkpt lat="41.82937281830242" lon="12.801469633326159"><ele>275.0</ele><time>2026-05-01T16:15:46.998Z</time></trkpt><trkpt lat="41.82910534493618" lon="12.801610400522646"><ele>280.5</ele><time>2026-05-01T16:15:48Z</time></trkpt><trkpt lat="41.82884078854408" lon="12.801753519030694"><ele>286.0</ele><time>2026-05-01T16:15:49Z</time></trkpt><trkpt lat="41.82857631250832" lon="12.801902642329"><ele>288.5</ele><time>2026-05-01T16:15:50Z</time></trkpt><trkpt lat="41.828312771550536" lon="12.802055223371728"><ele>291.0</ele><time>2026-05-01T16:15:51Z</time></trkpt><trkpt lat="41.82804869799944" lon="12.802211971630745"><ele>291.0</ele><time>2026-05-01T16:15:52Z</time></trkpt><trkpt lat="41.8277846473222" lon="12.802372283645887"><ele>291.0</ele><time>2026-05-01T16:15:53Z</time></trkpt><trkpt lat="41.82752120247474" lon="12.802528773023802"><ele>293.5</ele><time>2026-05-01T16:15:54Z</time></trkpt><trkpt lat="41.82725568243696" lon="12.802684299685017"><ele>296.0</ele><time>2026-05-01T16:15:55Z</time></trkpt><trkpt lat="41.82699162972133" lon="12.802839861901427"><ele>294.5</ele><time>2026-05-01T16:15:56Z</time></trkpt><trkpt lat="41.826731234924566" lon="12.80299640391277"><ele>293.0</ele><time>2026-05-01T16:15:57Z</time></trkpt><trkpt lat="41.82647136008476" lon="12.803155086481919"><ele>293.0</ele><time>2026-05-01T16:15:58Z</time></trkpt><trkpt lat="41.82621251624016" lon="12.803315466877013"><ele>293.0</ele><time>2026-05-01T16:15:59Z</time></trkpt><trkpt lat="41.82595206858006" lon="12.803479087018006"><ele>292.5</ele><time>2026-05-01T16:16:00Z</time></trkpt><trkpt lat="41.82569272825049" lon="12.803642170038788"><ele>292.0</ele><time>2026-05-01T16:16:01Z</time></trkpt><trkpt lat="41.82543309233812" lon="12.80380410517883"><ele>292.0</ele><time>2026-05-01T16:16:02Z</time></trkpt><trkpt lat="41.825175070578126" lon="12.80396754546364"><ele>292.0</ele><time>2026-05-01T16:16:03Z</time></trkpt><trkpt lat="41.82492019858167" lon="12.804131491801604"><ele>289.5</ele><time>2026-05-01T16:16:04Z</time></trkpt><trkpt lat="41.82466193835507" lon="12.80429455507829"><ele>287.0</ele><time>2026-05-01T16:16:04.999Z</time></trkpt><trkpt lat="41.82440377349636" lon="12.804458846996852"><ele>286.5</ele><time>2026-05-01T16:16:05.999Z</time></trkpt><trkpt lat="41.82414413499816" lon="12.804620543911891"><ele>286.0</ele><time>2026-05-01T16:16:06.999Z</time></trkpt><trkpt lat="41.82388191618254" lon="12.804780797783506"><ele>286.0</ele><time>2026-05-01T16:16:07.999Z</time></trkpt><trkpt lat="41.823619605120555" lon="12.80493890664543"><ele>286.0</ele><time>2026-05-01T16:16:08.999Z</time></trkpt><trkpt lat="41.823355530803376" lon="12.805097848389275"><ele>290.0</ele><time>2026-05-01T16:16:09.999Z</time></trkpt><trkpt lat="41.823090463728704" lon="12.805256247314963"><ele>294.0</ele><time>2026-05-01T16:16:10.999Z</time></trkpt><trkpt lat="41.82282262129686" lon="12.805410511812479"><ele>296.0</ele><time>2026-05-01T16:16:11.999Z</time></trkpt><trkpt lat="41.82255375341041" lon="12.805561577470414"><ele>298.0</ele><time>2026-05-01T16:16:12.999Z</time></trkpt><trkpt lat="41.82228398836708" lon="12.805708245226857"><ele>298.0</ele><time>2026-05-01T16:16:13.999Z</time></trkpt><trkpt lat="41.82201365845573" lon="12.805852139106538"><ele>298.0</ele><time>2026-05-01T16:16:14.999Z</time></trkpt><trkpt lat="41.82174412532669" lon="12.805991078234566"><ele>295.0</ele><time>2026-05-01T16:16:15.999Z</time></trkpt><trkpt lat="41.82147481916492" lon="12.806123867146049"><ele>292.0</ele><time>2026-05-01T16:16:16.999Z</time></trkpt><trkpt lat="41.82120473915665" lon="12.806251721509831"><ele>294.0</ele><time>2026-05-01T16:16:17.999Z</time></trkpt><trkpt lat="41.82093348238919" lon="12.806374468350961"><ele>296.0</ele><time>2026-05-01T16:16:18.999Z</time></trkpt><trkpt lat="41.820661660010984" lon="12.80649400946858"><ele>296.0</ele><time>2026-05-01T16:16:19.999Z</time></trkpt><trkpt lat="41.82038839911818" lon="12.806608671614576"><ele>296.0</ele><time>2026-05-01T16:16:20.999Z</time></trkpt><trkpt lat="41.82011422013314" lon="12.806716654922404"><ele>295.5</ele><time>2026-05-01T16:16:21.999Z</time></trkpt><trkpt lat="41.819838243038994" lon="12.806818756158714"><ele>295.0</ele><time>2026-05-01T16:16:22.999Z</time></trkpt><trkpt lat="41.81956110694426" lon="12.806915625453183"><ele>295.0</ele><time>2026-05-01T16:16:23.999Z</time></trkpt><trkpt lat="41.819282244648086" lon="12.807007428488442"><ele>295.0</ele><time>2026-05-01T16:16:24.999Z</time></trkpt><trkpt lat="41.81900391374325" lon="12.807094847415039"><ele>295.0</ele><time>2026-05-01T16:16:25.999Z</time></trkpt><trkpt lat="41.81872384141392" lon="12.807178971619315"><ele>295.0</ele><time>2026-05-01T16:16:26.999Z</time></trkpt><trkpt lat="41.81844401831815" lon="12.807257201932888"><ele>296.5</ele><time>2026-05-01T16:16:27.999Z</time></trkpt><trkpt lat="41.8181631252767" lon="12.807329929435902"><ele>298.0</ele><time>2026-05-01T16:16:28.999Z</time></trkpt><trkpt lat="41.81788023273345" lon="12.807397465094468"><ele>299.5</ele><time>2026-05-01T16:16:29.999Z</time></trkpt><trkpt lat="41.81759755125887" lon="12.807459314921859"><ele>301.0</ele><time>2026-05-01T16:16:30.999Z</time></trkpt><trkpt lat="41.81731341611318" lon="12.807514742003706"><ele>301.0</ele><time>2026-05-01T16:16:31.999Z</time></trkpt><trkpt lat="41.81702905565145" lon="12.807565408092874"><ele>301.0</ele><time>2026-05-01T16:16:32.999Z</time></trkpt><trkpt lat="41.81674579765583" lon="12.807616479154088"><ele>301.5</ele><time>2026-05-01T16:16:33.999Z</time></trkpt><trkpt lat="41.816463687884166" lon="12.807668047404949"><ele>302.0</ele><time>2026-05-01T16:16:34.999Z</time></trkpt><trkpt lat="41.81618227384189" lon="12.807719423264219"><ele>304.0</ele><time>2026-05-01T16:16:35.999Z</time></trkpt><trkpt lat="41.815899730544025" lon="12.807766460644148"><ele>306.0</ele><time>2026-05-01T16:16:36.999Z</time></trkpt><trkpt lat="41.81561442976131" lon="12.80780350103581"><ele>306.0</ele><time>2026-05-01T16:16:37.999Z</time></trkpt><trkpt lat="41.81532835883722" lon="12.807838342841944"><ele>306.0</ele><time>2026-05-01T16:16:38.999Z</time></trkpt><trkpt lat="41.815042585359805" lon="12.807877076061205"><ele>307.0</ele><time>2026-05-01T16:16:39.999Z</time></trkpt><trkpt lat="41.81475733599385" lon="12.807920036891941"><ele>308.0</ele><time>2026-05-01T16:16:40.999Z</time></trkpt><trkpt lat="41.81447341933647" lon="12.807963215386426"><ele>308.0</ele><time>2026-05-01T16:16:41.999Z</time></trkpt><trkpt lat="41.814189514586644" lon="12.80801022213716"><ele>308.0</ele><time>2026-05-01T16:16:42.999Z</time></trkpt><trkpt lat="41.81390582466691" lon="12.808060162781414"><ele>308.0</ele><time>2026-05-01T16:16:43.999Z</time></trkpt><trkpt lat="41.813623131197375" lon="12.80811482376344"><ele>308.0</ele><time>2026-05-01T16:16:44.999Z</time></trkpt><trkpt lat="41.81334061994952" lon="12.80817623944463"><ele>310.5</ele><time>2026-05-01T16:16:45.999Z</time></trkpt><trkpt lat="41.8130602766769" lon="12.808243223886791"><ele>313.0</ele><time>2026-05-01T16:16:46.999Z</time></trkpt><trkpt lat="41.81278125447003" lon="12.808314306718628"><ele>315.5</ele><time>2026-05-01T16:16:47.999Z</time></trkpt><trkpt lat="41.81250342959973" lon="12.808392200602476"><ele>318.0</ele><time>2026-05-01T16:16:48.999Z</time></trkpt><trkpt lat="41.81222705234788" lon="12.808481384693186"><ele>319.0</ele><time>2026-05-01T16:16:49.999Z</time></trkpt><trkpt lat="41.811955183011285" lon="12.808579377506675"><ele>320.0</ele><time>2026-05-01T16:16:50.999Z</time></trkpt><trkpt lat="41.811686295986775" lon="12.808687533635524"><ele>322.0</ele><time>2026-05-01T16:16:51.999Z</time></trkpt><trkpt lat="41.81141842381446" lon="12.808804198723402"><ele>324.0</ele><time>2026-05-01T16:16:52.999Z</time></trkpt><trkpt lat="41.811152562641006" lon="12.808928778415321"><ele>326.5</ele><time>2026-05-01T16:16:53.999Z</time></trkpt><trkpt lat="41.810887764483724" lon="12.80906287165936"><ele>329.0</ele><time>2026-05-01T16:16:54.999Z</time></trkpt><trkpt lat="41.81062657700335" lon="12.809205490341952"><ele>332.5</ele><time>2026-05-01T16:16:55.999Z</time></trkpt><trkpt lat="41.81036847636901" lon="12.80935830463259"><ele>336.0</ele><time>2026-05-01T16:16:56.999Z</time></trkpt><trkpt lat="41.81011401743116" lon="12.809519146568098"><ele>338.5</ele><time>2026-05-01T16:16:57.999Z</time></trkpt><trkpt lat="41.809861651780324" lon="12.809687325298121"><ele>341.0</ele><time>2026-05-01T16:16:58.999Z</time></trkpt><trkpt lat="41.80961349611147" lon="12.809864174365126"><ele>341.0</ele><time>2026-05-01T16:16:59.999Z</time></trkpt><trkpt lat="41.80936647336657" lon="12.810049383234556"><ele>341.0</ele><time>2026-05-01T16:17:00.999Z</time></trkpt><trkpt lat="41.8091243476373" lon="12.810247764308148"><ele>342.5</ele><time>2026-05-01T16:17:01.998Z</time></trkpt><trkpt lat="41.80888595426036" lon="12.81045807338064"><ele>344.0</ele><time>2026-05-01T16:17:02.998Z</time></trkpt><trkpt lat="41.80865208961509" lon="12.810674704838048"><ele>345.0</ele><time>2026-05-01T16:17:03.998Z</time></trkpt><trkpt lat="41.80841944454536" lon="12.810897769082827"><ele>346.0</ele><time>2026-05-01T16:17:04.998Z</time></trkpt><trkpt lat="41.80818973769587" lon="12.811126992443327"><ele>346.5</ele><time>2026-05-01T16:17:05.998Z</time></trkpt><trkpt lat="41.80796557010119" lon="12.811370825302227"><ele>347.0</ele><time>2026-05-01T16:17:06.998Z</time></trkpt><trkpt lat="41.807745280793064" lon="12.811621629095455"><ele>347.0</ele><time>2026-05-01T16:17:07.998Z</time></trkpt><trkpt lat="41.80753118461747" lon="12.81188121440261"><ele>347.0</ele><time>2026-05-01T16:17:08.998Z</time></trkpt><trkpt lat="41.80732025320046" lon="12.812145317416638"><ele>347.0</ele><time>2026-05-01T16:17:09.998Z</time></trkpt><trkpt lat="41.807113423874945" lon="12.812416524181302"><ele>347.0</ele><time>2026-05-01T16:17:10.998Z</time></trkpt><trkpt lat="41.80690988979768" lon="12.812694081923361"><ele>349.0</ele><time>2026-05-01T16:17:11.998Z</time></trkpt><trkpt lat="41.80671358672805" lon="12.812979529885528"><ele>351.0</ele><time>2026-05-01T16:17:12.998Z</time></trkpt><trkpt lat="41.80652294811171" lon="12.813272340596443"><ele>352.0</ele><time>2026-05-01T16:17:13.998Z</time></trkpt><trkpt lat="41.80633832094236" lon="12.813571774949398"><ele>353.0</ele><time>2026-05-01T16:17:14.998Z</time></trkpt><trkpt lat="41.806157600646046" lon="12.813876863058685"><ele>354.0</ele><time>2026-05-01T16:17:15.998Z</time></trkpt><trkpt lat="41.80598007550008" lon="12.814184875622464"><ele>355.0</ele><time>2026-05-01T16:17:16.998Z</time></trkpt><trkpt lat="41.80580548978684" lon="12.814494617292347"><ele>355.0</ele><time>2026-05-01T16:17:17.998Z</time></trkpt><trkpt lat="41.80563502446703" lon="12.814808847423642"><ele>355.0</ele><time>2026-05-01T16:17:18.998Z</time></trkpt><trkpt lat="41.805466237144614" lon="12.815127789337062"><ele>355.5</ele><time>2026-05-01T16:17:19.998Z</time></trkpt><trkpt lat="41.805299069025565" lon="12.815445039015216"><ele>356.0</ele><time>2026-05-01T16:17:20.998Z</time></trkpt><trkpt lat="41.80513421532727" lon="12.815764956435471"><ele>357.5</ele><time>2026-05-01T16:17:21.998Z</time></trkpt><trkpt lat="41.80496728003278" lon="12.816087395820821"><ele>359.0</ele><time>2026-05-01T16:17:22.998Z</time></trkpt><trkpt lat="41.80480247268244" lon="12.816409983642478"><ele>359.0</ele><time>2026-05-01T16:17:23.998Z</time></trkpt><trkpt lat="41.80463277514702" lon="12.816731369527062"><ele>359.0</ele><time>2026-05-01T16:17:24.998Z</time></trkpt><trkpt lat="41.804462926237186" lon="12.817053479555703"><ele>360.5</ele><time>2026-05-01T16:17:25.998Z</time></trkpt><trkpt lat="41.80429470284042" lon="12.81737545857028"><ele>362.0</ele><time>2026-05-01T16:17:26.998Z</time></trkpt><trkpt lat="41.80412641194426" lon="12.81769983445088"><ele>362.0</ele><time>2026-05-01T16:17:27.998Z</time></trkpt><trkpt lat="41.803957746026825" lon="12.818023210545743"><ele>362.0</ele><time>2026-05-01T16:17:28.998Z</time></trkpt><trkpt lat="41.80379041589589" lon="12.81834695764784"><ele>361.0</ele><time>2026-05-01T16:17:29.998Z</time></trkpt><trkpt lat="41.8036224045558" lon="12.818671637255264"><ele>360.0</ele><time>2026-05-01T16:17:30.998Z</time></trkpt><trkpt lat="41.803454143065586" lon="12.818996197151462"><ele>361.5</ele><time>2026-05-01T16:17:31.998Z</time></trkpt><trkpt lat="41.80328722959747" lon="12.819322025313271"><ele>363.0</ele><time>2026-05-01T16:17:32.998Z</time></trkpt><trkpt lat="41.80311995020466" lon="12.819646027485662"><ele>363.0</ele><time>2026-05-01T16:17:33.998Z</time></trkpt><trkpt lat="41.80295096676942" lon="12.819972856712196"><ele>363.0</ele><time>2026-05-01T16:17:34.998Z</time></trkpt><trkpt lat="41.802781756206706" lon="12.820299338033697"><ele>363.0</ele><time>2026-05-01T16:17:35.998Z</time></trkpt><trkpt lat="41.802614001541514" lon="12.820623759113023"><ele>363.0</ele><time>2026-05-01T16:17:36.998Z</time></trkpt><trkpt lat="41.802446405800985" lon="12.820950156083743"><ele>357.0</ele><time>2026-05-01T16:17:37.998Z</time></trkpt><trkpt lat="41.80227968935966" lon="12.821273428991807"><ele>351.0</ele><time>2026-05-01T16:17:38.998Z</time></trkpt><trkpt lat="41.8021116658401" lon="12.821598466595736"><ele>351.0</ele><time>2026-05-01T16:17:39.998Z</time></trkpt><trkpt lat="41.80194304910116" lon="12.821926312447301"><ele>351.0</ele><time>2026-05-01T16:17:40.998Z</time></trkpt><trkpt lat="41.80177259881656" lon="12.822256694402219"><ele>351.0</ele><time>2026-05-01T16:17:41.998Z</time></trkpt><trkpt lat="41.801601011733396" lon="12.822589141101115"><ele>351.0</ele><time>2026-05-01T16:17:42.998Z</time></trkpt><trkpt lat="41.801429506226924" lon="12.822919371899621"><ele>350.0</ele><time>2026-05-01T16:17:43.998Z</time></trkpt><trkpt lat="41.80125931985139" lon="12.823250747173072"><ele>349.0</ele><time>2026-05-01T16:17:44.998Z</time></trkpt><trkpt lat="41.80108850788681" lon="12.82358214889608"><ele>352.0</ele><time>2026-05-01T16:17:45.998Z</time></trkpt><trkpt lat="41.80091681806159" lon="12.823913516687904"><ele>355.0</ele><time>2026-05-01T16:17:46.998Z</time></trkpt><trkpt lat="41.800746674487776" lon="12.82424435945696"><ele>356.0</ele><time>2026-05-01T16:17:47.998Z</time></trkpt><trkpt lat="41.800575990901194" lon="12.824576604245275"><ele>357.0</ele><time>2026-05-01T16:17:48.998Z</time></trkpt><trkpt lat="41.80040709318218" lon="12.824908653782868"><ele>358.5</ele><time>2026-05-01T16:17:49.998Z</time></trkpt><trkpt lat="41.800236741091474" lon="12.825238743818241"><ele>360.0</ele><time>2026-05-01T16:17:50.998Z</time></trkpt><trkpt lat="41.800066445978146" lon="12.825573256450907"><ele>360.0</ele><time>2026-05-01T16:17:51.998Z</time></trkpt><trkpt lat="41.79989719709127" lon="12.825906050551328"><ele>360.0</ele><time>2026-05-01T16:17:52.998Z</time></trkpt><trkpt lat="41.79972648206364" lon="12.826237584726734"><ele>361.0</ele><time>2026-05-01T16:17:54Z</time></trkpt><trkpt lat="41.799555559469546" lon="12.826569976471925"><ele>362.0</ele><time>2026-05-01T16:17:55Z</time></trkpt><trkpt lat="41.79938551342571" lon="12.826903363586666"><ele>364.0</ele><time>2026-05-01T16:17:56Z</time></trkpt><trkpt lat="41.7992159307037" lon="12.827236780575815"><ele>366.0</ele><time>2026-05-01T16:17:57Z</time></trkpt><trkpt lat="41.79904683479289" lon="12.827572120077177"><ele>367.0</ele><time>2026-05-01T16:17:58Z</time></trkpt><trkpt lat="41.79887973820009" lon="12.8279094989662"><ele>368.0</ele><time>2026-05-01T16:17:59Z</time></trkpt><trkpt lat="41.79871259857491" lon="12.828246502061027"><ele>369.0</ele><time>2026-05-01T16:18:00Z</time></trkpt><trkpt lat="41.798544194427535" lon="12.828584781965125"><ele>370.0</ele><time>2026-05-01T16:18:01Z</time></trkpt><trkpt lat="41.79837479417376" lon="12.828920210877728"><ele>371.0</ele><time>2026-05-01T16:18:02Z</time></trkpt><trkpt lat="41.79820470243337" lon="12.82925299972444"><ele>372.0</ele><time>2026-05-01T16:18:03Z</time></trkpt><trkpt lat="41.79803534375091" lon="12.829583879067558"><ele>373.5</ele><time>2026-05-01T16:18:04Z</time></trkpt><trkpt lat="41.79786568296007" lon="12.829913333940892"><ele>375.0</ele><time>2026-05-01T16:18:05Z</time></trkpt><trkpt lat="41.79769583273785" lon="12.830242336108617"><ele>374.0</ele><time>2026-05-01T16:18:06Z</time></trkpt><trkpt lat="41.79752647405637" lon="12.830570836858577"><ele>373.0</ele><time>2026-05-01T16:18:07Z</time></trkpt><trkpt lat="41.797357145057795" lon="12.830897355349604"><ele>371.5</ele><time>2026-05-01T16:18:08Z</time></trkpt><trkpt lat="41.79718690859502" lon="12.831218602574447"><ele>370.0</ele><time>2026-05-01T16:18:09Z</time></trkpt><trkpt lat="41.797014101614046" lon="12.831537009915147"><ele>370.5</ele><time>2026-05-01T16:18:10Z</time></trkpt><trkpt lat="41.796843420431784" lon="12.83185396347511"><ele>371.0</ele><time>2026-05-01T16:18:11Z</time></trkpt><trkpt lat="41.79667127260971" lon="12.832171594839963"><ele>367.5</ele><time>2026-05-01T16:18:12Z</time></trkpt><trkpt lat="41.7965012777708" lon="12.83248977466674"><ele>364.0</ele><time>2026-05-01T16:18:13Z</time></trkpt><trkpt lat="41.79633166836063" lon="12.83281160266287"><ele>361.0</ele><time>2026-05-01T16:18:14Z</time></trkpt><trkpt lat="41.796160767260844" lon="12.833133970663106"><ele>358.0</ele><time>2026-05-01T16:18:14.999Z</time></trkpt><trkpt lat="41.79598990775202" lon="12.833458678511759"><ele>359.5</ele><time>2026-05-01T16:18:15.999Z</time></trkpt><trkpt lat="41.795822061872194" lon="12.833787613285946"><ele>361.0</ele><time>2026-05-01T16:18:16.999Z</time></trkpt><trkpt lat="41.79565120193419" lon="12.834113641474433"><ele>363.5</ele><time>2026-05-01T16:18:17.999Z</time></trkpt><trkpt lat="41.79548158132461" lon="12.834437136446718"><ele>366.0</ele><time>2026-05-01T16:18:18.999Z</time></trkpt><trkpt lat="41.79531201675615" lon="12.834762709737491"><ele>368.5</ele><time>2026-05-01T16:18:19.999Z</time></trkpt><trkpt lat="41.79514183355417" lon="12.835087633198164"><ele>371.0</ele><time>2026-05-01T16:18:20.999Z</time></trkpt><trkpt lat="41.794971339331354" lon="12.835414254600767"><ele>371.0</ele><time>2026-05-01T16:18:21.999Z</time></trkpt><trkpt lat="41.79479987438663" lon="12.835738067710732"><ele>371.0</ele><time>2026-05-01T16:18:22.999Z</time></trkpt><trkpt lat="41.794627761614606" lon="12.836060912937599"><ele>371.0</ele><time>2026-05-01T16:18:23.999Z</time></trkpt><trkpt lat="41.794456762211674" lon="12.836377443745063"><ele>371.0</ele><time>2026-05-01T16:18:24.999Z</time></trkpt><trkpt lat="41.79428439904706" lon="12.836690234976457"><ele>370.5</ele><time>2026-05-01T16:18:25.999Z</time></trkpt><trkpt lat="41.794110860894584" lon="12.837000175805228"><ele>370.0</ele><time>2026-05-01T16:18:26.999Z</time></trkpt><trkpt lat="41.7939368559648" lon="12.837309721927738"><ele>370.0</ele><time>2026-05-01T16:18:27.999Z</time></trkpt><trkpt lat="41.793757913423654" lon="12.837622671407075"><ele>370.0</ele><time>2026-05-01T16:18:28.999Z</time></trkpt><trkpt lat="41.793571972200574" lon="12.837936769919922"><ele>369.0</ele><time>2026-05-01T16:18:29.999Z</time></trkpt><trkpt lat="41.79338746533087" lon="12.838255616469146"><ele>368.0</ele><time>2026-05-01T16:18:30.999Z</time></trkpt><trkpt lat="41.793202987787524" lon="12.838585744135589"><ele>368.0</ele><time>2026-05-01T16:18:31.999Z</time></trkpt><trkpt lat="41.79301891388191" lon="12.83890926848963"><ele>368.0</ele><time>2026-05-01T16:18:32.999Z</time></trkpt><trkpt lat="41.792835913410386" lon="12.839233994964465"><ele>363.5</ele><time>2026-05-01T16:18:33.999Z</time></trkpt><trkpt lat="41.79265357435452" lon="12.839559746872197"><ele>359.0</ele><time>2026-05-01T16:18:34.999Z</time></trkpt><trkpt lat="41.79247226289752" lon="12.839881413390474"><ele>358.0</ele><time>2026-05-01T16:18:35.999Z</time></trkpt><trkpt lat="41.7922932444507" lon="12.840201823001177"><ele>357.0</ele><time>2026-05-01T16:18:36.999Z</time></trkpt><trkpt lat="41.792118112645255" lon="12.840517623854616"><ele>357.0</ele><time>2026-05-01T16:18:37.999Z</time></trkpt><trkpt lat="41.7919441292892" lon="12.840828418016159"><ele>357.0</ele><time>2026-05-01T16:18:38.999Z</time></trkpt><trkpt lat="41.79177290578999" lon="12.841136339404535"><ele>355.0</ele><time>2026-05-01T16:18:39.999Z</time></trkpt><trkpt lat="41.79160076895925" lon="12.841439366187634"><ele>353.0</ele><time>2026-05-01T16:18:40.999Z</time></trkpt><trkpt lat="41.791428665508015" lon="12.841738634172028"><ele>351.5</ele><time>2026-05-01T16:18:41.999Z</time></trkpt><trkpt lat="41.7912603199224" lon="12.842042056940222"><ele>350.0</ele><time>2026-05-01T16:18:42.999Z</time></trkpt><trkpt lat="41.79109280465889" lon="12.842353225807866"><ele>351.5</ele><time>2026-05-01T16:18:43.999Z</time></trkpt><trkpt lat="41.7909215327987" lon="12.842666638232169"><ele>353.0</ele><time>2026-05-01T16:18:44.999Z</time></trkpt><trkpt lat="41.79074914834995" lon="12.842979779801079"><ele>353.0</ele><time>2026-05-01T16:18:45.999Z</time></trkpt><trkpt lat="41.790577730321786" lon="12.843293504182238"><ele>353.0</ele><time>2026-05-01T16:18:46.999Z</time></trkpt><trkpt lat="41.79040467237696" lon="12.84360483792838"><ele>351.0</ele><time>2026-05-01T16:18:47.999Z</time></trkpt><trkpt lat="41.7902307724027" lon="12.843915188466829"><ele>349.0</ele><time>2026-05-01T16:18:48.999Z</time></trkpt><trkpt lat="41.79005617725865" lon="12.844226402670111"><ele>353.5</ele><time>2026-05-01T16:18:49.999Z</time></trkpt><trkpt lat="41.78988141824707" lon="12.844536412427962"><ele>358.0</ele><time>2026-05-01T16:18:50.999Z</time></trkpt><trkpt lat="41.78970522512667" lon="12.844845651725844"><ele>358.0</ele><time>2026-05-01T16:18:51.999Z</time></trkpt><trkpt lat="41.78952952724787" lon="12.845152088746826"><ele>358.0</ele><time>2026-05-01T16:18:52.999Z</time></trkpt><trkpt lat="41.78935143232415" lon="12.845457310551797"><ele>358.5</ele><time>2026-05-01T16:18:53.999Z</time></trkpt><trkpt lat="41.78917303691299" lon="12.845767722021705"><ele>359.0</ele><time>2026-05-01T16:18:54.999Z</time></trkpt><trkpt lat="41.7889966087137" lon="12.846079268877816"><ele>359.0</ele><time>2026-05-01T16:18:55.999Z</time></trkpt><trkpt lat="41.78882245966432" lon="12.846391392864957"><ele>359.0</ele><time>2026-05-01T16:18:56.999Z</time></trkpt><trkpt lat="41.788647280217994" lon="12.846703736157195"><ele>360.5</ele><time>2026-05-01T16:18:57.999Z</time></trkpt><trkpt lat="41.7884708986164" lon="12.847013396838147"><ele>362.0</ele><time>2026-05-01T16:18:58.999Z</time></trkpt><trkpt lat="41.78829606264535" lon="12.847324418706448"><ele>357.5</ele><time>2026-05-01T16:18:59.999Z</time></trkpt><trkpt lat="41.78812171758387" lon="12.847634812322063"><ele>353.0</ele><time>2026-05-01T16:19:00.999Z</time></trkpt><trkpt lat="41.78794850433911" lon="12.84794352575621"><ele>353.0</ele><time>2026-05-01T16:19:01.999Z</time></trkpt><trkpt lat="41.787773656831845" lon="12.848248623269823"><ele>353.0</ele><time>2026-05-01T16:19:02.999Z</time></trkpt><trkpt lat="41.787599382401076" lon="12.848554904414472"><ele>351.5</ele><time>2026-05-01T16:19:03.999Z</time></trkpt><trkpt lat="41.78742877966458" lon="12.848859340009856"><ele>350.0</ele><time>2026-05-01T16:19:04.999Z</time></trkpt><trkpt lat="41.787256578889846" lon="12.84916465708174"><ele>350.5</ele><time>2026-05-01T16:19:05.999Z</time></trkpt><trkpt lat="41.78708455483719" lon="12.849467817561566"><ele>351.0</ele><time>2026-05-01T16:19:06.999Z</time></trkpt><trkpt lat="41.78691301995227" lon="12.849768168769693"><ele>349.5</ele><time>2026-05-01T16:19:07.999Z</time></trkpt><trkpt lat="41.786741923958864" lon="12.850070551955751"><ele>348.0</ele><time>2026-05-01T16:19:08.998Z</time></trkpt><trkpt lat="41.786571363538" lon="12.85036984679324"><ele>347.0</ele><time>2026-05-01T16:19:09.998Z</time></trkpt><trkpt lat="41.78639997072679" lon="12.850671148579456"><ele>346.0</ele><time>2026-05-01T16:19:10.998Z</time></trkpt><trkpt lat="41.78622986883503" lon="12.850973452255536"><ele>345.5</ele><time>2026-05-01T16:19:11.998Z</time></trkpt><trkpt lat="41.78606111144743" lon="12.851275226613215"><ele>345.0</ele><time>2026-05-01T16:19:12.998Z</time></trkpt><trkpt lat="41.78589148729141" lon="12.851578942549382"><ele>343.5</ele><time>2026-05-01T16:19:13.998Z</time></trkpt><trkpt lat="41.78572282235348" lon="12.851886084851422"><ele>342.0</ele><time>2026-05-01T16:19:14.998Z</time></trkpt><trkpt lat="41.78555358654292" lon="12.852190231368185"><ele>342.0</ele><time>2026-05-01T16:19:15.998Z</time></trkpt><trkpt lat="41.78538131916415" lon="12.852492594897184"><ele>342.0</ele><time>2026-05-01T16:19:16.998Z</time></trkpt><trkpt lat="41.78520898273584" lon="12.852794353263041"><ele>347.5</ele><time>2026-05-01T16:19:17.998Z</time></trkpt><trkpt lat="41.78503952256938" lon="12.853097997220134"><ele>353.0</ele><time>2026-05-01T16:19:18.998Z</time></trkpt><trkpt lat="41.7848708484425" lon="12.853401531637695"><ele>356.0</ele><time>2026-05-01T16:19:19.998Z</time></trkpt><trkpt lat="41.78470176795353" lon="12.85370536587565"><ele>359.0</ele><time>2026-05-01T16:19:20.998Z</time></trkpt><trkpt lat="41.78453185797167" lon="12.854008620008141"><ele>360.0</ele><time>2026-05-01T16:19:21.998Z</time></trkpt><trkpt lat="41.78435927873397" lon="12.854311598706948"><ele>361.0</ele><time>2026-05-01T16:19:22.998Z</time></trkpt><trkpt lat="41.784187909390994" lon="12.854615690239369"><ele>361.0</ele><time>2026-05-01T16:19:23.998Z</time></trkpt><trkpt lat="41.78401875954524" lon="12.854919744366933"><ele>361.0</ele><time>2026-05-01T16:19:24.998Z</time></trkpt><trkpt lat="41.783849454896504" lon="12.855220324981241"><ele>362.5</ele><time>2026-05-01T16:19:25.998Z</time></trkpt><trkpt lat="41.78367939535586" lon="12.855519048556264"><ele>364.0</ele><time>2026-05-01T16:19:26.998Z</time></trkpt><trkpt lat="41.78350878443851" lon="12.855814366617185"><ele>364.0</ele><time>2026-05-01T16:19:27.998Z</time></trkpt><trkpt lat="41.78333747479213" lon="12.856108245013655"><ele>364.0</ele><time>2026-05-01T16:19:28.998Z</time></trkpt><trkpt lat="41.7831633736128" lon="12.856403648663981"><ele>364.0</ele><time>2026-05-01T16:19:29.998Z</time></trkpt><trkpt lat="41.78298858361076" lon="12.856701374833158"><ele>364.0</ele><time>2026-05-01T16:19:30.998Z</time></trkpt><trkpt lat="41.78281362975678" lon="12.856998454425216"><ele>363.5</ele><time>2026-05-01T16:19:31.998Z</time></trkpt><trkpt lat="41.78263929765994" lon="12.85729962885002"><ele>363.0</ele><time>2026-05-01T16:19:32.998Z</time></trkpt><trkpt lat="41.782466041136495" lon="12.857601737988437"><ele>358.5</ele><time>2026-05-01T16:19:33.998Z</time></trkpt><trkpt lat="41.78229388243475" lon="12.85790456683552"><ele>354.0</ele><time>2026-05-01T16:19:34.998Z</time></trkpt><trkpt lat="41.7821240708311" lon="12.858208233445389"><ele>354.5</ele><time>2026-05-01T16:19:35.998Z</time></trkpt><trkpt lat="41.78195547674899" lon="12.858514077921969"><ele>355.0</ele><time>2026-05-01T16:19:36.998Z</time></trkpt><trkpt lat="41.78179059743275" lon="12.858823037992813"><ele>355.0</ele><time>2026-05-01T16:19:37.998Z</time></trkpt><trkpt lat="41.78162761198827" lon="12.85913497192763"><ele>355.0</ele><time>2026-05-01T16:19:38.998Z</time></trkpt><trkpt lat="41.781469055268694" lon="12.859451421737667"><ele>359.5</ele><time>2026-05-01T16:19:39.998Z</time></trkpt><trkpt lat="41.78131468939847" lon="12.85977186684478"><ele>364.0</ele><time>2026-05-01T16:19:40.998Z</time></trkpt><trkpt lat="41.781161008907944" lon="12.860096309067629"><ele>362.0</ele><time>2026-05-01T16:19:41.998Z</time></trkpt><trkpt lat="41.78101067453347" lon="12.860423575339645"><ele>360.0</ele><time>2026-05-01T16:19:42.998Z</time></trkpt><trkpt lat="41.78086304752519" lon="12.860754327851884"><ele>359.5</ele><time>2026-05-01T16:19:43.998Z</time></trkpt><trkpt lat="41.78071782824302" lon="12.861088031114974"><ele>359.0</ele><time>2026-05-01T16:19:44.998Z</time></trkpt><trkpt lat="41.780577234029614" lon="12.861423772333094"><ele>359.0</ele><time>2026-05-01T16:19:45.998Z</time></trkpt><trkpt lat="41.78043798072588" lon="12.861762460126393"><ele>359.0</ele><time>2026-05-01T16:19:46.998Z</time></trkpt><trkpt lat="41.780300636393314" lon="12.86210104220413"><ele>359.5</ele><time>2026-05-01T16:19:47.998Z</time></trkpt><trkpt lat="41.780166762008825" lon="12.86244362930586"><ele>360.0</ele><time>2026-05-01T16:19:48.998Z</time></trkpt><trkpt lat="41.78003661645513" lon="12.862788573449594"><ele>360.5</ele><time>2026-05-01T16:19:49.998Z</time></trkpt><trkpt lat="41.77991081640118" lon="12.86313823408948"><ele>361.0</ele><time>2026-05-01T16:19:50.998Z</time></trkpt><trkpt lat="41.779788655074285" lon="12.863490929594292"><ele>361.0</ele><time>2026-05-01T16:19:51.998Z</time></trkpt><trkpt lat="41.779668187141624" lon="12.863845345131255"><ele>361.0</ele><time>2026-05-01T16:19:52.998Z</time></trkpt><trkpt lat="41.779551375150305" lon="12.86420244424856"><ele>360.5</ele><time>2026-05-01T16:19:53.998Z</time></trkpt><trkpt lat="41.77943792314968" lon="12.864563286297694"><ele>360.0</ele><time>2026-05-01T16:19:54.998Z</time></trkpt><trkpt lat="41.77932672749244" lon="12.864926121560796"><ele>358.0</ele><time>2026-05-01T16:19:55.998Z</time></trkpt><trkpt lat="41.779219367144876" lon="12.865291697762519"><ele>356.0</ele><time>2026-05-01T16:19:56.998Z</time></trkpt><trkpt lat="41.77911590297829" lon="12.865659946236907"><ele>354.0</ele><time>2026-05-01T16:19:57.998Z</time></trkpt><trkpt lat="41.77901475269737" lon="12.866029665581845"><ele>352.0</ele><time>2026-05-01T16:19:58.998Z</time></trkpt><trkpt lat="41.778916443739384" lon="12.866403464124542"><ele>352.0</ele><time>2026-05-01T16:20:00Z</time></trkpt><trkpt lat="41.7788195512681" lon="12.866777467991975"><ele>352.0</ele><time>2026-05-01T16:20:01Z</time></trkpt><trkpt lat="41.77872493098757" lon="12.86715286920288"><ele>352.5</ele><time>2026-05-01T16:20:02Z</time></trkpt><trkpt lat="41.778636286153784" lon="12.867530162748084"><ele>353.0</ele><time>2026-05-01T16:20:03Z</time></trkpt><trkpt lat="41.778551009001355" lon="12.867907701805246"><ele>349.5</ele><time>2026-05-01T16:20:04Z</time></trkpt><trkpt lat="41.778468642460666" lon="12.868286293508444"><ele>346.0</ele><time>2026-05-01T16:20:05Z</time></trkpt><trkpt lat="41.77838759253351" lon="12.868664987923498"><ele>346.0</ele><time>2026-05-01T16:20:06Z</time></trkpt><trkpt lat="41.77830487699406" lon="12.869040316951446"><ele>346.0</ele><time>2026-05-01T16:20:07Z</time></trkpt><trkpt lat="41.77822178347298" lon="12.869414171855533"><ele>346.5</ele><time>2026-05-01T16:20:08Z</time></trkpt><trkpt lat="41.77813899114651" lon="12.86978477268351"><ele>347.0</ele><time>2026-05-01T16:20:09Z</time></trkpt><trkpt lat="41.778058088323846" lon="12.870154199727919"><ele>347.0</ele><time>2026-05-01T16:20:10Z</time></trkpt><trkpt lat="41.77797689158072" lon="12.870520261567746"><ele>347.0</ele><time>2026-05-01T16:20:11Z</time></trkpt><trkpt lat="41.77789723090944" lon="12.870890344556129"><ele>345.5</ele><time>2026-05-01T16:20:12Z</time></trkpt><trkpt lat="41.7778174401055" lon="12.871256047776548"><ele>344.0</ele><time>2026-05-01T16:20:13Z</time></trkpt><trkpt lat="41.77773831539745" lon="12.871622241230325"><ele>341.0</ele><time>2026-05-01T16:20:14Z</time></trkpt><trkpt lat="41.777659541118304" lon="12.871986506186708"><ele>338.0</ele><time>2026-05-01T16:20:15Z</time></trkpt><trkpt lat="41.77758088999745" lon="12.872352612200201"><ele>338.0</ele><time>2026-05-01T16:20:16Z</time></trkpt><trkpt lat="41.77750042590161" lon="12.872720551673249"><ele>338.0</ele><time>2026-05-01T16:20:17Z</time></trkpt><trkpt lat="41.777419182817184" lon="12.873089826373857"><ele>342.0</ele><time>2026-05-01T16:20:18Z</time></trkpt><trkpt lat="41.777338259397176" lon="12.87346028207329"><ele>346.0</ele><time>2026-05-01T16:20:19Z</time></trkpt><trkpt lat="41.77726166513149" lon="12.873833062068515"><ele>346.0</ele><time>2026-05-01T16:20:20Z</time></trkpt><trkpt lat="41.77718092561746" lon="12.874204846096568"><ele>346.0</ele><time>2026-05-01T16:20:21Z</time></trkpt><trkpt lat="41.77709925398407" lon="12.874577544076354"><ele>347.5</ele><time>2026-05-01T16:20:21.999Z</time></trkpt><trkpt lat="41.77701706709151" lon="12.874953769320504"><ele>349.0</ele><time>2026-05-01T16:20:22.999Z</time></trkpt><trkpt lat="41.776935165647295" lon="12.875330795588074"><ele>349.5</ele><time>2026-05-01T16:20:23.999Z</time></trkpt><trkpt lat="41.776855924260275" lon="12.875711610219474"><ele>350.0</ele><time>2026-05-01T16:20:24.999Z</time></trkpt><trkpt lat="41.77677912672494" lon="12.87609284851911"><ele>346.0</ele><time>2026-05-01T16:20:25.999Z</time></trkpt><trkpt lat="41.77670250036463" lon="12.87647604039512"><ele>342.0</ele><time>2026-05-01T16:20:26.999Z</time></trkpt><trkpt lat="41.77662364119754" lon="12.876858603697128"><ele>342.0</ele><time>2026-05-01T16:20:27.999Z</time></trkpt><trkpt lat="41.77654390417609" lon="12.877243259232804"><ele>342.0</ele><time>2026-05-01T16:20:28.999Z</time></trkpt><trkpt lat="41.7764626694522" lon="12.877626261350107"><ele>342.5</ele><time>2026-05-01T16:20:29.999Z</time></trkpt><trkpt lat="41.7763813673438" lon="12.878010320625954"><ele>343.0</ele><time>2026-05-01T16:20:30.999Z</time></trkpt><trkpt lat="41.77630113467155" lon="12.878392305635465"><ele>343.5</ele><time>2026-05-01T16:20:31.999Z</time></trkpt><trkpt lat="41.77621922703425" lon="12.878776192841642"><ele>344.0</ele><time>2026-05-01T16:20:32.999Z</time></trkpt><trkpt lat="41.776136250049824" lon="12.879160658018744"><ele>345.0</ele><time>2026-05-01T16:20:33.999Z</time></trkpt><trkpt lat="41.77605257711192" lon="12.879545578739686"><ele>346.0</ele><time>2026-05-01T16:20:34.999Z</time></trkpt><trkpt lat="41.775969590585994" lon="12.879928011976581"><ele>342.5</ele><time>2026-05-01T16:20:35.999Z</time></trkpt><trkpt lat="41.77588537811257" lon="12.880308627167583"><ele>339.0</ele><time>2026-05-01T16:20:36.999Z</time></trkpt><trkpt lat="41.77580011305353" lon="12.880687875574784"><ele>339.0</ele><time>2026-05-01T16:20:37.999Z</time></trkpt><trkpt lat="41.77571549410379" lon="12.881064948480455"><ele>339.0</ele><time>2026-05-01T16:20:38.999Z</time></trkpt><trkpt lat="41.775630657355514" lon="12.881440072493273"><ele>339.5</ele><time>2026-05-01T16:20:39.999Z</time></trkpt><trkpt lat="41.77554831219449" lon="12.88181583186273"><ele>340.0</ele><time>2026-05-01T16:20:40.999Z</time></trkpt><trkpt lat="41.775466266390225" lon="12.882192683815097"><ele>340.0</ele><time>2026-05-01T16:20:41.999Z</time></trkpt><trkpt lat="41.77538392479566" lon="12.88256825846138"><ele>340.0</ele><time>2026-05-01T16:20:42.999Z</time></trkpt><trkpt lat="41.77529979805914" lon="12.88294369066223"><ele>339.5</ele><time>2026-05-01T16:20:43.999Z</time></trkpt><trkpt lat="41.77521471705967" lon="12.883321880479125"><ele>339.0</ele><time>2026-05-01T16:20:44.999Z</time></trkpt><trkpt lat="41.7751310630218" lon="12.883699398117338"><ele>337.0</ele><time>2026-05-01T16:20:45.999Z</time></trkpt><trkpt lat="41.77504761337107" lon="12.88407888959181"><ele>335.0</ele><time>2026-05-01T16:20:46.999Z</time></trkpt><trkpt lat="41.77496309068837" lon="12.884460257968275"><ele>332.5</ele><time>2026-05-01T16:20:47.999Z</time></trkpt><trkpt lat="41.77487817249016" lon="12.884841519422542"><ele>330.0</ele><time>2026-05-01T16:20:48.999Z</time></trkpt><trkpt lat="41.77479411564428" lon="12.88522107004242"><ele>328.0</ele><time>2026-05-01T16:20:49.999Z</time></trkpt><trkpt lat="41.774710001465316" lon="12.885601306345254"><ele>326.0</ele><time>2026-05-01T16:20:50.999Z</time></trkpt><trkpt lat="41.77462738231198" lon="12.885981654624022"><ele>324.5</ele><time>2026-05-01T16:20:51.999Z</time></trkpt><trkpt lat="41.77454618089873" lon="12.886364031592075"><ele>323.0</ele><time>2026-05-01T16:20:52.999Z</time></trkpt><trkpt lat="41.77446755161331" lon="12.886745142351659"><ele>323.0</ele><time>2026-05-01T16:20:53.999Z</time></trkpt><trkpt lat="41.774387403000404" lon="12.887124250133105"><ele>323.0</ele><time>2026-05-01T16:20:54.999Z</time></trkpt><trkpt lat="41.77430397292427" lon="12.887503403311419"><ele>324.5</ele><time>2026-05-01T16:20:55.999Z</time></trkpt><trkpt lat="41.7742163607001" lon="12.887879726273"><ele>326.0</ele><time>2026-05-01T16:20:56.999Z</time></trkpt><trkpt lat="41.77412849349378" lon="12.888254357684836"><ele>325.5</ele><time>2026-05-01T16:20:57.999Z</time></trkpt><trkpt lat="41.77404208457588" lon="12.888626532874477"><ele>325.0</ele><time>2026-05-01T16:20:58.999Z</time></trkpt><trkpt lat="41.77395944598688" lon="12.88899572930217"><ele>324.5</ele><time>2026-05-01T16:20:59.999Z</time></trkpt><trkpt lat="41.773878933399295" lon="12.88936235471122"><ele>324.0</ele><time>2026-05-01T16:21:00.999Z</time></trkpt><trkpt lat="41.77379877540725" lon="12.889727743887297"><ele>322.5</ele><time>2026-05-01T16:21:01.999Z</time></trkpt><trkpt lat="41.773717286555794" lon="12.890093957913905"><ele>321.0</ele><time>2026-05-01T16:21:02.999Z</time></trkpt><trkpt lat="41.77363531759421" lon="12.890459790197022"><ele>321.0</ele><time>2026-05-01T16:21:03.999Z</time></trkpt><trkpt lat="41.77355350409117" lon="12.890823094081307"><ele>321.0</ele><time>2026-05-01T16:21:04.999Z</time></trkpt><trkpt lat="41.77347317547977" lon="12.891183553375251"><ele>321.5</ele><time>2026-05-01T16:21:05.999Z</time></trkpt><trkpt lat="41.77339307977063" lon="12.891538986895622"><ele>322.0</ele><time>2026-05-01T16:21:06.999Z</time></trkpt><trkpt lat="41.773317415577985" lon="12.891897609674018"><ele>320.0</ele><time>2026-05-01T16:21:07.999Z</time></trkpt><trkpt lat="41.77324881220903" lon="12.89225174416311"><ele>318.0</ele><time>2026-05-01T16:21:08.999Z</time></trkpt><trkpt lat="41.773189301471156" lon="12.892599631720987"><ele>317.0</ele><time>2026-05-01T16:21:09.999Z</time></trkpt><trkpt lat="41.773122128991254" lon="12.89295721146534"><ele>316.0</ele><time>2026-05-01T16:21:10.999Z</time></trkpt><trkpt lat="41.7730392203883" lon="12.893319017912711"><ele>315.0</ele><time>2026-05-01T16:21:11.999Z</time></trkpt><trkpt lat="41.772953090856284" lon="12.893685800551932"><ele>314.0</ele><time>2026-05-01T16:21:12.999Z</time></trkpt><trkpt lat="41.77286845592311" lon="12.894053668651393"><ele>314.5</ele><time>2026-05-01T16:21:13.999Z</time></trkpt><trkpt lat="41.77278197202426" lon="12.894424601019548"><ele>315.0</ele><time>2026-05-01T16:21:14.998Z</time></trkpt><trkpt lat="41.77269669205372" lon="12.894799505535188"><ele>317.0</ele><time>2026-05-01T16:21:15.998Z</time></trkpt><trkpt lat="41.7726091796806" lon="12.895176851622686"><ele>319.0</ele><time>2026-05-01T16:21:16.998Z</time></trkpt><trkpt lat="41.772524764394284" lon="12.895555599082241"><ele>316.5</ele><time>2026-05-01T16:21:17.998Z</time></trkpt><trkpt lat="41.77244047184799" lon="12.895935500512413"><ele>314.0</ele><time>2026-05-01T16:21:18.998Z</time></trkpt><trkpt lat="41.77235449104409" lon="12.89631599562789"><ele>314.0</ele><time>2026-05-01T16:21:19.998Z</time></trkpt><trkpt lat="41.772268892214555" lon="12.89669788087699"><ele>314.0</ele><time>2026-05-01T16:21:20.998Z</time></trkpt><trkpt lat="41.772181436524676" lon="12.89707992601062"><ele>313.0</ele><time>2026-05-01T16:21:21.998Z</time></trkpt><trkpt lat="41.77209717473125" lon="12.897462971040982"><ele>312.0</ele><time>2026-05-01T16:21:22.998Z</time></trkpt><trkpt lat="41.77201344268655" lon="12.897845184196981"><ele>311.5</ele><time>2026-05-01T16:21:23.998Z</time></trkpt><trkpt lat="41.77192935836539" lon="12.898227444629539"><ele>311.0</ele><time>2026-05-01T16:21:24.998Z</time></trkpt><trkpt lat="41.77184529501556" lon="12.89860784550142"><ele>313.5</ele><time>2026-05-01T16:21:25.998Z</time></trkpt><trkpt lat="41.77176028074751" lon="12.898990107930038"><ele>316.0</ele><time>2026-05-01T16:21:26.998Z</time></trkpt><trkpt lat="41.771674809374645" lon="12.899372681828552"><ele>316.0</ele><time>2026-05-01T16:21:27.998Z</time></trkpt><trkpt lat="41.771590292744456" lon="12.899754128932056"><ele>316.0</ele><time>2026-05-01T16:21:28.998Z</time></trkpt><trkpt lat="41.77150633859163" lon="12.900134580397616"><ele>316.0</ele><time>2026-05-01T16:21:29.998Z</time></trkpt><trkpt lat="41.77142179347665" lon="12.900515537286491"><ele>316.0</ele><time>2026-05-01T16:21:30.998Z</time></trkpt><trkpt lat="41.77133701697641" lon="12.90089659561989"><ele>314.5</ele><time>2026-05-01T16:21:31.998Z</time></trkpt><trkpt lat="41.77125230533528" lon="12.901280120781236"><ele>313.0</ele><time>2026-05-01T16:21:32.998Z</time></trkpt><trkpt lat="41.77116603580362" lon="12.90166402559346"><ele>312.0</ele><time>2026-05-01T16:21:33.998Z</time></trkpt><trkpt lat="41.77108114919613" lon="12.90204604496049"><ele>311.0</ele><time>2026-05-01T16:21:34.998Z</time></trkpt><trkpt lat="41.77099689701153" lon="12.902429415065368"><ele>309.5</ele><time>2026-05-01T16:21:35.998Z</time></trkpt><trkpt lat="41.77091265795538" lon="12.902810473569021"><ele>308.0</ele><time>2026-05-01T16:21:36.998Z</time></trkpt><trkpt lat="41.77082564955141" lon="12.903189930012843"><ele>306.5</ele><time>2026-05-01T16:21:37.998Z</time></trkpt><trkpt lat="41.77074051506614" lon="12.903568183796443"><ele>305.0</ele><time>2026-05-01T16:21:38.998Z</time></trkpt><trkpt lat="41.77065653164092" lon="12.903948346602522"><ele>303.5</ele><time>2026-05-01T16:21:39.998Z</time></trkpt><trkpt lat="41.77057339364051" lon="12.904325930630838"><ele>302.0</ele><time>2026-05-01T16:21:40.998Z</time></trkpt><trkpt lat="41.77049173946776" lon="12.904702601997599"><ele>302.0</ele><time>2026-05-01T16:21:41.998Z</time></trkpt><trkpt lat="41.77041049980961" lon="12.905077363559753"><ele>302.0</ele><time>2026-05-01T16:21:42.998Z</time></trkpt><trkpt lat="41.77032765415626" lon="12.905453659632173"><ele>302.0</ele><time>2026-05-01T16:21:43.998Z</time></trkpt><trkpt lat="41.770243457528835" lon="12.90582921659284"><ele>302.0</ele><time>2026-05-01T16:21:44.998Z</time></trkpt><trkpt lat="41.77016163825073" lon="12.906206046116445"><ele>302.0</ele><time>2026-05-01T16:21:45.998Z</time></trkpt><trkpt lat="41.77007948511058" lon="12.906581059698047"><ele>302.0</ele><time>2026-05-01T16:21:46.998Z</time></trkpt><trkpt lat="41.769996585196544" lon="12.906957252675204"><ele>302.0</ele><time>2026-05-01T16:21:47.998Z</time></trkpt><trkpt lat="41.76991344345886" lon="12.907331479437335"><ele>302.0</ele><time>2026-05-01T16:21:48.998Z</time></trkpt><trkpt lat="41.769830732018086" lon="12.907703711280574"><ele>299.5</ele><time>2026-05-01T16:21:49.998Z</time></trkpt><trkpt lat="41.769747704728964" lon="12.908075314929835"><ele>297.0</ele><time>2026-05-01T16:21:50.998Z</time></trkpt><trkpt lat="41.76966592576186" lon="12.908447004330359"><ele>297.0</ele><time>2026-05-01T16:21:51.998Z</time></trkpt><trkpt lat="41.76958336511317" lon="12.90882014251367"><ele>297.0</ele><time>2026-05-01T16:21:52.998Z</time></trkpt><trkpt lat="41.769502147967266" lon="12.909194189964502"><ele>297.0</ele><time>2026-05-01T16:21:53.998Z</time></trkpt><trkpt lat="41.76942118661844" lon="12.909568378540856"><ele>297.0</ele><time>2026-05-01T16:21:54.998Z</time></trkpt><trkpt lat="41.76933803997576" lon="12.909942773333928"><ele>297.0</ele><time>2026-05-01T16:21:55.998Z</time></trkpt><trkpt lat="41.76925461214143" lon="12.91031712443532"><ele>297.0</ele><time>2026-05-01T16:21:56.998Z</time></trkpt><trkpt lat="41.76917054600178" lon="12.910691094202575"><ele>297.0</ele><time>2026-05-01T16:21:57.998Z</time></trkpt><trkpt lat="41.7690861988172" lon="12.911065020648488"><ele>297.0</ele><time>2026-05-01T16:21:58.998Z</time></trkpt><trkpt lat="41.76899841845135" lon="12.91143589819123"><ele>299.5</ele><time>2026-05-01T16:21:59.998Z</time></trkpt><trkpt lat="41.76891149958691" lon="12.911805114084736"><ele>302.0</ele><time>2026-05-01T16:22:00.998Z</time></trkpt><trkpt lat="41.76882840425566" lon="12.912174851388118"><ele>302.0</ele><time>2026-05-01T16:22:01.998Z</time></trkpt><trkpt lat="41.76874746475138" lon="12.912543097607328"><ele>302.0</ele><time>2026-05-01T16:22:02.998Z</time></trkpt><trkpt lat="41.768668191368505" lon="12.912910753660338"><ele>302.5</ele><time>2026-05-01T16:22:03.998Z</time></trkpt><trkpt lat="41.76858718337013" lon="12.913277737057859"><ele>303.0</ele><time>2026-05-01T16:22:04.998Z</time></trkpt><trkpt lat="41.76850520558287" lon="12.913642397346662"><ele>296.5</ele><time>2026-05-01T16:22:06Z</time></trkpt><trkpt lat="41.76842443021027" lon="12.914002349927861"><ele>290.0</ele><time>2026-05-01T16:22:07Z</time></trkpt><trkpt lat="41.76834426212067" lon="12.914360032316448"><ele>290.0</ele><time>2026-05-01T16:22:08Z</time></trkpt><trkpt lat="41.76826509883489" lon="12.914715127646863"><ele>290.0</ele><time>2026-05-01T16:22:09Z</time></trkpt><trkpt lat="41.76818621600684" lon="12.915065055412866"><ele>289.5</ele><time>2026-05-01T16:22:10Z</time></trkpt><trkpt lat="41.76811008576995" lon="12.915405000236705"><ele>289.0</ele><time>2026-05-01T16:22:11Z</time></trkpt><trkpt lat="41.76803609440072" lon="12.915738445438238"><ele>289.5</ele><time>2026-05-01T16:22:12Z</time></trkpt><trkpt lat="41.76796594878499" lon="12.916070123303152"><ele>290.0</ele><time>2026-05-01T16:22:13Z</time></trkpt><trkpt lat="41.76789500629098" lon="12.916396988968945"><ele>290.0</ele><time>2026-05-01T16:22:14Z</time></trkpt><trkpt lat="41.76782347085332" lon="12.916721479444545"><ele>290.0</ele><time>2026-05-01T16:22:15Z</time></trkpt><trkpt lat="41.7677526743011" lon="12.917041875044566"><ele>288.5</ele><time>2026-05-01T16:22:16Z</time></trkpt><trkpt lat="41.76768227878746" lon="12.917358087111053"><ele>287.0</ele><time>2026-05-01T16:22:17Z</time></trkpt><trkpt lat="41.767616223638115" lon="12.917669043888143"><ele>286.5</ele><time>2026-05-01T16:22:18Z</time></trkpt><trkpt lat="41.767548697974824" lon="12.917972721754134"><ele>286.0</ele><time>2026-05-01T16:22:19Z</time></trkpt><trkpt lat="41.7674809064781" lon="12.918267340185444"><ele>285.66666666666663</ele><time>2026-05-01T16:22:20Z</time></trkpt><trkpt lat="41.76741333305831" lon="12.918553551000407"><ele>285.3333333333333</ele><time>2026-05-01T16:22:21Z</time></trkpt><trkpt lat="41.767348734788285" lon="12.91882960368524"><ele>285.0</ele><time>2026-05-01T16:22:22Z</time></trkpt><trkpt lat="41.767286059893216" lon="12.919096650408976"><ele>284.6666666666667</ele><time>2026-05-01T16:22:23Z</time></trkpt><trkpt lat="41.76722442569708" lon="12.919350165615564"><ele>284.33333333333337</ele><time>2026-05-01T16:22:24Z</time></trkpt><trkpt lat="41.76716634523097" lon="12.91959087875145"><ele>284.0</ele><time>2026-05-01T16:22:25Z</time></trkpt><trkpt lat="41.76710966281183" lon="12.919824175789271"><ele>284.0</ele><time>2026-05-01T16:22:26Z</time></trkpt><trkpt lat="41.767053978527024" lon="12.920046828244903"><ele>284.0</ele><time>2026-05-01T16:22:27Z</time></trkpt><trkpt lat="41.76700360067837" lon="12.92026475375972"><ele>284.0</ele><time>2026-05-01T16:22:28Z</time></trkpt><trkpt lat="41.76696229479072" lon="12.920465752153833"><ele>283.5</ele><time>2026-05-01T16:22:28.999Z</time></trkpt><trkpt lat="41.76692146365911" lon="12.920662793195138"><ele>283.0</ele><time>2026-05-01T16:22:29.999Z</time></trkpt><trkpt lat="41.76687776277897" lon="12.920853386183385"><ele>282.5</ele><time>2026-05-01T16:22:30.999Z</time></trkpt><trkpt lat="41.76682796187592" lon="12.921037821548083"><ele>282.0</ele><time>2026-05-01T16:22:31.999Z</time></trkpt><trkpt lat="41.76676192932004" lon="12.921201349329285"><ele>283.3333333333333</ele><time>2026-05-01T16:22:32.999Z</time></trkpt><trkpt lat="41.766665696768705" lon="12.921353578582922"><ele>284.66666666666663</ele><time>2026-05-01T16:22:33.999Z</time></trkpt><trkpt lat="41.766546329591876" lon="12.921480537567383"><ele>286.0</ele><time>2026-05-01T16:22:34.999Z</time></trkpt><trkpt lat="41.76640454417605" lon="12.921558949987876"><ele>286.0</ele><time>2026-05-01T16:22:35.999Z</time></trkpt><trkpt lat="41.76625744891113" lon="12.92160964848278"><ele>286.0</ele><time>2026-05-01T16:22:36.999Z</time></trkpt><trkpt lat="41.76611819990649" lon="12.921670717797122"><ele>286.0</ele><time>2026-05-01T16:22:37.999Z</time></trkpt><trkpt lat="41.76597120062417" lon="12.921744961563686"><ele>287.25</ele><time>2026-05-01T16:22:38.999Z</time></trkpt><trkpt lat="41.76583155439371" lon="12.921812241660009"><ele>288.5</ele><time>2026-05-01T16:22:39.999Z</time></trkpt><trkpt lat="41.76575418923187" lon="12.921984718262424"><ele>289.75</ele><time>2026-05-01T16:22:40.999Z</time></trkpt><trkpt lat="41.76568719393961" lon="12.9221633465012"><ele>291.0</ele><time>2026-05-01T16:22:41.999Z</time></trkpt><trkpt lat="41.76566196645434" lon="12.92236025722562"><ele>291.0</ele><time>2026-05-01T16:22:42.999Z</time></trkpt><trkpt lat="41.7656993631028" lon="12.922542733137398"><ele>291.0</ele><time>2026-05-01T16:22:43.999Z</time></trkpt><trkpt lat="41.765756224731916" lon="12.922703389898421"><ele>291.0</ele><time>2026-05-01T16:22:44.999Z</time></trkpt><trkpt lat="41.76584415486571" lon="12.922841229326936"><ele>291.0</ele><time>2026-05-01T16:22:45.999Z</time></trkpt><trkpt lat="41.765955557653164" lon="12.922948393044226"><ele>289.75</ele><time>2026-05-01T16:22:46.999Z</time></trkpt><trkpt lat="41.76609464674288" lon="12.923026317767782"><ele>288.5</ele><time>2026-05-01T16:22:47.999Z</time></trkpt><trkpt lat="41.766238768480854" lon="12.923087681677886"><ele>287.25</ele><time>2026-05-01T16:22:48.999Z</time></trkpt><trkpt lat="41.766375481663616" lon="12.923140837960633"><ele>286.0</ele><time>2026-05-01T16:22:49.999Z</time></trkpt><trkpt lat="41.766488064436345" lon="12.923183525696421"><ele>286.0</ele><time>2026-05-01T16:22:50.999Z</time></trkpt><trkpt lat="41.766612029274896" lon="12.923233920501211"><ele>286.0</ele><time>2026-05-01T16:22:51.999Z</time></trkpt><trkpt lat="41.76672720890012" lon="12.923277272737819"><ele>286.0</ele><time>2026-05-01T16:22:52.999Z</time></trkpt><trkpt lat="41.766834677147" lon="12.923311927253224"><ele>286.0</ele><time>2026-05-01T16:22:53.999Z</time></trkpt><trkpt lat="41.76693640986947" lon="12.923313695587396"><ele>284.6</ele><time>2026-05-01T16:22:54.999Z</time></trkpt><trkpt lat="41.76702374425627" lon="12.92327076544438"><ele>283.20000000000005</ele><time>2026-05-01T16:22:55.999Z</time></trkpt><trkpt lat="41.76710347999033" lon="12.923208121927681"><ele>281.79999999999995</ele><time>2026-05-01T16:22:56.999Z</time></trkpt><trkpt lat="41.767186742458115" lon="12.923128083160465"><ele>280.4</ele><time>2026-05-01T16:22:57.999Z</time></trkpt><trkpt lat="41.76726010050787" lon="12.923040169757302"><ele>279.0</ele><time>2026-05-01T16:22:58.999Z</time></trkpt><trkpt lat="41.76732788636832" lon="12.922943209115203"><ele>279.0</ele><time>2026-05-01T16:22:59.999Z</time></trkpt><trkpt lat="41.76739563941847" lon="12.922840219619259"><ele>279.0</ele><time>2026-05-01T16:23:00.999Z</time></trkpt><trkpt lat="41.767466026580145" lon="12.922739236888209"><ele>279.0</ele><time>2026-05-01T16:23:01.999Z</time></trkpt><trkpt lat="41.767544477082204" lon="12.922658024041699"><ele>279.0</ele><time>2026-05-01T16:23:02.999Z</time></trkpt><trkpt lat="41.76758494927232" lon="12.922549510592619"><ele>279.0</ele><time>2026-05-01T16:23:03.999Z</time></trkpt><trkpt lat="41.76762020271272" lon="12.922445764402568"><ele>279.8333333333333</ele><time>2026-05-01T16:23:04.999Z</time></trkpt><trkpt lat="41.76764546240988" lon="12.922351834975931"><ele>280.6666666666667</ele><time>2026-05-01T16:23:05.999Z</time></trkpt><trkpt lat="41.767671860268514" lon="12.922250086828061"><ele>281.5</ele><time>2026-05-01T16:23:06.999Z</time></trkpt><trkpt lat="41.767702436124075" lon="12.922144991208912"><ele>282.33333333333337</ele><time>2026-05-01T16:23:07.999Z</time></trkpt><trkpt lat="41.76773313835616" lon="12.922058670748672"><ele>283.1666666666667</ele><time>2026-05-01T16:23:08.999Z</time></trkpt><trkpt lat="41.767765800265536" lon="12.921967607550584"><ele>284.0</ele><time>2026-05-01T16:23:09.999Z</time></trkpt><trkpt lat="41.76781948575831" lon="12.921827002765141"><ele>284.59999999999997</ele><time>2026-05-01T16:23:11.999Z</time></trkpt><trkpt lat="41.767876671819494" lon="12.921688758145601"><ele>285.2</ele><time>2026-05-01T16:23:13.999Z</time></trkpt><trkpt lat="41.76792820849543" lon="12.921567246261116"><ele>285.79999999999995</ele><time>2026-05-01T16:23:15.999Z</time></trkpt><trkpt lat="41.767972121834575" lon="12.92146232823666"><ele>286.4</ele><time>2026-05-01T16:23:17.999Z</time></trkpt><trkpt lat="41.768013718903774" lon="12.921361492927327"><ele>287.0</ele><time>2026-05-01T16:23:19.999Z</time></trkpt><trkpt lat="41.76804774592867" lon="12.921276153315967"><ele>287.0</ele><time>2026-05-01T16:23:22.999Z</time></trkpt><trkpt lat="41.76810655544082" lon="12.9211067571513"><ele>287.0</ele><time>2026-05-01T16:25:14.999Z</time></trkpt><trkpt lat="41.76816845560032" lon="12.921020137408698"><ele>287.0</ele><time>2026-05-01T16:25:15.999Z</time></trkpt><trkpt lat="41.76824717687002" lon="12.92090801840486"><ele>287.0</ele><time>2026-05-01T16:25:17.999Z</time></trkpt><trkpt lat="41.76829911207805" lon="12.920838256439058"><ele>287.0</ele><time>2026-05-01T16:25:18.999Z</time></trkpt><trkpt lat="41.768361617365386" lon="12.920769161971819"><ele>286.8</ele><time>2026-05-01T16:25:19.999Z</time></trkpt><trkpt lat="41.768446903613466" lon="12.920715259353246"><ele>286.6</ele><time>2026-05-01T16:25:20.999Z</time></trkpt><trkpt lat="41.768527283871435" lon="12.920687843110699"><ele>286.40000000000003</ele><time>2026-05-01T16:25:21.999Z</time></trkpt><trkpt lat="41.76860804419853" lon="12.920685145180942"><ele>286.2</ele><time>2026-05-01T16:25:22.999Z</time></trkpt><trkpt lat="41.768712697670345" lon="12.920717680843735"><ele>286.0</ele><time>2026-05-01T16:25:24.999Z</time></trkpt><trkpt lat="41.76881318818967" lon="12.920717088938357"><ele>286.66666666666663</ele><time>2026-05-01T16:25:26.999Z</time></trkpt><trkpt lat="41.768873980469046" lon="12.92077578135102"><ele>287.3333333333333</ele><time>2026-05-01T16:25:28.998Z</time></trkpt><trkpt lat="41.76893871005818" lon="12.920868293748397"><ele>288.0</ele><time>2026-05-01T16:25:31.998Z</time></trkpt><trkpt lat="41.76896159932448" lon="12.92097346107409"><ele>288.6666666666667</ele><time>2026-05-01T16:25:33.998Z</time></trkpt><trkpt lat="41.76895784197405" lon="12.92106810825676"><ele>289.33333333333337</ele><time>2026-05-01T16:25:36.998Z</time></trkpt><trkpt lat="41.76893820005127" lon="12.92114849555257"><ele>290.0</ele><time>2026-05-01T16:25:38.998Z</time></trkpt><trkpt lat="41.7689767574915" lon="12.921221462108962"><ele>290.0</ele><time>2026-05-01T16:25:40.998Z</time></trkpt><trkpt lat="41.769054301303775" lon="12.921203746008816"><ele>290.0</ele><time>2026-05-01T16:25:42.998Z</time></trkpt><trkpt lat="41.769131447279925" lon="12.921183176108608"><ele>290.0</ele><time>2026-05-01T16:25:45.998Z</time></trkpt><trkpt lat="41.76922700028279" lon="12.92117153976915"><ele>290.0</ele><time>2026-05-01T16:25:48.998Z</time></trkpt><trkpt lat="41.76933607724197" lon="12.921198506742641"><ele>290.0</ele><time>2026-05-01T16:25:50.998Z</time></trkpt><trkpt lat="41.76943160723592" lon="12.921133458990075"><ele>289.6</ele><time>2026-05-01T16:25:52.998Z</time></trkpt><trkpt lat="41.76948648334038" lon="12.921048024385518"><ele>289.2</ele><time>2026-05-01T16:25:54.998Z</time></trkpt><trkpt lat="41.76958338202478" lon="12.92098899818273"><ele>288.8</ele><time>2026-05-01T16:25:56.998Z</time></trkpt><trkpt lat="41.769692708615125" lon="12.920942816526154"><ele>288.4</ele><time>2026-05-01T16:25:58.998Z</time></trkpt><trkpt lat="41.76976010162291" lon="12.920950346229738"><ele>288.0</ele><time>2026-05-01T16:25:59.998Z</time></trkpt><trkpt lat="41.76987153651308" lon="12.92093660452953"><ele>288.0</ele><time>2026-05-01T16:26:01.998Z</time></trkpt><trkpt lat="41.76994144052415" lon="12.920934360287434"><ele>288.0</ele><time>2026-05-01T16:26:02.998Z</time></trkpt><trkpt lat="41.76999922757957" lon="12.921038349407173"><ele>288.0</ele><time>2026-05-01T16:26:03.998Z</time></trkpt><trkpt lat="41.77011319348666" lon="12.921057031806223"><ele>288.0</ele><time>2026-05-01T16:26:05.998Z</time></trkpt><trkpt lat="41.77023364421999" lon="12.921076244882107"><ele>288.0</ele><time>2026-05-01T16:26:07.998Z</time></trkpt><trkpt lat="41.770299227957615" lon="12.921079513925749"><ele>288.0</ele><time>2026-05-01T16:26:08.998Z</time></trkpt><trkpt lat="41.770372445702364" lon="12.921070264643133"><ele>288.0</ele><time>2026-05-01T16:26:09.998Z</time></trkpt><trkpt lat="41.770449922212656" lon="12.921058212335588"><ele>288.0</ele><time>2026-05-01T16:26:10.998Z</time></trkpt><trkpt lat="41.77053874824915" lon="12.921055718238382"><ele>288.0</ele><time>2026-05-01T16:26:11.998Z</time></trkpt><trkpt lat="41.77062424373034" lon="12.921053131900761"><ele>288.0</ele><time>2026-05-01T16:26:12.998Z</time></trkpt><trkpt lat="41.770694645249094" lon="12.921056684834788"><ele>288.0</ele><time>2026-05-01T16:26:13.998Z</time></trkpt><trkpt lat="41.77080236634335" lon="12.921062573599754"><ele>288.0</ele><time>2026-05-01T16:26:15.998Z</time></trkpt><trkpt lat="41.77091733600664" lon="12.921020052954564"><ele>288.0</ele><time>2026-05-01T16:26:18Z</time></trkpt><trkpt lat="41.77101591472278" lon="12.92098724084216"><ele>288.0</ele><time>2026-05-01T16:26:20Z</time></trkpt><trkpt lat="41.77112703130825" lon="12.920933085329919"><ele>288.0</ele><time>2026-05-01T16:26:22Z</time></trkpt><trkpt lat="41.77125701914231" lon="12.920888959023225"><ele>288.1666666666667</ele><time>2026-05-01T16:26:24Z</time></trkpt><trkpt lat="41.771319794362135" lon="12.920862147811471"><ele>288.3333333333333</ele><time>2026-05-01T16:26:25Z</time></trkpt><trkpt lat="41.77138478183537" lon="12.920804172334506"><ele>288.5</ele><time>2026-05-01T16:26:26Z</time></trkpt><trkpt lat="41.77145591445815" lon="12.920763150322411"><ele>288.66666666666663</ele><time>2026-05-01T16:26:27Z</time></trkpt><trkpt lat="41.77152942920661" lon="12.92072075460384"><ele>288.8333333333333</ele><time>2026-05-01T16:26:28Z</time></trkpt><trkpt lat="41.771620026241884" lon="12.920668507738407"><ele>289.0</ele><time>2026-05-01T16:26:29Z</time></trkpt><trkpt lat="41.77170734550388" lon="12.920618150549021"><ele>289.0</ele><time>2026-05-01T16:26:30Z</time></trkpt><trkpt lat="41.771794625384324" lon="12.920565008869675"><ele>289.0</ele><time>2026-05-01T16:26:31Z</time></trkpt><trkpt lat="41.77188838369304" lon="12.920497547794879"><ele>289.0</ele><time>2026-05-01T16:26:32Z</time></trkpt><trkpt lat="41.77197434894289" lon="12.920424425783224"><ele>289.0</ele><time>2026-05-01T16:26:33Z</time></trkpt><trkpt lat="41.772059545815395" lon="12.920342477971076"><ele>289.0</ele><time>2026-05-01T16:26:34Z</time></trkpt><trkpt lat="41.77215415428562" lon="12.920251294794259"><ele>288.75</ele><time>2026-05-01T16:26:35Z</time></trkpt><trkpt lat="41.77224646799184" lon="12.920162182268818"><ele>288.5</ele><time>2026-05-01T16:26:36Z</time></trkpt><trkpt lat="41.77233286686768" lon="12.920078389634421"><ele>288.25</ele><time>2026-05-01T16:26:37Z</time></trkpt><trkpt lat="41.77242601996257" lon="12.91998804651789"><ele>288.0</ele><time>2026-05-01T16:26:38Z</time></trkpt><trkpt lat="41.772520551779095" lon="12.919896575640706"><ele>288.0</ele><time>2026-05-01T16:26:39Z</time></trkpt><trkpt lat="41.77260530630231" lon="12.919814572042306"><ele>288.0</ele><time>2026-05-01T16:26:40Z</time></trkpt><trkpt lat="41.77269283945814" lon="12.919726013443537"><ele>288.0</ele><time>2026-05-01T16:26:41Z</time></trkpt><trkpt lat="41.772774860277174" lon="12.91963446963599"><ele>288.0</ele><time>2026-05-01T16:26:41.999Z</time></trkpt><trkpt lat="41.77285135361861" lon="12.919502114348852"><ele>288.0</ele><time>2026-05-01T16:26:42.999Z</time></trkpt><trkpt lat="41.772966752662064" lon="12.919447831810214"><ele>283.6</ele><time>2026-05-01T16:26:43.999Z</time></trkpt><trkpt lat="41.77307060261404" lon="12.919436353299982"><ele>279.20000000000005</ele><time>2026-05-01T16:26:44.999Z</time></trkpt><trkpt lat="41.77316100230668" lon="12.919431535077745"><ele>274.8</ele><time>2026-05-01T16:26:45.999Z</time></trkpt><trkpt lat="41.7732370917258" lon="12.919432501532995"><ele>270.40000000000003</ele><time>2026-05-01T16:26:46.999Z</time></trkpt><trkpt lat="41.773330583005944" lon="12.919438440960858"><ele>266.0</ele><time>2026-05-01T16:26:47.999Z</time></trkpt><trkpt lat="41.7734029112265" lon="12.919541557561084"><ele>266.0</ele><time>2026-05-01T16:26:48.999Z</time></trkpt><trkpt lat="41.77345195289018" lon="12.919619544799776"><ele>266.0</ele><time>2026-05-01T16:26:49.999Z</time></trkpt><trkpt lat="41.77351935155428" lon="12.919691595912367"><ele>266.0</ele><time>2026-05-01T16:26:50.999Z</time></trkpt><trkpt lat="41.77358585189031" lon="12.919737729969391"><ele>266.0</ele><time>2026-05-01T16:26:51.999Z</time></trkpt><trkpt lat="41.77363990168501" lon="12.919823755533026"><ele>266.0</ele><time>2026-05-01T16:26:52.999Z</time></trkpt><trkpt lat="41.773696624513704" lon="12.919883712511801"><ele>266.0</ele><time>2026-05-01T16:26:53.999Z</time></trkpt><trkpt lat="41.77373904885605" lon="12.919967481472593"><ele>264.6666666666667</ele><time>2026-05-01T16:26:54.999Z</time></trkpt><trkpt lat="41.77378000669091" lon="12.920070195399429"><ele>263.33333333333337</ele><time>2026-05-01T16:26:55.999Z</time></trkpt><trkpt lat="41.77385019444587" lon="12.920145959276846"><ele>262.0</ele><time>2026-05-01T16:26:56.999Z</time></trkpt><trkpt lat="41.77391225243638" lon="12.92019621960166"><ele>260.6666666666667</ele><time>2026-05-01T16:26:57.999Z</time></trkpt><trkpt lat="41.77400296380789" lon="12.920149968215194"><ele>259.3333333333333</ele><time>2026-05-01T16:26:59.999Z</time></trkpt><trkpt lat="41.774041168465025" lon="12.920078901628388"><ele>258.0</ele><time>2026-05-01T16:27:01.999Z</time></trkpt><trkpt lat="41.77397407374807" lon="12.919887283905577"><ele>257.99999999999994</ele><time>2026-05-01T16:27:02.999Z</time></trkpt><trkpt lat="41.77396443757401" lon="12.919796321053745"><ele>258.0</ele><time>2026-05-01T16:27:03.999Z</time></trkpt><trkpt lat="41.77395433145667" lon="12.919684345871529"><ele>258.0</ele><time>2026-05-01T16:27:04.999Z</time></trkpt><trkpt lat="41.77394603971525" lon="12.919579179241389"><ele>258.0</ele><time>2026-05-01T16:27:05.999Z</time></trkpt><trkpt lat="41.77393457778236" lon="12.91947698640936"><ele>258.0</ele><time>2026-05-01T16:27:06.999Z</time></trkpt><trkpt lat="41.77392499212145" lon="12.919388178590873"><ele>257.99999999999994</ele><time>2026-05-01T16:27:07.999Z</time></trkpt><trkpt lat="41.77392312927999" lon="12.919301344494967"><ele>258.0</ele><time>2026-05-01T16:27:08.999Z</time></trkpt><trkpt lat="41.773926592855325" lon="12.919164657058609"><ele>257.8333333333333</ele><time>2026-05-01T16:27:10.999Z</time></trkpt><trkpt lat="41.77391737762035" lon="12.919080855423305"><ele>257.6666666666667</ele><time>2026-05-01T16:27:12.999Z</time></trkpt><trkpt lat="41.77388407881728" lon="12.918943457643957"><ele>257.5</ele><time>2026-05-01T16:27:15.999Z</time></trkpt><trkpt lat="41.77378808036456" lon="12.918917020257615"><ele>257.33333333333337</ele><time>2026-05-01T16:27:16.999Z</time></trkpt><trkpt lat="41.773701694215234" lon="12.918908355763318"><ele>257.1666666666667</ele><time>2026-05-01T16:27:17.999Z</time></trkpt><trkpt lat="41.77361002845026" lon="12.918905368214494"><ele>257.0</ele><time>2026-05-01T16:27:18.999Z</time></trkpt><trkpt lat="41.773510283453575" lon="12.91889255186158"><ele>258.25</ele><time>2026-05-01T16:27:19.999Z</time></trkpt><trkpt lat="41.77340809741838" lon="12.918883317937862"><ele>259.5</ele><time>2026-05-01T16:27:20.999Z</time></trkpt><trkpt lat="41.773293281344664" lon="12.918898517823386"><ele>260.75</ele><time>2026-05-01T16:27:21.999Z</time></trkpt><trkpt lat="41.77317607501096" lon="12.918962833995964"><ele>262.0</ele><time>2026-05-01T16:27:22.999Z</time></trkpt><trkpt lat="41.773064001002275" lon="12.919088919455625"><ele>263.0</ele><time>2026-05-01T16:27:23.999Z</time></trkpt><trkpt lat="41.77296445219402" lon="12.919245692552128"><ele>264.0</ele><time>2026-05-01T16:27:24.999Z</time></trkpt><trkpt lat="41.77287680046499" lon="12.919404511627901"><ele>265.0</ele><time>2026-05-01T16:27:25.999Z</time></trkpt><trkpt lat="41.77277853498785" lon="12.919544960949505"><ele>266.0</ele><time>2026-05-01T16:27:26.999Z</time></trkpt><trkpt lat="41.772648579513195" lon="12.919645182902764"><ele>271.5</ele><time>2026-05-01T16:27:27.999Z</time></trkpt><trkpt lat="41.7725362616122" lon="12.91977099214506"><ele>277.0</ele><time>2026-05-01T16:27:28.999Z</time></trkpt><trkpt lat="41.77242117691338" lon="12.919880157756552"><ele>282.5</ele><time>2026-05-01T16:27:29.999Z</time></trkpt><trkpt lat="41.77230824621462" lon="12.919991946041069"><ele>288.0</ele><time>2026-05-01T16:27:30.999Z</time></trkpt><trkpt lat="41.77219940903433" lon="12.920101194694357"><ele>288.25</ele><time>2026-05-01T16:27:31.999Z</time></trkpt><trkpt lat="41.77209235823007" lon="12.92020111160354"><ele>288.5</ele><time>2026-05-01T16:27:32.999Z</time></trkpt><trkpt lat="41.771994238809654" lon="12.920294508222414"><ele>288.75</ele><time>2026-05-01T16:27:33.999Z</time></trkpt><trkpt lat="41.7719063411805" lon="12.92038035574462"><ele>289.0</ele><time>2026-05-01T16:27:34.999Z</time></trkpt><trkpt lat="41.77182616970079" lon="12.920449492305089"><ele>289.0</ele><time>2026-05-01T16:27:35.999Z</time></trkpt><trkpt lat="41.77175091086496" lon="12.9204996609299"><ele>289.0</ele><time>2026-05-01T16:27:36.998Z</time></trkpt><trkpt lat="41.77169168632574" lon="12.92053497743335"><ele>289.0</ele><time>2026-05-01T16:27:37.998Z</time></trkpt><trkpt lat="41.77162950100292" lon="12.920571709505662"><ele>289.0</ele><time>2026-05-01T16:27:39.998Z</time></trkpt><trkpt lat="41.77155085274642" lon="12.920617404538797"><ele>289.0</ele><time>2026-05-01T16:27:43.998Z</time></trkpt><trkpt lat="41.77148961353224" lon="12.920651008670012"><ele>289.0</ele><time>2026-05-01T16:27:45.998Z</time></trkpt><trkpt lat="41.77140756789758" lon="12.920698997700066"><ele>289.0</ele><time>2026-05-01T16:27:47.998Z</time></trkpt><trkpt lat="41.77130122828675" lon="12.920743615255915"><ele>289.0</ele><time>2026-05-01T16:27:49.998Z</time></trkpt><trkpt lat="41.771201508084225" lon="12.92081310061203"><ele>289.0</ele><time>2026-05-01T16:27:51.998Z</time></trkpt><trkpt lat="41.77109435239461" lon="12.92086963038333"><ele>289.0</ele><time>2026-05-01T16:27:53.998Z</time></trkpt><trkpt lat="41.77099632947646" lon="12.920918396632716"><ele>289.0</ele><time>2026-05-01T16:27:55.998Z</time></trkpt><trkpt lat="41.77089063484917" lon="12.920955428525488"><ele>288.8333333333333</ele><time>2026-05-01T16:27:57.998Z</time></trkpt><trkpt lat="41.77078361920186" lon="12.920972399818561"><ele>288.66666666666663</ele><time>2026-05-01T16:27:59.998Z</time></trkpt><trkpt lat="41.77070172090197" lon="12.920990218639236"><ele>288.5</ele><time>2026-05-01T16:28:01.998Z</time></trkpt><trkpt lat="41.770595553290306" lon="12.921002791051832"><ele>288.3333333333333</ele><time>2026-05-01T16:28:03.998Z</time></trkpt><trkpt lat="41.77052704778171" lon="12.921001468810086"><ele>288.1666666666667</ele><time>2026-05-01T16:28:04.998Z</time></trkpt><trkpt lat="41.77045904681293" lon="12.920998349649837"><ele>288.0</ele><time>2026-05-01T16:28:05.998Z</time></trkpt><trkpt lat="41.77038390129085" lon="12.921005281737216"><ele>288.0</ele><time>2026-05-01T16:28:06.998Z</time></trkpt><trkpt lat="41.77030324052404" lon="12.920979436154731"><ele>288.0</ele><time>2026-05-01T16:28:07.998Z</time></trkpt><trkpt lat="41.77021677278972" lon="12.92097038793506"><ele>288.0</ele><time>2026-05-01T16:28:08.998Z</time></trkpt><trkpt lat="41.77012677401319" lon="12.920980781412945"><ele>288.0</ele><time>2026-05-01T16:28:09.998Z</time></trkpt><trkpt lat="41.770039050565686" lon="12.920944303838498"><ele>288.0</ele><time>2026-05-01T16:28:10.998Z</time></trkpt><trkpt lat="41.76995364985293" lon="12.920925668950593"><ele>288.0</ele><time>2026-05-01T16:28:11.998Z</time></trkpt><trkpt lat="41.7698737366946" lon="12.920926500147507"><ele>288.0</ele><time>2026-05-01T16:28:12.998Z</time></trkpt><trkpt lat="41.76980331332922" lon="12.920908750602855"><ele>288.0</ele><time>2026-05-01T16:28:13.998Z</time></trkpt><trkpt lat="41.769742897788504" lon="12.920880213260194"><ele>288.0</ele><time>2026-05-01T16:28:14.998Z</time></trkpt><trkpt lat="41.7696377347841" lon="12.920827723005742"><ele>288.0</ele><time>2026-05-01T16:28:16.998Z</time></trkpt><trkpt lat="41.76954941682293" lon="12.920764997140731"><ele>288.0</ele><time>2026-05-01T16:28:18.998Z</time></trkpt><trkpt lat="41.76948648018846" lon="12.920740948430705"><ele>288.0</ele><time>2026-05-01T16:28:20.998Z</time></trkpt><trkpt lat="41.76941677793851" lon="12.920715293715373"><ele>288.4</ele><time>2026-05-01T16:28:24Z</time></trkpt><trkpt lat="41.76932660332994" lon="12.920695403587638"><ele>288.8</ele><time>2026-05-01T16:28:27Z</time></trkpt><trkpt lat="41.76921296546703" lon="12.920705027390538"><ele>289.2</ele><time>2026-05-01T16:28:29Z</time></trkpt><trkpt lat="41.769133521844566" lon="12.920796078419697"><ele>289.6</ele><time>2026-05-01T16:28:31Z</time></trkpt><trkpt lat="41.76911056411389" lon="12.920884465008536"><ele>290.0</ele><time>2026-05-01T16:28:32Z</time></trkpt><trkpt lat="41.76912139104092" lon="12.920996723243613"><ele>290.0</ele><time>2026-05-01T16:28:34Z</time></trkpt><trkpt lat="41.76913755622269" lon="12.921079045887863"><ele>290.0</ele><time>2026-05-01T16:28:36Z</time></trkpt><trkpt lat="41.76920584377187" lon="12.92116605987141"><ele>290.0</ele><time>2026-05-01T16:28:40Z</time></trkpt><trkpt lat="41.7693052351609" lon="12.92119759206634"><ele>290.0</ele><time>2026-05-01T16:28:43Z</time></trkpt><trkpt lat="41.769410833073955" lon="12.921160803506918"><ele>290.0</ele><time>2026-05-01T16:28:45Z</time></trkpt><trkpt lat="41.76947163770788" lon="12.921054908856329"><ele>289.6</ele><time>2026-05-01T16:28:47Z</time></trkpt><trkpt lat="41.76950994385437" lon="12.920959912747875"><ele>289.2</ele><time>2026-05-01T16:28:48.999Z</time></trkpt><trkpt lat="41.76962588196024" lon="12.920968418747359"><ele>288.8</ele><time>2026-05-01T16:28:49.999Z</time></trkpt><trkpt lat="41.76969358111615" lon="12.920995118172398"><ele>288.4</ele><time>2026-05-01T16:28:50.999Z</time></trkpt><trkpt lat="41.769817657261584" lon="12.921007310194328"><ele>288.0</ele><time>2026-05-01T16:28:52.999Z</time></trkpt><trkpt lat="41.769882839211334" lon="12.921014359343669"><ele>288.0</ele><time>2026-05-01T16:28:53.999Z</time></trkpt><trkpt lat="41.7699514951383" lon="12.921024230062692"><ele>288.0</ele><time>2026-05-01T16:28:54.999Z</time></trkpt><trkpt lat="41.77008164015043" lon="12.921041156914963"><ele>288.0</ele><time>2026-05-01T16:28:56.999Z</time></trkpt><trkpt lat="41.77014766310161" lon="12.92105318216057"><ele>288.0</ele><time>2026-05-01T16:28:57.999Z</time></trkpt><trkpt lat="41.770212399411804" lon="12.921068811100612"><ele>288.0</ele><time>2026-05-01T16:28:58.999Z</time></trkpt><trkpt lat="41.77027875689302" lon="12.92107516605999"><ele>288.0</ele><time>2026-05-01T16:28:59.999Z</time></trkpt><trkpt lat="41.77034716424737" lon="12.921077428539885"><ele>288.0</ele><time>2026-05-01T16:29:00.999Z</time></trkpt><trkpt lat="41.770417730501364" lon="12.92107195006469"><ele>288.0</ele><time>2026-05-01T16:29:01.999Z</time></trkpt><trkpt lat="41.77048247365603" lon="12.921070921657448"><ele>288.0</ele><time>2026-05-01T16:29:02.999Z</time></trkpt><trkpt lat="41.770585846093816" lon="12.921074875522498"><ele>288.0</ele><time>2026-05-01T16:29:04.999Z</time></trkpt><trkpt lat="41.77068132346387" lon="12.921089111437174"><ele>288.0</ele><time>2026-05-01T16:29:06.999Z</time></trkpt><trkpt lat="41.77067497685915" lon="12.921250220176143"><ele>288.0</ele><time>2026-05-01T16:29:08.999Z</time></trkpt><trkpt lat="41.77064355782714" lon="12.921379285588337"><ele>288.0</ele><time>2026-05-01T16:29:10.999Z</time></trkpt><trkpt lat="41.770605536017534" lon="12.921482843708516"><ele>288.0</ele><time>2026-05-01T16:29:12.999Z</time></trkpt><trkpt lat="41.77056324806132" lon="12.921562246897663"><ele>288.0</ele><time>2026-05-01T16:29:14.999Z</time></trkpt><trkpt lat="41.77052226406324" lon="12.921633031124067"><ele>288.0</ele><time>2026-05-01T16:29:29.999Z</time></trkpt><trkpt lat="41.77045219609642" lon="12.921752958553427"><ele>288.0</ele><time>2026-05-01T16:29:32.999Z</time></trkpt><trkpt lat="41.77037419910205" lon="12.92188632242281"><ele>288.0</ele><time>2026-05-01T16:29:34.999Z</time></trkpt><trkpt lat="41.77032695201076" lon="12.921973420428428"><ele>288.0</ele><time>2026-05-01T16:29:35.999Z</time></trkpt><trkpt lat="41.77029045805877" lon="12.922045482117742"><ele>288.0</ele><time>2026-05-01T16:29:36.999Z</time></trkpt><trkpt lat="41.77025238394811" lon="12.92212212208076"><ele>288.0</ele><time>2026-05-01T16:29:37.999Z</time></trkpt><trkpt lat="41.77018382028237" lon="12.922262497176982"><ele>288.0</ele><time>2026-05-01T16:29:39.999Z</time></trkpt><trkpt lat="41.77014822517701" lon="12.922335373461335"><ele>288.0</ele><time>2026-05-01T16:29:40.999Z</time></trkpt><trkpt lat="41.77011094588507" lon="12.92241169777711"><ele>287.8</ele><time>2026-05-01T16:29:41.998Z</time></trkpt><trkpt lat="41.77006729912663" lon="12.922502653929103"><ele>287.6</ele><time>2026-05-01T16:29:42.998Z</time></trkpt><trkpt lat="41.77001812883567" lon="12.922604802868987"><ele>287.4</ele><time>2026-05-01T16:29:43.998Z</time></trkpt><trkpt lat="41.769966542892455" lon="12.92271197014353"><ele>287.2</ele><time>2026-05-01T16:29:44.998Z</time></trkpt><trkpt lat="41.769910697703466" lon="12.922824369596237"><ele>287.0</ele><time>2026-05-01T16:29:45.998Z</time></trkpt><trkpt lat="41.76985006422871" lon="12.922945908729577"><ele>286.75</ele><time>2026-05-01T16:29:46.998Z</time></trkpt><trkpt lat="41.76978988321618" lon="12.92307318145873"><ele>286.5</ele><time>2026-05-01T16:29:47.998Z</time></trkpt><trkpt lat="41.769735965643726" lon="12.923202134590175"><ele>286.25</ele><time>2026-05-01T16:29:48.998Z</time></trkpt><trkpt lat="41.76968662529299" lon="12.923348040199398"><ele>286.0</ele><time>2026-05-01T16:29:49.998Z</time></trkpt><trkpt lat="41.76964342497165" lon="12.92348580078017"><ele>285.8</ele><time>2026-05-01T16:29:50.998Z</time></trkpt><trkpt lat="41.769611470036665" lon="12.923634287481043"><ele>285.6</ele><time>2026-05-01T16:29:51.998Z</time></trkpt><trkpt lat="41.76957009877945" lon="12.923772532234443"><ele>285.4</ele><time>2026-05-01T16:29:52.998Z</time></trkpt><trkpt lat="41.769523879459804" lon="12.923901945648916"><ele>285.2</ele><time>2026-05-01T16:29:53.998Z</time></trkpt><trkpt lat="41.76947052045969" lon="12.924020206888208"><ele>285.0</ele><time>2026-05-01T16:29:54.998Z</time></trkpt><trkpt lat="41.76941727030235" lon="12.92415405924921"><ele>284.6</ele><time>2026-05-01T16:29:55.998Z</time></trkpt><trkpt lat="41.76936531674921" lon="12.924284122023321"><ele>284.2</ele><time>2026-05-01T16:29:56.998Z</time></trkpt><trkpt lat="41.769309572659445" lon="12.924408433577613"><ele>283.8</ele><time>2026-05-01T16:29:57.998Z</time></trkpt><trkpt lat="41.76925055025353" lon="12.924526520040263"><ele>283.4</ele><time>2026-05-01T16:29:58.998Z</time></trkpt><trkpt lat="41.769189908325494" lon="12.924640920632063"><ele>283.0</ele><time>2026-05-01T16:29:59.998Z</time></trkpt><trkpt lat="41.76912924384339" lon="12.924755647542773"><ele>282.6</ele><time>2026-05-01T16:30:00.998Z</time></trkpt><trkpt lat="41.76906763131589" lon="12.924870313218042"><ele>282.20000000000005</ele><time>2026-05-01T16:30:01.998Z</time></trkpt><trkpt lat="41.76900442037995" lon="12.924986977694083"><ele>281.8</ele><time>2026-05-01T16:30:02.998Z</time></trkpt><trkpt lat="41.768937401513035" lon="12.925110669950488"><ele>281.40000000000003</ele><time>2026-05-01T16:30:03.998Z</time></trkpt><trkpt lat="41.76886651025078" lon="12.925232935132424"><ele>281.0</ele><time>2026-05-01T16:30:04.998Z</time></trkpt><trkpt lat="41.76879159002838" lon="12.9253580762824"><ele>280.25</ele><time>2026-05-01T16:30:05.998Z</time></trkpt><trkpt lat="41.76870654397234" lon="12.925482341063184"><ele>279.5</ele><time>2026-05-01T16:30:06.998Z</time></trkpt><trkpt lat="41.76862349407688" lon="12.925600805857748"><ele>278.75</ele><time>2026-05-01T16:30:07.998Z</time></trkpt><trkpt lat="41.76855400091701" lon="12.925719179097628"><ele>278.0</ele><time>2026-05-01T16:30:08.998Z</time></trkpt><trkpt lat="41.768471181530884" lon="12.925809495823026"><ele>277.8</ele><time>2026-05-01T16:30:09.998Z</time></trkpt><trkpt lat="41.76838307794776" lon="12.92590079328894"><ele>277.6</ele><time>2026-05-01T16:30:10.998Z</time></trkpt><trkpt lat="41.76829455410402" lon="12.925996454064443"><ele>277.4</ele><time>2026-05-01T16:30:11.998Z</time></trkpt><trkpt lat="41.76821155389758" lon="12.92609405921513"><ele>277.2</ele><time>2026-05-01T16:30:12.998Z</time></trkpt><trkpt lat="41.76813331216531" lon="12.926193534504138"><ele>277.0</ele><time>2026-05-01T16:30:13.998Z</time></trkpt><trkpt lat="41.768042102851105" lon="12.92627512451121"><ele>277.0</ele><time>2026-05-01T16:30:14.998Z</time></trkpt><trkpt lat="41.76796515096042" lon="12.926373907331662"><ele>277.0</ele><time>2026-05-01T16:30:15.998Z</time></trkpt><trkpt lat="41.76790010552388" lon="12.926489002112062"><ele>277.0</ele><time>2026-05-01T16:30:16.998Z</time></trkpt><trkpt lat="41.76782871623519" lon="12.926583837471238"><ele>277.0</ele><time>2026-05-01T16:30:17.998Z</time></trkpt><trkpt lat="41.767769666597594" lon="12.92667009950958"><ele>277.0</ele><time>2026-05-01T16:30:18.998Z</time></trkpt><trkpt lat="41.76771668246427" lon="12.926740537340853"><ele>276.8</ele><time>2026-05-01T16:30:19.998Z</time></trkpt><trkpt lat="41.76766880051515" lon="12.92679724350626"><ele>276.6</ele><time>2026-05-01T16:30:20.998Z</time></trkpt><trkpt lat="41.76758509822388" lon="12.926907884855888"><ele>276.40000000000003</ele><time>2026-05-01T16:30:22.998Z</time></trkpt><trkpt lat="41.767541495266265" lon="12.926972583016394"><ele>276.2</ele><time>2026-05-01T16:30:23.998Z</time></trkpt><trkpt lat="41.76744927457367" lon="12.927104897237824"><ele>276.0</ele><time>2026-05-01T16:30:25.998Z</time></trkpt><trkpt lat="41.76739620779125" lon="12.927178083670753"><ele>276.0</ele><time>2026-05-01T16:30:26.998Z</time></trkpt><trkpt lat="41.76733672909024" lon="12.927258858644349"><ele>276.0</ele><time>2026-05-01T16:30:27.998Z</time></trkpt><trkpt lat="41.767263817562146" lon="12.927342289363573"><ele>276.0</ele><time>2026-05-01T16:30:28.998Z</time></trkpt><trkpt lat="41.76718677351538" lon="12.927439616785131"><ele>276.0</ele><time>2026-05-01T16:30:30Z</time></trkpt><trkpt lat="41.76711868963232" lon="12.927566003127849"><ele>276.0</ele><time>2026-05-01T16:30:31Z</time></trkpt><trkpt lat="41.76703955075628" lon="12.927688626160819"><ele>275.40000000000003</ele><time>2026-05-01T16:30:32Z</time></trkpt><trkpt lat="41.7669608104469" lon="12.927801148693769"><ele>274.8</ele><time>2026-05-01T16:30:33Z</time></trkpt><trkpt lat="41.7668916991639" lon="12.927892696987335"><ele>274.20000000000005</ele><time>2026-05-01T16:30:34Z</time></trkpt><trkpt lat="41.76683381481076" lon="12.92797241882483"><ele>273.6</ele><time>2026-05-01T16:30:35Z</time></trkpt><trkpt lat="41.766777539876124" lon="12.928048793964514"><ele>273.0</ele><time>2026-05-01T16:30:36Z</time></trkpt><trkpt lat="41.76671970024535" lon="12.928122545635476"><ele>273.0</ele><time>2026-05-01T16:30:37Z</time></trkpt><trkpt lat="41.76663780594135" lon="12.92817396990738"><ele>273.0</ele><time>2026-05-01T16:30:38Z</time></trkpt><trkpt lat="41.76657637187495" lon="12.928258177488354"><ele>273.0</ele><time>2026-05-01T16:30:39Z</time></trkpt><trkpt lat="41.76652347918762" lon="12.928355334983"><ele>273.0</ele><time>2026-05-01T16:30:40Z</time></trkpt><trkpt lat="41.766458769007706" lon="12.928432658771507"><ele>273.0</ele><time>2026-05-01T16:30:41Z</time></trkpt><trkpt lat="41.76640379473408" lon="12.928508455699422"><ele>273.0</ele><time>2026-05-01T16:30:42Z</time></trkpt><trkpt lat="41.76635527166365" lon="12.92858250467467"><ele>273.0</ele><time>2026-05-01T16:30:43Z</time></trkpt><trkpt lat="41.7663109004827" lon="12.92864364530757"><ele>273.0</ele><time>2026-05-01T16:30:44Z</time></trkpt><trkpt lat="41.766238340479376" lon="12.928713180911636"><ele>273.0</ele><time>2026-05-01T16:30:46Z</time></trkpt><trkpt lat="41.766182170263264" lon="12.928762238926902"><ele>273.0</ele><time>2026-05-01T16:30:48Z</time></trkpt><trkpt lat="41.766060829732446" lon="12.92868734963642"><ele>273.0</ele><time>2026-05-01T16:30:52Z</time></trkpt><trkpt lat="41.76601026213378" lon="12.928592268554548"><ele>273.0</ele><time>2026-05-01T16:30:54Z</time></trkpt><trkpt lat="41.76603364204304" lon="12.928435793743983"><ele>273.0</ele><time>2026-05-01T16:30:55.999Z</time></trkpt><trkpt lat="41.766048154787086" lon="12.928340773950106"><ele>273.0</ele><time>2026-05-01T16:30:56.999Z</time></trkpt><trkpt lat="41.766065731706746" lon="12.928237724448653"><ele>273.0</ele><time>2026-05-01T16:30:57.999Z</time></trkpt><trkpt lat="41.766085402982405" lon="12.928128538008835"><ele>273.0</ele><time>2026-05-01T16:30:58.999Z</time></trkpt><trkpt lat="41.76610560457205" lon="12.928016746088995"><ele>273.0</ele><time>2026-05-01T16:30:59.999Z</time></trkpt><trkpt lat="41.766124536870194" lon="12.92788958901221"><ele>273.0</ele><time>2026-05-01T16:31:00.999Z</time></trkpt><trkpt lat="41.76614581191074" lon="12.927752879161606"><ele>273.0</ele><time>2026-05-01T16:31:01.999Z</time></trkpt><trkpt lat="41.76617133445925" lon="12.927608622251602"><ele>273.0</ele><time>2026-05-01T16:31:02.999Z</time></trkpt><trkpt lat="41.76619867998304" lon="12.927456998530744"><ele>273.0</ele><time>2026-05-01T16:31:03.999Z</time></trkpt><trkpt lat="41.76622517434112" lon="12.9273007827814"><ele>273.0</ele><time>2026-05-01T16:31:04.999Z</time></trkpt><trkpt lat="41.76625159306163" lon="12.927140439111497"><ele>273.5</ele><time>2026-05-01T16:31:05.999Z</time></trkpt><trkpt lat="41.76627721039122" lon="12.92698198433867"><ele>274.0</ele><time>2026-05-01T16:31:06.999Z</time></trkpt><trkpt lat="41.76630338571614" lon="12.926826745714209"><ele>274.5</ele><time>2026-05-01T16:31:07.999Z</time></trkpt><trkpt lat="41.76632843849852" lon="12.926670369545697"><ele>275.0</ele><time>2026-05-01T16:31:08.999Z</time></trkpt><trkpt lat="41.76635588653984" lon="12.926512246728796"><ele>275.75</ele><time>2026-05-01T16:31:09.999Z</time></trkpt><trkpt lat="41.76639340041318" lon="12.926360086645092"><ele>276.5</ele><time>2026-05-01T16:31:10.999Z</time></trkpt><trkpt lat="41.76644539565732" lon="12.926211395426323"><ele>277.25</ele><time>2026-05-01T16:31:11.999Z</time></trkpt><trkpt lat="41.76650890907675" lon="12.926066762679827"><ele>278.0</ele><time>2026-05-01T16:31:12.999Z</time></trkpt><trkpt lat="41.76657647968333" lon="12.925920261522954"><ele>278.0</ele><time>2026-05-01T16:31:13.999Z</time></trkpt><trkpt lat="41.76664307478832" lon="12.925769801263716"><ele>278.0</ele><time>2026-05-01T16:31:14.999Z</time></trkpt><trkpt lat="41.76670765636008" lon="12.92561705429822"><ele>278.0</ele><time>2026-05-01T16:31:15.999Z</time></trkpt><trkpt lat="41.76677209169947" lon="12.925466714759786"><ele>278.0</ele><time>2026-05-01T16:31:16.999Z</time></trkpt><trkpt lat="41.76683811931686" lon="12.925316190406027"><ele>277.5</ele><time>2026-05-01T16:31:17.999Z</time></trkpt><trkpt lat="41.76690025182196" lon="12.92516827666236"><ele>277.0</ele><time>2026-05-01T16:31:18.999Z</time></trkpt><trkpt lat="41.766965462692994" lon="12.92502397684204"><ele>276.5</ele><time>2026-05-01T16:31:19.999Z</time></trkpt><trkpt lat="41.7670294383034" lon="12.924885010898402"><ele>276.0</ele><time>2026-05-01T16:31:20.999Z</time></trkpt><trkpt lat="41.76709232487552" lon="12.92475266380223"><ele>276.0</ele><time>2026-05-01T16:31:21.999Z</time></trkpt><trkpt lat="41.767151195884416" lon="12.924624944360087"><ele>276.0</ele><time>2026-05-01T16:31:22.999Z</time></trkpt><trkpt lat="41.7672070388587" lon="12.924499357971703"><ele>276.0</ele><time>2026-05-01T16:31:23.999Z</time></trkpt><trkpt lat="41.76726117288493" lon="12.924377982394706"><ele>276.0</ele><time>2026-05-01T16:31:24.999Z</time></trkpt><trkpt lat="41.76731362739982" lon="12.924263713045441"><ele>276.0</ele><time>2026-05-01T16:31:25.999Z</time></trkpt><trkpt lat="41.76736408250122" lon="12.924153004277837"><ele>276.0</ele><time>2026-05-01T16:31:26.999Z</time></trkpt><trkpt lat="41.767413058866126" lon="12.92404653338418"><ele>276.0</ele><time>2026-05-01T16:31:27.999Z</time></trkpt><trkpt lat="41.76746189224376" lon="12.923939799034125"><ele>276.0</ele><time>2026-05-01T16:31:28.999Z</time></trkpt><trkpt lat="41.76750797333333" lon="12.923837021293894"><ele>276.0</ele><time>2026-05-01T16:31:29.999Z</time></trkpt><trkpt lat="41.7675543220568" lon="12.923733472204875"><ele>276.0</ele><time>2026-05-01T16:31:30.999Z</time></trkpt><trkpt lat="41.7675998438453" lon="12.923627932923374"><ele>276.0</ele><time>2026-05-01T16:31:31.999Z</time></trkpt><trkpt lat="41.76764630517299" lon="12.923523991653585"><ele>276.0</ele><time>2026-05-01T16:31:32.999Z</time></trkpt><trkpt lat="41.76769243799225" lon="12.923421404333828"><ele>276.0</ele><time>2026-05-01T16:31:33.999Z</time></trkpt><trkpt lat="41.767737844934366" lon="12.923318922207883"><ele>276.0</ele><time>2026-05-01T16:31:34.999Z</time></trkpt><trkpt lat="41.767782751278844" lon="12.92321885670447"><ele>276.0</ele><time>2026-05-01T16:31:35.999Z</time></trkpt><trkpt lat="41.767827422217664" lon="12.923122571058245"><ele>276.0</ele><time>2026-05-01T16:31:36.999Z</time></trkpt><trkpt lat="41.767868209549086" lon="12.923030465679066"><ele>277.42857142857144</ele><time>2026-05-01T16:31:37.999Z</time></trkpt><trkpt lat="41.76790841371571" lon="12.92294398538091"><ele>278.8571428571429</ele><time>2026-05-01T16:31:38.999Z</time></trkpt><trkpt lat="41.76794720772864" lon="12.922863577000424"><ele>280.2857142857143</ele><time>2026-05-01T16:31:39.999Z</time></trkpt><trkpt lat="41.76798215899015" lon="12.922787679331154"><ele>281.7142857142857</ele><time>2026-05-01T16:31:40.999Z</time></trkpt><trkpt lat="41.76801836639143" lon="12.922709037493863"><ele>283.1428571428571</ele><time>2026-05-01T16:31:41.999Z</time></trkpt><trkpt lat="41.76805562894922" lon="12.922627379403794"><ele>284.57142857142856</ele><time>2026-05-01T16:31:42.999Z</time></trkpt><trkpt lat="41.76809249460084" lon="12.922542667996956"><ele>286.0</ele><time>2026-05-01T16:31:43.999Z</time></trkpt><trkpt lat="41.76813048925187" lon="12.922456519436789"><ele>286.0</ele><time>2026-05-01T16:31:44.999Z</time></trkpt><trkpt lat="41.76816750978536" lon="12.922368098646086"><ele>286.0</ele><time>2026-05-01T16:31:45.999Z</time></trkpt><trkpt lat="41.7682060402056" lon="12.922280603035068"><ele>286.0</ele><time>2026-05-01T16:31:46.999Z</time></trkpt><trkpt lat="41.768243969996526" lon="12.922195473897721"><ele>286.0</ele><time>2026-05-01T16:31:47.999Z</time></trkpt><trkpt lat="41.76828283549769" lon="12.922110290264559"><ele>286.0</ele><time>2026-05-01T16:31:48.999Z</time></trkpt><trkpt lat="41.76831671058152" lon="12.922032091659652"><ele>286.0</ele><time>2026-05-01T16:31:49.999Z</time></trkpt><trkpt lat="41.7683776789599" lon="12.921912379919942"><ele>285.99999999999994</ele><time>2026-05-01T16:31:51.998Z</time></trkpt><trkpt lat="41.768416401471534" lon="12.92184016320167"><ele>286.0</ele><time>2026-05-01T16:31:53.998Z</time></trkpt><trkpt lat="41.76845596991715" lon="12.921765814058974"><ele>286.0</ele><time>2026-05-01T16:31:56.998Z</time></trkpt><trkpt lat="41.76850690333472" lon="12.921697815020718"><ele>286.0</ele><time>2026-05-01T16:31:59.998Z</time></trkpt><trkpt lat="41.76856307651882" lon="12.921636172351802"><ele>286.0</ele><time>2026-05-01T16:32:01.998Z</time></trkpt><trkpt lat="41.768624910608004" lon="12.921556391624629"><ele>285.99999999999994</ele><time>2026-05-01T16:32:03.998Z</time></trkpt><trkpt lat="41.7686760578812" lon="12.921493746989313"><ele>286.0</ele><time>2026-05-01T16:32:05.998Z</time></trkpt><trkpt lat="41.76871691673914" lon="12.921418057559855"><ele>286.8</ele><time>2026-05-01T16:32:07.998Z</time></trkpt><trkpt lat="41.768786860456245" lon="12.921335193814192"><ele>287.6</ele><time>2026-05-01T16:32:09.998Z</time></trkpt><trkpt lat="41.768880563860286" lon="12.921272993321065"><ele>288.4</ele><time>2026-05-01T16:32:11.998Z</time></trkpt><trkpt lat="41.76896929321264" lon="12.921227907234929"><ele>289.2</ele><time>2026-05-01T16:32:13.998Z</time></trkpt><trkpt lat="41.76905140985948" lon="12.921196351394237"><ele>290.0</ele><time>2026-05-01T16:32:15.998Z</time></trkpt><trkpt lat="41.76914465317592" lon="12.92116977486302"><ele>290.0</ele><time>2026-05-01T16:32:18.998Z</time></trkpt><trkpt lat="41.769204342064704" lon="12.921136291705858"><ele>290.0</ele><time>2026-05-01T16:32:20.998Z</time></trkpt><trkpt lat="41.76927344852375" lon="12.92114571160438"><ele>290.0</ele><time>2026-05-01T16:32:22.998Z</time></trkpt><trkpt lat="41.76936377049912" lon="12.921148453943678"><ele>290.0</ele><time>2026-05-01T16:32:24.998Z</time></trkpt><trkpt lat="41.769441358693584" lon="12.921039683936135"><ele>290.0</ele><time>2026-05-01T16:32:26.998Z</time></trkpt><trkpt lat="41.7694706923956" lon="12.920924807665745"><ele>290.0</ele><time>2026-05-01T16:32:28.998Z</time></trkpt><trkpt lat="41.7694525620697" lon="12.920794342436066"><ele>290.0</ele><time>2026-05-01T16:32:30.998Z</time></trkpt><trkpt lat="41.769382868726055" lon="12.92069230813474"><ele>290.0</ele><time>2026-05-01T16:32:32.998Z</time></trkpt><trkpt lat="41.76931535199701" lon="12.920700716065426"><ele>290.0</ele><time>2026-05-01T16:32:33.998Z</time></trkpt><trkpt lat="41.7692407550298" lon="12.920666516777718"><ele>290.0</ele><time>2026-05-01T16:32:36Z</time></trkpt><trkpt lat="41.76915751314564" lon="12.920631247596146"><ele>290.0</ele><time>2026-05-01T16:32:39Z</time></trkpt><trkpt lat="41.769084449299974" lon="12.92064119288734"><ele>290.0</ele><time>2026-05-01T16:32:43Z</time></trkpt><trkpt lat="41.76901625623941" lon="12.920645548191176"><ele>290.0</ele><time>2026-05-01T16:32:46Z</time></trkpt><trkpt lat="41.76887261570336" lon="12.920616969397818"><ele>290.0</ele><time>2026-05-01T16:32:48Z</time></trkpt><trkpt lat="41.768793182192965" lon="12.920598192350933"><ele>290.0</ele><time>2026-05-01T16:32:49Z</time></trkpt><trkpt lat="41.768714154139936" lon="12.920578647993768"><ele>290.0</ele><time>2026-05-01T16:32:50Z</time></trkpt><trkpt lat="41.768637018833644" lon="12.920551850650988"><ele>290.0</ele><time>2026-05-01T16:32:51Z</time></trkpt><trkpt lat="41.7685624909127" lon="12.92052106683572"><ele>289.2</ele><time>2026-05-01T16:32:52Z</time></trkpt><trkpt lat="41.76847888869426" lon="12.920490328097205"><ele>288.4</ele><time>2026-05-01T16:32:53Z</time></trkpt><trkpt lat="41.768391662860495" lon="12.920438251589308"><ele>287.6</ele><time>2026-05-01T16:32:54Z</time></trkpt><trkpt lat="41.768287378325795" lon="12.920390314422141"><ele>286.8</ele><time>2026-05-01T16:32:55Z</time></trkpt><trkpt lat="41.768180575688895" lon="12.92032123371555"><ele>286.0</ele><time>2026-05-01T16:32:56Z</time></trkpt><trkpt lat="41.768066467119986" lon="12.920239408169024"><ele>286.0</ele><time>2026-05-01T16:32:57Z</time></trkpt><trkpt lat="41.76794995062181" lon="12.92015486813776"><ele>286.0</ele><time>2026-05-01T16:32:58Z</time></trkpt><trkpt lat="41.7678363145616" lon="12.920067856167828"><ele>286.0</ele><time>2026-05-01T16:32:59Z</time></trkpt><trkpt lat="41.76772384476888" lon="12.919986671311495"><ele>286.0</ele><time>2026-05-01T16:33:00Z</time></trkpt><trkpt lat="41.76760920778005" lon="12.919908395572815"><ele>285.5</ele><time>2026-05-01T16:33:01Z</time></trkpt><trkpt lat="41.7674978647488" lon="12.919832390292823"><ele>285.0</ele><time>2026-05-01T16:33:01.999Z</time></trkpt><trkpt lat="41.76738725841051" lon="12.919755046916721"><ele>284.5</ele><time>2026-05-01T16:33:02.999Z</time></trkpt><trkpt lat="41.767281799492864" lon="12.919682568836285"><ele>284.0</ele><time>2026-05-01T16:33:03.999Z</time></trkpt><trkpt lat="41.767169150569266" lon="12.919630721216187"><ele>284.0</ele><time>2026-05-01T16:33:04.999Z</time></trkpt><trkpt lat="41.76707234910135" lon="12.91955538105729"><ele>284.0</ele><time>2026-05-01T16:33:05.999Z</time></trkpt><trkpt lat="41.76697423683579" lon="12.919487823999274"><ele>284.0</ele><time>2026-05-01T16:33:06.999Z</time></trkpt><trkpt lat="41.76687714012584" lon="12.9194234081253"><ele>284.0</ele><time>2026-05-01T16:33:07.999Z</time></trkpt><trkpt lat="41.76677546094554" lon="12.919361500218598"><ele>284.0</ele><time>2026-05-01T16:33:08.999Z</time></trkpt><trkpt lat="41.766693950634455" lon="12.919277863661893"><ele>284.4</ele><time>2026-05-01T16:33:09.999Z</time></trkpt><trkpt lat="41.766607383779494" lon="12.919216544072617"><ele>284.79999999999995</ele><time>2026-05-01T16:33:10.999Z</time></trkpt><trkpt lat="41.76651507264546" lon="12.91915473056338"><ele>285.20000000000005</ele><time>2026-05-01T16:33:11.999Z</time></trkpt><trkpt lat="41.7664148230735" lon="12.919090129238688"><ele>285.6</ele><time>2026-05-01T16:33:12.999Z</time></trkpt><trkpt lat="41.76631899455789" lon="12.919028830419563"><ele>286.0</ele><time>2026-05-01T16:33:13.999Z</time></trkpt><trkpt lat="41.7662273231481" lon="12.918966357406594"><ele>286.0</ele><time>2026-05-01T16:33:14.999Z</time></trkpt><trkpt lat="41.766137926585046" lon="12.918903046161219"><ele>286.0</ele><time>2026-05-01T16:33:15.999Z</time></trkpt><trkpt lat="41.766052902925" lon="12.918840413681863"><ele>286.0</ele><time>2026-05-01T16:33:16.999Z</time></trkpt><trkpt lat="41.7659707505934" lon="12.918776182855252"><ele>286.0</ele><time>2026-05-01T16:33:17.999Z</time></trkpt><trkpt lat="41.76588864861178" lon="12.918708113031826"><ele>286.0</ele><time>2026-05-01T16:33:18.999Z</time></trkpt><trkpt lat="41.76581561542054" lon="12.918631056924715"><ele>286.0</ele><time>2026-05-01T16:33:19.999Z</time></trkpt><trkpt lat="41.76573062361271" lon="12.918562077548614"><ele>286.0</ele><time>2026-05-01T16:33:20.999Z</time></trkpt><trkpt lat="41.76566708071205" lon="12.918459202041317"><ele>286.0</ele><time>2026-05-01T16:33:21.999Z</time></trkpt><trkpt lat="41.76558156157984" lon="12.91839039117016"><ele>286.0</ele><time>2026-05-01T16:33:22.999Z</time></trkpt><trkpt lat="41.765510393893926" lon="12.918301406657358"><ele>286.0</ele><time>2026-05-01T16:33:23.999Z</time></trkpt><trkpt lat="41.76543923559031" lon="12.918209287961556"><ele>286.0</ele><time>2026-05-01T16:33:24.999Z</time></trkpt><trkpt lat="41.76536268227181" lon="12.91812158183849"><ele>286.0</ele><time>2026-05-01T16:33:25.999Z</time></trkpt><trkpt lat="41.76528909261798" lon="12.91802531958981"><ele>286.0</ele><time>2026-05-01T16:33:26.999Z</time></trkpt><trkpt lat="41.76521070237463" lon="12.917941105305486"><ele>286.0</ele><time>2026-05-01T16:33:27.999Z</time></trkpt><trkpt lat="41.76512930101078" lon="12.91784802794363"><ele>286.0</ele><time>2026-05-01T16:33:28.999Z</time></trkpt><trkpt lat="41.765039170266874" lon="12.917754521515585"><ele>285.5</ele><time>2026-05-01T16:33:29.999Z</time></trkpt><trkpt lat="41.76494571247117" lon="12.917657220875004"><ele>285.0</ele><time>2026-05-01T16:33:30.999Z</time></trkpt><trkpt lat="41.76485448513375" lon="12.917554692897303"><ele>284.5</ele><time>2026-05-01T16:33:31.999Z</time></trkpt><trkpt lat="41.76475864361353" lon="12.917452641000281"><ele>284.0</ele><time>2026-05-01T16:33:32.999Z</time></trkpt><trkpt lat="41.76466334058839" lon="12.917348897050633"><ele>283.25</ele><time>2026-05-01T16:33:33.999Z</time></trkpt><trkpt lat="41.7645692682038" lon="12.917245710509267"><ele>282.5</ele><time>2026-05-01T16:33:34.999Z</time></trkpt><trkpt lat="41.76447582582169" lon="12.917144688767568"><ele>281.75</ele><time>2026-05-01T16:33:35.999Z</time></trkpt><trkpt lat="41.764384561962316" lon="12.917043247842228"><ele>281.0</ele><time>2026-05-01T16:33:36.999Z</time></trkpt><trkpt lat="41.76429160019548" lon="12.91694412621433"><ele>281.0</ele><time>2026-05-01T16:33:37.999Z</time></trkpt><trkpt lat="41.76419744869453" lon="12.91684035075847"><ele>281.0</ele><time>2026-05-01T16:33:38.999Z</time></trkpt><trkpt lat="41.76410153820495" lon="12.916734163223776"><ele>281.0</ele><time>2026-05-01T16:33:39.999Z</time></trkpt><trkpt lat="41.76400292566188" lon="12.916630398555222"><ele>281.0</ele><time>2026-05-01T16:33:40.999Z</time></trkpt><trkpt lat="41.76390046926959" lon="12.916527516987195"><ele>281.0</ele><time>2026-05-01T16:33:41.999Z</time></trkpt><trkpt lat="41.76379883738519" lon="12.916422338951621"><ele>281.0</ele><time>2026-05-01T16:33:42.999Z</time></trkpt><trkpt lat="41.76370064079447" lon="12.916317683950636"><ele>281.0</ele><time>2026-05-01T16:33:43.999Z</time></trkpt><trkpt lat="41.763603478037886" lon="12.916217109669244"><ele>281.0</ele><time>2026-05-01T16:33:44.999Z</time></trkpt><trkpt lat="41.76350650837181" lon="12.916119975205637"><ele>280.40000000000003</ele><time>2026-05-01T16:33:45.999Z</time></trkpt><trkpt lat="41.76341411531805" lon="12.91602499671415"><ele>279.8</ele><time>2026-05-01T16:33:46.999Z</time></trkpt><trkpt lat="41.7633223671004" lon="12.915932443336116"><ele>279.20000000000005</ele><time>2026-05-01T16:33:47.999Z</time></trkpt><trkpt lat="41.763234090081404" lon="12.91584591942664"><ele>278.6</ele><time>2026-05-01T16:33:48.999Z</time></trkpt><trkpt lat="41.763148468416894" lon="12.915758165521346"><ele>278.0</ele><time>2026-05-01T16:33:49.999Z</time></trkpt><trkpt lat="41.76306493363525" lon="12.915673841480737"><ele>277.4</ele><time>2026-05-01T16:33:50.999Z</time></trkpt><trkpt lat="41.7629822320494" lon="12.9155935791151"><ele>276.8</ele><time>2026-05-01T16:33:51.999Z</time></trkpt><trkpt lat="41.762900380729036" lon="12.915506308731407"><ele>276.2</ele><time>2026-05-01T16:33:52.999Z</time></trkpt><trkpt lat="41.762813150763456" lon="12.915422959479757"><ele>275.6</ele><time>2026-05-01T16:33:53.999Z</time></trkpt><trkpt lat="41.762733194240035" lon="12.915351756433969"><ele>275.0</ele><time>2026-05-01T16:33:54.999Z</time></trkpt><trkpt lat="41.76265335234742" lon="12.915281691562468"><ele>274.8</ele><time>2026-05-01T16:33:55.998Z</time></trkpt><trkpt lat="41.7625775450658" lon="12.915207598281494"><ele>274.6</ele><time>2026-05-01T16:33:56.998Z</time></trkpt><trkpt lat="41.76250438950056" lon="12.915134428828535"><ele>274.4</ele><time>2026-05-01T16:33:57.998Z</time></trkpt><trkpt lat="41.762427532971806" lon="12.915061779689129"><ele>274.2</ele><time>2026-05-01T16:33:58.998Z</time></trkpt><trkpt lat="41.762346191673984" lon="12.91498988934639"><ele>274.0</ele><time>2026-05-01T16:33:59.998Z</time></trkpt><trkpt lat="41.762263856323585" lon="12.91491125209978"><ele>273.8</ele><time>2026-05-01T16:34:00.998Z</time></trkpt><trkpt lat="41.762179755044706" lon="12.914830043059334"><ele>273.59999999999997</ele><time>2026-05-01T16:34:01.998Z</time></trkpt><trkpt lat="41.76208933598263" lon="12.914746354812115"><ele>273.4</ele><time>2026-05-01T16:34:02.998Z</time></trkpt><trkpt lat="41.76199436677316" lon="12.914661754633132"><ele>273.2</ele><time>2026-05-01T16:34:03.998Z</time></trkpt><trkpt lat="41.76189742882522" lon="12.914576894447851"><ele>273.0</ele><time>2026-05-01T16:34:04.998Z</time></trkpt><trkpt lat="41.761799690340816" lon="12.914489904909049"><ele>272.75</ele><time>2026-05-01T16:34:05.998Z</time></trkpt><trkpt lat="41.76169886807274" lon="12.914401335927062"><ele>272.5</ele><time>2026-05-01T16:34:06.998Z</time></trkpt><trkpt lat="41.761595549094075" lon="12.914312661780725"><ele>272.25</ele><time>2026-05-01T16:34:07.998Z</time></trkpt><trkpt lat="41.76148891063132" lon="12.914227454754768"><ele>272.0</ele><time>2026-05-01T16:34:08.998Z</time></trkpt><trkpt lat="41.761379029223676" lon="12.91414328408819"><ele>272.0</ele><time>2026-05-01T16:34:09.998Z</time></trkpt><trkpt lat="41.761265374871904" lon="12.914078067973065"><ele>272.0</ele><time>2026-05-01T16:34:10.998Z</time></trkpt><trkpt lat="41.76115369606709" lon="12.914005126967908"><ele>272.0</ele><time>2026-05-01T16:34:11.998Z</time></trkpt><trkpt lat="41.761039875515664" lon="12.913935591942845"><ele>272.0</ele><time>2026-05-01T16:34:12.998Z</time></trkpt><trkpt lat="41.76092103819239" lon="12.91388223188307"><ele>272.75</ele><time>2026-05-01T16:34:13.998Z</time></trkpt><trkpt lat="41.76079976058069" lon="12.913817833882298"><ele>273.5</ele><time>2026-05-01T16:34:14.998Z</time></trkpt><trkpt lat="41.760675603045705" lon="12.913760934997878"><ele>274.25</ele><time>2026-05-01T16:34:15.998Z</time></trkpt><trkpt lat="41.760553530992794" lon="12.91370322566473"><ele>275.0</ele><time>2026-05-01T16:34:16.998Z</time></trkpt><trkpt lat="41.76043391843366" lon="12.91364947273048"><ele>275.0</ele><time>2026-05-01T16:34:17.998Z</time></trkpt><trkpt lat="41.7603146995783" lon="12.913601318324561"><ele>275.0</ele><time>2026-05-01T16:34:18.998Z</time></trkpt><trkpt lat="41.76018977359607" lon="12.913558664866754"><ele>275.0</ele><time>2026-05-01T16:34:19.998Z</time></trkpt><trkpt lat="41.76007041877035" lon="12.913509724726147"><ele>275.0</ele><time>2026-05-01T16:34:20.998Z</time></trkpt><trkpt lat="41.75995555178435" lon="12.913454881843395"><ele>276.5</ele><time>2026-05-01T16:34:21.998Z</time></trkpt><trkpt lat="41.75984055844453" lon="12.913404573880914"><ele>278.0</ele><time>2026-05-01T16:34:22.998Z</time></trkpt><trkpt lat="41.75972403676976" lon="12.913355113238826"><ele>279.5</ele><time>2026-05-01T16:34:23.998Z</time></trkpt><trkpt lat="41.75960679072659" lon="12.913306806563245"><ele>281.0</ele><time>2026-05-01T16:34:24.998Z</time></trkpt><trkpt lat="41.75949070465676" lon="12.913261049035347"><ele>281.0</ele><time>2026-05-01T16:34:25.998Z</time></trkpt><trkpt lat="41.75937504070932" lon="12.913221852322184"><ele>281.0</ele><time>2026-05-01T16:34:26.998Z</time></trkpt><trkpt lat="41.759259733592636" lon="12.913186955526234"><ele>281.0</ele><time>2026-05-01T16:34:27.998Z</time></trkpt><trkpt lat="41.75914836303364" lon="12.913153082061717"><ele>281.0</ele><time>2026-05-01T16:34:28.998Z</time></trkpt><trkpt lat="41.75903104695006" lon="12.913124051630042"><ele>281.0</ele><time>2026-05-01T16:34:29.998Z</time></trkpt><trkpt lat="41.758911219195205" lon="12.913101297909563"><ele>281.0</ele><time>2026-05-01T16:34:30.998Z</time></trkpt><trkpt lat="41.75878649208997" lon="12.9130938308597"><ele>281.0</ele><time>2026-05-01T16:34:31.998Z</time></trkpt><trkpt lat="41.75866217281125" lon="12.913097535793046"><ele>281.0</ele><time>2026-05-01T16:34:32.998Z</time></trkpt><trkpt lat="41.75854221588083" lon="12.913124479176727"><ele>280.75</ele><time>2026-05-01T16:34:33.998Z</time></trkpt><trkpt lat="41.758421174334465" lon="12.913175245414994"><ele>280.5</ele><time>2026-05-01T16:34:34.998Z</time></trkpt><trkpt lat="41.75829656372131" lon="12.913236693102386"><ele>280.25</ele><time>2026-05-01T16:34:35.998Z</time></trkpt><trkpt lat="41.75817220056031" lon="12.913320279502312"><ele>280.0</ele><time>2026-05-01T16:34:36.998Z</time></trkpt><trkpt lat="41.75805116649871" lon="12.913410728542264"><ele>280.0</ele><time>2026-05-01T16:34:37.998Z</time></trkpt><trkpt lat="41.75792221528675" lon="12.9134982365975"><ele>280.0</ele><time>2026-05-01T16:34:38.998Z</time></trkpt><trkpt lat="41.75780887051655" lon="12.913591711979231"><ele>280.0</ele><time>2026-05-01T16:34:39.998Z</time></trkpt><trkpt lat="41.7576833768527" lon="12.913633006024689"><ele>280.0</ele><time>2026-05-01T16:34:40.998Z</time></trkpt><trkpt lat="41.75755328298772" lon="12.91368127651933"><ele>278.25</ele><time>2026-05-01T16:34:42Z</time></trkpt><trkpt lat="41.75742800522662" lon="12.913736466654662"><ele>276.5</ele><time>2026-05-01T16:34:43Z</time></trkpt><trkpt lat="41.75730158579702" lon="12.913793006730524"><ele>274.75</ele><time>2026-05-01T16:34:44Z</time></trkpt><trkpt lat="41.757175959464156" lon="12.913853179362027"><ele>273.0</ele><time>2026-05-01T16:34:45Z</time></trkpt><trkpt lat="41.757052171691036" lon="12.913905770254724"><ele>273.0</ele><time>2026-05-01T16:34:46Z</time></trkpt><trkpt lat="41.75692990442878" lon="12.91395071347417"><ele>273.0</ele><time>2026-05-01T16:34:47Z</time></trkpt><trkpt lat="41.75680886563472" lon="12.9139912073584"><ele>273.0</ele><time>2026-05-01T16:34:48Z</time></trkpt><trkpt lat="41.756695197689886" lon="12.914013618163036"><ele>273.0</ele><time>2026-05-01T16:34:49Z</time></trkpt><trkpt lat="41.75658926399219" lon="12.91401307381492"><ele>272.6</ele><time>2026-05-01T16:34:50Z</time></trkpt><trkpt lat="41.75649316304975" lon="12.913991342352194"><ele>272.20000000000005</ele><time>2026-05-01T16:34:51Z</time></trkpt><trkpt lat="41.75641793080422" lon="12.91394115514417"><ele>271.8</ele><time>2026-05-01T16:34:52Z</time></trkpt><trkpt lat="41.75636645013861" lon="12.913847402008097"><ele>271.40000000000003</ele><time>2026-05-01T16:34:53Z</time></trkpt><trkpt lat="41.75628903419667" lon="12.913761135540645"><ele>271.0</ele><time>2026-05-01T16:34:54Z</time></trkpt><trkpt lat="41.7562467100801" lon="12.913639594682264"><ele>271.0</ele><time>2026-05-01T16:34:55Z</time></trkpt><trkpt lat="41.75620653706485" lon="12.913509168568215"><ele>271.0</ele><time>2026-05-01T16:34:56Z</time></trkpt><trkpt lat="41.75615803307061" lon="12.913374283299104"><ele>271.0</ele><time>2026-05-01T16:34:57Z</time></trkpt><trkpt lat="41.756167629820496" lon="12.913195945288475"><ele>271.0</ele><time>2026-05-01T16:34:58Z</time></trkpt><trkpt lat="41.7561271369176" lon="12.913045421041268"><ele>270.75</ele><time>2026-05-01T16:34:59Z</time></trkpt><trkpt lat="41.75608510325011" lon="12.912891051793457"><ele>270.5</ele><time>2026-05-01T16:35:00Z</time></trkpt><trkpt lat="41.756043117491835" lon="12.912739063106157"><ele>270.25</ele><time>2026-05-01T16:35:01Z</time></trkpt><trkpt lat="41.755960396458406" lon="12.91259796935103"><ele>270.0</ele><time>2026-05-01T16:35:02Z</time></trkpt><trkpt lat="41.755898696095336" lon="12.912458087565158"><ele>270.75</ele><time>2026-05-01T16:35:03Z</time></trkpt><trkpt lat="41.755819708730606" lon="12.912328689582969"><ele>271.5</ele><time>2026-05-01T16:35:04Z</time></trkpt><trkpt lat="41.755724907407384" lon="12.91222056621534"><ele>272.25</ele><time>2026-05-01T16:35:05Z</time></trkpt><trkpt lat="41.75563529647504" lon="12.912096021098897"><ele>273.0</ele><time>2026-05-01T16:35:06Z</time></trkpt><trkpt lat="41.75552097729193" lon="12.91206789773937"><ele>273.0</ele><time>2026-05-01T16:35:07Z</time></trkpt><trkpt lat="41.7554350393259" lon="12.912046990531433"><ele>273.0</ele><time>2026-05-01T16:35:07.999Z</time></trkpt><trkpt lat="41.75536229623504" lon="12.912048192583427"><ele>273.0</ele><time>2026-05-01T16:35:08.999Z</time></trkpt><trkpt lat="41.75529265453326" lon="12.912033516152686"><ele>273.0</ele><time>2026-05-01T16:35:09.999Z</time></trkpt><trkpt lat="41.75522761349069" lon="12.912026550600922"><ele>273.0</ele><time>2026-05-01T16:35:10.999Z</time></trkpt><trkpt lat="41.75516358526428" lon="12.912002290913222"><ele>273.0</ele><time>2026-05-01T16:35:11.999Z</time></trkpt><trkpt lat="41.7550994636475" lon="12.91196602333127"><ele>273.0</ele><time>2026-05-01T16:35:12.999Z</time></trkpt><trkpt lat="41.75503685989184" lon="12.911932690084294"><ele>272.6</ele><time>2026-05-01T16:35:13.999Z</time></trkpt><trkpt lat="41.7549603688697" lon="12.91197499716467"><ele>272.20000000000005</ele><time>2026-05-01T16:35:14.999Z</time></trkpt><trkpt lat="41.754887739017725" lon="12.911979577663665"><ele>271.8</ele><time>2026-05-01T16:35:15.999Z</time></trkpt><trkpt lat="41.75481470024534" lon="12.912012262612484"><ele>271.40000000000003</ele><time>2026-05-01T16:35:16.999Z</time></trkpt><trkpt lat="41.75473601566637" lon="12.912038994806348"><ele>271.0</ele><time>2026-05-01T16:35:17.999Z</time></trkpt><trkpt lat="41.75474869479065" lon="12.912342058761471"><ele>271.0</ele><time>2026-05-01T16:35:18.999Z</time></trkpt><trkpt lat="41.754683176931" lon="12.91239688858073"><ele>271.0</ele><time>2026-05-01T16:35:19.999Z</time></trkpt><trkpt lat="41.75461636213777" lon="12.912461892801959"><ele>271.0</ele><time>2026-05-01T16:35:20.999Z</time></trkpt><trkpt lat="41.75455494077787" lon="12.912538064785714"><ele>271.0</ele><time>2026-05-01T16:35:21.999Z</time></trkpt><trkpt lat="41.754498422514565" lon="12.912615721881332"><ele>271.0</ele><time>2026-05-01T16:35:22.999Z</time></trkpt><trkpt lat="41.754440571625565" lon="12.912712426709161"><ele>271.0</ele><time>2026-05-01T16:35:23.999Z</time></trkpt><trkpt lat="41.754394346673806" lon="12.912814696813669"><ele>272.25</ele><time>2026-05-01T16:35:24.999Z</time></trkpt><trkpt lat="41.75434230382513" lon="12.912959170329492"><ele>273.5</ele><time>2026-05-01T16:35:25.999Z</time></trkpt><trkpt lat="41.75431334850778" lon="12.913111796469343"><ele>274.75</ele><time>2026-05-01T16:35:26.999Z</time></trkpt><trkpt lat="41.754297451447535" lon="12.91327644876367"><ele>276.0</ele><time>2026-05-01T16:35:27.999Z</time></trkpt><trkpt lat="41.754290974513204" lon="12.913436335546416"><ele>276.2</ele><time>2026-05-01T16:35:28.999Z</time></trkpt><trkpt lat="41.75428690755386" lon="12.913582712220984"><ele>276.40000000000003</ele><time>2026-05-01T16:35:29.999Z</time></trkpt><trkpt lat="41.75428282813165" lon="12.913724288708822"><ele>276.6</ele><time>2026-05-01T16:35:30.999Z</time></trkpt><trkpt lat="41.75427071049577" lon="12.913869504805984"><ele>276.8</ele><time>2026-05-01T16:35:31.999Z</time></trkpt><trkpt lat="41.754255010169146" lon="12.914012875615292"><ele>277.0</ele><time>2026-05-01T16:35:32.999Z</time></trkpt><trkpt lat="41.754227290341085" lon="12.914154532849121"><ele>277.6</ele><time>2026-05-01T16:35:33.999Z</time></trkpt><trkpt lat="41.754182175821946" lon="12.914281987207064"><ele>278.2</ele><time>2026-05-01T16:35:34.999Z</time></trkpt><trkpt lat="41.75412852654268" lon="12.914400390901422"><ele>278.8</ele><time>2026-05-01T16:35:35.999Z</time></trkpt><trkpt lat="41.754070804025574" lon="12.914513666737111"><ele>279.4</ele><time>2026-05-01T16:35:36.999Z</time></trkpt><trkpt lat="41.75401914767169" lon="12.914626003714487"><ele>280.0</ele><time>2026-05-01T16:35:37.999Z</time></trkpt><trkpt lat="41.75396874170849" lon="12.914725150182088"><ele>280.0</ele><time>2026-05-01T16:35:38.999Z</time></trkpt><trkpt lat="41.75391987563616" lon="12.914812775739804"><ele>280.0</ele><time>2026-05-01T16:35:39.999Z</time></trkpt><trkpt lat="41.753859422948246" lon="12.914881238137426"><ele>280.0</ele><time>2026-05-01T16:35:40.999Z</time></trkpt><trkpt lat="41.75379696697729" lon="12.914941132323625"><ele>280.0</ele><time>2026-05-01T16:35:41.999Z</time></trkpt><trkpt lat="41.75372451794954" lon="12.914982321255259"><ele>280.0</ele><time>2026-05-01T16:35:42.999Z</time></trkpt><trkpt lat="41.75365371735232" lon="12.915015505842929"><ele>280.0</ele><time>2026-05-01T16:35:43.999Z</time></trkpt><trkpt lat="41.75357909592606" lon="12.915037427741886"><ele>281.0</ele><time>2026-05-01T16:35:44.999Z</time></trkpt><trkpt lat="41.753502102185834" lon="12.91504530758232"><ele>282.0</ele><time>2026-05-01T16:35:45.999Z</time></trkpt><trkpt lat="41.753420445563506" lon="12.915055992289707"><ele>283.0</ele><time>2026-05-01T16:35:46.999Z</time></trkpt><trkpt lat="41.75333651283891" lon="12.915064402086832"><ele>284.0</ele><time>2026-05-01T16:35:47.999Z</time></trkpt><trkpt lat="41.75325056447417" lon="12.915071105373654"><ele>285.0</ele><time>2026-05-01T16:35:48.999Z</time></trkpt><trkpt lat="41.75316189256493" lon="12.915082536111335"><ele>286.0</ele><time>2026-05-01T16:35:49.999Z</time></trkpt><trkpt lat="41.7530754521906" lon="12.915086999590338"><ele>286.0</ele><time>2026-05-01T16:35:50.999Z</time></trkpt><trkpt lat="41.752988557667386" lon="12.915093826621751"><ele>286.0</ele><time>2026-05-01T16:35:51.999Z</time></trkpt><trkpt lat="41.75290358796516" lon="12.915104365671679"><ele>286.0</ele><time>2026-05-01T16:35:52.999Z</time></trkpt><trkpt lat="41.75281299364803" lon="12.915115860258735"><ele>286.0</ele><time>2026-05-01T16:35:53.999Z</time></trkpt><trkpt lat="41.75272484632407" lon="12.915119560413185"><ele>286.0</ele><time>2026-05-01T16:35:54.999Z</time></trkpt><trkpt lat="41.75263318467353" lon="12.915119146741628"><ele>286.0</ele><time>2026-05-01T16:35:55.999Z</time></trkpt><trkpt lat="41.7525348280327" lon="12.91513164739395"><ele>286.2</ele><time>2026-05-01T16:35:56.999Z</time></trkpt><trkpt lat="41.752430018729314" lon="12.91513516225352"><ele>286.40000000000003</ele><time>2026-05-01T16:35:57.999Z</time></trkpt><trkpt lat="41.7523239585625" lon="12.915140468598814"><ele>286.6</ele><time>2026-05-01T16:35:58.999Z</time></trkpt><trkpt lat="41.7522190054573" lon="12.915145278143138"><ele>286.8</ele><time>2026-05-01T16:35:59.999Z</time></trkpt><trkpt lat="41.75211255428506" lon="12.915144366437659"><ele>287.0</ele><time>2026-05-01T16:36:00.999Z</time></trkpt><trkpt lat="41.75200680597361" lon="12.915149455993053"><ele>287.0</ele><time>2026-05-01T16:36:01.998Z</time></trkpt><trkpt lat="41.75190207404655" lon="12.915152912949786"><ele>287.0</ele><time>2026-05-01T16:36:02.998Z</time></trkpt><trkpt lat="41.75180448005005" lon="12.915156269826078"><ele>287.0</ele><time>2026-05-01T16:36:03.998Z</time></trkpt><trkpt lat="41.751708636082355" lon="12.91516111780709"><ele>287.0</ele><time>2026-05-01T16:36:04.998Z</time></trkpt><trkpt lat="41.751614244718716" lon="12.91516935242919"><ele>287.0</ele><time>2026-05-01T16:36:05.998Z</time></trkpt><trkpt lat="41.751521779876796" lon="12.91517036760733"><ele>286.0</ele><time>2026-05-01T16:36:06.998Z</time></trkpt><trkpt lat="41.75142836353584" lon="12.915176431988483"><ele>285.0</ele><time>2026-05-01T16:36:07.998Z</time></trkpt><trkpt lat="41.751337406510835" lon="12.915180917961225"><ele>284.0</ele><time>2026-05-01T16:36:08.998Z</time></trkpt><trkpt lat="41.751252220509016" lon="12.915182198296023"><ele>283.0</ele><time>2026-05-01T16:36:09.998Z</time></trkpt><trkpt lat="41.75117173269079" lon="12.915182182172586"><ele>282.0</ele><time>2026-05-01T16:36:10.998Z</time></trkpt><trkpt lat="41.75109875692137" lon="12.915183703260459"><ele>281.0</ele><time>2026-05-01T16:36:11.998Z</time></trkpt><trkpt lat="41.75098878244106" lon="12.91516900373512"><ele>279.40000000000003</ele><time>2026-05-01T16:36:13.998Z</time></trkpt><trkpt lat="41.75092511084654" lon="12.915163136956805"><ele>277.8</ele><time>2026-05-01T16:36:15.998Z</time></trkpt><trkpt lat="41.75083526490623" lon="12.915193791428258"><ele>276.20000000000005</ele><time>2026-05-01T16:37:02Z</time></trkpt><trkpt lat="41.75073378944942" lon="12.915209716209963"><ele>274.6</ele><time>2026-05-01T16:37:04Z</time></trkpt><trkpt lat="41.75062054168235" lon="12.915205612617733"><ele>273.0</ele><time>2026-05-01T16:37:06Z</time></trkpt><trkpt lat="41.75053191859387" lon="12.915215437611405"><ele>273.0</ele><time>2026-05-01T16:37:07Z</time></trkpt><trkpt lat="41.750453992310185" lon="12.915225411814134"><ele>273.0</ele><time>2026-05-01T16:37:08Z</time></trkpt><trkpt lat="41.750346093337455" lon="12.915215795163228"><ele>273.0</ele><time>2026-05-01T16:37:10Z</time></trkpt><trkpt lat="41.750241414796236" lon="12.915163272633825"><ele>273.0</ele><time>2026-05-01T16:37:12Z</time></trkpt><trkpt lat="41.750156370593125" lon="12.915127523745939"><ele>273.0</ele><time>2026-05-01T16:37:14Z</time></trkpt><trkpt lat="41.75009110194804" lon="12.915104405695574"><ele>272.8</ele><time>2026-05-01T16:37:15.999Z</time></trkpt><trkpt lat="41.75001870249434" lon="12.914995040499898"><ele>272.6</ele><time>2026-05-01T16:37:18.999Z</time></trkpt><trkpt lat="41.750005526728295" lon="12.914888039022212"><ele>272.4</ele><time>2026-05-01T16:37:21.999Z</time></trkpt><trkpt lat="41.74999319423471" lon="12.91480507510683"><ele>272.2</ele><time>2026-05-01T16:37:23.999Z</time></trkpt><trkpt lat="41.749973257375196" lon="12.914675810490742"><ele>272.0</ele><time>2026-05-01T16:37:25.999Z</time></trkpt><trkpt lat="41.74996343179211" lon="12.91453345757181"><ele>272.0</ele><time>2026-05-01T16:37:27.999Z</time></trkpt><trkpt lat="41.74995681054044" lon="12.914448273614386"><ele>272.0</ele><time>2026-05-01T16:37:28.999Z</time></trkpt><trkpt lat="41.749947441693784" lon="12.914349953541455"><ele>272.0</ele><time>2026-05-01T16:37:29.999Z</time></trkpt><trkpt lat="41.74993557261959" lon="12.914241326307122"><ele>272.0</ele><time>2026-05-01T16:37:30.999Z</time></trkpt><trkpt lat="41.74992423354585" lon="12.914127370794839"><ele>272.0</ele><time>2026-05-01T16:37:31.999Z</time></trkpt><trkpt lat="41.749914404610145" lon="12.914019703794258"><ele>272.0</ele><time>2026-05-01T16:37:32.999Z</time></trkpt><trkpt lat="41.74990884396466" lon="12.913908727686024"><ele>272.0</ele><time>2026-05-01T16:37:33.999Z</time></trkpt><trkpt lat="41.74990323285191" lon="12.913796234483971"><ele>272.0</ele><time>2026-05-01T16:37:34.999Z</time></trkpt><trkpt lat="41.7499035506666" lon="12.913687970193791"><ele>272.0</ele><time>2026-05-01T16:37:35.999Z</time></trkpt><trkpt lat="41.74988478609992" lon="12.913580748372958"><ele>272.0</ele><time>2026-05-01T16:37:36.999Z</time></trkpt><trkpt lat="41.74985005496214" lon="12.913484381680982"><ele>272.0</ele><time>2026-05-01T16:37:37.999Z</time></trkpt><trkpt lat="41.74980195476002" lon="12.913402519180153"><ele>272.0</ele><time>2026-05-01T16:37:38.999Z</time></trkpt><trkpt lat="41.749739135123995" lon="12.91335341435513"><ele>271.83333333333337</ele><time>2026-05-01T16:37:39.999Z</time></trkpt><trkpt lat="41.74966191116517" lon="12.913339622325262"><ele>271.6666666666667</ele><time>2026-05-01T16:37:40.999Z</time></trkpt><trkpt lat="41.74957793194915" lon="12.913353558549295"><ele>271.5</ele><time>2026-05-01T16:37:41.999Z</time></trkpt><trkpt lat="41.74949202135234" lon="12.913377417333804"><ele>271.3333333333333</ele><time>2026-05-01T16:37:42.999Z</time></trkpt><trkpt lat="41.7494038232701" lon="12.913394885138791"><ele>271.16666666666663</ele><time>2026-05-01T16:37:43.999Z</time></trkpt><trkpt lat="41.74931861329905" lon="12.913409121188852"><ele>271.0</ele><time>2026-05-01T16:37:44.999Z</time></trkpt><trkpt lat="41.749233898846455" lon="12.913422423223414"><ele>271.0</ele><time>2026-05-01T16:37:45.999Z</time></trkpt><trkpt lat="41.74915160168978" lon="12.913432851072194"><ele>271.0</ele><time>2026-05-01T16:37:46.999Z</time></trkpt><trkpt lat="41.74906941435497" lon="12.91344816728113"><ele>271.0</ele><time>2026-05-01T16:37:47.999Z</time></trkpt><trkpt lat="41.74899185106818" lon="12.913453681586066"><ele>271.0</ele><time>2026-05-01T16:37:48.999Z</time></trkpt><trkpt lat="41.74891956249869" lon="12.913443873018638"><ele>271.0</ele><time>2026-05-01T16:37:49.999Z</time></trkpt><trkpt lat="41.74884983234348" lon="12.913420735479317"><ele>271.0</ele><time>2026-05-01T16:37:50.999Z</time></trkpt><trkpt lat="41.74878355709337" lon="12.913409491534306"><ele>271.0</ele><time>2026-05-01T16:37:51.999Z</time></trkpt><trkpt lat="41.748704702654905" lon="12.913226576344664"><ele>271.0</ele><time>2026-05-01T16:37:53.999Z</time></trkpt><trkpt lat="41.74866152194537" lon="12.913127040466925"><ele>271.0</ele><time>2026-05-01T16:37:54.999Z</time></trkpt><trkpt lat="41.74862494536227" lon="12.91301374814827"><ele>271.0</ele><time>2026-05-01T16:37:55.999Z</time></trkpt><trkpt lat="41.74858968416758" lon="12.912902572732229"><ele>271.0</ele><time>2026-05-01T16:37:56.999Z</time></trkpt><trkpt lat="41.7485583565955" lon="12.912791943526006"><ele>270.66666666666663</ele><time>2026-05-01T16:37:57.999Z</time></trkpt><trkpt lat="41.7485278881291" lon="12.912684557701263"><ele>270.3333333333333</ele><time>2026-05-01T16:37:58.999Z</time></trkpt><trkpt lat="41.74849779188576" lon="12.912581013589477"><ele>270.0</ele><time>2026-05-01T16:37:59.999Z</time></trkpt><trkpt lat="41.7484675912293" lon="12.91248438290096"><ele>269.6666666666667</ele><time>2026-05-01T16:38:00.999Z</time></trkpt><trkpt lat="41.74843972232445" lon="12.912392472760548"><ele>269.33333333333337</ele><time>2026-05-01T16:38:01.999Z</time></trkpt><trkpt lat="41.74841307180714" lon="12.91229762697259"><ele>269.0</ele><time>2026-05-01T16:38:02.999Z</time></trkpt><trkpt lat="41.74838369755695" lon="12.912202666916968"><ele>269.0</ele><time>2026-05-01T16:38:03.999Z</time></trkpt><trkpt lat="41.748349439737716" lon="12.91209590695394"><ele>269.0</ele><time>2026-05-01T16:38:04.999Z</time></trkpt><trkpt lat="41.74831069109498" lon="12.91197905969022"><ele>269.0</ele><time>2026-05-01T16:38:05.999Z</time></trkpt><trkpt lat="41.748275196182" lon="12.911852669866867"><ele>269.0</ele><time>2026-05-01T16:38:06.999Z</time></trkpt><trkpt lat="41.7482387559556" lon="12.911723682313479"><ele>269.0</ele><time>2026-05-01T16:38:07.999Z</time></trkpt><trkpt lat="41.74820295895388" lon="12.91159763840089"><ele>269.8</ele><time>2026-05-01T16:38:08.999Z</time></trkpt><trkpt lat="41.7481691259503" lon="12.911469245865959"><ele>270.59999999999997</ele><time>2026-05-01T16:38:09.999Z</time></trkpt><trkpt lat="41.74813603379639" lon="12.911343735880163"><ele>271.4</ele><time>2026-05-01T16:38:10.998Z</time></trkpt><trkpt lat="41.748106436783985" lon="12.911220384324062"><ele>272.2</ele><time>2026-05-01T16:38:11.998Z</time></trkpt><trkpt lat="41.74807535173928" lon="12.911096699215237"><ele>273.0</ele><time>2026-05-01T16:38:12.998Z</time></trkpt><trkpt lat="41.74804743750242" lon="12.910973582983507"><ele>273.0</ele><time>2026-05-01T16:38:13.998Z</time></trkpt><trkpt lat="41.74801909179867" lon="12.910848212315818"><ele>273.0</ele><time>2026-05-01T16:38:14.998Z</time></trkpt><trkpt lat="41.74798842281727" lon="12.91072632997805"><ele>273.0</ele><time>2026-05-01T16:38:15.998Z</time></trkpt><trkpt lat="41.747959775443626" lon="12.910605404416252"><ele>273.0</ele><time>2026-05-01T16:38:16.998Z</time></trkpt><trkpt lat="41.747937150064324" lon="12.91048737610197"><ele>273.0</ele><time>2026-05-01T16:38:17.998Z</time></trkpt><trkpt lat="41.747922850463674" lon="12.910369895421969"><ele>273.0</ele><time>2026-05-01T16:38:18.998Z</time></trkpt><trkpt lat="41.74791824950123" lon="12.910260240528999"><ele>273.0</ele><time>2026-05-01T16:38:19.998Z</time></trkpt><trkpt lat="41.7479247471975" lon="12.910161562475173"><ele>273.0</ele><time>2026-05-01T16:38:20.998Z</time></trkpt><trkpt lat="41.74793135289989" lon="12.91006036839889"><ele>273.0</ele><time>2026-05-01T16:38:21.998Z</time></trkpt><trkpt lat="41.74794430858456" lon="12.909961960492339"><ele>273.0</ele><time>2026-05-01T16:38:22.998Z</time></trkpt><trkpt lat="41.74795237220184" lon="12.909862894568965"><ele>273.0</ele><time>2026-05-01T16:38:23.998Z</time></trkpt><trkpt lat="41.747948122091714" lon="12.909758915636742"><ele>273.0</ele><time>2026-05-01T16:38:24.998Z</time></trkpt><trkpt lat="41.74793718621059" lon="12.909652619459171"><ele>273.0</ele><time>2026-05-01T16:38:25.998Z</time></trkpt><trkpt lat="41.747926192442584" lon="12.909540997755359"><ele>273.0</ele><time>2026-05-01T16:38:26.998Z</time></trkpt><trkpt lat="41.747908473601036" lon="12.909423690883186"><ele>273.0</ele><time>2026-05-01T16:38:27.998Z</time></trkpt><trkpt lat="41.747878851310006" lon="12.909305599643853"><ele>273.0</ele><time>2026-05-01T16:38:28.998Z</time></trkpt><trkpt lat="41.74784051560537" lon="12.909188343780954"><ele>273.0</ele><time>2026-05-01T16:38:29.998Z</time></trkpt><trkpt lat="41.74780438642647" lon="12.909070971761114"><ele>273.0</ele><time>2026-05-01T16:38:30.998Z</time></trkpt><trkpt lat="41.74777072796703" lon="12.908949811857875"><ele>273.0</ele><time>2026-05-01T16:38:31.998Z</time></trkpt><trkpt lat="41.74773496767439" lon="12.908828935526937"><ele>273.0</ele><time>2026-05-01T16:38:32.998Z</time></trkpt><trkpt lat="41.74769523988203" lon="12.908704530447153"><ele>273.0</ele><time>2026-05-01T16:38:33.998Z</time></trkpt><trkpt lat="41.74765302844733" lon="12.908569831990855"><ele>273.0</ele><time>2026-05-01T16:38:34.998Z</time></trkpt><trkpt lat="41.7476061030604" lon="12.908431250309299"><ele>272.75</ele><time>2026-05-01T16:38:35.998Z</time></trkpt><trkpt lat="41.747550889592276" lon="12.908280879088823"><ele>272.5</ele><time>2026-05-01T16:38:36.998Z</time></trkpt><trkpt lat="41.74749495985321" lon="12.908137242355961"><ele>272.25</ele><time>2026-05-01T16:38:37.998Z</time></trkpt><trkpt lat="41.7474404073149" lon="12.908006367653899"><ele>272.0</ele><time>2026-05-01T16:38:38.998Z</time></trkpt><trkpt lat="41.74739079742021" lon="12.907878241238267"><ele>272.0</ele><time>2026-05-01T16:38:39.998Z</time></trkpt><trkpt lat="41.747344094962514" lon="12.90775426012752"><ele>272.0</ele><time>2026-05-01T16:38:40.998Z</time></trkpt><trkpt lat="41.74729521473244" lon="12.907634209529185"><ele>272.0</ele><time>2026-05-01T16:38:41.998Z</time></trkpt><trkpt lat="41.74724002779783" lon="12.907510922593662"><ele>272.0</ele><time>2026-05-01T16:38:42.998Z</time></trkpt><trkpt lat="41.747187282085584" lon="12.907384430475844"><ele>272.0</ele><time>2026-05-01T16:38:43.998Z</time></trkpt><trkpt lat="41.74713901447781" lon="12.907263053864396"><ele>272.4</ele><time>2026-05-01T16:38:44.998Z</time></trkpt><trkpt lat="41.7470909600754" lon="12.907146254879216"><ele>272.79999999999995</ele><time>2026-05-01T16:38:45.998Z</time></trkpt><trkpt lat="41.74704011696971" lon="12.907032172556134"><ele>273.2</ele><time>2026-05-01T16:38:46.998Z</time></trkpt><trkpt lat="41.7469911294219" lon="12.906921206230702"><ele>273.59999999999997</ele><time>2026-05-01T16:38:47.998Z</time></trkpt><trkpt lat="41.746938893037516" lon="12.906817660701282"><ele>274.0</ele><time>2026-05-01T16:38:48.998Z</time></trkpt><trkpt lat="41.74689059652923" lon="12.906714884740234"><ele>274.4</ele><time>2026-05-01T16:38:49.998Z</time></trkpt><trkpt lat="41.746845781107346" lon="12.90660844045273"><ele>274.79999999999995</ele><time>2026-05-01T16:38:50.998Z</time></trkpt><trkpt lat="41.746799044836614" lon="12.906500055464157"><ele>275.20000000000005</ele><time>2026-05-01T16:38:51.998Z</time></trkpt><trkpt lat="41.74674973968476" lon="12.906390298528683"><ele>275.6</ele><time>2026-05-01T16:38:52.998Z</time></trkpt><trkpt lat="41.74669169696055" lon="12.90628647293304"><ele>276.0</ele><time>2026-05-01T16:38:54Z</time></trkpt><trkpt lat="41.746615891216436" lon="12.906204778452235"><ele>276.0</ele><time>2026-05-01T16:38:55Z</time></trkpt><trkpt lat="41.74653542108188" lon="12.906150697287027"><ele>276.0</ele><time>2026-05-01T16:38:56Z</time></trkpt><trkpt lat="41.746458696994985" lon="12.906110307909039"><ele>276.0</ele><time>2026-05-01T16:38:57Z</time></trkpt><trkpt lat="41.74638322177955" lon="12.906079306291012"><ele>276.0</ele><time>2026-05-01T16:38:58Z</time></trkpt><trkpt lat="41.74631425000472" lon="12.906050441421357"><ele>276.0</ele><time>2026-05-01T16:38:59Z</time></trkpt><trkpt lat="41.746213034892655" lon="12.906008256143554"><ele>276.0</ele><time>2026-05-01T16:39:01Z</time></trkpt><trkpt lat="41.74613819503313" lon="12.905982339824494"><ele>276.0</ele><time>2026-05-01T16:39:05Z</time></trkpt><trkpt lat="41.74604965844569" lon="12.905928889710522"><ele>276.0</ele><time>2026-05-01T16:39:08Z</time></trkpt><trkpt lat="41.745975010994805" lon="12.905822244415269"><ele>276.0</ele><time>2026-05-01T16:39:10Z</time></trkpt><trkpt lat="41.745950171393744" lon="12.905737134734661"><ele>276.0</ele><time>2026-05-01T16:39:11Z</time></trkpt><trkpt lat="41.74594489489497" lon="12.90563011361658"><ele>276.0</ele><time>2026-05-01T16:39:12Z</time></trkpt><trkpt lat="41.74595435671368" lon="12.90551916908631"><ele>276.0</ele><time>2026-05-01T16:39:13Z</time></trkpt><trkpt lat="41.745973737840124" lon="12.905413320696406"><ele>276.8</ele><time>2026-05-01T16:39:14Z</time></trkpt><trkpt lat="41.74600406544721" lon="12.905303423119246"><ele>277.6</ele><time>2026-05-01T16:39:15Z</time></trkpt><trkpt lat="41.746035317542635" lon="12.905186392119354"><ele>278.4</ele><time>2026-05-01T16:39:16Z</time></trkpt><trkpt lat="41.74607169882153" lon="12.905066615883971"><ele>279.2</ele><time>2026-05-01T16:39:17Z</time></trkpt><trkpt lat="41.74611340581758" lon="12.904938233162122"><ele>280.0</ele><time>2026-05-01T16:39:18Z</time></trkpt><trkpt lat="41.74615650385774" lon="12.904808794044826"><ele>280.6</ele><time>2026-05-01T16:39:19Z</time></trkpt><trkpt lat="41.746199427670575" lon="12.90467419053757"><ele>281.2</ele><time>2026-05-01T16:39:20Z</time></trkpt><trkpt lat="41.74623962696913" lon="12.904533525909816"><ele>281.8</ele><time>2026-05-01T16:39:21Z</time></trkpt><trkpt lat="41.746281805370316" lon="12.90439115857598"><ele>282.4</ele><time>2026-05-01T16:39:22Z</time></trkpt><trkpt lat="41.74633093766998" lon="12.904258238946364"><ele>283.0</ele><time>2026-05-01T16:39:23Z</time></trkpt><trkpt lat="41.746373726957714" lon="12.904118906628584"><ele>283.25</ele><time>2026-05-01T16:39:24Z</time></trkpt><trkpt lat="41.746415213521985" lon="12.903976826573425"><ele>283.5</ele><time>2026-05-01T16:39:25Z</time></trkpt><trkpt lat="41.746457826941615" lon="12.903831886809192"><ele>283.75</ele><time>2026-05-01T16:39:25.999Z</time></trkpt><trkpt lat="41.74650098580541" lon="12.903684751958984"><ele>284.0</ele><time>2026-05-01T16:39:26.999Z</time></trkpt><trkpt lat="41.74654755218089" lon="12.903535090208454"><ele>284.5</ele><time>2026-05-01T16:39:27.999Z</time></trkpt><trkpt lat="41.7465957943471" lon="12.90338275989357"><ele>285.0</ele><time>2026-05-01T16:39:28.999Z</time></trkpt><trkpt lat="41.74664369804044" lon="12.903228791318588"><ele>285.5</ele><time>2026-05-01T16:39:29.999Z</time></trkpt><trkpt lat="41.74669104003967" lon="12.903076968088039"><ele>286.0</ele><time>2026-05-01T16:39:30.999Z</time></trkpt><trkpt lat="41.746737873344884" lon="12.902930588956606"><ele>286.0</ele><time>2026-05-01T16:39:31.999Z</time></trkpt><trkpt lat="41.74678157729227" lon="12.902792899882137"><ele>286.0</ele><time>2026-05-01T16:39:32.999Z</time></trkpt><trkpt lat="41.74682361332071" lon="12.902659070857107"><ele>286.0</ele><time>2026-05-01T16:39:33.999Z</time></trkpt><trkpt lat="41.74686339475557" lon="12.902533990154739"><ele>286.0</ele><time>2026-05-01T16:39:34.999Z</time></trkpt><trkpt lat="41.74690130222901" lon="12.902410427390343"><ele>286.0</ele><time>2026-05-01T16:39:35.999Z</time></trkpt><trkpt lat="41.746939647428924" lon="12.902290888755248"><ele>287.2</ele><time>2026-05-01T16:39:36.999Z</time></trkpt><trkpt lat="41.746981730147375" lon="12.902166324518832"><ele>288.40000000000003</ele><time>2026-05-01T16:39:37.999Z</time></trkpt><trkpt lat="41.74702366848768" lon="12.902036714732285"><ele>289.6</ele><time>2026-05-01T16:39:38.999Z</time></trkpt><trkpt lat="41.747061601523406" lon="12.90189978381207"><ele>290.8</ele><time>2026-05-01T16:39:39.999Z</time></trkpt><trkpt lat="41.74709209440995" lon="12.901753185409092"><ele>292.0</ele><time>2026-05-01T16:39:40.999Z</time></trkpt><trkpt lat="41.747115553705974" lon="12.901607983039922"><ele>292.0</ele><time>2026-05-01T16:39:41.999Z</time></trkpt><trkpt lat="41.747136001760346" lon="12.90145642529739"><ele>292.0</ele><time>2026-05-01T16:39:42.999Z</time></trkpt><trkpt lat="41.74715207809977" lon="12.901304370289333"><ele>292.0</ele><time>2026-05-01T16:39:43.999Z</time></trkpt><trkpt lat="41.74716687959463" lon="12.901155983748723"><ele>292.0</ele><time>2026-05-01T16:39:44.999Z</time></trkpt><trkpt lat="41.7471822950801" lon="12.901013801440238"><ele>292.0</ele><time>2026-05-01T16:39:45.999Z</time></trkpt><trkpt lat="41.747200433245595" lon="12.90087588762823"><ele>291.8</ele><time>2026-05-01T16:39:46.999Z</time></trkpt><trkpt lat="41.74721646646532" lon="12.90074398325919"><ele>291.6</ele><time>2026-05-01T16:39:47.999Z</time></trkpt><trkpt lat="41.74722940742933" lon="12.900617649799011"><ele>291.40000000000003</ele><time>2026-05-01T16:39:48.999Z</time></trkpt><trkpt lat="41.74724275919745" lon="12.900491490856645"><ele>291.2</ele><time>2026-05-01T16:39:49.999Z</time></trkpt><trkpt lat="41.74725895428005" lon="12.900368093476128"><ele>291.0</ele><time>2026-05-01T16:39:50.999Z</time></trkpt><trkpt lat="41.74727540075984" lon="12.900245140339894"><ele>291.0</ele><time>2026-05-01T16:39:51.999Z</time></trkpt><trkpt lat="41.747289055982094" lon="12.90012250897631"><ele>291.0</ele><time>2026-05-01T16:39:52.999Z</time></trkpt><trkpt lat="41.74729881832453" lon="12.89999853858143"><ele>291.0</ele><time>2026-05-01T16:39:53.999Z</time></trkpt><trkpt lat="41.74730896798479" lon="12.899875864178245"><ele>291.0</ele><time>2026-05-01T16:39:54.999Z</time></trkpt><trkpt lat="41.74732286295794" lon="12.89975115503616"><ele>291.0</ele><time>2026-05-01T16:39:55.999Z</time></trkpt><trkpt lat="41.747338383377944" lon="12.89962438476735"><ele>291.2</ele><time>2026-05-01T16:39:56.999Z</time></trkpt><trkpt lat="41.7473524749707" lon="12.899493395702212"><ele>291.40000000000003</ele><time>2026-05-01T16:39:57.999Z</time></trkpt><trkpt lat="41.7473642527635" lon="12.899356518528272"><ele>291.6</ele><time>2026-05-01T16:39:58.999Z</time></trkpt><trkpt lat="41.74737821789082" lon="12.899213127610041"><ele>291.8</ele><time>2026-05-01T16:39:59.999Z</time></trkpt><trkpt lat="41.74739419994488" lon="12.899062029855049"><ele>292.0</ele><time>2026-05-01T16:40:00.999Z</time></trkpt><trkpt lat="41.747411780726544" lon="12.89890535906376"><ele>292.0</ele><time>2026-05-01T16:40:01.999Z</time></trkpt><trkpt lat="41.74743014726586" lon="12.898745128033877"><ele>292.0</ele><time>2026-05-01T16:40:02.999Z</time></trkpt><trkpt lat="41.74744753325799" lon="12.89857831248049"><ele>292.0</ele><time>2026-05-01T16:40:03.999Z</time></trkpt><trkpt lat="41.7474614923555" lon="12.898407727193767"><ele>292.0</ele><time>2026-05-01T16:40:04.999Z</time></trkpt><trkpt lat="41.747480700435204" lon="12.898223249551037"><ele>292.5</ele><time>2026-05-01T16:40:05.999Z</time></trkpt><trkpt lat="41.747499668258264" lon="12.898037653363815"><ele>293.0</ele><time>2026-05-01T16:40:06.999Z</time></trkpt><trkpt lat="41.747521171225486" lon="12.89785191945653"><ele>293.5</ele><time>2026-05-01T16:40:07.999Z</time></trkpt><trkpt lat="41.74754429284134" lon="12.897663211703449"><ele>294.0</ele><time>2026-05-01T16:40:08.999Z</time></trkpt><trkpt lat="41.74756693614645" lon="12.897470688067424"><ele>294.0</ele><time>2026-05-01T16:40:09.999Z</time></trkpt><trkpt lat="41.7475912728787" lon="12.897276567354892"><ele>294.0</ele><time>2026-05-01T16:40:10.999Z</time></trkpt><trkpt lat="41.74761776683459" lon="12.89708193984335"><ele>294.0</ele><time>2026-05-01T16:40:11.999Z</time></trkpt><trkpt lat="41.74764688794086" lon="12.896886414193794"><ele>294.0</ele><time>2026-05-01T16:40:12.999Z</time></trkpt><trkpt lat="41.74767816885736" lon="12.896693256054776"><ele>296.5</ele><time>2026-05-01T16:40:13.999Z</time></trkpt><trkpt lat="41.74771176953958" lon="12.896499838299334"><ele>299.0</ele><time>2026-05-01T16:40:14.999Z</time></trkpt><trkpt lat="41.74774637451905" lon="12.896308165936029"><ele>301.5</ele><time>2026-05-01T16:40:15.999Z</time></trkpt><trkpt lat="41.74778305680759" lon="12.896117457662774"><ele>304.0</ele><time>2026-05-01T16:40:16.999Z</time></trkpt><trkpt lat="41.74782305373768" lon="12.89592998235671"><ele>304.0</ele><time>2026-05-01T16:40:17.999Z</time></trkpt><trkpt lat="41.74786083997428" lon="12.89574493102277"><ele>304.0</ele><time>2026-05-01T16:40:18.999Z</time></trkpt><trkpt lat="41.74789688200131" lon="12.895561799590917"><ele>304.0</ele><time>2026-05-01T16:40:19.999Z</time></trkpt><trkpt lat="41.7479330516715" lon="12.895385832248799"><ele>304.0</ele><time>2026-05-01T16:40:20.998Z</time></trkpt><trkpt lat="41.74796621073785" lon="12.895218016440607"><ele>304.8</ele><time>2026-05-01T16:40:21.998Z</time></trkpt><trkpt lat="41.747996089477475" lon="12.895065900529964"><ele>305.59999999999997</ele><time>2026-05-01T16:40:22.998Z</time></trkpt><trkpt lat="41.748023189040715" lon="12.894928237848987"><ele>306.4</ele><time>2026-05-01T16:40:23.998Z</time></trkpt><trkpt lat="41.748045731959884" lon="12.894806498731299"><ele>307.2</ele><time>2026-05-01T16:40:24.998Z</time></trkpt><trkpt lat="41.74806435295139" lon="12.894708281549619"><ele>308.0</ele><time>2026-05-01T16:40:25.998Z</time></trkpt><trkpt lat="41.74807982343784" lon="12.894622554273921"><ele>308.0</ele><time>2026-05-01T16:40:26.998Z</time></trkpt><trkpt lat="41.748106728033925" lon="12.89447933793344"><ele>308.0</ele><time>2026-05-01T16:40:28.998Z</time></trkpt><trkpt lat="41.74813441259042" lon="12.894337597764144"><ele>308.0</ele><time>2026-05-01T16:40:30.998Z</time></trkpt><trkpt lat="41.7481546139664" lon="12.894238412055909"><ele>308.0</ele><time>2026-05-01T16:40:31.998Z</time></trkpt><trkpt lat="41.74817655428178" lon="12.894119102795614"><ele>308.0</ele><time>2026-05-01T16:40:32.998Z</time></trkpt><trkpt lat="41.74820080311489" lon="12.893988542061306"><ele>308.4</ele><time>2026-05-01T16:40:33.998Z</time></trkpt><trkpt lat="41.748227657011284" lon="12.89385836426235"><ele>308.8</ele><time>2026-05-01T16:40:34.998Z</time></trkpt><trkpt lat="41.74825476334135" lon="12.893720875982405"><ele>309.2</ele><time>2026-05-01T16:40:35.998Z</time></trkpt><trkpt lat="41.7482810414257" lon="12.89357539864247"><ele>309.6</ele><time>2026-05-01T16:40:36.998Z</time></trkpt><trkpt lat="41.74830115977678" lon="12.893424440714163"><ele>310.0</ele><time>2026-05-01T16:40:37.998Z</time></trkpt><trkpt lat="41.74831999314292" lon="12.89326602290484"><ele>310.75</ele><time>2026-05-01T16:40:38.998Z</time></trkpt><trkpt lat="41.74833413342864" lon="12.893104034388626"><ele>311.5</ele><time>2026-05-01T16:40:39.998Z</time></trkpt><trkpt lat="41.7483429858324" lon="12.892945137928432"><ele>312.25</ele><time>2026-05-01T16:40:40.998Z</time></trkpt><trkpt lat="41.748345218795095" lon="12.892782082752417"><ele>313.0</ele><time>2026-05-01T16:40:41.998Z</time></trkpt><trkpt lat="41.74834252914963" lon="12.892614098923772"><ele>313.0</ele><time>2026-05-01T16:40:42.998Z</time></trkpt><trkpt lat="41.748337188589" lon="12.892442267623691"><ele>313.0</ele><time>2026-05-01T16:40:43.998Z</time></trkpt><trkpt lat="41.748328787158975" lon="12.892265895987132"><ele>313.0</ele><time>2026-05-01T16:40:44.998Z</time></trkpt><trkpt lat="41.74831864596889" lon="12.892089201124673"><ele>313.0</ele><time>2026-05-01T16:40:45.998Z</time></trkpt><trkpt lat="41.748309942367285" lon="12.891912647155031"><ele>313.25</ele><time>2026-05-01T16:40:46.998Z</time></trkpt><trkpt lat="41.74830283548106" lon="12.89173647730365"><ele>313.5</ele><time>2026-05-01T16:40:47.998Z</time></trkpt><trkpt lat="41.748295085220526" lon="12.891560910260765"><ele>313.75</ele><time>2026-05-01T16:40:48.998Z</time></trkpt><trkpt lat="41.74828690196138" lon="12.891386803472411"><ele>314.0</ele><time>2026-05-01T16:40:49.998Z</time></trkpt><trkpt lat="41.74827796562972" lon="12.89121299606114"><ele>314.0</ele><time>2026-05-01T16:40:50.998Z</time></trkpt><trkpt lat="41.74826855284002" lon="12.89104123252665"><ele>314.0</ele><time>2026-05-01T16:40:51.998Z</time></trkpt><trkpt lat="41.74826028920076" lon="12.890870212962378"><ele>314.0</ele><time>2026-05-01T16:40:52.998Z</time></trkpt><trkpt lat="41.748251714440705" lon="12.890700142338927"><ele>314.0</ele><time>2026-05-01T16:40:53.998Z</time></trkpt><trkpt lat="41.748242965386" lon="12.89053343675956"><ele>314.5</ele><time>2026-05-01T16:40:54.998Z</time></trkpt><trkpt lat="41.748234406297605" lon="12.890369576550134"><ele>315.0</ele><time>2026-05-01T16:40:55.998Z</time></trkpt><trkpt lat="41.7482246015416" lon="12.890208954481867"><ele>315.5</ele><time>2026-05-01T16:40:56.998Z</time></trkpt><trkpt lat="41.748214983431794" lon="12.890051114434776"><ele>316.0</ele><time>2026-05-01T16:40:57.998Z</time></trkpt><trkpt lat="41.74820556489718" lon="12.889895937360317"><ele>316.25</ele><time>2026-05-01T16:40:58.998Z</time></trkpt><trkpt lat="41.74819776072472" lon="12.889739167092209"><ele>316.5</ele><time>2026-05-01T16:41:00Z</time></trkpt><trkpt lat="41.748191562295375" lon="12.889582666550222"><ele>316.75</ele><time>2026-05-01T16:41:01Z</time></trkpt><trkpt lat="41.74818569139154" lon="12.889425960768904"><ele>317.0</ele><time>2026-05-01T16:41:02Z</time></trkpt><trkpt lat="41.748180532705156" lon="12.889265673761411"><ele>317.25</ele><time>2026-05-01T16:41:03Z</time></trkpt><trkpt lat="41.7481754173153" lon="12.88910375107358"><ele>317.5</ele><time>2026-05-01T16:41:04Z</time></trkpt><trkpt lat="41.74817185507662" lon="12.8889369206666"><ele>317.75</ele><time>2026-05-01T16:41:05Z</time></trkpt><trkpt lat="41.74817173319883" lon="12.888766950902781"><ele>318.0</ele><time>2026-05-01T16:41:06Z</time></trkpt><trkpt lat="41.74817537490783" lon="12.888593134525916"><ele>317.75</ele><time>2026-05-01T16:41:07Z</time></trkpt><trkpt lat="41.74818412100674" lon="12.88841285412395"><ele>317.5</ele><time>2026-05-01T16:41:08Z</time></trkpt><trkpt lat="41.74819794156839" lon="12.888233618094445"><ele>317.25</ele><time>2026-05-01T16:41:09Z</time></trkpt><trkpt lat="41.74821435626599" lon="12.888056712206556"><ele>317.0</ele><time>2026-05-01T16:41:10Z</time></trkpt><trkpt lat="41.74822761961094" lon="12.887878318430154"><ele>317.0</ele><time>2026-05-01T16:41:11Z</time></trkpt><trkpt lat="41.748240319324445" lon="12.887701064409521"><ele>317.0</ele><time>2026-05-01T16:41:12Z</time></trkpt><trkpt lat="41.748250973442836" lon="12.887523267938672"><ele>317.0</ele><time>2026-05-01T16:41:13Z</time></trkpt><trkpt lat="41.748255199681836" lon="12.887345709918037"><ele>317.0</ele><time>2026-05-01T16:41:14Z</time></trkpt><trkpt lat="41.74825673795264" lon="12.887166181048412"><ele>316.5</ele><time>2026-05-01T16:41:15Z</time></trkpt><trkpt lat="41.74825875829005" lon="12.886986723169809"><ele>316.0</ele><time>2026-05-01T16:41:16Z</time></trkpt><trkpt lat="41.748261645824044" lon="12.886808140667748"><ele>315.5</ele><time>2026-05-01T16:41:17Z</time></trkpt><trkpt lat="41.74826593572223" lon="12.886627152921431"><ele>315.0</ele><time>2026-05-01T16:41:18Z</time></trkpt><trkpt lat="41.74826903527612" lon="12.88644353136104"><ele>315.0</ele><time>2026-05-01T16:41:19Z</time></trkpt><trkpt lat="41.74826998113797" lon="12.88626055495542"><ele>315.0</ele><time>2026-05-01T16:41:20Z</time></trkpt><trkpt lat="41.74827099445334" lon="12.886083510841244"><ele>315.0</ele><time>2026-05-01T16:41:21Z</time></trkpt><trkpt lat="41.74826952413785" lon="12.885919611666042"><ele>315.0</ele><time>2026-05-01T16:41:22Z</time></trkpt><trkpt lat="41.74825964204311" lon="12.885770000261962"><ele>315.0</ele><time>2026-05-01T16:41:23Z</time></trkpt><trkpt lat="41.748251508114514" lon="12.885625606495312"><ele>315.0</ele><time>2026-05-01T16:41:24Z</time></trkpt><trkpt lat="41.74825549768656" lon="12.885485574551003"><ele>315.0</ele><time>2026-05-01T16:41:25Z</time></trkpt><trkpt lat="41.74825997683772" lon="12.885353603281875"><ele>315.0</ele><time>2026-05-01T16:41:26Z</time></trkpt><trkpt lat="41.748267085630665" lon="12.885217670724174"><ele>315.0</ele><time>2026-05-01T16:41:27Z</time></trkpt><trkpt lat="41.74827461381897" lon="12.885075243931443"><ele>315.0</ele><time>2026-05-01T16:41:28Z</time></trkpt><trkpt lat="41.74828012714983" lon="12.88492400476506"><ele>315.0</ele><time>2026-05-01T16:41:29Z</time></trkpt><trkpt lat="41.748282957426674" lon="12.884763965261248"><ele>315.0</ele><time>2026-05-01T16:41:30Z</time></trkpt><trkpt lat="41.74828777567185" lon="12.88459785996969"><ele>315.0</ele><time>2026-05-01T16:41:31Z</time></trkpt><trkpt lat="41.74829907493076" lon="12.884426264575346"><ele>316.0</ele><time>2026-05-01T16:41:31.999Z</time></trkpt><trkpt lat="41.7483190101195" lon="12.884251810320473"><ele>317.0</ele><time>2026-05-01T16:41:32.999Z</time></trkpt><trkpt lat="41.74835005292437" lon="12.884073416487233"><ele>318.0</ele><time>2026-05-01T16:41:33.999Z</time></trkpt><trkpt lat="41.74838857530832" lon="12.883891864366735"><ele>319.0</ele><time>2026-05-01T16:41:34.999Z</time></trkpt><trkpt lat="41.74843006205756" lon="12.883709288426209"><ele>319.0</ele><time>2026-05-01T16:41:35.999Z</time></trkpt><trkpt lat="41.74847404359246" lon="12.883529698056554"><ele>319.0</ele><time>2026-05-01T16:41:36.999Z</time></trkpt><trkpt lat="41.74851968750075" lon="12.88334660623522"><ele>319.0</ele><time>2026-05-01T16:41:37.999Z</time></trkpt><trkpt lat="41.748570752455706" lon="12.883161597316578"><ele>319.0</ele><time>2026-05-01T16:41:38.999Z</time></trkpt><trkpt lat="41.74862302676821" lon="12.882975205312741"><ele>319.25</ele><time>2026-05-01T16:41:39.999Z</time></trkpt><trkpt lat="41.74867347398164" lon="12.88278996108241"><ele>319.5</ele><time>2026-05-01T16:41:40.999Z</time></trkpt><trkpt lat="41.74872261663861" lon="12.882602965514549"><ele>319.75</ele><time>2026-05-01T16:41:41.999Z</time></trkpt><trkpt lat="41.74877131514286" lon="12.882416800138417"><ele>320.0</ele><time>2026-05-01T16:41:42.999Z</time></trkpt><trkpt lat="41.74881398744992" lon="12.882222274415891"><ele>320.0</ele><time>2026-05-01T16:41:43.999Z</time></trkpt><trkpt lat="41.74884892421161" lon="12.882022882648494"><ele>320.0</ele><time>2026-05-01T16:41:44.999Z</time></trkpt><trkpt lat="41.74887285041854" lon="12.88181544985433"><ele>320.0</ele><time>2026-05-01T16:41:45.999Z</time></trkpt><trkpt lat="41.748889602096206" lon="12.881602944673048"><ele>319.6666666666667</ele><time>2026-05-01T16:41:46.999Z</time></trkpt><trkpt lat="41.748899178546765" lon="12.881386626844371"><ele>319.3333333333333</ele><time>2026-05-01T16:41:47.999Z</time></trkpt><trkpt lat="41.74890053385053" lon="12.881166333475802"><ele>319.0</ele><time>2026-05-01T16:41:48.999Z</time></trkpt><trkpt lat="41.74889582933275" lon="12.880942376585375"><ele>317.66666666666663</ele><time>2026-05-01T16:41:49.999Z</time></trkpt><trkpt lat="41.74889554522104" lon="12.880721174833669"><ele>316.3333333333333</ele><time>2026-05-01T16:41:50.999Z</time></trkpt><trkpt lat="41.74889988712834" lon="12.880502498320343"><ele>315.0</ele><time>2026-05-01T16:41:51.999Z</time></trkpt><trkpt lat="41.74890533251635" lon="12.880285301761141"><ele>314.0</ele><time>2026-05-01T16:41:52.999Z</time></trkpt><trkpt lat="41.74890851736073" lon="12.880068231333155"><ele>313.0</ele><time>2026-05-01T16:41:53.999Z</time></trkpt><trkpt lat="41.748908098480484" lon="12.879845293909469"><ele>312.0</ele><time>2026-05-01T16:41:54.999Z</time></trkpt><trkpt lat="41.74890224879212" lon="12.879615950365531"><ele>312.0</ele><time>2026-05-01T16:41:55.999Z</time></trkpt><trkpt lat="41.748884926165054" lon="12.879381318810703"><ele>312.0</ele><time>2026-05-01T16:41:56.999Z</time></trkpt><trkpt lat="41.74885842644176" lon="12.879143013437467"><ele>312.0</ele><time>2026-05-01T16:41:57.999Z</time></trkpt><trkpt lat="41.74882496720111" lon="12.878905994658046"><ele>311.0</ele><time>2026-05-01T16:41:58.999Z</time></trkpt><trkpt lat="41.748791038297306" lon="12.87866950080552"><ele>310.0</ele><time>2026-05-01T16:41:59.999Z</time></trkpt><trkpt lat="41.74875687211474" lon="12.878440208504363"><ele>309.0</ele><time>2026-05-01T16:42:00.999Z</time></trkpt><trkpt lat="41.74872333319175" lon="12.878216627821173"><ele>308.0</ele><time>2026-05-01T16:42:01.999Z</time></trkpt><trkpt lat="41.7486905638763" lon="12.877999768941121"><ele>307.0</ele><time>2026-05-01T16:42:02.999Z</time></trkpt><trkpt lat="41.74865524903892" lon="12.877789853093532"><ele>306.0</ele><time>2026-05-01T16:42:03.999Z</time></trkpt><trkpt lat="41.74862256951856" lon="12.877584552579993"><ele>305.3333333333333</ele><time>2026-05-01T16:42:04.999Z</time></trkpt><trkpt lat="41.74859181641308" lon="12.877381082843073"><ele>304.66666666666663</ele><time>2026-05-01T16:42:05.999Z</time></trkpt><trkpt lat="41.74855941198932" lon="12.877181967583944"><ele>304.0</ele><time>2026-05-01T16:42:06.999Z</time></trkpt><trkpt lat="41.74852680644898" lon="12.876986807918943"><ele>304.0</ele><time>2026-05-01T16:42:07.999Z</time></trkpt><trkpt lat="41.74849755500683" lon="12.876795097357943"><ele>304.0</ele><time>2026-05-01T16:42:08.999Z</time></trkpt><trkpt lat="41.74846900852573" lon="12.87660128502765"><ele>304.0</ele><time>2026-05-01T16:42:09.999Z</time></trkpt><trkpt lat="41.7484377994154" lon="12.876406689586517"><ele>304.0</ele><time>2026-05-01T16:42:10.999Z</time></trkpt><trkpt lat="41.748405694890856" lon="12.876212170300949"><ele>304.25</ele><time>2026-05-01T16:42:11.999Z</time></trkpt><trkpt lat="41.74837453710155" lon="12.876018257137119"><ele>304.5</ele><time>2026-05-01T16:42:12.999Z</time></trkpt><trkpt lat="41.7483460934297" lon="12.875821266241914"><ele>304.75</ele><time>2026-05-01T16:42:13.999Z</time></trkpt><trkpt lat="41.74831739620157" lon="12.875624155615817"><ele>305.0</ele><time>2026-05-01T16:42:14.999Z</time></trkpt><trkpt lat="41.74828885488518" lon="12.875429831802522"><ele>305.0</ele><time>2026-05-01T16:42:15.999Z</time></trkpt><trkpt lat="41.748259240360504" lon="12.875239868199126"><ele>305.0</ele><time>2026-05-01T16:42:16.999Z</time></trkpt><trkpt lat="41.748231444605814" lon="12.87505005607033"><ele>305.0</ele><time>2026-05-01T16:42:17.999Z</time></trkpt><trkpt lat="41.748210772110895" lon="12.874860683518994"><ele>305.0</ele><time>2026-05-01T16:42:18.999Z</time></trkpt><trkpt lat="41.74820100661754" lon="12.874668678310226"><ele>305.25</ele><time>2026-05-01T16:42:19.999Z</time></trkpt><trkpt lat="41.7481998244915" lon="12.874475652815953"><ele>305.5</ele><time>2026-05-01T16:42:20.999Z</time></trkpt><trkpt lat="41.748211562751564" lon="12.874283313997351"><ele>305.75</ele><time>2026-05-01T16:42:21.999Z</time></trkpt><trkpt lat="41.74822821137174" lon="12.87410029662817"><ele>306.0</ele><time>2026-05-01T16:42:22.999Z</time></trkpt><trkpt lat="41.74826398614985" lon="12.873919320036478"><ele>306.25</ele><time>2026-05-01T16:42:23.999Z</time></trkpt><trkpt lat="41.74831049244013" lon="12.87373716668734"><ele>306.5</ele><time>2026-05-01T16:42:24.999Z</time></trkpt><trkpt lat="41.7483655777732" lon="12.873553920144085"><ele>306.75</ele><time>2026-05-01T16:42:25.998Z</time></trkpt><trkpt lat="41.748425180891715" lon="12.873377333979791"><ele>307.0</ele><time>2026-05-01T16:42:26.998Z</time></trkpt><trkpt lat="41.74848613956892" lon="12.873200065619647"><ele>309.75</ele><time>2026-05-01T16:42:27.998Z</time></trkpt><trkpt lat="41.74854817040197" lon="12.873023200068348"><ele>312.5</ele><time>2026-05-01T16:42:28.998Z</time></trkpt><trkpt lat="41.74861251982187" lon="12.87284098847476"><ele>315.25</ele><time>2026-05-01T16:42:29.998Z</time></trkpt><trkpt lat="41.74867887846287" lon="12.872661472812306"><ele>318.0</ele><time>2026-05-01T16:42:30.998Z</time></trkpt><trkpt lat="41.74874866093901" lon="12.872491755767728"><ele>318.0</ele><time>2026-05-01T16:42:31.998Z</time></trkpt><trkpt lat="41.7488224807729" lon="12.872332639494056"><ele>318.0</ele><time>2026-05-01T16:42:32.998Z</time></trkpt><trkpt lat="41.74889943520771" lon="12.872171760159494"><ele>318.0</ele><time>2026-05-01T16:42:33.998Z</time></trkpt><trkpt lat="41.74898194932951" lon="12.872012912676963"><ele>318.0</ele><time>2026-05-01T16:42:34.998Z</time></trkpt><trkpt lat="41.74907411469707" lon="12.871857677272354"><ele>317.75</ele><time>2026-05-01T16:42:35.998Z</time></trkpt><trkpt lat="41.749171032678824" lon="12.871712578691778"><ele>317.5</ele><time>2026-05-01T16:42:36.998Z</time></trkpt><trkpt lat="41.74926905765116" lon="12.871577290055496"><ele>317.25</ele><time>2026-05-01T16:42:37.998Z</time></trkpt><trkpt lat="41.74935918325041" lon="12.871442889051837"><ele>317.0</ele><time>2026-05-01T16:42:38.998Z</time></trkpt><trkpt lat="41.749436378969705" lon="12.87130745688794"><ele>317.0</ele><time>2026-05-01T16:42:39.998Z</time></trkpt><trkpt lat="41.7495066689697" lon="12.871191401916214"><ele>317.0</ele><time>2026-05-01T16:42:40.998Z</time></trkpt><trkpt lat="41.749583582686384" lon="12.87108525450334"><ele>317.0</ele><time>2026-05-01T16:42:41.998Z</time></trkpt><trkpt lat="41.74966371131786" lon="12.87097997547385"><ele>317.0</ele><time>2026-05-01T16:42:42.998Z</time></trkpt><trkpt lat="41.74974417288655" lon="12.870870478425017"><ele>317.0</ele><time>2026-05-01T16:42:43.998Z</time></trkpt><trkpt lat="41.74982648137267" lon="12.870754351788356"><ele>316.5</ele><time>2026-05-01T16:42:44.998Z</time></trkpt><trkpt lat="41.74990944674799" lon="12.87063132164294"><ele>316.0</ele><time>2026-05-01T16:42:45.998Z</time></trkpt><trkpt lat="41.749994876426165" lon="12.870505856987348"><ele>315.5</ele><time>2026-05-01T16:42:46.998Z</time></trkpt><trkpt lat="41.7500837684528" lon="12.870377880688002"><ele>315.0</ele><time>2026-05-01T16:42:47.998Z</time></trkpt><trkpt lat="41.75017376194546" lon="12.870244990744922"><ele>316.75</ele><time>2026-05-01T16:42:48.998Z</time></trkpt><trkpt lat="41.75026734739152" lon="12.870111532520813"><ele>318.5</ele><time>2026-05-01T16:42:49.998Z</time></trkpt><trkpt lat="41.75036272983312" lon="12.869972789799075"><ele>320.25</ele><time>2026-05-01T16:42:50.998Z</time></trkpt><trkpt lat="41.75046069463595" lon="12.869830399274585"><ele>322.0</ele><time>2026-05-01T16:42:51.998Z</time></trkpt><trkpt lat="41.75056112894673" lon="12.869686051420897"><ele>322.0</ele><time>2026-05-01T16:42:52.998Z</time></trkpt><trkpt lat="41.750662778300004" lon="12.86953905987411"><ele>322.0</ele><time>2026-05-01T16:42:53.998Z</time></trkpt><trkpt lat="41.750765974953595" lon="12.869389140924351"><ele>322.0</ele><time>2026-05-01T16:42:54.998Z</time></trkpt><trkpt lat="41.750873087833384" lon="12.869238689124565"><ele>321.66666666666663</ele><time>2026-05-01T16:42:55.998Z</time></trkpt><trkpt lat="41.75097894047338" lon="12.869090604990046"><ele>321.3333333333333</ele><time>2026-05-01T16:42:56.998Z</time></trkpt><trkpt lat="41.75108193026738" lon="12.868941689414935"><ele>321.0</ele><time>2026-05-01T16:42:57.998Z</time></trkpt><trkpt lat="41.751180555819765" lon="12.868795479370588"><ele>322.25</ele><time>2026-05-01T16:42:58.998Z</time></trkpt><trkpt lat="41.75127388478185" lon="12.868650741810171"><ele>323.5</ele><time>2026-05-01T16:42:59.998Z</time></trkpt><trkpt lat="41.7513639618753" lon="12.86851143444639"><ele>324.75</ele><time>2026-05-01T16:43:00.998Z</time></trkpt><trkpt lat="41.751453028386486" lon="12.868379046512574"><ele>326.0</ele><time>2026-05-01T16:43:01.998Z</time></trkpt><trkpt lat="41.751540122752495" lon="12.868255010661638"><ele>326.0</ele><time>2026-05-01T16:43:02.998Z</time></trkpt><trkpt lat="41.75161327940083" lon="12.86812955562172"><ele>326.0</ele><time>2026-05-01T16:43:03.998Z</time></trkpt><trkpt lat="41.75166092127672" lon="12.86799810294301"><ele>326.0</ele><time>2026-05-01T16:43:04.998Z</time></trkpt><trkpt lat="41.75167664449203" lon="12.867864396119568"><ele>326.0</ele><time>2026-05-01T16:43:06Z</time></trkpt><trkpt lat="41.75166304765867" lon="12.867745143067893"><ele>326.0</ele><time>2026-05-01T16:43:07Z</time></trkpt><trkpt lat="41.75163294189661" lon="12.867634091801701"><ele>326.5</ele><time>2026-05-01T16:43:08Z</time></trkpt><trkpt lat="41.751590359045274" lon="12.867532233814414"><ele>327.0</ele><time>2026-05-01T16:43:09Z</time></trkpt><trkpt lat="41.75154884133379" lon="12.867442122912932"><ele>327.5</ele><time>2026-05-01T16:43:10Z</time></trkpt><trkpt lat="41.75150668008997" lon="12.867347624284843"><ele>328.0</ele><time>2026-05-01T16:43:11Z</time></trkpt><trkpt lat="41.75145634344801" lon="12.867253416779233"><ele>328.5</ele><time>2026-05-01T16:43:12Z</time></trkpt><trkpt lat="41.751400228275955" lon="12.867157539475874"><ele>329.0</ele><time>2026-05-01T16:43:13Z</time></trkpt><trkpt lat="41.75134207667139" lon="12.867054428215344"><ele>329.0</ele><time>2026-05-01T16:43:14Z</time></trkpt><trkpt lat="41.75128260052546" lon="12.866950490323337"><ele>329.0</ele><time>2026-05-01T16:43:15Z</time></trkpt><trkpt lat="41.75122038390659" lon="12.866846460361172"><ele>329.0</ele><time>2026-05-01T16:43:16Z</time></trkpt><trkpt lat="41.751156951294234" lon="12.866750783688762"><ele>329.0</ele><time>2026-05-01T16:43:17Z</time></trkpt><trkpt lat="41.751095914457885" lon="12.866660977901775"><ele>329.0</ele><time>2026-05-01T16:43:18Z</time></trkpt><trkpt lat="41.75103694161235" lon="12.86657449767641"><ele>329.83333333333337</ele><time>2026-05-01T16:43:19Z</time></trkpt><trkpt lat="41.75097819100421" lon="12.86649461701471"><ele>330.6666666666667</ele><time>2026-05-01T16:43:20Z</time></trkpt><trkpt lat="41.750921191295305" lon="12.866415095798935"><ele>331.5</ele><time>2026-05-01T16:43:21Z</time></trkpt><trkpt lat="41.75086608873204" lon="12.866334897100645"><ele>332.3333333333333</ele><time>2026-05-01T16:43:22Z</time></trkpt><trkpt lat="41.75080540279508" lon="12.866239933702959"><ele>333.16666666666663</ele><time>2026-05-01T16:43:23Z</time></trkpt><trkpt lat="41.750737870036566" lon="12.866136937789248"><ele>334.0</ele><time>2026-05-01T16:43:24Z</time></trkpt><trkpt lat="41.75066796698558" lon="12.866032701786883"><ele>334.5</ele><time>2026-05-01T16:43:25Z</time></trkpt><trkpt lat="41.7505952404033" lon="12.865920463058561"><ele>335.0</ele><time>2026-05-01T16:43:26Z</time></trkpt><trkpt lat="41.75051744989624" lon="12.865795396792306"><ele>335.5</ele><time>2026-05-01T16:43:27Z</time></trkpt><trkpt lat="41.75043507148973" lon="12.865665258441798"><ele>336.0</ele><time>2026-05-01T16:43:28Z</time></trkpt><trkpt lat="41.75034593749282" lon="12.865533218774335"><ele>336.0</ele><time>2026-05-01T16:43:29Z</time></trkpt><trkpt lat="41.75025683983814" lon="12.865395815151004"><ele>336.0</ele><time>2026-05-01T16:43:30Z</time></trkpt><trkpt lat="41.7501627422421" lon="12.865254509074878"><ele>336.0</ele><time>2026-05-01T16:43:31Z</time></trkpt><trkpt lat="41.750066666136185" lon="12.865105681877152"><ele>336.0</ele><time>2026-05-01T16:43:32Z</time></trkpt><trkpt lat="41.74996800793062" lon="12.864949451981913"><ele>334.6666666666667</ele><time>2026-05-01T16:43:33Z</time></trkpt><trkpt lat="41.74985560682014" lon="12.86477489161236"><ele>333.33333333333337</ele><time>2026-05-01T16:43:34Z</time></trkpt><trkpt lat="41.74972174986754" lon="12.864596662242159"><ele>332.0</ele><time>2026-05-01T16:43:35Z</time></trkpt><trkpt lat="41.749600467517425" lon="12.864382993160177"><ele>332.0</ele><time>2026-05-01T16:43:36Z</time></trkpt><trkpt lat="41.74947611835" lon="12.864185537152903"><ele>332.0</ele><time>2026-05-01T16:43:37Z</time></trkpt><trkpt lat="41.74935920867218" lon="12.863999895340534"><ele>332.0</ele><time>2026-05-01T16:43:38Z</time></trkpt><trkpt lat="41.74924765621824" lon="12.863822760317342"><ele>329.6666666666667</ele><time>2026-05-01T16:43:38.999Z</time></trkpt><trkpt lat="41.749144108201754" lon="12.863656595404498"><ele>327.3333333333333</ele><time>2026-05-01T16:43:39.999Z</time></trkpt><trkpt lat="41.74904213873639" lon="12.863490151966268"><ele>325.0</ele><time>2026-05-01T16:43:40.999Z</time></trkpt><trkpt lat="41.74892619944865" lon="12.863329005947882"><ele>324.66666666666663</ele><time>2026-05-01T16:43:41.999Z</time></trkpt><trkpt lat="41.74881537070279" lon="12.863138585442695"><ele>324.3333333333333</ele><time>2026-05-01T16:43:42.999Z</time></trkpt><trkpt lat="41.748704289538686" lon="12.862917180903654"><ele>324.0</ele><time>2026-05-01T16:43:43.999Z</time></trkpt><trkpt lat="41.74857381422196" lon="12.862691031959947"><ele>323.6666666666667</ele><time>2026-05-01T16:43:44.999Z</time></trkpt><trkpt lat="41.74844055391029" lon="12.862460254918949"><ele>323.33333333333337</ele><time>2026-05-01T16:43:45.999Z</time></trkpt><trkpt lat="41.7483109796722" lon="12.862231781949783"><ele>323.0</ele><time>2026-05-01T16:43:46.999Z</time></trkpt><trkpt lat="41.74817752656831" lon="12.862023754474144"><ele>323.0</ele><time>2026-05-01T16:43:47.999Z</time></trkpt><trkpt lat="41.748058795664335" lon="12.8618146547385"><ele>323.0</ele><time>2026-05-01T16:43:48.999Z</time></trkpt><trkpt lat="41.747945929860954" lon="12.861616958900063"><ele>323.0</ele><time>2026-05-01T16:43:49.999Z</time></trkpt><trkpt lat="41.74783059790739" lon="12.861427949628732"><ele>322.0</ele><time>2026-05-01T16:43:50.999Z</time></trkpt><trkpt lat="41.747715235134514" lon="12.861248616224584"><ele>321.0</ele><time>2026-05-01T16:43:51.999Z</time></trkpt><trkpt lat="41.74760886371501" lon="12.861061470459482"><ele>320.0</ele><time>2026-05-01T16:43:52.999Z</time></trkpt><trkpt lat="41.74747520767117" lon="12.860868301827985"><ele>318.0</ele><time>2026-05-01T16:43:53.999Z</time></trkpt><trkpt lat="41.747335785908575" lon="12.86067302660869"><ele>316.0</ele><time>2026-05-01T16:43:54.999Z</time></trkpt><trkpt lat="41.747194998005625" lon="12.860477898956143"><ele>314.0</ele><time>2026-05-01T16:43:55.999Z</time></trkpt><trkpt lat="41.74705624099898" lon="12.860282485262472"><ele>314.6666666666667</ele><time>2026-05-01T16:43:56.999Z</time></trkpt><trkpt lat="41.746921982197115" lon="12.860093406444198"><ele>315.3333333333333</ele><time>2026-05-01T16:43:57.999Z</time></trkpt><trkpt lat="41.74678998956814" lon="12.859908164185974"><ele>316.0</ele><time>2026-05-01T16:43:58.999Z</time></trkpt><trkpt lat="41.74666105247385" lon="12.859726130524965"><ele>312.3333333333333</ele><time>2026-05-01T16:43:59.999Z</time></trkpt><trkpt lat="41.746524854905346" lon="12.859564506821142"><ele>308.6666666666667</ele><time>2026-05-01T16:44:00.999Z</time></trkpt><trkpt lat="41.74641042272606" lon="12.859397730342295"><ele>305.0</ele><time>2026-05-01T16:44:01.999Z</time></trkpt><trkpt lat="41.746303359432204" lon="12.85924865598908"><ele>303.5</ele><time>2026-05-01T16:44:02.999Z</time></trkpt><trkpt lat="41.74621974254775" lon="12.85909526591814"><ele>302.0</ele><time>2026-05-01T16:44:03.999Z</time></trkpt><trkpt lat="41.7461304910424" lon="12.858964333980717"><ele>300.5</ele><time>2026-05-01T16:44:04.999Z</time></trkpt><trkpt lat="41.746050555847646" lon="12.858847069066492"><ele>299.0</ele><time>2026-05-01T16:44:05.999Z</time></trkpt><trkpt lat="41.745977319157284" lon="12.858739630857167"><ele>297.75</ele><time>2026-05-01T16:44:06.999Z</time></trkpt><trkpt lat="41.745904518655394" lon="12.858632832539122"><ele>296.5</ele><time>2026-05-01T16:44:07.999Z</time></trkpt><trkpt lat="41.74583129715228" lon="12.858525885193565"><ele>295.25</ele><time>2026-05-01T16:44:08.999Z</time></trkpt><trkpt lat="41.745749276029166" lon="12.858407073166529"><ele>294.0</ele><time>2026-05-01T16:44:09.999Z</time></trkpt><trkpt lat="41.745662322895214" lon="12.85828111685545"><ele>293.5</ele><time>2026-05-01T16:44:10.999Z</time></trkpt><trkpt lat="41.745572081719686" lon="12.858150397639747"><ele>293.0</ele><time>2026-05-01T16:44:11.999Z</time></trkpt><trkpt lat="41.74548478294071" lon="12.858023940644122"><ele>292.5</ele><time>2026-05-01T16:44:12.999Z</time></trkpt><trkpt lat="41.745397198895084" lon="12.857897070424148"><ele>292.0</ele><time>2026-05-01T16:44:13.999Z</time></trkpt><trkpt lat="41.745309078312275" lon="12.857769736779979"><ele>292.3333333333333</ele><time>2026-05-01T16:44:14.999Z</time></trkpt><trkpt lat="41.74521087522807" lon="12.857628246120328"><ele>292.6666666666667</ele><time>2026-05-01T16:44:15.999Z</time></trkpt><trkpt lat="41.745104589877585" lon="12.85747531284164"><ele>293.0</ele><time>2026-05-01T16:44:16.999Z</time></trkpt><trkpt lat="41.74498922192253" lon="12.85730931066785"><ele>294.6666666666667</ele><time>2026-05-01T16:44:17.999Z</time></trkpt><trkpt lat="41.7448693438506" lon="12.857136818914933"><ele>296.3333333333333</ele><time>2026-05-01T16:44:18.999Z</time></trkpt><trkpt lat="41.74474666838016" lon="12.856960189279539"><ele>298.0</ele><time>2026-05-01T16:44:19.999Z</time></trkpt><trkpt lat="41.74462154149382" lon="12.856779502452005"><ele>302.66666666666663</ele><time>2026-05-01T16:44:20.999Z</time></trkpt><trkpt lat="41.74449496897292" lon="12.856596728090176"><ele>307.3333333333333</ele><time>2026-05-01T16:44:21.999Z</time></trkpt><trkpt lat="41.744374827161515" lon="12.856423239871633"><ele>312.0</ele><time>2026-05-01T16:44:22.999Z</time></trkpt><trkpt lat="41.74425122644974" lon="12.856245654797519"><ele>312.0</ele><time>2026-05-01T16:44:23.999Z</time></trkpt><trkpt lat="41.7441244793522" lon="12.856063423712392"><ele>312.0</ele><time>2026-05-01T16:44:24.999Z</time></trkpt><trkpt lat="41.7439983335786" lon="12.855882057181793"><ele>312.0</ele><time>2026-05-01T16:44:25.999Z</time></trkpt><trkpt lat="41.74386976948557" lon="12.855697634094772"><ele>312.3333333333333</ele><time>2026-05-01T16:44:26.999Z</time></trkpt><trkpt lat="41.74372757813205" lon="12.855529247326398"><ele>312.66666666666663</ele><time>2026-05-01T16:44:27.999Z</time></trkpt><trkpt lat="41.7435994171621" lon="12.855339155807126"><ele>313.0</ele><time>2026-05-01T16:44:28.999Z</time></trkpt><trkpt lat="41.7434717633595" lon="12.855150739582566"><ele>312.66666666666663</ele><time>2026-05-01T16:44:29.999Z</time></trkpt><trkpt lat="41.74334127528878" lon="12.85496682619243"><ele>312.3333333333333</ele><time>2026-05-01T16:44:30.999Z</time></trkpt><trkpt lat="41.74320082005351" lon="12.854790986993798"><ele>312.0</ele><time>2026-05-01T16:44:31.999Z</time></trkpt><trkpt lat="41.74308509681194" lon="12.854575843183087"><ele>312.0</ele><time>2026-05-01T16:44:32.999Z</time></trkpt><trkpt lat="41.74294650232149" lon="12.854378879450902"><ele>312.0</ele><time>2026-05-01T16:44:33.998Z</time></trkpt><trkpt lat="41.74280547614768" lon="12.854178454122449"><ele>312.0</ele><time>2026-05-01T16:44:34.998Z</time></trkpt><trkpt lat="41.742663413567904" lon="12.853976536170823"><ele>310.3333333333333</ele><time>2026-05-01T16:44:35.998Z</time></trkpt><trkpt lat="41.74252689879528" lon="12.853782207243462"><ele>308.66666666666663</ele><time>2026-05-01T16:44:36.998Z</time></trkpt><trkpt lat="41.74238954009513" lon="12.8535866769854"><ele>307.0</ele><time>2026-05-01T16:44:37.998Z</time></trkpt><trkpt lat="41.74224038292815" lon="12.853414412286666"><ele>306.0</ele><time>2026-05-01T16:44:38.998Z</time></trkpt><trkpt lat="41.74210895129308" lon="12.853223726094951"><ele>305.0</ele><time>2026-05-01T16:44:39.998Z</time></trkpt><trkpt lat="41.74197976810306" lon="12.85303961594264"><ele>304.0</ele><time>2026-05-01T16:44:40.998Z</time></trkpt><trkpt lat="41.74184842415783" lon="12.852856308934301"><ele>301.66666666666663</ele><time>2026-05-01T16:44:41.998Z</time></trkpt><trkpt lat="41.74173461798645" lon="12.85265447155171"><ele>299.3333333333333</ele><time>2026-05-01T16:44:42.998Z</time></trkpt><trkpt lat="41.74160700692328" lon="12.852472493435874"><ele>297.0</ele><time>2026-05-01T16:44:43.998Z</time></trkpt><trkpt lat="41.74146988497306" lon="12.852297980347243"><ele>294.6666666666667</ele><time>2026-05-01T16:44:44.998Z</time></trkpt><trkpt lat="41.74134492516286" lon="12.852117692492413"><ele>292.33333333333337</ele><time>2026-05-01T16:44:45.998Z</time></trkpt><trkpt lat="41.741217706989836" lon="12.851940040117139"><ele>290.0</ele><time>2026-05-01T16:44:46.998Z</time></trkpt><trkpt lat="41.74109229120019" lon="12.851766981437821"><ele>288.33333333333337</ele><time>2026-05-01T16:44:47.998Z</time></trkpt><trkpt lat="41.74096942187135" lon="12.85158986204598"><ele>286.6666666666667</ele><time>2026-05-01T16:44:48.998Z</time></trkpt><trkpt lat="41.74084994586586" lon="12.851411077134005"><ele>285.0</ele><time>2026-05-01T16:44:49.998Z</time></trkpt><trkpt lat="41.74073485113662" lon="12.851242660727042"><ele>285.0</ele><time>2026-05-01T16:44:50.998Z</time></trkpt><trkpt lat="41.74062811243002" lon="12.85108727509241"><ele>285.0</ele><time>2026-05-01T16:44:51.998Z</time></trkpt><trkpt lat="41.740531296744386" lon="12.850944779107204"><ele>285.0</ele><time>2026-05-01T16:44:52.998Z</time></trkpt><trkpt lat="41.7404418881815" lon="12.850813554309616"><ele>285.0</ele><time>2026-05-01T16:44:53.998Z</time></trkpt><trkpt lat="41.7403583963345" lon="12.850694251334385"><ele>285.3333333333333</ele><time>2026-05-01T16:44:54.998Z</time></trkpt><trkpt lat="41.7402805921825" lon="12.850586596237164"><ele>285.6666666666667</ele><time>2026-05-01T16:44:55.998Z</time></trkpt><trkpt lat="41.74021186170664" lon="12.850491322130997"><ele>286.0</ele><time>2026-05-01T16:44:56.998Z</time></trkpt><trkpt lat="41.740151279344126" lon="12.850405576968821"><ele>286.33333333333337</ele><time>2026-05-01T16:44:57.998Z</time></trkpt><trkpt lat="41.74009863052957" lon="12.850334219135235"><ele>286.6666666666667</ele><time>2026-05-01T16:44:58.998Z</time></trkpt><trkpt lat="41.74006574126255" lon="12.850257965724829"><ele>287.0</ele><time>2026-05-01T16:44:59.998Z</time></trkpt><trkpt lat="41.74000985549618" lon="12.850178226616013"><ele>286.2</ele><time>2026-05-01T16:45:01.998Z</time></trkpt><trkpt lat="41.739935717820345" lon="12.850076612352456"><ele>285.4</ele><time>2026-05-01T16:45:03.998Z</time></trkpt><trkpt lat="41.7398773133862" lon="12.849996614729902"><ele>284.6</ele><time>2026-05-01T16:45:04.998Z</time></trkpt><trkpt lat="41.73979953947749" lon="12.849913114818749"><ele>283.8</ele><time>2026-05-01T16:45:05.998Z</time></trkpt><trkpt lat="41.739726409573095" lon="12.84980344371905"><ele>283.0</ele><time>2026-05-01T16:45:06.998Z</time></trkpt><trkpt lat="41.73963763972971" lon="12.849666327060705"><ele>283.0</ele><time>2026-05-01T16:45:07.998Z</time></trkpt><trkpt lat="41.739530223771" lon="12.849533616443928"><ele>283.0</ele><time>2026-05-01T16:45:08.998Z</time></trkpt><trkpt lat="41.73940917159493" lon="12.849392800098807"><ele>283.0</ele><time>2026-05-01T16:45:09.998Z</time></trkpt><trkpt lat="41.73928214053687" lon="12.849252627940233"><ele>281.66666666666663</ele><time>2026-05-01T16:45:10.998Z</time></trkpt><trkpt lat="41.73914068611356" lon="12.849118436690341"><ele>280.3333333333333</ele><time>2026-05-01T16:45:12Z</time></trkpt><trkpt lat="41.738987593972986" lon="12.848987932766262"><ele>279.0</ele><time>2026-05-01T16:45:13Z</time></trkpt><trkpt lat="41.73883599237836" lon="12.848857082187415"><ele>279.0</ele><time>2026-05-01T16:45:14Z</time></trkpt><trkpt lat="41.73868567393081" lon="12.848723736334586"><ele>279.0</ele><time>2026-05-01T16:45:15Z</time></trkpt><trkpt lat="41.738535284193865" lon="12.848588043935079"><ele>279.0</ele><time>2026-05-01T16:45:16Z</time></trkpt><trkpt lat="41.73838129957286" lon="12.84845458526382"><ele>279.6666666666667</ele><time>2026-05-01T16:45:17Z</time></trkpt><trkpt lat="41.73822875158766" lon="12.848326731367154"><ele>280.33333333333337</ele><time>2026-05-01T16:45:18Z</time></trkpt><trkpt lat="41.738080464773994" lon="12.84820006051769"><ele>281.0</ele><time>2026-05-01T16:45:19Z</time></trkpt><trkpt lat="41.73793270034946" lon="12.848074226475942"><ele>281.0</ele><time>2026-05-01T16:45:20Z</time></trkpt><trkpt lat="41.73778857821343" lon="12.847950316001018"><ele>281.0</ele><time>2026-05-01T16:45:21Z</time></trkpt><trkpt lat="41.7376456739284" lon="12.847827819918697"><ele>281.0</ele><time>2026-05-01T16:45:22Z</time></trkpt><trkpt lat="41.737505051797136" lon="12.847703299029398"><ele>280.33333333333337</ele><time>2026-05-01T16:45:23Z</time></trkpt><trkpt lat="41.73736369863388" lon="12.847578799395707"><ele>279.6666666666667</ele><time>2026-05-01T16:45:24Z</time></trkpt><trkpt lat="41.737222048029125" lon="12.847453211293773"><ele>279.0</ele><time>2026-05-01T16:45:25Z</time></trkpt><trkpt lat="41.73707735684083" lon="12.84732946883148"><ele>279.0</ele><time>2026-05-01T16:45:26Z</time></trkpt><trkpt lat="41.736933317075646" lon="12.847205294183896"><ele>279.0</ele><time>2026-05-01T16:45:27Z</time></trkpt><trkpt lat="41.73678817006412" lon="12.847079219418276"><ele>279.0</ele><time>2026-05-01T16:45:28Z</time></trkpt><trkpt lat="41.736641781772896" lon="12.846950472833573"><ele>279.3333333333333</ele><time>2026-05-01T16:45:29Z</time></trkpt><trkpt lat="41.736494364085296" lon="12.846820397131378"><ele>279.66666666666663</ele><time>2026-05-01T16:45:30Z</time></trkpt><trkpt lat="41.736341788250925" lon="12.846691174370243"><ele>280.0</ele><time>2026-05-01T16:45:31Z</time></trkpt><trkpt lat="41.73618740207068" lon="12.846560251652884"><ele>281.0</ele><time>2026-05-01T16:45:32Z</time></trkpt><trkpt lat="41.73603158997553" lon="12.846427977082774"><ele>282.0</ele><time>2026-05-01T16:45:33Z</time></trkpt><trkpt lat="41.735873779770984" lon="12.846295876495846"><ele>283.0</ele><time>2026-05-01T16:45:34Z</time></trkpt><trkpt lat="41.73571518010678" lon="12.846166620909221"><ele>283.0</ele><time>2026-05-01T16:45:35Z</time></trkpt><trkpt lat="41.73555572114347" lon="12.846034273121163"><ele>283.0</ele><time>2026-05-01T16:45:36Z</time></trkpt><trkpt lat="41.73539743626741" lon="12.845900161331011"><ele>283.0</ele><time>2026-05-01T16:45:37Z</time></trkpt><trkpt lat="41.735238191728406" lon="12.845764381436089"><ele>284.3333333333333</ele><time>2026-05-01T16:45:38Z</time></trkpt><trkpt lat="41.73507858826156" lon="12.845626301010116"><ele>285.6666666666667</ele><time>2026-05-01T16:45:39Z</time></trkpt><trkpt lat="41.734924864083844" lon="12.845493908041531"><ele>287.0</ele><time>2026-05-01T16:45:40Z</time></trkpt><trkpt lat="41.73477139522851" lon="12.845359831514761"><ele>287.0</ele><time>2026-05-01T16:45:41Z</time></trkpt><trkpt lat="41.73461370847939" lon="12.845224640056557"><ele>287.0</ele><time>2026-05-01T16:45:42Z</time></trkpt><trkpt lat="41.734453597495495" lon="12.845088483930944"><ele>287.0</ele><time>2026-05-01T16:45:43Z</time></trkpt><trkpt lat="41.734292515254765" lon="12.844951293837372"><ele>287.0</ele><time>2026-05-01T16:45:44Z</time></trkpt><trkpt lat="41.73412952334143" lon="12.844815341216348"><ele>287.0</ele><time>2026-05-01T16:45:45Z</time></trkpt><trkpt lat="41.73396578054457" lon="12.844678718299013"><ele>287.0</ele><time>2026-05-01T16:45:46Z</time></trkpt><trkpt lat="41.733803909796634" lon="12.844542599168667"><ele>287.0</ele><time>2026-05-01T16:45:47Z</time></trkpt><trkpt lat="41.73364375131749" lon="12.844406827979652"><ele>287.0</ele><time>2026-05-01T16:45:47.999Z</time></trkpt><trkpt lat="41.73348529674617" lon="12.844270429223492"><ele>287.0</ele><time>2026-05-01T16:45:48.999Z</time></trkpt><trkpt lat="41.73332907745693" lon="12.844134273638359"><ele>288.0</ele><time>2026-05-01T16:45:49.999Z</time></trkpt><trkpt lat="41.73317283955299" lon="12.84399905645452"><ele>289.0</ele><time>2026-05-01T16:45:50.999Z</time></trkpt><trkpt lat="41.73301872843029" lon="12.843869216188258"><ele>290.0</ele><time>2026-05-01T16:45:51.999Z</time></trkpt><trkpt lat="41.73286998375852" lon="12.84374509582779"><ele>290.0</ele><time>2026-05-01T16:45:52.999Z</time></trkpt><trkpt lat="41.73272844976767" lon="12.843625755162826"><ele>290.0</ele><time>2026-05-01T16:45:53.999Z</time></trkpt><trkpt lat="41.732589981785665" lon="12.843507090512883"><ele>290.0</ele><time>2026-05-01T16:45:54.999Z</time></trkpt><trkpt lat="41.73245225568286" lon="12.843387368549513"><ele>292.33333333333337</ele><time>2026-05-01T16:45:55.999Z</time></trkpt><trkpt lat="41.73230919385912" lon="12.843266441464154"><ele>294.6666666666667</ele><time>2026-05-01T16:45:56.999Z</time></trkpt><trkpt lat="41.73216706861961" lon="12.843149890346865"><ele>297.0</ele><time>2026-05-01T16:45:57.999Z</time></trkpt><trkpt lat="41.73203196983378" lon="12.843036397328092"><ele>297.0</ele><time>2026-05-01T16:45:58.999Z</time></trkpt><trkpt lat="41.7319055379156" lon="12.842928224262671"><ele>297.0</ele><time>2026-05-01T16:45:59.999Z</time></trkpt><trkpt lat="41.73178819676749" lon="12.842827748663662"><ele>297.0</ele><time>2026-05-01T16:46:00.999Z</time></trkpt><trkpt lat="41.73168047679784" lon="12.842736705680107"><ele>297.0</ele><time>2026-05-01T16:46:01.999Z</time></trkpt><trkpt lat="41.73158195362418" lon="12.842656534266949"><ele>297.2</ele><time>2026-05-01T16:46:02.999Z</time></trkpt><trkpt lat="41.731491135980775" lon="12.842583751858017"><ele>297.4</ele><time>2026-05-01T16:46:03.999Z</time></trkpt><trkpt lat="41.73141249536114" lon="12.84251077782799"><ele>297.6</ele><time>2026-05-01T16:46:04.999Z</time></trkpt><trkpt lat="41.731346249860636" lon="12.84243037118696"><ele>297.8</ele><time>2026-05-01T16:46:05.999Z</time></trkpt><trkpt lat="41.73129255612461" lon="12.842338459717965"><ele>298.0</ele><time>2026-05-01T16:46:06.999Z</time></trkpt><trkpt lat="41.73124520145243" lon="12.84223629687078"><ele>298.0</ele><time>2026-05-01T16:46:07.999Z</time></trkpt><trkpt lat="41.73120657592344" lon="12.84212873390115"><ele>298.0</ele><time>2026-05-01T16:46:08.999Z</time></trkpt><trkpt lat="41.731165270024064" lon="12.842027278139533"><ele>298.0</ele><time>2026-05-01T16:46:09.999Z</time></trkpt><trkpt lat="41.73112396951761" lon="12.841923995809376"><ele>298.0</ele><time>2026-05-01T16:46:10.999Z</time></trkpt><trkpt lat="41.73107618970637" lon="12.84183266603971"><ele>298.0</ele><time>2026-05-01T16:46:11.999Z</time></trkpt><trkpt lat="41.731034586987285" lon="12.841755120585313"><ele>298.0</ele><time>2026-05-01T16:46:12.999Z</time></trkpt><trkpt lat="41.730988750638076" lon="12.84167659769195"><ele>298.8333333333333</ele><time>2026-05-01T16:46:13.999Z</time></trkpt><trkpt lat="41.730945182101145" lon="12.841615069729269"><ele>299.66666666666663</ele><time>2026-05-01T16:46:14.999Z</time></trkpt><trkpt lat="41.73087429098644" lon="12.841543942001183"><ele>300.5</ele><time>2026-05-01T16:46:16.999Z</time></trkpt><trkpt lat="41.73081297778139" lon="12.841523007288322"><ele>301.3333333333333</ele><time>2026-05-01T16:46:20.999Z</time></trkpt><trkpt lat="41.73073642710575" lon="12.84152770484304"><ele>302.1666666666667</ele><time>2026-05-01T16:46:25.999Z</time></trkpt><trkpt lat="41.73068740122986" lon="12.841609672099498"><ele>303.0</ele><time>2026-05-01T16:46:32.999Z</time></trkpt><trkpt lat="41.73061311634373" lon="12.841684489119759"><ele>303.0</ele><time>2026-05-01T16:46:34.999Z</time></trkpt><trkpt lat="41.730534966432224" lon="12.841672858695874"><ele>303.0</ele><time>2026-05-01T16:46:36.999Z</time></trkpt><trkpt lat="41.73046312074483" lon="12.841628459984625"><ele>303.0</ele><time>2026-05-01T16:46:38.999Z</time></trkpt><trkpt lat="41.73038584930653" lon="12.841606226902677"><ele>303.0</ele><time>2026-05-01T16:46:41.998Z</time></trkpt><trkpt lat="41.73031935071433" lon="12.841569012223829"><ele>303.0</ele><time>2026-05-01T16:46:43.998Z</time></trkpt><trkpt lat="41.7302445674166" lon="12.841517020011215"><ele>303.0</ele><time>2026-05-01T16:46:45.998Z</time></trkpt><trkpt lat="41.730151552523175" lon="12.84144456396662"><ele>303.3333333333333</ele><time>2026-05-01T16:46:47.998Z</time></trkpt><trkpt lat="41.73009572724844" lon="12.841397356724954"><ele>303.6666666666667</ele><time>2026-05-01T16:46:48.998Z</time></trkpt><trkpt lat="41.73003641605" lon="12.8413513631529"><ele>304.0</ele><time>2026-05-01T16:46:49.998Z</time></trkpt><trkpt lat="41.72996615741293" lon="12.841294848299837"><ele>304.33333333333337</ele><time>2026-05-01T16:46:50.998Z</time></trkpt><trkpt lat="41.72990005667785" lon="12.841240644583188"><ele>304.6666666666667</ele><time>2026-05-01T16:46:51.998Z</time></trkpt><trkpt lat="41.72982534948097" lon="12.841180379996791"><ele>305.0</ele><time>2026-05-01T16:46:52.998Z</time></trkpt><trkpt lat="41.72974100682658" lon="12.84111887183178"><ele>305.0</ele><time>2026-05-01T16:46:53.998Z</time></trkpt><trkpt lat="41.72965333491777" lon="12.841050812009593"><ele>305.0</ele><time>2026-05-01T16:46:54.998Z</time></trkpt><trkpt lat="41.7295618732273" lon="12.840971623187514"><ele>305.0</ele><time>2026-05-01T16:46:55.998Z</time></trkpt><trkpt lat="41.72946701324535" lon="12.840885233312063"><ele>305.0</ele><time>2026-05-01T16:46:56.998Z</time></trkpt><trkpt lat="41.72937157994115" lon="12.840798433743476"><ele>305.0</ele><time>2026-05-01T16:46:57.998Z</time></trkpt><trkpt lat="41.72927435094547" lon="12.840707963308713"><ele>306.5</ele><time>2026-05-01T16:46:58.998Z</time></trkpt><trkpt lat="41.72917412258829" lon="12.84061375895215"><ele>308.0</ele><time>2026-05-01T16:46:59.998Z</time></trkpt><trkpt lat="41.72906980676324" lon="12.840519566642438"><ele>309.5</ele><time>2026-05-01T16:47:00.998Z</time></trkpt><trkpt lat="41.728967432168034" lon="12.840432502231481"><ele>311.0</ele><time>2026-05-01T16:47:01.998Z</time></trkpt><trkpt lat="41.728869942215084" lon="12.840350454544511"><ele>311.0</ele><time>2026-05-01T16:47:02.998Z</time></trkpt><trkpt lat="41.72877191104282" lon="12.840270869201877"><ele>311.0</ele><time>2026-05-01T16:47:03.998Z</time></trkpt><trkpt lat="41.728671397034546" lon="12.840195284612847"><ele>311.0</ele><time>2026-05-01T16:47:04.998Z</time></trkpt><trkpt lat="41.728571180267686" lon="12.840125215409437"><ele>311.0</ele><time>2026-05-01T16:47:05.998Z</time></trkpt><trkpt lat="41.72847227585243" lon="12.8400662448624"><ele>312.2</ele><time>2026-05-01T16:47:06.998Z</time></trkpt><trkpt lat="41.72837513281215" lon="12.84001708025278"><ele>313.40000000000003</ele><time>2026-05-01T16:47:07.998Z</time></trkpt><trkpt lat="41.72827697165251" lon="12.83998268324349"><ele>314.6</ele><time>2026-05-01T16:47:08.998Z</time></trkpt><trkpt lat="41.7281785205047" lon="12.839958116980322"><ele>315.8</ele><time>2026-05-01T16:47:09.998Z</time></trkpt><trkpt lat="41.72807836285925" lon="12.839935171958093"><ele>317.0</ele><time>2026-05-01T16:47:10.998Z</time></trkpt><trkpt lat="41.72797671934136" lon="12.83991380584834"><ele>317.0</ele><time>2026-05-01T16:47:11.998Z</time></trkpt><trkpt lat="41.72787491137698" lon="12.839895865935224"><ele>317.0</ele><time>2026-05-01T16:47:12.998Z</time></trkpt><trkpt lat="41.72776867485244" lon="12.839870284796119"><ele>317.0</ele><time>2026-05-01T16:47:13.998Z</time></trkpt><trkpt lat="41.72765280022398" lon="12.839840681767246"><ele>317.0</ele><time>2026-05-01T16:47:14.998Z</time></trkpt><trkpt lat="41.72753907650685" lon="12.839804825620623"><ele>317.0</ele><time>2026-05-01T16:47:15.998Z</time></trkpt><trkpt lat="41.727429135541364" lon="12.83976640050836"><ele>318.0</ele><time>2026-05-01T16:47:16.998Z</time></trkpt><trkpt lat="41.727328041501494" lon="12.839729040857948"><ele>319.0</ele><time>2026-05-01T16:47:18Z</time></trkpt><trkpt lat="41.72723565127548" lon="12.839694313093307"><ele>320.0</ele><time>2026-05-01T16:47:19Z</time></trkpt><trkpt lat="41.72714779044615" lon="12.839660282833112"><ele>321.0</ele><time>2026-05-01T16:47:20Z</time></trkpt><trkpt lat="41.72706556458022" lon="12.83962213844456"><ele>322.0</ele><time>2026-05-01T16:47:21Z</time></trkpt><trkpt lat="41.726994449186" lon="12.839560665060892"><ele>322.0</ele><time>2026-05-01T16:47:22Z</time></trkpt><trkpt lat="41.726935735937744" lon="12.839478317753088"><ele>322.0</ele><time>2026-05-01T16:47:23Z</time></trkpt><trkpt lat="41.726894934106355" lon="12.839381153610457"><ele>322.0</ele><time>2026-05-01T16:47:24Z</time></trkpt><trkpt lat="41.72687557989284" lon="12.839275137100607"><ele>322.0</ele><time>2026-05-01T16:47:25Z</time></trkpt><trkpt lat="41.72687763847741" lon="12.839165587939661"><ele>322.0</ele><time>2026-05-01T16:47:26Z</time></trkpt><trkpt lat="41.7269085926056" lon="12.83906331585197"><ele>322.0</ele><time>2026-05-01T16:47:27Z</time></trkpt><trkpt lat="41.726953264413595" lon="12.838964097571557"><ele>323.5</ele><time>2026-05-01T16:47:28Z</time></trkpt><trkpt lat="41.727002894459645" lon="12.838865276800036"><ele>325.0</ele><time>2026-05-01T16:47:29Z</time></trkpt><trkpt lat="41.72704492729481" lon="12.838764848574932"><ele>326.5</ele><time>2026-05-01T16:47:30Z</time></trkpt><trkpt lat="41.72708251131919" lon="12.838660762857605"><ele>328.0</ele><time>2026-05-01T16:47:31Z</time></trkpt><trkpt lat="41.727116752524594" lon="12.838552725283636"><ele>329.5</ele><time>2026-05-01T16:47:32Z</time></trkpt><trkpt lat="41.72714333055489" lon="12.8384537734623"><ele>331.0</ele><time>2026-05-01T16:47:33Z</time></trkpt><trkpt lat="41.727158757708295" lon="12.83834404507028"><ele>332.5</ele><time>2026-05-01T16:47:34Z</time></trkpt><trkpt lat="41.72716553819393" lon="12.838234189116205"><ele>334.0</ele><time>2026-05-01T16:47:35Z</time></trkpt><trkpt lat="41.727167379760076" lon="12.838124438398884"><ele>335.5</ele><time>2026-05-01T16:47:36Z</time></trkpt><trkpt lat="41.727165743025054" lon="12.838017726303182"><ele>337.0</ele><time>2026-05-01T16:47:37Z</time></trkpt><trkpt lat="41.72716548927804" lon="12.837914930733522"><ele>338.5</ele><time>2026-05-01T16:47:38Z</time></trkpt><trkpt lat="41.727163768442395" lon="12.837816619815737"><ele>340.0</ele><time>2026-05-01T16:47:39Z</time></trkpt><trkpt lat="41.72716248361912" lon="12.837717603485396"><ele>340.5</ele><time>2026-05-01T16:47:40Z</time></trkpt><trkpt lat="41.72716017137237" lon="12.837619418644849"><ele>341.0</ele><time>2026-05-01T16:47:41Z</time></trkpt><trkpt lat="41.72715334661314" lon="12.83751955987425"><ele>341.5</ele><time>2026-05-01T16:47:42Z</time></trkpt><trkpt lat="41.72714474137226" lon="12.83741817994223"><ele>342.0</ele><time>2026-05-01T16:47:43Z</time></trkpt><trkpt lat="41.72713635081376" lon="12.83731446644211"><ele>342.5</ele><time>2026-05-01T16:47:44Z</time></trkpt><trkpt lat="41.72712939427864" lon="12.837206781519829"><ele>343.0</ele><time>2026-05-01T16:47:45Z</time></trkpt><trkpt lat="41.72712480497918" lon="12.837100815690654"><ele>343.0</ele><time>2026-05-01T16:47:46Z</time></trkpt><trkpt lat="41.72712117987692" lon="12.836993901294846"><ele>343.0</ele><time>2026-05-01T16:47:47Z</time></trkpt><trkpt lat="41.72711670803562" lon="12.836884997852614"><ele>343.0</ele><time>2026-05-01T16:47:48Z</time></trkpt><trkpt lat="41.727112651019496" lon="12.836777161625735"><ele>343.0</ele><time>2026-05-01T16:47:49Z</time></trkpt><trkpt lat="41.72710622504506" lon="12.836674205673953"><ele>343.0</ele><time>2026-05-01T16:47:50Z</time></trkpt><trkpt lat="41.727099378626136" lon="12.83657367042474"><ele>343.0</ele><time>2026-05-01T16:47:51Z</time></trkpt><trkpt lat="41.72709348442641" lon="12.836477703194825"><ele>343.14285714285717</ele><time>2026-05-01T16:47:52Z</time></trkpt><trkpt lat="41.727086001480544" lon="12.836382321383637"><ele>343.2857142857143</ele><time>2026-05-01T16:47:53Z</time></trkpt><trkpt lat="41.72707623893336" lon="12.836288069569475"><ele>343.42857142857144</ele><time>2026-05-01T16:47:53.999Z</time></trkpt><trkpt lat="41.72706603689948" lon="12.836194583800056"><ele>343.57142857142856</ele><time>2026-05-01T16:47:54.999Z</time></trkpt><trkpt lat="41.72705502068544" lon="12.83610238285313"><ele>343.7142857142857</ele><time>2026-05-01T16:47:55.999Z</time></trkpt><trkpt lat="41.72704391515444" lon="12.836008513699324"><ele>343.8571428571429</ele><time>2026-05-01T16:47:56.999Z</time></trkpt><trkpt lat="41.72703112960664" lon="12.835914050850835"><ele>344.0</ele><time>2026-05-01T16:47:57.999Z</time></trkpt><trkpt lat="41.72701593348726" lon="12.835820184864028"><ele>344.5</ele><time>2026-05-01T16:47:58.999Z</time></trkpt><trkpt lat="41.7269986392194" lon="12.835725375483266"><ele>345.0</ele><time>2026-05-01T16:47:59.999Z</time></trkpt><trkpt lat="41.726982187629886" lon="12.83562952173011"><ele>345.5</ele><time>2026-05-01T16:48:00.999Z</time></trkpt><trkpt lat="41.726969129792444" lon="12.83552510234081"><ele>346.0</ele><time>2026-05-01T16:48:01.999Z</time></trkpt><trkpt lat="41.72695728926079" lon="12.835415013018844"><ele>346.5</ele><time>2026-05-01T16:48:02.999Z</time></trkpt><trkpt lat="41.72694253510606" lon="12.835303758068516"><ele>347.0</ele><time>2026-05-01T16:48:03.999Z</time></trkpt><trkpt lat="41.72692389634743" lon="12.835194902666803"><ele>347.83333333333337</ele><time>2026-05-01T16:48:04.999Z</time></trkpt><trkpt lat="41.72690507723278" lon="12.835090304957848"><ele>348.6666666666667</ele><time>2026-05-01T16:48:05.999Z</time></trkpt><trkpt lat="41.72688983793904" lon="12.834985750109897"><ele>349.5</ele><time>2026-05-01T16:48:06.999Z</time></trkpt><trkpt lat="41.726876708250515" lon="12.834882637451269"><ele>350.3333333333333</ele><time>2026-05-01T16:48:07.999Z</time></trkpt><trkpt lat="41.72686633369562" lon="12.834781949196266"><ele>351.16666666666663</ele><time>2026-05-01T16:48:08.999Z</time></trkpt><trkpt lat="41.72685143980434" lon="12.834684136835364"><ele>352.0</ele><time>2026-05-01T16:48:09.999Z</time></trkpt><trkpt lat="41.726832644016035" lon="12.834588198026347"><ele>352.3333333333333</ele><time>2026-05-01T16:48:10.999Z</time></trkpt><trkpt lat="41.72681558569861" lon="12.834493727344878"><ele>352.66666666666663</ele><time>2026-05-01T16:48:11.999Z</time></trkpt><trkpt lat="41.726797781815165" lon="12.83439863708786"><ele>353.0</ele><time>2026-05-01T16:48:12.999Z</time></trkpt><trkpt lat="41.72678491980467" lon="12.834301472931841"><ele>353.3333333333333</ele><time>2026-05-01T16:48:13.999Z</time></trkpt><trkpt lat="41.72677471386013" lon="12.834209114803132"><ele>353.6666666666667</ele><time>2026-05-01T16:48:14.999Z</time></trkpt><trkpt lat="41.72676461219119" lon="12.834122926943703"><ele>354.0</ele><time>2026-05-01T16:48:15.999Z</time></trkpt><trkpt lat="41.72673258094209" lon="12.833972919716349"><ele>354.5</ele><time>2026-05-01T16:48:17.999Z</time></trkpt><trkpt lat="41.72671380373687" lon="12.833840960528613"><ele>355.0</ele><time>2026-05-01T16:48:19.999Z</time></trkpt><trkpt lat="41.72674705705767" lon="12.833723305716964"><ele>355.5</ele><time>2026-05-01T16:48:21.999Z</time></trkpt><trkpt lat="41.726774886474566" lon="12.833621101508703"><ele>356.0</ele><time>2026-05-01T16:48:23.999Z</time></trkpt><trkpt lat="41.72676431932043" lon="12.833515919236127"><ele>356.5</ele><time>2026-05-01T16:48:25.999Z</time></trkpt><trkpt lat="41.72672455186" lon="12.83342518498383"><ele>357.0</ele><time>2026-05-01T16:48:27.999Z</time></trkpt><trkpt lat="41.72669535168685" lon="12.83332206945721"><ele>357.20000000000005</ele><time>2026-05-01T16:48:29.999Z</time></trkpt><trkpt lat="41.7266854208058" lon="12.833212952259696"><ele>357.4</ele><time>2026-05-01T16:48:31.999Z</time></trkpt><trkpt lat="41.726668405031106" lon="12.83308338897855"><ele>357.6</ele><time>2026-05-01T16:48:33.999Z</time></trkpt><trkpt lat="41.72662947023576" lon="12.832948713986319"><ele>357.79999999999995</ele><time>2026-05-01T16:48:35.999Z</time></trkpt><trkpt lat="41.72657347708151" lon="12.832824117037173"><ele>358.0</ele><time>2026-05-01T16:48:37.999Z</time></trkpt><trkpt lat="41.72650246856463" lon="12.832693291142679"><ele>358.28571428571433</ele><time>2026-05-01T16:48:39.999Z</time></trkpt><trkpt lat="41.72646278541526" lon="12.832625559608159"><ele>358.57142857142856</ele><time>2026-05-01T16:48:40.999Z</time></trkpt><trkpt lat="41.726417467953695" lon="12.832563409164376"><ele>358.8571428571429</ele><time>2026-05-01T16:48:41.999Z</time></trkpt><trkpt lat="41.726368392544444" lon="12.832500942574258"><ele>359.14285714285717</ele><time>2026-05-01T16:48:42.999Z</time></trkpt><trkpt lat="41.72631721641816" lon="12.832441072875046"><ele>359.42857142857144</ele><time>2026-05-01T16:48:43.999Z</time></trkpt><trkpt lat="41.726266114230405" lon="12.832377348720795"><ele>359.7142857142857</ele><time>2026-05-01T16:48:44.999Z</time></trkpt><trkpt lat="41.726217665583555" lon="12.832310449706421"><ele>360.0</ele><time>2026-05-01T16:48:45.999Z</time></trkpt><trkpt lat="41.72616811026628" lon="12.832248770075282"><ele>360.0</ele><time>2026-05-01T16:48:46.999Z</time></trkpt><trkpt lat="41.72611480998152" lon="12.832189738786672"><ele>360.0</ele><time>2026-05-01T16:48:47.998Z</time></trkpt><trkpt lat="41.7260618058632" lon="12.832130381953824"><ele>360.0</ele><time>2026-05-01T16:48:48.998Z</time></trkpt><trkpt lat="41.726008904957325" lon="12.8320677053583"><ele>360.0</ele><time>2026-05-01T16:48:49.998Z</time></trkpt><trkpt lat="41.725956133153645" lon="12.83200171944927"><ele>360.0</ele><time>2026-05-01T16:48:50.998Z</time></trkpt><trkpt lat="41.72590241263372" lon="12.831935693173111"><ele>360.0</ele><time>2026-05-01T16:48:51.998Z</time></trkpt><trkpt lat="41.72584793616695" lon="12.831869936274392"><ele>360.0</ele><time>2026-05-01T16:48:52.998Z</time></trkpt><trkpt lat="41.72579142278211" lon="12.831802282591692"><ele>359.8333333333333</ele><time>2026-05-01T16:48:53.998Z</time></trkpt><trkpt lat="41.72573333010431" lon="12.831735830151368"><ele>359.6666666666667</ele><time>2026-05-01T16:48:54.998Z</time></trkpt><trkpt lat="41.725678013660676" lon="12.831662270292675"><ele>359.5</ele><time>2026-05-01T16:48:55.998Z</time></trkpt><trkpt lat="41.72561897023153" lon="12.831587711694645"><ele>359.33333333333337</ele><time>2026-05-01T16:48:56.998Z</time></trkpt><trkpt lat="41.72555200300078" lon="12.831513045163685"><ele>359.1666666666667</ele><time>2026-05-01T16:48:57.998Z</time></trkpt><trkpt lat="41.72548710579573" lon="12.831428791520027"><ele>359.0</ele><time>2026-05-01T16:48:58.998Z</time></trkpt><trkpt lat="41.72541628809156" lon="12.831345398934113"><ele>359.0</ele><time>2026-05-01T16:48:59.998Z</time></trkpt><trkpt lat="41.725342059359" lon="12.831264670008087"><ele>359.0</ele><time>2026-05-01T16:49:00.998Z</time></trkpt><trkpt lat="41.725257534731064" lon="12.83119037630048"><ele>359.0</ele><time>2026-05-01T16:49:01.998Z</time></trkpt><trkpt lat="41.725173768578415" lon="12.831118159199528"><ele>359.0</ele><time>2026-05-01T16:49:02.998Z</time></trkpt><trkpt lat="41.725095368456145" lon="12.831030928616546"><ele>359.0</ele><time>2026-05-01T16:49:03.998Z</time></trkpt><trkpt lat="41.72500570499795" lon="12.830977145189673"><ele>359.33333333333337</ele><time>2026-05-01T16:49:04.998Z</time></trkpt><trkpt lat="41.724927613873945" lon="12.830907203169284"><ele>359.6666666666667</ele><time>2026-05-01T16:49:05.998Z</time></trkpt><trkpt lat="41.72485314746001" lon="12.830839408059035"><ele>360.0</ele><time>2026-05-01T16:49:06.998Z</time></trkpt><trkpt lat="41.724782851219686" lon="12.830775181281155"><ele>360.3333333333333</ele><time>2026-05-01T16:49:07.998Z</time></trkpt><trkpt lat="41.72471474191829" lon="12.830715225585628"><ele>360.66666666666663</ele><time>2026-05-01T16:49:08.998Z</time></trkpt><trkpt lat="41.72465029790809" lon="12.830657163380453"><ele>361.0</ele><time>2026-05-01T16:49:09.998Z</time></trkpt><trkpt lat="41.72458804897747" lon="12.830600201689908"><ele>361.0</ele><time>2026-05-01T16:49:10.998Z</time></trkpt><trkpt lat="41.72452757615841" lon="12.830546561818295"><ele>361.0</ele><time>2026-05-01T16:49:11.998Z</time></trkpt><trkpt lat="41.72446666790664" lon="12.830502746592217"><ele>361.0</ele><time>2026-05-01T16:49:12.998Z</time></trkpt><trkpt lat="41.724417687053176" lon="12.830443274812918"><ele>361.0</ele><time>2026-05-01T16:49:13.998Z</time></trkpt><trkpt lat="41.724356218999134" lon="12.83041890360334"><ele>361.0</ele><time>2026-05-01T16:49:14.998Z</time></trkpt><trkpt lat="41.72426008399896" lon="12.830332911310162"><ele>361.0</ele><time>2026-05-01T16:49:16.998Z</time></trkpt><trkpt lat="41.7241782080811" lon="12.830261328914748"><ele>361.0</ele><time>2026-05-01T16:49:18.998Z</time></trkpt><trkpt lat="41.72411717352975" lon="12.830220141267905"><ele>361.0</ele><time>2026-05-01T16:49:20.998Z</time></trkpt><trkpt lat="41.72404590640698" lon="12.830183484378164"><ele>361.0</ele><time>2026-05-01T16:49:24Z</time></trkpt><trkpt lat="41.723973621283136" lon="12.830137983478519"><ele>361.0</ele><time>2026-05-01T16:49:26Z</time></trkpt><trkpt lat="41.72389476072283" lon="12.83006774910447"><ele>361.0</ele><time>2026-05-01T16:49:28Z</time></trkpt><trkpt lat="41.72380128713448" lon="12.830007821108993"><ele>361.0</ele><time>2026-05-01T16:49:30Z</time></trkpt><trkpt lat="41.7236946155527" lon="12.829938900633243"><ele>361.0</ele><time>2026-05-01T16:49:32Z</time></trkpt><trkpt lat="41.72362844091895" lon="12.829899137378145"><ele>361.0</ele><time>2026-05-01T16:49:33Z</time></trkpt><trkpt lat="41.72355701105812" lon="12.829852445400544"><ele>361.0</ele><time>2026-05-01T16:49:34Z</time></trkpt><trkpt lat="41.72348372639696" lon="12.829805653661738"><ele>361.0</ele><time>2026-05-01T16:49:35Z</time></trkpt><trkpt lat="41.72340598748105" lon="12.829750900462967"><ele>361.0</ele><time>2026-05-01T16:49:36Z</time></trkpt><trkpt lat="41.7233239678335" lon="12.829690879677488"><ele>361.0</ele><time>2026-05-01T16:49:37Z</time></trkpt><trkpt lat="41.723234915217354" lon="12.829628999778306"><ele>360.6</ele><time>2026-05-01T16:49:38Z</time></trkpt><trkpt lat="41.723139829828575" lon="12.829564273912112"><ele>360.20000000000005</ele><time>2026-05-01T16:49:39Z</time></trkpt><trkpt lat="41.72304490746846" lon="12.829501095273445"><ele>359.79999999999995</ele><time>2026-05-01T16:49:40Z</time></trkpt><trkpt lat="41.72295091310938" lon="12.829440711485812"><ele>359.4</ele><time>2026-05-01T16:49:41Z</time></trkpt><trkpt lat="41.72285621150414" lon="12.829376754150806"><ele>359.0</ele><time>2026-05-01T16:49:42Z</time></trkpt><trkpt lat="41.72276216843829" lon="12.82931636306359"><ele>358.4</ele><time>2026-05-01T16:49:43Z</time></trkpt><trkpt lat="41.722668790679585" lon="12.829257347294707"><ele>357.79999999999995</ele><time>2026-05-01T16:49:44Z</time></trkpt><trkpt lat="41.722576617985446" lon="12.829194794675729"><ele>357.20000000000005</ele><time>2026-05-01T16:49:45Z</time></trkpt><trkpt lat="41.7224843348815" lon="12.82913158835342"><ele>356.6</ele><time>2026-05-01T16:49:46Z</time></trkpt><trkpt lat="41.72239693222884" lon="12.829074983175126"><ele>356.0</ele><time>2026-05-01T16:49:47Z</time></trkpt><trkpt lat="41.722318747022975" lon="12.829024044421075"><ele>356.0</ele><time>2026-05-01T16:49:48Z</time></trkpt><trkpt lat="41.722247273543374" lon="12.82897365064419"><ele>356.0</ele><time>2026-05-01T16:49:49Z</time></trkpt><trkpt lat="41.72217484978095" lon="12.828925317657605"><ele>356.0</ele><time>2026-05-01T16:49:50Z</time></trkpt><trkpt lat="41.72210096754438" lon="12.828875101945663"><ele>356.0</ele><time>2026-05-01T16:49:51Z</time></trkpt><trkpt lat="41.722026715371015" lon="12.828825417090636"><ele>356.0</ele><time>2026-05-01T16:49:52Z</time></trkpt><trkpt lat="41.72194973531722" lon="12.828782957861572"><ele>356.0</ele><time>2026-05-01T16:49:53Z</time></trkpt><trkpt lat="41.72187155008129" lon="12.828731962332053"><ele>355.4</ele><time>2026-05-01T16:49:54Z</time></trkpt><trkpt lat="41.721790182153704" lon="12.828671783018303"><ele>354.8</ele><time>2026-05-01T16:49:55Z</time></trkpt><trkpt lat="41.721698073460196" lon="12.828607347430959"><ele>354.2</ele><time>2026-05-01T16:49:56Z</time></trkpt><trkpt lat="41.72159888564162" lon="12.828543956744255"><ele>353.59999999999997</ele><time>2026-05-01T16:49:57Z</time></trkpt><trkpt lat="41.72149607964682" lon="12.828483282767696"><ele>353.0</ele><time>2026-05-01T16:49:58Z</time></trkpt><trkpt lat="41.721389322610044" lon="12.828422602516952"><ele>353.0</ele><time>2026-05-01T16:49:59Z</time></trkpt><trkpt lat="41.72128683169218" lon="12.828356520286924"><ele>353.0</ele><time>2026-05-01T16:49:59.999Z</time></trkpt><trkpt lat="41.72118052585679" lon="12.828295197650625"><ele>353.0</ele><time>2026-05-01T16:50:00.999Z</time></trkpt><trkpt lat="41.72107825679992" lon="12.828231759041055"><ele>353.0</ele><time>2026-05-01T16:50:01.999Z</time></trkpt><trkpt lat="41.72097772771234" lon="12.828171152795907"><ele>351.59999999999997</ele><time>2026-05-01T16:50:02.999Z</time></trkpt><trkpt lat="41.72088077314722" lon="12.828105294710104"><ele>350.2</ele><time>2026-05-01T16:50:03.999Z</time></trkpt><trkpt lat="41.72079276648151" lon="12.828022132062278"><ele>348.8</ele><time>2026-05-01T16:50:04.999Z</time></trkpt><trkpt lat="41.72071912531139" lon="12.827918550360868"><ele>347.4</ele><time>2026-05-01T16:50:05.999Z</time></trkpt><trkpt lat="41.72065343957713" lon="12.827803770643431"><ele>346.0</ele><time>2026-05-01T16:50:06.999Z</time></trkpt><trkpt lat="41.72059403513538" lon="12.827672109589717"><ele>346.5</ele><time>2026-05-01T16:50:07.999Z</time></trkpt><trkpt lat="41.72053696378248" lon="12.827528263332024"><ele>347.0</ele><time>2026-05-01T16:50:08.999Z</time></trkpt><trkpt lat="41.72047638001773" lon="12.827372538353101"><ele>347.5</ele><time>2026-05-01T16:50:09.999Z</time></trkpt><trkpt lat="41.72042680451305" lon="12.82720128797406"><ele>348.0</ele><time>2026-05-01T16:50:10.999Z</time></trkpt><trkpt lat="41.72038067218763" lon="12.827018382651577"><ele>348.0</ele><time>2026-05-01T16:50:11.999Z</time></trkpt><trkpt lat="41.720359657087094" lon="12.826819734611279"><ele>348.0</ele><time>2026-05-01T16:50:12.999Z</time></trkpt><trkpt lat="41.72031694295184" lon="12.826633373430981"><ele>348.0</ele><time>2026-05-01T16:50:13.999Z</time></trkpt><trkpt lat="41.720276539930985" lon="12.826439645108604"><ele>348.0</ele><time>2026-05-01T16:50:14.999Z</time></trkpt><trkpt lat="41.72020457287949" lon="12.826253547656108"><ele>346.3333333333333</ele><time>2026-05-01T16:50:15.999Z</time></trkpt><trkpt lat="41.720178253822986" lon="12.826056697424312"><ele>344.66666666666663</ele><time>2026-05-01T16:50:16.999Z</time></trkpt><trkpt lat="41.720139401838566" lon="12.825858213493769"><ele>343.0</ele><time>2026-05-01T16:50:17.999Z</time></trkpt><trkpt lat="41.72009933325476" lon="12.825658905848648"><ele>342.0</ele><time>2026-05-01T16:50:18.999Z</time></trkpt><trkpt lat="41.72011890117405" lon="12.825440166739524"><ele>341.0</ele><time>2026-05-01T16:50:19.999Z</time></trkpt><trkpt lat="41.7200866428059" lon="12.825237707940685"><ele>340.0</ele><time>2026-05-01T16:50:20.999Z</time></trkpt><trkpt lat="41.720053975105934" lon="12.825034955628736"><ele>337.3333333333333</ele><time>2026-05-01T16:50:21.999Z</time></trkpt><trkpt lat="41.72002259056573" lon="12.82483839027086"><ele>334.6666666666667</ele><time>2026-05-01T16:50:22.999Z</time></trkpt><trkpt lat="41.71999073635084" lon="12.824640108570224"><ele>332.0</ele><time>2026-05-01T16:50:23.999Z</time></trkpt><trkpt lat="41.719919145595604" lon="12.824460824304854"><ele>329.75</ele><time>2026-05-01T16:50:24.999Z</time></trkpt><trkpt lat="41.719885492800486" lon="12.824273482694242"><ele>327.5</ele><time>2026-05-01T16:50:25.999Z</time></trkpt><trkpt lat="41.719851641424015" lon="12.824091342114889"><ele>325.25</ele><time>2026-05-01T16:50:26.999Z</time></trkpt><trkpt lat="41.719824707512686" lon="12.823910216985752"><ele>323.0</ele><time>2026-05-01T16:50:27.999Z</time></trkpt><trkpt lat="41.71980040514323" lon="12.82373084240674"><ele>323.0</ele><time>2026-05-01T16:50:28.999Z</time></trkpt><trkpt lat="41.71977336571569" lon="12.823554731815483"><ele>323.0</ele><time>2026-05-01T16:50:29.999Z</time></trkpt><trkpt lat="41.71974157726599" lon="12.823380207438655"><ele>323.0</ele><time>2026-05-01T16:50:30.999Z</time></trkpt><trkpt lat="41.71973468402442" lon="12.823193145893605"><ele>323.0</ele><time>2026-05-01T16:50:31.999Z</time></trkpt><trkpt lat="41.719689687809684" lon="12.823013644036848"><ele>322.0</ele><time>2026-05-01T16:50:32.999Z</time></trkpt><trkpt lat="41.71962850001306" lon="12.822831164544873"><ele>321.0</ele><time>2026-05-01T16:50:33.999Z</time></trkpt><trkpt lat="41.7195458599504" lon="12.822657661179054"><ele>320.0</ele><time>2026-05-01T16:50:34.999Z</time></trkpt><trkpt lat="41.71945544442858" lon="12.822491786995911"><ele>316.33333333333337</ele><time>2026-05-01T16:50:35.999Z</time></trkpt><trkpt lat="41.719358566475485" lon="12.822328403858846"><ele>312.6666666666667</ele><time>2026-05-01T16:50:36.999Z</time></trkpt><trkpt lat="41.719255870519426" lon="12.82216239038342"><ele>309.0</ele><time>2026-05-01T16:50:37.999Z</time></trkpt><trkpt lat="41.71913626146946" lon="12.822010233384203"><ele>309.0</ele><time>2026-05-01T16:50:38.999Z</time></trkpt><trkpt lat="41.71902559751365" lon="12.821842879663018"><ele>309.0</ele><time>2026-05-01T16:50:39.999Z</time></trkpt><trkpt lat="41.71889423535951" lon="12.821694619072042"><ele>309.0</ele><time>2026-05-01T16:50:40.999Z</time></trkpt><trkpt lat="41.718739569364" lon="12.821579244517382"><ele>309.6666666666667</ele><time>2026-05-01T16:50:41.999Z</time></trkpt><trkpt lat="41.71857508045058" lon="12.82149306058914"><ele>310.33333333333337</ele><time>2026-05-01T16:50:42.999Z</time></trkpt><trkpt lat="41.71840652565719" lon="12.82142552907138"><ele>311.0</ele><time>2026-05-01T16:50:43.999Z</time></trkpt><trkpt lat="41.71824271596477" lon="12.821363265129834"><ele>309.6666666666667</ele><time>2026-05-01T16:50:44.999Z</time></trkpt><trkpt lat="41.71808653819864" lon="12.821301734606426"><ele>308.3333333333333</ele><time>2026-05-01T16:50:45.999Z</time></trkpt><trkpt lat="41.71793771529007" lon="12.821244526103563"><ele>307.0</ele><time>2026-05-01T16:50:46.999Z</time></trkpt><trkpt lat="41.717795518278336" lon="12.821189226402092"><ele>309.66666666666663</ele><time>2026-05-01T16:50:47.999Z</time></trkpt><trkpt lat="41.717641946075545" lon="12.821130434006523"><ele>312.3333333333333</ele><time>2026-05-01T16:50:48.999Z</time></trkpt><trkpt lat="41.7174811669581" lon="12.821051632945306"><ele>315.0</ele><time>2026-05-01T16:50:49.999Z</time></trkpt><trkpt lat="41.71731229109331" lon="12.820982563657214"><ele>315.0</ele><time>2026-05-01T16:50:50.999Z</time></trkpt><trkpt lat="41.717136571333164" lon="12.82091974328102"><ele>315.0</ele><time>2026-05-01T16:50:51.999Z</time></trkpt><trkpt lat="41.71696917848098" lon="12.820817958129847"><ele>315.0</ele><time>2026-05-01T16:50:52.999Z</time></trkpt><trkpt lat="41.71680083126427" lon="12.820711082193087"><ele>320.3333333333333</ele><time>2026-05-01T16:50:53.999Z</time></trkpt><trkpt lat="41.71663539126364" lon="12.820598137063136"><ele>325.66666666666663</ele><time>2026-05-01T16:50:54.998Z</time></trkpt><trkpt lat="41.71647083769673" lon="12.820481140963215"><ele>331.0</ele><time>2026-05-01T16:50:55.998Z</time></trkpt><trkpt lat="41.71631108574174" lon="12.820358181347682"><ele>331.0</ele><time>2026-05-01T16:50:56.998Z</time></trkpt><trkpt lat="41.71615410941412" lon="12.820228292414575"><ele>331.0</ele><time>2026-05-01T16:50:57.998Z</time></trkpt><trkpt lat="41.71599647336958" lon="12.820093879016998"><ele>331.0</ele><time>2026-05-01T16:50:58.998Z</time></trkpt><trkpt lat="41.71583672018238" lon="12.81996293179157"><ele>334.66666666666663</ele><time>2026-05-01T16:50:59.998Z</time></trkpt><trkpt lat="41.71567129271379" lon="12.819824412147344"><ele>338.3333333333333</ele><time>2026-05-01T16:51:00.998Z</time></trkpt><trkpt lat="41.715518462373566" lon="12.819675485599092"><ele>342.0</ele><time>2026-05-01T16:51:01.998Z</time></trkpt><trkpt lat="41.715372681250095" lon="12.819531505065731"><ele>342.0</ele><time>2026-05-01T16:51:02.998Z</time></trkpt><trkpt lat="41.71524434818708" lon="12.819388433834547"><ele>342.0</ele><time>2026-05-01T16:51:03.998Z</time></trkpt><trkpt lat="41.71511239791681" lon="12.81924797783239"><ele>342.0</ele><time>2026-05-01T16:51:04.998Z</time></trkpt><trkpt lat="41.71498363221749" lon="12.819105898118806"><ele>339.3333333333333</ele><time>2026-05-01T16:51:05.998Z</time></trkpt><trkpt lat="41.71485480982154" lon="12.818961876303986"><ele>336.66666666666663</ele><time>2026-05-01T16:51:06.998Z</time></trkpt><trkpt lat="41.71472792318805" lon="12.818812317375471"><ele>334.0</ele><time>2026-05-01T16:51:07.998Z</time></trkpt><trkpt lat="41.71459884039002" lon="12.818663733101145"><ele>334.0</ele><time>2026-05-01T16:51:08.998Z</time></trkpt><trkpt lat="41.714463320205276" lon="12.818520864311045"><ele>334.0</ele><time>2026-05-01T16:51:09.998Z</time></trkpt><trkpt lat="41.71431912411997" lon="12.81838872270567"><ele>334.0</ele><time>2026-05-01T16:51:10.998Z</time></trkpt><trkpt lat="41.7141662711076" lon="12.818272521990565"><ele>330.66666666666663</ele><time>2026-05-01T16:51:11.998Z</time></trkpt><trkpt lat="41.71399938520102" lon="12.8181638892092"><ele>327.3333333333333</ele><time>2026-05-01T16:51:12.998Z</time></trkpt><trkpt lat="41.71382565927794" lon="12.818074934325697"><ele>324.0</ele><time>2026-05-01T16:51:13.998Z</time></trkpt><trkpt lat="41.713643474166346" lon="12.81800019844774"><ele>327.0</ele><time>2026-05-01T16:51:14.998Z</time></trkpt><trkpt lat="41.71346542075066" lon="12.817913656540728"><ele>330.0</ele><time>2026-05-01T16:51:15.998Z</time></trkpt><trkpt lat="41.71328540060399" lon="12.817818203006675"><ele>333.0</ele><time>2026-05-01T16:51:16.998Z</time></trkpt><trkpt lat="41.71310746986049" lon="12.817724370862797"><ele>334.3333333333333</ele><time>2026-05-01T16:51:17.998Z</time></trkpt><trkpt lat="41.712928776537986" lon="12.8176373449142"><ele>335.66666666666663</ele><time>2026-05-01T16:51:18.998Z</time></trkpt><trkpt lat="41.712746599283236" lon="12.817553721641735"><ele>337.0</ele><time>2026-05-01T16:51:19.998Z</time></trkpt><trkpt lat="41.71256665566254" lon="12.817450506402597"><ele>337.0</ele><time>2026-05-01T16:51:20.998Z</time></trkpt><trkpt lat="41.71238688017546" lon="12.817377601753115"><ele>337.0</ele><time>2026-05-01T16:51:21.998Z</time></trkpt><trkpt lat="41.71221975486145" lon="12.81726509522122"><ele>337.0</ele><time>2026-05-01T16:51:22.998Z</time></trkpt><trkpt lat="41.71204637136222" lon="12.817149773216263"><ele>336.0</ele><time>2026-05-01T16:51:23.998Z</time></trkpt><trkpt lat="41.71188989823045" lon="12.817000844124161"><ele>335.0</ele><time>2026-05-01T16:51:24.998Z</time></trkpt><trkpt lat="41.71172463131991" lon="12.816895649850334"><ele>334.0</ele><time>2026-05-01T16:51:25.998Z</time></trkpt><trkpt lat="41.71156434040158" lon="12.816765179181237"><ele>334.0</ele><time>2026-05-01T16:51:26.998Z</time></trkpt><trkpt lat="41.71139992547613" lon="12.81667142768496"><ele>334.0</ele><time>2026-05-01T16:51:28Z</time></trkpt><trkpt lat="41.71123050712866" lon="12.816582460780047"><ele>334.0</ele><time>2026-05-01T16:51:29Z</time></trkpt><trkpt lat="41.71106419697423" lon="12.816491897154565"><ele>332.66666666666663</ele><time>2026-05-01T16:51:30Z</time></trkpt><trkpt lat="41.71089622999247" lon="12.816406714495013"><ele>331.3333333333333</ele><time>2026-05-01T16:51:31Z</time></trkpt><trkpt lat="41.7107312606703" lon="12.816331360338252"><ele>330.0</ele><time>2026-05-01T16:51:32Z</time></trkpt><trkpt lat="41.710566901074976" lon="12.816250990213833"><ele>330.0</ele><time>2026-05-01T16:51:33Z</time></trkpt><trkpt lat="41.710407903158945" lon="12.816168617234707"><ele>330.0</ele><time>2026-05-01T16:51:34Z</time></trkpt><trkpt lat="41.71025442857994" lon="12.816083266804503"><ele>330.0</ele><time>2026-05-01T16:51:35Z</time></trkpt><trkpt lat="41.71010139251963" lon="12.81599451890624"><ele>334.0</ele><time>2026-05-01T16:51:36Z</time></trkpt><trkpt lat="41.709951223232764" lon="12.815902390856643"><ele>338.0</ele><time>2026-05-01T16:51:37Z</time></trkpt><trkpt lat="41.709807535052036" lon="12.815811374231528"><ele>342.0</ele><time>2026-05-01T16:51:38Z</time></trkpt><trkpt lat="41.709666830139966" lon="12.815717615705303"><ele>342.0</ele><time>2026-05-01T16:51:39Z</time></trkpt><trkpt lat="41.709529725092985" lon="12.81562247650407"><ele>342.0</ele><time>2026-05-01T16:51:40Z</time></trkpt><trkpt lat="41.70940359116877" lon="12.815501930382908"><ele>342.0</ele><time>2026-05-01T16:51:41Z</time></trkpt><trkpt lat="41.709274149140256" lon="12.815394424305987"><ele>342.0</ele><time>2026-05-01T16:51:42Z</time></trkpt><trkpt lat="41.709149341305114" lon="12.815286145112996"><ele>342.0</ele><time>2026-05-01T16:51:43Z</time></trkpt><trkpt lat="41.70903191708079" lon="12.815178451597694"><ele>342.0</ele><time>2026-05-01T16:51:44Z</time></trkpt><trkpt lat="41.70892064110384" lon="12.815069742362057"><ele>342.0</ele><time>2026-05-01T16:51:45Z</time></trkpt><trkpt lat="41.70881530751692" lon="12.814960454717461"><ele>342.0</ele><time>2026-05-01T16:51:46Z</time></trkpt><trkpt lat="41.708714313644215" lon="12.814850390737632"><ele>342.0</ele><time>2026-05-01T16:51:47Z</time></trkpt><trkpt lat="41.70862018987799" lon="12.814745629430353"><ele>342.0</ele><time>2026-05-01T16:51:48Z</time></trkpt><trkpt lat="41.708531878133506" lon="12.814644584904396"><ele>342.0</ele><time>2026-05-01T16:51:49Z</time></trkpt><trkpt lat="41.708450058187125" lon="12.814550966696839"><ele>342.0</ele><time>2026-05-01T16:51:50Z</time></trkpt><trkpt lat="41.70837373390052" lon="12.814459412190475"><ele>342.0</ele><time>2026-05-01T16:51:51Z</time></trkpt><trkpt lat="41.708301321661054" lon="12.814372085585857"><ele>342.0</ele><time>2026-05-01T16:51:52Z</time></trkpt><trkpt lat="41.70823859780661" lon="12.814295575324207"><ele>342.0</ele><time>2026-05-01T16:51:53Z</time></trkpt><trkpt lat="41.70818729938303" lon="12.814233001783803"><ele>342.0</ele><time>2026-05-01T16:51:54Z</time></trkpt><trkpt lat="41.708127942816866" lon="12.814187869223987"><ele>342.0</ele><time>2026-05-01T16:51:55Z</time></trkpt><trkpt lat="41.70807160437108" lon="12.81412046028548"><ele>341.99999999999994</ele><time>2026-05-01T16:51:56Z</time></trkpt><trkpt lat="41.70801080356393" lon="12.814045435385864"><ele>342.0</ele><time>2026-05-01T16:51:57Z</time></trkpt><trkpt lat="41.707955151374044" lon="12.813976854967995"><ele>342.0</ele><time>2026-05-01T16:51:58Z</time></trkpt><trkpt lat="41.70790145379822" lon="12.813908351893396"><ele>342.0</ele><time>2026-05-01T16:51:59Z</time></trkpt><trkpt lat="41.70784922791505" lon="12.813839766415617"><ele>342.0</ele><time>2026-05-01T16:52:00Z</time></trkpt><trkpt lat="41.70779822842253" lon="12.813772846104486"><ele>341.99999999999994</ele><time>2026-05-01T16:52:01Z</time></trkpt><trkpt lat="41.707747381074505" lon="12.813708607983852"><ele>342.0</ele><time>2026-05-01T16:52:02Z</time></trkpt><trkpt lat="41.70769799442121" lon="12.813588877386978"><ele>342.8</ele><time>2026-05-01T16:52:04Z</time></trkpt><trkpt lat="41.70779850518477" lon="12.813476793594425"><ele>343.6</ele><time>2026-05-01T16:52:06.999Z</time></trkpt><trkpt lat="41.707897904627075" lon="12.813400349655964"><ele>344.40000000000003</ele><time>2026-05-01T16:52:08.999Z</time></trkpt><trkpt lat="41.70795650095333" lon="12.813345196817968"><ele>345.20000000000005</ele><time>2026-05-01T16:52:09.999Z</time></trkpt><trkpt lat="41.70802921714198" lon="12.813299859363086"><ele>346.0</ele><time>2026-05-01T16:52:10.999Z</time></trkpt><trkpt lat="41.70810783328614" lon="12.813254191624187"><ele>346.0</ele><time>2026-05-01T16:52:11.999Z</time></trkpt><trkpt lat="41.708189796034524" lon="12.813191866282638"><ele>346.0</ele><time>2026-05-01T16:52:12.999Z</time></trkpt><trkpt lat="41.70827455506744" lon="12.813123176086808"><ele>346.0</ele><time>2026-05-01T16:52:13.999Z</time></trkpt><trkpt lat="41.70836804816008" lon="12.813061486450428"><ele>346.0</ele><time>2026-05-01T16:52:14.999Z</time></trkpt><trkpt lat="41.70846076852705" lon="12.813004796488734"><ele>346.0</ele><time>2026-05-01T16:52:15.999Z</time></trkpt><trkpt lat="41.7085549602212" lon="12.812942227089763"><ele>347.0</ele><time>2026-05-01T16:52:16.999Z</time></trkpt><trkpt lat="41.70865432200056" lon="12.812876720274158"><ele>348.0</ele><time>2026-05-01T16:52:17.999Z</time></trkpt><trkpt lat="41.708755348527745" lon="12.812813404954388"><ele>349.0</ele><time>2026-05-01T16:52:18.999Z</time></trkpt><trkpt lat="41.708854906077676" lon="12.812744210904249"><ele>350.0</ele><time>2026-05-01T16:52:19.999Z</time></trkpt><trkpt lat="41.70895836367265" lon="12.812680246663776"><ele>351.0</ele><time>2026-05-01T16:52:20.999Z</time></trkpt><trkpt lat="41.709062091749686" lon="12.812622174186048"><ele>351.75</ele><time>2026-05-01T16:52:21.999Z</time></trkpt><trkpt lat="41.70916568070472" lon="12.812563100854247"><ele>352.5</ele><time>2026-05-01T16:52:22.999Z</time></trkpt><trkpt lat="41.70927847773247" lon="12.812523172630039"><ele>353.25</ele><time>2026-05-01T16:52:23.999Z</time></trkpt><trkpt lat="41.70939017235691" lon="12.81248037880287"><ele>354.0</ele><time>2026-05-01T16:52:24.999Z</time></trkpt><trkpt lat="41.70949829925258" lon="12.8124133502391"><ele>355.5</ele><time>2026-05-01T16:52:25.999Z</time></trkpt><trkpt lat="41.70960354127872" lon="12.812335491931218"><ele>357.0</ele><time>2026-05-01T16:52:26.999Z</time></trkpt><trkpt lat="41.70971370028846" lon="12.81227030982051"><ele>358.5</ele><time>2026-05-01T16:52:27.999Z</time></trkpt><trkpt lat="41.709831028715165" lon="12.812225527042944"><ele>360.0</ele><time>2026-05-01T16:52:28.999Z</time></trkpt><trkpt lat="41.70995085127967" lon="12.812191418887108"><ele>360.0</ele><time>2026-05-01T16:52:29.999Z</time></trkpt><trkpt lat="41.710071599270506" lon="12.812159139050666"><ele>360.0</ele><time>2026-05-01T16:52:30.999Z</time></trkpt><trkpt lat="41.710186655466636" lon="12.812107852483072"><ele>360.0</ele><time>2026-05-01T16:52:31.999Z</time></trkpt><trkpt lat="41.71029402761639" lon="12.812040129286512"><ele>360.0</ele><time>2026-05-01T16:52:32.999Z</time></trkpt><trkpt lat="41.71039996819108" lon="12.811962499176746"><ele>361.0</ele><time>2026-05-01T16:52:33.999Z</time></trkpt><trkpt lat="41.710503552952716" lon="12.81187960646799"><ele>362.0</ele><time>2026-05-01T16:52:34.999Z</time></trkpt><trkpt lat="41.71060820846661" lon="12.811794025863959"><ele>363.0</ele><time>2026-05-01T16:52:35.999Z</time></trkpt><trkpt lat="41.710707314023004" lon="12.81169578460042"><ele>364.0</ele><time>2026-05-01T16:52:36.999Z</time></trkpt><trkpt lat="41.710798216998434" lon="12.811580876801042"><ele>365.0</ele><time>2026-05-01T16:52:37.999Z</time></trkpt><trkpt lat="41.71088234081047" lon="12.811455507046778"><ele>366.0</ele><time>2026-05-01T16:52:38.999Z</time></trkpt><trkpt lat="41.71097155371405" lon="12.811335706304975"><ele>367.0</ele><time>2026-05-01T16:52:39.999Z</time></trkpt><trkpt lat="41.71106578627788" lon="12.811225289511633"><ele>368.0</ele><time>2026-05-01T16:52:40.999Z</time></trkpt><trkpt lat="41.71116606247986" lon="12.81111894119306"><ele>369.0</ele><time>2026-05-01T16:52:41.999Z</time></trkpt><trkpt lat="41.711269163031695" lon="12.811019527961971"><ele>370.0</ele><time>2026-05-01T16:52:42.999Z</time></trkpt><trkpt lat="41.7113710394099" lon="12.810925039111579"><ele>371.0</ele><time>2026-05-01T16:52:43.999Z</time></trkpt><trkpt lat="41.711472083375185" lon="12.810829494903656"><ele>372.0</ele><time>2026-05-01T16:52:44.999Z</time></trkpt><trkpt lat="41.7115721061525" lon="12.810743421516975"><ele>372.5</ele><time>2026-05-01T16:52:45.999Z</time></trkpt><trkpt lat="41.71167479181451" lon="12.810666127401502"><ele>373.0</ele><time>2026-05-01T16:52:46.999Z</time></trkpt><trkpt lat="41.71177863808426" lon="12.810596938057026"><ele>373.5</ele><time>2026-05-01T16:52:47.999Z</time></trkpt><trkpt lat="41.71188931863753" lon="12.810544462444538"><ele>374.0</ele><time>2026-05-01T16:52:48.999Z</time></trkpt><trkpt lat="41.712004194781024" lon="12.810511701272201"><ele>375.25</ele><time>2026-05-01T16:52:49.999Z</time></trkpt><trkpt lat="41.71212105294884" lon="12.810486007017776"><ele>376.5</ele><time>2026-05-01T16:52:50.999Z</time></trkpt><trkpt lat="41.7122364300437" lon="12.810451190049001"><ele>377.75</ele><time>2026-05-01T16:52:51.999Z</time></trkpt><trkpt lat="41.71234216755628" lon="12.810393952811955"><ele>379.0</ele><time>2026-05-01T16:52:52.999Z</time></trkpt><trkpt lat="41.71243994881769" lon="12.8103182863274"><ele>379.0</ele><time>2026-05-01T16:52:53.999Z</time></trkpt><trkpt lat="41.71253396545069" lon="12.810240102231083"><ele>379.0</ele><time>2026-05-01T16:52:54.999Z</time></trkpt><trkpt lat="41.712631635646595" lon="12.810157541011575"><ele>379.0</ele><time>2026-05-01T16:52:55.999Z</time></trkpt><trkpt lat="41.71273452283744" lon="12.810069346155"><ele>379.0</ele><time>2026-05-01T16:52:56.999Z</time></trkpt><trkpt lat="41.71283503253046" lon="12.809971654041687"><ele>381.25</ele><time>2026-05-01T16:52:57.999Z</time></trkpt><trkpt lat="41.71293630053518" lon="12.809867224006545"><ele>383.5</ele><time>2026-05-01T16:52:58.999Z</time></trkpt><trkpt lat="41.713040256712965" lon="12.809763400385007"><ele>385.75</ele><time>2026-05-01T16:52:59.999Z</time></trkpt><trkpt lat="41.71314687674601" lon="12.809654303286075"><ele>388.0</ele><time>2026-05-01T16:53:00.998Z</time></trkpt><trkpt lat="41.71326020756569" lon="12.809543472425366"><ele>388.0</ele><time>2026-05-01T16:53:01.998Z</time></trkpt><trkpt lat="41.71337588885188" lon="12.809446757876923"><ele>388.0</ele><time>2026-05-01T16:53:02.998Z</time></trkpt><trkpt lat="41.713490266531764" lon="12.80936138928809"><ele>388.0</ele><time>2026-05-01T16:53:03.998Z</time></trkpt><trkpt lat="41.71361008437023" lon="12.809281918291486"><ele>388.0</ele><time>2026-05-01T16:53:04.998Z</time></trkpt><trkpt lat="41.7137309736673" lon="12.809193513893993"><ele>389.0</ele><time>2026-05-01T16:53:05.998Z</time></trkpt><trkpt lat="41.71385347788818" lon="12.809109404763564"><ele>390.0</ele><time>2026-05-01T16:53:06.998Z</time></trkpt><trkpt lat="41.71397968804187" lon="12.8090291597175"><ele>391.0</ele><time>2026-05-01T16:53:07.998Z</time></trkpt><trkpt lat="41.71410234608306" lon="12.808938358814933"><ele>392.0</ele><time>2026-05-01T16:53:08.998Z</time></trkpt><trkpt lat="41.71422580205609" lon="12.80884747416336"><ele>392.0</ele><time>2026-05-01T16:53:09.998Z</time></trkpt><trkpt lat="41.71434656481004" lon="12.808751690759513"><ele>392.0</ele><time>2026-05-01T16:53:10.998Z</time></trkpt><trkpt lat="41.71446923144036" lon="12.808654787173454"><ele>392.0</ele><time>2026-05-01T16:53:11.998Z</time></trkpt><trkpt lat="41.714592432792955" lon="12.808558381872343"><ele>392.0</ele><time>2026-05-01T16:53:12.998Z</time></trkpt><trkpt lat="41.71471499734298" lon="12.808462380897481"><ele>393.5</ele><time>2026-05-01T16:53:13.998Z</time></trkpt><trkpt lat="41.71483892420678" lon="12.808363477348284"><ele>395.0</ele><time>2026-05-01T16:53:14.998Z</time></trkpt><trkpt lat="41.7149617201648" lon="12.808262680255568"><ele>396.5</ele><time>2026-05-01T16:53:15.998Z</time></trkpt><trkpt lat="41.71508231158523" lon="12.808161100281458"><ele>398.0</ele><time>2026-05-01T16:53:16.998Z</time></trkpt><trkpt lat="41.71520296425488" lon="12.808053605942856"><ele>400.5</ele><time>2026-05-01T16:53:17.998Z</time></trkpt><trkpt lat="41.71532851875162" lon="12.80795804741823"><ele>403.0</ele><time>2026-05-01T16:53:18.998Z</time></trkpt><trkpt lat="41.71545236865707" lon="12.807866157446416"><ele>405.5</ele><time>2026-05-01T16:53:19.998Z</time></trkpt><trkpt lat="41.71557309488342" lon="12.807764287062714"><ele>408.0</ele><time>2026-05-01T16:53:20.998Z</time></trkpt><trkpt lat="41.715688476321766" lon="12.807654168495063"><ele>408.0</ele><time>2026-05-01T16:53:21.998Z</time></trkpt><trkpt lat="41.715799736600296" lon="12.807534581867172"><ele>408.0</ele><time>2026-05-01T16:53:22.998Z</time></trkpt><trkpt lat="41.71590448181757" lon="12.807405374137991"><ele>408.0</ele><time>2026-05-01T16:53:23.998Z</time></trkpt><trkpt lat="41.71600948878429" lon="12.807279403720393"><ele>408.0</ele><time>2026-05-01T16:53:24.998Z</time></trkpt><trkpt lat="41.71611660490486" lon="12.807157798553916"><ele>410.0</ele><time>2026-05-01T16:53:25.998Z</time></trkpt><trkpt lat="41.71622179851175" lon="12.807033547173583"><ele>412.0</ele><time>2026-05-01T16:53:26.998Z</time></trkpt><trkpt lat="41.71632981425391" lon="12.8069126192085"><ele>414.0</ele><time>2026-05-01T16:53:27.998Z</time></trkpt><trkpt lat="41.716436006498135" lon="12.806783819794099"><ele>416.0</ele><time>2026-05-01T16:53:28.998Z</time></trkpt><trkpt lat="41.716558012724356" lon="12.80667486475004"><ele>416.25</ele><time>2026-05-01T16:53:29.998Z</time></trkpt><trkpt lat="41.71666732986845" lon="12.80655072616318"><ele>416.5</ele><time>2026-05-01T16:53:30.998Z</time></trkpt><trkpt lat="41.71677689846334" lon="12.806423073571084"><ele>416.75</ele><time>2026-05-01T16:53:31.998Z</time></trkpt><trkpt lat="41.71687245037541" lon="12.806282150824783"><ele>417.0</ele><time>2026-05-01T16:53:32.998Z</time></trkpt><trkpt lat="41.71697652592099" lon="12.80615216556628"><ele>419.25</ele><time>2026-05-01T16:53:34Z</time></trkpt><trkpt lat="41.71707323978397" lon="12.806015850484192"><ele>421.5</ele><time>2026-05-01T16:53:35Z</time></trkpt><trkpt lat="41.71716420872794" lon="12.805878277713466"><ele>423.75</ele><time>2026-05-01T16:53:36Z</time></trkpt><trkpt lat="41.717274383150496" lon="12.805774852539548"><ele>426.0</ele><time>2026-05-01T16:53:37Z</time></trkpt><trkpt lat="41.717382827630104" lon="12.805678252084698"><ele>427.0</ele><time>2026-05-01T16:53:38Z</time></trkpt><trkpt lat="41.717485117700264" lon="12.805570655247713"><ele>428.0</ele><time>2026-05-01T16:53:39Z</time></trkpt><trkpt lat="41.71758878035762" lon="12.805496968739176"><ele>429.0</ele><time>2026-05-01T16:53:40Z</time></trkpt><trkpt lat="41.717685221088416" lon="12.805424254295929"><ele>430.0</ele><time>2026-05-01T16:53:41Z</time></trkpt><trkpt lat="41.71777312080729" lon="12.805349988463094"><ele>430.83333333333337</ele><time>2026-05-01T16:53:42Z</time></trkpt><trkpt lat="41.71785971464645" lon="12.805279237905062"><ele>431.6666666666667</ele><time>2026-05-01T16:53:43Z</time></trkpt><trkpt lat="41.71794742189893" lon="12.805213960181867"><ele>432.5</ele><time>2026-05-01T16:53:44Z</time></trkpt><trkpt lat="41.71802964767607" lon="12.805163519821606"><ele>433.33333333333337</ele><time>2026-05-01T16:53:45Z</time></trkpt><trkpt lat="41.718106913122774" lon="12.805129231903845"><ele>434.1666666666667</ele><time>2026-05-01T16:53:46Z</time></trkpt><trkpt lat="41.71817233495695" lon="12.805106061277602"><ele>435.0</ele><time>2026-05-01T16:53:47Z</time></trkpt><trkpt lat="41.71826118835385" lon="12.80500915142355"><ele>435.1666666666667</ele><time>2026-05-01T16:53:49Z</time></trkpt><trkpt lat="41.71827398500566" lon="12.804913877750302"><ele>435.33333333333337</ele><time>2026-05-01T16:53:50Z</time></trkpt><trkpt lat="41.718266807675384" lon="12.804808265042029"><ele>435.5</ele><time>2026-05-01T16:53:51Z</time></trkpt><trkpt lat="41.71823622120662" lon="12.80470396722961"><ele>435.6666666666667</ele><time>2026-05-01T16:53:52Z</time></trkpt><trkpt lat="41.71821865003193" lon="12.804597258869599"><ele>435.83333333333337</ele><time>2026-05-01T16:53:53Z</time></trkpt><trkpt lat="41.71821140154966" lon="12.80447023905041"><ele>436.0</ele><time>2026-05-01T16:53:54Z</time></trkpt><trkpt lat="41.718214673633604" lon="12.804374735701726"><ele>435.4</ele><time>2026-05-01T16:53:55Z</time></trkpt><trkpt lat="41.71823682895725" lon="12.804274296420969"><ele>434.8</ele><time>2026-05-01T16:53:56Z</time></trkpt><trkpt lat="41.7182730351441" lon="12.804164687235117"><ele>434.19999999999993</ele><time>2026-05-01T16:53:57Z</time></trkpt><trkpt lat="41.718311134685024" lon="12.804044907128004"><ele>433.59999999999997</ele><time>2026-05-01T16:53:58Z</time></trkpt><trkpt lat="41.71834179190259" lon="12.80391818348862"><ele>433.0</ele><time>2026-05-01T16:53:59Z</time></trkpt><trkpt lat="41.718381733938315" lon="12.80379851097763"><ele>433.0</ele><time>2026-05-01T16:54:00Z</time></trkpt><trkpt lat="41.71843695135621" lon="12.803684159522879"><ele>432.99999999999994</ele><time>2026-05-01T16:54:01Z</time></trkpt><trkpt lat="41.71849076884027" lon="12.803567407519212"><ele>432.99999999999994</ele><time>2026-05-01T16:54:02Z</time></trkpt><trkpt lat="41.71856419128394" lon="12.803477906464522"><ele>433.0</ele><time>2026-05-01T16:54:03Z</time></trkpt><trkpt lat="41.718624094004355" lon="12.803354005572631"><ele>433.0</ele><time>2026-05-01T16:54:04Z</time></trkpt><trkpt lat="41.7186924473244" lon="12.803252575307917"><ele>433.79999999999995</ele><time>2026-05-01T16:54:05Z</time></trkpt><trkpt lat="41.71876914423501" lon="12.803157740350638"><ele>434.59999999999997</ele><time>2026-05-01T16:54:06Z</time></trkpt><trkpt lat="41.71881766630438" lon="12.80303745773785"><ele>435.40000000000003</ele><time>2026-05-01T16:54:07Z</time></trkpt><trkpt lat="41.71886835939697" lon="12.802917333556497"><ele>436.20000000000005</ele><time>2026-05-01T16:54:08Z</time></trkpt><trkpt lat="41.71891909257065" lon="12.802797301659364"><ele>437.0</ele><time>2026-05-01T16:54:09Z</time></trkpt><trkpt lat="41.71896604736887" lon="12.802688774784624"><ele>435.16666666666663</ele><time>2026-05-01T16:54:10Z</time></trkpt><trkpt lat="41.71899485856178" lon="12.80259393060578"><ele>433.3333333333333</ele><time>2026-05-01T16:54:11Z</time></trkpt><trkpt lat="41.71901356792749" lon="12.802502288863574"><ele>431.5</ele><time>2026-05-01T16:54:12Z</time></trkpt><trkpt lat="41.71899970758307" lon="12.802418552318347"><ele>429.66666666666663</ele><time>2026-05-01T16:54:13Z</time></trkpt><trkpt lat="41.71896183738404" lon="12.802346643186405"><ele>427.8333333333333</ele><time>2026-05-01T16:54:14Z</time></trkpt><trkpt lat="41.71885397543669" lon="12.802282962416706"><ele>426.0</ele><time>2026-05-01T16:54:15.999Z</time></trkpt><trkpt lat="41.71876078038541" lon="12.802292378137986"><ele>426.0</ele><time>2026-05-01T16:54:16.999Z</time></trkpt><trkpt lat="41.718655023147925" lon="12.80230049664758"><ele>426.0</ele><time>2026-05-01T16:54:17.999Z</time></trkpt><trkpt lat="41.718552864829554" lon="12.802311295204927"><ele>426.0</ele><time>2026-05-01T16:54:18.999Z</time></trkpt><trkpt lat="41.71844772396002" lon="12.802331015917426"><ele>426.0</ele><time>2026-05-01T16:54:19.999Z</time></trkpt><trkpt lat="41.71833979443842" lon="12.802344137596075"><ele>426.0</ele><time>2026-05-01T16:54:20.999Z</time></trkpt><trkpt lat="41.71823882307455" lon="12.802358957645568"><ele>425.25</ele><time>2026-05-01T16:54:21.999Z</time></trkpt><trkpt lat="41.71813184400285" lon="12.802371894933101"><ele>424.5</ele><time>2026-05-01T16:54:22.999Z</time></trkpt><trkpt lat="41.718017177003226" lon="12.802379189322355"><ele>423.75</ele><time>2026-05-01T16:54:23.999Z</time></trkpt><trkpt lat="41.717903828967636" lon="12.80238201013303"><ele>423.0</ele><time>2026-05-01T16:54:24.999Z</time></trkpt><trkpt lat="41.717786194058746" lon="12.802416168475126"><ele>423.75</ele><time>2026-05-01T16:54:25.999Z</time></trkpt><trkpt lat="41.717673666424425" lon="12.802431887496951"><ele>424.5</ele><time>2026-05-01T16:54:26.999Z</time></trkpt><trkpt lat="41.7175608924485" lon="12.802473115549821"><ele>425.25</ele><time>2026-05-01T16:54:27.999Z</time></trkpt><trkpt lat="41.71743903984595" lon="12.802511347226885"><ele>426.0</ele><time>2026-05-01T16:54:28.999Z</time></trkpt><trkpt lat="41.717327511695075" lon="12.802540371451379"><ele>426.0</ele><time>2026-05-01T16:54:29.999Z</time></trkpt><trkpt lat="41.71721162058826" lon="12.802583412800363"><ele>426.0</ele><time>2026-05-01T16:54:30.999Z</time></trkpt><trkpt lat="41.717094780961645" lon="12.802632058170364"><ele>426.0</ele><time>2026-05-01T16:54:31.999Z</time></trkpt><trkpt lat="41.71697515397951" lon="12.802676561307194"><ele>426.0</ele><time>2026-05-01T16:54:32.999Z</time></trkpt><trkpt lat="41.716853247554816" lon="12.80270854182507"><ele>425.0</ele><time>2026-05-01T16:54:33.999Z</time></trkpt><trkpt lat="41.71673051118236" lon="12.802717629238767"><ele>424.0</ele><time>2026-05-01T16:54:34.999Z</time></trkpt><trkpt lat="41.71661339315254" lon="12.802696061386184"><ele>423.0</ele><time>2026-05-01T16:54:35.999Z</time></trkpt><trkpt lat="41.716500748666384" lon="12.802684398873916"><ele>422.0</ele><time>2026-05-01T16:54:36.999Z</time></trkpt><trkpt lat="41.71639507107605" lon="12.802693403954562"><ele>422.0</ele><time>2026-05-01T16:54:37.999Z</time></trkpt><trkpt lat="41.71629813637067" lon="12.80268654025072"><ele>422.0</ele><time>2026-05-01T16:54:38.999Z</time></trkpt><trkpt lat="41.71619707424919" lon="12.802664810766657"><ele>422.0</ele><time>2026-05-01T16:54:39.999Z</time></trkpt><trkpt lat="41.71609771702905" lon="12.802626585906665"><ele>422.0</ele><time>2026-05-01T16:54:40.999Z</time></trkpt><trkpt lat="41.71599793582867" lon="12.802589070946784"><ele>422.0</ele><time>2026-05-01T16:54:41.999Z</time></trkpt><trkpt lat="41.715893457302826" lon="12.802557002422965"><ele>424.0</ele><time>2026-05-01T16:54:42.999Z</time></trkpt><trkpt lat="41.715776359161545" lon="12.8025282228404"><ele>426.0</ele><time>2026-05-01T16:54:43.999Z</time></trkpt><trkpt lat="41.71565962290531" lon="12.802477629412452"><ele>428.0</ele><time>2026-05-01T16:54:44.999Z</time></trkpt><trkpt lat="41.71555020551589" lon="12.802435067360925"><ele>430.0</ele><time>2026-05-01T16:54:45.999Z</time></trkpt><trkpt lat="41.71544358669478" lon="12.802383505306468"><ele>430.0</ele><time>2026-05-01T16:54:46.999Z</time></trkpt><trkpt lat="41.715353127366306" lon="12.802302889699272"><ele>430.0</ele><time>2026-05-01T16:54:47.999Z</time></trkpt><trkpt lat="41.715267313504384" lon="12.802210952106455"><ele>430.0</ele><time>2026-05-01T16:54:48.999Z</time></trkpt><trkpt lat="41.71517738577934" lon="12.802124858848009"><ele>430.0</ele><time>2026-05-01T16:54:49.999Z</time></trkpt><trkpt lat="41.71507501641885" lon="12.802054785167266"><ele>430.0</ele><time>2026-05-01T16:54:50.999Z</time></trkpt><trkpt lat="41.714979400773515" lon="12.801965345374418"><ele>430.2</ele><time>2026-05-01T16:54:51.999Z</time></trkpt><trkpt lat="41.71489455457981" lon="12.801880367480827"><ele>430.4</ele><time>2026-05-01T16:54:52.999Z</time></trkpt><trkpt lat="41.71480816516732" lon="12.801803886855403"><ele>430.6</ele><time>2026-05-01T16:54:53.999Z</time></trkpt><trkpt lat="41.71472136881184" lon="12.801727556318493"><ele>430.8</ele><time>2026-05-01T16:54:54.999Z</time></trkpt><trkpt lat="41.71463627691925" lon="12.801648444017797"><ele>431.0</ele><time>2026-05-01T16:54:55.999Z</time></trkpt><trkpt lat="41.71454947758475" lon="12.801555788035673"><ele>431.0</ele><time>2026-05-01T16:54:56.999Z</time></trkpt><trkpt lat="41.71447370950734" lon="12.80146216232625"><ele>431.0</ele><time>2026-05-01T16:54:57.999Z</time></trkpt><trkpt lat="41.71440345302861" lon="12.801357094213262"><ele>431.0</ele><time>2026-05-01T16:54:58.999Z</time></trkpt><trkpt lat="41.714343811565406" lon="12.801249279710866"><ele>431.0</ele><time>2026-05-01T16:54:59.999Z</time></trkpt><trkpt lat="41.71428285360662" lon="12.801147849609606"><ele>431.0</ele><time>2026-05-01T16:55:00.999Z</time></trkpt><trkpt lat="41.71423726978031" lon="12.801067763187191"><ele>431.6</ele><time>2026-05-01T16:55:01.999Z</time></trkpt><trkpt lat="41.71417032631899" lon="12.80097024074286"><ele>432.20000000000005</ele><time>2026-05-01T16:55:03.999Z</time></trkpt><trkpt lat="41.71426284284448" lon="12.800996156901364"><ele>432.79999999999995</ele><time>2026-05-01T16:55:05.999Z</time></trkpt><trkpt lat="41.714429332290486" lon="12.800914724278664"><ele>433.4</ele><time>2026-05-01T16:55:09.999Z</time></trkpt><trkpt lat="41.71449618351037" lon="12.800882711397644"><ele>434.0</ele><time>2026-05-01T16:55:10.998Z</time></trkpt><trkpt lat="41.71456045041566" lon="12.800853893183687"><ele>434.0</ele><time>2026-05-01T16:55:11.998Z</time></trkpt><trkpt lat="41.7146370305502" lon="12.800830279392521"><ele>434.0</ele><time>2026-05-01T16:55:12.998Z</time></trkpt><trkpt lat="41.71472377183451" lon="12.800811181111005"><ele>434.0</ele><time>2026-05-01T16:55:13.998Z</time></trkpt><trkpt lat="41.71482123752441" lon="12.800789076634578"><ele>434.0</ele><time>2026-05-01T16:55:14.998Z</time></trkpt><trkpt lat="41.714926885136705" lon="12.800763717768003"><ele>434.0</ele><time>2026-05-01T16:55:15.998Z</time></trkpt><trkpt lat="41.71501531287967" lon="12.800736852324706"><ele>434.0</ele><time>2026-05-01T16:55:16.998Z</time></trkpt><trkpt lat="41.71511634625225" lon="12.800703385722926"><ele>434.0</ele><time>2026-05-01T16:55:17.998Z</time></trkpt><trkpt lat="41.71520724274777" lon="12.80066938136431"><ele>434.0</ele><time>2026-05-01T16:55:18.998Z</time></trkpt><trkpt lat="41.71528767750702" lon="12.800637875962193"><ele>434.0</ele><time>2026-05-01T16:55:19.998Z</time></trkpt><trkpt lat="41.71537922058818" lon="12.800598412423302"><ele>434.0</ele><time>2026-05-01T16:55:20.998Z</time></trkpt><trkpt lat="41.71545856460039" lon="12.800562057163326"><ele>435.3333333333333</ele><time>2026-05-01T16:55:21.998Z</time></trkpt><trkpt lat="41.7155215664441" lon="12.80053620020264"><ele>436.66666666666663</ele><time>2026-05-01T16:55:22.998Z</time></trkpt><trkpt lat="41.71559153870511" lon="12.800509276730015"><ele>438.0</ele><time>2026-05-01T16:55:23.998Z</time></trkpt><trkpt lat="41.7156730796436" lon="12.800486153507862"><ele>439.33333333333337</ele><time>2026-05-01T16:55:24.998Z</time></trkpt><trkpt lat="41.71576121162921" lon="12.800472693421892"><ele>440.6666666666667</ele><time>2026-05-01T16:55:25.998Z</time></trkpt><trkpt lat="41.71584472107998" lon="12.800467126213695"><ele>442.0</ele><time>2026-05-01T16:55:26.998Z</time></trkpt><trkpt lat="41.715929582025595" lon="12.800464613673634"><ele>442.00000000000006</ele><time>2026-05-01T16:55:27.998Z</time></trkpt><trkpt lat="41.716008656277914" lon="12.80045916952446"><ele>442.0</ele><time>2026-05-01T16:55:28.998Z</time></trkpt><trkpt lat="41.716083622039264" lon="12.80044680794545"><ele>442.0</ele><time>2026-05-01T16:55:29.998Z</time></trkpt><trkpt lat="41.71615481224071" lon="12.800432117739122"><ele>442.0</ele><time>2026-05-01T16:55:30.998Z</time></trkpt><trkpt lat="41.7162223499743" lon="12.800391306082368"><ele>442.0</ele><time>2026-05-01T16:55:31.998Z</time></trkpt><trkpt lat="41.71629473484351" lon="12.80038555200263"><ele>442.00000000000006</ele><time>2026-05-01T16:55:32.998Z</time></trkpt><trkpt lat="41.71635632778813" lon="12.800355238471637"><ele>442.0</ele><time>2026-05-01T16:55:33.998Z</time></trkpt><trkpt lat="41.71641491618484" lon="12.800319206030933"><ele>443.0</ele><time>2026-05-01T16:55:34.998Z</time></trkpt><trkpt lat="41.716477416329916" lon="12.800289124439717"><ele>444.00000000000006</ele><time>2026-05-01T16:55:35.998Z</time></trkpt><trkpt lat="41.71658394386621" lon="12.800180570332106"><ele>445.00000000000006</ele><time>2026-05-01T16:55:37.998Z</time></trkpt><trkpt lat="41.716635897956245" lon="12.800129010848986"><ele>446.0</ele><time>2026-05-01T16:55:38.998Z</time></trkpt><trkpt lat="41.71672595547152" lon="12.800043138584211"><ele>447.0</ele><time>2026-05-01T16:55:41Z</time></trkpt><trkpt lat="41.71682263154056" lon="12.799983881734086"><ele>447.8333333333333</ele><time>2026-05-01T16:55:43Z</time></trkpt><trkpt lat="41.71689029831352" lon="12.799920334463673"><ele>448.66666666666663</ele><time>2026-05-01T16:55:45Z</time></trkpt><trkpt lat="41.7169220680002" lon="12.799837183332642"><ele>449.5</ele><time>2026-05-01T16:56:26.999Z</time></trkpt><trkpt lat="41.71697224305522" lon="12.79975108846561"><ele>450.3333333333333</ele><time>2026-05-01T16:56:29.999Z</time></trkpt><trkpt lat="41.717042205182175" lon="12.799687793100459"><ele>451.16666666666663</ele><time>2026-05-01T16:56:31.999Z</time></trkpt><trkpt lat="41.71711696844048" lon="12.799620877305605"><ele>452.0</ele><time>2026-05-01T16:56:33.999Z</time></trkpt><trkpt lat="41.717186594461104" lon="12.799546880977978"><ele>452.99999999999994</ele><time>2026-05-01T16:56:35.999Z</time></trkpt><trkpt lat="41.7172573941436" lon="12.799490093379278"><ele>454.0</ele><time>2026-05-01T16:56:37.999Z</time></trkpt><trkpt lat="41.71731135200485" lon="12.799433785932326"><ele>455.0</ele><time>2026-05-01T16:56:39.999Z</time></trkpt><trkpt lat="41.7173701963019" lon="12.799376690103152"><ele>456.0</ele><time>2026-05-01T16:56:41.999Z</time></trkpt><trkpt lat="41.71744648598547" lon="12.799317666160626"><ele>456.99999999999994</ele><time>2026-05-01T16:56:43.999Z</time></trkpt><trkpt lat="41.717511183950506" lon="12.799246122491754"><ele>458.0</ele><time>2026-05-01T16:56:45.999Z</time></trkpt><trkpt lat="41.71757574318464" lon="12.79919100495196"><ele>458.57142857142856</ele><time>2026-05-01T16:56:47.999Z</time></trkpt><trkpt lat="41.71763371455531" lon="12.799133922977452"><ele>459.14285714285717</ele><time>2026-05-01T16:56:49.999Z</time></trkpt><trkpt lat="41.71770381010402" lon="12.79909436254362"><ele>459.7142857142857</ele><time>2026-05-01T16:56:51.999Z</time></trkpt><trkpt lat="41.71776377503016" lon="12.799042917849702"><ele>460.2857142857143</ele><time>2026-05-01T16:56:53.999Z</time></trkpt><trkpt lat="41.71783329091592" lon="12.798987490598734"><ele>460.8571428571429</ele><time>2026-05-01T16:56:55.999Z</time></trkpt><trkpt lat="41.717896470046064" lon="12.798948671084277"><ele>461.42857142857144</ele><time>2026-05-01T16:56:57.999Z</time></trkpt><trkpt lat="41.717954572986116" lon="12.798898036186737"><ele>462.0</ele><time>2026-05-01T16:56:59.999Z</time></trkpt><trkpt lat="41.71801598083227" lon="12.798848190961118"><ele>463.3333333333333</ele><time>2026-05-01T16:57:01.999Z</time></trkpt><trkpt lat="41.71808511135973" lon="12.798816975920246"><ele>464.66666666666663</ele><time>2026-05-01T16:57:03.999Z</time></trkpt><trkpt lat="41.718154377747894" lon="12.798761510533533"><ele>466.0</ele><time>2026-05-01T16:57:05.999Z</time></trkpt><trkpt lat="41.718234972447014" lon="12.798713545553186"><ele>467.3333333333333</ele><time>2026-05-01T16:57:07.999Z</time></trkpt><trkpt lat="41.71832108165579" lon="12.79866087235"><ele>468.66666666666663</ele><time>2026-05-01T16:57:09.999Z</time></trkpt><trkpt lat="41.71840178984278" lon="12.7985933341555"><ele>470.0</ele><time>2026-05-01T16:57:11.999Z</time></trkpt><trkpt lat="41.71847135240098" lon="12.798588840680077"><ele>470.0</ele><time>2026-05-01T16:57:13.999Z</time></trkpt><trkpt lat="41.718552363498276" lon="12.79858484794288"><ele>470.0</ele><time>2026-05-01T16:57:15.998Z</time></trkpt><trkpt lat="41.71866413289768" lon="12.798589089780773"><ele>470.0</ele><time>2026-05-01T16:57:17.998Z</time></trkpt><trkpt lat="41.71877079008884" lon="12.798602109298379"><ele>470.0</ele><time>2026-05-01T16:57:19.998Z</time></trkpt><trkpt lat="41.718867495996825" lon="12.798595799594574"><ele>470.0</ele><time>2026-05-01T16:57:21.998Z</time></trkpt><trkpt lat="41.718933678029295" lon="12.798563529905568"><ele>469.99999999999994</ele><time>2026-05-01T16:57:23.998Z</time></trkpt><trkpt lat="41.71900001843414" lon="12.798496423531404"><ele>470.0</ele><time>2026-05-01T16:57:26.998Z</time></trkpt><trkpt lat="41.718943565053415" lon="12.798564512616048"><ele>470.0</ele><time>2026-05-01T16:59:03.999Z</time></trkpt><trkpt lat="41.71887896296461" lon="12.798603961147657"><ele>470.0</ele><time>2026-05-01T16:59:06.999Z</time></trkpt><trkpt lat="41.71881153616793" lon="12.79861969732554"><ele>469.99999999999994</ele><time>2026-05-01T16:59:09.998Z</time></trkpt><trkpt lat="41.718723720863935" lon="12.79862851102467"><ele>470.0</ele><time>2026-05-01T16:59:42.998Z</time></trkpt><trkpt lat="41.718608869303736" lon="12.79861179795248"><ele>469.99999999999994</ele><time>2026-05-01T16:59:44.998Z</time></trkpt><trkpt lat="41.71853649427851" lon="12.798611223629388"><ele>470.0</ele><time>2026-05-01T16:59:45.998Z</time></trkpt><trkpt lat="41.71846304483844" lon="12.798621877868863"><ele>470.0</ele><time>2026-05-01T16:59:46.998Z</time></trkpt><trkpt lat="41.718388473864756" lon="12.798647923866426"><ele>470.0</ele><time>2026-05-01T16:59:47.998Z</time></trkpt><trkpt lat="41.7183135971215" lon="12.798698869897192"><ele>469.99999999999994</ele><time>2026-05-01T16:59:48.998Z</time></trkpt><trkpt lat="41.71824086566941" lon="12.798762143917996"><ele>470.0</ele><time>2026-05-01T16:59:49.998Z</time></trkpt><trkpt lat="41.71816769576696" lon="12.798818472861418"><ele>469.99999999999994</ele><time>2026-05-01T16:59:50.999Z</time></trkpt><trkpt lat="41.71809284673756" lon="12.798869328321299"><ele>470.0</ele><time>2026-05-01T16:59:51.999Z</time></trkpt><trkpt lat="41.71801935524057" lon="12.798919998325852"><ele>470.0</ele><time>2026-05-01T16:59:52.999Z</time></trkpt><trkpt lat="41.717944619749126" lon="12.798965432692286"><ele>470.0</ele><time>2026-05-01T16:59:53.999Z</time></trkpt><trkpt lat="41.717871817069465" lon="12.799013074152159"><ele>469.99999999999994</ele><time>2026-05-01T16:59:54.999Z</time></trkpt><trkpt lat="41.71780494973116" lon="12.799064757518568"><ele>470.0</ele><time>2026-05-01T16:59:55.999Z</time></trkpt><trkpt lat="41.717730540885896" lon="12.799120476745342"><ele>468.66666666666663</ele><time>2026-05-01T16:59:56.999Z</time></trkpt><trkpt lat="41.7176655736216" lon="12.799174926026645"><ele>467.3333333333333</ele><time>2026-05-01T16:59:57.999Z</time></trkpt><trkpt lat="41.71760266364374" lon="12.799232394621285"><ele>466.0</ele><time>2026-05-01T16:59:58.999Z</time></trkpt><trkpt lat="41.71753889531205" lon="12.799289992797531"><ele>464.66666666666663</ele><time>2026-05-01T16:59:59.999Z</time></trkpt><trkpt lat="41.7174757918801" lon="12.79936387883545"><ele>463.3333333333333</ele><time>2026-05-01T17:00:00.999Z</time></trkpt><trkpt lat="41.717410134033706" lon="12.799434850844843"><ele>462.0</ele><time>2026-05-01T17:00:01.999Z</time></trkpt><trkpt lat="41.71734485021949" lon="12.79950075892385"><ele>461.3333333333333</ele><time>2026-05-01T17:00:02.999Z</time></trkpt><trkpt lat="41.71728023887631" lon="12.799563481751814"><ele>460.66666666666663</ele><time>2026-05-01T17:00:03.999Z</time></trkpt><trkpt lat="41.71721550942184" lon="12.799619260983109"><ele>460.0</ele><time>2026-05-01T17:00:04.999Z</time></trkpt><trkpt lat="41.71715164274569" lon="12.799676624841963"><ele>459.3333333333333</ele><time>2026-05-01T17:00:05.999Z</time></trkpt><trkpt lat="41.71708251379874" lon="12.799732637457758"><ele>458.66666666666663</ele><time>2026-05-01T17:00:06.999Z</time></trkpt><trkpt lat="41.71700058674122" lon="12.79975343234038"><ele>458.0</ele><time>2026-05-01T17:00:07.999Z</time></trkpt><trkpt lat="41.716942245844486" lon="12.799812369342865"><ele>457.1428571428571</ele><time>2026-05-01T17:00:08.999Z</time></trkpt><trkpt lat="41.71688120624266" lon="12.799874031163585"><ele>456.28571428571433</ele><time>2026-05-01T17:00:09.999Z</time></trkpt><trkpt lat="41.71682167229094" lon="12.799930853195244"><ele>455.42857142857144</ele><time>2026-05-01T17:00:10.999Z</time></trkpt><trkpt lat="41.71676280989326" lon="12.799984134303894"><ele>454.57142857142856</ele><time>2026-05-01T17:00:11.999Z</time></trkpt><trkpt lat="41.71670279723134" lon="12.800034167590692"><ele>453.71428571428567</ele><time>2026-05-01T17:00:12.999Z</time></trkpt><trkpt lat="41.716638591662935" lon="12.80008862149138"><ele>452.8571428571429</ele><time>2026-05-01T17:00:13.999Z</time></trkpt><trkpt lat="41.71657225008145" lon="12.800145651662515"><ele>452.0</ele><time>2026-05-01T17:00:14.999Z</time></trkpt><trkpt lat="41.71650636359719" lon="12.80020045095628"><ele>451.2857142857143</ele><time>2026-05-01T17:00:15.999Z</time></trkpt><trkpt lat="41.71644481298644" lon="12.800251644378541"><ele>450.57142857142856</ele><time>2026-05-01T17:00:16.999Z</time></trkpt><trkpt lat="41.716387841556966" lon="12.800290608585671"><ele>449.85714285714283</ele><time>2026-05-01T17:00:17.999Z</time></trkpt><trkpt lat="41.716325486545784" lon="12.80032759066735"><ele>449.1428571428571</ele><time>2026-05-01T17:00:18.999Z</time></trkpt><trkpt lat="41.716257607815095" lon="12.800357823104212"><ele>448.42857142857144</ele><time>2026-05-01T17:00:19.999Z</time></trkpt><trkpt lat="41.71619346645997" lon="12.800376136294476"><ele>447.71428571428567</ele><time>2026-05-01T17:00:20.999Z</time></trkpt><trkpt lat="41.71612331185231" lon="12.800393580491853"><ele>447.0</ele><time>2026-05-01T17:00:21.999Z</time></trkpt><trkpt lat="41.71605067352714" lon="12.800407737621613"><ele>446.1666666666667</ele><time>2026-05-01T17:00:22.999Z</time></trkpt><trkpt lat="41.71597545016877" lon="12.800420911174259"><ele>445.33333333333337</ele><time>2026-05-01T17:00:23.999Z</time></trkpt><trkpt lat="41.71589899413939" lon="12.80042104904381"><ele>444.5</ele><time>2026-05-01T17:00:24.999Z</time></trkpt><trkpt lat="41.715819374530774" lon="12.80042327290962"><ele>443.6666666666667</ele><time>2026-05-01T17:00:25.999Z</time></trkpt><trkpt lat="41.715731964600614" lon="12.80043136677137"><ele>442.83333333333337</ele><time>2026-05-01T17:00:26.999Z</time></trkpt><trkpt lat="41.715645623724996" lon="12.800445546079501"><ele>442.0</ele><time>2026-05-01T17:00:27.999Z</time></trkpt><trkpt lat="41.71557147987539" lon="12.800476524554972"><ele>442.00000000000006</ele><time>2026-05-01T17:00:28.999Z</time></trkpt><trkpt lat="41.71548448849142" lon="12.8005101218253"><ele>442.0</ele><time>2026-05-01T17:00:29.999Z</time></trkpt><trkpt lat="41.71539471665167" lon="12.800544536131879"><ele>442.0</ele><time>2026-05-01T17:00:30.999Z</time></trkpt><trkpt lat="41.715315042152305" lon="12.80057927458445"><ele>442.0</ele><time>2026-05-01T17:00:31.999Z</time></trkpt><trkpt lat="41.71524245889813" lon="12.8006299190036"><ele>442.00000000000006</ele><time>2026-05-01T17:00:32.999Z</time></trkpt><trkpt lat="41.71515657557211" lon="12.800660976391907"><ele>442.0</ele><time>2026-05-01T17:00:33.999Z</time></trkpt><trkpt lat="41.71506653151986" lon="12.800692996190365"><ele>440.40000000000003</ele><time>2026-05-01T17:00:34.999Z</time></trkpt><trkpt lat="41.714963106252284" lon="12.800707913835364"><ele>438.80000000000007</ele><time>2026-05-01T17:00:35.999Z</time></trkpt><trkpt lat="41.71486909689135" lon="12.800755528666533"><ele>437.2</ele><time>2026-05-01T17:00:36.999Z</time></trkpt><trkpt lat="41.71476956411664" lon="12.800773199347448"><ele>435.6</ele><time>2026-05-01T17:00:37.999Z</time></trkpt><trkpt lat="41.71468622798926" lon="12.800774905592897"><ele>434.0</ele><time>2026-05-01T17:00:38.999Z</time></trkpt><trkpt lat="41.714609803262064" lon="12.800806950696632"><ele>433.99999999999994</ele><time>2026-05-01T17:00:39.999Z</time></trkpt><trkpt lat="41.71450155795039" lon="12.800833242754129"><ele>434.0</ele><time>2026-05-01T17:00:40.999Z</time></trkpt><trkpt lat="41.71443206605897" lon="12.80086674934956"><ele>434.0</ele><time>2026-05-01T17:00:41.999Z</time></trkpt><trkpt lat="41.71434810027539" lon="12.800911443209273"><ele>434.0</ele><time>2026-05-01T17:00:42.999Z</time></trkpt><trkpt lat="41.71427308005488" lon="12.80096089865352"><ele>433.99999999999994</ele><time>2026-05-01T17:00:43.999Z</time></trkpt><trkpt lat="41.714205870845596" lon="12.801013050549491"><ele>434.0</ele><time>2026-05-01T17:00:44.999Z</time></trkpt><trkpt lat="41.71413176431477" lon="12.801071306987598"><ele>432.25</ele><time>2026-05-01T17:00:46.999Z</time></trkpt><trkpt lat="41.714062489070926" lon="12.801076576569622"><ele>430.5</ele><time>2026-05-01T17:00:50.999Z</time></trkpt><trkpt lat="41.71389478634875" lon="12.80078299158936"><ele>428.75</ele><time>2026-05-01T17:00:52.999Z</time></trkpt><trkpt lat="41.713854138137435" lon="12.80070819023947"><ele>427.0</ele><time>2026-05-01T17:00:53.999Z</time></trkpt><trkpt lat="41.713819651928986" lon="12.800623348183528"><ele>427.00000000000006</ele><time>2026-05-01T17:00:54.999Z</time></trkpt><trkpt lat="41.71379004780658" lon="12.800536156457243"><ele>427.0</ele><time>2026-05-01T17:00:55.999Z</time></trkpt><trkpt lat="41.71375931264415" lon="12.800437093326183"><ele>427.0</ele><time>2026-05-01T17:00:56.999Z</time></trkpt><trkpt lat="41.71372793722957" lon="12.800323566649316"><ele>427.0</ele><time>2026-05-01T17:00:57.999Z</time></trkpt><trkpt lat="41.713698812856336" lon="12.80022152118592"><ele>427.00000000000006</ele><time>2026-05-01T17:00:58.999Z</time></trkpt><trkpt lat="41.71367862970316" lon="12.800101249159672"><ele>427.0</ele><time>2026-05-01T17:00:59.999Z</time></trkpt><trkpt lat="41.713683522423786" lon="12.799951912717889"><ele>427.5</ele><time>2026-05-01T17:01:00.999Z</time></trkpt><trkpt lat="41.71370000384892" lon="12.799805554623976"><ele>428.0</ele><time>2026-05-01T17:01:01.999Z</time></trkpt><trkpt lat="41.71372457375031" lon="12.799649132616214"><ele>428.5</ele><time>2026-05-01T17:01:02.999Z</time></trkpt><trkpt lat="41.713730334598495" lon="12.799504158097115"><ele>429.0</ele><time>2026-05-01T17:01:03.999Z</time></trkpt><trkpt lat="41.713741634874495" lon="12.799354866196108"><ele>427.4</ele><time>2026-05-01T17:01:04.999Z</time></trkpt><trkpt lat="41.713760983044104" lon="12.79921858510991"><ele>425.79999999999995</ele><time>2026-05-01T17:01:05.999Z</time></trkpt><trkpt lat="41.713765638088134" lon="12.79909034506749"><ele>424.20000000000005</ele><time>2026-05-01T17:01:06.999Z</time></trkpt><trkpt lat="41.71376780993351" lon="12.79895994946138"><ele>422.6</ele><time>2026-05-01T17:01:07.999Z</time></trkpt><trkpt lat="41.71376124014945" lon="12.798830426341663"><ele>421.0</ele><time>2026-05-01T17:01:08.999Z</time></trkpt><trkpt lat="41.71375358819924" lon="12.798732369904165"><ele>421.00000000000006</ele><time>2026-05-01T17:01:09.999Z</time></trkpt><trkpt lat="41.713725557174165" lon="12.798642180767962"><ele>421.0</ele><time>2026-05-01T17:01:10.999Z</time></trkpt><trkpt lat="41.713671367196646" lon="12.798535334548582"><ele>421.0</ele><time>2026-05-01T17:01:12.998Z</time></trkpt><trkpt lat="41.713584930438294" lon="12.79853779716665"><ele>421.0</ele><time>2026-05-01T17:01:14.998Z</time></trkpt><trkpt lat="41.71352170851646" lon="12.798576583031666"><ele>421.00000000000006</ele><time>2026-05-01T17:01:15.998Z</time></trkpt><trkpt lat="41.71343710085109" lon="12.798634547325252"><ele>421.0</ele><time>2026-05-01T17:01:16.998Z</time></trkpt><trkpt lat="41.7133646076302" lon="12.798696094632495"><ele>420.6666666666667</ele><time>2026-05-01T17:01:17.998Z</time></trkpt><trkpt lat="41.71329463630113" lon="12.79875464780136"><ele>420.33333333333337</ele><time>2026-05-01T17:01:18.998Z</time></trkpt><trkpt lat="41.713222947068985" lon="12.798799962064853"><ele>420.0</ele><time>2026-05-01T17:01:19.998Z</time></trkpt><trkpt lat="41.713145483944096" lon="12.798821215322445"><ele>419.66666666666663</ele><time>2026-05-01T17:01:20.998Z</time></trkpt><trkpt lat="41.71305552856822" lon="12.798823284028456"><ele>419.3333333333333</ele><time>2026-05-01T17:01:21.998Z</time></trkpt><trkpt lat="41.712963697427774" lon="12.798811104941851"><ele>419.0</ele><time>2026-05-01T17:01:22.998Z</time></trkpt><trkpt lat="41.71285374028749" lon="12.798777610118139"><ele>419.0</ele><time>2026-05-01T17:01:23.998Z</time></trkpt><trkpt lat="41.712744238419006" lon="12.79874749128505"><ele>419.0</ele><time>2026-05-01T17:01:24.998Z</time></trkpt><trkpt lat="41.712636045561084" lon="12.798723529644219"><ele>419.0</ele><time>2026-05-01T17:01:25.998Z</time></trkpt><trkpt lat="41.71253845114227" lon="12.798698883061563"><ele>419.0</ele><time>2026-05-01T17:01:26.998Z</time></trkpt><trkpt lat="41.71245188120089" lon="12.798668204930978"><ele>419.0</ele><time>2026-05-01T17:01:27.998Z</time></trkpt><trkpt lat="41.71236564356735" lon="12.798620747593686"><ele>418.6</ele><time>2026-05-01T17:01:28.998Z</time></trkpt><trkpt lat="41.71228633257141" lon="12.798565321281265"><ele>418.2</ele><time>2026-05-01T17:01:29.998Z</time></trkpt><trkpt lat="41.71220104533661" lon="12.798511785772433"><ele>417.8</ele><time>2026-05-01T17:01:30.998Z</time></trkpt><trkpt lat="41.71210152196871" lon="12.798487821342233"><ele>417.40000000000003</ele><time>2026-05-01T17:01:31.998Z</time></trkpt><trkpt lat="41.71199298707429" lon="12.79849769521807"><ele>417.0</ele><time>2026-05-01T17:01:32.998Z</time></trkpt><trkpt lat="41.71189433248557" lon="12.798539366274552"><ele>415.8</ele><time>2026-05-01T17:01:33.998Z</time></trkpt><trkpt lat="41.71179544438145" lon="12.79858107277711"><ele>414.6</ele><time>2026-05-01T17:01:34.998Z</time></trkpt><trkpt lat="41.71168685187066" lon="12.798602579766243"><ele>413.40000000000003</ele><time>2026-05-01T17:01:35.998Z</time></trkpt><trkpt lat="41.71158152926096" lon="12.798608361883606"><ele>412.20000000000005</ele><time>2026-05-01T17:01:36.998Z</time></trkpt><trkpt lat="41.71147702914684" lon="12.798613397083198"><ele>411.0</ele><time>2026-05-01T17:01:37.998Z</time></trkpt><trkpt lat="41.71137447810622" lon="12.798598250767832"><ele>411.0</ele><time>2026-05-01T17:01:38.998Z</time></trkpt><trkpt lat="41.71127830688863" lon="12.79859424325462"><ele>411.0</ele><time>2026-05-01T17:01:39.998Z</time></trkpt><trkpt lat="41.711180702025906" lon="12.798600383264668"><ele>411.0</ele><time>2026-05-01T17:01:40.998Z</time></trkpt><trkpt lat="41.71108222677627" lon="12.798611106218116"><ele>411.0</ele><time>2026-05-01T17:01:41.998Z</time></trkpt><trkpt lat="41.71099485939119" lon="12.79865106159026"><ele>411.0</ele><time>2026-05-01T17:01:42.998Z</time></trkpt><trkpt lat="41.710886167468296" lon="12.798693222240425"><ele>408.0</ele><time>2026-05-01T17:01:43.998Z</time></trkpt><trkpt lat="41.71077655478146" lon="12.798699622493649"><ele>405.0</ele><time>2026-05-01T17:01:44.998Z</time></trkpt><trkpt lat="41.710660557854105" lon="12.798679837217005"><ele>402.0</ele><time>2026-05-01T17:01:45.998Z</time></trkpt><trkpt lat="41.71054940632672" lon="12.798647843860135"><ele>399.0</ele><time>2026-05-01T17:01:46.998Z</time></trkpt><trkpt lat="41.71043338207207" lon="12.798646845734488"><ele>399.0</ele><time>2026-05-01T17:01:47.998Z</time></trkpt><trkpt lat="41.71032734392541" lon="12.798687527280546"><ele>399.0</ele><time>2026-05-01T17:01:48.998Z</time></trkpt><trkpt lat="41.710223836025065" lon="12.798749267014797"><ele>399.0</ele><time>2026-05-01T17:01:49.998Z</time></trkpt><trkpt lat="41.710125778652916" lon="12.79882400338047"><ele>399.0</ele><time>2026-05-01T17:01:50.998Z</time></trkpt><trkpt lat="41.710036088760575" lon="12.798881106777237"><ele>399.0</ele><time>2026-05-01T17:01:51.998Z</time></trkpt><trkpt lat="41.7099401051936" lon="12.798897416438045"><ele>397.4</ele><time>2026-05-01T17:01:52.998Z</time></trkpt><trkpt lat="41.70984188975805" lon="12.798893555775752"><ele>395.79999999999995</ele><time>2026-05-01T17:01:53.998Z</time></trkpt><trkpt lat="41.70975073199237" lon="12.79888421429198"><ele>394.20000000000005</ele><time>2026-05-01T17:01:54.998Z</time></trkpt><trkpt lat="41.70964329565333" lon="12.798882982361262"><ele>392.6</ele><time>2026-05-01T17:01:55.998Z</time></trkpt><trkpt lat="41.70952969379292" lon="12.79889696404396"><ele>391.0</ele><time>2026-05-01T17:01:57Z</time></trkpt><trkpt lat="41.70940784707292" lon="12.798923859720139"><ele>389.75</ele><time>2026-05-01T17:01:58Z</time></trkpt><trkpt lat="41.70928292259918" lon="12.798947948678322"><ele>388.5</ele><time>2026-05-01T17:01:59Z</time></trkpt><trkpt lat="41.70915969696252" lon="12.798975158369453"><ele>387.25</ele><time>2026-05-01T17:02:00Z</time></trkpt><trkpt lat="41.70903923475577" lon="12.798997972855897"><ele>386.0</ele><time>2026-05-01T17:02:01Z</time></trkpt><trkpt lat="41.708919432716726" lon="12.799004458316332"><ele>386.0</ele><time>2026-05-01T17:02:02Z</time></trkpt><trkpt lat="41.70880593396683" lon="12.799000098532483"><ele>386.0</ele><time>2026-05-01T17:02:03Z</time></trkpt><trkpt lat="41.70869100295056" lon="12.798995317430837"><ele>386.0</ele><time>2026-05-01T17:02:04Z</time></trkpt><trkpt lat="41.70858224659231" lon="12.79899512307067"><ele>386.0</ele><time>2026-05-01T17:02:05Z</time></trkpt><trkpt lat="41.7084707261353" lon="12.79901214336382"><ele>384.5</ele><time>2026-05-01T17:02:06Z</time></trkpt><trkpt lat="41.70835982958007" lon="12.799041009200339"><ele>383.0</ele><time>2026-05-01T17:02:07Z</time></trkpt><trkpt lat="41.70824545921761" lon="12.799070641564972"><ele>381.5</ele><time>2026-05-01T17:02:08Z</time></trkpt><trkpt lat="41.7081321692868" lon="12.79910876242445"><ele>380.0</ele><time>2026-05-01T17:02:09Z</time></trkpt><trkpt lat="41.70801834364664" lon="12.799131148754457"><ele>380.0</ele><time>2026-05-01T17:02:10Z</time></trkpt><trkpt lat="41.70791082411963" lon="12.799159491470984"><ele>380.0</ele><time>2026-05-01T17:02:11Z</time></trkpt><trkpt lat="41.70780597018236" lon="12.799175002758654"><ele>380.0</ele><time>2026-05-01T17:02:12Z</time></trkpt><trkpt lat="41.70770867650741" lon="12.799192334780049"><ele>380.0</ele><time>2026-05-01T17:02:13Z</time></trkpt><trkpt lat="41.70762220404045" lon="12.799191031229508"><ele>380.0</ele><time>2026-05-01T17:02:14Z</time></trkpt><trkpt lat="41.70752606118813" lon="12.799141914790582"><ele>379.0</ele><time>2026-05-01T17:02:15Z</time></trkpt><trkpt lat="41.707446282436926" lon="12.799077515739473"><ele>378.0</ele><time>2026-05-01T17:02:16Z</time></trkpt><trkpt lat="41.707355730314006" lon="12.79902118501738"><ele>377.0</ele><time>2026-05-01T17:02:17Z</time></trkpt><trkpt lat="41.70724805347474" lon="12.799030501310396"><ele>376.0</ele><time>2026-05-01T17:02:18Z</time></trkpt><trkpt lat="41.707143178539084" lon="12.799013182695077"><ele>375.0</ele><time>2026-05-01T17:02:19Z</time></trkpt><trkpt lat="41.70704841401302" lon="12.798999345067678"><ele>375.0</ele><time>2026-05-01T17:02:20Z</time></trkpt><trkpt lat="41.706976118301135" lon="12.798991806493616"><ele>375.0</ele><time>2026-05-01T17:02:21Z</time></trkpt><trkpt lat="41.70686294668563" lon="12.798925639226807"><ele>375.0</ele><time>2026-05-01T17:02:23Z</time></trkpt><trkpt lat="41.70681774865414" lon="12.798850356383086"><ele>375.0</ele><time>2026-05-01T17:02:24Z</time></trkpt><trkpt lat="41.706782097810716" lon="12.798740657482673"><ele>375.0</ele><time>2026-05-01T17:02:25Z</time></trkpt><trkpt lat="41.70674643688302" lon="12.79862417387624"><ele>374.4</ele><time>2026-05-01T17:02:26Z</time></trkpt><trkpt lat="41.70668627193776" lon="12.79852468193503"><ele>373.8</ele><time>2026-05-01T17:02:27Z</time></trkpt><trkpt lat="41.706618643331005" lon="12.798456101376646"><ele>373.20000000000005</ele><time>2026-05-01T17:02:28Z</time></trkpt><trkpt lat="41.70655184776061" lon="12.798377627920184"><ele>372.6</ele><time>2026-05-01T17:02:29Z</time></trkpt><trkpt lat="41.70648308872892" lon="12.798280978823803"><ele>372.0</ele><time>2026-05-01T17:02:30Z</time></trkpt><trkpt lat="41.706408392421" lon="12.798183252800492"><ele>372.0</ele><time>2026-05-01T17:02:31Z</time></trkpt><trkpt lat="41.70633197084658" lon="12.798081754642038"><ele>372.0</ele><time>2026-05-01T17:02:32Z</time></trkpt><trkpt lat="41.706249244008355" lon="12.797992637892726"><ele>372.0</ele><time>2026-05-01T17:02:33Z</time></trkpt><trkpt lat="41.706175344793756" lon="12.79789210670193"><ele>372.0</ele><time>2026-05-01T17:02:34Z</time></trkpt><trkpt lat="41.706093965399845" lon="12.797793956739662"><ele>372.0</ele><time>2026-05-01T17:02:35Z</time></trkpt><trkpt lat="41.70602309732624" lon="12.797693639224992"><ele>371.6</ele><time>2026-05-01T17:02:36Z</time></trkpt><trkpt lat="41.705927586646155" lon="12.797609369174857"><ele>371.20000000000005</ele><time>2026-05-01T17:02:36.999Z</time></trkpt><trkpt lat="41.70585121372042" lon="12.797514317941372"><ele>370.8</ele><time>2026-05-01T17:02:37.999Z</time></trkpt><trkpt lat="41.70577532634773" lon="12.797424310061762"><ele>370.4</ele><time>2026-05-01T17:02:38.999Z</time></trkpt><trkpt lat="41.705702126401846" lon="12.797319632195627"><ele>370.0</ele><time>2026-05-01T17:02:39.999Z</time></trkpt><trkpt lat="41.70562334676609" lon="12.79722025828314"><ele>370.0</ele><time>2026-05-01T17:02:40.999Z</time></trkpt><trkpt lat="41.705540162664406" lon="12.797128273643485"><ele>370.0</ele><time>2026-05-01T17:02:41.999Z</time></trkpt><trkpt lat="41.70543198337664" lon="12.797082898177944"><ele>370.0</ele><time>2026-05-01T17:02:42.999Z</time></trkpt><trkpt lat="41.70532900159295" lon="12.797057122272541"><ele>370.0</ele><time>2026-05-01T17:02:43.999Z</time></trkpt><trkpt lat="41.70521285465172" lon="12.7970324337891"><ele>370.0</ele><time>2026-05-01T17:02:44.999Z</time></trkpt><trkpt lat="41.70508791773949" lon="12.797000794124292"><ele>370.0</ele><time>2026-05-01T17:02:45.999Z</time></trkpt><trkpt lat="41.70496742393277" lon="12.796972373841587"><ele>370.0</ele><time>2026-05-01T17:02:46.999Z</time></trkpt><trkpt lat="41.704837218978085" lon="12.796953514200258"><ele>370.0</ele><time>2026-05-01T17:02:47.999Z</time></trkpt><trkpt lat="41.7047231189363" lon="12.796951286310287"><ele>370.0</ele><time>2026-05-01T17:02:48.999Z</time></trkpt><trkpt lat="41.70459250110726" lon="12.796942542137714"><ele>370.0</ele><time>2026-05-01T17:02:49.999Z</time></trkpt><trkpt lat="41.70447788010313" lon="12.796916593099777"><ele>370.0</ele><time>2026-05-01T17:02:50.999Z</time></trkpt><trkpt lat="41.70437576493833" lon="12.796875626695098"><ele>370.0</ele><time>2026-05-01T17:02:51.999Z</time></trkpt><trkpt lat="41.70429082954804" lon="12.796825344110564"><ele>370.0</ele><time>2026-05-01T17:02:52.999Z</time></trkpt><trkpt lat="41.704190261952775" lon="12.796686797852514"><ele>371.3333333333333</ele><time>2026-05-01T17:02:53.999Z</time></trkpt><trkpt lat="41.70409679888051" lon="12.796593345096083"><ele>372.66666666666663</ele><time>2026-05-01T17:02:54.999Z</time></trkpt><trkpt lat="41.70400185600936" lon="12.796567541667214"><ele>374.0</ele><time>2026-05-01T17:02:55.999Z</time></trkpt><trkpt lat="41.70393321070309" lon="12.796560312580043"><ele>375.3333333333333</ele><time>2026-05-01T17:02:56.999Z</time></trkpt><trkpt lat="41.70387550709692" lon="12.796497562544513"><ele>376.6666666666667</ele><time>2026-05-01T17:02:57.999Z</time></trkpt><trkpt lat="41.703791824302115" lon="12.796497739759419"><ele>378.0</ele><time>2026-05-01T17:02:58.999Z</time></trkpt><trkpt lat="41.703710234532515" lon="12.79651401378147"><ele>378.0</ele><time>2026-05-01T17:02:59.999Z</time></trkpt><trkpt lat="41.70361038863783" lon="12.796534246591817"><ele>378.0</ele><time>2026-05-01T17:03:00.999Z</time></trkpt><trkpt lat="41.703454063147994" lon="12.796558113201497"><ele>378.0</ele><time>2026-05-01T17:03:02.999Z</time></trkpt><trkpt lat="41.70332246389523" lon="12.796650291466873"><ele>378.0</ele><time>2026-05-01T17:03:03.999Z</time></trkpt><trkpt lat="41.703224311605815" lon="12.796693244674497"><ele>377.0</ele><time>2026-05-01T17:03:04.999Z</time></trkpt><trkpt lat="41.70312103379781" lon="12.796697041233276"><ele>376.0</ele><time>2026-05-01T17:03:05.999Z</time></trkpt><trkpt lat="41.70302761080303" lon="12.79668155327674"><ele>375.0</ele><time>2026-05-01T17:03:06.999Z</time></trkpt><trkpt lat="41.70290558032514" lon="12.79667968816912"><ele>374.0</ele><time>2026-05-01T17:03:07.999Z</time></trkpt><trkpt lat="41.70277806605257" lon="12.79666146896183"><ele>373.0</ele><time>2026-05-01T17:03:08.999Z</time></trkpt><trkpt lat="41.702653045183304" lon="12.796650056018759"><ele>371.75</ele><time>2026-05-01T17:03:09.999Z</time></trkpt><trkpt lat="41.70253112849697" lon="12.796649140315909"><ele>370.5</ele><time>2026-05-01T17:03:10.999Z</time></trkpt><trkpt lat="41.702397921686746" lon="12.796668357646698"><ele>369.25</ele><time>2026-05-01T17:03:11.999Z</time></trkpt><trkpt lat="41.70229416723696" lon="12.796672578499134"><ele>368.0</ele><time>2026-05-01T17:03:12.999Z</time></trkpt><trkpt lat="41.70218417950369" lon="12.796703827718726"><ele>368.0</ele><time>2026-05-01T17:03:13.999Z</time></trkpt><trkpt lat="41.702065992162915" lon="12.796714284125553"><ele>368.0</ele><time>2026-05-01T17:03:14.999Z</time></trkpt><trkpt lat="41.70194077703423" lon="12.796748385789101"><ele>368.0</ele><time>2026-05-01T17:03:15.999Z</time></trkpt><trkpt lat="41.70184056662747" lon="12.796775493618494"><ele>368.0</ele><time>2026-05-01T17:03:16.999Z</time></trkpt><trkpt lat="41.701741607162894" lon="12.796864628839748"><ele>366.25</ele><time>2026-05-01T17:03:17.999Z</time></trkpt><trkpt lat="41.70162481732411" lon="12.796912748980501"><ele>364.5</ele><time>2026-05-01T17:03:18.999Z</time></trkpt><trkpt lat="41.7014875293781" lon="12.796948165496168"><ele>362.75</ele><time>2026-05-01T17:03:19.999Z</time></trkpt><trkpt lat="41.70136142448184" lon="12.796984270120314"><ele>361.0</ele><time>2026-05-01T17:03:20.999Z</time></trkpt><trkpt lat="41.70125789680415" lon="12.797047441207871"><ele>361.0</ele><time>2026-05-01T17:03:21.999Z</time></trkpt><trkpt lat="41.70114496104862" lon="12.797116758259484"><ele>361.0</ele><time>2026-05-01T17:03:22.999Z</time></trkpt><trkpt lat="41.7010144802259" lon="12.797217260162519"><ele>361.0</ele><time>2026-05-01T17:03:23.999Z</time></trkpt><trkpt lat="41.7008808421062" lon="12.797321958610947"><ele>361.0</ele><time>2026-05-01T17:03:24.999Z</time></trkpt><trkpt lat="41.70075920494481" lon="12.79739897780775"><ele>358.5</ele><time>2026-05-01T17:03:25.999Z</time></trkpt><trkpt lat="41.700638415894474" lon="12.797452036145833"><ele>356.0</ele><time>2026-05-01T17:03:26.999Z</time></trkpt><trkpt lat="41.700510818227485" lon="12.79750740052734"><ele>353.5</ele><time>2026-05-01T17:03:27.999Z</time></trkpt><trkpt lat="41.70039751733314" lon="12.797594078130759"><ele>351.0</ele><time>2026-05-01T17:03:28.999Z</time></trkpt><trkpt lat="41.70029681353716" lon="12.797664164172705"><ele>349.5</ele><time>2026-05-01T17:03:29.999Z</time></trkpt><trkpt lat="41.70019450737196" lon="12.79772019143471"><ele>348.0</ele><time>2026-05-01T17:03:30.999Z</time></trkpt><trkpt lat="41.70010053933681" lon="12.79778338881836"><ele>346.5</ele><time>2026-05-01T17:03:31.999Z</time></trkpt><trkpt lat="41.700019079893075" lon="12.797851365738111"><ele>345.0</ele><time>2026-05-01T17:03:32.999Z</time></trkpt><trkpt lat="41.69995791711511" lon="12.79789569667446"><ele>343.5</ele><time>2026-05-01T17:03:33.999Z</time></trkpt><trkpt lat="41.69989545537704" lon="12.797924785441678"><ele>342.0</ele><time>2026-05-01T17:03:34.999Z</time></trkpt><trkpt lat="41.69980676305987" lon="12.797979124085101"><ele>342.0</ele><time>2026-05-01T17:03:36.999Z</time></trkpt><trkpt lat="41.69978014388905" lon="12.79806468042089"><ele>342.0</ele><time>2026-05-01T17:03:38.999Z</time></trkpt><trkpt lat="41.69969934701827" lon="12.797948833887807"><ele>342.0</ele><time>2026-05-01T17:03:46.998Z</time></trkpt><trkpt lat="41.699696014231435" lon="12.797843609549119"><ele>342.0</ele><time>2026-05-01T17:03:47.998Z</time></trkpt><trkpt lat="41.69964407835617" lon="12.797776319982246"><ele>342.0</ele><time>2026-05-01T17:03:48.998Z</time></trkpt><trkpt lat="41.69960684905101" lon="12.797690445346412"><ele>342.0</ele><time>2026-05-01T17:03:49.998Z</time></trkpt><trkpt lat="41.69955423245401" lon="12.797575526100644"><ele>341.75</ele><time>2026-05-01T17:03:50.998Z</time></trkpt><trkpt lat="41.69949737296083" lon="12.797427909921362"><ele>341.5</ele><time>2026-05-01T17:03:51.998Z</time></trkpt><trkpt lat="41.699419345440006" lon="12.797292871755594"><ele>341.25</ele><time>2026-05-01T17:03:52.998Z</time></trkpt><trkpt lat="41.69931464267393" lon="12.797145599830396"><ele>341.0</ele><time>2026-05-01T17:03:53.998Z</time></trkpt><trkpt lat="41.69922826442235" lon="12.797016325384574"><ele>341.0</ele><time>2026-05-01T17:03:54.998Z</time></trkpt><trkpt lat="41.69914153931758" lon="12.796880337048686"><ele>341.0</ele><time>2026-05-01T17:03:55.998Z</time></trkpt><trkpt lat="41.699055600375544" lon="12.796738812921463"><ele>341.0</ele><time>2026-05-01T17:03:56.998Z</time></trkpt><trkpt lat="41.69896276280128" lon="12.796596647083696"><ele>341.0</ele><time>2026-05-01T17:03:57.998Z</time></trkpt><trkpt lat="41.69886786986972" lon="12.796448897098614"><ele>341.33333333333337</ele><time>2026-05-01T17:03:58.998Z</time></trkpt><trkpt lat="41.69877039551026" lon="12.79629956529122"><ele>341.6666666666667</ele><time>2026-05-01T17:03:59.998Z</time></trkpt><trkpt lat="41.69866828034265" lon="12.796149860249447"><ele>342.0</ele><time>2026-05-01T17:04:00.998Z</time></trkpt><trkpt lat="41.69856500888742" lon="12.795993391522625"><ele>342.0</ele><time>2026-05-01T17:04:02Z</time></trkpt><trkpt lat="41.69845562481796" lon="12.795844219173775"><ele>342.0</ele><time>2026-05-01T17:04:03Z</time></trkpt><trkpt lat="41.69835028726046" lon="12.795699035628473"><ele>342.0</ele><time>2026-05-01T17:04:04Z</time></trkpt><trkpt lat="41.698243149716674" lon="12.795565128412392"><ele>342.0</ele><time>2026-05-01T17:04:05Z</time></trkpt><trkpt lat="41.698135010721614" lon="12.795433926772757"><ele>342.0</ele><time>2026-05-01T17:04:06Z</time></trkpt><trkpt lat="41.69802674081893" lon="12.795293491732254"><ele>342.0</ele><time>2026-05-01T17:04:07Z</time></trkpt><trkpt lat="41.697922580451255" lon="12.79513287578639"><ele>341.3333333333333</ele><time>2026-05-01T17:04:08Z</time></trkpt><trkpt lat="41.697825477738974" lon="12.794966054588322"><ele>340.66666666666663</ele><time>2026-05-01T17:04:09Z</time></trkpt><trkpt lat="41.697724762194426" lon="12.794801268932003"><ele>340.0</ele><time>2026-05-01T17:04:10Z</time></trkpt><trkpt lat="41.69765204302547" lon="12.794628053043299"><ele>340.0</ele><time>2026-05-01T17:04:11Z</time></trkpt><trkpt lat="41.697574055904475" lon="12.794474474345938"><ele>340.0</ele><time>2026-05-01T17:04:12Z</time></trkpt><trkpt lat="41.69749130815594" lon="12.79431865369284"><ele>340.0</ele><time>2026-05-01T17:04:13Z</time></trkpt><trkpt lat="41.69740741312953" lon="12.794149258507492"><ele>340.0</ele><time>2026-05-01T17:04:14Z</time></trkpt><trkpt lat="41.69732561145588" lon="12.793985559585"><ele>340.5</ele><time>2026-05-01T17:04:15Z</time></trkpt><trkpt lat="41.6972466421554" lon="12.793812982044722"><ele>341.0</ele><time>2026-05-01T17:04:16Z</time></trkpt><trkpt lat="41.6971582648128" lon="12.793651483676069"><ele>341.5</ele><time>2026-05-01T17:04:17Z</time></trkpt><trkpt lat="41.69706171949975" lon="12.793501770237734"><ele>342.0</ele><time>2026-05-01T17:04:18Z</time></trkpt><trkpt lat="41.696968018335845" lon="12.793357507327096"><ele>340.75</ele><time>2026-05-01T17:04:19Z</time></trkpt><trkpt lat="41.696881338766495" lon="12.793217766946174"><ele>339.5</ele><time>2026-05-01T17:04:20Z</time></trkpt><trkpt lat="41.69679345017957" lon="12.79307891515648"><ele>338.25</ele><time>2026-05-01T17:04:21Z</time></trkpt><trkpt lat="41.69670449597156" lon="12.792940957366138"><ele>337.0</ele><time>2026-05-01T17:04:22Z</time></trkpt><trkpt lat="41.69661677370366" lon="12.792804340670001"><ele>337.75</ele><time>2026-05-01T17:04:23Z</time></trkpt><trkpt lat="41.69653630141936" lon="12.792668836292377"><ele>338.5</ele><time>2026-05-01T17:04:24Z</time></trkpt><trkpt lat="41.69645359282179" lon="12.792533262255686"><ele>339.25</ele><time>2026-05-01T17:04:25Z</time></trkpt><trkpt lat="41.696375066623006" lon="12.79239653848547"><ele>340.0</ele><time>2026-05-01T17:04:26Z</time></trkpt><trkpt lat="41.69629248591453" lon="12.79225664565886"><ele>340.0</ele><time>2026-05-01T17:04:27Z</time></trkpt><trkpt lat="41.69620975444364" lon="12.792109334126758"><ele>340.0</ele><time>2026-05-01T17:04:28Z</time></trkpt><trkpt lat="41.696123500885335" lon="12.791960332014186"><ele>340.0</ele><time>2026-05-01T17:04:29Z</time></trkpt><trkpt lat="41.696035677842474" lon="12.791811507528266"><ele>340.0</ele><time>2026-05-01T17:04:30Z</time></trkpt><trkpt lat="41.69594708097447" lon="12.791661535351759"><ele>338.75</ele><time>2026-05-01T17:04:31Z</time></trkpt><trkpt lat="41.69585771848623" lon="12.791513853342593"><ele>337.5</ele><time>2026-05-01T17:04:32Z</time></trkpt><trkpt lat="41.695773380041594" lon="12.791370671479532"><ele>336.25</ele><time>2026-05-01T17:04:33Z</time></trkpt><trkpt lat="41.69569293984895" lon="12.791230538237045"><ele>335.0</ele><time>2026-05-01T17:04:34Z</time></trkpt><trkpt lat="41.69561661166173" lon="12.791092927866456"><ele>335.0</ele><time>2026-05-01T17:04:35Z</time></trkpt><trkpt lat="41.69554026059557" lon="12.790960253805322"><ele>335.0</ele><time>2026-05-01T17:04:36Z</time></trkpt><trkpt lat="41.695461561092074" lon="12.790823377223072"><ele>335.0</ele><time>2026-05-01T17:04:37Z</time></trkpt><trkpt lat="41.695388835910016" lon="12.790674983246136"><ele>335.0</ele><time>2026-05-01T17:04:38Z</time></trkpt><trkpt lat="41.69531810496096" lon="12.790515419922336"><ele>335.25</ele><time>2026-05-01T17:04:39Z</time></trkpt><trkpt lat="41.695250859310114" lon="12.790348609103662"><ele>335.5</ele><time>2026-05-01T17:04:40Z</time></trkpt><trkpt lat="41.69518125871319" lon="12.790179798194025"><ele>335.75</ele><time>2026-05-01T17:04:41Z</time></trkpt><trkpt lat="41.69511691473062" lon="12.790013133016982"><ele>336.0</ele><time>2026-05-01T17:04:42Z</time></trkpt><trkpt lat="41.6950590197972" lon="12.789848004713125"><ele>336.0</ele><time>2026-05-01T17:04:43Z</time></trkpt><trkpt lat="41.69500420295614" lon="12.789659802611272"><ele>336.0</ele><time>2026-05-01T17:04:44Z</time></trkpt><trkpt lat="41.69495981600547" lon="12.789477798563116"><ele>336.0</ele><time>2026-05-01T17:04:45Z</time></trkpt><trkpt lat="41.69491137110006" lon="12.789300294007784"><ele>336.0</ele><time>2026-05-01T17:04:46Z</time></trkpt><trkpt lat="41.69485705323256" lon="12.789136223553632"><ele>335.75</ele><time>2026-05-01T17:04:47Z</time></trkpt><trkpt lat="41.69479955144908" lon="12.788983559549434"><ele>335.5</ele><time>2026-05-01T17:04:48Z</time></trkpt><trkpt lat="41.69473816788643" lon="12.788832635834673"><ele>335.25</ele><time>2026-05-01T17:04:49Z</time></trkpt><trkpt lat="41.69467742689639" lon="12.788678763559206"><ele>335.0</ele><time>2026-05-01T17:04:50Z</time></trkpt><trkpt lat="41.69461461649018" lon="12.7885265922259"><ele>335.75</ele><time>2026-05-01T17:04:51Z</time></trkpt><trkpt lat="41.694551840375645" lon="12.788373627426255"><ele>336.5</ele><time>2026-05-01T17:04:52Z</time></trkpt><trkpt lat="41.694494055538826" lon="12.78821693039818"><ele>337.25</ele><time>2026-05-01T17:04:53Z</time></trkpt><trkpt lat="41.69444436209663" lon="12.788062328764743"><ele>338.0</ele><time>2026-05-01T17:04:54Z</time></trkpt><trkpt lat="41.69444549662355" lon="12.787891604434424"><ele>337.59999999999997</ele><time>2026-05-01T17:04:55Z</time></trkpt><trkpt lat="41.69441474632173" lon="12.787754424754736"><ele>337.2</ele><time>2026-05-01T17:04:56Z</time></trkpt><trkpt lat="41.694391267889735" lon="12.787616956851032"><ele>336.8</ele><time>2026-05-01T17:04:57Z</time></trkpt><trkpt lat="41.69437201148859" lon="12.787489551236792"><ele>336.4</ele><time>2026-05-01T17:04:58Z</time></trkpt><trkpt lat="41.69435299667263" lon="12.787364745580586"><ele>336.0</ele><time>2026-05-01T17:04:59Z</time></trkpt><trkpt lat="41.694334583659575" lon="12.787243889974524"><ele>335.8333333333333</ele><time>2026-05-01T17:05:00Z</time></trkpt><trkpt lat="41.694317561434715" lon="12.787127514607185"><ele>335.6666666666667</ele><time>2026-05-01T17:05:00.999Z</time></trkpt><trkpt lat="41.69430149594923" lon="12.787018938536347"><ele>335.5</ele><time>2026-05-01T17:05:01.999Z</time></trkpt><trkpt lat="41.69428727270761" lon="12.786916808631673"><ele>335.33333333333337</ele><time>2026-05-01T17:05:02.999Z</time></trkpt><trkpt lat="41.694273286451484" lon="12.786822560342198"><ele>335.1666666666667</ele><time>2026-05-01T17:05:03.999Z</time></trkpt><trkpt lat="41.694259305642" lon="12.78672834875361"><ele>335.0</ele><time>2026-05-01T17:05:04.999Z</time></trkpt><trkpt lat="41.694244468650126" lon="12.78662950310028"><ele>334.83333333333337</ele><time>2026-05-01T17:05:05.999Z</time></trkpt><trkpt lat="41.69423182724231" lon="12.786538670484779"><ele>334.6666666666667</ele><time>2026-05-01T17:05:06.999Z</time></trkpt><trkpt lat="41.69421988586011" lon="12.786452543308592"><ele>334.5</ele><time>2026-05-01T17:05:07.999Z</time></trkpt><trkpt lat="41.694206227327236" lon="12.786354031206445"><ele>334.3333333333333</ele><time>2026-05-01T17:05:08.999Z</time></trkpt><trkpt lat="41.6941913503169" lon="12.786248029348316"><ele>334.16666666666663</ele><time>2026-05-01T17:05:09.999Z</time></trkpt><trkpt lat="41.694175974590976" lon="12.786140747131594"><ele>334.0</ele><time>2026-05-01T17:05:10.999Z</time></trkpt><trkpt lat="41.69416041885121" lon="12.786032208826523"><ele>334.0</ele><time>2026-05-01T17:05:11.999Z</time></trkpt><trkpt lat="41.694146037856065" lon="12.785921437120257"><ele>334.0</ele><time>2026-05-01T17:05:12.999Z</time></trkpt><trkpt lat="41.69407406788844" lon="12.78582689092536"><ele>334.0</ele><time>2026-05-01T17:05:13.999Z</time></trkpt><trkpt lat="41.69406533463511" lon="12.785712906891522"><ele>334.0</ele><time>2026-05-01T17:05:14.999Z</time></trkpt><trkpt lat="41.69405835759551" lon="12.785608171523169"><ele>334.0</ele><time>2026-05-01T17:05:15.999Z</time></trkpt><trkpt lat="41.69405524612676" lon="12.785513760667367"><ele>334.0</ele><time>2026-05-01T17:05:16.999Z</time></trkpt><trkpt lat="41.694054334212886" lon="12.785418367877831"><ele>334.0</ele><time>2026-05-01T17:05:17.999Z</time></trkpt><trkpt lat="41.694051210849516" lon="12.785328141886183"><ele>334.0</ele><time>2026-05-01T17:05:18.999Z</time></trkpt><trkpt lat="41.69406273927097" lon="12.785240376031451"><ele>334.0</ele><time>2026-05-01T17:05:19.999Z</time></trkpt><trkpt lat="41.69406883016634" lon="12.785148757025212"><ele>334.0</ele><time>2026-05-01T17:05:20.999Z</time></trkpt><trkpt lat="41.69406955497053" lon="12.785053843728361"><ele>334.0</ele><time>2026-05-01T17:05:21.999Z</time></trkpt><trkpt lat="41.69405059161108" lon="12.784924288771737"><ele>334.0</ele><time>2026-05-01T17:05:23.999Z</time></trkpt><trkpt lat="41.69402809254388" lon="12.784814779830702"><ele>334.79999999999995</ele><time>2026-05-01T17:05:26.999Z</time></trkpt><trkpt lat="41.69399977197234" lon="12.784694288567737"><ele>335.59999999999997</ele><time>2026-05-01T17:05:28.999Z</time></trkpt><trkpt lat="41.69396247456698" lon="12.784557066552416"><ele>336.4</ele><time>2026-05-01T17:05:31.999Z</time></trkpt><trkpt lat="41.693926358816014" lon="12.784428099825789"><ele>337.2</ele><time>2026-05-01T17:05:33.999Z</time></trkpt><trkpt lat="41.69389617439036" lon="12.78432031343043"><ele>338.0</ele><time>2026-05-01T17:05:34.999Z</time></trkpt><trkpt lat="41.69386791694689" lon="12.784220712893212"><ele>338.0</ele><time>2026-05-01T17:05:35.999Z</time></trkpt><trkpt lat="41.693837935432285" lon="12.78411467269038"><ele>338.0</ele><time>2026-05-01T17:05:36.999Z</time></trkpt><trkpt lat="41.69379509881957" lon="12.783954453658206"><ele>338.0</ele><time>2026-05-01T17:05:38.999Z</time></trkpt><trkpt lat="41.69376758715543" lon="12.783851553562064"><ele>338.0</ele><time>2026-05-01T17:05:39.999Z</time></trkpt><trkpt lat="41.69372733959502" lon="12.78370105723806"><ele>338.0</ele><time>2026-05-01T17:05:40.999Z</time></trkpt><trkpt lat="41.69369480749975" lon="12.783577169019368"><ele>338.25</ele><time>2026-05-01T17:05:41.999Z</time></trkpt><trkpt lat="41.693663189747845" lon="12.78345615194099"><ele>338.5</ele><time>2026-05-01T17:05:42.999Z</time></trkpt><trkpt lat="41.69362512154273" lon="12.78330892557492"><ele>338.75</ele><time>2026-05-01T17:05:43.999Z</time></trkpt><trkpt lat="41.69358750120517" lon="12.783154503678807"><ele>339.0</ele><time>2026-05-01T17:05:44.999Z</time></trkpt><trkpt lat="41.693547937672825" lon="12.782981513706783"><ele>339.0</ele><time>2026-05-01T17:05:45.999Z</time></trkpt><trkpt lat="41.69351099844" lon="12.782799504107206"><ele>339.0</ele><time>2026-05-01T17:05:46.999Z</time></trkpt><trkpt lat="41.69348070959587" lon="12.782641837518307"><ele>339.0</ele><time>2026-05-01T17:05:47.999Z</time></trkpt><trkpt lat="41.693463686697946" lon="12.782523903688391"><ele>339.0</ele><time>2026-05-01T17:05:48.999Z</time></trkpt><trkpt lat="41.69343095886304" lon="12.782412514654766"><ele>339.0</ele><time>2026-05-01T17:05:49.999Z</time></trkpt><trkpt lat="41.69338480084153" lon="12.782353309737159"><ele>338.79999999999995</ele><time>2026-05-01T17:05:50.999Z</time></trkpt><trkpt lat="41.693332639745414" lon="12.782211289933514"><ele>338.59999999999997</ele><time>2026-05-01T17:05:52.999Z</time></trkpt><trkpt lat="41.69334033800149" lon="12.782115408091693"><ele>338.4</ele><time>2026-05-01T17:05:53.999Z</time></trkpt><trkpt lat="41.69333909833437" lon="12.781983935467261"><ele>338.2</ele><time>2026-05-01T17:05:54.999Z</time></trkpt><trkpt lat="41.69329965554852" lon="12.781840224090338"><ele>338.0</ele><time>2026-05-01T17:05:55.999Z</time></trkpt><trkpt lat="41.69326396565137" lon="12.781705162839753"><ele>337.83333333333337</ele><time>2026-05-01T17:05:56.999Z</time></trkpt><trkpt lat="41.69323713357378" lon="12.781576228338166"><ele>337.6666666666667</ele><time>2026-05-01T17:05:57.999Z</time></trkpt><trkpt lat="41.693240644517395" lon="12.781448576455197"><ele>337.5</ele><time>2026-05-01T17:05:58.999Z</time></trkpt><trkpt lat="41.69321153191914" lon="12.781339906657896"><ele>337.3333333333333</ele><time>2026-05-01T17:05:59.999Z</time></trkpt><trkpt lat="41.69318930746348" lon="12.781241257132491"><ele>337.16666666666663</ele><time>2026-05-01T17:06:00.999Z</time></trkpt><trkpt lat="41.69319691975846" lon="12.781130196435791"><ele>337.0</ele><time>2026-05-01T17:06:01.999Z</time></trkpt><trkpt lat="41.693167643839985" lon="12.781028853295464"><ele>336.0</ele><time>2026-05-01T17:06:02.999Z</time></trkpt><trkpt lat="41.69314632781175" lon="12.78094135241891"><ele>335.0</ele><time>2026-05-01T17:06:03.999Z</time></trkpt><trkpt lat="41.69313055062794" lon="12.780849124911343"><ele>334.0</ele><time>2026-05-01T17:06:04.999Z</time></trkpt><trkpt lat="41.693099750036716" lon="12.780762831472792"><ele>333.0</ele><time>2026-05-01T17:06:05.998Z</time></trkpt><trkpt lat="41.693089983097906" lon="12.780601145698848"><ele>332.0</ele><time>2026-05-01T17:06:08.001Z</time></trkpt><trkpt lat="41.69306215529178" lon="12.780444627847546"><ele>332.0</ele><time>2026-05-01T17:06:10.001Z</time></trkpt><trkpt lat="41.69301800760191" lon="12.78037112730254"><ele>332.0</ele><time>2026-05-01T17:06:11.001Z</time></trkpt><trkpt lat="41.69296468075394" lon="12.780215561407147"><ele>332.0</ele><time>2026-05-01T17:06:13.001Z</time></trkpt><trkpt lat="41.69292483337681" lon="12.780090583023865"><ele>332.0</ele><time>2026-05-01T17:06:15.001Z</time></trkpt><trkpt lat="41.69289040794716" lon="12.779995458397261"><ele>332.0</ele><time>2026-05-01T17:06:17.001Z</time></trkpt><trkpt lat="41.692851343533725" lon="12.779903723537657"><ele>331.83333333333337</ele><time>2026-05-01T17:06:19Z</time></trkpt><trkpt lat="41.69281930082866" lon="12.779817361834128"><ele>331.6666666666667</ele><time>2026-05-01T17:06:21.001Z</time></trkpt><trkpt lat="41.692781231137886" lon="12.779740214308632"><ele>331.5</ele><time>2026-05-01T17:06:23Z</time></trkpt><trkpt lat="41.69273614463473" lon="12.7796453123194"><ele>331.3333333333333</ele><time>2026-05-01T17:06:25Z</time></trkpt><trkpt lat="41.692698391011696" lon="12.779541019535214"><ele>331.16666666666663</ele><time>2026-05-01T17:06:28Z</time></trkpt><trkpt lat="41.69265782053985" lon="12.779447074834238"><ele>331.0</ele><time>2026-05-01T17:06:31Z</time></trkpt><trkpt lat="41.69260331273464" lon="12.779348733433617"><ele>332.6</ele><time>2026-05-01T17:06:33Z</time></trkpt><trkpt lat="41.69257893958248" lon="12.779265324738478"><ele>334.20000000000005</ele><time>2026-05-01T17:06:36Z</time></trkpt><trkpt lat="41.6925399849147" lon="12.779152142656217"><ele>335.79999999999995</ele><time>2026-05-01T17:06:38Z</time></trkpt><trkpt lat="41.69249566839614" lon="12.77901460427857"><ele>337.4</ele><time>2026-05-01T17:06:40Z</time></trkpt><trkpt lat="41.6924568654841" lon="12.778860366237597"><ele>339.0</ele><time>2026-05-01T17:06:42Z</time></trkpt><trkpt lat="41.69241296397774" lon="12.77870637576642"><ele>339.0</ele><time>2026-05-01T17:06:44Z</time></trkpt><trkpt lat="41.69238861737325" lon="12.778623831646831"><ele>339.0</ele><time>2026-05-01T17:06:45Z</time></trkpt><trkpt lat="41.692370994623914" lon="12.778539756241086"><ele>339.0</ele><time>2026-05-01T17:06:46Z</time></trkpt><trkpt lat="41.69229232192141" lon="12.778398460026104"><ele>339.0</ele><time>2026-05-01T17:06:48Z</time></trkpt><trkpt lat="41.69234083654007" lon="12.77832981815146"><ele>339.0</ele><time>2026-05-01T17:06:49Z</time></trkpt><trkpt lat="41.69234993745957" lon="12.77816736164144"><ele>339.79999999999995</ele><time>2026-05-01T17:06:51Z</time></trkpt><trkpt lat="41.692350999390946" lon="12.778081630811469"><ele>340.59999999999997</ele><time>2026-05-01T17:06:52Z</time></trkpt><trkpt lat="41.6923230698326" lon="12.777940225717806"><ele>341.4</ele><time>2026-05-01T17:06:54Z</time></trkpt><trkpt lat="41.69236405395688" lon="12.777798215668815"><ele>342.2</ele><time>2026-05-01T17:06:56Z</time></trkpt><trkpt lat="41.692418110386875" lon="12.777689400241217"><ele>343.0</ele><time>2026-05-01T17:06:58Z</time></trkpt><trkpt lat="41.692444054577" lon="12.777609268953087"><ele>343.0</ele><time>2026-05-01T17:07:00Z</time></trkpt><trkpt lat="41.692493813504576" lon="12.777497581134863"><ele>343.0</ele><time>2026-05-01T17:07:04Z</time></trkpt><trkpt lat="41.69252011014265" lon="12.777420863635772"><ele>343.0</ele><time>2026-05-01T17:07:06Z</time></trkpt><trkpt lat="41.692545537222706" lon="12.777292578226456"><ele>343.0</ele><time>2026-05-01T17:07:08Z</time></trkpt><trkpt lat="41.692605978616506" lon="12.777261962843262"><ele>343.0</ele><time>2026-05-01T17:07:09Z</time></trkpt><trkpt lat="41.69260833506415" lon="12.77713257908317"><ele>343.0</ele><time>2026-05-01T17:07:11Z</time></trkpt><trkpt lat="41.69263704758933" lon="12.776985725273603"><ele>343.0</ele><time>2026-05-01T17:07:13Z</time></trkpt><trkpt lat="41.692698474868614" lon="12.77686683781561"><ele>343.0</ele><time>2026-05-01T17:07:15Z</time></trkpt><trkpt lat="41.69272211787012" lon="12.776748817803114"><ele>343.0</ele><time>2026-05-01T17:07:16.999Z</time></trkpt><trkpt lat="41.692748451389896" lon="12.776620549539471"><ele>343.0</ele><time>2026-05-01T17:07:18.999Z</time></trkpt><trkpt lat="41.69278324073902" lon="12.776452820216273"><ele>343.0</ele><time>2026-05-01T17:07:20.999Z</time></trkpt><trkpt lat="41.692807025575604" lon="12.776344412351806"><ele>344.16666666666663</ele><time>2026-05-01T17:07:21.999Z</time></trkpt><trkpt lat="41.69282475890798" lon="12.776219414067226"><ele>345.3333333333333</ele><time>2026-05-01T17:07:22.999Z</time></trkpt><trkpt lat="41.69285141851382" lon="12.776106817124512"><ele>346.5</ele><time>2026-05-01T17:07:23.999Z</time></trkpt><trkpt lat="41.692877248294565" lon="12.775997475390248"><ele>347.6666666666667</ele><time>2026-05-01T17:07:24.999Z</time></trkpt><trkpt lat="41.69290256506859" lon="12.775888139245337"><ele>348.83333333333337</ele><time>2026-05-01T17:07:25.999Z</time></trkpt><trkpt lat="41.6929285013056" lon="12.775777278468372"><ele>350.0</ele><time>2026-05-01T17:07:26.999Z</time></trkpt><trkpt lat="41.6929529184812" lon="12.775660568781822"><ele>350.0</ele><time>2026-05-01T17:07:27.999Z</time></trkpt><trkpt lat="41.6929774609533" lon="12.775544355698894"><ele>350.0</ele><time>2026-05-01T17:07:28.999Z</time></trkpt><trkpt lat="41.69300207538188" lon="12.775426199767184"><ele>350.0</ele><time>2026-05-01T17:07:29.999Z</time></trkpt><trkpt lat="41.693027659805665" lon="12.775304371915043"><ele>350.0</ele><time>2026-05-01T17:07:30.999Z</time></trkpt><trkpt lat="41.693055475436765" lon="12.775182833352819"><ele>350.0</ele><time>2026-05-01T17:07:31.999Z</time></trkpt><trkpt lat="41.69307987599888" lon="12.775059385854549"><ele>349.8</ele><time>2026-05-01T17:07:32.999Z</time></trkpt><trkpt lat="41.693114174424544" lon="12.774933969020214"><ele>349.6</ele><time>2026-05-01T17:07:33.999Z</time></trkpt><trkpt lat="41.6931422087312" lon="12.77480516111554"><ele>349.4</ele><time>2026-05-01T17:07:34.999Z</time></trkpt><trkpt lat="41.693171415177495" lon="12.774670321672923"><ele>349.2</ele><time>2026-05-01T17:07:35.999Z</time></trkpt><trkpt lat="41.69320297272868" lon="12.774532980676943"><ele>349.0</ele><time>2026-05-01T17:07:36.999Z</time></trkpt><trkpt lat="41.69323697934247" lon="12.774391745534059"><ele>348.0</ele><time>2026-05-01T17:07:37.999Z</time></trkpt><trkpt lat="41.69326623994793" lon="12.774249206147736"><ele>347.0</ele><time>2026-05-01T17:07:38.999Z</time></trkpt><trkpt lat="41.693298266189515" lon="12.774100871716437"><ele>346.0</ele><time>2026-05-01T17:07:39.999Z</time></trkpt><trkpt lat="41.693331080069626" lon="12.77395499040668"><ele>345.0</ele><time>2026-05-01T17:07:40.999Z</time></trkpt><trkpt lat="41.69336567100002" lon="12.773808865786485"><ele>345.0</ele><time>2026-05-01T17:07:41.999Z</time></trkpt><trkpt lat="41.693407418437594" lon="12.773666105489385"><ele>345.0</ele><time>2026-05-01T17:07:42.999Z</time></trkpt><trkpt lat="41.693462216383104" lon="12.773531094578875"><ele>345.0</ele><time>2026-05-01T17:07:43.999Z</time></trkpt><trkpt lat="41.69351683511569" lon="12.77340570280292"><ele>345.0</ele><time>2026-05-01T17:07:44.999Z</time></trkpt><trkpt lat="41.693565802329566" lon="12.773283349599327"><ele>345.0</ele><time>2026-05-01T17:07:45.999Z</time></trkpt><trkpt lat="41.69361218296105" lon="12.773168511535475"><ele>345.6</ele><time>2026-05-01T17:07:46.999Z</time></trkpt><trkpt lat="41.693658590781794" lon="12.773062865685898"><ele>346.2</ele><time>2026-05-01T17:07:47.999Z</time></trkpt><trkpt lat="41.693704865639546" lon="12.772956065820912"><ele>346.79999999999995</ele><time>2026-05-01T17:07:48.999Z</time></trkpt><trkpt lat="41.693752057817015" lon="12.772844972900147"><ele>347.4</ele><time>2026-05-01T17:07:49.999Z</time></trkpt><trkpt lat="41.69379771142234" lon="12.772729219567788"><ele>348.0</ele><time>2026-05-01T17:07:50.999Z</time></trkpt><trkpt lat="41.69384489449499" lon="12.77262077136621"><ele>348.0</ele><time>2026-05-01T17:07:51.999Z</time></trkpt><trkpt lat="41.69389284455449" lon="12.77250896030195"><ele>348.0</ele><time>2026-05-01T17:07:52.999Z</time></trkpt><trkpt lat="41.69394083949407" lon="12.772400738496394"><ele>348.0</ele><time>2026-05-01T17:07:53.999Z</time></trkpt><trkpt lat="41.69398256332348" lon="12.772291567007395"><ele>348.0</ele><time>2026-05-01T17:07:54.999Z</time></trkpt><trkpt lat="41.69402373216455" lon="12.772181778357231"><ele>348.0</ele><time>2026-05-01T17:07:55.999Z</time></trkpt><trkpt lat="41.69406629395362" lon="12.772076461322378"><ele>348.0</ele><time>2026-05-01T17:07:56.999Z</time></trkpt><trkpt lat="41.694108691916384" lon="12.771976442343814"><ele>348.0</ele><time>2026-05-01T17:07:57.999Z</time></trkpt><trkpt lat="41.694155391070005" lon="12.771881787006539"><ele>348.0</ele><time>2026-05-01T17:07:58.999Z</time></trkpt><trkpt lat="41.69420038549772" lon="12.771792431026611"><ele>348.0</ele><time>2026-05-01T17:07:59.999Z</time></trkpt><trkpt lat="41.69425867294454" lon="12.77172201353477"><ele>348.0</ele><time>2026-05-01T17:08:00.999Z</time></trkpt><trkpt lat="41.69432057705485" lon="12.771669776963778"><ele>348.0</ele><time>2026-05-01T17:08:01.999Z</time></trkpt><trkpt lat="41.694385025488074" lon="12.771635281589191"><ele>348.3333333333333</ele><time>2026-05-01T17:08:02.999Z</time></trkpt><trkpt lat="41.69444776904191" lon="12.771617909791106"><ele>348.6666666666667</ele><time>2026-05-01T17:08:03.999Z</time></trkpt><trkpt lat="41.69451204038303" lon="12.771606293327299"><ele>349.0</ele><time>2026-05-01T17:08:04.999Z</time></trkpt><trkpt lat="41.69462258036712" lon="12.771589183684613"><ele>349.33333333333337</ele><time>2026-05-01T17:08:06.999Z</time></trkpt><trkpt lat="41.69469680295853" lon="12.771558771996741"><ele>349.6666666666667</ele><time>2026-05-01T17:08:08.999Z</time></trkpt><trkpt lat="41.694776259767984" lon="12.771568998714338"><ele>350.0</ele><time>2026-05-01T17:08:15.001Z</time></trkpt><trkpt lat="41.69487956683625" lon="12.771654079864343"><ele>350.0</ele><time>2026-05-01T17:08:17.001Z</time></trkpt><trkpt lat="41.69494389953829" lon="12.771662339310847"><ele>350.0</ele><time>2026-05-01T17:08:18.001Z</time></trkpt><trkpt lat="41.69503004727094" lon="12.771678251804243"><ele>350.0</ele><time>2026-05-01T17:08:19.001Z</time></trkpt><trkpt lat="41.69513149117252" lon="12.771689146880462"><ele>350.0</ele><time>2026-05-01T17:08:20.001Z</time></trkpt><trkpt lat="41.6952284868629" lon="12.771701089403324"><ele>350.0</ele><time>2026-05-01T17:08:21.001Z</time></trkpt><trkpt lat="41.69532926603659" lon="12.771706872942904"><ele>351.5</ele><time>2026-05-01T17:08:22.001Z</time></trkpt><trkpt lat="41.69544351809438" lon="12.77171771513824"><ele>353.0</ele><time>2026-05-01T17:08:23.001Z</time></trkpt><trkpt lat="41.69556254355937" lon="12.771720908686175"><ele>354.5</ele><time>2026-05-01T17:08:24.001Z</time></trkpt><trkpt lat="41.69567853701409" lon="12.771711167465831"><ele>356.0</ele><time>2026-05-01T17:08:25.001Z</time></trkpt><trkpt lat="41.69580235462121" lon="12.77167795601262"><ele>356.0</ele><time>2026-05-01T17:08:26.001Z</time></trkpt><trkpt lat="41.69592277358897" lon="12.771615013708608"><ele>356.0</ele><time>2026-05-01T17:08:27.001Z</time></trkpt><trkpt lat="41.69603687354912" lon="12.771516849562065"><ele>356.0</ele><time>2026-05-01T17:08:28.001Z</time></trkpt><trkpt lat="41.696154904316145" lon="12.771402053457557"><ele>356.0</ele><time>2026-05-01T17:08:29.001Z</time></trkpt><trkpt lat="41.696269425919375" lon="12.771267320743465"><ele>358.33333333333337</ele><time>2026-05-01T17:08:30.001Z</time></trkpt><trkpt lat="41.69639143142505" lon="12.771139607890763"><ele>360.6666666666667</ele><time>2026-05-01T17:08:31Z</time></trkpt><trkpt lat="41.69651709499254" lon="12.771022931202692"><ele>363.0</ele><time>2026-05-01T17:08:32Z</time></trkpt><trkpt lat="41.696655568680114" lon="12.77093129159"><ele>363.0</ele><time>2026-05-01T17:08:33Z</time></trkpt><trkpt lat="41.69679386569003" lon="12.7708646019655"><ele>363.0</ele><time>2026-05-01T17:08:34Z</time></trkpt><trkpt lat="41.69691416703217" lon="12.77079813336841"><ele>363.0</ele><time>2026-05-01T17:08:35Z</time></trkpt><trkpt lat="41.69700797728037" lon="12.77069709507426"><ele>363.0</ele><time>2026-05-01T17:08:36Z</time></trkpt><trkpt lat="41.69706882417393" lon="12.77056718036022"><ele>365.75</ele><time>2026-05-01T17:08:37Z</time></trkpt><trkpt lat="41.697096180368376" lon="12.770414237555503"><ele>368.5</ele><time>2026-05-01T17:08:38Z</time></trkpt><trkpt lat="41.69708522344787" lon="12.770252107019337"><ele>371.25</ele><time>2026-05-01T17:08:39Z</time></trkpt><trkpt lat="41.697050303932635" lon="12.770096089587097"><ele>374.0</ele><time>2026-05-01T17:08:40Z</time></trkpt><trkpt lat="41.69703151661645" lon="12.76994231148035"><ele>374.79999999999995</ele><time>2026-05-01T17:08:41Z</time></trkpt><trkpt lat="41.69703781209739" lon="12.76980658338371"><ele>375.59999999999997</ele><time>2026-05-01T17:08:42Z</time></trkpt><trkpt lat="41.69707010218446" lon="12.769668507175274"><ele>376.4</ele><time>2026-05-01T17:08:43Z</time></trkpt><trkpt lat="41.6971247364479" lon="12.769539710060545"><ele>377.2</ele><time>2026-05-01T17:08:44Z</time></trkpt><trkpt lat="41.6971827160752" lon="12.769415576688264"><ele>378.0</ele><time>2026-05-01T17:08:45Z</time></trkpt><trkpt lat="41.69722772261645" lon="12.769280287252348"><ele>378.0</ele><time>2026-05-01T17:08:46Z</time></trkpt><trkpt lat="41.69725317346747" lon="12.769132851654197"><ele>378.0</ele><time>2026-05-01T17:08:47Z</time></trkpt><trkpt lat="41.69725139613705" lon="12.768981726015678"><ele>378.0</ele><time>2026-05-01T17:08:48Z</time></trkpt><trkpt lat="41.697218281954" lon="12.76883090217616"><ele>378.0</ele><time>2026-05-01T17:08:49Z</time></trkpt><trkpt lat="41.69715935387694" lon="12.76868417749942"><ele>378.0</ele><time>2026-05-01T17:08:50Z</time></trkpt><trkpt lat="41.69708407004585" lon="12.768549215855215"><ele>378.0</ele><time>2026-05-01T17:08:51Z</time></trkpt><trkpt lat="41.69700177556074" lon="12.768417887865915"><ele>378.0</ele><time>2026-05-01T17:08:52Z</time></trkpt><trkpt lat="41.69691119709381" lon="12.7682969176531"><ele>378.0</ele><time>2026-05-01T17:08:53Z</time></trkpt><trkpt lat="41.69680957661667" lon="12.768201668592972"><ele>377.25</ele><time>2026-05-01T17:08:54Z</time></trkpt><trkpt lat="41.69669875428484" lon="12.768128609122012"><ele>376.5</ele><time>2026-05-01T17:08:55Z</time></trkpt><trkpt lat="41.69658842326427" lon="12.768070828800182"><ele>375.75</ele><time>2026-05-01T17:08:56Z</time></trkpt><trkpt lat="41.69647935682873" lon="12.7680308136213"><ele>375.0</ele><time>2026-05-01T17:08:57Z</time></trkpt><trkpt lat="41.69637254429031" lon="12.768006375926806"><ele>375.0</ele><time>2026-05-01T17:08:58Z</time></trkpt><trkpt lat="41.69626982761539" lon="12.767991453777253"><ele>375.0</ele><time>2026-05-01T17:08:59Z</time></trkpt><trkpt lat="41.6961707762132" lon="12.767980427972331"><ele>375.0</ele><time>2026-05-01T17:09:00Z</time></trkpt><trkpt lat="41.69607009756599" lon="12.76796595979508"><ele>375.0</ele><time>2026-05-01T17:09:01Z</time></trkpt><trkpt lat="41.69596944009086" lon="12.767929242017928"><ele>375.0</ele><time>2026-05-01T17:09:02Z</time></trkpt><trkpt lat="41.695866481484074" lon="12.767875017794815"><ele>376.0</ele><time>2026-05-01T17:09:03Z</time></trkpt><trkpt lat="41.69576881116932" lon="12.767809014645335"><ele>377.0</ele><time>2026-05-01T17:09:04Z</time></trkpt><trkpt lat="41.69568162067933" lon="12.767726779832199"><ele>378.0</ele><time>2026-05-01T17:09:05Z</time></trkpt><trkpt lat="41.69560142197162" lon="12.767624976071897"><ele>379.0</ele><time>2026-05-01T17:09:06Z</time></trkpt><trkpt lat="41.695529325517136" lon="12.767506592970909"><ele>380.0</ele><time>2026-05-01T17:09:07Z</time></trkpt><trkpt lat="41.695467752338665" lon="12.76737969873852"><ele>381.4</ele><time>2026-05-01T17:09:08Z</time></trkpt><trkpt lat="41.69541793942276" lon="12.767246516359362"><ele>382.8</ele><time>2026-05-01T17:09:09Z</time></trkpt><trkpt lat="41.695385223490476" lon="12.767104092843242"><ele>384.20000000000005</ele><time>2026-05-01T17:09:10Z</time></trkpt><trkpt lat="41.695369883312864" lon="12.76695438309281"><ele>385.6</ele><time>2026-05-01T17:09:11Z</time></trkpt><trkpt lat="41.695363964073614" lon="12.7668047300883"><ele>387.0</ele><time>2026-05-01T17:09:12Z</time></trkpt><trkpt lat="41.69536130853346" lon="12.766656148517836"><ele>388.6</ele><time>2026-05-01T17:09:13Z</time></trkpt><trkpt lat="41.695384503366896" lon="12.766511625410603"><ele>390.20000000000005</ele><time>2026-05-01T17:09:14Z</time></trkpt><trkpt lat="41.695396040841416" lon="12.76636931504267"><ele>391.8</ele><time>2026-05-01T17:09:15Z</time></trkpt><trkpt lat="41.69541132654572" lon="12.766228688425576"><ele>393.4</ele><time>2026-05-01T17:09:16Z</time></trkpt><trkpt lat="41.695434483027064" lon="12.766096025992534"><ele>395.0</ele><time>2026-05-01T17:09:17Z</time></trkpt><trkpt lat="41.69547691470862" lon="12.765969415063305"><ele>395.2</ele><time>2026-05-01T17:09:18Z</time></trkpt><trkpt lat="41.69553132053372" lon="12.765844020981744"><ele>395.4</ele><time>2026-05-01T17:09:19Z</time></trkpt><trkpt lat="41.69559848492399" lon="12.765728390172367"><ele>395.6</ele><time>2026-05-01T17:09:20Z</time></trkpt><trkpt lat="41.69567242135131" lon="12.765620973788735"><ele>395.8</ele><time>2026-05-01T17:09:20.999Z</time></trkpt><trkpt lat="41.695741027888786" lon="12.765511955982475"><ele>396.0</ele><time>2026-05-01T17:09:21.999Z</time></trkpt><trkpt lat="41.695822933144356" lon="12.7654243778724"><ele>396.0</ele><time>2026-05-01T17:09:22.999Z</time></trkpt><trkpt lat="41.695904322962754" lon="12.765344968749176"><ele>396.0</ele><time>2026-05-01T17:09:23.999Z</time></trkpt><trkpt lat="41.695993207911215" lon="12.765285860929113"><ele>396.0</ele><time>2026-05-01T17:09:24.999Z</time></trkpt><trkpt lat="41.696091853073256" lon="12.765248778488717"><ele>396.0</ele><time>2026-05-01T17:09:25.999Z</time></trkpt><trkpt lat="41.69620110592165" lon="12.765230442125903"><ele>396.0</ele><time>2026-05-01T17:09:26.999Z</time></trkpt><trkpt lat="41.69632303259033" lon="12.765220768768904"><ele>397.0</ele><time>2026-05-01T17:09:27.999Z</time></trkpt><trkpt lat="41.69645538621435" lon="12.765206628287558"><ele>398.0</ele><time>2026-05-01T17:09:28.999Z</time></trkpt><trkpt lat="41.69660205062183" lon="12.765222127361135"><ele>399.0</ele><time>2026-05-01T17:09:29.999Z</time></trkpt><trkpt lat="41.6967533546222" lon="12.76521701867464"><ele>400.0</ele><time>2026-05-01T17:09:30.999Z</time></trkpt><trkpt lat="41.696902554596534" lon="12.765211860699115"><ele>402.0</ele><time>2026-05-01T17:09:31.999Z</time></trkpt><trkpt lat="41.69704445030087" lon="12.76519394753817"><ele>404.0</ele><time>2026-05-01T17:09:32.999Z</time></trkpt><trkpt lat="41.69718318068532" lon="12.765191211699756"><ele>406.0</ele><time>2026-05-01T17:09:33.999Z</time></trkpt><trkpt lat="41.69731979758627" lon="12.76518909281311"><ele>408.0</ele><time>2026-05-01T17:09:34.999Z</time></trkpt><trkpt lat="41.69744883145234" lon="12.765188986538956"><ele>408.0</ele><time>2026-05-01T17:09:35.999Z</time></trkpt><trkpt lat="41.69757050815385" lon="12.765187030118462"><ele>408.0</ele><time>2026-05-01T17:09:36.999Z</time></trkpt><trkpt lat="41.697686762958305" lon="12.765177711010221"><ele>408.0</ele><time>2026-05-01T17:09:37.999Z</time></trkpt><trkpt lat="41.69779962735562" lon="12.765155245999702"><ele>408.0</ele><time>2026-05-01T17:09:38.999Z</time></trkpt><trkpt lat="41.697909604511494" lon="12.76510708896164"><ele>409.5</ele><time>2026-05-01T17:09:39.999Z</time></trkpt><trkpt lat="41.69801081480391" lon="12.765017483639403"><ele>411.0</ele><time>2026-05-01T17:09:40.999Z</time></trkpt><trkpt lat="41.69810558038256" lon="12.7649150442413"><ele>412.5</ele><time>2026-05-01T17:09:41.999Z</time></trkpt><trkpt lat="41.69819433772152" lon="12.764793157942725"><ele>414.0</ele><time>2026-05-01T17:09:42.999Z</time></trkpt><trkpt lat="41.698275675376124" lon="12.764649937605784"><ele>414.0</ele><time>2026-05-01T17:09:43.999Z</time></trkpt><trkpt lat="41.698381023238255" lon="12.76451329308331"><ele>414.0</ele><time>2026-05-01T17:09:44.999Z</time></trkpt><trkpt lat="41.698494702654955" lon="12.764387053193134"><ele>414.0</ele><time>2026-05-01T17:09:45.999Z</time></trkpt><trkpt lat="41.69861743239014" lon="12.764259631283345"><ele>417.0</ele><time>2026-05-01T17:09:46.999Z</time></trkpt><trkpt lat="41.69872783258607" lon="12.764122864680267"><ele>420.0</ele><time>2026-05-01T17:09:47.999Z</time></trkpt><trkpt lat="41.69885340844208" lon="12.764013536246427"><ele>423.0</ele><time>2026-05-01T17:09:48.999Z</time></trkpt><trkpt lat="41.69898317404676" lon="12.76392067443728"><ele>426.0</ele><time>2026-05-01T17:09:49.999Z</time></trkpt><trkpt lat="41.69912176510617" lon="12.76384738071109"><ele>426.0</ele><time>2026-05-01T17:09:50.999Z</time></trkpt><trkpt lat="41.69926501412172" lon="12.763774365484934"><ele>426.0</ele><time>2026-05-01T17:09:51.999Z</time></trkpt><trkpt lat="41.69941031118258" lon="12.763697019826903"><ele>426.0</ele><time>2026-05-01T17:09:52.999Z</time></trkpt><trkpt lat="41.699556929267075" lon="12.763615239188573"><ele>427.0</ele><time>2026-05-01T17:09:53.999Z</time></trkpt><trkpt lat="41.699704715562895" lon="12.763536704180492"><ele>428.0</ele><time>2026-05-01T17:09:54.999Z</time></trkpt><trkpt lat="41.699852824344845" lon="12.763459832291083"><ele>429.0</ele><time>2026-05-01T17:09:55.999Z</time></trkpt><trkpt lat="41.700002226854636" lon="12.763381880906435"><ele>429.0</ele><time>2026-05-01T17:09:56.999Z</time></trkpt><trkpt lat="41.700150611572035" lon="12.763295587231147"><ele>429.0</ele><time>2026-05-01T17:09:57.999Z</time></trkpt><trkpt lat="41.70029837718951" lon="12.763209221355048"><ele>429.0</ele><time>2026-05-01T17:09:58.999Z</time></trkpt><trkpt lat="41.70044427293418" lon="12.763121152611015"><ele>432.25</ele><time>2026-05-01T17:09:59.999Z</time></trkpt><trkpt lat="41.70058599078403" lon="12.763044657217183"><ele>435.5</ele><time>2026-05-01T17:10:00.999Z</time></trkpt><trkpt lat="41.700719338986794" lon="12.762975270738393"><ele>438.75</ele><time>2026-05-01T17:10:01.999Z</time></trkpt><trkpt lat="41.70084490124318" lon="12.762916727770879"><ele>442.0</ele><time>2026-05-01T17:10:02.999Z</time></trkpt><trkpt lat="41.70097032867537" lon="12.76287481647824"><ele>444.40000000000003</ele><time>2026-05-01T17:10:03.999Z</time></trkpt><trkpt lat="41.701093942948916" lon="12.762858429709604"><ele>446.80000000000007</ele><time>2026-05-01T17:10:04.999Z</time></trkpt><trkpt lat="41.70119874169413" lon="12.762892731671482"><ele>449.2</ele><time>2026-05-01T17:10:05.999Z</time></trkpt><trkpt lat="41.70127489847711" lon="12.762966296107471"><ele>451.6</ele><time>2026-05-01T17:10:06.999Z</time></trkpt><trkpt lat="41.701308058740885" lon="12.763084302267576"><ele>454.0</ele><time>2026-05-01T17:10:07.999Z</time></trkpt><trkpt lat="41.7013375202442" lon="12.763209219743102"><ele>454.0</ele><time>2026-05-01T17:10:08.999Z</time></trkpt><trkpt lat="41.70136087527221" lon="12.763364102985326"><ele>454.0</ele><time>2026-05-01T17:10:09.999Z</time></trkpt><trkpt lat="41.7013874116074" lon="12.7635194165128"><ele>454.0</ele><time>2026-05-01T17:10:10.999Z</time></trkpt><trkpt lat="41.70142477531401" lon="12.763677676561725"><ele>454.0</ele><time>2026-05-01T17:10:11.999Z</time></trkpt><trkpt lat="41.70145495913131" lon="12.763840775194563"><ele>452.75</ele><time>2026-05-01T17:10:12.999Z</time></trkpt><trkpt lat="41.70148230235496" lon="12.764002371994732"><ele>451.5</ele><time>2026-05-01T17:10:13.999Z</time></trkpt><trkpt lat="41.70151981110281" lon="12.76415585810985"><ele>450.25</ele><time>2026-05-01T17:10:14.999Z</time></trkpt><trkpt lat="41.70157147347214" lon="12.764285912731701"><ele>449.0</ele><time>2026-05-01T17:10:15.999Z</time></trkpt><trkpt lat="41.70164559155305" lon="12.764381531307338"><ele>449.6</ele><time>2026-05-01T17:10:16.999Z</time></trkpt><trkpt lat="41.70173893816381" lon="12.764430058385003"><ele>450.2</ele><time>2026-05-01T17:10:17.999Z</time></trkpt><trkpt lat="41.70184606107269" lon="12.764432466608334"><ele>450.80000000000007</ele><time>2026-05-01T17:10:18.999Z</time></trkpt><trkpt lat="41.70193776970419" lon="12.764390348427565"><ele>451.40000000000003</ele><time>2026-05-01T17:10:20.001Z</time></trkpt><trkpt lat="41.70200911958984" lon="12.764301906982798"><ele>452.0</ele><time>2026-05-01T17:10:21.001Z</time></trkpt><trkpt lat="41.70206711643806" lon="12.76417359970567"><ele>451.25</ele><time>2026-05-01T17:10:22.001Z</time></trkpt><trkpt lat="41.70208879843724" lon="12.764034378940165"><ele>450.5</ele><time>2026-05-01T17:10:23.001Z</time></trkpt><trkpt lat="41.70206397082522" lon="12.76388259213433"><ele>449.75</ele><time>2026-05-01T17:10:24.001Z</time></trkpt><trkpt lat="41.70198207295498" lon="12.763750899461117"><ele>449.0</ele><time>2026-05-01T17:10:25.001Z</time></trkpt><trkpt lat="41.701896730594356" lon="12.763641998923172"><ele>449.0</ele><time>2026-05-01T17:10:26.001Z</time></trkpt><trkpt lat="41.70182150438178" lon="12.76354299121434"><ele>449.0</ele><time>2026-05-01T17:10:27.001Z</time></trkpt><trkpt lat="41.70175661353368" lon="12.763437275515049"><ele>449.0</ele><time>2026-05-01T17:10:28.001Z</time></trkpt><trkpt lat="41.701746101366155" lon="12.76328863964854"><ele>449.0</ele><time>2026-05-01T17:10:29.001Z</time></trkpt><trkpt lat="41.7017689209656" lon="12.763149158623515"><ele>449.0</ele><time>2026-05-01T17:10:30.001Z</time></trkpt><trkpt lat="41.70184282990453" lon="12.763030377844933"><ele>450.25</ele><time>2026-05-01T17:10:31.001Z</time></trkpt><trkpt lat="41.70190803571532" lon="12.762901709058315"><ele>451.5</ele><time>2026-05-01T17:10:32.001Z</time></trkpt><trkpt lat="41.70197506166282" lon="12.762773442531884"><ele>452.75</ele><time>2026-05-01T17:10:33.001Z</time></trkpt><trkpt lat="41.70204764566528" lon="12.762606150701956"><ele>454.0</ele><time>2026-05-01T17:10:34.001Z</time></trkpt><trkpt lat="41.70211362639952" lon="12.762431407130286"><ele>458.6666666666667</ele><time>2026-05-01T17:10:35.001Z</time></trkpt><trkpt lat="41.70218033316152" lon="12.762252747187492"><ele>463.33333333333337</ele><time>2026-05-01T17:10:36Z</time></trkpt><trkpt lat="41.70224754214221" lon="12.762071333930459"><ele>468.0</ele><time>2026-05-01T17:10:37Z</time></trkpt><trkpt lat="41.7023003393534" lon="12.76188025044179"><ele>468.0</ele><time>2026-05-01T17:10:38Z</time></trkpt><trkpt lat="41.702373306432555" lon="12.761706879194099"><ele>468.0</ele><time>2026-05-01T17:10:39Z</time></trkpt><trkpt lat="41.702449334072696" lon="12.761532107615633"><ele>468.0</ele><time>2026-05-01T17:10:40Z</time></trkpt><trkpt lat="41.70252830855763" lon="12.761356321907352"><ele>468.0</ele><time>2026-05-01T17:10:41Z</time></trkpt><trkpt lat="41.70261485078822" lon="12.761178453265204"><ele>468.0</ele><time>2026-05-01T17:10:42Z</time></trkpt><trkpt lat="41.702706777432184" lon="12.76099935657916"><ele>468.0</ele><time>2026-05-01T17:10:43Z</time></trkpt><trkpt lat="41.70280034815364" lon="12.760815714246917"><ele>474.0</ele><time>2026-05-01T17:10:44Z</time></trkpt><trkpt lat="41.70288953928218" lon="12.760631552604613"><ele>480.0</ele><time>2026-05-01T17:10:45Z</time></trkpt><trkpt lat="41.70297971392476" lon="12.760446067968545"><ele>486.0</ele><time>2026-05-01T17:10:46Z</time></trkpt><trkpt lat="41.70306764451767" lon="12.760261220876867"><ele>483.66666666666663</ele><time>2026-05-01T17:10:47Z</time></trkpt><trkpt lat="41.70315191548762" lon="12.760082540983946"><ele>481.3333333333333</ele><time>2026-05-01T17:10:48Z</time></trkpt><trkpt lat="41.703235486319" lon="12.759907534457536"><ele>479.0</ele><time>2026-05-01T17:10:49Z</time></trkpt><trkpt lat="41.70331672767994" lon="12.759746607878068"><ele>479.0</ele><time>2026-05-01T17:10:50Z</time></trkpt><trkpt lat="41.70338707908465" lon="12.759595305559749"><ele>479.0</ele><time>2026-05-01T17:10:51Z</time></trkpt><trkpt lat="41.70343825795289" lon="12.759433476042357"><ele>479.0</ele><time>2026-05-01T17:10:52Z</time></trkpt><trkpt lat="41.703487089951025" lon="12.759273165920254"><ele>479.0</ele><time>2026-05-01T17:10:53Z</time></trkpt><trkpt lat="41.70346807758607" lon="12.7591022066519"><ele>478.75</ele><time>2026-05-01T17:10:54Z</time></trkpt><trkpt lat="41.70339280316212" lon="12.758964374731539"><ele>478.5</ele><time>2026-05-01T17:10:55Z</time></trkpt><trkpt lat="41.70330084750715" lon="12.75885034417451"><ele>478.25</ele><time>2026-05-01T17:10:56Z</time></trkpt><trkpt lat="41.703205474201056" lon="12.758732857700979"><ele>478.0</ele><time>2026-05-01T17:10:57Z</time></trkpt><trkpt lat="41.70310639089205" lon="12.758611970770797"><ele>481.0</ele><time>2026-05-01T17:10:58Z</time></trkpt><trkpt lat="41.70300467254834" lon="12.758495832308174"><ele>484.0</ele><time>2026-05-01T17:10:59Z</time></trkpt><trkpt lat="41.70288227343798" lon="12.758407321109644"><ele>487.0</ele><time>2026-05-01T17:11:00Z</time></trkpt><trkpt lat="41.702743757547424" lon="12.758365487751504"><ele>490.0</ele><time>2026-05-01T17:11:01Z</time></trkpt><trkpt lat="41.70260897282818" lon="12.758354362965346"><ele>490.0</ele><time>2026-05-01T17:11:02Z</time></trkpt><trkpt lat="41.702479919135804" lon="12.758401177628622"><ele>490.0</ele><time>2026-05-01T17:11:03Z</time></trkpt><trkpt lat="41.70235727539228" lon="12.758393580377561"><ele>490.0</ele><time>2026-05-01T17:11:04Z</time></trkpt><trkpt lat="41.702238923461806" lon="12.758350597521922"><ele>490.0</ele><time>2026-05-01T17:11:05Z</time></trkpt><trkpt lat="41.702130669353515" lon="12.758271655219552"><ele>490.0</ele><time>2026-05-01T17:11:06Z</time></trkpt><trkpt lat="41.70207321443146" lon="12.758114546027615"><ele>490.0</ele><time>2026-05-01T17:11:07Z</time></trkpt><trkpt lat="41.70201023983756" lon="12.757996296555465"><ele>490.0</ele><time>2026-05-01T17:11:08Z</time></trkpt><trkpt lat="41.70197190526196" lon="12.75785943423156"><ele>490.0</ele><time>2026-05-01T17:11:09Z</time></trkpt><trkpt lat="41.70194635457225" lon="12.75770931662332"><ele>493.5</ele><time>2026-05-01T17:11:10Z</time></trkpt><trkpt lat="41.70195358392964" lon="12.757564358125197"><ele>497.0</ele><time>2026-05-01T17:11:11Z</time></trkpt><trkpt lat="41.70198333081853" lon="12.757410169738296"><ele>500.5</ele><time>2026-05-01T17:11:12Z</time></trkpt><trkpt lat="41.702021298910985" lon="12.75726147853322"><ele>504.0</ele><time>2026-05-01T17:11:13Z</time></trkpt><trkpt lat="41.70205998434425" lon="12.757107823943533"><ele>504.0</ele><time>2026-05-01T17:11:14Z</time></trkpt><trkpt lat="41.70209024298302" lon="12.756948686907197"><ele>504.0</ele><time>2026-05-01T17:11:15Z</time></trkpt><trkpt lat="41.702097155235016" lon="12.756769271271066"><ele>504.0</ele><time>2026-05-01T17:11:16Z</time></trkpt><trkpt lat="41.70204932944103" lon="12.756580874664643"><ele>504.0</ele><time>2026-05-01T17:11:17Z</time></trkpt><trkpt lat="41.70198082197863" lon="12.756421019723934"><ele>505.5</ele><time>2026-05-01T17:11:18Z</time></trkpt><trkpt lat="41.70190045345268" lon="12.75627339589028"><ele>507.0</ele><time>2026-05-01T17:11:19Z</time></trkpt><trkpt lat="41.70180639506349" lon="12.756147862193405"><ele>508.5</ele><time>2026-05-01T17:11:20Z</time></trkpt><trkpt lat="41.701684164486466" lon="12.756066848003798"><ele>510.0</ele><time>2026-05-01T17:11:21Z</time></trkpt><trkpt lat="41.70157958707661" lon="12.756003373871927"><ele>510.0</ele><time>2026-05-01T17:11:22Z</time></trkpt><trkpt lat="41.70148098051726" lon="12.755937862304348"><ele>510.0</ele><time>2026-05-01T17:11:23Z</time></trkpt><trkpt lat="41.70139901932188" lon="12.755857595602855"><ele>510.0</ele><time>2026-05-01T17:11:24Z</time></trkpt><trkpt lat="41.70133600392162" lon="12.755756276592747"><ele>510.0</ele><time>2026-05-01T17:11:25Z</time></trkpt><trkpt lat="41.701303948395896" lon="12.75563905396947"><ele>510.0</ele><time>2026-05-01T17:11:26Z</time></trkpt><trkpt lat="41.70129046346796" lon="12.755521399397924"><ele>510.0</ele><time>2026-05-01T17:11:26.999Z</time></trkpt><trkpt lat="41.701296207211925" lon="12.75540766241516"><ele>510.0</ele><time>2026-05-01T17:11:27.999Z</time></trkpt><trkpt lat="41.70132386199205" lon="12.755292594508397"><ele>510.0</ele><time>2026-05-01T17:11:28.999Z</time></trkpt><trkpt lat="41.701378069430845" lon="12.755179835103931"><ele>510.0</ele><time>2026-05-01T17:11:29.999Z</time></trkpt><trkpt lat="41.70145331494964" lon="12.7550814767168"><ele>510.0</ele><time>2026-05-01T17:11:30.999Z</time></trkpt><trkpt lat="41.7015419048342" lon="12.75499486651797"><ele>510.75</ele><time>2026-05-01T17:11:31.999Z</time></trkpt><trkpt lat="41.70164327836244" lon="12.7549035554816"><ele>511.5</ele><time>2026-05-01T17:11:32.999Z</time></trkpt><trkpt lat="41.701742204266836" lon="12.75480996271781"><ele>512.25</ele><time>2026-05-01T17:11:33.999Z</time></trkpt><trkpt lat="41.70183538650178" lon="12.754708349466808"><ele>513.0</ele><time>2026-05-01T17:11:34.999Z</time></trkpt><trkpt lat="41.70191231368021" lon="12.754567054108982"><ele>514.25</ele><time>2026-05-01T17:11:35.999Z</time></trkpt><trkpt lat="41.70194605690538" lon="12.754392828786656"><ele>515.5</ele><time>2026-05-01T17:11:36.999Z</time></trkpt><trkpt lat="41.701936961264195" lon="12.754218242427722"><ele>516.75</ele><time>2026-05-01T17:11:37.999Z</time></trkpt><trkpt lat="41.701880388399886" lon="12.75406667018845"><ele>518.0</ele><time>2026-05-01T17:11:38.999Z</time></trkpt><trkpt lat="41.70179081573856" lon="12.753937615062245"><ele>518.0</ele><time>2026-05-01T17:11:39.999Z</time></trkpt><trkpt lat="41.70169029373293" lon="12.753839833257206"><ele>518.0</ele><time>2026-05-01T17:11:40.999Z</time></trkpt><trkpt lat="41.701600408084786" lon="12.75374975322742"><ele>518.0</ele><time>2026-05-01T17:11:41.999Z</time></trkpt><trkpt lat="41.70151569293882" lon="12.75365421250586"><ele>518.0</ele><time>2026-05-01T17:11:42.999Z</time></trkpt><trkpt lat="41.701449545652245" lon="12.753546893838086"><ele>520.1999999999999</ele><time>2026-05-01T17:11:43.999Z</time></trkpt><trkpt lat="41.701406243827336" lon="12.753419855909817"><ele>522.4</ele><time>2026-05-01T17:11:44.999Z</time></trkpt><trkpt lat="41.70140615517203" lon="12.75329047369432"><ele>524.5999999999999</ele><time>2026-05-01T17:11:45.999Z</time></trkpt><trkpt lat="41.701426170693914" lon="12.753162594840623"><ele>526.8</ele><time>2026-05-01T17:11:46.999Z</time></trkpt><trkpt lat="41.70147466820964" lon="12.7530491488253"><ele>529.0</ele><time>2026-05-01T17:11:47.999Z</time></trkpt><trkpt lat="41.70154385027126" lon="12.752943860697314"><ele>529.0</ele><time>2026-05-01T17:11:48.999Z</time></trkpt><trkpt lat="41.701623543061224" lon="12.752838407911854"><ele>529.0</ele><time>2026-05-01T17:11:49.999Z</time></trkpt><trkpt lat="41.70173129295863" lon="12.75276576162833"><ele>529.0</ele><time>2026-05-01T17:11:50.999Z</time></trkpt><trkpt lat="41.70183512060718" lon="12.752670723993457"><ele>529.0</ele><time>2026-05-01T17:11:51.999Z</time></trkpt><trkpt lat="41.701944484846926" lon="12.752567681759054"><ele>532.25</ele><time>2026-05-01T17:11:52.999Z</time></trkpt><trkpt lat="41.702048866297375" lon="12.752458703265042"><ele>535.5</ele><time>2026-05-01T17:11:53.999Z</time></trkpt><trkpt lat="41.70215022637985" lon="12.752346022623748"><ele>538.75</ele><time>2026-05-01T17:11:54.999Z</time></trkpt><trkpt lat="41.702249140532324" lon="12.752232691764336"><ele>542.0</ele><time>2026-05-01T17:11:55.999Z</time></trkpt><trkpt lat="41.70235826407235" lon="12.75213144584066"><ele>542.0</ele><time>2026-05-01T17:11:56.999Z</time></trkpt><trkpt lat="41.70246885592995" lon="12.752042016025976"><ele>542.0</ele><time>2026-05-01T17:11:57.999Z</time></trkpt><trkpt lat="41.70258942710939" lon="12.751983898775391"><ele>542.0</ele><time>2026-05-01T17:11:58.999Z</time></trkpt><trkpt lat="41.702711522805075" lon="12.75194248626131"><ele>542.0</ele><time>2026-05-01T17:11:59.999Z</time></trkpt><trkpt lat="41.702838689253696" lon="12.75191761164814"><ele>540.5</ele><time>2026-05-01T17:12:00.999Z</time></trkpt><trkpt lat="41.70296894385839" lon="12.751901718498482"><ele>539.0</ele><time>2026-05-01T17:12:01.999Z</time></trkpt><trkpt lat="41.70309635830576" lon="12.751886061849524"><ele>537.5</ele><time>2026-05-01T17:12:02.999Z</time></trkpt><trkpt lat="41.7032266387042" lon="12.751871961174166"><ele>536.0</ele><time>2026-05-01T17:12:03.999Z</time></trkpt><trkpt lat="41.70335734893408" lon="12.751857380540205"><ele>536.0</ele><time>2026-05-01T17:12:04.999Z</time></trkpt><trkpt lat="41.703485589388535" lon="12.751843688047405"><ele>536.0</ele><time>2026-05-01T17:12:05.999Z</time></trkpt><trkpt lat="41.70361386452309" lon="12.751842990388479"><ele>536.0</ele><time>2026-05-01T17:12:06.999Z</time></trkpt><trkpt lat="41.703741418888775" lon="12.751861554194807"><ele>536.0</ele><time>2026-05-01T17:12:07.999Z</time></trkpt><trkpt lat="41.703866188352045" lon="12.751915143661224"><ele>543.75</ele><time>2026-05-01T17:12:08.999Z</time></trkpt><trkpt lat="41.70398848901988" lon="12.751989211469942"><ele>551.5</ele><time>2026-05-01T17:12:09.999Z</time></trkpt><trkpt lat="41.70411304302205" lon="12.752071862300884"><ele>559.25</ele><time>2026-05-01T17:12:10.999Z</time></trkpt><trkpt lat="41.70423228582812" lon="12.752151175560757"><ele>567.0</ele><time>2026-05-01T17:12:11.999Z</time></trkpt><trkpt lat="41.7043505944069" lon="12.752221699087956"><ele>567.0</ele><time>2026-05-01T17:12:12.999Z</time></trkpt><trkpt lat="41.70446095042655" lon="12.752306853959913"><ele>567.0</ele><time>2026-05-01T17:12:13.999Z</time></trkpt><trkpt lat="41.704562546988754" lon="12.75238205354687"><ele>567.0</ele><time>2026-05-01T17:12:14.999Z</time></trkpt><trkpt lat="41.7046767983907" lon="12.752433328520533"><ele>567.0</ele><time>2026-05-01T17:12:15.999Z</time></trkpt><trkpt lat="41.70479233657492" lon="12.752444584404905"><ele>567.0</ele><time>2026-05-01T17:12:16.999Z</time></trkpt><trkpt lat="41.70490417314476" lon="12.752422394680188"><ele>567.0</ele><time>2026-05-01T17:12:17.999Z</time></trkpt><trkpt lat="41.70499082687927" lon="12.752315592696618"><ele>567.0</ele><time>2026-05-01T17:12:18.999Z</time></trkpt><trkpt lat="41.7050798274172" lon="12.752210199868918"><ele>567.0</ele><time>2026-05-01T17:12:19.999Z</time></trkpt><trkpt lat="41.70514090946981" lon="12.752064555263386"><ele>567.0</ele><time>2026-05-01T17:12:20.999Z</time></trkpt><trkpt lat="41.7051917293852" lon="12.751907677480201"><ele>567.0</ele><time>2026-05-01T17:12:21.999Z</time></trkpt><trkpt lat="41.70523672236954" lon="12.751751143434404"><ele>567.0</ele><time>2026-05-01T17:12:22.999Z</time></trkpt><trkpt lat="41.70527890610751" lon="12.751591978460304"><ele>567.0</ele><time>2026-05-01T17:12:23.998Z</time></trkpt><trkpt lat="41.70530084377973" lon="12.751411778596001"><ele>570.0</ele><time>2026-05-01T17:12:24.998Z</time></trkpt><trkpt lat="41.70529992425606" lon="12.751229569930471"><ele>573.0</ele><time>2026-05-01T17:12:26.001Z</time></trkpt><trkpt lat="41.705287555484254" lon="12.751055668554152"><ele>576.0</ele><time>2026-05-01T17:12:27.001Z</time></trkpt><trkpt lat="41.705275700988594" lon="12.750886465159128"><ele>579.0</ele><time>2026-05-01T17:12:28.001Z</time></trkpt><trkpt lat="41.705270555032044" lon="12.750717303971683"><ele>580.25</ele><time>2026-05-01T17:12:29.001Z</time></trkpt><trkpt lat="41.70528134293171" lon="12.750552098029956"><ele>581.5</ele><time>2026-05-01T17:12:30.001Z</time></trkpt><trkpt lat="41.7053132420938" lon="12.750392283753992"><ele>582.75</ele><time>2026-05-01T17:12:31.001Z</time></trkpt><trkpt lat="41.70535929669478" lon="12.750237687754908"><ele>584.0</ele><time>2026-05-01T17:12:32.001Z</time></trkpt><trkpt lat="41.70540443599468" lon="12.750088952603155"><ele>585.75</ele><time>2026-05-01T17:12:33.001Z</time></trkpt><trkpt lat="41.705448783647974" lon="12.749925763184251"><ele>587.5</ele><time>2026-05-01T17:12:34.001Z</time></trkpt><trkpt lat="41.70547655804249" lon="12.749750068574695"><ele>589.25</ele><time>2026-05-01T17:12:35.001Z</time></trkpt><trkpt lat="41.70547473655329" lon="12.749573988335504"><ele>591.0</ele><time>2026-05-01T17:12:36.001Z</time></trkpt><trkpt lat="41.70545129529171" lon="12.749399209168764"><ele>592.75</ele><time>2026-05-01T17:12:37Z</time></trkpt><trkpt lat="41.70543122135168" lon="12.749233502643468"><ele>594.5</ele><time>2026-05-01T17:12:38Z</time></trkpt><trkpt lat="41.70541204417712" lon="12.74907125083527"><ele>596.25</ele><time>2026-05-01T17:12:39Z</time></trkpt><trkpt lat="41.705393392710754" lon="12.748910514772431"><ele>598.0</ele><time>2026-05-01T17:12:40Z</time></trkpt><trkpt lat="41.705376955628964" lon="12.748747904465356"><ele>598.0</ele><time>2026-05-01T17:12:41Z</time></trkpt><trkpt lat="41.7053681001343" lon="12.748578857979235"><ele>598.0</ele><time>2026-05-01T17:12:42Z</time></trkpt><trkpt lat="41.70537730391872" lon="12.74840884740273"><ele>598.0</ele><time>2026-05-01T17:12:43Z</time></trkpt><trkpt lat="41.70540175357113" lon="12.748235312130607"><ele>598.0</ele><time>2026-05-01T17:12:44Z</time></trkpt><trkpt lat="41.70543179620949" lon="12.748066492384144"><ele>599.0</ele><time>2026-05-01T17:12:45Z</time></trkpt><trkpt lat="41.70546241906316" lon="12.747902485726812"><ele>600.0</ele><time>2026-05-01T17:12:46Z</time></trkpt><trkpt lat="41.705492653940226" lon="12.747741517919376"><ele>601.0</ele><time>2026-05-01T17:12:47Z</time></trkpt><trkpt lat="41.70552600454992" lon="12.747579214836183"><ele>602.0</ele><time>2026-05-01T17:12:48Z</time></trkpt><trkpt lat="41.70555425956434" lon="12.74740622430332"><ele>602.0</ele><time>2026-05-01T17:12:49Z</time></trkpt><trkpt lat="41.70561034412663" lon="12.747243821449992"><ele>602.0</ele><time>2026-05-01T17:12:50Z</time></trkpt><trkpt lat="41.70567666318726" lon="12.747088595537022"><ele>602.0</ele><time>2026-05-01T17:12:51Z</time></trkpt><trkpt lat="41.70573792695087" lon="12.74692927121215"><ele>602.0</ele><time>2026-05-01T17:12:52Z</time></trkpt><trkpt lat="41.705796996014435" lon="12.746773184741498"><ele>599.25</ele><time>2026-05-01T17:12:53Z</time></trkpt><trkpt lat="41.7058614380722" lon="12.746629200136466"><ele>596.5</ele><time>2026-05-01T17:12:54Z</time></trkpt><trkpt lat="41.70592182232299" lon="12.746486454837678"><ele>593.75</ele><time>2026-05-01T17:12:55Z</time></trkpt><trkpt lat="41.70599276432903" lon="12.746348455810557"><ele>591.0</ele><time>2026-05-01T17:12:56Z</time></trkpt><trkpt lat="41.70607665436487" lon="12.746220366106897"><ele>595.0</ele><time>2026-05-01T17:12:57Z</time></trkpt><trkpt lat="41.70616699316165" lon="12.746106051734213"><ele>599.0</ele><time>2026-05-01T17:12:58Z</time></trkpt><trkpt lat="41.70626800415071" lon="12.746002178692606"><ele>603.0</ele><time>2026-05-01T17:12:59Z</time></trkpt><trkpt lat="41.70637223152847" lon="12.74590420965189"><ele>607.0</ele><time>2026-05-01T17:13:00Z</time></trkpt><trkpt lat="41.70647356513003" lon="12.745800732860383"><ele>607.0</ele><time>2026-05-01T17:13:01Z</time></trkpt><trkpt lat="41.70656777155444" lon="12.745690289143713"><ele>607.0</ele><time>2026-05-01T17:13:02Z</time></trkpt><trkpt lat="41.70665912102553" lon="12.745575981183137"><ele>607.0</ele><time>2026-05-01T17:13:03Z</time></trkpt><trkpt lat="41.706742997731794" lon="12.745451132216262"><ele>607.0</ele><time>2026-05-01T17:13:04Z</time></trkpt><trkpt lat="41.70682107038311" lon="12.745313192156813"><ele>604.5</ele><time>2026-05-01T17:13:05Z</time></trkpt><trkpt lat="41.70688250035136" lon="12.745168925677794"><ele>602.0</ele><time>2026-05-01T17:13:06Z</time></trkpt><trkpt lat="41.70694177631219" lon="12.745025738555189"><ele>599.5</ele><time>2026-05-01T17:13:07Z</time></trkpt><trkpt lat="41.70697167450685" lon="12.744867523332113"><ele>597.0</ele><time>2026-05-01T17:13:08Z</time></trkpt><trkpt lat="41.706977142619465" lon="12.744711080172069"><ele>597.0</ele><time>2026-05-01T17:13:09Z</time></trkpt><trkpt lat="41.706945881255926" lon="12.74455222757932"><ele>597.0</ele><time>2026-05-01T17:13:10Z</time></trkpt><trkpt lat="41.70690658482884" lon="12.744395250098382"><ele>597.0</ele><time>2026-05-01T17:13:11Z</time></trkpt><trkpt lat="41.7068653714903" lon="12.74424501726507"><ele>597.0</ele><time>2026-05-01T17:13:12Z</time></trkpt><trkpt lat="41.70681946933003" lon="12.744072620030657"><ele>598.6666666666666</ele><time>2026-05-01T17:13:13Z</time></trkpt><trkpt lat="41.70677517854986" lon="12.74388939334536"><ele>600.3333333333333</ele><time>2026-05-01T17:13:14Z</time></trkpt><trkpt lat="41.70673200456141" lon="12.7436922639957"><ele>602.0</ele><time>2026-05-01T17:13:15Z</time></trkpt><trkpt lat="41.70669202276778" lon="12.743490167127298"><ele>606.6666666666666</ele><time>2026-05-01T17:13:16Z</time></trkpt><trkpt lat="41.70665250137058" lon="12.743281306447637"><ele>611.3333333333334</ele><time>2026-05-01T17:13:17Z</time></trkpt><trkpt lat="41.70661245206777" lon="12.743065951460586"><ele>616.0</ele><time>2026-05-01T17:13:18Z</time></trkpt><trkpt lat="41.706573284770336" lon="12.74285148828718"><ele>619.3333333333334</ele><time>2026-05-01T17:13:19Z</time></trkpt><trkpt lat="41.706535389666016" lon="12.742644110800303"><ele>622.6666666666666</ele><time>2026-05-01T17:13:20Z</time></trkpt><trkpt lat="41.70649593261501" lon="12.742432785853477"><ele>626.0</ele><time>2026-05-01T17:13:21Z</time></trkpt><trkpt lat="41.70645511426794" lon="12.742218796319294"><ele>626.0</ele><time>2026-05-01T17:13:22Z</time></trkpt><trkpt lat="41.70641326014835" lon="12.741998486572164"><ele>626.0</ele><time>2026-05-01T17:13:23Z</time></trkpt><trkpt lat="41.70636664032931" lon="12.74178160939244"><ele>626.0</ele><time>2026-05-01T17:13:24Z</time></trkpt><trkpt lat="41.70631704106183" lon="12.741568110096075"><ele>629.0</ele><time>2026-05-01T17:13:25Z</time></trkpt><trkpt lat="41.70626945239459" lon="12.741360817939135"><ele>632.0</ele><time>2026-05-01T17:13:26Z</time></trkpt><trkpt lat="41.70623310927365" lon="12.741154356844866"><ele>635.0</ele><time>2026-05-01T17:13:27Z</time></trkpt><trkpt lat="41.70621091147656" lon="12.740956993666144"><ele>637.5</ele><time>2026-05-01T17:13:28Z</time></trkpt><trkpt lat="41.70620709020706" lon="12.740771986819697"><ele>640.0</ele><time>2026-05-01T17:13:29Z</time></trkpt><trkpt lat="41.706207663894" lon="12.740586295829923"><ele>642.5</ele><time>2026-05-01T17:13:29.999Z</time></trkpt><trkpt lat="41.70621840209675" lon="12.740413460041058"><ele>645.0</ele><time>2026-05-01T17:13:30.999Z</time></trkpt><trkpt lat="41.70625166824118" lon="12.740246884991025"><ele>642.0</ele><time>2026-05-01T17:13:31.999Z</time></trkpt><trkpt lat="41.70630570502786" lon="12.740087301263705"><ele>639.0</ele><time>2026-05-01T17:13:32.999Z</time></trkpt><trkpt lat="41.70637192416491" lon="12.739936910306971"><ele>636.0</ele><time>2026-05-01T17:13:33.999Z</time></trkpt><trkpt lat="41.706474919947645" lon="12.739817758228943"><ele>633.0</ele><time>2026-05-01T17:13:34.999Z</time></trkpt><trkpt lat="41.70658877414378" lon="12.739710082441686"><ele>633.0</ele><time>2026-05-01T17:13:35.999Z</time></trkpt><trkpt lat="41.70671362082304" lon="12.739623890273107"><ele>633.0</ele><time>2026-05-01T17:13:36.999Z</time></trkpt><trkpt lat="41.70685139560445" lon="12.739560497516495"><ele>633.0</ele><time>2026-05-01T17:13:37.999Z</time></trkpt><trkpt lat="41.70699665401955" lon="12.73949833899932"><ele>633.0</ele><time>2026-05-01T17:13:38.999Z</time></trkpt><trkpt lat="41.70714262156641" lon="12.739430011036914"><ele>634.6666666666666</ele><time>2026-05-01T17:13:39.999Z</time></trkpt><trkpt lat="41.707282234293494" lon="12.739372622697438"><ele>636.3333333333333</ele><time>2026-05-01T17:13:40.999Z</time></trkpt><trkpt lat="41.707424787900536" lon="12.73929423220894"><ele>638.0</ele><time>2026-05-01T17:13:41.999Z</time></trkpt><trkpt lat="41.707545932958574" lon="12.739157052497577"><ele>638.0</ele><time>2026-05-01T17:13:42.999Z</time></trkpt><trkpt lat="41.70765614420661" lon="12.739001211018701"><ele>638.0</ele><time>2026-05-01T17:13:43.999Z</time></trkpt><trkpt lat="41.707761391705205" lon="12.738838432920714"><ele>638.0</ele><time>2026-05-01T17:13:44.999Z</time></trkpt><trkpt lat="41.70785872008247" lon="12.738671903414083"><ele>642.6666666666666</ele><time>2026-05-01T17:13:45.999Z</time></trkpt><trkpt lat="41.70795300914335" lon="12.73850106592434"><ele>647.3333333333334</ele><time>2026-05-01T17:13:46.999Z</time></trkpt><trkpt lat="41.70804578595938" lon="12.738335833807085"><ele>652.0</ele><time>2026-05-01T17:13:47.999Z</time></trkpt><trkpt lat="41.70814071763748" lon="12.738175937143488"><ele>652.0</ele><time>2026-05-01T17:13:48.999Z</time></trkpt><trkpt lat="41.708249961172456" lon="12.73803860366248"><ele>652.0</ele><time>2026-05-01T17:13:49.999Z</time></trkpt><trkpt lat="41.70838295183576" lon="12.737943436260462"><ele>652.0</ele><time>2026-05-01T17:13:50.999Z</time></trkpt><trkpt lat="41.70852660446364" lon="12.737845241197757"><ele>651.6666666666667</ele><time>2026-05-01T17:13:51.999Z</time></trkpt><trkpt lat="41.708678461694284" lon="12.737779255262916"><ele>651.3333333333334</ele><time>2026-05-01T17:13:52.999Z</time></trkpt><trkpt lat="41.708827761624434" lon="12.737719913070322"><ele>651.0</ele><time>2026-05-01T17:13:53.999Z</time></trkpt><trkpt lat="41.708980394796576" lon="12.737686618180517"><ele>651.0</ele><time>2026-05-01T17:13:54.999Z</time></trkpt><trkpt lat="41.70913473227961" lon="12.737678549927846"><ele>651.0</ele><time>2026-05-01T17:13:55.999Z</time></trkpt><trkpt lat="41.70928882220409" lon="12.737695674664105"><ele>651.0</ele><time>2026-05-01T17:13:56.999Z</time></trkpt><trkpt lat="41.70943943289886" lon="12.737733748742915"><ele>653.25</ele><time>2026-05-01T17:13:57.999Z</time></trkpt><trkpt lat="41.70958317050666" lon="12.73777704099847"><ele>655.5</ele><time>2026-05-01T17:13:58.999Z</time></trkpt><trkpt lat="41.709723761394486" lon="12.737815117562032"><ele>657.75</ele><time>2026-05-01T17:13:59.999Z</time></trkpt><trkpt lat="41.709861152604205" lon="12.737857405908697"><ele>660.0</ele><time>2026-05-01T17:14:00.999Z</time></trkpt><trkpt lat="41.709995785902024" lon="12.73789686082363"><ele>660.0</ele><time>2026-05-01T17:14:01.999Z</time></trkpt><trkpt lat="41.71013025110378" lon="12.73791840421371"><ele>660.0</ele><time>2026-05-01T17:14:02.999Z</time></trkpt><trkpt lat="41.710265791052024" lon="12.737912283046231"><ele>660.0</ele><time>2026-05-01T17:14:03.999Z</time></trkpt><trkpt lat="41.7103990966553" lon="12.737867265573945"><ele>660.0</ele><time>2026-05-01T17:14:04.999Z</time></trkpt><trkpt lat="41.710521575362" lon="12.737781358668675"><ele>657.25</ele><time>2026-05-01T17:14:05.999Z</time></trkpt><trkpt lat="41.710638157561746" lon="12.737685537473121"><ele>654.5</ele><time>2026-05-01T17:14:06.999Z</time></trkpt><trkpt lat="41.710757762565265" lon="12.73759772103208"><ele>651.75</ele><time>2026-05-01T17:14:07.999Z</time></trkpt><trkpt lat="41.71088231836809" lon="12.737540353598769"><ele>649.0</ele><time>2026-05-01T17:14:08.999Z</time></trkpt><trkpt lat="41.71101563340693" lon="12.737485666176923"><ele>651.75</ele><time>2026-05-01T17:14:09.999Z</time></trkpt><trkpt lat="41.71114792119972" lon="12.73743281386804"><ele>654.5</ele><time>2026-05-01T17:14:10.999Z</time></trkpt><trkpt lat="41.711285343302464" lon="12.73738384090373"><ele>657.25</ele><time>2026-05-01T17:14:11.999Z</time></trkpt><trkpt lat="41.711436754979125" lon="12.73732093041952"><ele>660.0</ele><time>2026-05-01T17:14:12.999Z</time></trkpt><trkpt lat="41.711598820468595" lon="12.737273813095891"><ele>660.0</ele><time>2026-05-01T17:14:13.999Z</time></trkpt><trkpt lat="41.711745395387844" lon="12.737224023402623"><ele>660.0</ele><time>2026-05-01T17:14:14.999Z</time></trkpt><trkpt lat="41.71189369634249" lon="12.7371730049968"><ele>660.0</ele><time>2026-05-01T17:14:15.999Z</time></trkpt><trkpt lat="41.71203566850127" lon="12.737123915655546"><ele>657.0</ele><time>2026-05-01T17:14:16.999Z</time></trkpt><trkpt lat="41.71218117096598" lon="12.737063455590905"><ele>654.0</ele><time>2026-05-01T17:14:17.999Z</time></trkpt><trkpt lat="41.71232518741967" lon="12.737003570124685"><ele>651.0</ele><time>2026-05-01T17:14:18.999Z</time></trkpt><trkpt lat="41.71247073799736" lon="12.736924629609339"><ele>652.6666666666666</ele><time>2026-05-01T17:14:19.999Z</time></trkpt><trkpt lat="41.71261813519967" lon="12.736874956988943"><ele>654.3333333333333</ele><time>2026-05-01T17:14:20.999Z</time></trkpt><trkpt lat="41.712758544976175" lon="12.736786130023162"><ele>656.0</ele><time>2026-05-01T17:14:21.999Z</time></trkpt><trkpt lat="41.71289686951024" lon="12.736667111814127"><ele>650.3333333333333</ele><time>2026-05-01T17:14:22.999Z</time></trkpt><trkpt lat="41.713025438038635" lon="12.736536583693741"><ele>644.6666666666666</ele><time>2026-05-01T17:14:23.999Z</time></trkpt><trkpt lat="41.71315477963828" lon="12.736404135285659"><ele>639.0</ele><time>2026-05-01T17:14:24.998Z</time></trkpt><trkpt lat="41.71328290138437" lon="12.736272704672954"><ele>639.0</ele><time>2026-05-01T17:14:25.998Z</time></trkpt><trkpt lat="41.71341828589832" lon="12.736156913113902"><ele>639.0</ele><time>2026-05-01T17:14:26.998Z</time></trkpt><trkpt lat="41.713548286815396" lon="12.736021693185709"><ele>639.0</ele><time>2026-05-01T17:14:27.998Z</time></trkpt><trkpt lat="41.713678427913834" lon="12.735891034514315"><ele>635.6666666666666</ele><time>2026-05-01T17:14:28.998Z</time></trkpt><trkpt lat="41.713805381573955" lon="12.735751439092578"><ele>632.3333333333333</ele><time>2026-05-01T17:14:29.998Z</time></trkpt><trkpt lat="41.7139202730712" lon="12.735597308252176"><ele>629.0</ele><time>2026-05-01T17:14:30.998Z</time></trkpt><trkpt lat="41.71404397407306" lon="12.735465523526107"><ele>629.0</ele><time>2026-05-01T17:14:32Z</time></trkpt><trkpt lat="41.714161585781596" lon="12.7353444420183"><ele>629.0</ele><time>2026-05-01T17:14:33Z</time></trkpt><trkpt lat="41.71427321120828" lon="12.735240147867335"><ele>629.0</ele><time>2026-05-01T17:14:34Z</time></trkpt><trkpt lat="41.71437586872647" lon="12.735144283985315"><ele>629.0</ele><time>2026-05-01T17:14:35Z</time></trkpt><trkpt lat="41.71446938365692" lon="12.735056879596168"><ele>628.2</ele><time>2026-05-01T17:14:36Z</time></trkpt><trkpt lat="41.7145478853929" lon="12.734967813323932"><ele>627.4</ele><time>2026-05-01T17:14:37Z</time></trkpt><trkpt lat="41.714629575193335" lon="12.73488854716274"><ele>626.6</ele><time>2026-05-01T17:14:38Z</time></trkpt><trkpt lat="41.71471102885751" lon="12.734854513550475"><ele>625.8</ele><time>2026-05-01T17:14:39Z</time></trkpt><trkpt lat="41.714780333959446" lon="12.73487186583406"><ele>625.0</ele><time>2026-05-01T17:14:40Z</time></trkpt><trkpt lat="41.714892588484815" lon="12.734859090780335"><ele>625.0</ele><time>2026-05-01T17:14:42Z</time></trkpt><trkpt lat="41.71495751777326" lon="12.734706021694645"><ele>625.0</ele><time>2026-05-01T17:14:44Z</time></trkpt><trkpt lat="41.7149856615889" lon="12.734603903856673"><ele>625.0</ele><time>2026-05-01T17:14:45Z</time></trkpt><trkpt lat="41.71503536772977" lon="12.734510469479245"><ele>625.0</ele><time>2026-05-01T17:14:46Z</time></trkpt><trkpt lat="41.715118162360625" lon="12.734412190882344"><ele>625.0</ele><time>2026-05-01T17:14:47Z</time></trkpt><trkpt lat="41.71520242126742" lon="12.734320894797914"><ele>624.0</ele><time>2026-05-01T17:14:48Z</time></trkpt><trkpt lat="41.71528561245212" lon="12.734227586599086"><ele>623.0</ele><time>2026-05-01T17:14:49Z</time></trkpt><trkpt lat="41.71537764262233" lon="12.734129138272293"><ele>622.0</ele><time>2026-05-01T17:14:50Z</time></trkpt><trkpt lat="41.71547006237655" lon="12.734025682743395"><ele>621.0</ele><time>2026-05-01T17:14:51Z</time></trkpt><trkpt lat="41.71557418872691" lon="12.733894462716512"><ele>621.0</ele><time>2026-05-01T17:14:52Z</time></trkpt><trkpt lat="41.71572104215937" lon="12.733768771779028"><ele>621.0</ele><time>2026-05-01T17:14:53Z</time></trkpt><trkpt lat="41.715869325625945" lon="12.733590298217061"><ele>621.0</ele><time>2026-05-01T17:14:54Z</time></trkpt><trkpt lat="41.716007855649394" lon="12.733438045221613"><ele>620.0</ele><time>2026-05-01T17:14:55Z</time></trkpt><trkpt lat="41.716157571481276" lon="12.733280988994203"><ele>619.0</ele><time>2026-05-01T17:14:56Z</time></trkpt><trkpt lat="41.71630674165846" lon="12.733124337866084"><ele>618.0</ele><time>2026-05-01T17:14:57Z</time></trkpt><trkpt lat="41.71645633401457" lon="12.732967574430361"><ele>618.0</ele><time>2026-05-01T17:14:58Z</time></trkpt><trkpt lat="41.71660424074481" lon="12.732813050637374"><ele>618.0</ele><time>2026-05-01T17:14:59Z</time></trkpt><trkpt lat="41.71674959227902" lon="12.732663002419732"><ele>618.0</ele><time>2026-05-01T17:15:00Z</time></trkpt><trkpt lat="41.71689657181652" lon="12.732509902229847"><ele>620.3333333333334</ele><time>2026-05-01T17:15:01Z</time></trkpt><trkpt lat="41.71704823289962" lon="12.732354461493497"><ele>622.6666666666667</ele><time>2026-05-01T17:15:02Z</time></trkpt><trkpt lat="41.717200151811134" lon="12.73220298235373"><ele>625.0</ele><time>2026-05-01T17:15:03Z</time></trkpt><trkpt lat="41.71734754089728" lon="12.732043949109553"><ele>625.0</ele><time>2026-05-01T17:15:04Z</time></trkpt><trkpt lat="41.71749405141171" lon="12.731890822744171"><ele>625.0</ele><time>2026-05-01T17:15:05Z</time></trkpt><trkpt lat="41.717642650100196" lon="12.731735800050524"><ele>625.0</ele><time>2026-05-01T17:15:06Z</time></trkpt><trkpt lat="41.71779654301185" lon="12.731575368718776"><ele>624.6666666666667</ele><time>2026-05-01T17:15:07Z</time></trkpt><trkpt lat="41.71795107666436" lon="12.731413610897823"><ele>624.3333333333334</ele><time>2026-05-01T17:15:08Z</time></trkpt><trkpt lat="41.71810911288213" lon="12.73125465735153"><ele>624.0</ele><time>2026-05-01T17:15:09Z</time></trkpt><trkpt lat="41.71826443366156" lon="12.731096769022402"><ele>623.0</ele><time>2026-05-01T17:15:10Z</time></trkpt><trkpt lat="41.718425611600864" lon="12.73094252336285"><ele>622.0</ele><time>2026-05-01T17:15:11Z</time></trkpt><trkpt lat="41.71858206008142" lon="12.730790066316896"><ele>621.0</ele><time>2026-05-01T17:15:12Z</time></trkpt><trkpt lat="41.71872999251376" lon="12.730606826694016"><ele>619.3333333333334</ele><time>2026-05-01T17:15:13Z</time></trkpt><trkpt lat="41.71888257514056" lon="12.730424869792541"><ele>617.6666666666667</ele><time>2026-05-01T17:15:14Z</time></trkpt><trkpt lat="41.71903784873931" lon="12.730243799068784"><ele>616.0</ele><time>2026-05-01T17:15:15Z</time></trkpt><trkpt lat="41.719197184047914" lon="12.73005907358005"><ele>616.0</ele><time>2026-05-01T17:15:16Z</time></trkpt><trkpt lat="41.71935644177354" lon="12.729869325769467"><ele>616.0</ele><time>2026-05-01T17:15:17Z</time></trkpt><trkpt lat="41.71951797437513" lon="12.729685937880156"><ele>616.0</ele><time>2026-05-01T17:15:18Z</time></trkpt><trkpt lat="41.719683454241526" lon="12.729498027828296"><ele>614.6666666666667</ele><time>2026-05-01T17:15:19Z</time></trkpt><trkpt lat="41.719846854206416" lon="12.72930051125316"><ele>613.3333333333334</ele><time>2026-05-01T17:15:20Z</time></trkpt><trkpt lat="41.720005824233816" lon="12.72910569815262"><ele>612.0</ele><time>2026-05-01T17:15:21Z</time></trkpt><trkpt lat="41.72016573550549" lon="12.728909714460537"><ele>612.6666666666666</ele><time>2026-05-01T17:15:22Z</time></trkpt><trkpt lat="41.72032682930516" lon="12.728715330728342"><ele>613.3333333333333</ele><time>2026-05-01T17:15:23Z</time></trkpt><trkpt lat="41.720488591845154" lon="12.728520845473616"><ele>614.0</ele><time>2026-05-01T17:15:24Z</time></trkpt><trkpt lat="41.72064747381854" lon="12.728326686337418"><ele>614.3333333333333</ele><time>2026-05-01T17:15:25Z</time></trkpt><trkpt lat="41.720806266963756" lon="12.728131819771734"><ele>614.6666666666666</ele><time>2026-05-01T17:15:26Z</time></trkpt><trkpt lat="41.720965209196386" lon="12.727940635382238"><ele>615.0</ele><time>2026-05-01T17:15:27Z</time></trkpt><trkpt lat="41.72112404636679" lon="12.727751216644455"><ele>616.3333333333334</ele><time>2026-05-01T17:15:28Z</time></trkpt><trkpt lat="41.72128237122463" lon="12.727562014482592"><ele>617.6666666666667</ele><time>2026-05-01T17:15:29Z</time></trkpt><trkpt lat="41.72143579358931" lon="12.727371666412203"><ele>619.0</ele><time>2026-05-01T17:15:30Z</time></trkpt><trkpt lat="41.721590059081606" lon="12.727178850655834"><ele>619.0</ele><time>2026-05-01T17:15:31Z</time></trkpt><trkpt lat="41.72174372395073" lon="12.726993647849905"><ele>619.0</ele><time>2026-05-01T17:15:32Z</time></trkpt><trkpt lat="41.72189224154369" lon="12.726813028412218"><ele>619.0</ele><time>2026-05-01T17:15:33Z</time></trkpt><trkpt lat="41.72204485354039" lon="12.726629861983602"><ele>618.3333333333334</ele><time>2026-05-01T17:15:34Z</time></trkpt><trkpt lat="41.72219775241301" lon="12.726450964938369"><ele>617.6666666666666</ele><time>2026-05-01T17:15:34.999Z</time></trkpt><trkpt lat="41.722358996048854" lon="12.726277363133725"><ele>617.0</ele><time>2026-05-01T17:15:35.999Z</time></trkpt><trkpt lat="41.72252584049889" lon="12.726120227931613"><ele>618.6666666666666</ele><time>2026-05-01T17:15:36.999Z</time></trkpt><trkpt lat="41.72270217935781" lon="12.725973299757191"><ele>620.3333333333334</ele><time>2026-05-01T17:15:37.999Z</time></trkpt><trkpt lat="41.72288342716283" lon="12.725843383421847"><ele>622.0</ele><time>2026-05-01T17:15:38.999Z</time></trkpt><trkpt lat="41.7230674965319" lon="12.725714655985167"><ele>622.0</ele><time>2026-05-01T17:15:39.999Z</time></trkpt><trkpt lat="41.72324498785322" lon="12.725581180310813"><ele>622.0</ele><time>2026-05-01T17:15:40.999Z</time></trkpt><trkpt lat="41.72342209592266" lon="12.725438684233081"><ele>622.0</ele><time>2026-05-01T17:15:41.999Z</time></trkpt><trkpt lat="41.72360005644806" lon="12.725302873577654"><ele>622.6666666666667</ele><time>2026-05-01T17:15:42.999Z</time></trkpt><trkpt lat="41.72377040854078" lon="12.72517100434042"><ele>623.3333333333334</ele><time>2026-05-01T17:15:43.999Z</time></trkpt><trkpt lat="41.72393187433489" lon="12.725034815575112"><ele>624.0</ele><time>2026-05-01T17:15:44.999Z</time></trkpt><trkpt lat="41.724084716318394" lon="12.724898058128598"><ele>624.0</ele><time>2026-05-01T17:15:45.999Z</time></trkpt><trkpt lat="41.72422261800713" lon="12.724754990348446"><ele>624.0</ele><time>2026-05-01T17:15:46.999Z</time></trkpt><trkpt lat="41.724349370036045" lon="12.724615303397856"><ele>624.0</ele><time>2026-05-01T17:15:47.999Z</time></trkpt><trkpt lat="41.72447407929374" lon="12.724484061417764"><ele>625.25</ele><time>2026-05-01T17:15:48.999Z</time></trkpt><trkpt lat="41.72458114074792" lon="12.7243706455862"><ele>626.5</ele><time>2026-05-01T17:15:49.999Z</time></trkpt><trkpt lat="41.72467639421402" lon="12.72426135430871"><ele>627.75</ele><time>2026-05-01T17:15:50.999Z</time></trkpt><trkpt lat="41.724759845735576" lon="12.724179779784325"><ele>629.0</ele><time>2026-05-01T17:15:51.999Z</time></trkpt><trkpt lat="41.72483908027893" lon="12.724106607515244"><ele>629.0</ele><time>2026-05-01T17:15:52.999Z</time></trkpt><trkpt lat="41.72491103533387" lon="12.724051604170704"><ele>629.0</ele><time>2026-05-01T17:15:53.999Z</time></trkpt><trkpt lat="41.724967811430595" lon="12.723996856649475"><ele>629.0</ele><time>2026-05-01T17:15:54.999Z</time></trkpt><trkpt lat="41.72502099027118" lon="12.723949721822267"><ele>629.0</ele><time>2026-05-01T17:15:55.999Z</time></trkpt><trkpt lat="41.72509979287913" lon="12.723865643062531"><ele>629.0</ele><time>2026-05-01T17:15:57.999Z</time></trkpt><trkpt lat="41.725145562055935" lon="12.723775316031565"><ele>629.0</ele><time>2026-05-01T17:16:00.999Z</time></trkpt><trkpt lat="41.72513110366803" lon="12.723671454094486"><ele>629.2</ele><time>2026-05-01T17:16:04.999Z</time></trkpt><trkpt lat="41.72516655746317" lon="12.72356021489121"><ele>629.4</ele><time>2026-05-01T17:16:08.999Z</time></trkpt><trkpt lat="41.72529928540449" lon="12.723709290358537"><ele>629.6</ele><time>2026-05-01T17:16:09.999Z</time></trkpt><trkpt lat="41.725350917684" lon="12.723657717728837"><ele>629.8</ele><time>2026-05-01T17:16:15.999Z</time></trkpt><trkpt lat="41.725300465118636" lon="12.723514408636886"><ele>630.0</ele><time>2026-05-01T17:17:19Z</time></trkpt><trkpt lat="41.72523242505321" lon="12.72344489054891"><ele>629.0</ele><time>2026-05-01T17:21:36Z</time></trkpt><trkpt lat="41.72520363586381" lon="12.723366522591343"><ele>628.0</ele><time>2026-05-01T17:22:01.999Z</time></trkpt><trkpt lat="41.72528383423823" lon="12.723209906543982"><ele>627.0</ele><time>2026-05-01T17:22:48.998Z</time></trkpt><trkpt lat="41.72535662247358" lon="12.723079103415156"><ele>626.0</ele><time>2026-05-01T17:22:49.998Z</time></trkpt><trkpt lat="41.72533680657099" lon="12.723192125491456"><ele>625.0</ele><time>2026-05-01T17:22:54.998Z</time></trkpt><trkpt lat="41.72540721538502" lon="12.723235995340133"><ele>625.0</ele><time>2026-05-01T17:22:56Z</time></trkpt><trkpt lat="41.725384657309704" lon="12.723013804819287"><ele>625.0</ele><time>2026-05-01T17:23:21Z</time></trkpt><trkpt lat="41.72530027483772" lon="12.723082980717598"><ele>625.0</ele><time>2026-05-01T17:23:39.058Z</time></trkpt><trkpt lat="41.72526972479491" lon="12.723210402716177"><ele>625.0</ele><time>2026-05-01T17:23:51.059Z</time></trkpt><trkpt lat="41.725334287585056" lon="12.723227654147294"><ele>625.0</ele><time>2026-05-01T17:29:26.994Z</time></trkpt><trkpt lat="41.72528864981309" lon="12.723315779405448"><ele>625.5714285714287</ele><time>2026-05-01T17:29:35Z</time></trkpt><trkpt lat="41.72522894850709" lon="12.723363254083647"><ele>626.1428571428571</ele><time>2026-05-01T17:29:49Z</time></trkpt><trkpt lat="41.725177994423554" lon="12.723412973083223"><ele>626.7142857142858</ele><time>2026-05-01T17:29:57Z</time></trkpt><trkpt lat="41.725120757620445" lon="12.723460948703485"><ele>627.2857142857143</ele><time>2026-05-01T17:30:02Z</time></trkpt><trkpt lat="41.72508799285444" lon="12.723542339984698"><ele>627.8571428571429</ele><time>2026-05-01T17:30:09Z</time></trkpt><trkpt lat="41.72503762272576" lon="12.723602002445011"><ele>628.4285714285714</ele><time>2026-05-01T17:30:20Z</time></trkpt><trkpt lat="41.72498288737139" lon="12.72366939999479"><ele>629.0</ele><time>2026-05-01T17:30:27Z</time></trkpt><trkpt lat="41.72493593297011" lon="12.723737451818815"><ele>629.0</ele><time>2026-05-01T17:30:34Z</time></trkpt><trkpt lat="41.72487149493883" lon="12.723778776144593"><ele>629.0</ele><time>2026-05-01T17:30:40Z</time></trkpt><trkpt lat="41.724802397614965" lon="12.723761167090023"><ele>629.0</ele><time>2026-05-01T17:30:46.999Z</time></trkpt><trkpt lat="41.72472804638548" lon="12.72375657533616"><ele>629.0</ele><time>2026-05-01T17:30:56.999Z</time></trkpt><trkpt lat="41.72466488974235" lon="12.723774118247665"><ele>629.0</ele><time>2026-05-01T17:31:01.999Z</time></trkpt><trkpt lat="41.72460055875188" lon="12.723806144565783"><ele>629.0</ele><time>2026-05-01T17:31:07.999Z</time></trkpt><trkpt lat="41.72453745196769" lon="12.723775727446823"><ele>629.0</ele><time>2026-05-01T17:31:27.999Z</time></trkpt><trkpt lat="41.724496945982295" lon="12.72370101357294"><ele>629.0</ele><time>2026-05-01T17:31:31.999Z</time></trkpt><trkpt lat="41.72468157973163" lon="12.72388067138895"><ele>629.0</ele><time>2026-05-01T17:32:58.412Z</time></trkpt><trkpt lat="41.72465179571687" lon="12.723989150816857"><ele>629.0</ele><time>2026-05-01T17:33:04.415Z</time></trkpt><trkpt lat="41.724586281809245" lon="12.723948422657308"><ele>629.0</ele><time>2026-05-01T17:33:14.012Z</time></trkpt><trkpt lat="41.72453184138627" lon="12.723998328362685"><ele>629.0</ele><time>2026-05-01T17:33:25.013Z</time></trkpt><trkpt lat="41.7244717505953" lon="12.724027116030161"><ele>629.0</ele><time>2026-05-01T17:36:25.013Z</time></trkpt><trkpt lat="41.7244911133074" lon="12.723934208570506"><ele>629.0</ele><time>2026-05-01T17:36:44.013Z</time></trkpt><trkpt lat="41.724624932690865" lon="12.723910196776593"><ele>629.0</ele><time>2026-05-01T17:38:29.527Z</time></trkpt><trkpt lat="41.72469578088574" lon="12.724075698346182"><ele>629.0</ele><time>2026-05-01T18:18:42.948Z</time></trkpt><trkpt lat="41.724741790795754" lon="12.724236223047853"><ele>628.6</ele><time>2026-05-01T18:18:45.017Z</time></trkpt><trkpt lat="41.72481102571227" lon="12.72441244181269"><ele>628.2</ele><time>2026-05-01T18:18:46.948Z</time></trkpt><trkpt lat="41.72484436022036" lon="12.724503477440162"><ele>627.8000000000001</ele><time>2026-05-01T18:18:47.948Z</time></trkpt><trkpt lat="41.72488918202418" lon="12.724592137113621"><ele>627.4</ele><time>2026-05-01T18:18:50.948Z</time></trkpt><trkpt lat="41.7249332604249" lon="12.724703572910085"><ele>627.0</ele><time>2026-05-01T18:18:52Z</time></trkpt><trkpt lat="41.724970394481964" lon="12.724800746134449"><ele>627.0</ele><time>2026-05-01T18:18:53.02Z</time></trkpt><trkpt lat="41.72501953311843" lon="12.724930526297683"><ele>627.0</ele><time>2026-05-01T18:18:55Z</time></trkpt><trkpt lat="41.72505053812709" lon="12.725014083308947"><ele>627.0</ele><time>2026-05-01T18:18:56Z</time></trkpt><trkpt lat="41.72508135170625" lon="12.725112870323464"><ele>627.0</ele><time>2026-05-01T18:18:58.001Z</time></trkpt><trkpt lat="41.725104898714974" lon="12.72520593707324"><ele>627.0</ele><time>2026-05-01T18:19:00.001Z</time></trkpt><trkpt lat="41.72513741374432" lon="12.725297476822497"><ele>627.0</ele><time>2026-05-01T18:19:02.001Z</time></trkpt><trkpt lat="41.725185009572414" lon="12.725425292040661"><ele>627.0</ele><time>2026-05-01T18:19:04.001Z</time></trkpt><trkpt lat="41.72496156455381" lon="12.724804489515728"><ele>631.0</ele><time>2026-05-01T18:19:05.001Z</time></trkpt><trkpt lat="41.72527016098307" lon="12.725697028421955"><ele>631.0</ele><time>2026-05-01T18:19:08.001Z</time></trkpt><trkpt lat="41.72532109917541" lon="12.725824304817982"><ele>631.0</ele><time>2026-05-01T18:19:10.001Z</time></trkpt><trkpt lat="41.72537075720354" lon="12.725935398403635"><ele>631.0</ele><time>2026-05-01T18:19:12.001Z</time></trkpt><trkpt lat="41.72541529718825" lon="12.726034535901942"><ele>631.0</ele><time>2026-05-01T18:19:14.001Z</time></trkpt><trkpt lat="41.72545875138013" lon="12.726140810110564"><ele>631.0</ele><time>2026-05-01T18:19:16.02Z</time></trkpt><trkpt lat="41.72504477861197" lon="12.724902710601787"><ele>630.0</ele><time>2026-05-01T18:19:32.422Z</time></trkpt><trkpt lat="41.725187702163225" lon="12.72529968396675"><ele>629.0</ele><time>2026-05-01T18:19:38.424Z</time></trkpt><trkpt lat="41.72481131195811" lon="12.724305278122033"><ele>629.0</ele><time>2026-05-01T18:19:59.423Z</time></trkpt><trkpt lat="41.72471382951729" lon="12.724024736767761"><ele>629.0</ele><time>2026-05-01T18:20:00Z</time></trkpt><trkpt lat="41.724862511020184" lon="12.724340786380825"><ele>628.5</ele><time>2026-05-01T18:20:13.022Z</time></trkpt><trkpt lat="41.7249139737949" lon="12.724461588673284"><ele>628.0</ele><time>2026-05-01T18:20:15Z</time></trkpt><trkpt lat="41.724941833515345" lon="12.724542937638622"><ele>627.5</ele><time>2026-05-01T18:20:16.021Z</time></trkpt><trkpt lat="41.725005096385686" lon="12.724708190653674"><ele>627.0</ele><time>2026-05-01T18:20:18Z</time></trkpt><trkpt lat="41.72511062457854" lon="12.724962987894697"><ele>627.0</ele><time>2026-05-01T18:20:25Z</time></trkpt><trkpt lat="41.72513987302561" lon="12.725046719173186"><ele>627.0</ele><time>2026-05-01T18:20:26.018Z</time></trkpt><trkpt lat="41.72464995209795" lon="12.723930808858176"><ele>629.0</ele><time>2026-05-01T18:21:03.999Z</time></trkpt><trkpt lat="41.72454462345855" lon="12.724041161872183"><ele>629.0</ele><time>2026-05-01T18:21:34.001Z</time></trkpt><trkpt lat="41.724658733247495" lon="12.72395553380644"><ele>629.0</ele><time>2026-05-01T18:21:54.425Z</time></trkpt></trkseg></trk></gpx>